<?xml version="1.0" encoding="UTF-8" standalone="no" ?>
<gpx xmlns="http://www.topografix.com/GPX/1/1" xmlns:xsi="http://www.w3.org/2001/XMLSchema-instance" xsi:schemaLocation="http://www.topografix.com/GPX/1/1 http://www.topografix.com/GPX/1/1/gpx.xsd" version="1.1" creator="VisuGPX - https://www.visugpx.com">
  <metadata>
    <name>Vtt ZunGroupe Mailhoc</name>
  </metadata>
  <trk>
    <name><![CDATA[Vtt ZunGroupe Mailhoc_1]]></name>
    <trkseg>
      <trkpt lat="44.00558" lon="2.07052">
        <ele>291.4</ele>
        <time>2021-09-05T06:33:39Z</time>
      </trkpt>
      <trkpt lat="44.00558" lon="2.07052">
        <ele>287.4</ele>
        <time>2021-09-05T06:33:40Z</time>
      </trkpt>
      <trkpt lat="44.00551" lon="2.0706">
        <ele>287.4</ele>
        <time>2021-09-05T06:33:46Z</time>
      </trkpt>
      <trkpt lat="44.00551" lon="2.0706">
        <ele>287.4</ele>
        <time>2021-09-05T06:33:47Z</time>
      </trkpt>
      <trkpt lat="44.0055" lon="2.07062">
        <ele>287.4</ele>
        <time>2021-09-05T06:33:48Z</time>
      </trkpt>
      <trkpt lat="44.00548" lon="2.07065">
        <ele>287.4</ele>
        <time>2021-09-05T06:33:49Z</time>
      </trkpt>
      <trkpt lat="44.00547" lon="2.07067">
        <ele>287.4</ele>
        <time>2021-09-05T06:33:50Z</time>
      </trkpt>
      <trkpt lat="44.00546" lon="2.07068">
        <ele>287.4</ele>
        <time>2021-09-05T06:33:51Z</time>
      </trkpt>
      <trkpt lat="44.00545" lon="2.07069">
        <ele>287.4</ele>
        <time>2021-09-05T06:33:52Z</time>
      </trkpt>
      <trkpt lat="44.00544" lon="2.0707">
        <ele>287.6</ele>
        <time>2021-09-05T06:33:53Z</time>
      </trkpt>
      <trkpt lat="44.00543" lon="2.0707">
        <ele>288</ele>
        <time>2021-09-05T06:33:54Z</time>
      </trkpt>
      <trkpt lat="44.00543" lon="2.07071">
        <ele>287.8</ele>
        <time>2021-09-05T06:33:55Z</time>
      </trkpt>
      <trkpt lat="44.00542" lon="2.07071">
        <ele>288</ele>
        <time>2021-09-05T06:33:56Z</time>
      </trkpt>
      <trkpt lat="44.00541" lon="2.07072">
        <ele>288</ele>
        <time>2021-09-05T06:33:57Z</time>
      </trkpt>
      <trkpt lat="44.00541" lon="2.07073">
        <ele>288</ele>
        <time>2021-09-05T06:33:58Z</time>
      </trkpt>
      <trkpt lat="44.00541" lon="2.07073">
        <ele>288.2</ele>
        <time>2021-09-05T06:33:59Z</time>
      </trkpt>
      <trkpt lat="44.0054" lon="2.07074">
        <ele>288.4</ele>
        <time>2021-09-05T06:34:00Z</time>
      </trkpt>
      <trkpt lat="44.00539" lon="2.07075">
        <ele>288.2</ele>
        <time>2021-09-05T06:34:01Z</time>
      </trkpt>
      <trkpt lat="44.00539" lon="2.07075">
        <ele>288.2</ele>
        <time>2021-09-05T06:34:02Z</time>
      </trkpt>
      <trkpt lat="44.00537" lon="2.07076">
        <ele>288.4</ele>
        <time>2021-09-05T06:34:03Z</time>
      </trkpt>
      <trkpt lat="44.00536" lon="2.07076">
        <ele>288.4</ele>
        <time>2021-09-05T06:34:04Z</time>
      </trkpt>
      <trkpt lat="44.00536" lon="2.07077">
        <ele>288.6</ele>
        <time>2021-09-05T06:34:05Z</time>
      </trkpt>
      <trkpt lat="44.00536" lon="2.07078">
        <ele>288.8</ele>
        <time>2021-09-05T06:34:06Z</time>
      </trkpt>
      <trkpt lat="44.00538" lon="2.0709">
        <ele>288.6</ele>
        <time>2021-09-05T06:34:47Z</time>
      </trkpt>
      <trkpt lat="44.00539" lon="2.07086">
        <ele>288.6</ele>
        <time>2021-09-05T06:34:50Z</time>
      </trkpt>
      <trkpt lat="44.0054" lon="2.07083">
        <ele>288.6</ele>
        <time>2021-09-05T06:34:51Z</time>
      </trkpt>
      <trkpt lat="44.00541" lon="2.0708">
        <ele>288.4</ele>
        <time>2021-09-05T06:34:52Z</time>
      </trkpt>
      <trkpt lat="44.00542" lon="2.07076">
        <ele>288.4</ele>
        <time>2021-09-05T06:34:54Z</time>
      </trkpt>
      <trkpt lat="44.00544" lon="2.07074">
        <ele>288.4</ele>
        <time>2021-09-05T06:34:55Z</time>
      </trkpt>
      <trkpt lat="44.00548" lon="2.07065">
        <ele>288.2</ele>
        <time>2021-09-05T06:34:57Z</time>
      </trkpt>
      <trkpt lat="44.0055" lon="2.07061">
        <ele>288.2</ele>
        <time>2021-09-05T06:34:58Z</time>
      </trkpt>
      <trkpt lat="44.00551" lon="2.07056">
        <ele>288</ele>
        <time>2021-09-05T06:34:59Z</time>
      </trkpt>
      <trkpt lat="44.00551" lon="2.07056">
        <ele>288</ele>
        <time>2021-09-05T06:35:00Z</time>
      </trkpt>
      <trkpt lat="44.00551" lon="2.07051">
        <ele>287.8</ele>
        <time>2021-09-05T06:35:01Z</time>
      </trkpt>
      <trkpt lat="44.00551" lon="2.07047">
        <ele>287.8</ele>
        <time>2021-09-05T06:35:02Z</time>
      </trkpt>
      <trkpt lat="44.0055" lon="2.07043">
        <ele>287.6</ele>
        <time>2021-09-05T06:35:03Z</time>
      </trkpt>
      <trkpt lat="44.00548" lon="2.07018">
        <ele>287.2</ele>
        <time>2021-09-05T06:35:08Z</time>
      </trkpt>
      <trkpt lat="44.00546" lon="2.07012">
        <ele>287.2</ele>
        <time>2021-09-05T06:35:09Z</time>
      </trkpt>
      <trkpt lat="44.00545" lon="2.07008">
        <ele>287.2</ele>
        <time>2021-09-05T06:35:10Z</time>
      </trkpt>
      <trkpt lat="44.00542" lon="2.07005">
        <ele>287</ele>
        <time>2021-09-05T06:35:11Z</time>
      </trkpt>
      <trkpt lat="44.00541" lon="2.07002">
        <ele>286.8</ele>
        <time>2021-09-05T06:35:12Z</time>
      </trkpt>
      <trkpt lat="44.00539" lon="2.06999">
        <ele>286.6</ele>
        <time>2021-09-05T06:35:13Z</time>
      </trkpt>
      <trkpt lat="44.00537" lon="2.06997">
        <ele>286.4</ele>
        <time>2021-09-05T06:35:14Z</time>
      </trkpt>
      <trkpt lat="44.00535" lon="2.06996">
        <ele>286.2</ele>
        <time>2021-09-05T06:35:15Z</time>
      </trkpt>
      <trkpt lat="44.00534" lon="2.06995">
        <ele>286.2</ele>
        <time>2021-09-05T06:35:16Z</time>
      </trkpt>
      <trkpt lat="44.00531" lon="2.06994">
        <ele>286</ele>
        <time>2021-09-05T06:35:17Z</time>
      </trkpt>
      <trkpt lat="44.00527" lon="2.06993">
        <ele>285.8</ele>
        <time>2021-09-05T06:35:18Z</time>
      </trkpt>
      <trkpt lat="44.00511" lon="2.06993">
        <ele>285.4</ele>
        <time>2021-09-05T06:35:22Z</time>
      </trkpt>
      <trkpt lat="44.00509" lon="2.06993">
        <ele>285.4</ele>
        <time>2021-09-05T06:35:23Z</time>
      </trkpt>
      <trkpt lat="44.00507" lon="2.06993">
        <ele>285.2</ele>
        <time>2021-09-05T06:35:24Z</time>
      </trkpt>
      <trkpt lat="44.00504" lon="2.06993">
        <ele>284.6</ele>
        <time>2021-09-05T06:35:26Z</time>
      </trkpt>
      <trkpt lat="44.00499" lon="2.06991">
        <ele>284.6</ele>
        <time>2021-09-05T06:35:27Z</time>
      </trkpt>
      <trkpt lat="44.00496" lon="2.0699">
        <ele>284.4</ele>
        <time>2021-09-05T06:35:28Z</time>
      </trkpt>
      <trkpt lat="44.00492" lon="2.06988">
        <ele>284</ele>
        <time>2021-09-05T06:35:30Z</time>
      </trkpt>
      <trkpt lat="44.00491" lon="2.06986">
        <ele>283.6</ele>
        <time>2021-09-05T06:35:31Z</time>
      </trkpt>
      <trkpt lat="44.00494" lon="2.0698">
        <ele>282.6</ele>
        <time>2021-09-05T06:35:33Z</time>
      </trkpt>
      <trkpt lat="44.00498" lon="2.06973">
        <ele>281.6</ele>
        <time>2021-09-05T06:35:35Z</time>
      </trkpt>
      <trkpt lat="44.00499" lon="2.06969">
        <ele>280.8</ele>
        <time>2021-09-05T06:35:36Z</time>
      </trkpt>
      <trkpt lat="44.005" lon="2.06964">
        <ele>280.4</ele>
        <time>2021-09-05T06:35:37Z</time>
      </trkpt>
      <trkpt lat="44.005" lon="2.06961">
        <ele>280.2</ele>
        <time>2021-09-05T06:35:38Z</time>
      </trkpt>
      <trkpt lat="44.005" lon="2.06958">
        <ele>280</ele>
        <time>2021-09-05T06:35:39Z</time>
      </trkpt>
      <trkpt lat="44.00498" lon="2.06956">
        <ele>279.8</ele>
        <time>2021-09-05T06:35:40Z</time>
      </trkpt>
      <trkpt lat="44.00495" lon="2.06957">
        <ele>279.2</ele>
        <time>2021-09-05T06:35:42Z</time>
      </trkpt>
      <trkpt lat="44.00486" lon="2.06964">
        <ele>278.8</ele>
        <time>2021-09-05T06:35:43Z</time>
      </trkpt>
      <trkpt lat="44.00474" lon="2.0697">
        <ele>278.2</ele>
        <time>2021-09-05T06:35:45Z</time>
      </trkpt>
      <trkpt lat="44.00467" lon="2.06971">
        <ele>278</ele>
        <time>2021-09-05T06:35:46Z</time>
      </trkpt>
      <trkpt lat="44.0046" lon="2.06968">
        <ele>277.4</ele>
        <time>2021-09-05T06:35:47Z</time>
      </trkpt>
      <trkpt lat="44.00454" lon="2.06964">
        <ele>277</ele>
        <time>2021-09-05T06:35:48Z</time>
      </trkpt>
      <trkpt lat="44.00447" lon="2.06957">
        <ele>276.2</ele>
        <time>2021-09-05T06:35:49Z</time>
      </trkpt>
      <trkpt lat="44.00441" lon="2.06948">
        <ele>275</ele>
        <time>2021-09-05T06:35:50Z</time>
      </trkpt>
      <trkpt lat="44.00434" lon="2.06939">
        <ele>274.4</ele>
        <time>2021-09-05T06:35:51Z</time>
      </trkpt>
      <trkpt lat="44.00426" lon="2.06932">
        <ele>273.6</ele>
        <time>2021-09-05T06:35:52Z</time>
      </trkpt>
      <trkpt lat="44.00416" lon="2.06926">
        <ele>273.4</ele>
        <time>2021-09-05T06:35:53Z</time>
      </trkpt>
      <trkpt lat="44.00406" lon="2.06922">
        <ele>272.4</ele>
        <time>2021-09-05T06:35:54Z</time>
      </trkpt>
      <trkpt lat="44.00395" lon="2.06918">
        <ele>271.8</ele>
        <time>2021-09-05T06:35:55Z</time>
      </trkpt>
      <trkpt lat="44.00385" lon="2.06914">
        <ele>270.4</ele>
        <time>2021-09-05T06:35:56Z</time>
      </trkpt>
      <trkpt lat="44.00375" lon="2.0691">
        <ele>269.4</ele>
        <time>2021-09-05T06:35:57Z</time>
      </trkpt>
      <trkpt lat="44.00375" lon="2.0691">
        <ele>268.4</ele>
        <time>2021-09-05T06:35:58Z</time>
      </trkpt>
      <trkpt lat="44.00361" lon="2.06903">
        <ele>267.8</ele>
        <time>2021-09-05T06:35:59Z</time>
      </trkpt>
      <trkpt lat="44.00357" lon="2.06899">
        <ele>267.4</ele>
        <time>2021-09-05T06:36:00Z</time>
      </trkpt>
      <trkpt lat="44.00355" lon="2.06895">
        <ele>266.2</ele>
        <time>2021-09-05T06:36:01Z</time>
      </trkpt>
      <trkpt lat="44.00356" lon="2.06892">
        <ele>266</ele>
        <time>2021-09-05T06:36:02Z</time>
      </trkpt>
      <trkpt lat="44.00356" lon="2.06888">
        <ele>265.2</ele>
        <time>2021-09-05T06:36:03Z</time>
      </trkpt>
      <trkpt lat="44.00358" lon="2.06881">
        <ele>264.8</ele>
        <time>2021-09-05T06:36:04Z</time>
      </trkpt>
      <trkpt lat="44.00359" lon="2.06872">
        <ele>264.2</ele>
        <time>2021-09-05T06:36:06Z</time>
      </trkpt>
      <trkpt lat="44.00359" lon="2.06863">
        <ele>264.2</ele>
        <time>2021-09-05T06:36:08Z</time>
      </trkpt>
      <trkpt lat="44.00359" lon="2.06857">
        <ele>264.2</ele>
        <time>2021-09-05T06:36:09Z</time>
      </trkpt>
      <trkpt lat="44.00359" lon="2.06851">
        <ele>264.2</ele>
        <time>2021-09-05T06:36:10Z</time>
      </trkpt>
      <trkpt lat="44.00362" lon="2.06839">
        <ele>264.4</ele>
        <time>2021-09-05T06:36:12Z</time>
      </trkpt>
      <trkpt lat="44.00362" lon="2.06839">
        <ele>264.6</ele>
        <time>2021-09-05T06:36:13Z</time>
      </trkpt>
      <trkpt lat="44.00364" lon="2.06826">
        <ele>264.6</ele>
        <time>2021-09-05T06:36:14Z</time>
      </trkpt>
      <trkpt lat="44.00365" lon="2.06819">
        <ele>264.8</ele>
        <time>2021-09-05T06:36:15Z</time>
      </trkpt>
      <trkpt lat="44.00365" lon="2.06813">
        <ele>264.6</ele>
        <time>2021-09-05T06:36:16Z</time>
      </trkpt>
      <trkpt lat="44.00366" lon="2.06809">
        <ele>265.2</ele>
        <time>2021-09-05T06:36:17Z</time>
      </trkpt>
      <trkpt lat="44.00366" lon="2.06809">
        <ele>265.6</ele>
        <time>2021-09-05T06:36:18Z</time>
      </trkpt>
      <trkpt lat="44.00366" lon="2.06799">
        <ele>266</ele>
        <time>2021-09-05T06:36:19Z</time>
      </trkpt>
      <trkpt lat="44.00366" lon="2.06794">
        <ele>266.4</ele>
        <time>2021-09-05T06:36:20Z</time>
      </trkpt>
      <trkpt lat="44.00365" lon="2.0679">
        <ele>266.8</ele>
        <time>2021-09-05T06:36:21Z</time>
      </trkpt>
      <trkpt lat="44.00364" lon="2.06784">
        <ele>267.2</ele>
        <time>2021-09-05T06:36:22Z</time>
      </trkpt>
      <trkpt lat="44.00359" lon="2.06776">
        <ele>268.2</ele>
        <time>2021-09-05T06:36:24Z</time>
      </trkpt>
      <trkpt lat="44.00356" lon="2.06773">
        <ele>268.4</ele>
        <time>2021-09-05T06:36:25Z</time>
      </trkpt>
      <trkpt lat="44.00353" lon="2.0677">
        <ele>268.8</ele>
        <time>2021-09-05T06:36:26Z</time>
      </trkpt>
      <trkpt lat="44.00353" lon="2.0677">
        <ele>269.2</ele>
        <time>2021-09-05T06:36:27Z</time>
      </trkpt>
      <trkpt lat="44.00345" lon="2.06766">
        <ele>269.4</ele>
        <time>2021-09-05T06:36:28Z</time>
      </trkpt>
      <trkpt lat="44.0034" lon="2.06764">
        <ele>269.6</ele>
        <time>2021-09-05T06:36:29Z</time>
      </trkpt>
      <trkpt lat="44.00335" lon="2.06763">
        <ele>269.8</ele>
        <time>2021-09-05T06:36:30Z</time>
      </trkpt>
      <trkpt lat="44.0033" lon="2.06763">
        <ele>270.2</ele>
        <time>2021-09-05T06:36:31Z</time>
      </trkpt>
      <trkpt lat="44.00325" lon="2.06764">
        <ele>270.2</ele>
        <time>2021-09-05T06:36:32Z</time>
      </trkpt>
      <trkpt lat="44.0032" lon="2.06764">
        <ele>270.4</ele>
        <time>2021-09-05T06:36:33Z</time>
      </trkpt>
      <trkpt lat="44.0032" lon="2.06764">
        <ele>270.4</ele>
        <time>2021-09-05T06:36:34Z</time>
      </trkpt>
      <trkpt lat="44.00309" lon="2.06765">
        <ele>270.8</ele>
        <time>2021-09-05T06:36:35Z</time>
      </trkpt>
      <trkpt lat="44.00304" lon="2.06765">
        <ele>271.2</ele>
        <time>2021-09-05T06:36:36Z</time>
      </trkpt>
      <trkpt lat="44.003" lon="2.06765">
        <ele>271.2</ele>
        <time>2021-09-05T06:36:37Z</time>
      </trkpt>
      <trkpt lat="44.00295" lon="2.06763">
        <ele>271.4</ele>
        <time>2021-09-05T06:36:38Z</time>
      </trkpt>
      <trkpt lat="44.0029" lon="2.06762">
        <ele>271.6</ele>
        <time>2021-09-05T06:36:39Z</time>
      </trkpt>
      <trkpt lat="44.00285" lon="2.0676">
        <ele>271.6</ele>
        <time>2021-09-05T06:36:40Z</time>
      </trkpt>
      <trkpt lat="44.0028" lon="2.06758">
        <ele>271.8</ele>
        <time>2021-09-05T06:36:41Z</time>
      </trkpt>
      <trkpt lat="44.00275" lon="2.06756">
        <ele>271.8</ele>
        <time>2021-09-05T06:36:42Z</time>
      </trkpt>
      <trkpt lat="44.0027" lon="2.06754">
        <ele>272</ele>
        <time>2021-09-05T06:36:43Z</time>
      </trkpt>
      <trkpt lat="44.00265" lon="2.06751">
        <ele>272.2</ele>
        <time>2021-09-05T06:36:44Z</time>
      </trkpt>
      <trkpt lat="44.0026" lon="2.06748">
        <ele>272.2</ele>
        <time>2021-09-05T06:36:45Z</time>
      </trkpt>
      <trkpt lat="44.00255" lon="2.06745">
        <ele>272.4</ele>
        <time>2021-09-05T06:36:46Z</time>
      </trkpt>
      <trkpt lat="44.0025" lon="2.0674">
        <ele>272.4</ele>
        <time>2021-09-05T06:36:47Z</time>
      </trkpt>
      <trkpt lat="44.00245" lon="2.06734">
        <ele>272.4</ele>
        <time>2021-09-05T06:36:48Z</time>
      </trkpt>
      <trkpt lat="44.00241" lon="2.06727">
        <ele>272.4</ele>
        <time>2021-09-05T06:36:49Z</time>
      </trkpt>
      <trkpt lat="44.00237" lon="2.0672">
        <ele>272.6</ele>
        <time>2021-09-05T06:36:50Z</time>
      </trkpt>
      <trkpt lat="44.00234" lon="2.06711">
        <ele>272.6</ele>
        <time>2021-09-05T06:36:51Z</time>
      </trkpt>
      <trkpt lat="44.00231" lon="2.06703">
        <ele>272.6</ele>
        <time>2021-09-05T06:36:52Z</time>
      </trkpt>
      <trkpt lat="44.00227" lon="2.06694">
        <ele>272.6</ele>
        <time>2021-09-05T06:36:53Z</time>
      </trkpt>
      <trkpt lat="44.00221" lon="2.06687">
        <ele>272.4</ele>
        <time>2021-09-05T06:36:54Z</time>
      </trkpt>
      <trkpt lat="44.00221" lon="2.06687">
        <ele>272.2</ele>
        <time>2021-09-05T06:36:55Z</time>
      </trkpt>
      <trkpt lat="44.00209" lon="2.06677">
        <ele>272</ele>
        <time>2021-09-05T06:36:56Z</time>
      </trkpt>
      <trkpt lat="44.00202" lon="2.06675">
        <ele>271.8</ele>
        <time>2021-09-05T06:36:57Z</time>
      </trkpt>
      <trkpt lat="44.00196" lon="2.06675">
        <ele>271.6</ele>
        <time>2021-09-05T06:36:58Z</time>
      </trkpt>
      <trkpt lat="44.0019" lon="2.06675">
        <ele>271.4</ele>
        <time>2021-09-05T06:36:59Z</time>
      </trkpt>
      <trkpt lat="44.00184" lon="2.06675">
        <ele>271.2</ele>
        <time>2021-09-05T06:37:00Z</time>
      </trkpt>
      <trkpt lat="44.00178" lon="2.06674">
        <ele>271.2</ele>
        <time>2021-09-05T06:37:01Z</time>
      </trkpt>
      <trkpt lat="44.00172" lon="2.06672">
        <ele>271.2</ele>
        <time>2021-09-05T06:37:02Z</time>
      </trkpt>
      <trkpt lat="44.00166" lon="2.0667">
        <ele>271</ele>
        <time>2021-09-05T06:37:03Z</time>
      </trkpt>
      <trkpt lat="44.00162" lon="2.06668">
        <ele>271</ele>
        <time>2021-09-05T06:37:04Z</time>
      </trkpt>
      <trkpt lat="44.00157" lon="2.06665">
        <ele>271</ele>
        <time>2021-09-05T06:37:05Z</time>
      </trkpt>
      <trkpt lat="44.00153" lon="2.06663">
        <ele>271.2</ele>
        <time>2021-09-05T06:37:06Z</time>
      </trkpt>
      <trkpt lat="44.00149" lon="2.0666">
        <ele>271.2</ele>
        <time>2021-09-05T06:37:07Z</time>
      </trkpt>
      <trkpt lat="44.00144" lon="2.06659">
        <ele>271.2</ele>
        <time>2021-09-05T06:37:08Z</time>
      </trkpt>
      <trkpt lat="44.00136" lon="2.06657">
        <ele>271.2</ele>
        <time>2021-09-05T06:37:10Z</time>
      </trkpt>
      <trkpt lat="44.00132" lon="2.06656">
        <ele>271.2</ele>
        <time>2021-09-05T06:37:11Z</time>
      </trkpt>
      <trkpt lat="44.00127" lon="2.06656">
        <ele>271.2</ele>
        <time>2021-09-05T06:37:12Z</time>
      </trkpt>
      <trkpt lat="44.00122" lon="2.06655">
        <ele>271.2</ele>
        <time>2021-09-05T06:37:13Z</time>
      </trkpt>
      <trkpt lat="44.00118" lon="2.06655">
        <ele>271.4</ele>
        <time>2021-09-05T06:37:14Z</time>
      </trkpt>
      <trkpt lat="44.00115" lon="2.06654">
        <ele>271.4</ele>
        <time>2021-09-05T06:37:15Z</time>
      </trkpt>
      <trkpt lat="44.00109" lon="2.06654">
        <ele>271.4</ele>
        <time>2021-09-05T06:37:16Z</time>
      </trkpt>
      <trkpt lat="44.00101" lon="2.06652">
        <ele>271.8</ele>
        <time>2021-09-05T06:37:18Z</time>
      </trkpt>
      <trkpt lat="44.00091" lon="2.06647">
        <ele>272</ele>
        <time>2021-09-05T06:37:20Z</time>
      </trkpt>
      <trkpt lat="44.00078" lon="2.0664">
        <ele>272.2</ele>
        <time>2021-09-05T06:37:22Z</time>
      </trkpt>
      <trkpt lat="44.00068" lon="2.06631">
        <ele>272.4</ele>
        <time>2021-09-05T06:37:24Z</time>
      </trkpt>
      <trkpt lat="44.00049" lon="2.06615">
        <ele>272.4</ele>
        <time>2021-09-05T06:37:27Z</time>
      </trkpt>
      <trkpt lat="44.00043" lon="2.0661">
        <ele>272.6</ele>
        <time>2021-09-05T06:37:28Z</time>
      </trkpt>
      <trkpt lat="44.00037" lon="2.06605">
        <ele>272.6</ele>
        <time>2021-09-05T06:37:29Z</time>
      </trkpt>
      <trkpt lat="44.00032" lon="2.066">
        <ele>272.6</ele>
        <time>2021-09-05T06:37:30Z</time>
      </trkpt>
      <trkpt lat="44.00021" lon="2.0659">
        <ele>272.6</ele>
        <time>2021-09-05T06:37:32Z</time>
      </trkpt>
      <trkpt lat="44.00017" lon="2.06583">
        <ele>272.6</ele>
        <time>2021-09-05T06:37:33Z</time>
      </trkpt>
      <trkpt lat="44.00012" lon="2.06575">
        <ele>272.6</ele>
        <time>2021-09-05T06:37:34Z</time>
      </trkpt>
      <trkpt lat="44.00009" lon="2.06567">
        <ele>272.6</ele>
        <time>2021-09-05T06:37:35Z</time>
      </trkpt>
      <trkpt lat="44.00007" lon="2.0656">
        <ele>272.6</ele>
        <time>2021-09-05T06:37:36Z</time>
      </trkpt>
      <trkpt lat="44.00005" lon="2.06554">
        <ele>272.6</ele>
        <time>2021-09-05T06:37:37Z</time>
      </trkpt>
      <trkpt lat="44.00003" lon="2.06547">
        <ele>272.6</ele>
        <time>2021-09-05T06:37:38Z</time>
      </trkpt>
      <trkpt lat="43.99999" lon="2.06533">
        <ele>272.6</ele>
        <time>2021-09-05T06:37:40Z</time>
      </trkpt>
      <trkpt lat="43.99996" lon="2.06526">
        <ele>272.6</ele>
        <time>2021-09-05T06:37:41Z</time>
      </trkpt>
      <trkpt lat="43.99994" lon="2.06518">
        <ele>272.8</ele>
        <time>2021-09-05T06:37:42Z</time>
      </trkpt>
      <trkpt lat="43.99992" lon="2.06511">
        <ele>273</ele>
        <time>2021-09-05T06:37:43Z</time>
      </trkpt>
      <trkpt lat="43.99991" lon="2.06506">
        <ele>273.2</ele>
        <time>2021-09-05T06:37:44Z</time>
      </trkpt>
      <trkpt lat="43.99985" lon="2.06484">
        <ele>273.4</ele>
        <time>2021-09-05T06:37:47Z</time>
      </trkpt>
      <trkpt lat="43.99976" lon="2.06442">
        <ele>273.4</ele>
        <time>2021-09-05T06:37:53Z</time>
      </trkpt>
      <trkpt lat="43.99972" lon="2.06407">
        <ele>273.2</ele>
        <time>2021-09-05T06:37:57Z</time>
      </trkpt>
      <trkpt lat="43.99973" lon="2.06391">
        <ele>273</ele>
        <time>2021-09-05T06:37:59Z</time>
      </trkpt>
      <trkpt lat="43.99974" lon="2.06382">
        <ele>272.8</ele>
        <time>2021-09-05T06:38:00Z</time>
      </trkpt>
      <trkpt lat="43.99975" lon="2.06375">
        <ele>272.6</ele>
        <time>2021-09-05T06:38:01Z</time>
      </trkpt>
      <trkpt lat="43.99976" lon="2.06369">
        <ele>272.4</ele>
        <time>2021-09-05T06:38:02Z</time>
      </trkpt>
      <trkpt lat="43.99977" lon="2.06364">
        <ele>272.2</ele>
        <time>2021-09-05T06:38:03Z</time>
      </trkpt>
      <trkpt lat="43.99978" lon="2.06361">
        <ele>272</ele>
        <time>2021-09-05T06:38:04Z</time>
      </trkpt>
      <trkpt lat="43.99978" lon="2.0636">
        <ele>271.8</ele>
        <time>2021-09-05T06:38:05Z</time>
      </trkpt>
      <trkpt lat="43.99978" lon="2.06359">
        <ele>271.8</ele>
        <time>2021-09-05T06:38:06Z</time>
      </trkpt>
      <trkpt lat="43.99978" lon="2.06356">
        <ele>271</ele>
        <time>2021-09-05T06:38:51Z</time>
      </trkpt>
      <trkpt lat="43.99978" lon="2.06355">
        <ele>271</ele>
        <time>2021-09-05T06:38:52Z</time>
      </trkpt>
      <trkpt lat="43.99979" lon="2.06353">
        <ele>270.8</ele>
        <time>2021-09-05T06:39:11Z</time>
      </trkpt>
      <trkpt lat="43.99979" lon="2.06341">
        <ele>271</ele>
        <time>2021-09-05T06:39:15Z</time>
      </trkpt>
      <trkpt lat="43.9998" lon="2.06335">
        <ele>270.8</ele>
        <time>2021-09-05T06:39:16Z</time>
      </trkpt>
      <trkpt lat="43.99984" lon="2.06317">
        <ele>270.8</ele>
        <time>2021-09-05T06:39:19Z</time>
      </trkpt>
      <trkpt lat="43.9999" lon="2.06274">
        <ele>270</ele>
        <time>2021-09-05T06:39:26Z</time>
      </trkpt>
      <trkpt lat="43.99991" lon="2.0627">
        <ele>269.8</ele>
        <time>2021-09-05T06:39:27Z</time>
      </trkpt>
      <trkpt lat="43.99993" lon="2.06262">
        <ele>269.8</ele>
        <time>2021-09-05T06:39:28Z</time>
      </trkpt>
      <trkpt lat="43.99994" lon="2.06257">
        <ele>269.8</ele>
        <time>2021-09-05T06:39:29Z</time>
      </trkpt>
      <trkpt lat="43.99995" lon="2.06251">
        <ele>269.6</ele>
        <time>2021-09-05T06:39:30Z</time>
      </trkpt>
      <trkpt lat="43.99996" lon="2.06246">
        <ele>269.6</ele>
        <time>2021-09-05T06:39:31Z</time>
      </trkpt>
      <trkpt lat="43.99998" lon="2.06234">
        <ele>269.2</ele>
        <time>2021-09-05T06:39:33Z</time>
      </trkpt>
      <trkpt lat="43.99999" lon="2.06228">
        <ele>269.2</ele>
        <time>2021-09-05T06:39:34Z</time>
      </trkpt>
      <trkpt lat="43.99999" lon="2.06223">
        <ele>269.2</ele>
        <time>2021-09-05T06:39:35Z</time>
      </trkpt>
      <trkpt lat="43.99999" lon="2.06223">
        <ele>269</ele>
        <time>2021-09-05T06:39:36Z</time>
      </trkpt>
      <trkpt lat="44.00001" lon="2.06211">
        <ele>269</ele>
        <time>2021-09-05T06:39:37Z</time>
      </trkpt>
      <trkpt lat="44.00004" lon="2.06184">
        <ele>268.2</ele>
        <time>2021-09-05T06:39:42Z</time>
      </trkpt>
      <trkpt lat="44.00004" lon="2.06178">
        <ele>268.2</ele>
        <time>2021-09-05T06:39:43Z</time>
      </trkpt>
      <trkpt lat="44.00005" lon="2.06159">
        <ele>267.8</ele>
        <time>2021-09-05T06:39:46Z</time>
      </trkpt>
      <trkpt lat="44.00005" lon="2.06154">
        <ele>267.4</ele>
        <time>2021-09-05T06:39:47Z</time>
      </trkpt>
      <trkpt lat="44.00005" lon="2.06154">
        <ele>267</ele>
        <time>2021-09-05T06:39:48Z</time>
      </trkpt>
      <trkpt lat="44.00006" lon="2.06142">
        <ele>267</ele>
        <time>2021-09-05T06:39:49Z</time>
      </trkpt>
      <trkpt lat="44.00006" lon="2.06136">
        <ele>266.6</ele>
        <time>2021-09-05T06:39:50Z</time>
      </trkpt>
      <trkpt lat="44.00006" lon="2.06119">
        <ele>265.4</ele>
        <time>2021-09-05T06:39:53Z</time>
      </trkpt>
      <trkpt lat="44.00006" lon="2.06114">
        <ele>264.8</ele>
        <time>2021-09-05T06:39:54Z</time>
      </trkpt>
      <trkpt lat="44.00006" lon="2.06109">
        <ele>264.6</ele>
        <time>2021-09-05T06:39:55Z</time>
      </trkpt>
      <trkpt lat="44.00007" lon="2.06104">
        <ele>264.2</ele>
        <time>2021-09-05T06:39:56Z</time>
      </trkpt>
      <trkpt lat="44.00008" lon="2.06091">
        <ele>262.8</ele>
        <time>2021-09-05T06:39:59Z</time>
      </trkpt>
      <trkpt lat="44.00009" lon="2.06078">
        <ele>262.6</ele>
        <time>2021-09-05T06:40:00Z</time>
      </trkpt>
      <trkpt lat="44.00009" lon="2.06072">
        <ele>262</ele>
        <time>2021-09-05T06:40:01Z</time>
      </trkpt>
      <trkpt lat="44.00008" lon="2.06067">
        <ele>261.8</ele>
        <time>2021-09-05T06:40:02Z</time>
      </trkpt>
      <trkpt lat="44.00008" lon="2.06061">
        <ele>261.4</ele>
        <time>2021-09-05T06:40:03Z</time>
      </trkpt>
      <trkpt lat="44.00006" lon="2.06056">
        <ele>260.8</ele>
        <time>2021-09-05T06:40:04Z</time>
      </trkpt>
      <trkpt lat="44.00004" lon="2.06051">
        <ele>260.6</ele>
        <time>2021-09-05T06:40:05Z</time>
      </trkpt>
      <trkpt lat="44.00002" lon="2.06046">
        <ele>260.4</ele>
        <time>2021-09-05T06:40:06Z</time>
      </trkpt>
      <trkpt lat="43.99999" lon="2.06041">
        <ele>259.8</ele>
        <time>2021-09-05T06:40:07Z</time>
      </trkpt>
      <trkpt lat="43.99995" lon="2.06036">
        <ele>259</ele>
        <time>2021-09-05T06:40:08Z</time>
      </trkpt>
      <trkpt lat="43.99991" lon="2.06032">
        <ele>258.4</ele>
        <time>2021-09-05T06:40:09Z</time>
      </trkpt>
      <trkpt lat="43.99987" lon="2.06028">
        <ele>257.6</ele>
        <time>2021-09-05T06:40:10Z</time>
      </trkpt>
      <trkpt lat="43.99983" lon="2.06025">
        <ele>256.8</ele>
        <time>2021-09-05T06:40:11Z</time>
      </trkpt>
      <trkpt lat="43.99979" lon="2.06022">
        <ele>256.4</ele>
        <time>2021-09-05T06:40:12Z</time>
      </trkpt>
      <trkpt lat="43.99974" lon="2.06019">
        <ele>255.2</ele>
        <time>2021-09-05T06:40:13Z</time>
      </trkpt>
      <trkpt lat="43.99965" lon="2.06014">
        <ele>254.2</ele>
        <time>2021-09-05T06:40:15Z</time>
      </trkpt>
      <trkpt lat="43.99956" lon="2.06012">
        <ele>252.8</ele>
        <time>2021-09-05T06:40:17Z</time>
      </trkpt>
      <trkpt lat="43.99951" lon="2.06011">
        <ele>252</ele>
        <time>2021-09-05T06:40:18Z</time>
      </trkpt>
      <trkpt lat="43.99945" lon="2.0601">
        <ele>251.2</ele>
        <time>2021-09-05T06:40:19Z</time>
      </trkpt>
      <trkpt lat="43.99934" lon="2.06008">
        <ele>249.8</ele>
        <time>2021-09-05T06:40:21Z</time>
      </trkpt>
      <trkpt lat="43.99917" lon="2.06008">
        <ele>248.2</ele>
        <time>2021-09-05T06:40:24Z</time>
      </trkpt>
      <trkpt lat="43.99906" lon="2.06007">
        <ele>247.2</ele>
        <time>2021-09-05T06:40:26Z</time>
      </trkpt>
      <trkpt lat="43.999" lon="2.06007">
        <ele>246.8</ele>
        <time>2021-09-05T06:40:27Z</time>
      </trkpt>
      <trkpt lat="43.99895" lon="2.06007">
        <ele>246.4</ele>
        <time>2021-09-05T06:40:28Z</time>
      </trkpt>
      <trkpt lat="43.9989" lon="2.06007">
        <ele>246</ele>
        <time>2021-09-05T06:40:29Z</time>
      </trkpt>
      <trkpt lat="43.99886" lon="2.06006">
        <ele>246</ele>
        <time>2021-09-05T06:40:30Z</time>
      </trkpt>
      <trkpt lat="43.99882" lon="2.06006">
        <ele>245.6</ele>
        <time>2021-09-05T06:40:31Z</time>
      </trkpt>
      <trkpt lat="43.99878" lon="2.06006">
        <ele>245.6</ele>
        <time>2021-09-05T06:40:32Z</time>
      </trkpt>
      <trkpt lat="43.99875" lon="2.06005">
        <ele>245.4</ele>
        <time>2021-09-05T06:40:33Z</time>
      </trkpt>
      <trkpt lat="43.99872" lon="2.06005">
        <ele>245.2</ele>
        <time>2021-09-05T06:40:34Z</time>
      </trkpt>
      <trkpt lat="43.9987" lon="2.06005">
        <ele>245.2</ele>
        <time>2021-09-05T06:40:35Z</time>
      </trkpt>
      <trkpt lat="43.9987" lon="2.06005">
        <ele>245</ele>
        <time>2021-09-05T06:40:36Z</time>
      </trkpt>
      <trkpt lat="43.99867" lon="2.06004">
        <ele>245</ele>
        <time>2021-09-05T06:40:37Z</time>
      </trkpt>
      <trkpt lat="43.99866" lon="2.06003">
        <ele>244.8</ele>
        <time>2021-09-05T06:40:38Z</time>
      </trkpt>
      <trkpt lat="43.99866" lon="2.06003">
        <ele>244.8</ele>
        <time>2021-09-05T06:40:39Z</time>
      </trkpt>
      <trkpt lat="43.99866" lon="2.06003">
        <ele>244.8</ele>
        <time>2021-09-05T06:40:41Z</time>
      </trkpt>
      <trkpt lat="43.99866" lon="2.06">
        <ele>244.8</ele>
        <time>2021-09-05T06:40:44Z</time>
      </trkpt>
      <trkpt lat="43.99866" lon="2.05998">
        <ele>244.8</ele>
        <time>2021-09-05T06:40:45Z</time>
      </trkpt>
      <trkpt lat="43.99866" lon="2.05995">
        <ele>244.8</ele>
        <time>2021-09-05T06:40:46Z</time>
      </trkpt>
      <trkpt lat="43.99866" lon="2.05992">
        <ele>244.8</ele>
        <time>2021-09-05T06:40:47Z</time>
      </trkpt>
      <trkpt lat="43.99867" lon="2.05989">
        <ele>244.8</ele>
        <time>2021-09-05T06:40:48Z</time>
      </trkpt>
      <trkpt lat="43.99868" lon="2.05966">
        <ele>244.4</ele>
        <time>2021-09-05T06:40:53Z</time>
      </trkpt>
      <trkpt lat="43.9987" lon="2.05932">
        <ele>244.4</ele>
        <time>2021-09-05T06:40:59Z</time>
      </trkpt>
      <trkpt lat="43.9987" lon="2.05919">
        <ele>244.4</ele>
        <time>2021-09-05T06:41:01Z</time>
      </trkpt>
      <trkpt lat="43.99871" lon="2.05913">
        <ele>244.2</ele>
        <time>2021-09-05T06:41:02Z</time>
      </trkpt>
      <trkpt lat="43.99871" lon="2.05907">
        <ele>244.2</ele>
        <time>2021-09-05T06:41:03Z</time>
      </trkpt>
      <trkpt lat="43.99871" lon="2.05902">
        <ele>244.2</ele>
        <time>2021-09-05T06:41:04Z</time>
      </trkpt>
      <trkpt lat="43.99871" lon="2.05896">
        <ele>244.4</ele>
        <time>2021-09-05T06:41:05Z</time>
      </trkpt>
      <trkpt lat="43.99871" lon="2.05891">
        <ele>244.2</ele>
        <time>2021-09-05T06:41:06Z</time>
      </trkpt>
      <trkpt lat="43.99872" lon="2.0588">
        <ele>244</ele>
        <time>2021-09-05T06:41:08Z</time>
      </trkpt>
      <trkpt lat="43.99872" lon="2.05863">
        <ele>244</ele>
        <time>2021-09-05T06:41:11Z</time>
      </trkpt>
      <trkpt lat="43.99873" lon="2.05852">
        <ele>244</ele>
        <time>2021-09-05T06:41:13Z</time>
      </trkpt>
      <trkpt lat="43.99873" lon="2.05846">
        <ele>244</ele>
        <time>2021-09-05T06:41:14Z</time>
      </trkpt>
      <trkpt lat="43.99873" lon="2.05841">
        <ele>244</ele>
        <time>2021-09-05T06:41:15Z</time>
      </trkpt>
      <trkpt lat="43.99873" lon="2.05835">
        <ele>244</ele>
        <time>2021-09-05T06:41:16Z</time>
      </trkpt>
      <trkpt lat="43.99874" lon="2.0583">
        <ele>244</ele>
        <time>2021-09-05T06:41:17Z</time>
      </trkpt>
      <trkpt lat="43.99874" lon="2.05825">
        <ele>243.8</ele>
        <time>2021-09-05T06:41:18Z</time>
      </trkpt>
      <trkpt lat="43.99874" lon="2.0582">
        <ele>243.8</ele>
        <time>2021-09-05T06:41:19Z</time>
      </trkpt>
      <trkpt lat="43.99875" lon="2.05815">
        <ele>243.8</ele>
        <time>2021-09-05T06:41:20Z</time>
      </trkpt>
      <trkpt lat="43.99876" lon="2.058">
        <ele>243.8</ele>
        <time>2021-09-05T06:41:23Z</time>
      </trkpt>
      <trkpt lat="43.99881" lon="2.05745">
        <ele>243.8</ele>
        <time>2021-09-05T06:41:33Z</time>
      </trkpt>
      <trkpt lat="43.99881" lon="2.0574">
        <ele>243.8</ele>
        <time>2021-09-05T06:41:34Z</time>
      </trkpt>
      <trkpt lat="43.9988" lon="2.05729">
        <ele>243.8</ele>
        <time>2021-09-05T06:41:36Z</time>
      </trkpt>
      <trkpt lat="43.9988" lon="2.05717">
        <ele>244.2</ele>
        <time>2021-09-05T06:41:38Z</time>
      </trkpt>
      <trkpt lat="43.9988" lon="2.05711">
        <ele>244.2</ele>
        <time>2021-09-05T06:41:39Z</time>
      </trkpt>
      <trkpt lat="43.99881" lon="2.05698">
        <ele>243.8</ele>
        <time>2021-09-05T06:41:41Z</time>
      </trkpt>
      <trkpt lat="43.99882" lon="2.05691">
        <ele>243.8</ele>
        <time>2021-09-05T06:41:42Z</time>
      </trkpt>
      <trkpt lat="43.99883" lon="2.05685">
        <ele>243.8</ele>
        <time>2021-09-05T06:41:43Z</time>
      </trkpt>
      <trkpt lat="43.99883" lon="2.05679">
        <ele>243.8</ele>
        <time>2021-09-05T06:41:44Z</time>
      </trkpt>
      <trkpt lat="43.99884" lon="2.05672">
        <ele>243.8</ele>
        <time>2021-09-05T06:41:45Z</time>
      </trkpt>
      <trkpt lat="43.99894" lon="2.05631">
        <ele>243.8</ele>
        <time>2021-09-05T06:41:52Z</time>
      </trkpt>
      <trkpt lat="43.99906" lon="2.05595">
        <ele>243.8</ele>
        <time>2021-09-05T06:41:58Z</time>
      </trkpt>
      <trkpt lat="43.99908" lon="2.05589">
        <ele>243.4</ele>
        <time>2021-09-05T06:41:59Z</time>
      </trkpt>
      <trkpt lat="43.9991" lon="2.05584">
        <ele>243.4</ele>
        <time>2021-09-05T06:42:00Z</time>
      </trkpt>
      <trkpt lat="43.99914" lon="2.05572">
        <ele>243.4</ele>
        <time>2021-09-05T06:42:02Z</time>
      </trkpt>
      <trkpt lat="43.99918" lon="2.05559">
        <ele>243.2</ele>
        <time>2021-09-05T06:42:04Z</time>
      </trkpt>
      <trkpt lat="43.9992" lon="2.05554">
        <ele>243.2</ele>
        <time>2021-09-05T06:42:05Z</time>
      </trkpt>
      <trkpt lat="43.99921" lon="2.05548">
        <ele>243.2</ele>
        <time>2021-09-05T06:42:06Z</time>
      </trkpt>
      <trkpt lat="43.99923" lon="2.05543">
        <ele>243.2</ele>
        <time>2021-09-05T06:42:07Z</time>
      </trkpt>
      <trkpt lat="43.99924" lon="2.05538">
        <ele>243.2</ele>
        <time>2021-09-05T06:42:08Z</time>
      </trkpt>
      <trkpt lat="43.99925" lon="2.05532">
        <ele>243.2</ele>
        <time>2021-09-05T06:42:09Z</time>
      </trkpt>
      <trkpt lat="43.99926" lon="2.05528">
        <ele>243.2</ele>
        <time>2021-09-05T06:42:10Z</time>
      </trkpt>
      <trkpt lat="43.99927" lon="2.05524">
        <ele>243.2</ele>
        <time>2021-09-05T06:42:11Z</time>
      </trkpt>
      <trkpt lat="43.99928" lon="2.05519">
        <ele>243.2</ele>
        <time>2021-09-05T06:42:12Z</time>
      </trkpt>
      <trkpt lat="43.99928" lon="2.05515">
        <ele>243.2</ele>
        <time>2021-09-05T06:42:13Z</time>
      </trkpt>
      <trkpt lat="43.9993" lon="2.05505">
        <ele>243</ele>
        <time>2021-09-05T06:42:15Z</time>
      </trkpt>
      <trkpt lat="43.99932" lon="2.05502">
        <ele>243</ele>
        <time>2021-09-05T06:42:16Z</time>
      </trkpt>
      <trkpt lat="43.99934" lon="2.05499">
        <ele>243</ele>
        <time>2021-09-05T06:42:17Z</time>
      </trkpt>
      <trkpt lat="43.99937" lon="2.05496">
        <ele>243</ele>
        <time>2021-09-05T06:42:18Z</time>
      </trkpt>
      <trkpt lat="43.9994" lon="2.05493">
        <ele>243</ele>
        <time>2021-09-05T06:42:19Z</time>
      </trkpt>
      <trkpt lat="43.99944" lon="2.05491">
        <ele>243</ele>
        <time>2021-09-05T06:42:20Z</time>
      </trkpt>
      <trkpt lat="43.99947" lon="2.05488">
        <ele>243.2</ele>
        <time>2021-09-05T06:42:21Z</time>
      </trkpt>
      <trkpt lat="43.99954" lon="2.05481">
        <ele>243.2</ele>
        <time>2021-09-05T06:42:23Z</time>
      </trkpt>
      <trkpt lat="43.99965" lon="2.05471">
        <ele>243.2</ele>
        <time>2021-09-05T06:42:26Z</time>
      </trkpt>
      <trkpt lat="43.99969" lon="2.05468">
        <ele>243.2</ele>
        <time>2021-09-05T06:42:27Z</time>
      </trkpt>
      <trkpt lat="43.99973" lon="2.05465">
        <ele>243.2</ele>
        <time>2021-09-05T06:42:28Z</time>
      </trkpt>
      <trkpt lat="43.99976" lon="2.05462">
        <ele>243.2</ele>
        <time>2021-09-05T06:42:29Z</time>
      </trkpt>
      <trkpt lat="43.9998" lon="2.0546">
        <ele>243</ele>
        <time>2021-09-05T06:42:30Z</time>
      </trkpt>
      <trkpt lat="43.99984" lon="2.05456">
        <ele>243</ele>
        <time>2021-09-05T06:42:31Z</time>
      </trkpt>
      <trkpt lat="44.00003" lon="2.05443">
        <ele>243.2</ele>
        <time>2021-09-05T06:42:36Z</time>
      </trkpt>
      <trkpt lat="44.0001" lon="2.05436">
        <ele>243.2</ele>
        <time>2021-09-05T06:42:38Z</time>
      </trkpt>
      <trkpt lat="44.00015" lon="2.05432">
        <ele>243.2</ele>
        <time>2021-09-05T06:42:39Z</time>
      </trkpt>
      <trkpt lat="44.00018" lon="2.05429">
        <ele>243.2</ele>
        <time>2021-09-05T06:42:40Z</time>
      </trkpt>
      <trkpt lat="44.00023" lon="2.05427">
        <ele>243.2</ele>
        <time>2021-09-05T06:42:41Z</time>
      </trkpt>
      <trkpt lat="44.00028" lon="2.05428">
        <ele>243.2</ele>
        <time>2021-09-05T06:42:42Z</time>
      </trkpt>
      <trkpt lat="44.00032" lon="2.05431">
        <ele>243.2</ele>
        <time>2021-09-05T06:42:43Z</time>
      </trkpt>
      <trkpt lat="44.00048" lon="2.05452">
        <ele>243.2</ele>
        <time>2021-09-05T06:42:48Z</time>
      </trkpt>
      <trkpt lat="44.00054" lon="2.05461">
        <ele>243.4</ele>
        <time>2021-09-05T06:42:50Z</time>
      </trkpt>
      <trkpt lat="44.00057" lon="2.05465">
        <ele>243.4</ele>
        <time>2021-09-05T06:42:51Z</time>
      </trkpt>
      <trkpt lat="44.00057" lon="2.05465">
        <ele>243.4</ele>
        <time>2021-09-05T06:42:52Z</time>
      </trkpt>
      <trkpt lat="44.00062" lon="2.05472">
        <ele>243.6</ele>
        <time>2021-09-05T06:42:53Z</time>
      </trkpt>
      <trkpt lat="44.00065" lon="2.05475">
        <ele>243.6</ele>
        <time>2021-09-05T06:42:54Z</time>
      </trkpt>
      <trkpt lat="44.00069" lon="2.05478">
        <ele>243.6</ele>
        <time>2021-09-05T06:42:55Z</time>
      </trkpt>
      <trkpt lat="44.00072" lon="2.0548">
        <ele>243.6</ele>
        <time>2021-09-05T06:42:56Z</time>
      </trkpt>
      <trkpt lat="44.00076" lon="2.05481">
        <ele>243.8</ele>
        <time>2021-09-05T06:42:57Z</time>
      </trkpt>
      <trkpt lat="44.00079" lon="2.05482">
        <ele>243.8</ele>
        <time>2021-09-05T06:42:58Z</time>
      </trkpt>
      <trkpt lat="44.00083" lon="2.05482">
        <ele>244</ele>
        <time>2021-09-05T06:42:59Z</time>
      </trkpt>
      <trkpt lat="44.00086" lon="2.05482">
        <ele>244.2</ele>
        <time>2021-09-05T06:43:00Z</time>
      </trkpt>
      <trkpt lat="44.00089" lon="2.05481">
        <ele>244.2</ele>
        <time>2021-09-05T06:43:01Z</time>
      </trkpt>
      <trkpt lat="44.00092" lon="2.05481">
        <ele>244.4</ele>
        <time>2021-09-05T06:43:02Z</time>
      </trkpt>
      <trkpt lat="44.00096" lon="2.0548">
        <ele>244.6</ele>
        <time>2021-09-05T06:43:03Z</time>
      </trkpt>
      <trkpt lat="44.00099" lon="2.05479">
        <ele>244.8</ele>
        <time>2021-09-05T06:43:04Z</time>
      </trkpt>
      <trkpt lat="44.00105" lon="2.05476">
        <ele>244.8</ele>
        <time>2021-09-05T06:43:06Z</time>
      </trkpt>
      <trkpt lat="44.00113" lon="2.05472">
        <ele>245.6</ele>
        <time>2021-09-05T06:43:09Z</time>
      </trkpt>
      <trkpt lat="44.00115" lon="2.05471">
        <ele>245.6</ele>
        <time>2021-09-05T06:43:10Z</time>
      </trkpt>
      <trkpt lat="44.00117" lon="2.0547">
        <ele>246</ele>
        <time>2021-09-05T06:43:11Z</time>
      </trkpt>
      <trkpt lat="44.00119" lon="2.05468">
        <ele>246.2</ele>
        <time>2021-09-05T06:43:12Z</time>
      </trkpt>
      <trkpt lat="44.00121" lon="2.05467">
        <ele>246.4</ele>
        <time>2021-09-05T06:43:13Z</time>
      </trkpt>
      <trkpt lat="44.00123" lon="2.05466">
        <ele>246.6</ele>
        <time>2021-09-05T06:43:14Z</time>
      </trkpt>
      <trkpt lat="44.00126" lon="2.05466">
        <ele>246.8</ele>
        <time>2021-09-05T06:43:15Z</time>
      </trkpt>
      <trkpt lat="44.00127" lon="2.05465">
        <ele>247</ele>
        <time>2021-09-05T06:43:16Z</time>
      </trkpt>
      <trkpt lat="44.00129" lon="2.05464">
        <ele>247.2</ele>
        <time>2021-09-05T06:43:17Z</time>
      </trkpt>
      <trkpt lat="44.00131" lon="2.05464">
        <ele>247.6</ele>
        <time>2021-09-05T06:43:18Z</time>
      </trkpt>
      <trkpt lat="44.00134" lon="2.05463">
        <ele>247.6</ele>
        <time>2021-09-05T06:43:19Z</time>
      </trkpt>
      <trkpt lat="44.00136" lon="2.05463">
        <ele>247.8</ele>
        <time>2021-09-05T06:43:20Z</time>
      </trkpt>
      <trkpt lat="44.00138" lon="2.05462">
        <ele>248</ele>
        <time>2021-09-05T06:43:21Z</time>
      </trkpt>
      <trkpt lat="44.0014" lon="2.05461">
        <ele>248</ele>
        <time>2021-09-05T06:43:22Z</time>
      </trkpt>
      <trkpt lat="44.00142" lon="2.0546">
        <ele>248.2</ele>
        <time>2021-09-05T06:43:23Z</time>
      </trkpt>
      <trkpt lat="44.00144" lon="2.05459">
        <ele>248.4</ele>
        <time>2021-09-05T06:43:24Z</time>
      </trkpt>
      <trkpt lat="44.00146" lon="2.05459">
        <ele>248.6</ele>
        <time>2021-09-05T06:43:25Z</time>
      </trkpt>
      <trkpt lat="44.00148" lon="2.05458">
        <ele>248.8</ele>
        <time>2021-09-05T06:43:26Z</time>
      </trkpt>
      <trkpt lat="44.0015" lon="2.05458">
        <ele>249</ele>
        <time>2021-09-05T06:43:27Z</time>
      </trkpt>
      <trkpt lat="44.00152" lon="2.05457">
        <ele>249.2</ele>
        <time>2021-09-05T06:43:28Z</time>
      </trkpt>
      <trkpt lat="44.00155" lon="2.05457">
        <ele>249.4</ele>
        <time>2021-09-05T06:43:29Z</time>
      </trkpt>
      <trkpt lat="44.00156" lon="2.05456">
        <ele>249.6</ele>
        <time>2021-09-05T06:43:30Z</time>
      </trkpt>
      <trkpt lat="44.00158" lon="2.05456">
        <ele>249.6</ele>
        <time>2021-09-05T06:43:31Z</time>
      </trkpt>
      <trkpt lat="44.0016" lon="2.05455">
        <ele>249.8</ele>
        <time>2021-09-05T06:43:32Z</time>
      </trkpt>
      <trkpt lat="44.00162" lon="2.05454">
        <ele>250.2</ele>
        <time>2021-09-05T06:43:33Z</time>
      </trkpt>
      <trkpt lat="44.00164" lon="2.05453">
        <ele>250.6</ele>
        <time>2021-09-05T06:43:34Z</time>
      </trkpt>
      <trkpt lat="44.00165" lon="2.05452">
        <ele>250.6</ele>
        <time>2021-09-05T06:43:35Z</time>
      </trkpt>
      <trkpt lat="44.00167" lon="2.05452">
        <ele>250.8</ele>
        <time>2021-09-05T06:43:36Z</time>
      </trkpt>
      <trkpt lat="44.00169" lon="2.05451">
        <ele>251</ele>
        <time>2021-09-05T06:43:37Z</time>
      </trkpt>
      <trkpt lat="44.00171" lon="2.05449">
        <ele>251</ele>
        <time>2021-09-05T06:43:38Z</time>
      </trkpt>
      <trkpt lat="44.00172" lon="2.05447">
        <ele>251.4</ele>
        <time>2021-09-05T06:43:39Z</time>
      </trkpt>
      <trkpt lat="44.00174" lon="2.05445">
        <ele>251.4</ele>
        <time>2021-09-05T06:43:40Z</time>
      </trkpt>
      <trkpt lat="44.00176" lon="2.05444">
        <ele>251.6</ele>
        <time>2021-09-05T06:43:41Z</time>
      </trkpt>
      <trkpt lat="44.00178" lon="2.05443">
        <ele>251.8</ele>
        <time>2021-09-05T06:43:42Z</time>
      </trkpt>
      <trkpt lat="44.0018" lon="2.05442">
        <ele>252.2</ele>
        <time>2021-09-05T06:43:43Z</time>
      </trkpt>
      <trkpt lat="44.00182" lon="2.05441">
        <ele>252.4</ele>
        <time>2021-09-05T06:43:44Z</time>
      </trkpt>
      <trkpt lat="44.00184" lon="2.05439">
        <ele>252.6</ele>
        <time>2021-09-05T06:43:45Z</time>
      </trkpt>
      <trkpt lat="44.00186" lon="2.05437">
        <ele>252.6</ele>
        <time>2021-09-05T06:43:46Z</time>
      </trkpt>
      <trkpt lat="44.00187" lon="2.05436">
        <ele>252.8</ele>
        <time>2021-09-05T06:43:47Z</time>
      </trkpt>
      <trkpt lat="44.00188" lon="2.05434">
        <ele>253.2</ele>
        <time>2021-09-05T06:43:48Z</time>
      </trkpt>
      <trkpt lat="44.0019" lon="2.05432">
        <ele>253.2</ele>
        <time>2021-09-05T06:43:49Z</time>
      </trkpt>
      <trkpt lat="44.00191" lon="2.0543">
        <ele>253.6</ele>
        <time>2021-09-05T06:43:50Z</time>
      </trkpt>
      <trkpt lat="44.00193" lon="2.05428">
        <ele>253.6</ele>
        <time>2021-09-05T06:43:51Z</time>
      </trkpt>
      <trkpt lat="44.00194" lon="2.05426">
        <ele>254</ele>
        <time>2021-09-05T06:43:52Z</time>
      </trkpt>
      <trkpt lat="44.00194" lon="2.05424">
        <ele>254.2</ele>
        <time>2021-09-05T06:43:53Z</time>
      </trkpt>
      <trkpt lat="44.00195" lon="2.05421">
        <ele>254.4</ele>
        <time>2021-09-05T06:43:54Z</time>
      </trkpt>
      <trkpt lat="44.00196" lon="2.05419">
        <ele>254.6</ele>
        <time>2021-09-05T06:43:55Z</time>
      </trkpt>
      <trkpt lat="44.00197" lon="2.05416">
        <ele>254.6</ele>
        <time>2021-09-05T06:43:56Z</time>
      </trkpt>
      <trkpt lat="44.00198" lon="2.05414">
        <ele>255</ele>
        <time>2021-09-05T06:43:57Z</time>
      </trkpt>
      <trkpt lat="44.00199" lon="2.05413">
        <ele>255.2</ele>
        <time>2021-09-05T06:43:58Z</time>
      </trkpt>
      <trkpt lat="44.002" lon="2.05412">
        <ele>255.6</ele>
        <time>2021-09-05T06:43:59Z</time>
      </trkpt>
      <trkpt lat="44.00201" lon="2.05411">
        <ele>255.8</ele>
        <time>2021-09-05T06:44:00Z</time>
      </trkpt>
      <trkpt lat="44.00202" lon="2.0541">
        <ele>256</ele>
        <time>2021-09-05T06:44:01Z</time>
      </trkpt>
      <trkpt lat="44.00203" lon="2.05409">
        <ele>256.2</ele>
        <time>2021-09-05T06:44:02Z</time>
      </trkpt>
      <trkpt lat="44.00204" lon="2.05408">
        <ele>256.4</ele>
        <time>2021-09-05T06:44:03Z</time>
      </trkpt>
      <trkpt lat="44.00205" lon="2.05407">
        <ele>256.6</ele>
        <time>2021-09-05T06:44:04Z</time>
      </trkpt>
      <trkpt lat="44.00206" lon="2.05406">
        <ele>256.6</ele>
        <time>2021-09-05T06:44:05Z</time>
      </trkpt>
      <trkpt lat="44.00207" lon="2.05405">
        <ele>256.8</ele>
        <time>2021-09-05T06:44:06Z</time>
      </trkpt>
      <trkpt lat="44.00208" lon="2.05404">
        <ele>257</ele>
        <time>2021-09-05T06:44:07Z</time>
      </trkpt>
      <trkpt lat="44.0021" lon="2.05402">
        <ele>257</ele>
        <time>2021-09-05T06:44:08Z</time>
      </trkpt>
      <trkpt lat="44.00211" lon="2.05401">
        <ele>257.2</ele>
        <time>2021-09-05T06:44:09Z</time>
      </trkpt>
      <trkpt lat="44.00212" lon="2.054">
        <ele>257.2</ele>
        <time>2021-09-05T06:44:10Z</time>
      </trkpt>
      <trkpt lat="44.00213" lon="2.05399">
        <ele>257.4</ele>
        <time>2021-09-05T06:44:11Z</time>
      </trkpt>
      <trkpt lat="44.00214" lon="2.05398">
        <ele>257.6</ele>
        <time>2021-09-05T06:44:12Z</time>
      </trkpt>
      <trkpt lat="44.00216" lon="2.05397">
        <ele>257.8</ele>
        <time>2021-09-05T06:44:13Z</time>
      </trkpt>
      <trkpt lat="44.00217" lon="2.05396">
        <ele>258.2</ele>
        <time>2021-09-05T06:44:14Z</time>
      </trkpt>
      <trkpt lat="44.00218" lon="2.05396">
        <ele>258.4</ele>
        <time>2021-09-05T06:44:15Z</time>
      </trkpt>
      <trkpt lat="44.00219" lon="2.05395">
        <ele>258.6</ele>
        <time>2021-09-05T06:44:16Z</time>
      </trkpt>
      <trkpt lat="44.0022" lon="2.05395">
        <ele>258.8</ele>
        <time>2021-09-05T06:44:17Z</time>
      </trkpt>
      <trkpt lat="44.00222" lon="2.05394">
        <ele>259</ele>
        <time>2021-09-05T06:44:18Z</time>
      </trkpt>
      <trkpt lat="44.00223" lon="2.05393">
        <ele>259.2</ele>
        <time>2021-09-05T06:44:19Z</time>
      </trkpt>
      <trkpt lat="44.00224" lon="2.05393">
        <ele>259.6</ele>
        <time>2021-09-05T06:44:20Z</time>
      </trkpt>
      <trkpt lat="44.00225" lon="2.05392">
        <ele>259.8</ele>
        <time>2021-09-05T06:44:21Z</time>
      </trkpt>
      <trkpt lat="44.00226" lon="2.05392">
        <ele>260</ele>
        <time>2021-09-05T06:44:22Z</time>
      </trkpt>
      <trkpt lat="44.00227" lon="2.05392">
        <ele>260.4</ele>
        <time>2021-09-05T06:44:23Z</time>
      </trkpt>
      <trkpt lat="44.00228" lon="2.05393">
        <ele>260.6</ele>
        <time>2021-09-05T06:44:24Z</time>
      </trkpt>
      <trkpt lat="44.00229" lon="2.05394">
        <ele>261.2</ele>
        <time>2021-09-05T06:44:25Z</time>
      </trkpt>
      <trkpt lat="44.0023" lon="2.05395">
        <ele>261.6</ele>
        <time>2021-09-05T06:44:26Z</time>
      </trkpt>
      <trkpt lat="44.00231" lon="2.05397">
        <ele>261.8</ele>
        <time>2021-09-05T06:44:27Z</time>
      </trkpt>
      <trkpt lat="44.00232" lon="2.05398">
        <ele>262</ele>
        <time>2021-09-05T06:44:28Z</time>
      </trkpt>
      <trkpt lat="44.00233" lon="2.05399">
        <ele>262.4</ele>
        <time>2021-09-05T06:44:29Z</time>
      </trkpt>
      <trkpt lat="44.00233" lon="2.054">
        <ele>262.8</ele>
        <time>2021-09-05T06:44:30Z</time>
      </trkpt>
      <trkpt lat="44.00235" lon="2.05402">
        <ele>263</ele>
        <time>2021-09-05T06:44:31Z</time>
      </trkpt>
      <trkpt lat="44.00236" lon="2.05403">
        <ele>263.4</ele>
        <time>2021-09-05T06:44:32Z</time>
      </trkpt>
      <trkpt lat="44.00237" lon="2.05404">
        <ele>263.4</ele>
        <time>2021-09-05T06:44:33Z</time>
      </trkpt>
      <trkpt lat="44.00239" lon="2.05405">
        <ele>263.8</ele>
        <time>2021-09-05T06:44:34Z</time>
      </trkpt>
      <trkpt lat="44.00239" lon="2.05406">
        <ele>264</ele>
        <time>2021-09-05T06:44:35Z</time>
      </trkpt>
      <trkpt lat="44.0024" lon="2.05407">
        <ele>264.4</ele>
        <time>2021-09-05T06:44:36Z</time>
      </trkpt>
      <trkpt lat="44.00241" lon="2.05408">
        <ele>264.6</ele>
        <time>2021-09-05T06:44:37Z</time>
      </trkpt>
      <trkpt lat="44.00242" lon="2.05408">
        <ele>264.8</ele>
        <time>2021-09-05T06:44:38Z</time>
      </trkpt>
      <trkpt lat="44.00243" lon="2.05409">
        <ele>265</ele>
        <time>2021-09-05T06:44:39Z</time>
      </trkpt>
      <trkpt lat="44.00243" lon="2.0541">
        <ele>265.2</ele>
        <time>2021-09-05T06:44:40Z</time>
      </trkpt>
      <trkpt lat="44.00244" lon="2.05411">
        <ele>265.4</ele>
        <time>2021-09-05T06:44:41Z</time>
      </trkpt>
      <trkpt lat="44.00245" lon="2.05411">
        <ele>265.6</ele>
        <time>2021-09-05T06:44:42Z</time>
      </trkpt>
      <trkpt lat="44.00246" lon="2.05412">
        <ele>265.8</ele>
        <time>2021-09-05T06:44:43Z</time>
      </trkpt>
      <trkpt lat="44.00247" lon="2.05413">
        <ele>266.2</ele>
        <time>2021-09-05T06:44:44Z</time>
      </trkpt>
      <trkpt lat="44.00248" lon="2.05413">
        <ele>266.4</ele>
        <time>2021-09-05T06:44:45Z</time>
      </trkpt>
      <trkpt lat="44.00249" lon="2.05414">
        <ele>266.6</ele>
        <time>2021-09-05T06:44:46Z</time>
      </trkpt>
      <trkpt lat="44.00251" lon="2.05415">
        <ele>266.6</ele>
        <time>2021-09-05T06:44:47Z</time>
      </trkpt>
      <trkpt lat="44.00252" lon="2.05415">
        <ele>266.8</ele>
        <time>2021-09-05T06:44:48Z</time>
      </trkpt>
      <trkpt lat="44.00253" lon="2.05416">
        <ele>267</ele>
        <time>2021-09-05T06:44:49Z</time>
      </trkpt>
      <trkpt lat="44.00254" lon="2.05416">
        <ele>267.2</ele>
        <time>2021-09-05T06:44:50Z</time>
      </trkpt>
      <trkpt lat="44.00255" lon="2.05416">
        <ele>267.6</ele>
        <time>2021-09-05T06:44:51Z</time>
      </trkpt>
      <trkpt lat="44.00256" lon="2.05416">
        <ele>267.6</ele>
        <time>2021-09-05T06:44:52Z</time>
      </trkpt>
      <trkpt lat="44.00257" lon="2.05416">
        <ele>267.8</ele>
        <time>2021-09-05T06:44:53Z</time>
      </trkpt>
      <trkpt lat="44.00258" lon="2.05416">
        <ele>267.8</ele>
        <time>2021-09-05T06:44:54Z</time>
      </trkpt>
      <trkpt lat="44.0026" lon="2.05416">
        <ele>268</ele>
        <time>2021-09-05T06:44:55Z</time>
      </trkpt>
      <trkpt lat="44.00261" lon="2.05416">
        <ele>268.2</ele>
        <time>2021-09-05T06:44:56Z</time>
      </trkpt>
      <trkpt lat="44.00262" lon="2.05416">
        <ele>268.4</ele>
        <time>2021-09-05T06:44:57Z</time>
      </trkpt>
      <trkpt lat="44.00263" lon="2.05415">
        <ele>268.4</ele>
        <time>2021-09-05T06:44:58Z</time>
      </trkpt>
      <trkpt lat="44.00264" lon="2.05415">
        <ele>268.6</ele>
        <time>2021-09-05T06:44:59Z</time>
      </trkpt>
      <trkpt lat="44.00265" lon="2.05414">
        <ele>268.8</ele>
        <time>2021-09-05T06:45:00Z</time>
      </trkpt>
      <trkpt lat="44.00267" lon="2.05414">
        <ele>268.8</ele>
        <time>2021-09-05T06:45:01Z</time>
      </trkpt>
      <trkpt lat="44.00268" lon="2.05413">
        <ele>269.2</ele>
        <time>2021-09-05T06:45:02Z</time>
      </trkpt>
      <trkpt lat="44.0027" lon="2.05413">
        <ele>269.2</ele>
        <time>2021-09-05T06:45:03Z</time>
      </trkpt>
      <trkpt lat="44.00272" lon="2.05412">
        <ele>269.4</ele>
        <time>2021-09-05T06:45:04Z</time>
      </trkpt>
      <trkpt lat="44.00274" lon="2.05412">
        <ele>269.6</ele>
        <time>2021-09-05T06:45:05Z</time>
      </trkpt>
      <trkpt lat="44.00277" lon="2.05411">
        <ele>269.8</ele>
        <time>2021-09-05T06:45:06Z</time>
      </trkpt>
      <trkpt lat="44.00279" lon="2.05411">
        <ele>270</ele>
        <time>2021-09-05T06:45:07Z</time>
      </trkpt>
      <trkpt lat="44.00281" lon="2.0541">
        <ele>270.2</ele>
        <time>2021-09-05T06:45:08Z</time>
      </trkpt>
      <trkpt lat="44.00283" lon="2.05409">
        <ele>270.4</ele>
        <time>2021-09-05T06:45:09Z</time>
      </trkpt>
      <trkpt lat="44.00285" lon="2.05409">
        <ele>270.4</ele>
        <time>2021-09-05T06:45:10Z</time>
      </trkpt>
      <trkpt lat="44.00286" lon="2.05409">
        <ele>270.6</ele>
        <time>2021-09-05T06:45:11Z</time>
      </trkpt>
      <trkpt lat="44.00287" lon="2.05407">
        <ele>270.6</ele>
        <time>2021-09-05T06:45:12Z</time>
      </trkpt>
      <trkpt lat="44.00289" lon="2.05406">
        <ele>270.6</ele>
        <time>2021-09-05T06:45:13Z</time>
      </trkpt>
      <trkpt lat="44.00291" lon="2.05406">
        <ele>270.8</ele>
        <time>2021-09-05T06:45:14Z</time>
      </trkpt>
      <trkpt lat="44.00293" lon="2.05405">
        <ele>271</ele>
        <time>2021-09-05T06:45:15Z</time>
      </trkpt>
      <trkpt lat="44.00295" lon="2.05403">
        <ele>271.2</ele>
        <time>2021-09-05T06:45:16Z</time>
      </trkpt>
      <trkpt lat="44.00297" lon="2.05402">
        <ele>271.4</ele>
        <time>2021-09-05T06:45:17Z</time>
      </trkpt>
      <trkpt lat="44.00298" lon="2.05401">
        <ele>271.6</ele>
        <time>2021-09-05T06:45:18Z</time>
      </trkpt>
      <trkpt lat="44.00299" lon="2.054">
        <ele>271.8</ele>
        <time>2021-09-05T06:45:19Z</time>
      </trkpt>
      <trkpt lat="44.003" lon="2.05399">
        <ele>272</ele>
        <time>2021-09-05T06:45:20Z</time>
      </trkpt>
      <trkpt lat="44.00303" lon="2.05398">
        <ele>272.2</ele>
        <time>2021-09-05T06:45:21Z</time>
      </trkpt>
      <trkpt lat="44.00304" lon="2.05398">
        <ele>272.4</ele>
        <time>2021-09-05T06:45:22Z</time>
      </trkpt>
      <trkpt lat="44.00306" lon="2.05396">
        <ele>272.6</ele>
        <time>2021-09-05T06:45:23Z</time>
      </trkpt>
      <trkpt lat="44.00307" lon="2.05395">
        <ele>272.6</ele>
        <time>2021-09-05T06:45:24Z</time>
      </trkpt>
      <trkpt lat="44.00308" lon="2.05393">
        <ele>272.8</ele>
        <time>2021-09-05T06:45:25Z</time>
      </trkpt>
      <trkpt lat="44.00308" lon="2.05392">
        <ele>273</ele>
        <time>2021-09-05T06:45:26Z</time>
      </trkpt>
      <trkpt lat="44.00309" lon="2.05391">
        <ele>273.2</ele>
        <time>2021-09-05T06:45:27Z</time>
      </trkpt>
      <trkpt lat="44.0031" lon="2.0539">
        <ele>273.6</ele>
        <time>2021-09-05T06:45:28Z</time>
      </trkpt>
      <trkpt lat="44.00311" lon="2.0539">
        <ele>273.6</ele>
        <time>2021-09-05T06:45:29Z</time>
      </trkpt>
      <trkpt lat="44.00312" lon="2.05389">
        <ele>273.8</ele>
        <time>2021-09-05T06:45:30Z</time>
      </trkpt>
      <trkpt lat="44.00313" lon="2.05387">
        <ele>274</ele>
        <time>2021-09-05T06:45:31Z</time>
      </trkpt>
      <trkpt lat="44.00314" lon="2.05386">
        <ele>274</ele>
        <time>2021-09-05T06:45:32Z</time>
      </trkpt>
      <trkpt lat="44.00316" lon="2.05384">
        <ele>274</ele>
        <time>2021-09-05T06:45:33Z</time>
      </trkpt>
      <trkpt lat="44.00317" lon="2.05383">
        <ele>274.4</ele>
        <time>2021-09-05T06:45:34Z</time>
      </trkpt>
      <trkpt lat="44.00318" lon="2.05382">
        <ele>274.6</ele>
        <time>2021-09-05T06:45:35Z</time>
      </trkpt>
      <trkpt lat="44.00319" lon="2.0538">
        <ele>274.6</ele>
        <time>2021-09-05T06:45:36Z</time>
      </trkpt>
      <trkpt lat="44.00321" lon="2.05378">
        <ele>274.8</ele>
        <time>2021-09-05T06:45:37Z</time>
      </trkpt>
      <trkpt lat="44.00322" lon="2.05376">
        <ele>275</ele>
        <time>2021-09-05T06:45:38Z</time>
      </trkpt>
      <trkpt lat="44.00323" lon="2.05374">
        <ele>275.2</ele>
        <time>2021-09-05T06:45:39Z</time>
      </trkpt>
      <trkpt lat="44.00324" lon="2.05372">
        <ele>275.2</ele>
        <time>2021-09-05T06:45:40Z</time>
      </trkpt>
      <trkpt lat="44.00325" lon="2.0537">
        <ele>275.4</ele>
        <time>2021-09-05T06:45:41Z</time>
      </trkpt>
      <trkpt lat="44.00326" lon="2.05369">
        <ele>275.6</ele>
        <time>2021-09-05T06:45:42Z</time>
      </trkpt>
      <trkpt lat="44.00327" lon="2.05367">
        <ele>275.8</ele>
        <time>2021-09-05T06:45:43Z</time>
      </trkpt>
      <trkpt lat="44.00328" lon="2.05365">
        <ele>275.8</ele>
        <time>2021-09-05T06:45:44Z</time>
      </trkpt>
      <trkpt lat="44.00329" lon="2.05362">
        <ele>276</ele>
        <time>2021-09-05T06:45:45Z</time>
      </trkpt>
      <trkpt lat="44.0033" lon="2.0536">
        <ele>276</ele>
        <time>2021-09-05T06:45:46Z</time>
      </trkpt>
      <trkpt lat="44.00331" lon="2.05359">
        <ele>276.2</ele>
        <time>2021-09-05T06:45:47Z</time>
      </trkpt>
      <trkpt lat="44.00332" lon="2.05357">
        <ele>276.2</ele>
        <time>2021-09-05T06:45:48Z</time>
      </trkpt>
      <trkpt lat="44.00333" lon="2.05355">
        <ele>276.4</ele>
        <time>2021-09-05T06:45:49Z</time>
      </trkpt>
      <trkpt lat="44.00335" lon="2.05353">
        <ele>276.6</ele>
        <time>2021-09-05T06:45:50Z</time>
      </trkpt>
      <trkpt lat="44.00336" lon="2.05351">
        <ele>276.8</ele>
        <time>2021-09-05T06:45:51Z</time>
      </trkpt>
      <trkpt lat="44.00337" lon="2.05349">
        <ele>276.8</ele>
        <time>2021-09-05T06:45:52Z</time>
      </trkpt>
      <trkpt lat="44.00338" lon="2.05347">
        <ele>277</ele>
        <time>2021-09-05T06:45:53Z</time>
      </trkpt>
      <trkpt lat="44.0034" lon="2.05345">
        <ele>277</ele>
        <time>2021-09-05T06:45:54Z</time>
      </trkpt>
      <trkpt lat="44.00341" lon="2.05343">
        <ele>277.2</ele>
        <time>2021-09-05T06:45:55Z</time>
      </trkpt>
      <trkpt lat="44.00343" lon="2.05341">
        <ele>277.2</ele>
        <time>2021-09-05T06:45:56Z</time>
      </trkpt>
      <trkpt lat="44.00344" lon="2.05338">
        <ele>277.4</ele>
        <time>2021-09-05T06:45:57Z</time>
      </trkpt>
      <trkpt lat="44.00346" lon="2.05337">
        <ele>277.4</ele>
        <time>2021-09-05T06:45:58Z</time>
      </trkpt>
      <trkpt lat="44.00347" lon="2.05335">
        <ele>277.6</ele>
        <time>2021-09-05T06:45:59Z</time>
      </trkpt>
      <trkpt lat="44.00349" lon="2.05332">
        <ele>277.6</ele>
        <time>2021-09-05T06:46:00Z</time>
      </trkpt>
      <trkpt lat="44.0035" lon="2.0533">
        <ele>277.8</ele>
        <time>2021-09-05T06:46:01Z</time>
      </trkpt>
      <trkpt lat="44.00352" lon="2.05328">
        <ele>278</ele>
        <time>2021-09-05T06:46:02Z</time>
      </trkpt>
      <trkpt lat="44.00353" lon="2.05326">
        <ele>278.2</ele>
        <time>2021-09-05T06:46:03Z</time>
      </trkpt>
      <trkpt lat="44.00355" lon="2.05323">
        <ele>278.2</ele>
        <time>2021-09-05T06:46:04Z</time>
      </trkpt>
      <trkpt lat="44.00356" lon="2.05321">
        <ele>278.4</ele>
        <time>2021-09-05T06:46:05Z</time>
      </trkpt>
      <trkpt lat="44.00357" lon="2.05319">
        <ele>278.4</ele>
        <time>2021-09-05T06:46:06Z</time>
      </trkpt>
      <trkpt lat="44.00359" lon="2.05317">
        <ele>278.6</ele>
        <time>2021-09-05T06:46:07Z</time>
      </trkpt>
      <trkpt lat="44.0036" lon="2.05314">
        <ele>278.6</ele>
        <time>2021-09-05T06:46:08Z</time>
      </trkpt>
      <trkpt lat="44.00362" lon="2.05312">
        <ele>278.8</ele>
        <time>2021-09-05T06:46:09Z</time>
      </trkpt>
      <trkpt lat="44.00364" lon="2.0531">
        <ele>278.8</ele>
        <time>2021-09-05T06:46:10Z</time>
      </trkpt>
      <trkpt lat="44.00365" lon="2.05308">
        <ele>279</ele>
        <time>2021-09-05T06:46:11Z</time>
      </trkpt>
      <trkpt lat="44.00367" lon="2.05306">
        <ele>279</ele>
        <time>2021-09-05T06:46:12Z</time>
      </trkpt>
      <trkpt lat="44.00369" lon="2.05304">
        <ele>279</ele>
        <time>2021-09-05T06:46:13Z</time>
      </trkpt>
      <trkpt lat="44.00371" lon="2.05302">
        <ele>279.2</ele>
        <time>2021-09-05T06:46:14Z</time>
      </trkpt>
      <trkpt lat="44.00373" lon="2.053">
        <ele>279.2</ele>
        <time>2021-09-05T06:46:15Z</time>
      </trkpt>
      <trkpt lat="44.00375" lon="2.05298">
        <ele>279.2</ele>
        <time>2021-09-05T06:46:16Z</time>
      </trkpt>
      <trkpt lat="44.00377" lon="2.05297">
        <ele>279.2</ele>
        <time>2021-09-05T06:46:17Z</time>
      </trkpt>
      <trkpt lat="44.00379" lon="2.05295">
        <ele>279.4</ele>
        <time>2021-09-05T06:46:18Z</time>
      </trkpt>
      <trkpt lat="44.00382" lon="2.05294">
        <ele>279.4</ele>
        <time>2021-09-05T06:46:19Z</time>
      </trkpt>
      <trkpt lat="44.00384" lon="2.05293">
        <ele>279.6</ele>
        <time>2021-09-05T06:46:20Z</time>
      </trkpt>
      <trkpt lat="44.00386" lon="2.05292">
        <ele>279.6</ele>
        <time>2021-09-05T06:46:21Z</time>
      </trkpt>
      <trkpt lat="44.00388" lon="2.05291">
        <ele>279.8</ele>
        <time>2021-09-05T06:46:22Z</time>
      </trkpt>
      <trkpt lat="44.00393" lon="2.05288">
        <ele>280</ele>
        <time>2021-09-05T06:46:24Z</time>
      </trkpt>
      <trkpt lat="44.00395" lon="2.05287">
        <ele>280</ele>
        <time>2021-09-05T06:46:25Z</time>
      </trkpt>
      <trkpt lat="44.00397" lon="2.05286">
        <ele>280.2</ele>
        <time>2021-09-05T06:46:26Z</time>
      </trkpt>
      <trkpt lat="44.00409" lon="2.05282">
        <ele>280.6</ele>
        <time>2021-09-05T06:46:31Z</time>
      </trkpt>
      <trkpt lat="44.00415" lon="2.05279">
        <ele>281</ele>
        <time>2021-09-05T06:46:34Z</time>
      </trkpt>
      <trkpt lat="44.00417" lon="2.05278">
        <ele>281.2</ele>
        <time>2021-09-05T06:46:35Z</time>
      </trkpt>
      <trkpt lat="44.00419" lon="2.05277">
        <ele>281.4</ele>
        <time>2021-09-05T06:46:36Z</time>
      </trkpt>
      <trkpt lat="44.00423" lon="2.05276">
        <ele>281.8</ele>
        <time>2021-09-05T06:46:38Z</time>
      </trkpt>
      <trkpt lat="44.00425" lon="2.05275">
        <ele>282</ele>
        <time>2021-09-05T06:46:39Z</time>
      </trkpt>
      <trkpt lat="44.00428" lon="2.05274">
        <ele>282.2</ele>
        <time>2021-09-05T06:46:40Z</time>
      </trkpt>
      <trkpt lat="44.0043" lon="2.05274">
        <ele>282.4</ele>
        <time>2021-09-05T06:46:41Z</time>
      </trkpt>
      <trkpt lat="44.00432" lon="2.05274">
        <ele>282.6</ele>
        <time>2021-09-05T06:46:42Z</time>
      </trkpt>
      <trkpt lat="44.00434" lon="2.05273">
        <ele>282.8</ele>
        <time>2021-09-05T06:46:43Z</time>
      </trkpt>
      <trkpt lat="44.00436" lon="2.05273">
        <ele>283</ele>
        <time>2021-09-05T06:46:44Z</time>
      </trkpt>
      <trkpt lat="44.00438" lon="2.05273">
        <ele>283.2</ele>
        <time>2021-09-05T06:46:45Z</time>
      </trkpt>
      <trkpt lat="44.00441" lon="2.05273">
        <ele>283.4</ele>
        <time>2021-09-05T06:46:46Z</time>
      </trkpt>
      <trkpt lat="44.00443" lon="2.05273">
        <ele>283.6</ele>
        <time>2021-09-05T06:46:47Z</time>
      </trkpt>
      <trkpt lat="44.00445" lon="2.05274">
        <ele>283.8</ele>
        <time>2021-09-05T06:46:48Z</time>
      </trkpt>
      <trkpt lat="44.00448" lon="2.05274">
        <ele>284.2</ele>
        <time>2021-09-05T06:46:49Z</time>
      </trkpt>
      <trkpt lat="44.0045" lon="2.05275">
        <ele>284.6</ele>
        <time>2021-09-05T06:46:50Z</time>
      </trkpt>
      <trkpt lat="44.00452" lon="2.05275">
        <ele>284.8</ele>
        <time>2021-09-05T06:46:51Z</time>
      </trkpt>
      <trkpt lat="44.00454" lon="2.05275">
        <ele>284.8</ele>
        <time>2021-09-05T06:46:52Z</time>
      </trkpt>
      <trkpt lat="44.00456" lon="2.05276">
        <ele>285.2</ele>
        <time>2021-09-05T06:46:53Z</time>
      </trkpt>
      <trkpt lat="44.00458" lon="2.05277">
        <ele>285.2</ele>
        <time>2021-09-05T06:46:54Z</time>
      </trkpt>
      <trkpt lat="44.0046" lon="2.05278">
        <ele>285.4</ele>
        <time>2021-09-05T06:46:55Z</time>
      </trkpt>
      <trkpt lat="44.00461" lon="2.05278">
        <ele>285.4</ele>
        <time>2021-09-05T06:46:56Z</time>
      </trkpt>
      <trkpt lat="44.00463" lon="2.05279">
        <ele>285.6</ele>
        <time>2021-09-05T06:46:57Z</time>
      </trkpt>
      <trkpt lat="44.00465" lon="2.0528">
        <ele>286</ele>
        <time>2021-09-05T06:46:58Z</time>
      </trkpt>
      <trkpt lat="44.00467" lon="2.05281">
        <ele>286.2</ele>
        <time>2021-09-05T06:46:59Z</time>
      </trkpt>
      <trkpt lat="44.00469" lon="2.05283">
        <ele>286.4</ele>
        <time>2021-09-05T06:47:00Z</time>
      </trkpt>
      <trkpt lat="44.00471" lon="2.05284">
        <ele>286.4</ele>
        <time>2021-09-05T06:47:01Z</time>
      </trkpt>
      <trkpt lat="44.00474" lon="2.05284">
        <ele>286.8</ele>
        <time>2021-09-05T06:47:02Z</time>
      </trkpt>
      <trkpt lat="44.00476" lon="2.05284">
        <ele>286.8</ele>
        <time>2021-09-05T06:47:03Z</time>
      </trkpt>
      <trkpt lat="44.00478" lon="2.05284">
        <ele>287</ele>
        <time>2021-09-05T06:47:04Z</time>
      </trkpt>
      <trkpt lat="44.0048" lon="2.05284">
        <ele>287.2</ele>
        <time>2021-09-05T06:47:05Z</time>
      </trkpt>
      <trkpt lat="44.00482" lon="2.05283">
        <ele>287.2</ele>
        <time>2021-09-05T06:47:06Z</time>
      </trkpt>
      <trkpt lat="44.00484" lon="2.05282">
        <ele>287.4</ele>
        <time>2021-09-05T06:47:07Z</time>
      </trkpt>
      <trkpt lat="44.00486" lon="2.05281">
        <ele>287.4</ele>
        <time>2021-09-05T06:47:08Z</time>
      </trkpt>
      <trkpt lat="44.00488" lon="2.0528">
        <ele>287.6</ele>
        <time>2021-09-05T06:47:09Z</time>
      </trkpt>
      <trkpt lat="44.0049" lon="2.05279">
        <ele>287.6</ele>
        <time>2021-09-05T06:47:10Z</time>
      </trkpt>
      <trkpt lat="44.00492" lon="2.05278">
        <ele>288</ele>
        <time>2021-09-05T06:47:11Z</time>
      </trkpt>
      <trkpt lat="44.00493" lon="2.05277">
        <ele>288.2</ele>
        <time>2021-09-05T06:47:12Z</time>
      </trkpt>
      <trkpt lat="44.00495" lon="2.05275">
        <ele>288.2</ele>
        <time>2021-09-05T06:47:13Z</time>
      </trkpt>
      <trkpt lat="44.00497" lon="2.05274">
        <ele>288.4</ele>
        <time>2021-09-05T06:47:14Z</time>
      </trkpt>
      <trkpt lat="44.00499" lon="2.05273">
        <ele>288.6</ele>
        <time>2021-09-05T06:47:15Z</time>
      </trkpt>
      <trkpt lat="44.00501" lon="2.05272">
        <ele>288.6</ele>
        <time>2021-09-05T06:47:16Z</time>
      </trkpt>
      <trkpt lat="44.00503" lon="2.05271">
        <ele>288.6</ele>
        <time>2021-09-05T06:47:17Z</time>
      </trkpt>
      <trkpt lat="44.00504" lon="2.05269">
        <ele>288.8</ele>
        <time>2021-09-05T06:47:18Z</time>
      </trkpt>
      <trkpt lat="44.00506" lon="2.05268">
        <ele>288.8</ele>
        <time>2021-09-05T06:47:19Z</time>
      </trkpt>
      <trkpt lat="44.00508" lon="2.05267">
        <ele>289</ele>
        <time>2021-09-05T06:47:20Z</time>
      </trkpt>
      <trkpt lat="44.0051" lon="2.05265">
        <ele>289.2</ele>
        <time>2021-09-05T06:47:21Z</time>
      </trkpt>
      <trkpt lat="44.00512" lon="2.05264">
        <ele>289.2</ele>
        <time>2021-09-05T06:47:22Z</time>
      </trkpt>
      <trkpt lat="44.00514" lon="2.05262">
        <ele>289.2</ele>
        <time>2021-09-05T06:47:23Z</time>
      </trkpt>
      <trkpt lat="44.00516" lon="2.0526">
        <ele>289.2</ele>
        <time>2021-09-05T06:47:24Z</time>
      </trkpt>
      <trkpt lat="44.00518" lon="2.05258">
        <ele>289.4</ele>
        <time>2021-09-05T06:47:25Z</time>
      </trkpt>
      <trkpt lat="44.0052" lon="2.05256">
        <ele>289.4</ele>
        <time>2021-09-05T06:47:26Z</time>
      </trkpt>
      <trkpt lat="44.00522" lon="2.05254">
        <ele>289.4</ele>
        <time>2021-09-05T06:47:27Z</time>
      </trkpt>
      <trkpt lat="44.00524" lon="2.05252">
        <ele>289.4</ele>
        <time>2021-09-05T06:47:28Z</time>
      </trkpt>
      <trkpt lat="44.00527" lon="2.0525">
        <ele>289.4</ele>
        <time>2021-09-05T06:47:29Z</time>
      </trkpt>
      <trkpt lat="44.00529" lon="2.05248">
        <ele>289.6</ele>
        <time>2021-09-05T06:47:30Z</time>
      </trkpt>
      <trkpt lat="44.00531" lon="2.05246">
        <ele>289.6</ele>
        <time>2021-09-05T06:47:31Z</time>
      </trkpt>
      <trkpt lat="44.00533" lon="2.05243">
        <ele>289.6</ele>
        <time>2021-09-05T06:47:32Z</time>
      </trkpt>
      <trkpt lat="44.00535" lon="2.05241">
        <ele>289.6</ele>
        <time>2021-09-05T06:47:33Z</time>
      </trkpt>
      <trkpt lat="44.00537" lon="2.0524">
        <ele>289.8</ele>
        <time>2021-09-05T06:47:34Z</time>
      </trkpt>
      <trkpt lat="44.00543" lon="2.05238">
        <ele>289.8</ele>
        <time>2021-09-05T06:47:36Z</time>
      </trkpt>
      <trkpt lat="44.00545" lon="2.05238">
        <ele>289.8</ele>
        <time>2021-09-05T06:47:37Z</time>
      </trkpt>
      <trkpt lat="44.00547" lon="2.05237">
        <ele>289.8</ele>
        <time>2021-09-05T06:47:38Z</time>
      </trkpt>
      <trkpt lat="44.00549" lon="2.05235">
        <ele>290</ele>
        <time>2021-09-05T06:47:39Z</time>
      </trkpt>
      <trkpt lat="44.00551" lon="2.05233">
        <ele>290</ele>
        <time>2021-09-05T06:47:40Z</time>
      </trkpt>
      <trkpt lat="44.00553" lon="2.05231">
        <ele>290</ele>
        <time>2021-09-05T06:47:41Z</time>
      </trkpt>
      <trkpt lat="44.00555" lon="2.05229">
        <ele>290.2</ele>
        <time>2021-09-05T06:47:42Z</time>
      </trkpt>
      <trkpt lat="44.00557" lon="2.05227">
        <ele>290.2</ele>
        <time>2021-09-05T06:47:43Z</time>
      </trkpt>
      <trkpt lat="44.00559" lon="2.05225">
        <ele>290.2</ele>
        <time>2021-09-05T06:47:44Z</time>
      </trkpt>
      <trkpt lat="44.00561" lon="2.05223">
        <ele>290.2</ele>
        <time>2021-09-05T06:47:45Z</time>
      </trkpt>
      <trkpt lat="44.00574" lon="2.05195">
        <ele>290</ele>
        <time>2021-09-05T06:47:52Z</time>
      </trkpt>
      <trkpt lat="44.00583" lon="2.05161">
        <ele>289.6</ele>
        <time>2021-09-05T06:47:56Z</time>
      </trkpt>
      <trkpt lat="44.00588" lon="2.0514">
        <ele>288.8</ele>
        <time>2021-09-05T06:47:58Z</time>
      </trkpt>
      <trkpt lat="44.00596" lon="2.05118">
        <ele>286.4</ele>
        <time>2021-09-05T06:48:00Z</time>
      </trkpt>
      <trkpt lat="44.00601" lon="2.05107">
        <ele>286</ele>
        <time>2021-09-05T06:48:01Z</time>
      </trkpt>
      <trkpt lat="44.00607" lon="2.05095">
        <ele>284.4</ele>
        <time>2021-09-05T06:48:02Z</time>
      </trkpt>
      <trkpt lat="44.0062" lon="2.05073">
        <ele>282.2</ele>
        <time>2021-09-05T06:48:04Z</time>
      </trkpt>
      <trkpt lat="44.00627" lon="2.05063">
        <ele>281.2</ele>
        <time>2021-09-05T06:48:05Z</time>
      </trkpt>
      <trkpt lat="44.00642" lon="2.05043">
        <ele>279.6</ele>
        <time>2021-09-05T06:48:07Z</time>
      </trkpt>
      <trkpt lat="44.00649" lon="2.05034">
        <ele>279</ele>
        <time>2021-09-05T06:48:08Z</time>
      </trkpt>
      <trkpt lat="44.00655" lon="2.05026">
        <ele>277.6</ele>
        <time>2021-09-05T06:48:09Z</time>
      </trkpt>
      <trkpt lat="44.00662" lon="2.05017">
        <ele>277</ele>
        <time>2021-09-05T06:48:10Z</time>
      </trkpt>
      <trkpt lat="44.00668" lon="2.05009">
        <ele>276.2</ele>
        <time>2021-09-05T06:48:11Z</time>
      </trkpt>
      <trkpt lat="44.00673" lon="2.05001">
        <ele>275.6</ele>
        <time>2021-09-05T06:48:12Z</time>
      </trkpt>
      <trkpt lat="44.00678" lon="2.04993">
        <ele>275.2</ele>
        <time>2021-09-05T06:48:13Z</time>
      </trkpt>
      <trkpt lat="44.00683" lon="2.04986">
        <ele>274.4</ele>
        <time>2021-09-05T06:48:14Z</time>
      </trkpt>
      <trkpt lat="44.00687" lon="2.04977">
        <ele>273.8</ele>
        <time>2021-09-05T06:48:15Z</time>
      </trkpt>
      <trkpt lat="44.00692" lon="2.0497">
        <ele>272.8</ele>
        <time>2021-09-05T06:48:16Z</time>
      </trkpt>
      <trkpt lat="44.00697" lon="2.04962">
        <ele>272.2</ele>
        <time>2021-09-05T06:48:17Z</time>
      </trkpt>
      <trkpt lat="44.00701" lon="2.04955">
        <ele>271.2</ele>
        <time>2021-09-05T06:48:18Z</time>
      </trkpt>
      <trkpt lat="44.00705" lon="2.04949">
        <ele>270.6</ele>
        <time>2021-09-05T06:48:19Z</time>
      </trkpt>
      <trkpt lat="44.00708" lon="2.04942">
        <ele>269.8</ele>
        <time>2021-09-05T06:48:20Z</time>
      </trkpt>
      <trkpt lat="44.00711" lon="2.04935">
        <ele>268.8</ele>
        <time>2021-09-05T06:48:21Z</time>
      </trkpt>
      <trkpt lat="44.00714" lon="2.04928">
        <ele>268.4</ele>
        <time>2021-09-05T06:48:22Z</time>
      </trkpt>
      <trkpt lat="44.00721" lon="2.04915">
        <ele>267.4</ele>
        <time>2021-09-05T06:48:24Z</time>
      </trkpt>
      <trkpt lat="44.00724" lon="2.0491">
        <ele>266.2</ele>
        <time>2021-09-05T06:48:25Z</time>
      </trkpt>
      <trkpt lat="44.00733" lon="2.04901">
        <ele>265.4</ele>
        <time>2021-09-05T06:48:27Z</time>
      </trkpt>
      <trkpt lat="44.00738" lon="2.04898">
        <ele>264.6</ele>
        <time>2021-09-05T06:48:28Z</time>
      </trkpt>
      <trkpt lat="44.00743" lon="2.04895">
        <ele>264</ele>
        <time>2021-09-05T06:48:29Z</time>
      </trkpt>
      <trkpt lat="44.00747" lon="2.04893">
        <ele>263.2</ele>
        <time>2021-09-05T06:48:30Z</time>
      </trkpt>
      <trkpt lat="44.00752" lon="2.04891">
        <ele>263</ele>
        <time>2021-09-05T06:48:31Z</time>
      </trkpt>
      <trkpt lat="44.00757" lon="2.04889">
        <ele>262.8</ele>
        <time>2021-09-05T06:48:32Z</time>
      </trkpt>
      <trkpt lat="44.00762" lon="2.04888">
        <ele>262.8</ele>
        <time>2021-09-05T06:48:33Z</time>
      </trkpt>
      <trkpt lat="44.00782" lon="2.04884">
        <ele>262</ele>
        <time>2021-09-05T06:48:37Z</time>
      </trkpt>
      <trkpt lat="44.00787" lon="2.04883">
        <ele>261.8</ele>
        <time>2021-09-05T06:48:38Z</time>
      </trkpt>
      <trkpt lat="44.00792" lon="2.0488">
        <ele>261.6</ele>
        <time>2021-09-05T06:48:39Z</time>
      </trkpt>
      <trkpt lat="44.00796" lon="2.04878">
        <ele>261.2</ele>
        <time>2021-09-05T06:48:40Z</time>
      </trkpt>
      <trkpt lat="44.008" lon="2.04874">
        <ele>260.8</ele>
        <time>2021-09-05T06:48:41Z</time>
      </trkpt>
      <trkpt lat="44.00803" lon="2.04871">
        <ele>260.8</ele>
        <time>2021-09-05T06:48:42Z</time>
      </trkpt>
      <trkpt lat="44.00807" lon="2.04868">
        <ele>260.4</ele>
        <time>2021-09-05T06:48:43Z</time>
      </trkpt>
      <trkpt lat="44.00809" lon="2.04865">
        <ele>260.2</ele>
        <time>2021-09-05T06:48:44Z</time>
      </trkpt>
      <trkpt lat="44.00811" lon="2.04862">
        <ele>260.2</ele>
        <time>2021-09-05T06:48:45Z</time>
      </trkpt>
      <trkpt lat="44.00812" lon="2.04859">
        <ele>260.2</ele>
        <time>2021-09-05T06:48:46Z</time>
      </trkpt>
      <trkpt lat="44.00812" lon="2.04857">
        <ele>260</ele>
        <time>2021-09-05T06:48:47Z</time>
      </trkpt>
      <trkpt lat="44.00812" lon="2.04854">
        <ele>259.8</ele>
        <time>2021-09-05T06:48:48Z</time>
      </trkpt>
      <trkpt lat="44.00812" lon="2.04851">
        <ele>259.8</ele>
        <time>2021-09-05T06:48:49Z</time>
      </trkpt>
      <trkpt lat="44.00811" lon="2.04848">
        <ele>259.8</ele>
        <time>2021-09-05T06:48:50Z</time>
      </trkpt>
      <trkpt lat="44.0081" lon="2.04845">
        <ele>259.8</ele>
        <time>2021-09-05T06:48:51Z</time>
      </trkpt>
      <trkpt lat="44.00809" lon="2.04842">
        <ele>260</ele>
        <time>2021-09-05T06:48:52Z</time>
      </trkpt>
      <trkpt lat="44.00807" lon="2.04839">
        <ele>260.2</ele>
        <time>2021-09-05T06:48:53Z</time>
      </trkpt>
      <trkpt lat="44.00806" lon="2.04837">
        <ele>260.2</ele>
        <time>2021-09-05T06:48:54Z</time>
      </trkpt>
      <trkpt lat="44.00805" lon="2.04835">
        <ele>260.4</ele>
        <time>2021-09-05T06:48:55Z</time>
      </trkpt>
      <trkpt lat="44.00803" lon="2.04832">
        <ele>260.4</ele>
        <time>2021-09-05T06:48:56Z</time>
      </trkpt>
      <trkpt lat="44.00801" lon="2.0483">
        <ele>260.8</ele>
        <time>2021-09-05T06:48:57Z</time>
      </trkpt>
      <trkpt lat="44.008" lon="2.04828">
        <ele>261</ele>
        <time>2021-09-05T06:48:58Z</time>
      </trkpt>
      <trkpt lat="44.00799" lon="2.04825">
        <ele>261.2</ele>
        <time>2021-09-05T06:48:59Z</time>
      </trkpt>
      <trkpt lat="44.00798" lon="2.04822">
        <ele>261.6</ele>
        <time>2021-09-05T06:49:00Z</time>
      </trkpt>
      <trkpt lat="44.00795" lon="2.04815">
        <ele>262.2</ele>
        <time>2021-09-05T06:49:02Z</time>
      </trkpt>
      <trkpt lat="44.00794" lon="2.04812">
        <ele>262.4</ele>
        <time>2021-09-05T06:49:03Z</time>
      </trkpt>
      <trkpt lat="44.00791" lon="2.04806">
        <ele>263.4</ele>
        <time>2021-09-05T06:49:05Z</time>
      </trkpt>
      <trkpt lat="44.0079" lon="2.04803">
        <ele>263.6</ele>
        <time>2021-09-05T06:49:06Z</time>
      </trkpt>
      <trkpt lat="44.00788" lon="2.048">
        <ele>264</ele>
        <time>2021-09-05T06:49:07Z</time>
      </trkpt>
      <trkpt lat="44.00787" lon="2.04797">
        <ele>264.2</ele>
        <time>2021-09-05T06:49:08Z</time>
      </trkpt>
      <trkpt lat="44.00782" lon="2.04786">
        <ele>264.6</ele>
        <time>2021-09-05T06:49:11Z</time>
      </trkpt>
      <trkpt lat="44.00781" lon="2.04782">
        <ele>264.8</ele>
        <time>2021-09-05T06:49:12Z</time>
      </trkpt>
      <trkpt lat="44.0078" lon="2.04776">
        <ele>265</ele>
        <time>2021-09-05T06:49:13Z</time>
      </trkpt>
      <trkpt lat="44.00779" lon="2.04771">
        <ele>265.4</ele>
        <time>2021-09-05T06:49:14Z</time>
      </trkpt>
      <trkpt lat="44.00777" lon="2.04766">
        <ele>265.6</ele>
        <time>2021-09-05T06:49:15Z</time>
      </trkpt>
      <trkpt lat="44.00776" lon="2.04762">
        <ele>265.8</ele>
        <time>2021-09-05T06:49:16Z</time>
      </trkpt>
      <trkpt lat="44.00776" lon="2.04757">
        <ele>265.8</ele>
        <time>2021-09-05T06:49:17Z</time>
      </trkpt>
      <trkpt lat="44.00775" lon="2.04754">
        <ele>266</ele>
        <time>2021-09-05T06:49:18Z</time>
      </trkpt>
      <trkpt lat="44.00775" lon="2.04751">
        <ele>266.2</ele>
        <time>2021-09-05T06:49:19Z</time>
      </trkpt>
      <trkpt lat="44.00775" lon="2.04748">
        <ele>266.4</ele>
        <time>2021-09-05T06:49:20Z</time>
      </trkpt>
      <trkpt lat="44.00775" lon="2.04744">
        <ele>266.4</ele>
        <time>2021-09-05T06:49:21Z</time>
      </trkpt>
      <trkpt lat="44.00777" lon="2.0474">
        <ele>266.4</ele>
        <time>2021-09-05T06:49:22Z</time>
      </trkpt>
      <trkpt lat="44.00778" lon="2.04736">
        <ele>266.6</ele>
        <time>2021-09-05T06:49:23Z</time>
      </trkpt>
      <trkpt lat="44.0078" lon="2.04734">
        <ele>266.6</ele>
        <time>2021-09-05T06:49:24Z</time>
      </trkpt>
      <trkpt lat="44.00782" lon="2.04731">
        <ele>266.8</ele>
        <time>2021-09-05T06:49:25Z</time>
      </trkpt>
      <trkpt lat="44.00784" lon="2.04727">
        <ele>267</ele>
        <time>2021-09-05T06:49:26Z</time>
      </trkpt>
      <trkpt lat="44.00785" lon="2.04723">
        <ele>267.6</ele>
        <time>2021-09-05T06:49:27Z</time>
      </trkpt>
      <trkpt lat="44.00786" lon="2.04719">
        <ele>267.8</ele>
        <time>2021-09-05T06:49:28Z</time>
      </trkpt>
      <trkpt lat="44.00787" lon="2.04715">
        <ele>267.8</ele>
        <time>2021-09-05T06:49:29Z</time>
      </trkpt>
      <trkpt lat="44.00788" lon="2.04712">
        <ele>268</ele>
        <time>2021-09-05T06:49:30Z</time>
      </trkpt>
      <trkpt lat="44.00789" lon="2.04707">
        <ele>268.2</ele>
        <time>2021-09-05T06:49:31Z</time>
      </trkpt>
      <trkpt lat="44.00789" lon="2.04703">
        <ele>268.4</ele>
        <time>2021-09-05T06:49:32Z</time>
      </trkpt>
      <trkpt lat="44.0079" lon="2.047">
        <ele>268.4</ele>
        <time>2021-09-05T06:49:33Z</time>
      </trkpt>
      <trkpt lat="44.00791" lon="2.04697">
        <ele>268.8</ele>
        <time>2021-09-05T06:49:34Z</time>
      </trkpt>
      <trkpt lat="44.00793" lon="2.04694">
        <ele>269</ele>
        <time>2021-09-05T06:49:35Z</time>
      </trkpt>
      <trkpt lat="44.00794" lon="2.04692">
        <ele>269</ele>
        <time>2021-09-05T06:49:36Z</time>
      </trkpt>
      <trkpt lat="44.00796" lon="2.0469">
        <ele>269.4</ele>
        <time>2021-09-05T06:49:37Z</time>
      </trkpt>
      <trkpt lat="44.00798" lon="2.04688">
        <ele>269.6</ele>
        <time>2021-09-05T06:49:38Z</time>
      </trkpt>
      <trkpt lat="44.008" lon="2.04686">
        <ele>269.8</ele>
        <time>2021-09-05T06:49:39Z</time>
      </trkpt>
      <trkpt lat="44.00802" lon="2.04684">
        <ele>270</ele>
        <time>2021-09-05T06:49:40Z</time>
      </trkpt>
      <trkpt lat="44.00803" lon="2.04683">
        <ele>270.4</ele>
        <time>2021-09-05T06:49:41Z</time>
      </trkpt>
      <trkpt lat="44.00805" lon="2.04683">
        <ele>270.6</ele>
        <time>2021-09-05T06:49:42Z</time>
      </trkpt>
      <trkpt lat="44.00807" lon="2.04683">
        <ele>271</ele>
        <time>2021-09-05T06:49:43Z</time>
      </trkpt>
      <trkpt lat="44.00809" lon="2.04683">
        <ele>271.4</ele>
        <time>2021-09-05T06:49:44Z</time>
      </trkpt>
      <trkpt lat="44.0081" lon="2.04683">
        <ele>271.6</ele>
        <time>2021-09-05T06:49:45Z</time>
      </trkpt>
      <trkpt lat="44.00812" lon="2.04683">
        <ele>271.8</ele>
        <time>2021-09-05T06:49:46Z</time>
      </trkpt>
      <trkpt lat="44.00813" lon="2.04682">
        <ele>272</ele>
        <time>2021-09-05T06:49:47Z</time>
      </trkpt>
      <trkpt lat="44.00815" lon="2.04682">
        <ele>272.2</ele>
        <time>2021-09-05T06:49:48Z</time>
      </trkpt>
      <trkpt lat="44.00816" lon="2.04682">
        <ele>272.2</ele>
        <time>2021-09-05T06:49:49Z</time>
      </trkpt>
      <trkpt lat="44.00817" lon="2.04682">
        <ele>272.4</ele>
        <time>2021-09-05T06:49:50Z</time>
      </trkpt>
      <trkpt lat="44.00818" lon="2.04682">
        <ele>272.8</ele>
        <time>2021-09-05T06:49:51Z</time>
      </trkpt>
      <trkpt lat="44.00819" lon="2.04682">
        <ele>273</ele>
        <time>2021-09-05T06:49:52Z</time>
      </trkpt>
      <trkpt lat="44.00821" lon="2.04682">
        <ele>273.2</ele>
        <time>2021-09-05T06:49:53Z</time>
      </trkpt>
      <trkpt lat="44.00822" lon="2.04683">
        <ele>273.2</ele>
        <time>2021-09-05T06:49:54Z</time>
      </trkpt>
      <trkpt lat="44.00824" lon="2.04683">
        <ele>273.4</ele>
        <time>2021-09-05T06:49:55Z</time>
      </trkpt>
      <trkpt lat="44.00825" lon="2.04683">
        <ele>273.6</ele>
        <time>2021-09-05T06:49:56Z</time>
      </trkpt>
      <trkpt lat="44.00826" lon="2.04684">
        <ele>273.8</ele>
        <time>2021-09-05T06:49:57Z</time>
      </trkpt>
      <trkpt lat="44.00827" lon="2.04684">
        <ele>274</ele>
        <time>2021-09-05T06:49:58Z</time>
      </trkpt>
      <trkpt lat="44.00828" lon="2.04685">
        <ele>274</ele>
        <time>2021-09-05T06:49:59Z</time>
      </trkpt>
      <trkpt lat="44.0083" lon="2.04685">
        <ele>274.2</ele>
        <time>2021-09-05T06:50:00Z</time>
      </trkpt>
      <trkpt lat="44.00831" lon="2.04686">
        <ele>274.2</ele>
        <time>2021-09-05T06:50:01Z</time>
      </trkpt>
      <trkpt lat="44.00833" lon="2.04687">
        <ele>274.6</ele>
        <time>2021-09-05T06:50:02Z</time>
      </trkpt>
      <trkpt lat="44.00835" lon="2.04688">
        <ele>274.6</ele>
        <time>2021-09-05T06:50:03Z</time>
      </trkpt>
      <trkpt lat="44.00836" lon="2.04688">
        <ele>274.8</ele>
        <time>2021-09-05T06:50:04Z</time>
      </trkpt>
      <trkpt lat="44.00838" lon="2.04688">
        <ele>275</ele>
        <time>2021-09-05T06:50:05Z</time>
      </trkpt>
      <trkpt lat="44.0084" lon="2.04689">
        <ele>275</ele>
        <time>2021-09-05T06:50:06Z</time>
      </trkpt>
      <trkpt lat="44.00841" lon="2.04689">
        <ele>275.4</ele>
        <time>2021-09-05T06:50:07Z</time>
      </trkpt>
      <trkpt lat="44.00843" lon="2.0469">
        <ele>275.6</ele>
        <time>2021-09-05T06:50:08Z</time>
      </trkpt>
      <trkpt lat="44.00845" lon="2.0469">
        <ele>275.8</ele>
        <time>2021-09-05T06:50:09Z</time>
      </trkpt>
      <trkpt lat="44.00846" lon="2.04691">
        <ele>276</ele>
        <time>2021-09-05T06:50:10Z</time>
      </trkpt>
      <trkpt lat="44.00848" lon="2.04691">
        <ele>276.2</ele>
        <time>2021-09-05T06:50:11Z</time>
      </trkpt>
      <trkpt lat="44.0085" lon="2.04691">
        <ele>276.4</ele>
        <time>2021-09-05T06:50:12Z</time>
      </trkpt>
      <trkpt lat="44.00851" lon="2.04691">
        <ele>276.4</ele>
        <time>2021-09-05T06:50:13Z</time>
      </trkpt>
      <trkpt lat="44.00853" lon="2.04691">
        <ele>276.6</ele>
        <time>2021-09-05T06:50:14Z</time>
      </trkpt>
      <trkpt lat="44.00855" lon="2.04692">
        <ele>276.8</ele>
        <time>2021-09-05T06:50:15Z</time>
      </trkpt>
      <trkpt lat="44.00856" lon="2.04692">
        <ele>277</ele>
        <time>2021-09-05T06:50:16Z</time>
      </trkpt>
      <trkpt lat="44.00858" lon="2.04693">
        <ele>277.2</ele>
        <time>2021-09-05T06:50:17Z</time>
      </trkpt>
      <trkpt lat="44.00859" lon="2.04692">
        <ele>277.4</ele>
        <time>2021-09-05T06:50:18Z</time>
      </trkpt>
      <trkpt lat="44.0086" lon="2.04692">
        <ele>277.6</ele>
        <time>2021-09-05T06:50:19Z</time>
      </trkpt>
      <trkpt lat="44.00862" lon="2.04692">
        <ele>278</ele>
        <time>2021-09-05T06:50:20Z</time>
      </trkpt>
      <trkpt lat="44.00864" lon="2.04692">
        <ele>278.2</ele>
        <time>2021-09-05T06:50:21Z</time>
      </trkpt>
      <trkpt lat="44.00866" lon="2.04691">
        <ele>278.4</ele>
        <time>2021-09-05T06:50:22Z</time>
      </trkpt>
      <trkpt lat="44.00868" lon="2.0469">
        <ele>278.6</ele>
        <time>2021-09-05T06:50:23Z</time>
      </trkpt>
      <trkpt lat="44.0087" lon="2.0469">
        <ele>278.6</ele>
        <time>2021-09-05T06:50:24Z</time>
      </trkpt>
      <trkpt lat="44.00873" lon="2.04688">
        <ele>278.8</ele>
        <time>2021-09-05T06:50:25Z</time>
      </trkpt>
      <trkpt lat="44.00875" lon="2.04687">
        <ele>278.8</ele>
        <time>2021-09-05T06:50:26Z</time>
      </trkpt>
      <trkpt lat="44.00877" lon="2.04687">
        <ele>278.8</ele>
        <time>2021-09-05T06:50:27Z</time>
      </trkpt>
      <trkpt lat="44.00879" lon="2.04687">
        <ele>279.2</ele>
        <time>2021-09-05T06:50:28Z</time>
      </trkpt>
      <trkpt lat="44.0088" lon="2.04687">
        <ele>279.2</ele>
        <time>2021-09-05T06:50:29Z</time>
      </trkpt>
      <trkpt lat="44.00882" lon="2.04687">
        <ele>279.6</ele>
        <time>2021-09-05T06:50:30Z</time>
      </trkpt>
      <trkpt lat="44.00884" lon="2.04685">
        <ele>279.6</ele>
        <time>2021-09-05T06:50:31Z</time>
      </trkpt>
      <trkpt lat="44.00886" lon="2.04683">
        <ele>280</ele>
        <time>2021-09-05T06:50:32Z</time>
      </trkpt>
      <trkpt lat="44.00888" lon="2.0468">
        <ele>280</ele>
        <time>2021-09-05T06:50:33Z</time>
      </trkpt>
      <trkpt lat="44.0089" lon="2.04679">
        <ele>280.2</ele>
        <time>2021-09-05T06:50:34Z</time>
      </trkpt>
      <trkpt lat="44.00892" lon="2.04678">
        <ele>280.6</ele>
        <time>2021-09-05T06:50:35Z</time>
      </trkpt>
      <trkpt lat="44.00895" lon="2.04677">
        <ele>280.6</ele>
        <time>2021-09-05T06:50:36Z</time>
      </trkpt>
      <trkpt lat="44.00896" lon="2.04676">
        <ele>280.8</ele>
        <time>2021-09-05T06:50:37Z</time>
      </trkpt>
      <trkpt lat="44.00898" lon="2.04675">
        <ele>280.8</ele>
        <time>2021-09-05T06:50:38Z</time>
      </trkpt>
      <trkpt lat="44.00899" lon="2.04673">
        <ele>281.2</ele>
        <time>2021-09-05T06:50:39Z</time>
      </trkpt>
      <trkpt lat="44.009" lon="2.04671">
        <ele>281.2</ele>
        <time>2021-09-05T06:50:40Z</time>
      </trkpt>
      <trkpt lat="44.00901" lon="2.04669">
        <ele>281.4</ele>
        <time>2021-09-05T06:50:41Z</time>
      </trkpt>
      <trkpt lat="44.00902" lon="2.04668">
        <ele>281.6</ele>
        <time>2021-09-05T06:50:42Z</time>
      </trkpt>
      <trkpt lat="44.00903" lon="2.04667">
        <ele>281.6</ele>
        <time>2021-09-05T06:50:43Z</time>
      </trkpt>
      <trkpt lat="44.00904" lon="2.04665">
        <ele>281.8</ele>
        <time>2021-09-05T06:50:44Z</time>
      </trkpt>
      <trkpt lat="44.00905" lon="2.04664">
        <ele>282</ele>
        <time>2021-09-05T06:50:45Z</time>
      </trkpt>
      <trkpt lat="44.00906" lon="2.04663">
        <ele>282.2</ele>
        <time>2021-09-05T06:50:46Z</time>
      </trkpt>
      <trkpt lat="44.00907" lon="2.04661">
        <ele>282.2</ele>
        <time>2021-09-05T06:50:47Z</time>
      </trkpt>
      <trkpt lat="44.00907" lon="2.04659">
        <ele>282.6</ele>
        <time>2021-09-05T06:50:48Z</time>
      </trkpt>
      <trkpt lat="44.00907" lon="2.04658">
        <ele>282.6</ele>
        <time>2021-09-05T06:50:49Z</time>
      </trkpt>
      <trkpt lat="44.00907" lon="2.04655">
        <ele>282.6</ele>
        <time>2021-09-05T06:50:50Z</time>
      </trkpt>
      <trkpt lat="44.00906" lon="2.04653">
        <ele>282.8</ele>
        <time>2021-09-05T06:50:51Z</time>
      </trkpt>
      <trkpt lat="44.00906" lon="2.0465">
        <ele>282.8</ele>
        <time>2021-09-05T06:50:52Z</time>
      </trkpt>
      <trkpt lat="44.00905" lon="2.04647">
        <ele>283</ele>
        <time>2021-09-05T06:50:53Z</time>
      </trkpt>
      <trkpt lat="44.00904" lon="2.04645">
        <ele>283</ele>
        <time>2021-09-05T06:50:54Z</time>
      </trkpt>
      <trkpt lat="44.00904" lon="2.04643">
        <ele>283.2</ele>
        <time>2021-09-05T06:50:55Z</time>
      </trkpt>
      <trkpt lat="44.00903" lon="2.04641">
        <ele>283.4</ele>
        <time>2021-09-05T06:50:56Z</time>
      </trkpt>
      <trkpt lat="44.00902" lon="2.0464">
        <ele>283.4</ele>
        <time>2021-09-05T06:50:57Z</time>
      </trkpt>
      <trkpt lat="44.00901" lon="2.04639">
        <ele>283.6</ele>
        <time>2021-09-05T06:50:58Z</time>
      </trkpt>
      <trkpt lat="44.009" lon="2.04637">
        <ele>283.6</ele>
        <time>2021-09-05T06:50:59Z</time>
      </trkpt>
      <trkpt lat="44.00898" lon="2.04636">
        <ele>283.8</ele>
        <time>2021-09-05T06:51:00Z</time>
      </trkpt>
      <trkpt lat="44.00897" lon="2.04634">
        <ele>284</ele>
        <time>2021-09-05T06:51:01Z</time>
      </trkpt>
      <trkpt lat="44.00896" lon="2.04632">
        <ele>284</ele>
        <time>2021-09-05T06:51:02Z</time>
      </trkpt>
      <trkpt lat="44.00894" lon="2.04631">
        <ele>284.2</ele>
        <time>2021-09-05T06:51:03Z</time>
      </trkpt>
      <trkpt lat="44.00893" lon="2.04629">
        <ele>284.4</ele>
        <time>2021-09-05T06:51:04Z</time>
      </trkpt>
      <trkpt lat="44.00892" lon="2.04628">
        <ele>284.4</ele>
        <time>2021-09-05T06:51:05Z</time>
      </trkpt>
      <trkpt lat="44.00891" lon="2.04626">
        <ele>284.6</ele>
        <time>2021-09-05T06:51:06Z</time>
      </trkpt>
      <trkpt lat="44.0089" lon="2.04625">
        <ele>284.8</ele>
        <time>2021-09-05T06:51:07Z</time>
      </trkpt>
      <trkpt lat="44.00889" lon="2.04624">
        <ele>284.8</ele>
        <time>2021-09-05T06:51:08Z</time>
      </trkpt>
      <trkpt lat="44.00887" lon="2.04622">
        <ele>285</ele>
        <time>2021-09-05T06:51:09Z</time>
      </trkpt>
      <trkpt lat="44.00886" lon="2.0462">
        <ele>285.2</ele>
        <time>2021-09-05T06:51:10Z</time>
      </trkpt>
      <trkpt lat="44.00884" lon="2.04617">
        <ele>285.4</ele>
        <time>2021-09-05T06:51:11Z</time>
      </trkpt>
      <trkpt lat="44.00882" lon="2.04614">
        <ele>285.6</ele>
        <time>2021-09-05T06:51:12Z</time>
      </trkpt>
      <trkpt lat="44.0088" lon="2.04612">
        <ele>285.8</ele>
        <time>2021-09-05T06:51:13Z</time>
      </trkpt>
      <trkpt lat="44.00879" lon="2.04608">
        <ele>286</ele>
        <time>2021-09-05T06:51:14Z</time>
      </trkpt>
      <trkpt lat="44.00877" lon="2.04605">
        <ele>286.2</ele>
        <time>2021-09-05T06:51:15Z</time>
      </trkpt>
      <trkpt lat="44.00876" lon="2.04603">
        <ele>286.4</ele>
        <time>2021-09-05T06:51:16Z</time>
      </trkpt>
      <trkpt lat="44.00875" lon="2.046">
        <ele>286.4</ele>
        <time>2021-09-05T06:51:17Z</time>
      </trkpt>
      <trkpt lat="44.00875" lon="2.04596">
        <ele>286.6</ele>
        <time>2021-09-05T06:51:18Z</time>
      </trkpt>
      <trkpt lat="44.00874" lon="2.04593">
        <ele>286.8</ele>
        <time>2021-09-05T06:51:19Z</time>
      </trkpt>
      <trkpt lat="44.00873" lon="2.04589">
        <ele>286.8</ele>
        <time>2021-09-05T06:51:20Z</time>
      </trkpt>
      <trkpt lat="44.00872" lon="2.04586">
        <ele>287</ele>
        <time>2021-09-05T06:51:21Z</time>
      </trkpt>
      <trkpt lat="44.00872" lon="2.04583">
        <ele>287</ele>
        <time>2021-09-05T06:51:22Z</time>
      </trkpt>
      <trkpt lat="44.00871" lon="2.04579">
        <ele>287.2</ele>
        <time>2021-09-05T06:51:23Z</time>
      </trkpt>
      <trkpt lat="44.00871" lon="2.04577">
        <ele>287.2</ele>
        <time>2021-09-05T06:51:24Z</time>
      </trkpt>
      <trkpt lat="44.0087" lon="2.04574">
        <ele>287.4</ele>
        <time>2021-09-05T06:51:25Z</time>
      </trkpt>
      <trkpt lat="44.0087" lon="2.04571">
        <ele>287.4</ele>
        <time>2021-09-05T06:51:26Z</time>
      </trkpt>
      <trkpt lat="44.0087" lon="2.04568">
        <ele>287.6</ele>
        <time>2021-09-05T06:51:27Z</time>
      </trkpt>
      <trkpt lat="44.0087" lon="2.04564">
        <ele>288</ele>
        <time>2021-09-05T06:51:28Z</time>
      </trkpt>
      <trkpt lat="44.00871" lon="2.04561">
        <ele>287.8</ele>
        <time>2021-09-05T06:51:29Z</time>
      </trkpt>
      <trkpt lat="44.00872" lon="2.04558">
        <ele>288.2</ele>
        <time>2021-09-05T06:51:30Z</time>
      </trkpt>
      <trkpt lat="44.00874" lon="2.04556">
        <ele>288.2</ele>
        <time>2021-09-05T06:51:31Z</time>
      </trkpt>
      <trkpt lat="44.00875" lon="2.04553">
        <ele>288.4</ele>
        <time>2021-09-05T06:51:32Z</time>
      </trkpt>
      <trkpt lat="44.00877" lon="2.04552">
        <ele>288.4</ele>
        <time>2021-09-05T06:51:33Z</time>
      </trkpt>
      <trkpt lat="44.00879" lon="2.04551">
        <ele>288.6</ele>
        <time>2021-09-05T06:51:34Z</time>
      </trkpt>
      <trkpt lat="44.00881" lon="2.0455">
        <ele>288.6</ele>
        <time>2021-09-05T06:51:35Z</time>
      </trkpt>
      <trkpt lat="44.00883" lon="2.04548">
        <ele>288.8</ele>
        <time>2021-09-05T06:51:36Z</time>
      </trkpt>
      <trkpt lat="44.00885" lon="2.04546">
        <ele>289</ele>
        <time>2021-09-05T06:51:37Z</time>
      </trkpt>
      <trkpt lat="44.00888" lon="2.04545">
        <ele>289</ele>
        <time>2021-09-05T06:51:38Z</time>
      </trkpt>
      <trkpt lat="44.0089" lon="2.04543">
        <ele>289.2</ele>
        <time>2021-09-05T06:51:39Z</time>
      </trkpt>
      <trkpt lat="44.00892" lon="2.04541">
        <ele>289.4</ele>
        <time>2021-09-05T06:51:40Z</time>
      </trkpt>
      <trkpt lat="44.00895" lon="2.04539">
        <ele>289.4</ele>
        <time>2021-09-05T06:51:41Z</time>
      </trkpt>
      <trkpt lat="44.00897" lon="2.04538">
        <ele>289.8</ele>
        <time>2021-09-05T06:51:42Z</time>
      </trkpt>
      <trkpt lat="44.00899" lon="2.04537">
        <ele>289.8</ele>
        <time>2021-09-05T06:51:43Z</time>
      </trkpt>
      <trkpt lat="44.00902" lon="2.04535">
        <ele>290</ele>
        <time>2021-09-05T06:51:44Z</time>
      </trkpt>
      <trkpt lat="44.00904" lon="2.04534">
        <ele>290</ele>
        <time>2021-09-05T06:51:45Z</time>
      </trkpt>
      <trkpt lat="44.00906" lon="2.04532">
        <ele>290.2</ele>
        <time>2021-09-05T06:51:46Z</time>
      </trkpt>
      <trkpt lat="44.00909" lon="2.04531">
        <ele>290.2</ele>
        <time>2021-09-05T06:51:47Z</time>
      </trkpt>
      <trkpt lat="44.00911" lon="2.04529">
        <ele>290.4</ele>
        <time>2021-09-05T06:51:48Z</time>
      </trkpt>
      <trkpt lat="44.00914" lon="2.04528">
        <ele>290.6</ele>
        <time>2021-09-05T06:51:49Z</time>
      </trkpt>
      <trkpt lat="44.00917" lon="2.04526">
        <ele>290.6</ele>
        <time>2021-09-05T06:51:50Z</time>
      </trkpt>
      <trkpt lat="44.00919" lon="2.04524">
        <ele>290.8</ele>
        <time>2021-09-05T06:51:51Z</time>
      </trkpt>
      <trkpt lat="44.00922" lon="2.04523">
        <ele>291</ele>
        <time>2021-09-05T06:51:52Z</time>
      </trkpt>
      <trkpt lat="44.00925" lon="2.04521">
        <ele>291</ele>
        <time>2021-09-05T06:51:53Z</time>
      </trkpt>
      <trkpt lat="44.00928" lon="2.04519">
        <ele>291.2</ele>
        <time>2021-09-05T06:51:54Z</time>
      </trkpt>
      <trkpt lat="44.0093" lon="2.04518">
        <ele>291.2</ele>
        <time>2021-09-05T06:51:55Z</time>
      </trkpt>
      <trkpt lat="44.00933" lon="2.04516">
        <ele>291.4</ele>
        <time>2021-09-05T06:51:56Z</time>
      </trkpt>
      <trkpt lat="44.00935" lon="2.04515">
        <ele>291.6</ele>
        <time>2021-09-05T06:51:57Z</time>
      </trkpt>
      <trkpt lat="44.00937" lon="2.04513">
        <ele>291.6</ele>
        <time>2021-09-05T06:51:58Z</time>
      </trkpt>
      <trkpt lat="44.0094" lon="2.04511">
        <ele>291.8</ele>
        <time>2021-09-05T06:51:59Z</time>
      </trkpt>
      <trkpt lat="44.00942" lon="2.0451">
        <ele>291.8</ele>
        <time>2021-09-05T06:52:00Z</time>
      </trkpt>
      <trkpt lat="44.00944" lon="2.04509">
        <ele>292</ele>
        <time>2021-09-05T06:52:01Z</time>
      </trkpt>
      <trkpt lat="44.00946" lon="2.04507">
        <ele>292</ele>
        <time>2021-09-05T06:52:02Z</time>
      </trkpt>
      <trkpt lat="44.00949" lon="2.04506">
        <ele>292</ele>
        <time>2021-09-05T06:52:03Z</time>
      </trkpt>
      <trkpt lat="44.00951" lon="2.04505">
        <ele>292.2</ele>
        <time>2021-09-05T06:52:04Z</time>
      </trkpt>
      <trkpt lat="44.00953" lon="2.04504">
        <ele>292.2</ele>
        <time>2021-09-05T06:52:05Z</time>
      </trkpt>
      <trkpt lat="44.00955" lon="2.04503">
        <ele>292.2</ele>
        <time>2021-09-05T06:52:06Z</time>
      </trkpt>
      <trkpt lat="44.00958" lon="2.04501">
        <ele>292.2</ele>
        <time>2021-09-05T06:52:07Z</time>
      </trkpt>
      <trkpt lat="44.0096" lon="2.04501">
        <ele>292.2</ele>
        <time>2021-09-05T06:52:08Z</time>
      </trkpt>
      <trkpt lat="44.00962" lon="2.045">
        <ele>292.4</ele>
        <time>2021-09-05T06:52:09Z</time>
      </trkpt>
      <trkpt lat="44.00965" lon="2.04499">
        <ele>292.4</ele>
        <time>2021-09-05T06:52:10Z</time>
      </trkpt>
      <trkpt lat="44.00967" lon="2.04499">
        <ele>292.4</ele>
        <time>2021-09-05T06:52:11Z</time>
      </trkpt>
      <trkpt lat="44.00969" lon="2.04498">
        <ele>292.6</ele>
        <time>2021-09-05T06:52:12Z</time>
      </trkpt>
      <trkpt lat="44.00971" lon="2.04499">
        <ele>292.8</ele>
        <time>2021-09-05T06:52:13Z</time>
      </trkpt>
      <trkpt lat="44.00983" lon="2.04505">
        <ele>293.2</ele>
        <time>2021-09-05T06:52:18Z</time>
      </trkpt>
      <trkpt lat="44.00995" lon="2.04514">
        <ele>293.8</ele>
        <time>2021-09-05T06:52:23Z</time>
      </trkpt>
      <trkpt lat="44.00998" lon="2.04516">
        <ele>293.8</ele>
        <time>2021-09-05T06:52:24Z</time>
      </trkpt>
      <trkpt lat="44.01" lon="2.04517">
        <ele>293.8</ele>
        <time>2021-09-05T06:52:25Z</time>
      </trkpt>
      <trkpt lat="44.01013" lon="2.04526">
        <ele>294.2</ele>
        <time>2021-09-05T06:52:30Z</time>
      </trkpt>
      <trkpt lat="44.01018" lon="2.0453">
        <ele>294.4</ele>
        <time>2021-09-05T06:52:32Z</time>
      </trkpt>
      <trkpt lat="44.01028" lon="2.04538">
        <ele>294.8</ele>
        <time>2021-09-05T06:52:36Z</time>
      </trkpt>
      <trkpt lat="44.0103" lon="2.0454">
        <ele>294.8</ele>
        <time>2021-09-05T06:52:37Z</time>
      </trkpt>
      <trkpt lat="44.01043" lon="2.04549">
        <ele>295.6</ele>
        <time>2021-09-05T06:52:42Z</time>
      </trkpt>
      <trkpt lat="44.01051" lon="2.04554">
        <ele>295.8</ele>
        <time>2021-09-05T06:52:45Z</time>
      </trkpt>
      <trkpt lat="44.01053" lon="2.04556">
        <ele>295.6</ele>
        <time>2021-09-05T06:52:46Z</time>
      </trkpt>
      <trkpt lat="44.01056" lon="2.04558">
        <ele>295.6</ele>
        <time>2021-09-05T06:52:47Z</time>
      </trkpt>
      <trkpt lat="44.01059" lon="2.0456">
        <ele>295.8</ele>
        <time>2021-09-05T06:52:48Z</time>
      </trkpt>
      <trkpt lat="44.01061" lon="2.04561">
        <ele>295.8</ele>
        <time>2021-09-05T06:52:49Z</time>
      </trkpt>
      <trkpt lat="44.01063" lon="2.04563">
        <ele>295.8</ele>
        <time>2021-09-05T06:52:50Z</time>
      </trkpt>
      <trkpt lat="44.01066" lon="2.04563">
        <ele>295.8</ele>
        <time>2021-09-05T06:52:51Z</time>
      </trkpt>
      <trkpt lat="44.01068" lon="2.04563">
        <ele>295.8</ele>
        <time>2021-09-05T06:52:52Z</time>
      </trkpt>
      <trkpt lat="44.01071" lon="2.04562">
        <ele>295.8</ele>
        <time>2021-09-05T06:52:53Z</time>
      </trkpt>
      <trkpt lat="44.01073" lon="2.04561">
        <ele>296</ele>
        <time>2021-09-05T06:52:54Z</time>
      </trkpt>
      <trkpt lat="44.01074" lon="2.04558">
        <ele>296</ele>
        <time>2021-09-05T06:52:55Z</time>
      </trkpt>
      <trkpt lat="44.01076" lon="2.04555">
        <ele>296</ele>
        <time>2021-09-05T06:52:56Z</time>
      </trkpt>
      <trkpt lat="44.01077" lon="2.04553">
        <ele>296</ele>
        <time>2021-09-05T06:52:57Z</time>
      </trkpt>
      <trkpt lat="44.01077" lon="2.0455">
        <ele>296</ele>
        <time>2021-09-05T06:52:58Z</time>
      </trkpt>
      <trkpt lat="44.01077" lon="2.04547">
        <ele>296.2</ele>
        <time>2021-09-05T06:52:59Z</time>
      </trkpt>
      <trkpt lat="44.01077" lon="2.04543">
        <ele>296.2</ele>
        <time>2021-09-05T06:53:00Z</time>
      </trkpt>
      <trkpt lat="44.01076" lon="2.04539">
        <ele>296.4</ele>
        <time>2021-09-05T06:53:01Z</time>
      </trkpt>
      <trkpt lat="44.01076" lon="2.04535">
        <ele>296.4</ele>
        <time>2021-09-05T06:53:02Z</time>
      </trkpt>
      <trkpt lat="44.01074" lon="2.04527">
        <ele>296.6</ele>
        <time>2021-09-05T06:53:04Z</time>
      </trkpt>
      <trkpt lat="44.01073" lon="2.04518">
        <ele>296.8</ele>
        <time>2021-09-05T06:53:06Z</time>
      </trkpt>
      <trkpt lat="44.01072" lon="2.04511">
        <ele>296.8</ele>
        <time>2021-09-05T06:53:08Z</time>
      </trkpt>
      <trkpt lat="44.01072" lon="2.04507">
        <ele>296.8</ele>
        <time>2021-09-05T06:53:09Z</time>
      </trkpt>
      <trkpt lat="44.01071" lon="2.04494">
        <ele>296.8</ele>
        <time>2021-09-05T06:53:12Z</time>
      </trkpt>
      <trkpt lat="44.01069" lon="2.04477">
        <ele>296.8</ele>
        <time>2021-09-05T06:53:16Z</time>
      </trkpt>
      <trkpt lat="44.01069" lon="2.04472">
        <ele>296.8</ele>
        <time>2021-09-05T06:53:17Z</time>
      </trkpt>
      <trkpt lat="44.01069" lon="2.04468">
        <ele>296.8</ele>
        <time>2021-09-05T06:53:18Z</time>
      </trkpt>
      <trkpt lat="44.01069" lon="2.04464">
        <ele>296.6</ele>
        <time>2021-09-05T06:53:19Z</time>
      </trkpt>
      <trkpt lat="44.01068" lon="2.04451">
        <ele>296.6</ele>
        <time>2021-09-05T06:53:22Z</time>
      </trkpt>
      <trkpt lat="44.01068" lon="2.04412">
        <ele>296.6</ele>
        <time>2021-09-05T06:53:30Z</time>
      </trkpt>
      <trkpt lat="44.01069" lon="2.04407">
        <ele>296.6</ele>
        <time>2021-09-05T06:53:31Z</time>
      </trkpt>
      <trkpt lat="44.01072" lon="2.04365">
        <ele>296.4</ele>
        <time>2021-09-05T06:53:39Z</time>
      </trkpt>
      <trkpt lat="44.01073" lon="2.04359">
        <ele>296.4</ele>
        <time>2021-09-05T06:53:40Z</time>
      </trkpt>
      <trkpt lat="44.01079" lon="2.04319">
        <ele>296.2</ele>
        <time>2021-09-05T06:53:47Z</time>
      </trkpt>
      <trkpt lat="44.0108" lon="2.04314">
        <ele>296.2</ele>
        <time>2021-09-05T06:53:48Z</time>
      </trkpt>
      <trkpt lat="44.01081" lon="2.04302">
        <ele>296</ele>
        <time>2021-09-05T06:53:50Z</time>
      </trkpt>
      <trkpt lat="44.01087" lon="2.04267">
        <ele>295.8</ele>
        <time>2021-09-05T06:53:56Z</time>
      </trkpt>
      <trkpt lat="44.01088" lon="2.04261">
        <ele>295.6</ele>
        <time>2021-09-05T06:53:57Z</time>
      </trkpt>
      <trkpt lat="44.01093" lon="2.04201">
        <ele>295.6</ele>
        <time>2021-09-05T06:54:06Z</time>
      </trkpt>
      <trkpt lat="44.01093" lon="2.04179">
        <ele>295.2</ele>
        <time>2021-09-05T06:54:09Z</time>
      </trkpt>
      <trkpt lat="44.01091" lon="2.04158">
        <ele>294.8</ele>
        <time>2021-09-05T06:54:12Z</time>
      </trkpt>
      <trkpt lat="44.0109" lon="2.04144">
        <ele>294.8</ele>
        <time>2021-09-05T06:54:14Z</time>
      </trkpt>
      <trkpt lat="44.01088" lon="2.0413">
        <ele>294.6</ele>
        <time>2021-09-05T06:54:16Z</time>
      </trkpt>
      <trkpt lat="44.01086" lon="2.04099">
        <ele>293.8</ele>
        <time>2021-09-05T06:54:20Z</time>
      </trkpt>
      <trkpt lat="44.01086" lon="2.04091">
        <ele>293.4</ele>
        <time>2021-09-05T06:54:21Z</time>
      </trkpt>
      <trkpt lat="44.01085" lon="2.04084">
        <ele>293.4</ele>
        <time>2021-09-05T06:54:22Z</time>
      </trkpt>
      <trkpt lat="44.01085" lon="2.04077">
        <ele>293.2</ele>
        <time>2021-09-05T06:54:23Z</time>
      </trkpt>
      <trkpt lat="44.01082" lon="2.04062">
        <ele>292.8</ele>
        <time>2021-09-05T06:54:25Z</time>
      </trkpt>
      <trkpt lat="44.01081" lon="2.04056">
        <ele>292.6</ele>
        <time>2021-09-05T06:54:26Z</time>
      </trkpt>
      <trkpt lat="44.01079" lon="2.04049">
        <ele>292.4</ele>
        <time>2021-09-05T06:54:27Z</time>
      </trkpt>
      <trkpt lat="44.01076" lon="2.04035">
        <ele>291.8</ele>
        <time>2021-09-05T06:54:29Z</time>
      </trkpt>
      <trkpt lat="44.01072" lon="2.04023">
        <ele>291.6</ele>
        <time>2021-09-05T06:54:31Z</time>
      </trkpt>
      <trkpt lat="44.0107" lon="2.04017">
        <ele>291.2</ele>
        <time>2021-09-05T06:54:32Z</time>
      </trkpt>
      <trkpt lat="44.01052" lon="2.03958">
        <ele>290</ele>
        <time>2021-09-05T06:54:41Z</time>
      </trkpt>
      <trkpt lat="44.01048" lon="2.03944">
        <ele>289.6</ele>
        <time>2021-09-05T06:54:43Z</time>
      </trkpt>
      <trkpt lat="44.01038" lon="2.0391">
        <ele>288.6</ele>
        <time>2021-09-05T06:54:48Z</time>
      </trkpt>
      <trkpt lat="44.01037" lon="2.03903">
        <ele>288.4</ele>
        <time>2021-09-05T06:54:49Z</time>
      </trkpt>
      <trkpt lat="44.01035" lon="2.03896">
        <ele>288</ele>
        <time>2021-09-05T06:54:50Z</time>
      </trkpt>
      <trkpt lat="44.01032" lon="2.03883">
        <ele>287.6</ele>
        <time>2021-09-05T06:54:52Z</time>
      </trkpt>
      <trkpt lat="44.01027" lon="2.03861">
        <ele>287.2</ele>
        <time>2021-09-05T06:54:55Z</time>
      </trkpt>
      <trkpt lat="44.01021" lon="2.0384">
        <ele>287</ele>
        <time>2021-09-05T06:54:58Z</time>
      </trkpt>
      <trkpt lat="44.01018" lon="2.03833">
        <ele>287</ele>
        <time>2021-09-05T06:54:59Z</time>
      </trkpt>
      <trkpt lat="44.01015" lon="2.03826">
        <ele>286.6</ele>
        <time>2021-09-05T06:55:00Z</time>
      </trkpt>
      <trkpt lat="44.01012" lon="2.0382">
        <ele>286.6</ele>
        <time>2021-09-05T06:55:01Z</time>
      </trkpt>
      <trkpt lat="44.01009" lon="2.03815">
        <ele>285.8</ele>
        <time>2021-09-05T06:55:02Z</time>
      </trkpt>
      <trkpt lat="44.01006" lon="2.03811">
        <ele>285.6</ele>
        <time>2021-09-05T06:55:03Z</time>
      </trkpt>
      <trkpt lat="44.01003" lon="2.03807">
        <ele>285</ele>
        <time>2021-09-05T06:55:04Z</time>
      </trkpt>
      <trkpt lat="44.01" lon="2.03803">
        <ele>284.4</ele>
        <time>2021-09-05T06:55:05Z</time>
      </trkpt>
      <trkpt lat="44.00998" lon="2.038">
        <ele>284</ele>
        <time>2021-09-05T06:55:06Z</time>
      </trkpt>
      <trkpt lat="44.00996" lon="2.03797">
        <ele>283.2</ele>
        <time>2021-09-05T06:55:07Z</time>
      </trkpt>
      <trkpt lat="44.00995" lon="2.03794">
        <ele>282.8</ele>
        <time>2021-09-05T06:55:08Z</time>
      </trkpt>
      <trkpt lat="44.00996" lon="2.03791">
        <ele>282.2</ele>
        <time>2021-09-05T06:55:09Z</time>
      </trkpt>
      <trkpt lat="44.00998" lon="2.03789">
        <ele>282</ele>
        <time>2021-09-05T06:55:10Z</time>
      </trkpt>
      <trkpt lat="44.01" lon="2.03787">
        <ele>281.8</ele>
        <time>2021-09-05T06:55:11Z</time>
      </trkpt>
      <trkpt lat="44.01002" lon="2.03786">
        <ele>281.8</ele>
        <time>2021-09-05T06:55:12Z</time>
      </trkpt>
      <trkpt lat="44.01004" lon="2.03784">
        <ele>281.8</ele>
        <time>2021-09-05T06:55:13Z</time>
      </trkpt>
      <trkpt lat="44.01006" lon="2.03782">
        <ele>281.8</ele>
        <time>2021-09-05T06:55:14Z</time>
      </trkpt>
      <trkpt lat="44.01011" lon="2.03777">
        <ele>281.4</ele>
        <time>2021-09-05T06:55:16Z</time>
      </trkpt>
      <trkpt lat="44.01028" lon="2.03761">
        <ele>281.6</ele>
        <time>2021-09-05T06:55:22Z</time>
      </trkpt>
      <trkpt lat="44.01031" lon="2.03758">
        <ele>281.6</ele>
        <time>2021-09-05T06:55:23Z</time>
      </trkpt>
      <trkpt lat="44.01041" lon="2.03757">
        <ele>282</ele>
        <time>2021-09-05T06:55:26Z</time>
      </trkpt>
      <trkpt lat="44.01044" lon="2.03758">
        <ele>282.2</ele>
        <time>2021-09-05T06:55:27Z</time>
      </trkpt>
      <trkpt lat="44.01048" lon="2.03759">
        <ele>282.4</ele>
        <time>2021-09-05T06:55:28Z</time>
      </trkpt>
      <trkpt lat="44.0105" lon="2.0376">
        <ele>282.4</ele>
        <time>2021-09-05T06:55:29Z</time>
      </trkpt>
      <trkpt lat="44.01052" lon="2.03762">
        <ele>282.4</ele>
        <time>2021-09-05T06:55:30Z</time>
      </trkpt>
      <trkpt lat="44.01054" lon="2.03763">
        <ele>282.4</ele>
        <time>2021-09-05T06:55:31Z</time>
      </trkpt>
      <trkpt lat="44.01056" lon="2.03764">
        <ele>282.8</ele>
        <time>2021-09-05T06:55:32Z</time>
      </trkpt>
      <trkpt lat="44.01058" lon="2.03765">
        <ele>283</ele>
        <time>2021-09-05T06:55:33Z</time>
      </trkpt>
      <trkpt lat="44.01071" lon="2.03776">
        <ele>284</ele>
        <time>2021-09-05T06:55:39Z</time>
      </trkpt>
      <trkpt lat="44.01078" lon="2.03786">
        <ele>284.4</ele>
        <time>2021-09-05T06:55:42Z</time>
      </trkpt>
      <trkpt lat="44.01082" lon="2.03793">
        <ele>284.6</ele>
        <time>2021-09-05T06:55:44Z</time>
      </trkpt>
      <trkpt lat="44.01085" lon="2.03796">
        <ele>284.8</ele>
        <time>2021-09-05T06:55:45Z</time>
      </trkpt>
      <trkpt lat="44.01091" lon="2.03806">
        <ele>285.2</ele>
        <time>2021-09-05T06:55:48Z</time>
      </trkpt>
      <trkpt lat="44.01094" lon="2.0381">
        <ele>285.2</ele>
        <time>2021-09-05T06:55:49Z</time>
      </trkpt>
      <trkpt lat="44.01095" lon="2.03814">
        <ele>285.4</ele>
        <time>2021-09-05T06:55:50Z</time>
      </trkpt>
      <trkpt lat="44.01097" lon="2.03818">
        <ele>285.4</ele>
        <time>2021-09-05T06:55:51Z</time>
      </trkpt>
      <trkpt lat="44.01098" lon="2.03821">
        <ele>285.4</ele>
        <time>2021-09-05T06:55:52Z</time>
      </trkpt>
      <trkpt lat="44.01099" lon="2.03824">
        <ele>285.4</ele>
        <time>2021-09-05T06:55:53Z</time>
      </trkpt>
      <trkpt lat="44.011" lon="2.03827">
        <ele>285.4</ele>
        <time>2021-09-05T06:55:54Z</time>
      </trkpt>
      <trkpt lat="44.01101" lon="2.03828">
        <ele>285.4</ele>
        <time>2021-09-05T06:55:55Z</time>
      </trkpt>
      <trkpt lat="44.01103" lon="2.03828">
        <ele>285.4</ele>
        <time>2021-09-05T06:55:56Z</time>
      </trkpt>
      <trkpt lat="44.01105" lon="2.03829">
        <ele>285.2</ele>
        <time>2021-09-05T06:55:57Z</time>
      </trkpt>
      <trkpt lat="44.01107" lon="2.03828">
        <ele>285.2</ele>
        <time>2021-09-05T06:55:58Z</time>
      </trkpt>
      <trkpt lat="44.01109" lon="2.03825">
        <ele>285.2</ele>
        <time>2021-09-05T06:55:59Z</time>
      </trkpt>
      <trkpt lat="44.0111" lon="2.03819">
        <ele>285</ele>
        <time>2021-09-05T06:56:01Z</time>
      </trkpt>
      <trkpt lat="44.01111" lon="2.03815">
        <ele>284.8</ele>
        <time>2021-09-05T06:56:02Z</time>
      </trkpt>
      <trkpt lat="44.01111" lon="2.03811">
        <ele>284.6</ele>
        <time>2021-09-05T06:56:03Z</time>
      </trkpt>
      <trkpt lat="44.01111" lon="2.03809">
        <ele>284.4</ele>
        <time>2021-09-05T06:56:04Z</time>
      </trkpt>
      <trkpt lat="44.01112" lon="2.03807">
        <ele>284.2</ele>
        <time>2021-09-05T06:56:05Z</time>
      </trkpt>
      <trkpt lat="44.01112" lon="2.03805">
        <ele>283.8</ele>
        <time>2021-09-05T06:56:06Z</time>
      </trkpt>
      <trkpt lat="44.01113" lon="2.03803">
        <ele>283.4</ele>
        <time>2021-09-05T06:56:07Z</time>
      </trkpt>
      <trkpt lat="44.01113" lon="2.03801">
        <ele>283.4</ele>
        <time>2021-09-05T06:56:08Z</time>
      </trkpt>
      <trkpt lat="44.01115" lon="2.038">
        <ele>283</ele>
        <time>2021-09-05T06:56:09Z</time>
      </trkpt>
      <trkpt lat="44.01116" lon="2.038">
        <ele>283</ele>
        <time>2021-09-05T06:56:10Z</time>
      </trkpt>
      <trkpt lat="44.01118" lon="2.03801">
        <ele>282.6</ele>
        <time>2021-09-05T06:56:11Z</time>
      </trkpt>
      <trkpt lat="44.01121" lon="2.03805">
        <ele>282.2</ele>
        <time>2021-09-05T06:56:13Z</time>
      </trkpt>
      <trkpt lat="44.01124" lon="2.03809">
        <ele>282</ele>
        <time>2021-09-05T06:56:14Z</time>
      </trkpt>
      <trkpt lat="44.01126" lon="2.03812">
        <ele>281.8</ele>
        <time>2021-09-05T06:56:15Z</time>
      </trkpt>
      <trkpt lat="44.01127" lon="2.03815">
        <ele>281.2</ele>
        <time>2021-09-05T06:56:16Z</time>
      </trkpt>
      <trkpt lat="44.01129" lon="2.03823">
        <ele>280.4</ele>
        <time>2021-09-05T06:56:18Z</time>
      </trkpt>
      <trkpt lat="44.01131" lon="2.03831">
        <ele>279.4</ele>
        <time>2021-09-05T06:56:20Z</time>
      </trkpt>
      <trkpt lat="44.01132" lon="2.03835">
        <ele>278.6</ele>
        <time>2021-09-05T06:56:21Z</time>
      </trkpt>
      <trkpt lat="44.01132" lon="2.03849">
        <ele>277.8</ele>
        <time>2021-09-05T06:56:24Z</time>
      </trkpt>
      <trkpt lat="44.01131" lon="2.03853">
        <ele>277.4</ele>
        <time>2021-09-05T06:56:25Z</time>
      </trkpt>
      <trkpt lat="44.0113" lon="2.03857">
        <ele>277</ele>
        <time>2021-09-05T06:56:26Z</time>
      </trkpt>
      <trkpt lat="44.01129" lon="2.03862">
        <ele>276.6</ele>
        <time>2021-09-05T06:56:27Z</time>
      </trkpt>
      <trkpt lat="44.01128" lon="2.03866">
        <ele>276.2</ele>
        <time>2021-09-05T06:56:28Z</time>
      </trkpt>
      <trkpt lat="44.01126" lon="2.03874">
        <ele>275.4</ele>
        <time>2021-09-05T06:56:30Z</time>
      </trkpt>
      <trkpt lat="44.01125" lon="2.03879">
        <ele>275.2</ele>
        <time>2021-09-05T06:56:31Z</time>
      </trkpt>
      <trkpt lat="44.01124" lon="2.03884">
        <ele>275</ele>
        <time>2021-09-05T06:56:32Z</time>
      </trkpt>
      <trkpt lat="44.01124" lon="2.03887">
        <ele>275</ele>
        <time>2021-09-05T06:56:33Z</time>
      </trkpt>
      <trkpt lat="44.01123" lon="2.0389">
        <ele>274.8</ele>
        <time>2021-09-05T06:56:34Z</time>
      </trkpt>
      <trkpt lat="44.01122" lon="2.03902">
        <ele>274.8</ele>
        <time>2021-09-05T06:56:37Z</time>
      </trkpt>
      <trkpt lat="44.01122" lon="2.03905">
        <ele>274.8</ele>
        <time>2021-09-05T06:56:38Z</time>
      </trkpt>
      <trkpt lat="44.01127" lon="2.03918">
        <ele>275</ele>
        <time>2021-09-05T06:56:40Z</time>
      </trkpt>
      <trkpt lat="44.01129" lon="2.03924">
        <ele>275</ele>
        <time>2021-09-05T06:56:41Z</time>
      </trkpt>
      <trkpt lat="44.01131" lon="2.03931">
        <ele>274.8</ele>
        <time>2021-09-05T06:56:42Z</time>
      </trkpt>
      <trkpt lat="44.0114" lon="2.03948">
        <ele>275</ele>
        <time>2021-09-05T06:56:45Z</time>
      </trkpt>
      <trkpt lat="44.01142" lon="2.0395">
        <ele>274.8</ele>
        <time>2021-09-05T06:56:46Z</time>
      </trkpt>
      <trkpt lat="44.01145" lon="2.03952">
        <ele>274.8</ele>
        <time>2021-09-05T06:56:47Z</time>
      </trkpt>
      <trkpt lat="44.0115" lon="2.03955">
        <ele>274.6</ele>
        <time>2021-09-05T06:56:48Z</time>
      </trkpt>
      <trkpt lat="44.01155" lon="2.03958">
        <ele>274.4</ele>
        <time>2021-09-05T06:56:49Z</time>
      </trkpt>
      <trkpt lat="44.01159" lon="2.03958">
        <ele>274.2</ele>
        <time>2021-09-05T06:56:50Z</time>
      </trkpt>
      <trkpt lat="44.01163" lon="2.03956">
        <ele>274.2</ele>
        <time>2021-09-05T06:56:51Z</time>
      </trkpt>
      <trkpt lat="44.01168" lon="2.03953">
        <ele>274.2</ele>
        <time>2021-09-05T06:56:52Z</time>
      </trkpt>
      <trkpt lat="44.01174" lon="2.0395">
        <ele>274</ele>
        <time>2021-09-05T06:56:53Z</time>
      </trkpt>
      <trkpt lat="44.01179" lon="2.03947">
        <ele>274</ele>
        <time>2021-09-05T06:56:54Z</time>
      </trkpt>
      <trkpt lat="44.01184" lon="2.03943">
        <ele>274</ele>
        <time>2021-09-05T06:56:55Z</time>
      </trkpt>
      <trkpt lat="44.01188" lon="2.0394">
        <ele>274</ele>
        <time>2021-09-05T06:56:56Z</time>
      </trkpt>
      <trkpt lat="44.01193" lon="2.03937">
        <ele>273</ele>
        <time>2021-09-05T06:56:57Z</time>
      </trkpt>
      <trkpt lat="44.01198" lon="2.03935">
        <ele>272.4</ele>
        <time>2021-09-05T06:56:58Z</time>
      </trkpt>
      <trkpt lat="44.01202" lon="2.03932">
        <ele>272.2</ele>
        <time>2021-09-05T06:56:59Z</time>
      </trkpt>
      <trkpt lat="44.01206" lon="2.03931">
        <ele>271.8</ele>
        <time>2021-09-05T06:57:00Z</time>
      </trkpt>
      <trkpt lat="44.01209" lon="2.03928">
        <ele>271.8</ele>
        <time>2021-09-05T06:57:01Z</time>
      </trkpt>
      <trkpt lat="44.01212" lon="2.03926">
        <ele>271.6</ele>
        <time>2021-09-05T06:57:02Z</time>
      </trkpt>
      <trkpt lat="44.01216" lon="2.03923">
        <ele>271.4</ele>
        <time>2021-09-05T06:57:03Z</time>
      </trkpt>
      <trkpt lat="44.01219" lon="2.03921">
        <ele>271.2</ele>
        <time>2021-09-05T06:57:04Z</time>
      </trkpt>
      <trkpt lat="44.01221" lon="2.03919">
        <ele>271.2</ele>
        <time>2021-09-05T06:57:05Z</time>
      </trkpt>
      <trkpt lat="44.01224" lon="2.03918">
        <ele>271.2</ele>
        <time>2021-09-05T06:57:06Z</time>
      </trkpt>
      <trkpt lat="44.01229" lon="2.03913">
        <ele>271.4</ele>
        <time>2021-09-05T06:57:08Z</time>
      </trkpt>
      <trkpt lat="44.01232" lon="2.0391">
        <ele>271.4</ele>
        <time>2021-09-05T06:57:09Z</time>
      </trkpt>
      <trkpt lat="44.01242" lon="2.03898">
        <ele>271.6</ele>
        <time>2021-09-05T06:57:12Z</time>
      </trkpt>
      <trkpt lat="44.01245" lon="2.03896">
        <ele>271.6</ele>
        <time>2021-09-05T06:57:13Z</time>
      </trkpt>
      <trkpt lat="44.01248" lon="2.03892">
        <ele>271.8</ele>
        <time>2021-09-05T06:57:14Z</time>
      </trkpt>
      <trkpt lat="44.01251" lon="2.03887">
        <ele>271.8</ele>
        <time>2021-09-05T06:57:15Z</time>
      </trkpt>
      <trkpt lat="44.01254" lon="2.03885">
        <ele>271.6</ele>
        <time>2021-09-05T06:57:16Z</time>
      </trkpt>
      <trkpt lat="44.01262" lon="2.03871">
        <ele>270.6</ele>
        <time>2021-09-05T06:57:19Z</time>
      </trkpt>
      <trkpt lat="44.01265" lon="2.03867">
        <ele>270.4</ele>
        <time>2021-09-05T06:57:20Z</time>
      </trkpt>
      <trkpt lat="44.01269" lon="2.03864">
        <ele>270.2</ele>
        <time>2021-09-05T06:57:21Z</time>
      </trkpt>
      <trkpt lat="44.01273" lon="2.03862">
        <ele>269.8</ele>
        <time>2021-09-05T06:57:22Z</time>
      </trkpt>
      <trkpt lat="44.01276" lon="2.03859">
        <ele>269.4</ele>
        <time>2021-09-05T06:57:23Z</time>
      </trkpt>
      <trkpt lat="44.01281" lon="2.03854">
        <ele>269.4</ele>
        <time>2021-09-05T06:57:24Z</time>
      </trkpt>
      <trkpt lat="44.01284" lon="2.0385">
        <ele>268.8</ele>
        <time>2021-09-05T06:57:25Z</time>
      </trkpt>
      <trkpt lat="44.01287" lon="2.03847">
        <ele>268.6</ele>
        <time>2021-09-05T06:57:26Z</time>
      </trkpt>
      <trkpt lat="44.0129" lon="2.03844">
        <ele>268</ele>
        <time>2021-09-05T06:57:27Z</time>
      </trkpt>
      <trkpt lat="44.01297" lon="2.03835">
        <ele>267.2</ele>
        <time>2021-09-05T06:57:29Z</time>
      </trkpt>
      <trkpt lat="44.01299" lon="2.03835">
        <ele>266.4</ele>
        <time>2021-09-05T06:57:30Z</time>
      </trkpt>
      <trkpt lat="44.01303" lon="2.03833">
        <ele>266.2</ele>
        <time>2021-09-05T06:57:31Z</time>
      </trkpt>
      <trkpt lat="44.01307" lon="2.03832">
        <ele>265.8</ele>
        <time>2021-09-05T06:57:32Z</time>
      </trkpt>
      <trkpt lat="44.0131" lon="2.03833">
        <ele>265.6</ele>
        <time>2021-09-05T06:57:33Z</time>
      </trkpt>
      <trkpt lat="44.01313" lon="2.03834">
        <ele>265.2</ele>
        <time>2021-09-05T06:57:34Z</time>
      </trkpt>
      <trkpt lat="44.01316" lon="2.03835">
        <ele>265.2</ele>
        <time>2021-09-05T06:57:35Z</time>
      </trkpt>
      <trkpt lat="44.01318" lon="2.03836">
        <ele>265</ele>
        <time>2021-09-05T06:57:36Z</time>
      </trkpt>
      <trkpt lat="44.0132" lon="2.03838">
        <ele>265</ele>
        <time>2021-09-05T06:57:37Z</time>
      </trkpt>
      <trkpt lat="44.01323" lon="2.03838">
        <ele>265</ele>
        <time>2021-09-05T06:57:38Z</time>
      </trkpt>
      <trkpt lat="44.01325" lon="2.03838">
        <ele>265</ele>
        <time>2021-09-05T06:57:39Z</time>
      </trkpt>
      <trkpt lat="44.0133" lon="2.0384">
        <ele>265</ele>
        <time>2021-09-05T06:57:41Z</time>
      </trkpt>
      <trkpt lat="44.01338" lon="2.03843">
        <ele>265.2</ele>
        <time>2021-09-05T06:57:44Z</time>
      </trkpt>
      <trkpt lat="44.0134" lon="2.03845">
        <ele>265.2</ele>
        <time>2021-09-05T06:57:45Z</time>
      </trkpt>
      <trkpt lat="44.01353" lon="2.03856">
        <ele>265.2</ele>
        <time>2021-09-05T06:57:48Z</time>
      </trkpt>
      <trkpt lat="44.01357" lon="2.03859">
        <ele>265.2</ele>
        <time>2021-09-05T06:57:49Z</time>
      </trkpt>
      <trkpt lat="44.01362" lon="2.03863">
        <ele>265.2</ele>
        <time>2021-09-05T06:57:50Z</time>
      </trkpt>
      <trkpt lat="44.01364" lon="2.03865">
        <ele>265.2</ele>
        <time>2021-09-05T06:57:51Z</time>
      </trkpt>
      <trkpt lat="44.01366" lon="2.03867">
        <ele>265.2</ele>
        <time>2021-09-05T06:57:52Z</time>
      </trkpt>
      <trkpt lat="44.01368" lon="2.03871">
        <ele>265.2</ele>
        <time>2021-09-05T06:57:53Z</time>
      </trkpt>
      <trkpt lat="44.0137" lon="2.03873">
        <ele>265.2</ele>
        <time>2021-09-05T06:57:54Z</time>
      </trkpt>
      <trkpt lat="44.01372" lon="2.03876">
        <ele>265.2</ele>
        <time>2021-09-05T06:57:55Z</time>
      </trkpt>
      <trkpt lat="44.01374" lon="2.0388">
        <ele>265.2</ele>
        <time>2021-09-05T06:57:56Z</time>
      </trkpt>
      <trkpt lat="44.01376" lon="2.03882">
        <ele>265</ele>
        <time>2021-09-05T06:57:57Z</time>
      </trkpt>
      <trkpt lat="44.01378" lon="2.03882">
        <ele>265</ele>
        <time>2021-09-05T06:57:58Z</time>
      </trkpt>
      <trkpt lat="44.01381" lon="2.03884">
        <ele>265</ele>
        <time>2021-09-05T06:57:59Z</time>
      </trkpt>
      <trkpt lat="44.01385" lon="2.03885">
        <ele>265</ele>
        <time>2021-09-05T06:58:00Z</time>
      </trkpt>
      <trkpt lat="44.01388" lon="2.03885">
        <ele>264.8</ele>
        <time>2021-09-05T06:58:01Z</time>
      </trkpt>
      <trkpt lat="44.01391" lon="2.03885">
        <ele>264.8</ele>
        <time>2021-09-05T06:58:02Z</time>
      </trkpt>
      <trkpt lat="44.01396" lon="2.03886">
        <ele>264.8</ele>
        <time>2021-09-05T06:58:04Z</time>
      </trkpt>
      <trkpt lat="44.01405" lon="2.03894">
        <ele>264.6</ele>
        <time>2021-09-05T06:58:06Z</time>
      </trkpt>
      <trkpt lat="44.01409" lon="2.03899">
        <ele>264.6</ele>
        <time>2021-09-05T06:58:07Z</time>
      </trkpt>
      <trkpt lat="44.01413" lon="2.03903">
        <ele>264.6</ele>
        <time>2021-09-05T06:58:08Z</time>
      </trkpt>
      <trkpt lat="44.01416" lon="2.03907">
        <ele>264.6</ele>
        <time>2021-09-05T06:58:09Z</time>
      </trkpt>
      <trkpt lat="44.01419" lon="2.03909">
        <ele>264.4</ele>
        <time>2021-09-05T06:58:10Z</time>
      </trkpt>
      <trkpt lat="44.01422" lon="2.03912">
        <ele>264.6</ele>
        <time>2021-09-05T06:58:11Z</time>
      </trkpt>
      <trkpt lat="44.01425" lon="2.03916">
        <ele>264.6</ele>
        <time>2021-09-05T06:58:12Z</time>
      </trkpt>
      <trkpt lat="44.01428" lon="2.03921">
        <ele>264.8</ele>
        <time>2021-09-05T06:58:13Z</time>
      </trkpt>
      <trkpt lat="44.0143" lon="2.03924">
        <ele>265</ele>
        <time>2021-09-05T06:58:14Z</time>
      </trkpt>
      <trkpt lat="44.0143" lon="2.03926">
        <ele>265</ele>
        <time>2021-09-05T06:58:15Z</time>
      </trkpt>
      <trkpt lat="44.0143" lon="2.03928">
        <ele>265.2</ele>
        <time>2021-09-05T06:58:16Z</time>
      </trkpt>
      <trkpt lat="44.01431" lon="2.03931">
        <ele>265.4</ele>
        <time>2021-09-05T06:58:17Z</time>
      </trkpt>
      <trkpt lat="44.01432" lon="2.03933">
        <ele>265.8</ele>
        <time>2021-09-05T06:58:18Z</time>
      </trkpt>
      <trkpt lat="44.01434" lon="2.03935">
        <ele>266</ele>
        <time>2021-09-05T06:58:19Z</time>
      </trkpt>
      <trkpt lat="44.01435" lon="2.03939">
        <ele>266.4</ele>
        <time>2021-09-05T06:58:20Z</time>
      </trkpt>
      <trkpt lat="44.01436" lon="2.03941">
        <ele>267</ele>
        <time>2021-09-05T06:58:21Z</time>
      </trkpt>
      <trkpt lat="44.01437" lon="2.03946">
        <ele>267.6</ele>
        <time>2021-09-05T06:58:23Z</time>
      </trkpt>
      <trkpt lat="44.01436" lon="2.03947">
        <ele>268</ele>
        <time>2021-09-05T06:58:24Z</time>
      </trkpt>
      <trkpt lat="44.01435" lon="2.0395">
        <ele>268.4</ele>
        <time>2021-09-05T06:58:25Z</time>
      </trkpt>
      <trkpt lat="44.01434" lon="2.03951">
        <ele>268.6</ele>
        <time>2021-09-05T06:58:26Z</time>
      </trkpt>
      <trkpt lat="44.01433" lon="2.03953">
        <ele>269</ele>
        <time>2021-09-05T06:58:27Z</time>
      </trkpt>
      <trkpt lat="44.01433" lon="2.03954">
        <ele>269.2</ele>
        <time>2021-09-05T06:58:28Z</time>
      </trkpt>
      <trkpt lat="44.01432" lon="2.03955">
        <ele>269.4</ele>
        <time>2021-09-05T06:58:29Z</time>
      </trkpt>
      <trkpt lat="44.01431" lon="2.03956">
        <ele>269.6</ele>
        <time>2021-09-05T06:58:30Z</time>
      </trkpt>
      <trkpt lat="44.0143" lon="2.03958">
        <ele>269.8</ele>
        <time>2021-09-05T06:58:31Z</time>
      </trkpt>
      <trkpt lat="44.0143" lon="2.0396">
        <ele>270.2</ele>
        <time>2021-09-05T06:58:32Z</time>
      </trkpt>
      <trkpt lat="44.01429" lon="2.03963">
        <ele>270.4</ele>
        <time>2021-09-05T06:58:33Z</time>
      </trkpt>
      <trkpt lat="44.0143" lon="2.03965">
        <ele>271</ele>
        <time>2021-09-05T06:58:34Z</time>
      </trkpt>
      <trkpt lat="44.0143" lon="2.03967">
        <ele>271.4</ele>
        <time>2021-09-05T06:58:35Z</time>
      </trkpt>
      <trkpt lat="44.0143" lon="2.0397">
        <ele>271.6</ele>
        <time>2021-09-05T06:58:36Z</time>
      </trkpt>
      <trkpt lat="44.01431" lon="2.03973">
        <ele>271.8</ele>
        <time>2021-09-05T06:58:37Z</time>
      </trkpt>
      <trkpt lat="44.01431" lon="2.03976">
        <ele>272</ele>
        <time>2021-09-05T06:58:38Z</time>
      </trkpt>
      <trkpt lat="44.01431" lon="2.0398">
        <ele>272</ele>
        <time>2021-09-05T06:58:39Z</time>
      </trkpt>
      <trkpt lat="44.01431" lon="2.03983">
        <ele>272</ele>
        <time>2021-09-05T06:58:40Z</time>
      </trkpt>
      <trkpt lat="44.01431" lon="2.03987">
        <ele>272</ele>
        <time>2021-09-05T06:58:41Z</time>
      </trkpt>
      <trkpt lat="44.0143" lon="2.03991">
        <ele>272.2</ele>
        <time>2021-09-05T06:58:42Z</time>
      </trkpt>
      <trkpt lat="44.01429" lon="2.03995">
        <ele>272.2</ele>
        <time>2021-09-05T06:58:43Z</time>
      </trkpt>
      <trkpt lat="44.01429" lon="2.03999">
        <ele>272</ele>
        <time>2021-09-05T06:58:44Z</time>
      </trkpt>
      <trkpt lat="44.01428" lon="2.04002">
        <ele>272</ele>
        <time>2021-09-05T06:58:45Z</time>
      </trkpt>
      <trkpt lat="44.01427" lon="2.04005">
        <ele>272</ele>
        <time>2021-09-05T06:58:46Z</time>
      </trkpt>
      <trkpt lat="44.01426" lon="2.04007">
        <ele>272</ele>
        <time>2021-09-05T06:58:47Z</time>
      </trkpt>
      <trkpt lat="44.01426" lon="2.0401">
        <ele>272</ele>
        <time>2021-09-05T06:58:48Z</time>
      </trkpt>
      <trkpt lat="44.01425" lon="2.04013">
        <ele>271.8</ele>
        <time>2021-09-05T06:58:49Z</time>
      </trkpt>
      <trkpt lat="44.01425" lon="2.04017">
        <ele>271.8</ele>
        <time>2021-09-05T06:58:50Z</time>
      </trkpt>
      <trkpt lat="44.01424" lon="2.04021">
        <ele>271.8</ele>
        <time>2021-09-05T06:58:51Z</time>
      </trkpt>
      <trkpt lat="44.01422" lon="2.04024">
        <ele>271.8</ele>
        <time>2021-09-05T06:58:52Z</time>
      </trkpt>
      <trkpt lat="44.01421" lon="2.04028">
        <ele>272</ele>
        <time>2021-09-05T06:58:53Z</time>
      </trkpt>
      <trkpt lat="44.01421" lon="2.04031">
        <ele>272</ele>
        <time>2021-09-05T06:58:54Z</time>
      </trkpt>
      <trkpt lat="44.01422" lon="2.04033">
        <ele>272</ele>
        <time>2021-09-05T06:58:55Z</time>
      </trkpt>
      <trkpt lat="44.01424" lon="2.04036">
        <ele>272</ele>
        <time>2021-09-05T06:58:56Z</time>
      </trkpt>
      <trkpt lat="44.01425" lon="2.04038">
        <ele>272</ele>
        <time>2021-09-05T06:58:57Z</time>
      </trkpt>
      <trkpt lat="44.01425" lon="2.04039">
        <ele>272</ele>
        <time>2021-09-05T06:58:58Z</time>
      </trkpt>
      <trkpt lat="44.01426" lon="2.0404">
        <ele>272</ele>
        <time>2021-09-05T06:58:59Z</time>
      </trkpt>
      <trkpt lat="44.01427" lon="2.04041">
        <ele>272</ele>
        <time>2021-09-05T06:59:00Z</time>
      </trkpt>
      <trkpt lat="44.0143" lon="2.04042">
        <ele>272</ele>
        <time>2021-09-05T06:59:02Z</time>
      </trkpt>
      <trkpt lat="44.01437" lon="2.04042">
        <ele>271.4</ele>
        <time>2021-09-05T06:59:05Z</time>
      </trkpt>
      <trkpt lat="44.01439" lon="2.04042">
        <ele>271.2</ele>
        <time>2021-09-05T06:59:06Z</time>
      </trkpt>
      <trkpt lat="44.01441" lon="2.04042">
        <ele>270.6</ele>
        <time>2021-09-05T06:59:07Z</time>
      </trkpt>
      <trkpt lat="44.01443" lon="2.04042">
        <ele>270.4</ele>
        <time>2021-09-05T06:59:08Z</time>
      </trkpt>
      <trkpt lat="44.01446" lon="2.04041">
        <ele>269.8</ele>
        <time>2021-09-05T06:59:09Z</time>
      </trkpt>
      <trkpt lat="44.01448" lon="2.04039">
        <ele>269.4</ele>
        <time>2021-09-05T06:59:10Z</time>
      </trkpt>
      <trkpt lat="44.0145" lon="2.04037">
        <ele>268.4</ele>
        <time>2021-09-05T06:59:11Z</time>
      </trkpt>
      <trkpt lat="44.01452" lon="2.04036">
        <ele>267.8</ele>
        <time>2021-09-05T06:59:12Z</time>
      </trkpt>
      <trkpt lat="44.01454" lon="2.04034">
        <ele>267.2</ele>
        <time>2021-09-05T06:59:13Z</time>
      </trkpt>
      <trkpt lat="44.01457" lon="2.04032">
        <ele>266.6</ele>
        <time>2021-09-05T06:59:14Z</time>
      </trkpt>
      <trkpt lat="44.01459" lon="2.0403">
        <ele>266.4</ele>
        <time>2021-09-05T06:59:15Z</time>
      </trkpt>
      <trkpt lat="44.01461" lon="2.04025">
        <ele>265.4</ele>
        <time>2021-09-05T06:59:16Z</time>
      </trkpt>
      <trkpt lat="44.01465" lon="2.04016">
        <ele>264</ele>
        <time>2021-09-05T06:59:18Z</time>
      </trkpt>
      <trkpt lat="44.01467" lon="2.0401">
        <ele>263.8</ele>
        <time>2021-09-05T06:59:19Z</time>
      </trkpt>
      <trkpt lat="44.01469" lon="2.04005">
        <ele>263.2</ele>
        <time>2021-09-05T06:59:20Z</time>
      </trkpt>
      <trkpt lat="44.01473" lon="2.03994">
        <ele>262.2</ele>
        <time>2021-09-05T06:59:22Z</time>
      </trkpt>
      <trkpt lat="44.01476" lon="2.03989">
        <ele>262</ele>
        <time>2021-09-05T06:59:23Z</time>
      </trkpt>
      <trkpt lat="44.01478" lon="2.03984">
        <ele>261.6</ele>
        <time>2021-09-05T06:59:24Z</time>
      </trkpt>
      <trkpt lat="44.0148" lon="2.03978">
        <ele>260.8</ele>
        <time>2021-09-05T06:59:25Z</time>
      </trkpt>
      <trkpt lat="44.01482" lon="2.03973">
        <ele>260.6</ele>
        <time>2021-09-05T06:59:26Z</time>
      </trkpt>
      <trkpt lat="44.01485" lon="2.03963">
        <ele>259.6</ele>
        <time>2021-09-05T06:59:28Z</time>
      </trkpt>
      <trkpt lat="44.01487" lon="2.03958">
        <ele>259.2</ele>
        <time>2021-09-05T06:59:29Z</time>
      </trkpt>
      <trkpt lat="44.0149" lon="2.03949">
        <ele>258.4</ele>
        <time>2021-09-05T06:59:31Z</time>
      </trkpt>
      <trkpt lat="44.01493" lon="2.03936">
        <ele>257.8</ele>
        <time>2021-09-05T06:59:33Z</time>
      </trkpt>
      <trkpt lat="44.01492" lon="2.03928">
        <ele>257</ele>
        <time>2021-09-05T06:59:34Z</time>
      </trkpt>
      <trkpt lat="44.01492" lon="2.03919">
        <ele>255.8</ele>
        <time>2021-09-05T06:59:35Z</time>
      </trkpt>
      <trkpt lat="44.01492" lon="2.0391">
        <ele>255.2</ele>
        <time>2021-09-05T06:59:36Z</time>
      </trkpt>
      <trkpt lat="44.0149" lon="2.039">
        <ele>253.8</ele>
        <time>2021-09-05T06:59:37Z</time>
      </trkpt>
      <trkpt lat="44.01488" lon="2.03891">
        <ele>253.4</ele>
        <time>2021-09-05T06:59:38Z</time>
      </trkpt>
      <trkpt lat="44.01487" lon="2.03881">
        <ele>252.8</ele>
        <time>2021-09-05T06:59:39Z</time>
      </trkpt>
      <trkpt lat="44.01488" lon="2.0386">
        <ele>251.8</ele>
        <time>2021-09-05T06:59:41Z</time>
      </trkpt>
      <trkpt lat="44.0149" lon="2.03851">
        <ele>251</ele>
        <time>2021-09-05T06:59:42Z</time>
      </trkpt>
      <trkpt lat="44.01493" lon="2.03843">
        <ele>250.6</ele>
        <time>2021-09-05T06:59:43Z</time>
      </trkpt>
      <trkpt lat="44.01495" lon="2.03836">
        <ele>249.4</ele>
        <time>2021-09-05T06:59:44Z</time>
      </trkpt>
      <trkpt lat="44.01497" lon="2.0383">
        <ele>248.8</ele>
        <time>2021-09-05T06:59:45Z</time>
      </trkpt>
      <trkpt lat="44.015" lon="2.03824">
        <ele>247.8</ele>
        <time>2021-09-05T06:59:46Z</time>
      </trkpt>
      <trkpt lat="44.01502" lon="2.03819">
        <ele>247.4</ele>
        <time>2021-09-05T06:59:47Z</time>
      </trkpt>
      <trkpt lat="44.01504" lon="2.03813">
        <ele>247</ele>
        <time>2021-09-05T06:59:48Z</time>
      </trkpt>
      <trkpt lat="44.01509" lon="2.03802">
        <ele>246.6</ele>
        <time>2021-09-05T06:59:50Z</time>
      </trkpt>
      <trkpt lat="44.01514" lon="2.03791">
        <ele>246.6</ele>
        <time>2021-09-05T06:59:52Z</time>
      </trkpt>
      <trkpt lat="44.01518" lon="2.03779">
        <ele>246.6</ele>
        <time>2021-09-05T06:59:54Z</time>
      </trkpt>
      <trkpt lat="44.01521" lon="2.03773">
        <ele>246.6</ele>
        <time>2021-09-05T06:59:55Z</time>
      </trkpt>
      <trkpt lat="44.01522" lon="2.03768">
        <ele>246.6</ele>
        <time>2021-09-05T06:59:56Z</time>
      </trkpt>
      <trkpt lat="44.01524" lon="2.03762">
        <ele>246.6</ele>
        <time>2021-09-05T06:59:57Z</time>
      </trkpt>
      <trkpt lat="44.01526" lon="2.03757">
        <ele>246.8</ele>
        <time>2021-09-05T06:59:58Z</time>
      </trkpt>
      <trkpt lat="44.01527" lon="2.03752">
        <ele>246.8</ele>
        <time>2021-09-05T06:59:59Z</time>
      </trkpt>
      <trkpt lat="44.01527" lon="2.03747">
        <ele>247</ele>
        <time>2021-09-05T07:00:00Z</time>
      </trkpt>
      <trkpt lat="44.01527" lon="2.03731">
        <ele>247.4</ele>
        <time>2021-09-05T07:00:03Z</time>
      </trkpt>
      <trkpt lat="44.01526" lon="2.03726">
        <ele>247.6</ele>
        <time>2021-09-05T07:00:04Z</time>
      </trkpt>
      <trkpt lat="44.01526" lon="2.03721">
        <ele>248.2</ele>
        <time>2021-09-05T07:00:05Z</time>
      </trkpt>
      <trkpt lat="44.01525" lon="2.03718">
        <ele>248.4</ele>
        <time>2021-09-05T07:00:06Z</time>
      </trkpt>
      <trkpt lat="44.01524" lon="2.03715">
        <ele>249</ele>
        <time>2021-09-05T07:00:07Z</time>
      </trkpt>
      <trkpt lat="44.01524" lon="2.03713">
        <ele>249.2</ele>
        <time>2021-09-05T07:00:08Z</time>
      </trkpt>
      <trkpt lat="44.01523" lon="2.03712">
        <ele>250</ele>
        <time>2021-09-05T07:00:09Z</time>
      </trkpt>
      <trkpt lat="44.01523" lon="2.03711">
        <ele>250.4</ele>
        <time>2021-09-05T07:00:10Z</time>
      </trkpt>
      <trkpt lat="44.01523" lon="2.03709">
        <ele>250.8</ele>
        <time>2021-09-05T07:00:11Z</time>
      </trkpt>
      <trkpt lat="44.01522" lon="2.03708">
        <ele>251</ele>
        <time>2021-09-05T07:00:12Z</time>
      </trkpt>
      <trkpt lat="44.01519" lon="2.03705">
        <ele>251</ele>
        <time>2021-09-05T07:00:14Z</time>
      </trkpt>
      <trkpt lat="44.01518" lon="2.03704">
        <ele>251.2</ele>
        <time>2021-09-05T07:00:15Z</time>
      </trkpt>
      <trkpt lat="44.01517" lon="2.03703">
        <ele>251.2</ele>
        <time>2021-09-05T07:00:16Z</time>
      </trkpt>
      <trkpt lat="44.01517" lon="2.03703">
        <ele>251.2</ele>
        <time>2021-09-05T07:01:23Z</time>
      </trkpt>
      <trkpt lat="44.01512" lon="2.03698">
        <ele>251.2</ele>
        <time>2021-09-05T07:01:26Z</time>
      </trkpt>
      <trkpt lat="44.01497" lon="2.03677">
        <ele>250.6</ele>
        <time>2021-09-05T07:01:34Z</time>
      </trkpt>
      <trkpt lat="44.01493" lon="2.03671">
        <ele>250.4</ele>
        <time>2021-09-05T07:01:36Z</time>
      </trkpt>
      <trkpt lat="44.01478" lon="2.03651">
        <ele>250.2</ele>
        <time>2021-09-05T07:01:43Z</time>
      </trkpt>
      <trkpt lat="44.0147" lon="2.03641">
        <ele>250.2</ele>
        <time>2021-09-05T07:01:46Z</time>
      </trkpt>
      <trkpt lat="44.01466" lon="2.03638">
        <ele>250.4</ele>
        <time>2021-09-05T07:01:47Z</time>
      </trkpt>
      <trkpt lat="44.01462" lon="2.03634">
        <ele>250.4</ele>
        <time>2021-09-05T07:01:48Z</time>
      </trkpt>
      <trkpt lat="44.01453" lon="2.03628">
        <ele>250.4</ele>
        <time>2021-09-05T07:01:50Z</time>
      </trkpt>
      <trkpt lat="44.01434" lon="2.03616">
        <ele>250.2</ele>
        <time>2021-09-05T07:01:54Z</time>
      </trkpt>
      <trkpt lat="44.01424" lon="2.0361">
        <ele>250</ele>
        <time>2021-09-05T07:01:56Z</time>
      </trkpt>
      <trkpt lat="44.01419" lon="2.03607">
        <ele>250</ele>
        <time>2021-09-05T07:01:57Z</time>
      </trkpt>
      <trkpt lat="44.01415" lon="2.03605">
        <ele>249.6</ele>
        <time>2021-09-05T07:01:58Z</time>
      </trkpt>
      <trkpt lat="44.01411" lon="2.03602">
        <ele>249.6</ele>
        <time>2021-09-05T07:01:59Z</time>
      </trkpt>
      <trkpt lat="44.01408" lon="2.03598">
        <ele>249.6</ele>
        <time>2021-09-05T07:02:00Z</time>
      </trkpt>
      <trkpt lat="44.01405" lon="2.03593">
        <ele>249.4</ele>
        <time>2021-09-05T07:02:01Z</time>
      </trkpt>
      <trkpt lat="44.01404" lon="2.03588">
        <ele>249.2</ele>
        <time>2021-09-05T07:02:02Z</time>
      </trkpt>
      <trkpt lat="44.01403" lon="2.03583">
        <ele>249.2</ele>
        <time>2021-09-05T07:02:03Z</time>
      </trkpt>
      <trkpt lat="44.01404" lon="2.03579">
        <ele>249.2</ele>
        <time>2021-09-05T07:02:04Z</time>
      </trkpt>
      <trkpt lat="44.01405" lon="2.03575">
        <ele>249.2</ele>
        <time>2021-09-05T07:02:05Z</time>
      </trkpt>
      <trkpt lat="44.01406" lon="2.03571">
        <ele>249.2</ele>
        <time>2021-09-05T07:02:06Z</time>
      </trkpt>
      <trkpt lat="44.01407" lon="2.03567">
        <ele>249.4</ele>
        <time>2021-09-05T07:02:07Z</time>
      </trkpt>
      <trkpt lat="44.01408" lon="2.03563">
        <ele>249.4</ele>
        <time>2021-09-05T07:02:08Z</time>
      </trkpt>
      <trkpt lat="44.01409" lon="2.0356">
        <ele>249.6</ele>
        <time>2021-09-05T07:02:09Z</time>
      </trkpt>
      <trkpt lat="44.01411" lon="2.03556">
        <ele>249.8</ele>
        <time>2021-09-05T07:02:10Z</time>
      </trkpt>
      <trkpt lat="44.01412" lon="2.03553">
        <ele>250.2</ele>
        <time>2021-09-05T07:02:11Z</time>
      </trkpt>
      <trkpt lat="44.01413" lon="2.0355">
        <ele>250.6</ele>
        <time>2021-09-05T07:02:12Z</time>
      </trkpt>
      <trkpt lat="44.01414" lon="2.03547">
        <ele>251</ele>
        <time>2021-09-05T07:02:13Z</time>
      </trkpt>
      <trkpt lat="44.01415" lon="2.03544">
        <ele>251.2</ele>
        <time>2021-09-05T07:02:14Z</time>
      </trkpt>
      <trkpt lat="44.01416" lon="2.03541">
        <ele>251.4</ele>
        <time>2021-09-05T07:02:15Z</time>
      </trkpt>
      <trkpt lat="44.01417" lon="2.03538">
        <ele>252</ele>
        <time>2021-09-05T07:02:16Z</time>
      </trkpt>
      <trkpt lat="44.01421" lon="2.0353">
        <ele>253</ele>
        <time>2021-09-05T07:02:19Z</time>
      </trkpt>
      <trkpt lat="44.01423" lon="2.0352">
        <ele>253.8</ele>
        <time>2021-09-05T07:02:22Z</time>
      </trkpt>
      <trkpt lat="44.01424" lon="2.03517">
        <ele>254.2</ele>
        <time>2021-09-05T07:02:23Z</time>
      </trkpt>
      <trkpt lat="44.01424" lon="2.03514">
        <ele>254.2</ele>
        <time>2021-09-05T07:02:24Z</time>
      </trkpt>
      <trkpt lat="44.01424" lon="2.0351">
        <ele>254.8</ele>
        <time>2021-09-05T07:02:25Z</time>
      </trkpt>
      <trkpt lat="44.01424" lon="2.03507">
        <ele>255</ele>
        <time>2021-09-05T07:02:26Z</time>
      </trkpt>
      <trkpt lat="44.01424" lon="2.03504">
        <ele>255</ele>
        <time>2021-09-05T07:02:27Z</time>
      </trkpt>
      <trkpt lat="44.01424" lon="2.03501">
        <ele>255.2</ele>
        <time>2021-09-05T07:02:28Z</time>
      </trkpt>
      <trkpt lat="44.01424" lon="2.03499">
        <ele>255.4</ele>
        <time>2021-09-05T07:02:29Z</time>
      </trkpt>
      <trkpt lat="44.01424" lon="2.03497">
        <ele>255.8</ele>
        <time>2021-09-05T07:02:30Z</time>
      </trkpt>
      <trkpt lat="44.01424" lon="2.03494">
        <ele>255.8</ele>
        <time>2021-09-05T07:02:31Z</time>
      </trkpt>
      <trkpt lat="44.01424" lon="2.03491">
        <ele>256.4</ele>
        <time>2021-09-05T07:02:32Z</time>
      </trkpt>
      <trkpt lat="44.01423" lon="2.03488">
        <ele>256.6</ele>
        <time>2021-09-05T07:02:33Z</time>
      </trkpt>
      <trkpt lat="44.01423" lon="2.03486">
        <ele>256.8</ele>
        <time>2021-09-05T07:02:34Z</time>
      </trkpt>
      <trkpt lat="44.01423" lon="2.03483">
        <ele>257.4</ele>
        <time>2021-09-05T07:02:35Z</time>
      </trkpt>
      <trkpt lat="44.01422" lon="2.03481">
        <ele>257.2</ele>
        <time>2021-09-05T07:02:36Z</time>
      </trkpt>
      <trkpt lat="44.01422" lon="2.03478">
        <ele>257.6</ele>
        <time>2021-09-05T07:02:37Z</time>
      </trkpt>
      <trkpt lat="44.01422" lon="2.03476">
        <ele>257.8</ele>
        <time>2021-09-05T07:02:38Z</time>
      </trkpt>
      <trkpt lat="44.01421" lon="2.03473">
        <ele>258</ele>
        <time>2021-09-05T07:02:39Z</time>
      </trkpt>
      <trkpt lat="44.01421" lon="2.03471">
        <ele>258.2</ele>
        <time>2021-09-05T07:02:40Z</time>
      </trkpt>
      <trkpt lat="44.01421" lon="2.03469">
        <ele>258.4</ele>
        <time>2021-09-05T07:02:41Z</time>
      </trkpt>
      <trkpt lat="44.0142" lon="2.03466">
        <ele>258.6</ele>
        <time>2021-09-05T07:02:42Z</time>
      </trkpt>
      <trkpt lat="44.0142" lon="2.03463">
        <ele>258.8</ele>
        <time>2021-09-05T07:02:43Z</time>
      </trkpt>
      <trkpt lat="44.0142" lon="2.03461">
        <ele>259.2</ele>
        <time>2021-09-05T07:02:44Z</time>
      </trkpt>
      <trkpt lat="44.0142" lon="2.03458">
        <ele>259.4</ele>
        <time>2021-09-05T07:02:45Z</time>
      </trkpt>
      <trkpt lat="44.0142" lon="2.03456">
        <ele>259.8</ele>
        <time>2021-09-05T07:02:46Z</time>
      </trkpt>
      <trkpt lat="44.01419" lon="2.03453">
        <ele>260</ele>
        <time>2021-09-05T07:02:47Z</time>
      </trkpt>
      <trkpt lat="44.01419" lon="2.03451">
        <ele>260.4</ele>
        <time>2021-09-05T07:02:48Z</time>
      </trkpt>
      <trkpt lat="44.01418" lon="2.03449">
        <ele>260.6</ele>
        <time>2021-09-05T07:02:49Z</time>
      </trkpt>
      <trkpt lat="44.01418" lon="2.03447">
        <ele>260.8</ele>
        <time>2021-09-05T07:02:50Z</time>
      </trkpt>
      <trkpt lat="44.01418" lon="2.03445">
        <ele>261</ele>
        <time>2021-09-05T07:02:51Z</time>
      </trkpt>
      <trkpt lat="44.01418" lon="2.03443">
        <ele>261.2</ele>
        <time>2021-09-05T07:02:52Z</time>
      </trkpt>
      <trkpt lat="44.01417" lon="2.0344">
        <ele>261.4</ele>
        <time>2021-09-05T07:02:53Z</time>
      </trkpt>
      <trkpt lat="44.01417" lon="2.03438">
        <ele>261.4</ele>
        <time>2021-09-05T07:02:54Z</time>
      </trkpt>
      <trkpt lat="44.01417" lon="2.03436">
        <ele>261.8</ele>
        <time>2021-09-05T07:02:55Z</time>
      </trkpt>
      <trkpt lat="44.01416" lon="2.03434">
        <ele>262.4</ele>
        <time>2021-09-05T07:02:56Z</time>
      </trkpt>
      <trkpt lat="44.01416" lon="2.03432">
        <ele>262.6</ele>
        <time>2021-09-05T07:02:57Z</time>
      </trkpt>
      <trkpt lat="44.01416" lon="2.0343">
        <ele>263</ele>
        <time>2021-09-05T07:02:58Z</time>
      </trkpt>
      <trkpt lat="44.01416" lon="2.03428">
        <ele>263.2</ele>
        <time>2021-09-05T07:02:59Z</time>
      </trkpt>
      <trkpt lat="44.01415" lon="2.03426">
        <ele>263.4</ele>
        <time>2021-09-05T07:03:00Z</time>
      </trkpt>
      <trkpt lat="44.01415" lon="2.03423">
        <ele>263.6</ele>
        <time>2021-09-05T07:03:01Z</time>
      </trkpt>
      <trkpt lat="44.01414" lon="2.03421">
        <ele>264</ele>
        <time>2021-09-05T07:03:02Z</time>
      </trkpt>
      <trkpt lat="44.01414" lon="2.03419">
        <ele>264</ele>
        <time>2021-09-05T07:03:03Z</time>
      </trkpt>
      <trkpt lat="44.01413" lon="2.03417">
        <ele>264.4</ele>
        <time>2021-09-05T07:03:04Z</time>
      </trkpt>
      <trkpt lat="44.01413" lon="2.03415">
        <ele>264.6</ele>
        <time>2021-09-05T07:03:05Z</time>
      </trkpt>
      <trkpt lat="44.01412" lon="2.03412">
        <ele>265</ele>
        <time>2021-09-05T07:03:06Z</time>
      </trkpt>
      <trkpt lat="44.01411" lon="2.0341">
        <ele>265.2</ele>
        <time>2021-09-05T07:03:07Z</time>
      </trkpt>
      <trkpt lat="44.01411" lon="2.03408">
        <ele>265.4</ele>
        <time>2021-09-05T07:03:08Z</time>
      </trkpt>
      <trkpt lat="44.0141" lon="2.03406">
        <ele>265.6</ele>
        <time>2021-09-05T07:03:09Z</time>
      </trkpt>
      <trkpt lat="44.0141" lon="2.03404">
        <ele>265.8</ele>
        <time>2021-09-05T07:03:10Z</time>
      </trkpt>
      <trkpt lat="44.01409" lon="2.03402">
        <ele>266</ele>
        <time>2021-09-05T07:03:11Z</time>
      </trkpt>
      <trkpt lat="44.01409" lon="2.034">
        <ele>266.4</ele>
        <time>2021-09-05T07:03:12Z</time>
      </trkpt>
      <trkpt lat="44.01408" lon="2.03399">
        <ele>266.6</ele>
        <time>2021-09-05T07:03:13Z</time>
      </trkpt>
      <trkpt lat="44.01407" lon="2.03397">
        <ele>266.6</ele>
        <time>2021-09-05T07:03:14Z</time>
      </trkpt>
      <trkpt lat="44.01406" lon="2.03395">
        <ele>266.8</ele>
        <time>2021-09-05T07:03:15Z</time>
      </trkpt>
      <trkpt lat="44.01405" lon="2.03394">
        <ele>267</ele>
        <time>2021-09-05T07:03:16Z</time>
      </trkpt>
      <trkpt lat="44.01405" lon="2.03392">
        <ele>267.2</ele>
        <time>2021-09-05T07:03:17Z</time>
      </trkpt>
      <trkpt lat="44.01404" lon="2.0339">
        <ele>267.6</ele>
        <time>2021-09-05T07:03:18Z</time>
      </trkpt>
      <trkpt lat="44.01404" lon="2.03387">
        <ele>267.8</ele>
        <time>2021-09-05T07:03:19Z</time>
      </trkpt>
      <trkpt lat="44.01403" lon="2.03385">
        <ele>267.8</ele>
        <time>2021-09-05T07:03:20Z</time>
      </trkpt>
      <trkpt lat="44.01403" lon="2.03383">
        <ele>268.2</ele>
        <time>2021-09-05T07:03:21Z</time>
      </trkpt>
      <trkpt lat="44.01402" lon="2.03381">
        <ele>268.2</ele>
        <time>2021-09-05T07:03:22Z</time>
      </trkpt>
      <trkpt lat="44.01402" lon="2.03379">
        <ele>268.6</ele>
        <time>2021-09-05T07:03:23Z</time>
      </trkpt>
      <trkpt lat="44.01401" lon="2.03377">
        <ele>268.6</ele>
        <time>2021-09-05T07:03:24Z</time>
      </trkpt>
      <trkpt lat="44.01401" lon="2.03375">
        <ele>268.8</ele>
        <time>2021-09-05T07:03:25Z</time>
      </trkpt>
      <trkpt lat="44.014" lon="2.03373">
        <ele>268.8</ele>
        <time>2021-09-05T07:03:26Z</time>
      </trkpt>
      <trkpt lat="44.014" lon="2.03371">
        <ele>269</ele>
        <time>2021-09-05T07:03:27Z</time>
      </trkpt>
      <trkpt lat="44.01399" lon="2.03369">
        <ele>269.2</ele>
        <time>2021-09-05T07:03:28Z</time>
      </trkpt>
      <trkpt lat="44.01399" lon="2.03367">
        <ele>269.2</ele>
        <time>2021-09-05T07:03:29Z</time>
      </trkpt>
      <trkpt lat="44.01399" lon="2.03364">
        <ele>269.4</ele>
        <time>2021-09-05T07:03:30Z</time>
      </trkpt>
      <trkpt lat="44.014" lon="2.03362">
        <ele>269.6</ele>
        <time>2021-09-05T07:03:31Z</time>
      </trkpt>
      <trkpt lat="44.014" lon="2.0336">
        <ele>269.8</ele>
        <time>2021-09-05T07:03:32Z</time>
      </trkpt>
      <trkpt lat="44.01401" lon="2.03358">
        <ele>270</ele>
        <time>2021-09-05T07:03:33Z</time>
      </trkpt>
      <trkpt lat="44.01402" lon="2.03355">
        <ele>270</ele>
        <time>2021-09-05T07:03:34Z</time>
      </trkpt>
      <trkpt lat="44.01403" lon="2.03353">
        <ele>270.4</ele>
        <time>2021-09-05T07:03:35Z</time>
      </trkpt>
      <trkpt lat="44.01404" lon="2.0335">
        <ele>270.4</ele>
        <time>2021-09-05T07:03:36Z</time>
      </trkpt>
      <trkpt lat="44.01405" lon="2.03348">
        <ele>271</ele>
        <time>2021-09-05T07:03:37Z</time>
      </trkpt>
      <trkpt lat="44.01406" lon="2.03346">
        <ele>271</ele>
        <time>2021-09-05T07:03:38Z</time>
      </trkpt>
      <trkpt lat="44.01406" lon="2.03343">
        <ele>271.4</ele>
        <time>2021-09-05T07:03:39Z</time>
      </trkpt>
      <trkpt lat="44.01407" lon="2.03341">
        <ele>271.6</ele>
        <time>2021-09-05T07:03:40Z</time>
      </trkpt>
      <trkpt lat="44.01408" lon="2.03338">
        <ele>271.8</ele>
        <time>2021-09-05T07:03:41Z</time>
      </trkpt>
      <trkpt lat="44.01409" lon="2.03336">
        <ele>272</ele>
        <time>2021-09-05T07:03:42Z</time>
      </trkpt>
      <trkpt lat="44.0141" lon="2.03333">
        <ele>272</ele>
        <time>2021-09-05T07:03:43Z</time>
      </trkpt>
      <trkpt lat="44.01411" lon="2.0333">
        <ele>272.4</ele>
        <time>2021-09-05T07:03:44Z</time>
      </trkpt>
      <trkpt lat="44.01412" lon="2.03328">
        <ele>272.4</ele>
        <time>2021-09-05T07:03:45Z</time>
      </trkpt>
      <trkpt lat="44.01413" lon="2.03325">
        <ele>272.8</ele>
        <time>2021-09-05T07:03:46Z</time>
      </trkpt>
      <trkpt lat="44.01414" lon="2.03323">
        <ele>272.8</ele>
        <time>2021-09-05T07:03:47Z</time>
      </trkpt>
      <trkpt lat="44.01414" lon="2.03321">
        <ele>273</ele>
        <time>2021-09-05T07:03:48Z</time>
      </trkpt>
      <trkpt lat="44.01415" lon="2.03319">
        <ele>273</ele>
        <time>2021-09-05T07:03:49Z</time>
      </trkpt>
      <trkpt lat="44.01416" lon="2.03317">
        <ele>273.2</ele>
        <time>2021-09-05T07:03:50Z</time>
      </trkpt>
      <trkpt lat="44.01418" lon="2.03314">
        <ele>273.2</ele>
        <time>2021-09-05T07:03:51Z</time>
      </trkpt>
      <trkpt lat="44.01419" lon="2.03312">
        <ele>273.4</ele>
        <time>2021-09-05T07:03:52Z</time>
      </trkpt>
      <trkpt lat="44.01421" lon="2.0331">
        <ele>273.6</ele>
        <time>2021-09-05T07:03:53Z</time>
      </trkpt>
      <trkpt lat="44.01423" lon="2.03309">
        <ele>273.6</ele>
        <time>2021-09-05T07:03:54Z</time>
      </trkpt>
      <trkpt lat="44.01425" lon="2.03307">
        <ele>273.8</ele>
        <time>2021-09-05T07:03:55Z</time>
      </trkpt>
      <trkpt lat="44.01426" lon="2.03305">
        <ele>274</ele>
        <time>2021-09-05T07:03:56Z</time>
      </trkpt>
      <trkpt lat="44.01427" lon="2.03303">
        <ele>274.2</ele>
        <time>2021-09-05T07:03:57Z</time>
      </trkpt>
      <trkpt lat="44.01428" lon="2.03301">
        <ele>274.2</ele>
        <time>2021-09-05T07:03:58Z</time>
      </trkpt>
      <trkpt lat="44.01429" lon="2.03298">
        <ele>274.4</ele>
        <time>2021-09-05T07:03:59Z</time>
      </trkpt>
      <trkpt lat="44.0143" lon="2.03296">
        <ele>274.4</ele>
        <time>2021-09-05T07:04:00Z</time>
      </trkpt>
      <trkpt lat="44.01431" lon="2.03294">
        <ele>274.4</ele>
        <time>2021-09-05T07:04:01Z</time>
      </trkpt>
      <trkpt lat="44.01432" lon="2.03292">
        <ele>274.6</ele>
        <time>2021-09-05T07:04:02Z</time>
      </trkpt>
      <trkpt lat="44.01432" lon="2.03291">
        <ele>274.8</ele>
        <time>2021-09-05T07:04:03Z</time>
      </trkpt>
      <trkpt lat="44.01434" lon="2.03288">
        <ele>275</ele>
        <time>2021-09-05T07:04:04Z</time>
      </trkpt>
      <trkpt lat="44.01435" lon="2.03286">
        <ele>275.2</ele>
        <time>2021-09-05T07:04:05Z</time>
      </trkpt>
      <trkpt lat="44.01436" lon="2.03283">
        <ele>275.2</ele>
        <time>2021-09-05T07:04:06Z</time>
      </trkpt>
      <trkpt lat="44.01437" lon="2.0328">
        <ele>275.4</ele>
        <time>2021-09-05T07:04:07Z</time>
      </trkpt>
      <trkpt lat="44.01439" lon="2.03278">
        <ele>275.4</ele>
        <time>2021-09-05T07:04:08Z</time>
      </trkpt>
      <trkpt lat="44.0144" lon="2.03276">
        <ele>275.6</ele>
        <time>2021-09-05T07:04:09Z</time>
      </trkpt>
      <trkpt lat="44.01441" lon="2.03273">
        <ele>275.6</ele>
        <time>2021-09-05T07:04:10Z</time>
      </trkpt>
      <trkpt lat="44.01442" lon="2.0327">
        <ele>275.8</ele>
        <time>2021-09-05T07:04:11Z</time>
      </trkpt>
      <trkpt lat="44.01443" lon="2.03267">
        <ele>276</ele>
        <time>2021-09-05T07:04:12Z</time>
      </trkpt>
      <trkpt lat="44.01444" lon="2.03265">
        <ele>276</ele>
        <time>2021-09-05T07:04:13Z</time>
      </trkpt>
      <trkpt lat="44.01445" lon="2.03262">
        <ele>276</ele>
        <time>2021-09-05T07:04:14Z</time>
      </trkpt>
      <trkpt lat="44.01447" lon="2.03258">
        <ele>276</ele>
        <time>2021-09-05T07:04:15Z</time>
      </trkpt>
      <trkpt lat="44.01449" lon="2.03254">
        <ele>276.2</ele>
        <time>2021-09-05T07:04:16Z</time>
      </trkpt>
      <trkpt lat="44.01451" lon="2.03251">
        <ele>276.2</ele>
        <time>2021-09-05T07:04:17Z</time>
      </trkpt>
      <trkpt lat="44.01452" lon="2.03248">
        <ele>276.2</ele>
        <time>2021-09-05T07:04:18Z</time>
      </trkpt>
      <trkpt lat="44.01454" lon="2.03244">
        <ele>276.2</ele>
        <time>2021-09-05T07:04:19Z</time>
      </trkpt>
      <trkpt lat="44.01456" lon="2.0324">
        <ele>276.2</ele>
        <time>2021-09-05T07:04:20Z</time>
      </trkpt>
      <trkpt lat="44.01458" lon="2.03236">
        <ele>276.4</ele>
        <time>2021-09-05T07:04:21Z</time>
      </trkpt>
      <trkpt lat="44.01459" lon="2.03232">
        <ele>276.4</ele>
        <time>2021-09-05T07:04:22Z</time>
      </trkpt>
      <trkpt lat="44.0146" lon="2.03229">
        <ele>276.6</ele>
        <time>2021-09-05T07:04:23Z</time>
      </trkpt>
      <trkpt lat="44.01462" lon="2.03224">
        <ele>276.6</ele>
        <time>2021-09-05T07:04:24Z</time>
      </trkpt>
      <trkpt lat="44.01464" lon="2.03221">
        <ele>276.8</ele>
        <time>2021-09-05T07:04:25Z</time>
      </trkpt>
      <trkpt lat="44.01465" lon="2.03217">
        <ele>276.8</ele>
        <time>2021-09-05T07:04:26Z</time>
      </trkpt>
      <trkpt lat="44.01467" lon="2.03213">
        <ele>277</ele>
        <time>2021-09-05T07:04:27Z</time>
      </trkpt>
      <trkpt lat="44.0147" lon="2.03206">
        <ele>277.2</ele>
        <time>2021-09-05T07:04:29Z</time>
      </trkpt>
      <trkpt lat="44.01475" lon="2.03194">
        <ele>277.4</ele>
        <time>2021-09-05T07:04:32Z</time>
      </trkpt>
      <trkpt lat="44.01478" lon="2.03187">
        <ele>277.6</ele>
        <time>2021-09-05T07:04:34Z</time>
      </trkpt>
      <trkpt lat="44.01493" lon="2.03154">
        <ele>278.6</ele>
        <time>2021-09-05T07:04:42Z</time>
      </trkpt>
      <trkpt lat="44.01494" lon="2.0315">
        <ele>278.6</ele>
        <time>2021-09-05T07:04:43Z</time>
      </trkpt>
      <trkpt lat="44.01496" lon="2.03146">
        <ele>278.8</ele>
        <time>2021-09-05T07:04:44Z</time>
      </trkpt>
      <trkpt lat="44.01503" lon="2.0313">
        <ele>279.2</ele>
        <time>2021-09-05T07:04:48Z</time>
      </trkpt>
      <trkpt lat="44.01506" lon="2.03123">
        <ele>279.4</ele>
        <time>2021-09-05T07:04:50Z</time>
      </trkpt>
      <trkpt lat="44.01508" lon="2.03119">
        <ele>279.6</ele>
        <time>2021-09-05T07:04:51Z</time>
      </trkpt>
      <trkpt lat="44.01509" lon="2.03116">
        <ele>279.6</ele>
        <time>2021-09-05T07:04:52Z</time>
      </trkpt>
      <trkpt lat="44.01511" lon="2.03112">
        <ele>279.8</ele>
        <time>2021-09-05T07:04:53Z</time>
      </trkpt>
      <trkpt lat="44.01513" lon="2.03109">
        <ele>279.8</ele>
        <time>2021-09-05T07:04:54Z</time>
      </trkpt>
      <trkpt lat="44.01514" lon="2.03104">
        <ele>280</ele>
        <time>2021-09-05T07:04:55Z</time>
      </trkpt>
      <trkpt lat="44.01515" lon="2.03101">
        <ele>280.2</ele>
        <time>2021-09-05T07:04:56Z</time>
      </trkpt>
      <trkpt lat="44.01517" lon="2.03097">
        <ele>280.2</ele>
        <time>2021-09-05T07:04:57Z</time>
      </trkpt>
      <trkpt lat="44.01518" lon="2.03094">
        <ele>280.4</ele>
        <time>2021-09-05T07:04:58Z</time>
      </trkpt>
      <trkpt lat="44.01519" lon="2.0309">
        <ele>280.4</ele>
        <time>2021-09-05T07:04:59Z</time>
      </trkpt>
      <trkpt lat="44.01521" lon="2.03087">
        <ele>280.6</ele>
        <time>2021-09-05T07:05:00Z</time>
      </trkpt>
      <trkpt lat="44.01522" lon="2.03083">
        <ele>280.6</ele>
        <time>2021-09-05T07:05:01Z</time>
      </trkpt>
      <trkpt lat="44.01523" lon="2.0308">
        <ele>280.8</ele>
        <time>2021-09-05T07:05:02Z</time>
      </trkpt>
      <trkpt lat="44.01524" lon="2.03077">
        <ele>280.8</ele>
        <time>2021-09-05T07:05:03Z</time>
      </trkpt>
      <trkpt lat="44.01526" lon="2.03073">
        <ele>280.8</ele>
        <time>2021-09-05T07:05:04Z</time>
      </trkpt>
      <trkpt lat="44.01527" lon="2.0307">
        <ele>281</ele>
        <time>2021-09-05T07:05:05Z</time>
      </trkpt>
      <trkpt lat="44.01529" lon="2.03068">
        <ele>281</ele>
        <time>2021-09-05T07:05:06Z</time>
      </trkpt>
      <trkpt lat="44.0153" lon="2.03065">
        <ele>281.2</ele>
        <time>2021-09-05T07:05:07Z</time>
      </trkpt>
      <trkpt lat="44.01531" lon="2.03063">
        <ele>281.2</ele>
        <time>2021-09-05T07:05:08Z</time>
      </trkpt>
      <trkpt lat="44.01531" lon="2.03063">
        <ele>281.4</ele>
        <time>2021-09-05T07:05:09Z</time>
      </trkpt>
      <trkpt lat="44.01534" lon="2.0306">
        <ele>281.4</ele>
        <time>2021-09-05T07:05:10Z</time>
      </trkpt>
      <trkpt lat="44.01535" lon="2.03059">
        <ele>281.4</ele>
        <time>2021-09-05T07:05:11Z</time>
      </trkpt>
      <trkpt lat="44.01537" lon="2.03057">
        <ele>281.4</ele>
        <time>2021-09-05T07:05:12Z</time>
      </trkpt>
      <trkpt lat="44.01539" lon="2.03057">
        <ele>281.4</ele>
        <time>2021-09-05T07:05:13Z</time>
      </trkpt>
      <trkpt lat="44.01541" lon="2.03057">
        <ele>281.4</ele>
        <time>2021-09-05T07:05:14Z</time>
      </trkpt>
      <trkpt lat="44.01545" lon="2.03058">
        <ele>281.4</ele>
        <time>2021-09-05T07:05:16Z</time>
      </trkpt>
      <trkpt lat="44.01548" lon="2.03058">
        <ele>281.4</ele>
        <time>2021-09-05T07:05:17Z</time>
      </trkpt>
      <trkpt lat="44.01562" lon="2.03063">
        <ele>281.4</ele>
        <time>2021-09-05T07:05:22Z</time>
      </trkpt>
      <trkpt lat="44.01585" lon="2.03069">
        <ele>281.2</ele>
        <time>2021-09-05T07:05:28Z</time>
      </trkpt>
      <trkpt lat="44.01613" lon="2.03078">
        <ele>280.8</ele>
        <time>2021-09-05T07:05:34Z</time>
      </trkpt>
      <trkpt lat="44.01618" lon="2.0308">
        <ele>280.6</ele>
        <time>2021-09-05T07:05:35Z</time>
      </trkpt>
      <trkpt lat="44.01622" lon="2.03082">
        <ele>280.6</ele>
        <time>2021-09-05T07:05:36Z</time>
      </trkpt>
      <trkpt lat="44.01626" lon="2.03083">
        <ele>280.4</ele>
        <time>2021-09-05T07:05:37Z</time>
      </trkpt>
      <trkpt lat="44.0163" lon="2.03085">
        <ele>280.4</ele>
        <time>2021-09-05T07:05:38Z</time>
      </trkpt>
      <trkpt lat="44.01634" lon="2.03087">
        <ele>280.2</ele>
        <time>2021-09-05T07:05:39Z</time>
      </trkpt>
      <trkpt lat="44.01638" lon="2.03089">
        <ele>280.2</ele>
        <time>2021-09-05T07:05:40Z</time>
      </trkpt>
      <trkpt lat="44.01641" lon="2.03091">
        <ele>280</ele>
        <time>2021-09-05T07:05:41Z</time>
      </trkpt>
      <trkpt lat="44.01649" lon="2.03096">
        <ele>280</ele>
        <time>2021-09-05T07:05:43Z</time>
      </trkpt>
      <trkpt lat="44.01675" lon="2.03112">
        <ele>279.8</ele>
        <time>2021-09-05T07:05:50Z</time>
      </trkpt>
      <trkpt lat="44.01679" lon="2.03114">
        <ele>279.8</ele>
        <time>2021-09-05T07:05:51Z</time>
      </trkpt>
      <trkpt lat="44.01683" lon="2.03117">
        <ele>279.6</ele>
        <time>2021-09-05T07:05:52Z</time>
      </trkpt>
      <trkpt lat="44.01687" lon="2.03119">
        <ele>279.6</ele>
        <time>2021-09-05T07:05:53Z</time>
      </trkpt>
      <trkpt lat="44.0169" lon="2.03122">
        <ele>279.6</ele>
        <time>2021-09-05T07:05:54Z</time>
      </trkpt>
      <trkpt lat="44.01702" lon="2.0313">
        <ele>279.4</ele>
        <time>2021-09-05T07:05:57Z</time>
      </trkpt>
      <trkpt lat="44.01706" lon="2.03132">
        <ele>279.4</ele>
        <time>2021-09-05T07:05:58Z</time>
      </trkpt>
      <trkpt lat="44.0171" lon="2.03135">
        <ele>279.4</ele>
        <time>2021-09-05T07:05:59Z</time>
      </trkpt>
      <trkpt lat="44.01737" lon="2.03153">
        <ele>279.6</ele>
        <time>2021-09-05T07:06:06Z</time>
      </trkpt>
      <trkpt lat="44.01742" lon="2.03155">
        <ele>279.6</ele>
        <time>2021-09-05T07:06:07Z</time>
      </trkpt>
      <trkpt lat="44.01759" lon="2.03164">
        <ele>279.8</ele>
        <time>2021-09-05T07:06:11Z</time>
      </trkpt>
      <trkpt lat="44.01763" lon="2.03166">
        <ele>279.8</ele>
        <time>2021-09-05T07:06:12Z</time>
      </trkpt>
      <trkpt lat="44.01767" lon="2.03167">
        <ele>280</ele>
        <time>2021-09-05T07:06:13Z</time>
      </trkpt>
      <trkpt lat="44.01775" lon="2.03169">
        <ele>279.8</ele>
        <time>2021-09-05T07:06:15Z</time>
      </trkpt>
      <trkpt lat="44.01779" lon="2.0317">
        <ele>280</ele>
        <time>2021-09-05T07:06:16Z</time>
      </trkpt>
      <trkpt lat="44.01784" lon="2.03171">
        <ele>280</ele>
        <time>2021-09-05T07:06:17Z</time>
      </trkpt>
      <trkpt lat="44.01792" lon="2.03172">
        <ele>280</ele>
        <time>2021-09-05T07:06:19Z</time>
      </trkpt>
      <trkpt lat="44.01796" lon="2.03174">
        <ele>280</ele>
        <time>2021-09-05T07:06:20Z</time>
      </trkpt>
      <trkpt lat="44.018" lon="2.03175">
        <ele>280</ele>
        <time>2021-09-05T07:06:21Z</time>
      </trkpt>
      <trkpt lat="44.01804" lon="2.03177">
        <ele>280</ele>
        <time>2021-09-05T07:06:22Z</time>
      </trkpt>
      <trkpt lat="44.01812" lon="2.03182">
        <ele>280</ele>
        <time>2021-09-05T07:06:24Z</time>
      </trkpt>
      <trkpt lat="44.01823" lon="2.03192">
        <ele>280</ele>
        <time>2021-09-05T07:06:27Z</time>
      </trkpt>
      <trkpt lat="44.01826" lon="2.03196">
        <ele>280.2</ele>
        <time>2021-09-05T07:06:28Z</time>
      </trkpt>
      <trkpt lat="44.0183" lon="2.03199">
        <ele>280.2</ele>
        <time>2021-09-05T07:06:29Z</time>
      </trkpt>
      <trkpt lat="44.01833" lon="2.03203">
        <ele>280.2</ele>
        <time>2021-09-05T07:06:30Z</time>
      </trkpt>
      <trkpt lat="44.01836" lon="2.03206">
        <ele>280.2</ele>
        <time>2021-09-05T07:06:31Z</time>
      </trkpt>
      <trkpt lat="44.01846" lon="2.03215">
        <ele>280.6</ele>
        <time>2021-09-05T07:06:34Z</time>
      </trkpt>
      <trkpt lat="44.0185" lon="2.03219">
        <ele>280.6</ele>
        <time>2021-09-05T07:06:35Z</time>
      </trkpt>
      <trkpt lat="44.0186" lon="2.03229">
        <ele>281.4</ele>
        <time>2021-09-05T07:06:38Z</time>
      </trkpt>
      <trkpt lat="44.01863" lon="2.03232">
        <ele>281.6</ele>
        <time>2021-09-05T07:06:39Z</time>
      </trkpt>
      <trkpt lat="44.01873" lon="2.03242">
        <ele>282.4</ele>
        <time>2021-09-05T07:06:42Z</time>
      </trkpt>
      <trkpt lat="44.01877" lon="2.03246">
        <ele>282.6</ele>
        <time>2021-09-05T07:06:43Z</time>
      </trkpt>
      <trkpt lat="44.0188" lon="2.03249">
        <ele>282.8</ele>
        <time>2021-09-05T07:06:44Z</time>
      </trkpt>
      <trkpt lat="44.01883" lon="2.03253">
        <ele>283</ele>
        <time>2021-09-05T07:06:45Z</time>
      </trkpt>
      <trkpt lat="44.01886" lon="2.03256">
        <ele>283</ele>
        <time>2021-09-05T07:06:46Z</time>
      </trkpt>
      <trkpt lat="44.01889" lon="2.03259">
        <ele>283.2</ele>
        <time>2021-09-05T07:06:47Z</time>
      </trkpt>
      <trkpt lat="44.01892" lon="2.03263">
        <ele>283.4</ele>
        <time>2021-09-05T07:06:48Z</time>
      </trkpt>
      <trkpt lat="44.01895" lon="2.03266">
        <ele>283.6</ele>
        <time>2021-09-05T07:06:49Z</time>
      </trkpt>
      <trkpt lat="44.01898" lon="2.0327">
        <ele>283.8</ele>
        <time>2021-09-05T07:06:50Z</time>
      </trkpt>
      <trkpt lat="44.01901" lon="2.03273">
        <ele>284</ele>
        <time>2021-09-05T07:06:51Z</time>
      </trkpt>
      <trkpt lat="44.01904" lon="2.03277">
        <ele>284.2</ele>
        <time>2021-09-05T07:06:52Z</time>
      </trkpt>
      <trkpt lat="44.01907" lon="2.0328">
        <ele>284.6</ele>
        <time>2021-09-05T07:06:53Z</time>
      </trkpt>
      <trkpt lat="44.0191" lon="2.03284">
        <ele>284.8</ele>
        <time>2021-09-05T07:06:54Z</time>
      </trkpt>
      <trkpt lat="44.01913" lon="2.03287">
        <ele>285.2</ele>
        <time>2021-09-05T07:06:55Z</time>
      </trkpt>
      <trkpt lat="44.01916" lon="2.03291">
        <ele>285.2</ele>
        <time>2021-09-05T07:06:56Z</time>
      </trkpt>
      <trkpt lat="44.01918" lon="2.03294">
        <ele>285.4</ele>
        <time>2021-09-05T07:06:57Z</time>
      </trkpt>
      <trkpt lat="44.0192" lon="2.03297">
        <ele>285.6</ele>
        <time>2021-09-05T07:06:58Z</time>
      </trkpt>
      <trkpt lat="44.01923" lon="2.03301">
        <ele>285.6</ele>
        <time>2021-09-05T07:06:59Z</time>
      </trkpt>
      <trkpt lat="44.01925" lon="2.03304">
        <ele>285.8</ele>
        <time>2021-09-05T07:07:00Z</time>
      </trkpt>
      <trkpt lat="44.01928" lon="2.03308">
        <ele>286</ele>
        <time>2021-09-05T07:07:01Z</time>
      </trkpt>
      <trkpt lat="44.0193" lon="2.03311">
        <ele>286.2</ele>
        <time>2021-09-05T07:07:02Z</time>
      </trkpt>
      <trkpt lat="44.01933" lon="2.03315">
        <ele>286.4</ele>
        <time>2021-09-05T07:07:03Z</time>
      </trkpt>
      <trkpt lat="44.01936" lon="2.03319">
        <ele>286.6</ele>
        <time>2021-09-05T07:07:04Z</time>
      </trkpt>
      <trkpt lat="44.01939" lon="2.03322">
        <ele>286.8</ele>
        <time>2021-09-05T07:07:05Z</time>
      </trkpt>
      <trkpt lat="44.01941" lon="2.03325">
        <ele>286.8</ele>
        <time>2021-09-05T07:07:06Z</time>
      </trkpt>
      <trkpt lat="44.01944" lon="2.03329">
        <ele>287</ele>
        <time>2021-09-05T07:07:07Z</time>
      </trkpt>
      <trkpt lat="44.01946" lon="2.03332">
        <ele>287</ele>
        <time>2021-09-05T07:07:08Z</time>
      </trkpt>
      <trkpt lat="44.01949" lon="2.03336">
        <ele>287.2</ele>
        <time>2021-09-05T07:07:09Z</time>
      </trkpt>
      <trkpt lat="44.01951" lon="2.03339">
        <ele>287.2</ele>
        <time>2021-09-05T07:07:10Z</time>
      </trkpt>
      <trkpt lat="44.01954" lon="2.03343">
        <ele>287.2</ele>
        <time>2021-09-05T07:07:11Z</time>
      </trkpt>
      <trkpt lat="44.01956" lon="2.03346">
        <ele>287.4</ele>
        <time>2021-09-05T07:07:12Z</time>
      </trkpt>
      <trkpt lat="44.01959" lon="2.0335">
        <ele>287.4</ele>
        <time>2021-09-05T07:07:13Z</time>
      </trkpt>
      <trkpt lat="44.01962" lon="2.03354">
        <ele>287.4</ele>
        <time>2021-09-05T07:07:14Z</time>
      </trkpt>
      <trkpt lat="44.01964" lon="2.03357">
        <ele>287.6</ele>
        <time>2021-09-05T07:07:15Z</time>
      </trkpt>
      <trkpt lat="44.01967" lon="2.0336">
        <ele>287.6</ele>
        <time>2021-09-05T07:07:16Z</time>
      </trkpt>
      <trkpt lat="44.0197" lon="2.03364">
        <ele>287.6</ele>
        <time>2021-09-05T07:07:17Z</time>
      </trkpt>
      <trkpt lat="44.01973" lon="2.03368">
        <ele>287.8</ele>
        <time>2021-09-05T07:07:18Z</time>
      </trkpt>
      <trkpt lat="44.01976" lon="2.03371">
        <ele>287.8</ele>
        <time>2021-09-05T07:07:19Z</time>
      </trkpt>
      <trkpt lat="44.01979" lon="2.03375">
        <ele>287.8</ele>
        <time>2021-09-05T07:07:20Z</time>
      </trkpt>
      <trkpt lat="44.01981" lon="2.03379">
        <ele>287.8</ele>
        <time>2021-09-05T07:07:21Z</time>
      </trkpt>
      <trkpt lat="44.01984" lon="2.03383">
        <ele>287.8</ele>
        <time>2021-09-05T07:07:22Z</time>
      </trkpt>
      <trkpt lat="44.01988" lon="2.03387">
        <ele>287.8</ele>
        <time>2021-09-05T07:07:23Z</time>
      </trkpt>
      <trkpt lat="44.01991" lon="2.03391">
        <ele>287.8</ele>
        <time>2021-09-05T07:07:24Z</time>
      </trkpt>
      <trkpt lat="44.01991" lon="2.03391">
        <ele>288</ele>
        <time>2021-09-05T07:07:25Z</time>
      </trkpt>
      <trkpt lat="44.01997" lon="2.034">
        <ele>288</ele>
        <time>2021-09-05T07:07:26Z</time>
      </trkpt>
      <trkpt lat="44.02" lon="2.03404">
        <ele>288</ele>
        <time>2021-09-05T07:07:27Z</time>
      </trkpt>
      <trkpt lat="44.02023" lon="2.03433">
        <ele>288</ele>
        <time>2021-09-05T07:07:34Z</time>
      </trkpt>
      <trkpt lat="44.02035" lon="2.0345">
        <ele>288</ele>
        <time>2021-09-05T07:07:38Z</time>
      </trkpt>
      <trkpt lat="44.02038" lon="2.03454">
        <ele>288</ele>
        <time>2021-09-05T07:07:39Z</time>
      </trkpt>
      <trkpt lat="44.02041" lon="2.03457">
        <ele>288</ele>
        <time>2021-09-05T07:07:40Z</time>
      </trkpt>
      <trkpt lat="44.02044" lon="2.03461">
        <ele>288</ele>
        <time>2021-09-05T07:07:41Z</time>
      </trkpt>
      <trkpt lat="44.02046" lon="2.03464">
        <ele>288</ele>
        <time>2021-09-05T07:07:42Z</time>
      </trkpt>
      <trkpt lat="44.02049" lon="2.03466">
        <ele>288</ele>
        <time>2021-09-05T07:07:43Z</time>
      </trkpt>
      <trkpt lat="44.02051" lon="2.03468">
        <ele>288</ele>
        <time>2021-09-05T07:07:44Z</time>
      </trkpt>
      <trkpt lat="44.02055" lon="2.03469">
        <ele>288</ele>
        <time>2021-09-05T07:07:45Z</time>
      </trkpt>
      <trkpt lat="44.02059" lon="2.03468">
        <ele>288</ele>
        <time>2021-09-05T07:07:46Z</time>
      </trkpt>
      <trkpt lat="44.02063" lon="2.03468">
        <ele>288</ele>
        <time>2021-09-05T07:07:47Z</time>
      </trkpt>
      <trkpt lat="44.02067" lon="2.03467">
        <ele>288</ele>
        <time>2021-09-05T07:07:48Z</time>
      </trkpt>
      <trkpt lat="44.02072" lon="2.03467">
        <ele>288</ele>
        <time>2021-09-05T07:07:49Z</time>
      </trkpt>
      <trkpt lat="44.02076" lon="2.03467">
        <ele>288</ele>
        <time>2021-09-05T07:07:50Z</time>
      </trkpt>
      <trkpt lat="44.0208" lon="2.03467">
        <ele>288</ele>
        <time>2021-09-05T07:07:51Z</time>
      </trkpt>
      <trkpt lat="44.02084" lon="2.03466">
        <ele>288</ele>
        <time>2021-09-05T07:07:52Z</time>
      </trkpt>
      <trkpt lat="44.02088" lon="2.03466">
        <ele>288</ele>
        <time>2021-09-05T07:07:53Z</time>
      </trkpt>
      <trkpt lat="44.02091" lon="2.03466">
        <ele>287.8</ele>
        <time>2021-09-05T07:07:54Z</time>
      </trkpt>
      <trkpt lat="44.02095" lon="2.03466">
        <ele>287.8</ele>
        <time>2021-09-05T07:07:55Z</time>
      </trkpt>
      <trkpt lat="44.02102" lon="2.03466">
        <ele>287.8</ele>
        <time>2021-09-05T07:07:57Z</time>
      </trkpt>
      <trkpt lat="44.02136" lon="2.03469">
        <ele>287.4</ele>
        <time>2021-09-05T07:08:05Z</time>
      </trkpt>
      <trkpt lat="44.02147" lon="2.03471">
        <ele>287</ele>
        <time>2021-09-05T07:08:07Z</time>
      </trkpt>
      <trkpt lat="44.02157" lon="2.03469">
        <ele>286.6</ele>
        <time>2021-09-05T07:08:09Z</time>
      </trkpt>
      <trkpt lat="44.02162" lon="2.03467">
        <ele>286.4</ele>
        <time>2021-09-05T07:08:10Z</time>
      </trkpt>
      <trkpt lat="44.02166" lon="2.03464">
        <ele>286.2</ele>
        <time>2021-09-05T07:08:11Z</time>
      </trkpt>
      <trkpt lat="44.0217" lon="2.0346">
        <ele>286</ele>
        <time>2021-09-05T07:08:12Z</time>
      </trkpt>
      <trkpt lat="44.02173" lon="2.03457">
        <ele>286</ele>
        <time>2021-09-05T07:08:13Z</time>
      </trkpt>
      <trkpt lat="44.02176" lon="2.03454">
        <ele>286</ele>
        <time>2021-09-05T07:08:14Z</time>
      </trkpt>
      <trkpt lat="44.0218" lon="2.03452">
        <ele>286</ele>
        <time>2021-09-05T07:08:15Z</time>
      </trkpt>
      <trkpt lat="44.02192" lon="2.03441">
        <ele>285.8</ele>
        <time>2021-09-05T07:08:19Z</time>
      </trkpt>
      <trkpt lat="44.02195" lon="2.03438">
        <ele>286.2</ele>
        <time>2021-09-05T07:08:20Z</time>
      </trkpt>
      <trkpt lat="44.02198" lon="2.03436">
        <ele>286.2</ele>
        <time>2021-09-05T07:08:21Z</time>
      </trkpt>
      <trkpt lat="44.02201" lon="2.03434">
        <ele>286.4</ele>
        <time>2021-09-05T07:08:22Z</time>
      </trkpt>
      <trkpt lat="44.02204" lon="2.03431">
        <ele>286.4</ele>
        <time>2021-09-05T07:08:23Z</time>
      </trkpt>
      <trkpt lat="44.02207" lon="2.03429">
        <ele>286.4</ele>
        <time>2021-09-05T07:08:24Z</time>
      </trkpt>
      <trkpt lat="44.02229" lon="2.03415">
        <ele>287.4</ele>
        <time>2021-09-05T07:08:31Z</time>
      </trkpt>
      <trkpt lat="44.02233" lon="2.03413">
        <ele>287.6</ele>
        <time>2021-09-05T07:08:32Z</time>
      </trkpt>
      <trkpt lat="44.0224" lon="2.0341">
        <ele>287.6</ele>
        <time>2021-09-05T07:08:34Z</time>
      </trkpt>
      <trkpt lat="44.0225" lon="2.03403">
        <ele>287.8</ele>
        <time>2021-09-05T07:08:37Z</time>
      </trkpt>
      <trkpt lat="44.02253" lon="2.03401">
        <ele>287.8</ele>
        <time>2021-09-05T07:08:38Z</time>
      </trkpt>
      <trkpt lat="44.02256" lon="2.034">
        <ele>288</ele>
        <time>2021-09-05T07:08:39Z</time>
      </trkpt>
      <trkpt lat="44.02259" lon="2.03398">
        <ele>288</ele>
        <time>2021-09-05T07:08:40Z</time>
      </trkpt>
      <trkpt lat="44.02262" lon="2.03397">
        <ele>288.2</ele>
        <time>2021-09-05T07:08:41Z</time>
      </trkpt>
      <trkpt lat="44.02265" lon="2.03395">
        <ele>288.2</ele>
        <time>2021-09-05T07:08:42Z</time>
      </trkpt>
      <trkpt lat="44.02269" lon="2.03394">
        <ele>288.2</ele>
        <time>2021-09-05T07:08:43Z</time>
      </trkpt>
      <trkpt lat="44.0228" lon="2.03386">
        <ele>288.4</ele>
        <time>2021-09-05T07:08:47Z</time>
      </trkpt>
      <trkpt lat="44.02283" lon="2.03384">
        <ele>288.6</ele>
        <time>2021-09-05T07:08:48Z</time>
      </trkpt>
      <trkpt lat="44.02288" lon="2.0338">
        <ele>288.6</ele>
        <time>2021-09-05T07:08:50Z</time>
      </trkpt>
      <trkpt lat="44.02294" lon="2.03376">
        <ele>288.8</ele>
        <time>2021-09-05T07:08:52Z</time>
      </trkpt>
      <trkpt lat="44.02297" lon="2.03374">
        <ele>288.8</ele>
        <time>2021-09-05T07:08:53Z</time>
      </trkpt>
      <trkpt lat="44.02299" lon="2.03373">
        <ele>289</ele>
        <time>2021-09-05T07:08:54Z</time>
      </trkpt>
      <trkpt lat="44.02302" lon="2.03371">
        <ele>289</ele>
        <time>2021-09-05T07:08:55Z</time>
      </trkpt>
      <trkpt lat="44.02305" lon="2.0337">
        <ele>289</ele>
        <time>2021-09-05T07:08:56Z</time>
      </trkpt>
      <trkpt lat="44.02315" lon="2.03372">
        <ele>289</ele>
        <time>2021-09-05T07:08:59Z</time>
      </trkpt>
      <trkpt lat="44.02318" lon="2.03374">
        <ele>289.2</ele>
        <time>2021-09-05T07:09:00Z</time>
      </trkpt>
      <trkpt lat="44.02321" lon="2.03377">
        <ele>289.2</ele>
        <time>2021-09-05T07:09:01Z</time>
      </trkpt>
      <trkpt lat="44.02324" lon="2.0338">
        <ele>289.4</ele>
        <time>2021-09-05T07:09:02Z</time>
      </trkpt>
      <trkpt lat="44.02326" lon="2.03383">
        <ele>289.6</ele>
        <time>2021-09-05T07:09:03Z</time>
      </trkpt>
      <trkpt lat="44.02329" lon="2.03386">
        <ele>289.8</ele>
        <time>2021-09-05T07:09:04Z</time>
      </trkpt>
      <trkpt lat="44.02331" lon="2.03389">
        <ele>289.8</ele>
        <time>2021-09-05T07:09:05Z</time>
      </trkpt>
      <trkpt lat="44.02334" lon="2.03392">
        <ele>290</ele>
        <time>2021-09-05T07:09:06Z</time>
      </trkpt>
      <trkpt lat="44.02343" lon="2.034">
        <ele>290.2</ele>
        <time>2021-09-05T07:09:09Z</time>
      </trkpt>
      <trkpt lat="44.02349" lon="2.03401">
        <ele>290</ele>
        <time>2021-09-05T07:09:11Z</time>
      </trkpt>
      <trkpt lat="44.02353" lon="2.03399">
        <ele>290</ele>
        <time>2021-09-05T07:09:12Z</time>
      </trkpt>
      <trkpt lat="44.02356" lon="2.03396">
        <ele>290</ele>
        <time>2021-09-05T07:09:13Z</time>
      </trkpt>
      <trkpt lat="44.02359" lon="2.03393">
        <ele>290</ele>
        <time>2021-09-05T07:09:14Z</time>
      </trkpt>
      <trkpt lat="44.02362" lon="2.03389">
        <ele>290</ele>
        <time>2021-09-05T07:09:15Z</time>
      </trkpt>
      <trkpt lat="44.02365" lon="2.03385">
        <ele>290</ele>
        <time>2021-09-05T07:09:16Z</time>
      </trkpt>
      <trkpt lat="44.02372" lon="2.03376">
        <ele>290</ele>
        <time>2021-09-05T07:09:18Z</time>
      </trkpt>
      <trkpt lat="44.02388" lon="2.03352">
        <ele>289.4</ele>
        <time>2021-09-05T07:09:23Z</time>
      </trkpt>
      <trkpt lat="44.02391" lon="2.03347">
        <ele>289.4</ele>
        <time>2021-09-05T07:09:24Z</time>
      </trkpt>
      <trkpt lat="44.02394" lon="2.03343">
        <ele>289.2</ele>
        <time>2021-09-05T07:09:25Z</time>
      </trkpt>
      <trkpt lat="44.02398" lon="2.03339">
        <ele>289.2</ele>
        <time>2021-09-05T07:09:26Z</time>
      </trkpt>
      <trkpt lat="44.024" lon="2.03335">
        <ele>289.2</ele>
        <time>2021-09-05T07:09:27Z</time>
      </trkpt>
      <trkpt lat="44.02404" lon="2.03332">
        <ele>289.2</ele>
        <time>2021-09-05T07:09:28Z</time>
      </trkpt>
      <trkpt lat="44.02419" lon="2.03317">
        <ele>288.4</ele>
        <time>2021-09-05T07:09:32Z</time>
      </trkpt>
      <trkpt lat="44.02423" lon="2.03314">
        <ele>288.4</ele>
        <time>2021-09-05T07:09:33Z</time>
      </trkpt>
      <trkpt lat="44.02444" lon="2.03296">
        <ele>287.4</ele>
        <time>2021-09-05T07:09:38Z</time>
      </trkpt>
      <trkpt lat="44.0247" lon="2.03278">
        <ele>286</ele>
        <time>2021-09-05T07:09:43Z</time>
      </trkpt>
      <trkpt lat="44.025" lon="2.03258">
        <ele>285.2</ele>
        <time>2021-09-05T07:09:48Z</time>
      </trkpt>
      <trkpt lat="44.02506" lon="2.03253">
        <ele>285</ele>
        <time>2021-09-05T07:09:49Z</time>
      </trkpt>
      <trkpt lat="44.02524" lon="2.03239">
        <ele>283.8</ele>
        <time>2021-09-05T07:09:52Z</time>
      </trkpt>
      <trkpt lat="44.0253" lon="2.03234">
        <ele>283.6</ele>
        <time>2021-09-05T07:09:53Z</time>
      </trkpt>
      <trkpt lat="44.02535" lon="2.0323">
        <ele>283.4</ele>
        <time>2021-09-05T07:09:54Z</time>
      </trkpt>
      <trkpt lat="44.02541" lon="2.03226">
        <ele>283</ele>
        <time>2021-09-05T07:09:55Z</time>
      </trkpt>
      <trkpt lat="44.02546" lon="2.03222">
        <ele>283</ele>
        <time>2021-09-05T07:09:56Z</time>
      </trkpt>
      <trkpt lat="44.02551" lon="2.03218">
        <ele>282.4</ele>
        <time>2021-09-05T07:09:57Z</time>
      </trkpt>
      <trkpt lat="44.02561" lon="2.03211">
        <ele>282</ele>
        <time>2021-09-05T07:09:59Z</time>
      </trkpt>
      <trkpt lat="44.02576" lon="2.03199">
        <ele>281.4</ele>
        <time>2021-09-05T07:10:02Z</time>
      </trkpt>
      <trkpt lat="44.02586" lon="2.0319">
        <ele>281.2</ele>
        <time>2021-09-05T07:10:04Z</time>
      </trkpt>
      <trkpt lat="44.02618" lon="2.03159">
        <ele>280.4</ele>
        <time>2021-09-05T07:10:10Z</time>
      </trkpt>
      <trkpt lat="44.02623" lon="2.03153">
        <ele>279.8</ele>
        <time>2021-09-05T07:10:11Z</time>
      </trkpt>
      <trkpt lat="44.02633" lon="2.03143">
        <ele>278.6</ele>
        <time>2021-09-05T07:10:13Z</time>
      </trkpt>
      <trkpt lat="44.0265" lon="2.03124">
        <ele>277.6</ele>
        <time>2021-09-05T07:10:16Z</time>
      </trkpt>
      <trkpt lat="44.02661" lon="2.03111">
        <ele>277.2</ele>
        <time>2021-09-05T07:10:18Z</time>
      </trkpt>
      <trkpt lat="44.02666" lon="2.03106">
        <ele>277</ele>
        <time>2021-09-05T07:10:19Z</time>
      </trkpt>
      <trkpt lat="44.02671" lon="2.031">
        <ele>276.8</ele>
        <time>2021-09-05T07:10:20Z</time>
      </trkpt>
      <trkpt lat="44.02675" lon="2.03096">
        <ele>276.6</ele>
        <time>2021-09-05T07:10:21Z</time>
      </trkpt>
      <trkpt lat="44.0268" lon="2.03092">
        <ele>276.4</ele>
        <time>2021-09-05T07:10:22Z</time>
      </trkpt>
      <trkpt lat="44.02684" lon="2.03088">
        <ele>276</ele>
        <time>2021-09-05T07:10:23Z</time>
      </trkpt>
      <trkpt lat="44.02689" lon="2.03083">
        <ele>275.8</ele>
        <time>2021-09-05T07:10:24Z</time>
      </trkpt>
      <trkpt lat="44.02693" lon="2.0308">
        <ele>275.2</ele>
        <time>2021-09-05T07:10:25Z</time>
      </trkpt>
      <trkpt lat="44.02696" lon="2.03077">
        <ele>275</ele>
        <time>2021-09-05T07:10:26Z</time>
      </trkpt>
      <trkpt lat="44.027" lon="2.03074">
        <ele>274.6</ele>
        <time>2021-09-05T07:10:27Z</time>
      </trkpt>
      <trkpt lat="44.02708" lon="2.0307">
        <ele>273.8</ele>
        <time>2021-09-05T07:10:29Z</time>
      </trkpt>
      <trkpt lat="44.02718" lon="2.03063">
        <ele>272.8</ele>
        <time>2021-09-05T07:10:31Z</time>
      </trkpt>
      <trkpt lat="44.02722" lon="2.0306">
        <ele>272.2</ele>
        <time>2021-09-05T07:10:32Z</time>
      </trkpt>
      <trkpt lat="44.02728" lon="2.03058">
        <ele>271.8</ele>
        <time>2021-09-05T07:10:33Z</time>
      </trkpt>
      <trkpt lat="44.02733" lon="2.03057">
        <ele>271</ele>
        <time>2021-09-05T07:10:35Z</time>
      </trkpt>
      <trkpt lat="44.02746" lon="2.0305">
        <ele>270.2</ele>
        <time>2021-09-05T07:10:36Z</time>
      </trkpt>
      <trkpt lat="44.02751" lon="2.03046">
        <ele>269.6</ele>
        <time>2021-09-05T07:10:37Z</time>
      </trkpt>
      <trkpt lat="44.02755" lon="2.03043">
        <ele>269.4</ele>
        <time>2021-09-05T07:10:38Z</time>
      </trkpt>
      <trkpt lat="44.02758" lon="2.03041">
        <ele>268.2</ele>
        <time>2021-09-05T07:10:39Z</time>
      </trkpt>
      <trkpt lat="44.02766" lon="2.03035">
        <ele>266.8</ele>
        <time>2021-09-05T07:10:41Z</time>
      </trkpt>
      <trkpt lat="44.02774" lon="2.03028">
        <ele>265.6</ele>
        <time>2021-09-05T07:10:43Z</time>
      </trkpt>
      <trkpt lat="44.02783" lon="2.0302">
        <ele>264.4</ele>
        <time>2021-09-05T07:10:45Z</time>
      </trkpt>
      <trkpt lat="44.02788" lon="2.03016">
        <ele>263.6</ele>
        <time>2021-09-05T07:10:46Z</time>
      </trkpt>
      <trkpt lat="44.02793" lon="2.03012">
        <ele>263</ele>
        <time>2021-09-05T07:10:47Z</time>
      </trkpt>
      <trkpt lat="44.02801" lon="2.03006">
        <ele>261.8</ele>
        <time>2021-09-05T07:10:49Z</time>
      </trkpt>
      <trkpt lat="44.02807" lon="2.03002">
        <ele>261.4</ele>
        <time>2021-09-05T07:10:50Z</time>
      </trkpt>
      <trkpt lat="44.02813" lon="2.03">
        <ele>261.2</ele>
        <time>2021-09-05T07:10:51Z</time>
      </trkpt>
      <trkpt lat="44.02817" lon="2.02998">
        <ele>260.4</ele>
        <time>2021-09-05T07:10:52Z</time>
      </trkpt>
      <trkpt lat="44.02831" lon="2.02993">
        <ele>259.2</ele>
        <time>2021-09-05T07:10:54Z</time>
      </trkpt>
      <trkpt lat="44.02843" lon="2.02987">
        <ele>258</ele>
        <time>2021-09-05T07:10:56Z</time>
      </trkpt>
      <trkpt lat="44.02848" lon="2.02984">
        <ele>256.6</ele>
        <time>2021-09-05T07:10:57Z</time>
      </trkpt>
      <trkpt lat="44.02858" lon="2.02977">
        <ele>255</ele>
        <time>2021-09-05T07:10:59Z</time>
      </trkpt>
      <trkpt lat="44.02864" lon="2.02974">
        <ele>254.4</ele>
        <time>2021-09-05T07:11:00Z</time>
      </trkpt>
      <trkpt lat="44.0287" lon="2.02973">
        <ele>254.2</ele>
        <time>2021-09-05T07:11:01Z</time>
      </trkpt>
      <trkpt lat="44.02876" lon="2.02972">
        <ele>253.6</ele>
        <time>2021-09-05T07:11:02Z</time>
      </trkpt>
      <trkpt lat="44.02881" lon="2.02973">
        <ele>253.4</ele>
        <time>2021-09-05T07:11:03Z</time>
      </trkpt>
      <trkpt lat="44.02886" lon="2.02973">
        <ele>253</ele>
        <time>2021-09-05T07:11:04Z</time>
      </trkpt>
      <trkpt lat="44.0289" lon="2.02971">
        <ele>253</ele>
        <time>2021-09-05T07:11:05Z</time>
      </trkpt>
      <trkpt lat="44.02894" lon="2.02969">
        <ele>252.6</ele>
        <time>2021-09-05T07:11:06Z</time>
      </trkpt>
      <trkpt lat="44.02898" lon="2.02966">
        <ele>252.4</ele>
        <time>2021-09-05T07:11:07Z</time>
      </trkpt>
      <trkpt lat="44.02901" lon="2.02963">
        <ele>252.2</ele>
        <time>2021-09-05T07:11:08Z</time>
      </trkpt>
      <trkpt lat="44.02905" lon="2.02959">
        <ele>252.2</ele>
        <time>2021-09-05T07:11:09Z</time>
      </trkpt>
      <trkpt lat="44.02913" lon="2.02949">
        <ele>252</ele>
        <time>2021-09-05T07:11:11Z</time>
      </trkpt>
      <trkpt lat="44.02917" lon="2.02945">
        <ele>251.8</ele>
        <time>2021-09-05T07:11:12Z</time>
      </trkpt>
      <trkpt lat="44.0292" lon="2.02941">
        <ele>251.8</ele>
        <time>2021-09-05T07:11:13Z</time>
      </trkpt>
      <trkpt lat="44.02923" lon="2.02936">
        <ele>251.8</ele>
        <time>2021-09-05T07:11:14Z</time>
      </trkpt>
      <trkpt lat="44.02926" lon="2.02932">
        <ele>251.8</ele>
        <time>2021-09-05T07:11:15Z</time>
      </trkpt>
      <trkpt lat="44.0293" lon="2.02928">
        <ele>251.8</ele>
        <time>2021-09-05T07:11:16Z</time>
      </trkpt>
      <trkpt lat="44.02933" lon="2.02924">
        <ele>251.8</ele>
        <time>2021-09-05T07:11:17Z</time>
      </trkpt>
      <trkpt lat="44.02936" lon="2.02922">
        <ele>251.8</ele>
        <time>2021-09-05T07:11:18Z</time>
      </trkpt>
      <trkpt lat="44.02939" lon="2.02922">
        <ele>251.8</ele>
        <time>2021-09-05T07:11:19Z</time>
      </trkpt>
      <trkpt lat="44.02942" lon="2.02923">
        <ele>252</ele>
        <time>2021-09-05T07:11:20Z</time>
      </trkpt>
      <trkpt lat="44.02945" lon="2.02926">
        <ele>252.2</ele>
        <time>2021-09-05T07:11:21Z</time>
      </trkpt>
      <trkpt lat="44.02949" lon="2.02931">
        <ele>252.4</ele>
        <time>2021-09-05T07:11:23Z</time>
      </trkpt>
      <trkpt lat="44.02952" lon="2.02935">
        <ele>252.6</ele>
        <time>2021-09-05T07:11:24Z</time>
      </trkpt>
      <trkpt lat="44.02963" lon="2.02949">
        <ele>253</ele>
        <time>2021-09-05T07:11:28Z</time>
      </trkpt>
      <trkpt lat="44.0297" lon="2.02955">
        <ele>253</ele>
        <time>2021-09-05T07:11:30Z</time>
      </trkpt>
      <trkpt lat="44.02994" lon="2.02976">
        <ele>253.4</ele>
        <time>2021-09-05T07:11:37Z</time>
      </trkpt>
      <trkpt lat="44.03003" lon="2.02985">
        <ele>253.6</ele>
        <time>2021-09-05T07:11:40Z</time>
      </trkpt>
      <trkpt lat="44.03006" lon="2.02987">
        <ele>253.8</ele>
        <time>2021-09-05T07:11:41Z</time>
      </trkpt>
      <trkpt lat="44.03012" lon="2.02993">
        <ele>254</ele>
        <time>2021-09-05T07:11:43Z</time>
      </trkpt>
      <trkpt lat="44.03028" lon="2.03012">
        <ele>254.4</ele>
        <time>2021-09-05T07:11:48Z</time>
      </trkpt>
      <trkpt lat="44.03031" lon="2.03017">
        <ele>254.6</ele>
        <time>2021-09-05T07:11:49Z</time>
      </trkpt>
      <trkpt lat="44.03039" lon="2.03028">
        <ele>254.8</ele>
        <time>2021-09-05T07:11:51Z</time>
      </trkpt>
      <trkpt lat="44.03043" lon="2.03032">
        <ele>254.8</ele>
        <time>2021-09-05T07:11:52Z</time>
      </trkpt>
      <trkpt lat="44.03068" lon="2.03067">
        <ele>255.4</ele>
        <time>2021-09-05T07:12:00Z</time>
      </trkpt>
      <trkpt lat="44.03074" lon="2.03077">
        <ele>255.4</ele>
        <time>2021-09-05T07:12:02Z</time>
      </trkpt>
      <trkpt lat="44.03098" lon="2.03108">
        <ele>256</ele>
        <time>2021-09-05T07:12:09Z</time>
      </trkpt>
      <trkpt lat="44.031" lon="2.03113">
        <ele>256</ele>
        <time>2021-09-05T07:12:10Z</time>
      </trkpt>
      <trkpt lat="44.03103" lon="2.03119">
        <ele>256.2</ele>
        <time>2021-09-05T07:12:11Z</time>
      </trkpt>
      <trkpt lat="44.0311" lon="2.03135">
        <ele>256.2</ele>
        <time>2021-09-05T07:12:14Z</time>
      </trkpt>
      <trkpt lat="44.03115" lon="2.03145">
        <ele>256.2</ele>
        <time>2021-09-05T07:12:16Z</time>
      </trkpt>
      <trkpt lat="44.03118" lon="2.03149">
        <ele>256.4</ele>
        <time>2021-09-05T07:12:17Z</time>
      </trkpt>
      <trkpt lat="44.03126" lon="2.03163">
        <ele>256.6</ele>
        <time>2021-09-05T07:12:20Z</time>
      </trkpt>
      <trkpt lat="44.03128" lon="2.03167">
        <ele>256.6</ele>
        <time>2021-09-05T07:12:21Z</time>
      </trkpt>
      <trkpt lat="44.0313" lon="2.03171">
        <ele>256.8</ele>
        <time>2021-09-05T07:12:22Z</time>
      </trkpt>
      <trkpt lat="44.03132" lon="2.03175">
        <ele>256.8</ele>
        <time>2021-09-05T07:12:23Z</time>
      </trkpt>
      <trkpt lat="44.03135" lon="2.03179">
        <ele>257</ele>
        <time>2021-09-05T07:12:24Z</time>
      </trkpt>
      <trkpt lat="44.03142" lon="2.03191">
        <ele>257.2</ele>
        <time>2021-09-05T07:12:27Z</time>
      </trkpt>
      <trkpt lat="44.03148" lon="2.03199">
        <ele>257.4</ele>
        <time>2021-09-05T07:12:29Z</time>
      </trkpt>
      <trkpt lat="44.03151" lon="2.03203">
        <ele>257.4</ele>
        <time>2021-09-05T07:12:30Z</time>
      </trkpt>
      <trkpt lat="44.03153" lon="2.03207">
        <ele>257.6</ele>
        <time>2021-09-05T07:12:31Z</time>
      </trkpt>
      <trkpt lat="44.03156" lon="2.0321">
        <ele>257.6</ele>
        <time>2021-09-05T07:12:32Z</time>
      </trkpt>
      <trkpt lat="44.03159" lon="2.03214">
        <ele>257.8</ele>
        <time>2021-09-05T07:12:33Z</time>
      </trkpt>
      <trkpt lat="44.03162" lon="2.03218">
        <ele>258</ele>
        <time>2021-09-05T07:12:34Z</time>
      </trkpt>
      <trkpt lat="44.03166" lon="2.03223">
        <ele>258</ele>
        <time>2021-09-05T07:12:35Z</time>
      </trkpt>
      <trkpt lat="44.03171" lon="2.03231">
        <ele>258</ele>
        <time>2021-09-05T07:12:37Z</time>
      </trkpt>
      <trkpt lat="44.03173" lon="2.03235">
        <ele>258.2</ele>
        <time>2021-09-05T07:12:38Z</time>
      </trkpt>
      <trkpt lat="44.03175" lon="2.03239">
        <ele>258.4</ele>
        <time>2021-09-05T07:12:39Z</time>
      </trkpt>
      <trkpt lat="44.03178" lon="2.03243">
        <ele>258.4</ele>
        <time>2021-09-05T07:12:40Z</time>
      </trkpt>
      <trkpt lat="44.03181" lon="2.03247">
        <ele>258.8</ele>
        <time>2021-09-05T07:12:41Z</time>
      </trkpt>
      <trkpt lat="44.03183" lon="2.03251">
        <ele>258.8</ele>
        <time>2021-09-05T07:12:42Z</time>
      </trkpt>
      <trkpt lat="44.03185" lon="2.03255">
        <ele>259.2</ele>
        <time>2021-09-05T07:12:43Z</time>
      </trkpt>
      <trkpt lat="44.03188" lon="2.0326">
        <ele>259.2</ele>
        <time>2021-09-05T07:12:44Z</time>
      </trkpt>
      <trkpt lat="44.0319" lon="2.03265">
        <ele>259.4</ele>
        <time>2021-09-05T07:12:45Z</time>
      </trkpt>
      <trkpt lat="44.03193" lon="2.0327">
        <ele>259.6</ele>
        <time>2021-09-05T07:12:46Z</time>
      </trkpt>
      <trkpt lat="44.03196" lon="2.03275">
        <ele>259.6</ele>
        <time>2021-09-05T07:12:47Z</time>
      </trkpt>
      <trkpt lat="44.03198" lon="2.03279">
        <ele>260.2</ele>
        <time>2021-09-05T07:12:48Z</time>
      </trkpt>
      <trkpt lat="44.03201" lon="2.03282">
        <ele>260.4</ele>
        <time>2021-09-05T07:12:49Z</time>
      </trkpt>
      <trkpt lat="44.03203" lon="2.03285">
        <ele>260.4</ele>
        <time>2021-09-05T07:12:50Z</time>
      </trkpt>
      <trkpt lat="44.03206" lon="2.03288">
        <ele>260.6</ele>
        <time>2021-09-05T07:12:51Z</time>
      </trkpt>
      <trkpt lat="44.03209" lon="2.03292">
        <ele>260.8</ele>
        <time>2021-09-05T07:12:52Z</time>
      </trkpt>
      <trkpt lat="44.03211" lon="2.03296">
        <ele>261</ele>
        <time>2021-09-05T07:12:53Z</time>
      </trkpt>
      <trkpt lat="44.03213" lon="2.03299">
        <ele>261</ele>
        <time>2021-09-05T07:12:54Z</time>
      </trkpt>
      <trkpt lat="44.03215" lon="2.03302">
        <ele>261.4</ele>
        <time>2021-09-05T07:12:55Z</time>
      </trkpt>
      <trkpt lat="44.03218" lon="2.03305">
        <ele>261.6</ele>
        <time>2021-09-05T07:12:56Z</time>
      </trkpt>
      <trkpt lat="44.03221" lon="2.0331">
        <ele>261.8</ele>
        <time>2021-09-05T07:12:57Z</time>
      </trkpt>
      <trkpt lat="44.03225" lon="2.03316">
        <ele>261.8</ele>
        <time>2021-09-05T07:12:58Z</time>
      </trkpt>
      <trkpt lat="44.03229" lon="2.03321">
        <ele>261.8</ele>
        <time>2021-09-05T07:12:59Z</time>
      </trkpt>
      <trkpt lat="44.03232" lon="2.03326">
        <ele>261.8</ele>
        <time>2021-09-05T07:13:00Z</time>
      </trkpt>
      <trkpt lat="44.03235" lon="2.03331">
        <ele>261.8</ele>
        <time>2021-09-05T07:13:01Z</time>
      </trkpt>
      <trkpt lat="44.03237" lon="2.03336">
        <ele>261.8</ele>
        <time>2021-09-05T07:13:02Z</time>
      </trkpt>
      <trkpt lat="44.03239" lon="2.03342">
        <ele>261.8</ele>
        <time>2021-09-05T07:13:03Z</time>
      </trkpt>
      <trkpt lat="44.0324" lon="2.03348">
        <ele>261.6</ele>
        <time>2021-09-05T07:13:04Z</time>
      </trkpt>
      <trkpt lat="44.03241" lon="2.03355">
        <ele>261.6</ele>
        <time>2021-09-05T07:13:05Z</time>
      </trkpt>
      <trkpt lat="44.0324" lon="2.03362">
        <ele>261.2</ele>
        <time>2021-09-05T07:13:06Z</time>
      </trkpt>
      <trkpt lat="44.0324" lon="2.03369">
        <ele>261.2</ele>
        <time>2021-09-05T07:13:07Z</time>
      </trkpt>
      <trkpt lat="44.0324" lon="2.03376">
        <ele>261.2</ele>
        <time>2021-09-05T07:13:08Z</time>
      </trkpt>
      <trkpt lat="44.0324" lon="2.03383">
        <ele>261.2</ele>
        <time>2021-09-05T07:13:09Z</time>
      </trkpt>
      <trkpt lat="44.0324" lon="2.0339">
        <ele>261</ele>
        <time>2021-09-05T07:13:10Z</time>
      </trkpt>
      <trkpt lat="44.0324" lon="2.03397">
        <ele>261</ele>
        <time>2021-09-05T07:13:11Z</time>
      </trkpt>
      <trkpt lat="44.0324" lon="2.03404">
        <ele>260.8</ele>
        <time>2021-09-05T07:13:12Z</time>
      </trkpt>
      <trkpt lat="44.0324" lon="2.03411">
        <ele>260.8</ele>
        <time>2021-09-05T07:13:13Z</time>
      </trkpt>
      <trkpt lat="44.03241" lon="2.03418">
        <ele>260.6</ele>
        <time>2021-09-05T07:13:14Z</time>
      </trkpt>
      <trkpt lat="44.03244" lon="2.03438">
        <ele>260.4</ele>
        <time>2021-09-05T07:13:17Z</time>
      </trkpt>
      <trkpt lat="44.03245" lon="2.03445">
        <ele>260.2</ele>
        <time>2021-09-05T07:13:18Z</time>
      </trkpt>
      <trkpt lat="44.03246" lon="2.03451">
        <ele>260.2</ele>
        <time>2021-09-05T07:13:19Z</time>
      </trkpt>
      <trkpt lat="44.03246" lon="2.03458">
        <ele>260.2</ele>
        <time>2021-09-05T07:13:20Z</time>
      </trkpt>
      <trkpt lat="44.03247" lon="2.03464">
        <ele>260</ele>
        <time>2021-09-05T07:13:21Z</time>
      </trkpt>
      <trkpt lat="44.03247" lon="2.0347">
        <ele>260</ele>
        <time>2021-09-05T07:13:22Z</time>
      </trkpt>
      <trkpt lat="44.03247" lon="2.03476">
        <ele>259.8</ele>
        <time>2021-09-05T07:13:23Z</time>
      </trkpt>
      <trkpt lat="44.03246" lon="2.03482">
        <ele>259.8</ele>
        <time>2021-09-05T07:13:24Z</time>
      </trkpt>
      <trkpt lat="44.03246" lon="2.03487">
        <ele>259.6</ele>
        <time>2021-09-05T07:13:25Z</time>
      </trkpt>
      <trkpt lat="44.03245" lon="2.03493">
        <ele>259.6</ele>
        <time>2021-09-05T07:13:26Z</time>
      </trkpt>
      <trkpt lat="44.03245" lon="2.03498">
        <ele>259.4</ele>
        <time>2021-09-05T07:13:27Z</time>
      </trkpt>
      <trkpt lat="44.03246" lon="2.03529">
        <ele>259.4</ele>
        <time>2021-09-05T07:13:32Z</time>
      </trkpt>
      <trkpt lat="44.03247" lon="2.03542">
        <ele>259.2</ele>
        <time>2021-09-05T07:13:34Z</time>
      </trkpt>
      <trkpt lat="44.03248" lon="2.03548">
        <ele>259.2</ele>
        <time>2021-09-05T07:13:35Z</time>
      </trkpt>
      <trkpt lat="44.03249" lon="2.03554">
        <ele>259.2</ele>
        <time>2021-09-05T07:13:36Z</time>
      </trkpt>
      <trkpt lat="44.03251" lon="2.03559">
        <ele>259.2</ele>
        <time>2021-09-05T07:13:37Z</time>
      </trkpt>
      <trkpt lat="44.03253" lon="2.03565">
        <ele>259.4</ele>
        <time>2021-09-05T07:13:38Z</time>
      </trkpt>
      <trkpt lat="44.03255" lon="2.03571">
        <ele>259.4</ele>
        <time>2021-09-05T07:13:39Z</time>
      </trkpt>
      <trkpt lat="44.03257" lon="2.03576">
        <ele>259.4</ele>
        <time>2021-09-05T07:13:40Z</time>
      </trkpt>
      <trkpt lat="44.03259" lon="2.03581">
        <ele>259.4</ele>
        <time>2021-09-05T07:13:41Z</time>
      </trkpt>
      <trkpt lat="44.0326" lon="2.03586">
        <ele>259.4</ele>
        <time>2021-09-05T07:13:42Z</time>
      </trkpt>
      <trkpt lat="44.03262" lon="2.03597">
        <ele>259.4</ele>
        <time>2021-09-05T07:13:44Z</time>
      </trkpt>
      <trkpt lat="44.03263" lon="2.03602">
        <ele>259.4</ele>
        <time>2021-09-05T07:13:45Z</time>
      </trkpt>
      <trkpt lat="44.03264" lon="2.03608">
        <ele>259.4</ele>
        <time>2021-09-05T07:13:46Z</time>
      </trkpt>
      <trkpt lat="44.03263" lon="2.03632">
        <ele>259.6</ele>
        <time>2021-09-05T07:13:50Z</time>
      </trkpt>
      <trkpt lat="44.03263" lon="2.03638">
        <ele>259.6</ele>
        <time>2021-09-05T07:13:51Z</time>
      </trkpt>
      <trkpt lat="44.03263" lon="2.0365">
        <ele>259.6</ele>
        <time>2021-09-05T07:13:53Z</time>
      </trkpt>
      <trkpt lat="44.03264" lon="2.03655">
        <ele>259.4</ele>
        <time>2021-09-05T07:13:54Z</time>
      </trkpt>
      <trkpt lat="44.03264" lon="2.03661">
        <ele>259.6</ele>
        <time>2021-09-05T07:13:55Z</time>
      </trkpt>
      <trkpt lat="44.03266" lon="2.03672">
        <ele>259.6</ele>
        <time>2021-09-05T07:13:57Z</time>
      </trkpt>
      <trkpt lat="44.03267" lon="2.03677">
        <ele>259.6</ele>
        <time>2021-09-05T07:13:58Z</time>
      </trkpt>
      <trkpt lat="44.03268" lon="2.03683">
        <ele>259.8</ele>
        <time>2021-09-05T07:13:59Z</time>
      </trkpt>
      <trkpt lat="44.03273" lon="2.03699">
        <ele>260.2</ele>
        <time>2021-09-05T07:14:02Z</time>
      </trkpt>
      <trkpt lat="44.03275" lon="2.03705">
        <ele>260.2</ele>
        <time>2021-09-05T07:14:03Z</time>
      </trkpt>
      <trkpt lat="44.03276" lon="2.0371">
        <ele>260.4</ele>
        <time>2021-09-05T07:14:04Z</time>
      </trkpt>
      <trkpt lat="44.03279" lon="2.0372">
        <ele>260.4</ele>
        <time>2021-09-05T07:14:06Z</time>
      </trkpt>
      <trkpt lat="44.0328" lon="2.03725">
        <ele>260.6</ele>
        <time>2021-09-05T07:14:07Z</time>
      </trkpt>
      <trkpt lat="44.03283" lon="2.0373">
        <ele>260.6</ele>
        <time>2021-09-05T07:14:08Z</time>
      </trkpt>
      <trkpt lat="44.03285" lon="2.03734">
        <ele>260.6</ele>
        <time>2021-09-05T07:14:09Z</time>
      </trkpt>
      <trkpt lat="44.03288" lon="2.03738">
        <ele>260.6</ele>
        <time>2021-09-05T07:14:10Z</time>
      </trkpt>
      <trkpt lat="44.03294" lon="2.03746">
        <ele>260.4</ele>
        <time>2021-09-05T07:14:12Z</time>
      </trkpt>
      <trkpt lat="44.03297" lon="2.03749">
        <ele>260.4</ele>
        <time>2021-09-05T07:14:13Z</time>
      </trkpt>
      <trkpt lat="44.033" lon="2.03753">
        <ele>260.4</ele>
        <time>2021-09-05T07:14:14Z</time>
      </trkpt>
      <trkpt lat="44.03303" lon="2.03756">
        <ele>260.4</ele>
        <time>2021-09-05T07:14:15Z</time>
      </trkpt>
      <trkpt lat="44.03309" lon="2.03762">
        <ele>260.6</ele>
        <time>2021-09-05T07:14:17Z</time>
      </trkpt>
      <trkpt lat="44.03311" lon="2.03766">
        <ele>260.6</ele>
        <time>2021-09-05T07:14:18Z</time>
      </trkpt>
      <trkpt lat="44.03313" lon="2.0377">
        <ele>260.6</ele>
        <time>2021-09-05T07:14:19Z</time>
      </trkpt>
      <trkpt lat="44.03314" lon="2.03774">
        <ele>260.6</ele>
        <time>2021-09-05T07:14:20Z</time>
      </trkpt>
      <trkpt lat="44.03316" lon="2.03778">
        <ele>260.8</ele>
        <time>2021-09-05T07:14:21Z</time>
      </trkpt>
      <trkpt lat="44.03319" lon="2.03781">
        <ele>260.8</ele>
        <time>2021-09-05T07:14:22Z</time>
      </trkpt>
      <trkpt lat="44.0332" lon="2.03785">
        <ele>261</ele>
        <time>2021-09-05T07:14:23Z</time>
      </trkpt>
      <trkpt lat="44.03322" lon="2.03788">
        <ele>261.2</ele>
        <time>2021-09-05T07:14:24Z</time>
      </trkpt>
      <trkpt lat="44.03324" lon="2.03792">
        <ele>261.4</ele>
        <time>2021-09-05T07:14:25Z</time>
      </trkpt>
      <trkpt lat="44.03326" lon="2.03795">
        <ele>261.6</ele>
        <time>2021-09-05T07:14:26Z</time>
      </trkpt>
      <trkpt lat="44.03328" lon="2.03797">
        <ele>261.8</ele>
        <time>2021-09-05T07:14:27Z</time>
      </trkpt>
      <trkpt lat="44.0333" lon="2.03798">
        <ele>261.8</ele>
        <time>2021-09-05T07:14:28Z</time>
      </trkpt>
      <trkpt lat="44.03333" lon="2.03799">
        <ele>261.8</ele>
        <time>2021-09-05T07:14:29Z</time>
      </trkpt>
      <trkpt lat="44.03334" lon="2.038">
        <ele>262</ele>
        <time>2021-09-05T07:14:30Z</time>
      </trkpt>
      <trkpt lat="44.03336" lon="2.03799">
        <ele>262</ele>
        <time>2021-09-05T07:14:31Z</time>
      </trkpt>
      <trkpt lat="44.03337" lon="2.03797">
        <ele>262.2</ele>
        <time>2021-09-05T07:14:32Z</time>
      </trkpt>
      <trkpt lat="44.03339" lon="2.03797">
        <ele>262.2</ele>
        <time>2021-09-05T07:14:33Z</time>
      </trkpt>
      <trkpt lat="44.03347" lon="2.03793">
        <ele>262.6</ele>
        <time>2021-09-05T07:14:36Z</time>
      </trkpt>
      <trkpt lat="44.03349" lon="2.03792">
        <ele>262.8</ele>
        <time>2021-09-05T07:14:37Z</time>
      </trkpt>
      <trkpt lat="44.03356" lon="2.03789">
        <ele>263.4</ele>
        <time>2021-09-05T07:14:40Z</time>
      </trkpt>
      <trkpt lat="44.03359" lon="2.03789">
        <ele>263.2</ele>
        <time>2021-09-05T07:14:41Z</time>
      </trkpt>
      <trkpt lat="44.03361" lon="2.03788">
        <ele>263.4</ele>
        <time>2021-09-05T07:14:42Z</time>
      </trkpt>
      <trkpt lat="44.03363" lon="2.03787">
        <ele>263.6</ele>
        <time>2021-09-05T07:14:43Z</time>
      </trkpt>
      <trkpt lat="44.03365" lon="2.03787">
        <ele>263.6</ele>
        <time>2021-09-05T07:14:44Z</time>
      </trkpt>
      <trkpt lat="44.03367" lon="2.03786">
        <ele>264</ele>
        <time>2021-09-05T07:14:45Z</time>
      </trkpt>
      <trkpt lat="44.0337" lon="2.03786">
        <ele>264.2</ele>
        <time>2021-09-05T07:14:46Z</time>
      </trkpt>
      <trkpt lat="44.03372" lon="2.03785">
        <ele>264.4</ele>
        <time>2021-09-05T07:14:47Z</time>
      </trkpt>
      <trkpt lat="44.03375" lon="2.03785">
        <ele>264.4</ele>
        <time>2021-09-05T07:14:48Z</time>
      </trkpt>
      <trkpt lat="44.03377" lon="2.03785">
        <ele>264.6</ele>
        <time>2021-09-05T07:14:49Z</time>
      </trkpt>
      <trkpt lat="44.03379" lon="2.03784">
        <ele>264.8</ele>
        <time>2021-09-05T07:14:50Z</time>
      </trkpt>
      <trkpt lat="44.03381" lon="2.03784">
        <ele>264.8</ele>
        <time>2021-09-05T07:14:51Z</time>
      </trkpt>
      <trkpt lat="44.03382" lon="2.03784">
        <ele>265.2</ele>
        <time>2021-09-05T07:14:52Z</time>
      </trkpt>
      <trkpt lat="44.03382" lon="2.03783">
        <ele>265.4</ele>
        <time>2021-09-05T07:14:53Z</time>
      </trkpt>
      <trkpt lat="44.03383" lon="2.03783">
        <ele>265.4</ele>
        <time>2021-09-05T07:14:54Z</time>
      </trkpt>
      <trkpt lat="44.0338" lon="2.03783">
        <ele>265.4</ele>
        <time>2021-09-05T07:15:11Z</time>
      </trkpt>
      <trkpt lat="44.03378" lon="2.03784">
        <ele>265.2</ele>
        <time>2021-09-05T07:15:12Z</time>
      </trkpt>
      <trkpt lat="44.03361" lon="2.03788">
        <ele>265.2</ele>
        <time>2021-09-05T07:15:17Z</time>
      </trkpt>
      <trkpt lat="44.03352" lon="2.03791">
        <ele>265</ele>
        <time>2021-09-05T07:15:19Z</time>
      </trkpt>
      <trkpt lat="44.03343" lon="2.03797">
        <ele>264.8</ele>
        <time>2021-09-05T07:15:21Z</time>
      </trkpt>
      <trkpt lat="44.0334" lon="2.038">
        <ele>264.8</ele>
        <time>2021-09-05T07:15:22Z</time>
      </trkpt>
      <trkpt lat="44.03339" lon="2.03804">
        <ele>264.4</ele>
        <time>2021-09-05T07:15:23Z</time>
      </trkpt>
      <trkpt lat="44.03339" lon="2.03809">
        <ele>264.2</ele>
        <time>2021-09-05T07:15:24Z</time>
      </trkpt>
      <trkpt lat="44.03341" lon="2.03814">
        <ele>263.4</ele>
        <time>2021-09-05T07:15:25Z</time>
      </trkpt>
      <trkpt lat="44.03343" lon="2.03819">
        <ele>263.2</ele>
        <time>2021-09-05T07:15:26Z</time>
      </trkpt>
      <trkpt lat="44.03349" lon="2.03829">
        <ele>262.6</ele>
        <time>2021-09-05T07:15:28Z</time>
      </trkpt>
      <trkpt lat="44.03351" lon="2.03835">
        <ele>262.4</ele>
        <time>2021-09-05T07:15:29Z</time>
      </trkpt>
      <trkpt lat="44.03369" lon="2.03867">
        <ele>262.4</ele>
        <time>2021-09-05T07:15:34Z</time>
      </trkpt>
      <trkpt lat="44.03373" lon="2.03873">
        <ele>262.4</ele>
        <time>2021-09-05T07:15:35Z</time>
      </trkpt>
      <trkpt lat="44.03377" lon="2.03877">
        <ele>262.4</ele>
        <time>2021-09-05T07:15:36Z</time>
      </trkpt>
      <trkpt lat="44.03381" lon="2.03879">
        <ele>262.6</ele>
        <time>2021-09-05T07:15:37Z</time>
      </trkpt>
      <trkpt lat="44.03386" lon="2.0388">
        <ele>262.8</ele>
        <time>2021-09-05T07:15:38Z</time>
      </trkpt>
      <trkpt lat="44.0339" lon="2.03881">
        <ele>263</ele>
        <time>2021-09-05T07:15:39Z</time>
      </trkpt>
      <trkpt lat="44.03393" lon="2.03881">
        <ele>263</ele>
        <time>2021-09-05T07:15:40Z</time>
      </trkpt>
      <trkpt lat="44.03397" lon="2.03882">
        <ele>263.4</ele>
        <time>2021-09-05T07:15:41Z</time>
      </trkpt>
      <trkpt lat="44.03401" lon="2.03881">
        <ele>263.6</ele>
        <time>2021-09-05T07:15:42Z</time>
      </trkpt>
      <trkpt lat="44.03405" lon="2.0388">
        <ele>264</ele>
        <time>2021-09-05T07:15:43Z</time>
      </trkpt>
      <trkpt lat="44.03409" lon="2.0388">
        <ele>264.2</ele>
        <time>2021-09-05T07:15:44Z</time>
      </trkpt>
      <trkpt lat="44.03412" lon="2.0388">
        <ele>264.4</ele>
        <time>2021-09-05T07:15:45Z</time>
      </trkpt>
      <trkpt lat="44.03415" lon="2.0388">
        <ele>264.6</ele>
        <time>2021-09-05T07:15:46Z</time>
      </trkpt>
      <trkpt lat="44.03419" lon="2.03882">
        <ele>264.8</ele>
        <time>2021-09-05T07:15:47Z</time>
      </trkpt>
      <trkpt lat="44.03422" lon="2.03882">
        <ele>265</ele>
        <time>2021-09-05T07:15:48Z</time>
      </trkpt>
      <trkpt lat="44.03424" lon="2.03883">
        <ele>265.2</ele>
        <time>2021-09-05T07:15:49Z</time>
      </trkpt>
      <trkpt lat="44.03429" lon="2.03885">
        <ele>266.2</ele>
        <time>2021-09-05T07:15:51Z</time>
      </trkpt>
      <trkpt lat="44.03432" lon="2.03885">
        <ele>266.4</ele>
        <time>2021-09-05T07:15:52Z</time>
      </trkpt>
      <trkpt lat="44.03434" lon="2.03885">
        <ele>266.4</ele>
        <time>2021-09-05T07:15:53Z</time>
      </trkpt>
      <trkpt lat="44.03437" lon="2.03886">
        <ele>266.6</ele>
        <time>2021-09-05T07:15:54Z</time>
      </trkpt>
      <trkpt lat="44.0344" lon="2.03886">
        <ele>266.8</ele>
        <time>2021-09-05T07:15:55Z</time>
      </trkpt>
      <trkpt lat="44.03443" lon="2.03886">
        <ele>267</ele>
        <time>2021-09-05T07:15:56Z</time>
      </trkpt>
      <trkpt lat="44.03445" lon="2.03886">
        <ele>267.4</ele>
        <time>2021-09-05T07:15:57Z</time>
      </trkpt>
      <trkpt lat="44.03447" lon="2.03886">
        <ele>267.6</ele>
        <time>2021-09-05T07:15:58Z</time>
      </trkpt>
      <trkpt lat="44.0345" lon="2.03886">
        <ele>268</ele>
        <time>2021-09-05T07:15:59Z</time>
      </trkpt>
      <trkpt lat="44.03452" lon="2.03886">
        <ele>268.2</ele>
        <time>2021-09-05T07:16:00Z</time>
      </trkpt>
      <trkpt lat="44.03454" lon="2.03887">
        <ele>268.4</ele>
        <time>2021-09-05T07:16:01Z</time>
      </trkpt>
      <trkpt lat="44.03457" lon="2.03887">
        <ele>268.6</ele>
        <time>2021-09-05T07:16:02Z</time>
      </trkpt>
      <trkpt lat="44.03459" lon="2.03888">
        <ele>268.6</ele>
        <time>2021-09-05T07:16:03Z</time>
      </trkpt>
      <trkpt lat="44.03462" lon="2.03889">
        <ele>268.8</ele>
        <time>2021-09-05T07:16:04Z</time>
      </trkpt>
      <trkpt lat="44.03465" lon="2.0389">
        <ele>269</ele>
        <time>2021-09-05T07:16:05Z</time>
      </trkpt>
      <trkpt lat="44.03467" lon="2.03891">
        <ele>269.4</ele>
        <time>2021-09-05T07:16:06Z</time>
      </trkpt>
      <trkpt lat="44.03469" lon="2.03891">
        <ele>269.6</ele>
        <time>2021-09-05T07:16:07Z</time>
      </trkpt>
      <trkpt lat="44.03471" lon="2.03891">
        <ele>269.8</ele>
        <time>2021-09-05T07:16:08Z</time>
      </trkpt>
      <trkpt lat="44.03473" lon="2.03891">
        <ele>270.2</ele>
        <time>2021-09-05T07:16:09Z</time>
      </trkpt>
      <trkpt lat="44.03475" lon="2.03893">
        <ele>270.4</ele>
        <time>2021-09-05T07:16:10Z</time>
      </trkpt>
      <trkpt lat="44.03477" lon="2.03894">
        <ele>270.6</ele>
        <time>2021-09-05T07:16:11Z</time>
      </trkpt>
      <trkpt lat="44.0348" lon="2.03894">
        <ele>270.6</ele>
        <time>2021-09-05T07:16:12Z</time>
      </trkpt>
      <trkpt lat="44.03482" lon="2.03895">
        <ele>270.8</ele>
        <time>2021-09-05T07:16:13Z</time>
      </trkpt>
      <trkpt lat="44.03485" lon="2.03896">
        <ele>270.8</ele>
        <time>2021-09-05T07:16:14Z</time>
      </trkpt>
      <trkpt lat="44.03486" lon="2.03897">
        <ele>271</ele>
        <time>2021-09-05T07:16:15Z</time>
      </trkpt>
      <trkpt lat="44.03488" lon="2.03899">
        <ele>271.2</ele>
        <time>2021-09-05T07:16:16Z</time>
      </trkpt>
      <trkpt lat="44.03489" lon="2.039">
        <ele>271.4</ele>
        <time>2021-09-05T07:16:17Z</time>
      </trkpt>
      <trkpt lat="44.03492" lon="2.03902">
        <ele>271.8</ele>
        <time>2021-09-05T07:16:18Z</time>
      </trkpt>
      <trkpt lat="44.03494" lon="2.03903">
        <ele>271.8</ele>
        <time>2021-09-05T07:16:19Z</time>
      </trkpt>
      <trkpt lat="44.03495" lon="2.03904">
        <ele>272</ele>
        <time>2021-09-05T07:16:20Z</time>
      </trkpt>
      <trkpt lat="44.03497" lon="2.03906">
        <ele>272.2</ele>
        <time>2021-09-05T07:16:21Z</time>
      </trkpt>
      <trkpt lat="44.03499" lon="2.03909">
        <ele>272.4</ele>
        <time>2021-09-05T07:16:22Z</time>
      </trkpt>
      <trkpt lat="44.03502" lon="2.03915">
        <ele>272.4</ele>
        <time>2021-09-05T07:16:23Z</time>
      </trkpt>
      <trkpt lat="44.03504" lon="2.03918">
        <ele>272.8</ele>
        <time>2021-09-05T07:16:24Z</time>
      </trkpt>
      <trkpt lat="44.03505" lon="2.0392">
        <ele>273.2</ele>
        <time>2021-09-05T07:16:25Z</time>
      </trkpt>
      <trkpt lat="44.03507" lon="2.03922">
        <ele>273.4</ele>
        <time>2021-09-05T07:16:26Z</time>
      </trkpt>
      <trkpt lat="44.03509" lon="2.03924">
        <ele>273.8</ele>
        <time>2021-09-05T07:16:27Z</time>
      </trkpt>
      <trkpt lat="44.0351" lon="2.03926">
        <ele>273.8</ele>
        <time>2021-09-05T07:16:28Z</time>
      </trkpt>
      <trkpt lat="44.03511" lon="2.03929">
        <ele>274</ele>
        <time>2021-09-05T07:16:29Z</time>
      </trkpt>
      <trkpt lat="44.03511" lon="2.03931">
        <ele>274</ele>
        <time>2021-09-05T07:16:30Z</time>
      </trkpt>
      <trkpt lat="44.03512" lon="2.03931">
        <ele>274.2</ele>
        <time>2021-09-05T07:16:31Z</time>
      </trkpt>
      <trkpt lat="44.03513" lon="2.03931">
        <ele>274.4</ele>
        <time>2021-09-05T07:16:32Z</time>
      </trkpt>
      <trkpt lat="44.03514" lon="2.03932">
        <ele>274.6</ele>
        <time>2021-09-05T07:16:33Z</time>
      </trkpt>
      <trkpt lat="44.03516" lon="2.03933">
        <ele>274.8</ele>
        <time>2021-09-05T07:16:34Z</time>
      </trkpt>
      <trkpt lat="44.03517" lon="2.03935">
        <ele>274.8</ele>
        <time>2021-09-05T07:16:35Z</time>
      </trkpt>
      <trkpt lat="44.03518" lon="2.03936">
        <ele>274.8</ele>
        <time>2021-09-05T07:16:36Z</time>
      </trkpt>
      <trkpt lat="44.03519" lon="2.03937">
        <ele>275</ele>
        <time>2021-09-05T07:16:37Z</time>
      </trkpt>
      <trkpt lat="44.0352" lon="2.03938">
        <ele>275</ele>
        <time>2021-09-05T07:16:38Z</time>
      </trkpt>
      <trkpt lat="44.03522" lon="2.03939">
        <ele>275.2</ele>
        <time>2021-09-05T07:16:39Z</time>
      </trkpt>
      <trkpt lat="44.03524" lon="2.0394">
        <ele>275.2</ele>
        <time>2021-09-05T07:16:40Z</time>
      </trkpt>
      <trkpt lat="44.03526" lon="2.03941">
        <ele>275.4</ele>
        <time>2021-09-05T07:16:41Z</time>
      </trkpt>
      <trkpt lat="44.03527" lon="2.03941">
        <ele>275.4</ele>
        <time>2021-09-05T07:16:42Z</time>
      </trkpt>
      <trkpt lat="44.03529" lon="2.03942">
        <ele>275.6</ele>
        <time>2021-09-05T07:16:43Z</time>
      </trkpt>
      <trkpt lat="44.03531" lon="2.03943">
        <ele>275.8</ele>
        <time>2021-09-05T07:16:44Z</time>
      </trkpt>
      <trkpt lat="44.03533" lon="2.03943">
        <ele>276</ele>
        <time>2021-09-05T07:16:45Z</time>
      </trkpt>
      <trkpt lat="44.03536" lon="2.03945">
        <ele>276.2</ele>
        <time>2021-09-05T07:16:46Z</time>
      </trkpt>
      <trkpt lat="44.03538" lon="2.03946">
        <ele>276.2</ele>
        <time>2021-09-05T07:16:47Z</time>
      </trkpt>
      <trkpt lat="44.0354" lon="2.03948">
        <ele>276.4</ele>
        <time>2021-09-05T07:16:48Z</time>
      </trkpt>
      <trkpt lat="44.03543" lon="2.03949">
        <ele>276.4</ele>
        <time>2021-09-05T07:16:49Z</time>
      </trkpt>
      <trkpt lat="44.03547" lon="2.03951">
        <ele>276.6</ele>
        <time>2021-09-05T07:16:50Z</time>
      </trkpt>
      <trkpt lat="44.03549" lon="2.03951">
        <ele>276.6</ele>
        <time>2021-09-05T07:16:51Z</time>
      </trkpt>
      <trkpt lat="44.03552" lon="2.03951">
        <ele>276.8</ele>
        <time>2021-09-05T07:16:52Z</time>
      </trkpt>
      <trkpt lat="44.03554" lon="2.03952">
        <ele>276.8</ele>
        <time>2021-09-05T07:16:53Z</time>
      </trkpt>
      <trkpt lat="44.03556" lon="2.03953">
        <ele>277</ele>
        <time>2021-09-05T07:16:54Z</time>
      </trkpt>
      <trkpt lat="44.0356" lon="2.03955">
        <ele>277</ele>
        <time>2021-09-05T07:16:55Z</time>
      </trkpt>
      <trkpt lat="44.03563" lon="2.03956">
        <ele>277.2</ele>
        <time>2021-09-05T07:16:56Z</time>
      </trkpt>
      <trkpt lat="44.03565" lon="2.03957">
        <ele>277.2</ele>
        <time>2021-09-05T07:16:57Z</time>
      </trkpt>
      <trkpt lat="44.03568" lon="2.03958">
        <ele>277.2</ele>
        <time>2021-09-05T07:16:58Z</time>
      </trkpt>
      <trkpt lat="44.03571" lon="2.03959">
        <ele>277.4</ele>
        <time>2021-09-05T07:16:59Z</time>
      </trkpt>
      <trkpt lat="44.03573" lon="2.0396">
        <ele>277.4</ele>
        <time>2021-09-05T07:17:00Z</time>
      </trkpt>
      <trkpt lat="44.03575" lon="2.0396">
        <ele>277.4</ele>
        <time>2021-09-05T07:17:01Z</time>
      </trkpt>
      <trkpt lat="44.03578" lon="2.03961">
        <ele>277.6</ele>
        <time>2021-09-05T07:17:02Z</time>
      </trkpt>
      <trkpt lat="44.03582" lon="2.03961">
        <ele>277.6</ele>
        <time>2021-09-05T07:17:03Z</time>
      </trkpt>
      <trkpt lat="44.03585" lon="2.03963">
        <ele>277.6</ele>
        <time>2021-09-05T07:17:04Z</time>
      </trkpt>
      <trkpt lat="44.0359" lon="2.03966">
        <ele>277.8</ele>
        <time>2021-09-05T07:17:05Z</time>
      </trkpt>
      <trkpt lat="44.03592" lon="2.03969">
        <ele>277.8</ele>
        <time>2021-09-05T07:17:06Z</time>
      </trkpt>
      <trkpt lat="44.03594" lon="2.03971">
        <ele>277.8</ele>
        <time>2021-09-05T07:17:07Z</time>
      </trkpt>
      <trkpt lat="44.03596" lon="2.03974">
        <ele>278</ele>
        <time>2021-09-05T07:17:08Z</time>
      </trkpt>
      <trkpt lat="44.03599" lon="2.03976">
        <ele>278.2</ele>
        <time>2021-09-05T07:17:09Z</time>
      </trkpt>
      <trkpt lat="44.03603" lon="2.03978">
        <ele>278.6</ele>
        <time>2021-09-05T07:17:10Z</time>
      </trkpt>
      <trkpt lat="44.0361" lon="2.03983">
        <ele>279</ele>
        <time>2021-09-05T07:17:12Z</time>
      </trkpt>
      <trkpt lat="44.03614" lon="2.03983">
        <ele>279.2</ele>
        <time>2021-09-05T07:17:13Z</time>
      </trkpt>
      <trkpt lat="44.03618" lon="2.03983">
        <ele>279.2</ele>
        <time>2021-09-05T07:17:14Z</time>
      </trkpt>
      <trkpt lat="44.0362" lon="2.03983">
        <ele>279.4</ele>
        <time>2021-09-05T07:17:15Z</time>
      </trkpt>
      <trkpt lat="44.03623" lon="2.03982">
        <ele>279.6</ele>
        <time>2021-09-05T07:17:16Z</time>
      </trkpt>
      <trkpt lat="44.03625" lon="2.03981">
        <ele>279.8</ele>
        <time>2021-09-05T07:17:17Z</time>
      </trkpt>
      <trkpt lat="44.03628" lon="2.03979">
        <ele>279.8</ele>
        <time>2021-09-05T07:17:18Z</time>
      </trkpt>
      <trkpt lat="44.03631" lon="2.03978">
        <ele>280</ele>
        <time>2021-09-05T07:17:19Z</time>
      </trkpt>
      <trkpt lat="44.03633" lon="2.03977">
        <ele>280.2</ele>
        <time>2021-09-05T07:17:20Z</time>
      </trkpt>
      <trkpt lat="44.03636" lon="2.03977">
        <ele>280.2</ele>
        <time>2021-09-05T07:17:21Z</time>
      </trkpt>
      <trkpt lat="44.03639" lon="2.03976">
        <ele>280.8</ele>
        <time>2021-09-05T07:17:22Z</time>
      </trkpt>
      <trkpt lat="44.03642" lon="2.03976">
        <ele>281</ele>
        <time>2021-09-05T07:17:23Z</time>
      </trkpt>
      <trkpt lat="44.03645" lon="2.03976">
        <ele>281.4</ele>
        <time>2021-09-05T07:17:24Z</time>
      </trkpt>
      <trkpt lat="44.03648" lon="2.03976">
        <ele>281.6</ele>
        <time>2021-09-05T07:17:25Z</time>
      </trkpt>
      <trkpt lat="44.03652" lon="2.03976">
        <ele>281.8</ele>
        <time>2021-09-05T07:17:26Z</time>
      </trkpt>
      <trkpt lat="44.03655" lon="2.03977">
        <ele>282.4</ele>
        <time>2021-09-05T07:17:27Z</time>
      </trkpt>
      <trkpt lat="44.03659" lon="2.03978">
        <ele>282.4</ele>
        <time>2021-09-05T07:17:28Z</time>
      </trkpt>
      <trkpt lat="44.03662" lon="2.03979">
        <ele>283.2</ele>
        <time>2021-09-05T07:17:29Z</time>
      </trkpt>
      <trkpt lat="44.03663" lon="2.03979">
        <ele>283.4</ele>
        <time>2021-09-05T07:17:30Z</time>
      </trkpt>
      <trkpt lat="44.03665" lon="2.03979">
        <ele>284.2</ele>
        <time>2021-09-05T07:17:31Z</time>
      </trkpt>
      <trkpt lat="44.03667" lon="2.03979">
        <ele>284.6</ele>
        <time>2021-09-05T07:17:32Z</time>
      </trkpt>
      <trkpt lat="44.03669" lon="2.0398">
        <ele>284.8</ele>
        <time>2021-09-05T07:17:33Z</time>
      </trkpt>
      <trkpt lat="44.03672" lon="2.03981">
        <ele>285.2</ele>
        <time>2021-09-05T07:17:34Z</time>
      </trkpt>
      <trkpt lat="44.03675" lon="2.03982">
        <ele>285.4</ele>
        <time>2021-09-05T07:17:35Z</time>
      </trkpt>
      <trkpt lat="44.03678" lon="2.03982">
        <ele>285.6</ele>
        <time>2021-09-05T07:17:36Z</time>
      </trkpt>
      <trkpt lat="44.0368" lon="2.03983">
        <ele>285.8</ele>
        <time>2021-09-05T07:17:37Z</time>
      </trkpt>
      <trkpt lat="44.03683" lon="2.03984">
        <ele>285.8</ele>
        <time>2021-09-05T07:17:38Z</time>
      </trkpt>
      <trkpt lat="44.03686" lon="2.03985">
        <ele>286.2</ele>
        <time>2021-09-05T07:17:39Z</time>
      </trkpt>
      <trkpt lat="44.03688" lon="2.03986">
        <ele>286.2</ele>
        <time>2021-09-05T07:17:40Z</time>
      </trkpt>
      <trkpt lat="44.03691" lon="2.03986">
        <ele>286.2</ele>
        <time>2021-09-05T07:17:41Z</time>
      </trkpt>
      <trkpt lat="44.03693" lon="2.03988">
        <ele>286.4</ele>
        <time>2021-09-05T07:17:42Z</time>
      </trkpt>
      <trkpt lat="44.03696" lon="2.0399">
        <ele>286.4</ele>
        <time>2021-09-05T07:17:43Z</time>
      </trkpt>
      <trkpt lat="44.03699" lon="2.03993">
        <ele>286.4</ele>
        <time>2021-09-05T07:17:44Z</time>
      </trkpt>
      <trkpt lat="44.03703" lon="2.03997">
        <ele>286.4</ele>
        <time>2021-09-05T07:17:45Z</time>
      </trkpt>
      <trkpt lat="44.03705" lon="2.03999">
        <ele>286.4</ele>
        <time>2021-09-05T07:17:46Z</time>
      </trkpt>
      <trkpt lat="44.03708" lon="2.04003">
        <ele>286.6</ele>
        <time>2021-09-05T07:17:47Z</time>
      </trkpt>
      <trkpt lat="44.0371" lon="2.04005">
        <ele>286.6</ele>
        <time>2021-09-05T07:17:48Z</time>
      </trkpt>
      <trkpt lat="44.03713" lon="2.04008">
        <ele>286.8</ele>
        <time>2021-09-05T07:17:49Z</time>
      </trkpt>
      <trkpt lat="44.03713" lon="2.04008">
        <ele>287.2</ele>
        <time>2021-09-05T07:17:50Z</time>
      </trkpt>
      <trkpt lat="44.03718" lon="2.04014">
        <ele>287.2</ele>
        <time>2021-09-05T07:17:51Z</time>
      </trkpt>
      <trkpt lat="44.03721" lon="2.04017">
        <ele>287.4</ele>
        <time>2021-09-05T07:17:52Z</time>
      </trkpt>
      <trkpt lat="44.03724" lon="2.04022">
        <ele>287.4</ele>
        <time>2021-09-05T07:17:53Z</time>
      </trkpt>
      <trkpt lat="44.03727" lon="2.04026">
        <ele>287.6</ele>
        <time>2021-09-05T07:17:54Z</time>
      </trkpt>
      <trkpt lat="44.03729" lon="2.04028">
        <ele>287.6</ele>
        <time>2021-09-05T07:17:55Z</time>
      </trkpt>
      <trkpt lat="44.03731" lon="2.04031">
        <ele>287.6</ele>
        <time>2021-09-05T07:17:56Z</time>
      </trkpt>
      <trkpt lat="44.03734" lon="2.04034">
        <ele>287.8</ele>
        <time>2021-09-05T07:17:57Z</time>
      </trkpt>
      <trkpt lat="44.03737" lon="2.0404">
        <ele>287.8</ele>
        <time>2021-09-05T07:17:58Z</time>
      </trkpt>
      <trkpt lat="44.03739" lon="2.04044">
        <ele>287.8</ele>
        <time>2021-09-05T07:17:59Z</time>
      </trkpt>
      <trkpt lat="44.03741" lon="2.04047">
        <ele>287.8</ele>
        <time>2021-09-05T07:18:00Z</time>
      </trkpt>
      <trkpt lat="44.03743" lon="2.04051">
        <ele>287.8</ele>
        <time>2021-09-05T07:18:01Z</time>
      </trkpt>
      <trkpt lat="44.03745" lon="2.04056">
        <ele>287.8</ele>
        <time>2021-09-05T07:18:02Z</time>
      </trkpt>
      <trkpt lat="44.03747" lon="2.0406">
        <ele>288</ele>
        <time>2021-09-05T07:18:03Z</time>
      </trkpt>
      <trkpt lat="44.0375" lon="2.04065">
        <ele>288.2</ele>
        <time>2021-09-05T07:18:04Z</time>
      </trkpt>
      <trkpt lat="44.03752" lon="2.0407">
        <ele>288.2</ele>
        <time>2021-09-05T07:18:05Z</time>
      </trkpt>
      <trkpt lat="44.03754" lon="2.04073">
        <ele>288.2</ele>
        <time>2021-09-05T07:18:06Z</time>
      </trkpt>
      <trkpt lat="44.03756" lon="2.04078">
        <ele>288.2</ele>
        <time>2021-09-05T07:18:07Z</time>
      </trkpt>
      <trkpt lat="44.03758" lon="2.04082">
        <ele>288.2</ele>
        <time>2021-09-05T07:18:08Z</time>
      </trkpt>
      <trkpt lat="44.03768" lon="2.04102">
        <ele>288.2</ele>
        <time>2021-09-05T07:18:12Z</time>
      </trkpt>
      <trkpt lat="44.03778" lon="2.04123">
        <ele>288</ele>
        <time>2021-09-05T07:18:16Z</time>
      </trkpt>
      <trkpt lat="44.03785" lon="2.04131">
        <ele>288</ele>
        <time>2021-09-05T07:18:18Z</time>
      </trkpt>
      <trkpt lat="44.0379" lon="2.04135">
        <ele>288</ele>
        <time>2021-09-05T07:18:19Z</time>
      </trkpt>
      <trkpt lat="44.03792" lon="2.04138">
        <ele>288</ele>
        <time>2021-09-05T07:18:20Z</time>
      </trkpt>
      <trkpt lat="44.03796" lon="2.0414">
        <ele>288</ele>
        <time>2021-09-05T07:18:21Z</time>
      </trkpt>
      <trkpt lat="44.03799" lon="2.04143">
        <ele>288</ele>
        <time>2021-09-05T07:18:22Z</time>
      </trkpt>
      <trkpt lat="44.03801" lon="2.04145">
        <ele>288</ele>
        <time>2021-09-05T07:18:23Z</time>
      </trkpt>
      <trkpt lat="44.03803" lon="2.04148">
        <ele>288</ele>
        <time>2021-09-05T07:18:24Z</time>
      </trkpt>
      <trkpt lat="44.03809" lon="2.04154">
        <ele>288.6</ele>
        <time>2021-09-05T07:18:27Z</time>
      </trkpt>
      <trkpt lat="44.03813" lon="2.04159">
        <ele>289.2</ele>
        <time>2021-09-05T07:18:29Z</time>
      </trkpt>
      <trkpt lat="44.03815" lon="2.04161">
        <ele>289.2</ele>
        <time>2021-09-05T07:18:30Z</time>
      </trkpt>
      <trkpt lat="44.03817" lon="2.04163">
        <ele>289.6</ele>
        <time>2021-09-05T07:18:31Z</time>
      </trkpt>
      <trkpt lat="44.03819" lon="2.04166">
        <ele>289.8</ele>
        <time>2021-09-05T07:18:32Z</time>
      </trkpt>
      <trkpt lat="44.03821" lon="2.04168">
        <ele>290</ele>
        <time>2021-09-05T07:18:33Z</time>
      </trkpt>
      <trkpt lat="44.03823" lon="2.04171">
        <ele>290.2</ele>
        <time>2021-09-05T07:18:34Z</time>
      </trkpt>
      <trkpt lat="44.03827" lon="2.04176">
        <ele>290.8</ele>
        <time>2021-09-05T07:18:36Z</time>
      </trkpt>
      <trkpt lat="44.03831" lon="2.04181">
        <ele>291.2</ele>
        <time>2021-09-05T07:18:38Z</time>
      </trkpt>
      <trkpt lat="44.03833" lon="2.04183">
        <ele>291.4</ele>
        <time>2021-09-05T07:18:39Z</time>
      </trkpt>
      <trkpt lat="44.03835" lon="2.04185">
        <ele>291.4</ele>
        <time>2021-09-05T07:18:40Z</time>
      </trkpt>
      <trkpt lat="44.03837" lon="2.04187">
        <ele>291.6</ele>
        <time>2021-09-05T07:18:41Z</time>
      </trkpt>
      <trkpt lat="44.0384" lon="2.0419">
        <ele>291.6</ele>
        <time>2021-09-05T07:18:42Z</time>
      </trkpt>
      <trkpt lat="44.03841" lon="2.04191">
        <ele>291.8</ele>
        <time>2021-09-05T07:18:43Z</time>
      </trkpt>
      <trkpt lat="44.03844" lon="2.04194">
        <ele>292</ele>
        <time>2021-09-05T07:18:44Z</time>
      </trkpt>
      <trkpt lat="44.03846" lon="2.04195">
        <ele>292</ele>
        <time>2021-09-05T07:18:45Z</time>
      </trkpt>
      <trkpt lat="44.03848" lon="2.04197">
        <ele>292.2</ele>
        <time>2021-09-05T07:18:46Z</time>
      </trkpt>
      <trkpt lat="44.03851" lon="2.04199">
        <ele>292.4</ele>
        <time>2021-09-05T07:18:47Z</time>
      </trkpt>
      <trkpt lat="44.03854" lon="2.042">
        <ele>292.6</ele>
        <time>2021-09-05T07:18:48Z</time>
      </trkpt>
      <trkpt lat="44.03856" lon="2.04202">
        <ele>292.6</ele>
        <time>2021-09-05T07:18:49Z</time>
      </trkpt>
      <trkpt lat="44.03858" lon="2.04202">
        <ele>292.6</ele>
        <time>2021-09-05T07:18:50Z</time>
      </trkpt>
      <trkpt lat="44.03861" lon="2.04204">
        <ele>292.6</ele>
        <time>2021-09-05T07:18:51Z</time>
      </trkpt>
      <trkpt lat="44.03863" lon="2.04205">
        <ele>292.6</ele>
        <time>2021-09-05T07:18:52Z</time>
      </trkpt>
      <trkpt lat="44.03867" lon="2.04207">
        <ele>292.8</ele>
        <time>2021-09-05T07:18:53Z</time>
      </trkpt>
      <trkpt lat="44.03869" lon="2.04208">
        <ele>292.8</ele>
        <time>2021-09-05T07:18:54Z</time>
      </trkpt>
      <trkpt lat="44.03873" lon="2.0421">
        <ele>293</ele>
        <time>2021-09-05T07:18:55Z</time>
      </trkpt>
      <trkpt lat="44.03876" lon="2.04211">
        <ele>293</ele>
        <time>2021-09-05T07:18:56Z</time>
      </trkpt>
      <trkpt lat="44.03879" lon="2.04213">
        <ele>293</ele>
        <time>2021-09-05T07:18:57Z</time>
      </trkpt>
      <trkpt lat="44.03886" lon="2.04209">
        <ele>292.2</ele>
        <time>2021-09-05T07:19:12Z</time>
      </trkpt>
      <trkpt lat="44.03892" lon="2.04205">
        <ele>292.2</ele>
        <time>2021-09-05T07:19:14Z</time>
      </trkpt>
      <trkpt lat="44.0391" lon="2.04189">
        <ele>291.8</ele>
        <time>2021-09-05T07:19:19Z</time>
      </trkpt>
      <trkpt lat="44.03915" lon="2.04185">
        <ele>291.4</ele>
        <time>2021-09-05T07:19:20Z</time>
      </trkpt>
      <trkpt lat="44.03942" lon="2.04161">
        <ele>290.2</ele>
        <time>2021-09-05T07:19:25Z</time>
      </trkpt>
      <trkpt lat="44.03953" lon="2.0415">
        <ele>289.8</ele>
        <time>2021-09-05T07:19:27Z</time>
      </trkpt>
      <trkpt lat="44.03966" lon="2.04139">
        <ele>289.2</ele>
        <time>2021-09-05T07:19:29Z</time>
      </trkpt>
      <trkpt lat="44.03973" lon="2.04134">
        <ele>288.8</ele>
        <time>2021-09-05T07:19:30Z</time>
      </trkpt>
      <trkpt lat="44.03987" lon="2.04126">
        <ele>288</ele>
        <time>2021-09-05T07:19:32Z</time>
      </trkpt>
      <trkpt lat="44.03993" lon="2.04122">
        <ele>287.8</ele>
        <time>2021-09-05T07:19:33Z</time>
      </trkpt>
      <trkpt lat="44.03998" lon="2.04118">
        <ele>287.6</ele>
        <time>2021-09-05T07:19:34Z</time>
      </trkpt>
      <trkpt lat="44.04006" lon="2.04113">
        <ele>287.4</ele>
        <time>2021-09-05T07:19:35Z</time>
      </trkpt>
      <trkpt lat="44.04012" lon="2.04109">
        <ele>287.2</ele>
        <time>2021-09-05T07:19:36Z</time>
      </trkpt>
      <trkpt lat="44.04017" lon="2.04105">
        <ele>287.2</ele>
        <time>2021-09-05T07:19:37Z</time>
      </trkpt>
      <trkpt lat="44.04022" lon="2.04103">
        <ele>287</ele>
        <time>2021-09-05T07:19:38Z</time>
      </trkpt>
      <trkpt lat="44.04027" lon="2.04101">
        <ele>287</ele>
        <time>2021-09-05T07:19:39Z</time>
      </trkpt>
      <trkpt lat="44.04031" lon="2.04099">
        <ele>287</ele>
        <time>2021-09-05T07:19:40Z</time>
      </trkpt>
      <trkpt lat="44.04036" lon="2.04097">
        <ele>287</ele>
        <time>2021-09-05T07:19:41Z</time>
      </trkpt>
      <trkpt lat="44.0404" lon="2.04095">
        <ele>287</ele>
        <time>2021-09-05T07:19:42Z</time>
      </trkpt>
      <trkpt lat="44.04043" lon="2.04093">
        <ele>287.2</ele>
        <time>2021-09-05T07:19:43Z</time>
      </trkpt>
      <trkpt lat="44.04047" lon="2.04091">
        <ele>287.2</ele>
        <time>2021-09-05T07:19:44Z</time>
      </trkpt>
      <trkpt lat="44.04051" lon="2.0409">
        <ele>287.4</ele>
        <time>2021-09-05T07:19:45Z</time>
      </trkpt>
      <trkpt lat="44.04055" lon="2.04088">
        <ele>287.6</ele>
        <time>2021-09-05T07:19:46Z</time>
      </trkpt>
      <trkpt lat="44.0406" lon="2.04086">
        <ele>287.8</ele>
        <time>2021-09-05T07:19:47Z</time>
      </trkpt>
      <trkpt lat="44.04063" lon="2.04084">
        <ele>288</ele>
        <time>2021-09-05T07:19:48Z</time>
      </trkpt>
      <trkpt lat="44.04067" lon="2.04083">
        <ele>288</ele>
        <time>2021-09-05T07:19:49Z</time>
      </trkpt>
      <trkpt lat="44.04088" lon="2.0408">
        <ele>288.4</ele>
        <time>2021-09-05T07:19:54Z</time>
      </trkpt>
      <trkpt lat="44.04102" lon="2.0408">
        <ele>289</ele>
        <time>2021-09-05T07:19:57Z</time>
      </trkpt>
      <trkpt lat="44.04107" lon="2.0408">
        <ele>289</ele>
        <time>2021-09-05T07:19:58Z</time>
      </trkpt>
      <trkpt lat="44.04111" lon="2.0408">
        <ele>289.2</ele>
        <time>2021-09-05T07:19:59Z</time>
      </trkpt>
      <trkpt lat="44.04116" lon="2.0408">
        <ele>289.2</ele>
        <time>2021-09-05T07:20:00Z</time>
      </trkpt>
      <trkpt lat="44.0412" lon="2.04081">
        <ele>289.4</ele>
        <time>2021-09-05T07:20:01Z</time>
      </trkpt>
      <trkpt lat="44.04124" lon="2.04081">
        <ele>289.4</ele>
        <time>2021-09-05T07:20:02Z</time>
      </trkpt>
      <trkpt lat="44.04128" lon="2.04082">
        <ele>289.4</ele>
        <time>2021-09-05T07:20:03Z</time>
      </trkpt>
      <trkpt lat="44.04132" lon="2.04083">
        <ele>289.6</ele>
        <time>2021-09-05T07:20:04Z</time>
      </trkpt>
      <trkpt lat="44.04135" lon="2.04084">
        <ele>289.6</ele>
        <time>2021-09-05T07:20:05Z</time>
      </trkpt>
      <trkpt lat="44.04151" lon="2.04084">
        <ele>290</ele>
        <time>2021-09-05T07:20:09Z</time>
      </trkpt>
      <trkpt lat="44.04159" lon="2.04084">
        <ele>290</ele>
        <time>2021-09-05T07:20:11Z</time>
      </trkpt>
      <trkpt lat="44.04182" lon="2.04082">
        <ele>290.8</ele>
        <time>2021-09-05T07:20:17Z</time>
      </trkpt>
      <trkpt lat="44.04186" lon="2.04081">
        <ele>291</ele>
        <time>2021-09-05T07:20:18Z</time>
      </trkpt>
      <trkpt lat="44.0419" lon="2.0408">
        <ele>291.2</ele>
        <time>2021-09-05T07:20:19Z</time>
      </trkpt>
      <trkpt lat="44.04205" lon="2.04076">
        <ele>291.8</ele>
        <time>2021-09-05T07:20:23Z</time>
      </trkpt>
      <trkpt lat="44.0421" lon="2.04075">
        <ele>292</ele>
        <time>2021-09-05T07:20:24Z</time>
      </trkpt>
      <trkpt lat="44.04214" lon="2.04073">
        <ele>292.2</ele>
        <time>2021-09-05T07:20:25Z</time>
      </trkpt>
      <trkpt lat="44.04218" lon="2.04073">
        <ele>292.4</ele>
        <time>2021-09-05T07:20:26Z</time>
      </trkpt>
      <trkpt lat="44.04223" lon="2.04072">
        <ele>292.4</ele>
        <time>2021-09-05T07:20:27Z</time>
      </trkpt>
      <trkpt lat="44.04228" lon="2.04071">
        <ele>292.6</ele>
        <time>2021-09-05T07:20:28Z</time>
      </trkpt>
      <trkpt lat="44.04232" lon="2.04071">
        <ele>292.6</ele>
        <time>2021-09-05T07:20:29Z</time>
      </trkpt>
      <trkpt lat="44.04237" lon="2.0407">
        <ele>292.6</ele>
        <time>2021-09-05T07:20:30Z</time>
      </trkpt>
      <trkpt lat="44.04241" lon="2.04069">
        <ele>292.8</ele>
        <time>2021-09-05T07:20:31Z</time>
      </trkpt>
      <trkpt lat="44.04245" lon="2.04068">
        <ele>292.8</ele>
        <time>2021-09-05T07:20:32Z</time>
      </trkpt>
      <trkpt lat="44.0425" lon="2.04068">
        <ele>292.8</ele>
        <time>2021-09-05T07:20:33Z</time>
      </trkpt>
      <trkpt lat="44.04254" lon="2.04068">
        <ele>292.8</ele>
        <time>2021-09-05T07:20:34Z</time>
      </trkpt>
      <trkpt lat="44.04258" lon="2.04067">
        <ele>293</ele>
        <time>2021-09-05T07:20:35Z</time>
      </trkpt>
      <trkpt lat="44.04263" lon="2.04067">
        <ele>293</ele>
        <time>2021-09-05T07:20:36Z</time>
      </trkpt>
      <trkpt lat="44.04267" lon="2.04066">
        <ele>293</ele>
        <time>2021-09-05T07:20:37Z</time>
      </trkpt>
      <trkpt lat="44.04271" lon="2.04066">
        <ele>293.2</ele>
        <time>2021-09-05T07:20:38Z</time>
      </trkpt>
      <trkpt lat="44.04275" lon="2.04066">
        <ele>293.2</ele>
        <time>2021-09-05T07:20:39Z</time>
      </trkpt>
      <trkpt lat="44.04279" lon="2.04066">
        <ele>293.2</ele>
        <time>2021-09-05T07:20:40Z</time>
      </trkpt>
      <trkpt lat="44.04283" lon="2.04065">
        <ele>293.2</ele>
        <time>2021-09-05T07:20:41Z</time>
      </trkpt>
      <trkpt lat="44.04287" lon="2.04065">
        <ele>293.2</ele>
        <time>2021-09-05T07:20:42Z</time>
      </trkpt>
      <trkpt lat="44.04291" lon="2.04064">
        <ele>293.2</ele>
        <time>2021-09-05T07:20:43Z</time>
      </trkpt>
      <trkpt lat="44.04295" lon="2.04064">
        <ele>293.2</ele>
        <time>2021-09-05T07:20:44Z</time>
      </trkpt>
      <trkpt lat="44.04298" lon="2.04063">
        <ele>293.4</ele>
        <time>2021-09-05T07:20:45Z</time>
      </trkpt>
      <trkpt lat="44.04301" lon="2.04062">
        <ele>293.4</ele>
        <time>2021-09-05T07:20:46Z</time>
      </trkpt>
      <trkpt lat="44.04304" lon="2.04062">
        <ele>293.6</ele>
        <time>2021-09-05T07:20:47Z</time>
      </trkpt>
      <trkpt lat="44.04307" lon="2.04062">
        <ele>293.6</ele>
        <time>2021-09-05T07:20:48Z</time>
      </trkpt>
      <trkpt lat="44.0431" lon="2.04063">
        <ele>293.4</ele>
        <time>2021-09-05T07:20:49Z</time>
      </trkpt>
      <trkpt lat="44.04332" lon="2.04063">
        <ele>293.8</ele>
        <time>2021-09-05T07:20:55Z</time>
      </trkpt>
      <trkpt lat="44.04336" lon="2.04063">
        <ele>293.8</ele>
        <time>2021-09-05T07:20:56Z</time>
      </trkpt>
      <trkpt lat="44.04348" lon="2.04067">
        <ele>294</ele>
        <time>2021-09-05T07:20:59Z</time>
      </trkpt>
      <trkpt lat="44.04352" lon="2.04068">
        <ele>294.2</ele>
        <time>2021-09-05T07:21:00Z</time>
      </trkpt>
      <trkpt lat="44.04356" lon="2.0407">
        <ele>294.2</ele>
        <time>2021-09-05T07:21:01Z</time>
      </trkpt>
      <trkpt lat="44.04361" lon="2.04072">
        <ele>294.2</ele>
        <time>2021-09-05T07:21:02Z</time>
      </trkpt>
      <trkpt lat="44.04364" lon="2.04074">
        <ele>294.2</ele>
        <time>2021-09-05T07:21:03Z</time>
      </trkpt>
      <trkpt lat="44.04366" lon="2.04077">
        <ele>294.4</ele>
        <time>2021-09-05T07:21:04Z</time>
      </trkpt>
      <trkpt lat="44.04367" lon="2.04081">
        <ele>294.4</ele>
        <time>2021-09-05T07:21:05Z</time>
      </trkpt>
      <trkpt lat="44.04367" lon="2.04084">
        <ele>294.6</ele>
        <time>2021-09-05T07:21:06Z</time>
      </trkpt>
      <trkpt lat="44.04366" lon="2.04087">
        <ele>294.6</ele>
        <time>2021-09-05T07:21:07Z</time>
      </trkpt>
      <trkpt lat="44.04365" lon="2.0409">
        <ele>295</ele>
        <time>2021-09-05T07:21:08Z</time>
      </trkpt>
      <trkpt lat="44.04364" lon="2.04093">
        <ele>295.2</ele>
        <time>2021-09-05T07:21:09Z</time>
      </trkpt>
      <trkpt lat="44.04362" lon="2.04095">
        <ele>295.2</ele>
        <time>2021-09-05T07:21:10Z</time>
      </trkpt>
      <trkpt lat="44.04361" lon="2.04098">
        <ele>295.4</ele>
        <time>2021-09-05T07:21:11Z</time>
      </trkpt>
      <trkpt lat="44.04359" lon="2.04101">
        <ele>295.4</ele>
        <time>2021-09-05T07:21:12Z</time>
      </trkpt>
      <trkpt lat="44.04346" lon="2.04132">
        <ele>296</ele>
        <time>2021-09-05T07:21:21Z</time>
      </trkpt>
      <trkpt lat="44.04341" lon="2.04141">
        <ele>296.2</ele>
        <time>2021-09-05T07:21:24Z</time>
      </trkpt>
      <trkpt lat="44.04332" lon="2.04162">
        <ele>296.8</ele>
        <time>2021-09-05T07:21:30Z</time>
      </trkpt>
      <trkpt lat="44.0433" lon="2.04165">
        <ele>297</ele>
        <time>2021-09-05T07:21:31Z</time>
      </trkpt>
      <trkpt lat="44.04328" lon="2.04168">
        <ele>297</ele>
        <time>2021-09-05T07:21:32Z</time>
      </trkpt>
      <trkpt lat="44.04327" lon="2.04171">
        <ele>297</ele>
        <time>2021-09-05T07:21:33Z</time>
      </trkpt>
      <trkpt lat="44.04325" lon="2.04174">
        <ele>297.4</ele>
        <time>2021-09-05T07:21:34Z</time>
      </trkpt>
      <trkpt lat="44.04324" lon="2.04176">
        <ele>297.4</ele>
        <time>2021-09-05T07:21:35Z</time>
      </trkpt>
      <trkpt lat="44.04322" lon="2.04179">
        <ele>297.8</ele>
        <time>2021-09-05T07:21:36Z</time>
      </trkpt>
      <trkpt lat="44.04321" lon="2.04182">
        <ele>298</ele>
        <time>2021-09-05T07:21:37Z</time>
      </trkpt>
      <trkpt lat="44.04319" lon="2.04184">
        <ele>298.2</ele>
        <time>2021-09-05T07:21:38Z</time>
      </trkpt>
      <trkpt lat="44.04318" lon="2.04187">
        <ele>298.4</ele>
        <time>2021-09-05T07:21:39Z</time>
      </trkpt>
      <trkpt lat="44.04316" lon="2.0419">
        <ele>298.4</ele>
        <time>2021-09-05T07:21:40Z</time>
      </trkpt>
      <trkpt lat="44.04315" lon="2.04193">
        <ele>298.6</ele>
        <time>2021-09-05T07:21:41Z</time>
      </trkpt>
      <trkpt lat="44.04313" lon="2.04196">
        <ele>299</ele>
        <time>2021-09-05T07:21:42Z</time>
      </trkpt>
      <trkpt lat="44.04312" lon="2.04198">
        <ele>299.2</ele>
        <time>2021-09-05T07:21:43Z</time>
      </trkpt>
      <trkpt lat="44.0431" lon="2.04201">
        <ele>299.4</ele>
        <time>2021-09-05T07:21:44Z</time>
      </trkpt>
      <trkpt lat="44.04309" lon="2.04203">
        <ele>299.6</ele>
        <time>2021-09-05T07:21:45Z</time>
      </trkpt>
      <trkpt lat="44.04307" lon="2.04206">
        <ele>299.6</ele>
        <time>2021-09-05T07:21:46Z</time>
      </trkpt>
      <trkpt lat="44.04306" lon="2.04208">
        <ele>299.8</ele>
        <time>2021-09-05T07:21:47Z</time>
      </trkpt>
      <trkpt lat="44.04304" lon="2.04211">
        <ele>300.2</ele>
        <time>2021-09-05T07:21:48Z</time>
      </trkpt>
      <trkpt lat="44.04302" lon="2.04214">
        <ele>300.2</ele>
        <time>2021-09-05T07:21:49Z</time>
      </trkpt>
      <trkpt lat="44.04301" lon="2.04216">
        <ele>300.4</ele>
        <time>2021-09-05T07:21:50Z</time>
      </trkpt>
      <trkpt lat="44.043" lon="2.04219">
        <ele>300.6</ele>
        <time>2021-09-05T07:21:51Z</time>
      </trkpt>
      <trkpt lat="44.04298" lon="2.04221">
        <ele>301</ele>
        <time>2021-09-05T07:21:52Z</time>
      </trkpt>
      <trkpt lat="44.04297" lon="2.04224">
        <ele>301</ele>
        <time>2021-09-05T07:21:53Z</time>
      </trkpt>
      <trkpt lat="44.04295" lon="2.04226">
        <ele>301.2</ele>
        <time>2021-09-05T07:21:54Z</time>
      </trkpt>
      <trkpt lat="44.04294" lon="2.04228">
        <ele>301.2</ele>
        <time>2021-09-05T07:21:55Z</time>
      </trkpt>
      <trkpt lat="44.04292" lon="2.04231">
        <ele>301.4</ele>
        <time>2021-09-05T07:21:56Z</time>
      </trkpt>
      <trkpt lat="44.04291" lon="2.04233">
        <ele>301.8</ele>
        <time>2021-09-05T07:21:57Z</time>
      </trkpt>
      <trkpt lat="44.0429" lon="2.04236">
        <ele>301.8</ele>
        <time>2021-09-05T07:21:58Z</time>
      </trkpt>
      <trkpt lat="44.04289" lon="2.04239">
        <ele>302</ele>
        <time>2021-09-05T07:21:59Z</time>
      </trkpt>
      <trkpt lat="44.04287" lon="2.04241">
        <ele>302.2</ele>
        <time>2021-09-05T07:22:00Z</time>
      </trkpt>
      <trkpt lat="44.04286" lon="2.04243">
        <ele>302.4</ele>
        <time>2021-09-05T07:22:01Z</time>
      </trkpt>
      <trkpt lat="44.04285" lon="2.04245">
        <ele>302.6</ele>
        <time>2021-09-05T07:22:02Z</time>
      </trkpt>
      <trkpt lat="44.04283" lon="2.04246">
        <ele>302.6</ele>
        <time>2021-09-05T07:22:03Z</time>
      </trkpt>
      <trkpt lat="44.04282" lon="2.04248">
        <ele>302.8</ele>
        <time>2021-09-05T07:22:04Z</time>
      </trkpt>
      <trkpt lat="44.04281" lon="2.04251">
        <ele>302.8</ele>
        <time>2021-09-05T07:22:05Z</time>
      </trkpt>
      <trkpt lat="44.0428" lon="2.04254">
        <ele>303.2</ele>
        <time>2021-09-05T07:22:06Z</time>
      </trkpt>
      <trkpt lat="44.04279" lon="2.04257">
        <ele>303.4</ele>
        <time>2021-09-05T07:22:07Z</time>
      </trkpt>
      <trkpt lat="44.04278" lon="2.0426">
        <ele>303.6</ele>
        <time>2021-09-05T07:22:08Z</time>
      </trkpt>
      <trkpt lat="44.04277" lon="2.04262">
        <ele>303.8</ele>
        <time>2021-09-05T07:22:09Z</time>
      </trkpt>
      <trkpt lat="44.04276" lon="2.04265">
        <ele>303.8</ele>
        <time>2021-09-05T07:22:10Z</time>
      </trkpt>
      <trkpt lat="44.04275" lon="2.04268">
        <ele>304</ele>
        <time>2021-09-05T07:22:11Z</time>
      </trkpt>
      <trkpt lat="44.04274" lon="2.04271">
        <ele>304.2</ele>
        <time>2021-09-05T07:22:12Z</time>
      </trkpt>
      <trkpt lat="44.04273" lon="2.04273">
        <ele>304.4</ele>
        <time>2021-09-05T07:22:13Z</time>
      </trkpt>
      <trkpt lat="44.04273" lon="2.04275">
        <ele>304.6</ele>
        <time>2021-09-05T07:22:14Z</time>
      </trkpt>
      <trkpt lat="44.04272" lon="2.04278">
        <ele>304.8</ele>
        <time>2021-09-05T07:22:15Z</time>
      </trkpt>
      <trkpt lat="44.04272" lon="2.0428">
        <ele>304.8</ele>
        <time>2021-09-05T07:22:16Z</time>
      </trkpt>
      <trkpt lat="44.04271" lon="2.04281">
        <ele>305</ele>
        <time>2021-09-05T07:22:17Z</time>
      </trkpt>
      <trkpt lat="44.04271" lon="2.04284">
        <ele>305.2</ele>
        <time>2021-09-05T07:22:18Z</time>
      </trkpt>
      <trkpt lat="44.04272" lon="2.04286">
        <ele>305.2</ele>
        <time>2021-09-05T07:22:19Z</time>
      </trkpt>
      <trkpt lat="44.04273" lon="2.04289">
        <ele>305.4</ele>
        <time>2021-09-05T07:22:20Z</time>
      </trkpt>
      <trkpt lat="44.04275" lon="2.04291">
        <ele>305.4</ele>
        <time>2021-09-05T07:22:21Z</time>
      </trkpt>
      <trkpt lat="44.04277" lon="2.04294">
        <ele>305.6</ele>
        <time>2021-09-05T07:22:22Z</time>
      </trkpt>
      <trkpt lat="44.04279" lon="2.04296">
        <ele>305.6</ele>
        <time>2021-09-05T07:22:23Z</time>
      </trkpt>
      <trkpt lat="44.04282" lon="2.04299">
        <ele>306</ele>
        <time>2021-09-05T07:22:24Z</time>
      </trkpt>
      <trkpt lat="44.04284" lon="2.04302">
        <ele>306.2</ele>
        <time>2021-09-05T07:22:25Z</time>
      </trkpt>
      <trkpt lat="44.04286" lon="2.04305">
        <ele>306.2</ele>
        <time>2021-09-05T07:22:26Z</time>
      </trkpt>
      <trkpt lat="44.04289" lon="2.04307">
        <ele>306.4</ele>
        <time>2021-09-05T07:22:27Z</time>
      </trkpt>
      <trkpt lat="44.04291" lon="2.04309">
        <ele>306.4</ele>
        <time>2021-09-05T07:22:28Z</time>
      </trkpt>
      <trkpt lat="44.04293" lon="2.04312">
        <ele>306.6</ele>
        <time>2021-09-05T07:22:29Z</time>
      </trkpt>
      <trkpt lat="44.04295" lon="2.04314">
        <ele>306.8</ele>
        <time>2021-09-05T07:22:30Z</time>
      </trkpt>
      <trkpt lat="44.04297" lon="2.04315">
        <ele>307</ele>
        <time>2021-09-05T07:22:31Z</time>
      </trkpt>
      <trkpt lat="44.04299" lon="2.04318">
        <ele>307</ele>
        <time>2021-09-05T07:22:32Z</time>
      </trkpt>
      <trkpt lat="44.04301" lon="2.0432">
        <ele>307</ele>
        <time>2021-09-05T07:22:33Z</time>
      </trkpt>
      <trkpt lat="44.04304" lon="2.04322">
        <ele>307</ele>
        <time>2021-09-05T07:22:34Z</time>
      </trkpt>
      <trkpt lat="44.04306" lon="2.04325">
        <ele>307</ele>
        <time>2021-09-05T07:22:35Z</time>
      </trkpt>
      <trkpt lat="44.04309" lon="2.04328">
        <ele>307.2</ele>
        <time>2021-09-05T07:22:36Z</time>
      </trkpt>
      <trkpt lat="44.04313" lon="2.04331">
        <ele>307.2</ele>
        <time>2021-09-05T07:22:37Z</time>
      </trkpt>
      <trkpt lat="44.04316" lon="2.04334">
        <ele>307.2</ele>
        <time>2021-09-05T07:22:38Z</time>
      </trkpt>
      <trkpt lat="44.0432" lon="2.04338">
        <ele>307.2</ele>
        <time>2021-09-05T07:22:39Z</time>
      </trkpt>
      <trkpt lat="44.04323" lon="2.04341">
        <ele>307.2</ele>
        <time>2021-09-05T07:22:40Z</time>
      </trkpt>
      <trkpt lat="44.04327" lon="2.04344">
        <ele>307</ele>
        <time>2021-09-05T07:22:41Z</time>
      </trkpt>
      <trkpt lat="44.0433" lon="2.04347">
        <ele>307</ele>
        <time>2021-09-05T07:22:42Z</time>
      </trkpt>
      <trkpt lat="44.04333" lon="2.0435">
        <ele>307</ele>
        <time>2021-09-05T07:22:43Z</time>
      </trkpt>
      <trkpt lat="44.04336" lon="2.04354">
        <ele>307</ele>
        <time>2021-09-05T07:22:44Z</time>
      </trkpt>
      <trkpt lat="44.0434" lon="2.04357">
        <ele>307</ele>
        <time>2021-09-05T07:22:45Z</time>
      </trkpt>
      <trkpt lat="44.04343" lon="2.04361">
        <ele>307</ele>
        <time>2021-09-05T07:22:46Z</time>
      </trkpt>
      <trkpt lat="44.04347" lon="2.04364">
        <ele>307.4</ele>
        <time>2021-09-05T07:22:47Z</time>
      </trkpt>
      <trkpt lat="44.0435" lon="2.04368">
        <ele>307.4</ele>
        <time>2021-09-05T07:22:48Z</time>
      </trkpt>
      <trkpt lat="44.04353" lon="2.04372">
        <ele>307.4</ele>
        <time>2021-09-05T07:22:49Z</time>
      </trkpt>
      <trkpt lat="44.04365" lon="2.04385">
        <ele>308</ele>
        <time>2021-09-05T07:22:53Z</time>
      </trkpt>
      <trkpt lat="44.04371" lon="2.04393">
        <ele>308.2</ele>
        <time>2021-09-05T07:22:55Z</time>
      </trkpt>
      <trkpt lat="44.04374" lon="2.04397">
        <ele>308.2</ele>
        <time>2021-09-05T07:22:56Z</time>
      </trkpt>
      <trkpt lat="44.04376" lon="2.044">
        <ele>308.4</ele>
        <time>2021-09-05T07:22:57Z</time>
      </trkpt>
      <trkpt lat="44.04379" lon="2.04405">
        <ele>308.4</ele>
        <time>2021-09-05T07:22:58Z</time>
      </trkpt>
      <trkpt lat="44.04381" lon="2.04409">
        <ele>308.6</ele>
        <time>2021-09-05T07:22:59Z</time>
      </trkpt>
      <trkpt lat="44.04383" lon="2.04412">
        <ele>308.8</ele>
        <time>2021-09-05T07:23:00Z</time>
      </trkpt>
      <trkpt lat="44.04385" lon="2.04415">
        <ele>308.8</ele>
        <time>2021-09-05T07:23:01Z</time>
      </trkpt>
      <trkpt lat="44.04387" lon="2.04418">
        <ele>309.2</ele>
        <time>2021-09-05T07:23:02Z</time>
      </trkpt>
      <trkpt lat="44.0439" lon="2.0442">
        <ele>309.2</ele>
        <time>2021-09-05T07:23:03Z</time>
      </trkpt>
      <trkpt lat="44.04394" lon="2.0442">
        <ele>309.2</ele>
        <time>2021-09-05T07:23:04Z</time>
      </trkpt>
      <trkpt lat="44.04397" lon="2.04419">
        <ele>309.2</ele>
        <time>2021-09-05T07:23:05Z</time>
      </trkpt>
      <trkpt lat="44.04401" lon="2.04418">
        <ele>309.4</ele>
        <time>2021-09-05T07:23:06Z</time>
      </trkpt>
      <trkpt lat="44.04405" lon="2.04416">
        <ele>309.4</ele>
        <time>2021-09-05T07:23:07Z</time>
      </trkpt>
      <trkpt lat="44.04408" lon="2.04415">
        <ele>309.4</ele>
        <time>2021-09-05T07:23:08Z</time>
      </trkpt>
      <trkpt lat="44.04418" lon="2.0441">
        <ele>309.4</ele>
        <time>2021-09-05T07:23:10Z</time>
      </trkpt>
      <trkpt lat="44.04427" lon="2.04405">
        <ele>309</ele>
        <time>2021-09-05T07:23:12Z</time>
      </trkpt>
      <trkpt lat="44.04441" lon="2.04403">
        <ele>308.6</ele>
        <time>2021-09-05T07:23:14Z</time>
      </trkpt>
      <trkpt lat="44.04455" lon="2.04405">
        <ele>308.2</ele>
        <time>2021-09-05T07:23:16Z</time>
      </trkpt>
      <trkpt lat="44.04463" lon="2.04408">
        <ele>307.6</ele>
        <time>2021-09-05T07:23:17Z</time>
      </trkpt>
      <trkpt lat="44.0447" lon="2.04412">
        <ele>307</ele>
        <time>2021-09-05T07:23:18Z</time>
      </trkpt>
      <trkpt lat="44.04486" lon="2.04421">
        <ele>306.2</ele>
        <time>2021-09-05T07:23:20Z</time>
      </trkpt>
      <trkpt lat="44.04492" lon="2.04424">
        <ele>306</ele>
        <time>2021-09-05T07:23:21Z</time>
      </trkpt>
      <trkpt lat="44.04499" lon="2.04427">
        <ele>305.4</ele>
        <time>2021-09-05T07:23:22Z</time>
      </trkpt>
      <trkpt lat="44.04505" lon="2.04431">
        <ele>305.2</ele>
        <time>2021-09-05T07:23:23Z</time>
      </trkpt>
      <trkpt lat="44.04512" lon="2.04434">
        <ele>305</ele>
        <time>2021-09-05T07:23:24Z</time>
      </trkpt>
      <trkpt lat="44.04518" lon="2.04437">
        <ele>304.6</ele>
        <time>2021-09-05T07:23:25Z</time>
      </trkpt>
      <trkpt lat="44.04524" lon="2.0444">
        <ele>304.4</ele>
        <time>2021-09-05T07:23:26Z</time>
      </trkpt>
      <trkpt lat="44.04529" lon="2.04442">
        <ele>304.2</ele>
        <time>2021-09-05T07:23:27Z</time>
      </trkpt>
      <trkpt lat="44.04534" lon="2.04445">
        <ele>304.2</ele>
        <time>2021-09-05T07:23:28Z</time>
      </trkpt>
      <trkpt lat="44.04539" lon="2.04447">
        <ele>304.2</ele>
        <time>2021-09-05T07:23:29Z</time>
      </trkpt>
      <trkpt lat="44.04544" lon="2.04449">
        <ele>304.2</ele>
        <time>2021-09-05T07:23:30Z</time>
      </trkpt>
      <trkpt lat="44.04548" lon="2.04452">
        <ele>304.2</ele>
        <time>2021-09-05T07:23:31Z</time>
      </trkpt>
      <trkpt lat="44.04552" lon="2.04454">
        <ele>304.4</ele>
        <time>2021-09-05T07:23:32Z</time>
      </trkpt>
      <trkpt lat="44.04555" lon="2.04455">
        <ele>304.4</ele>
        <time>2021-09-05T07:23:33Z</time>
      </trkpt>
      <trkpt lat="44.04559" lon="2.04456">
        <ele>304.6</ele>
        <time>2021-09-05T07:23:34Z</time>
      </trkpt>
      <trkpt lat="44.04563" lon="2.04456">
        <ele>304.4</ele>
        <time>2021-09-05T07:23:35Z</time>
      </trkpt>
      <trkpt lat="44.04567" lon="2.04456">
        <ele>304.6</ele>
        <time>2021-09-05T07:23:36Z</time>
      </trkpt>
      <trkpt lat="44.04578" lon="2.04454">
        <ele>305</ele>
        <time>2021-09-05T07:23:39Z</time>
      </trkpt>
      <trkpt lat="44.04582" lon="2.04453">
        <ele>305.2</ele>
        <time>2021-09-05T07:23:40Z</time>
      </trkpt>
      <trkpt lat="44.04585" lon="2.04453">
        <ele>305.6</ele>
        <time>2021-09-05T07:23:41Z</time>
      </trkpt>
      <trkpt lat="44.04589" lon="2.04452">
        <ele>305.8</ele>
        <time>2021-09-05T07:23:42Z</time>
      </trkpt>
      <trkpt lat="44.04596" lon="2.04451">
        <ele>306.6</ele>
        <time>2021-09-05T07:23:44Z</time>
      </trkpt>
      <trkpt lat="44.04599" lon="2.0445">
        <ele>307</ele>
        <time>2021-09-05T07:23:45Z</time>
      </trkpt>
      <trkpt lat="44.04602" lon="2.04448">
        <ele>307</ele>
        <time>2021-09-05T07:23:46Z</time>
      </trkpt>
      <trkpt lat="44.04604" lon="2.04446">
        <ele>307.6</ele>
        <time>2021-09-05T07:23:47Z</time>
      </trkpt>
      <trkpt lat="44.04606" lon="2.04445">
        <ele>307.8</ele>
        <time>2021-09-05T07:23:48Z</time>
      </trkpt>
      <trkpt lat="44.04608" lon="2.04444">
        <ele>308</ele>
        <time>2021-09-05T07:23:49Z</time>
      </trkpt>
      <trkpt lat="44.04613" lon="2.04445">
        <ele>308.8</ele>
        <time>2021-09-05T07:23:51Z</time>
      </trkpt>
      <trkpt lat="44.04615" lon="2.04446">
        <ele>309.2</ele>
        <time>2021-09-05T07:23:52Z</time>
      </trkpt>
      <trkpt lat="44.04617" lon="2.04448">
        <ele>309.4</ele>
        <time>2021-09-05T07:23:53Z</time>
      </trkpt>
      <trkpt lat="44.04618" lon="2.0445">
        <ele>309.8</ele>
        <time>2021-09-05T07:23:54Z</time>
      </trkpt>
      <trkpt lat="44.0462" lon="2.04452">
        <ele>309.8</ele>
        <time>2021-09-05T07:23:55Z</time>
      </trkpt>
      <trkpt lat="44.04622" lon="2.04455">
        <ele>310.2</ele>
        <time>2021-09-05T07:23:56Z</time>
      </trkpt>
      <trkpt lat="44.04623" lon="2.04458">
        <ele>310.8</ele>
        <time>2021-09-05T07:23:57Z</time>
      </trkpt>
      <trkpt lat="44.04624" lon="2.04461">
        <ele>310.8</ele>
        <time>2021-09-05T07:23:58Z</time>
      </trkpt>
      <trkpt lat="44.04625" lon="2.04464">
        <ele>311</ele>
        <time>2021-09-05T07:23:59Z</time>
      </trkpt>
      <trkpt lat="44.04626" lon="2.04467">
        <ele>311.2</ele>
        <time>2021-09-05T07:24:00Z</time>
      </trkpt>
      <trkpt lat="44.04628" lon="2.04469">
        <ele>311.4</ele>
        <time>2021-09-05T07:24:01Z</time>
      </trkpt>
      <trkpt lat="44.0463" lon="2.0447">
        <ele>311.6</ele>
        <time>2021-09-05T07:24:02Z</time>
      </trkpt>
      <trkpt lat="44.04631" lon="2.04471">
        <ele>311.6</ele>
        <time>2021-09-05T07:24:03Z</time>
      </trkpt>
      <trkpt lat="44.04633" lon="2.04472">
        <ele>311.8</ele>
        <time>2021-09-05T07:24:04Z</time>
      </trkpt>
      <trkpt lat="44.04635" lon="2.04473">
        <ele>311.8</ele>
        <time>2021-09-05T07:24:05Z</time>
      </trkpt>
      <trkpt lat="44.04637" lon="2.04474">
        <ele>312</ele>
        <time>2021-09-05T07:24:06Z</time>
      </trkpt>
      <trkpt lat="44.04639" lon="2.04475">
        <ele>312</ele>
        <time>2021-09-05T07:24:07Z</time>
      </trkpt>
      <trkpt lat="44.04641" lon="2.04476">
        <ele>312</ele>
        <time>2021-09-05T07:24:08Z</time>
      </trkpt>
      <trkpt lat="44.04644" lon="2.04478">
        <ele>312</ele>
        <time>2021-09-05T07:24:09Z</time>
      </trkpt>
      <trkpt lat="44.04647" lon="2.04478">
        <ele>312.2</ele>
        <time>2021-09-05T07:24:10Z</time>
      </trkpt>
      <trkpt lat="44.04649" lon="2.04478">
        <ele>312.4</ele>
        <time>2021-09-05T07:24:11Z</time>
      </trkpt>
      <trkpt lat="44.04651" lon="2.04478">
        <ele>312.4</ele>
        <time>2021-09-05T07:24:12Z</time>
      </trkpt>
      <trkpt lat="44.04654" lon="2.04479">
        <ele>312.6</ele>
        <time>2021-09-05T07:24:13Z</time>
      </trkpt>
      <trkpt lat="44.04657" lon="2.04479">
        <ele>312.6</ele>
        <time>2021-09-05T07:24:14Z</time>
      </trkpt>
      <trkpt lat="44.04659" lon="2.0448">
        <ele>312.6</ele>
        <time>2021-09-05T07:24:15Z</time>
      </trkpt>
      <trkpt lat="44.04662" lon="2.0448">
        <ele>312.8</ele>
        <time>2021-09-05T07:24:16Z</time>
      </trkpt>
      <trkpt lat="44.04664" lon="2.04481">
        <ele>312.8</ele>
        <time>2021-09-05T07:24:17Z</time>
      </trkpt>
      <trkpt lat="44.04666" lon="2.04482">
        <ele>313</ele>
        <time>2021-09-05T07:24:18Z</time>
      </trkpt>
      <trkpt lat="44.04669" lon="2.04482">
        <ele>313</ele>
        <time>2021-09-05T07:24:19Z</time>
      </trkpt>
      <trkpt lat="44.04671" lon="2.04482">
        <ele>313</ele>
        <time>2021-09-05T07:24:20Z</time>
      </trkpt>
      <trkpt lat="44.04673" lon="2.04483">
        <ele>313.2</ele>
        <time>2021-09-05T07:24:21Z</time>
      </trkpt>
      <trkpt lat="44.04675" lon="2.04483">
        <ele>313.2</ele>
        <time>2021-09-05T07:24:22Z</time>
      </trkpt>
      <trkpt lat="44.04677" lon="2.04484">
        <ele>313.4</ele>
        <time>2021-09-05T07:24:23Z</time>
      </trkpt>
      <trkpt lat="44.0468" lon="2.04485">
        <ele>313.4</ele>
        <time>2021-09-05T07:24:24Z</time>
      </trkpt>
      <trkpt lat="44.04682" lon="2.04486">
        <ele>313.6</ele>
        <time>2021-09-05T07:24:25Z</time>
      </trkpt>
      <trkpt lat="44.04684" lon="2.04487">
        <ele>313.6</ele>
        <time>2021-09-05T07:24:26Z</time>
      </trkpt>
      <trkpt lat="44.04687" lon="2.04488">
        <ele>313.8</ele>
        <time>2021-09-05T07:24:27Z</time>
      </trkpt>
      <trkpt lat="44.04689" lon="2.04488">
        <ele>313.8</ele>
        <time>2021-09-05T07:24:28Z</time>
      </trkpt>
      <trkpt lat="44.04692" lon="2.04489">
        <ele>313.8</ele>
        <time>2021-09-05T07:24:29Z</time>
      </trkpt>
      <trkpt lat="44.04694" lon="2.04489">
        <ele>314</ele>
        <time>2021-09-05T07:24:30Z</time>
      </trkpt>
      <trkpt lat="44.04697" lon="2.0449">
        <ele>314.2</ele>
        <time>2021-09-05T07:24:31Z</time>
      </trkpt>
      <trkpt lat="44.04699" lon="2.0449">
        <ele>314.2</ele>
        <time>2021-09-05T07:24:32Z</time>
      </trkpt>
      <trkpt lat="44.04702" lon="2.04491">
        <ele>314.4</ele>
        <time>2021-09-05T07:24:33Z</time>
      </trkpt>
      <trkpt lat="44.04704" lon="2.04491">
        <ele>314.6</ele>
        <time>2021-09-05T07:24:34Z</time>
      </trkpt>
      <trkpt lat="44.04707" lon="2.04491">
        <ele>314.8</ele>
        <time>2021-09-05T07:24:35Z</time>
      </trkpt>
      <trkpt lat="44.04709" lon="2.04491">
        <ele>315</ele>
        <time>2021-09-05T07:24:36Z</time>
      </trkpt>
      <trkpt lat="44.04712" lon="2.04491">
        <ele>315</ele>
        <time>2021-09-05T07:24:37Z</time>
      </trkpt>
      <trkpt lat="44.04715" lon="2.04491">
        <ele>315.2</ele>
        <time>2021-09-05T07:24:38Z</time>
      </trkpt>
      <trkpt lat="44.04718" lon="2.0449">
        <ele>315.2</ele>
        <time>2021-09-05T07:24:39Z</time>
      </trkpt>
      <trkpt lat="44.0472" lon="2.0449">
        <ele>315.4</ele>
        <time>2021-09-05T07:24:40Z</time>
      </trkpt>
      <trkpt lat="44.04723" lon="2.0449">
        <ele>315.6</ele>
        <time>2021-09-05T07:24:41Z</time>
      </trkpt>
      <trkpt lat="44.04726" lon="2.04489">
        <ele>315.8</ele>
        <time>2021-09-05T07:24:42Z</time>
      </trkpt>
      <trkpt lat="44.04728" lon="2.04488">
        <ele>316</ele>
        <time>2021-09-05T07:24:43Z</time>
      </trkpt>
      <trkpt lat="44.04731" lon="2.04488">
        <ele>316</ele>
        <time>2021-09-05T07:24:44Z</time>
      </trkpt>
      <trkpt lat="44.04734" lon="2.04487">
        <ele>316.2</ele>
        <time>2021-09-05T07:24:45Z</time>
      </trkpt>
      <trkpt lat="44.04737" lon="2.04485">
        <ele>316.2</ele>
        <time>2021-09-05T07:24:46Z</time>
      </trkpt>
      <trkpt lat="44.0474" lon="2.04484">
        <ele>316.4</ele>
        <time>2021-09-05T07:24:47Z</time>
      </trkpt>
      <trkpt lat="44.04742" lon="2.04483">
        <ele>316.6</ele>
        <time>2021-09-05T07:24:48Z</time>
      </trkpt>
      <trkpt lat="44.04745" lon="2.04481">
        <ele>316.6</ele>
        <time>2021-09-05T07:24:49Z</time>
      </trkpt>
      <trkpt lat="44.04748" lon="2.0448">
        <ele>317</ele>
        <time>2021-09-05T07:24:50Z</time>
      </trkpt>
      <trkpt lat="44.04751" lon="2.04478">
        <ele>317</ele>
        <time>2021-09-05T07:24:51Z</time>
      </trkpt>
      <trkpt lat="44.04754" lon="2.04476">
        <ele>317.2</ele>
        <time>2021-09-05T07:24:52Z</time>
      </trkpt>
      <trkpt lat="44.04757" lon="2.04475">
        <ele>317.4</ele>
        <time>2021-09-05T07:24:53Z</time>
      </trkpt>
      <trkpt lat="44.0476" lon="2.04473">
        <ele>317.6</ele>
        <time>2021-09-05T07:24:54Z</time>
      </trkpt>
      <trkpt lat="44.04764" lon="2.04471">
        <ele>317.6</ele>
        <time>2021-09-05T07:24:55Z</time>
      </trkpt>
      <trkpt lat="44.04767" lon="2.04469">
        <ele>317.8</ele>
        <time>2021-09-05T07:24:56Z</time>
      </trkpt>
      <trkpt lat="44.0477" lon="2.04467">
        <ele>317.8</ele>
        <time>2021-09-05T07:24:57Z</time>
      </trkpt>
      <trkpt lat="44.04774" lon="2.04465">
        <ele>317.8</ele>
        <time>2021-09-05T07:24:58Z</time>
      </trkpt>
      <trkpt lat="44.04777" lon="2.04464">
        <ele>318</ele>
        <time>2021-09-05T07:24:59Z</time>
      </trkpt>
      <trkpt lat="44.04781" lon="2.04462">
        <ele>318</ele>
        <time>2021-09-05T07:25:00Z</time>
      </trkpt>
      <trkpt lat="44.04784" lon="2.0446">
        <ele>318.2</ele>
        <time>2021-09-05T07:25:01Z</time>
      </trkpt>
      <trkpt lat="44.04788" lon="2.04458">
        <ele>318.2</ele>
        <time>2021-09-05T07:25:02Z</time>
      </trkpt>
      <trkpt lat="44.04792" lon="2.04456">
        <ele>318.2</ele>
        <time>2021-09-05T07:25:03Z</time>
      </trkpt>
      <trkpt lat="44.04795" lon="2.04454">
        <ele>318.2</ele>
        <time>2021-09-05T07:25:04Z</time>
      </trkpt>
      <trkpt lat="44.04799" lon="2.04452">
        <ele>318.2</ele>
        <time>2021-09-05T07:25:05Z</time>
      </trkpt>
      <trkpt lat="44.04803" lon="2.0445">
        <ele>318.2</ele>
        <time>2021-09-05T07:25:06Z</time>
      </trkpt>
      <trkpt lat="44.04807" lon="2.04448">
        <ele>318.2</ele>
        <time>2021-09-05T07:25:07Z</time>
      </trkpt>
      <trkpt lat="44.0481" lon="2.04446">
        <ele>318.2</ele>
        <time>2021-09-05T07:25:08Z</time>
      </trkpt>
      <trkpt lat="44.04814" lon="2.04445">
        <ele>318.2</ele>
        <time>2021-09-05T07:25:09Z</time>
      </trkpt>
      <trkpt lat="44.04818" lon="2.04443">
        <ele>318.2</ele>
        <time>2021-09-05T07:25:10Z</time>
      </trkpt>
      <trkpt lat="44.04821" lon="2.04442">
        <ele>318.4</ele>
        <time>2021-09-05T07:25:11Z</time>
      </trkpt>
      <trkpt lat="44.04829" lon="2.04439">
        <ele>318.4</ele>
        <time>2021-09-05T07:25:13Z</time>
      </trkpt>
      <trkpt lat="44.04832" lon="2.04438">
        <ele>318.4</ele>
        <time>2021-09-05T07:25:14Z</time>
      </trkpt>
      <trkpt lat="44.04836" lon="2.04437">
        <ele>318.4</ele>
        <time>2021-09-05T07:25:15Z</time>
      </trkpt>
      <trkpt lat="44.04849" lon="2.04429">
        <ele>318.4</ele>
        <time>2021-09-05T07:25:19Z</time>
      </trkpt>
      <trkpt lat="44.04853" lon="2.04428">
        <ele>318.4</ele>
        <time>2021-09-05T07:25:20Z</time>
      </trkpt>
      <trkpt lat="44.04862" lon="2.04428">
        <ele>318.2</ele>
        <time>2021-09-05T07:25:22Z</time>
      </trkpt>
      <trkpt lat="44.04862" lon="2.04428">
        <ele>318.2</ele>
        <time>2021-09-05T07:25:23Z</time>
      </trkpt>
      <trkpt lat="44.04885" lon="2.04432">
        <ele>318</ele>
        <time>2021-09-05T07:25:27Z</time>
      </trkpt>
      <trkpt lat="44.04908" lon="2.04437">
        <ele>318</ele>
        <time>2021-09-05T07:25:32Z</time>
      </trkpt>
      <trkpt lat="44.04931" lon="2.04441">
        <ele>317.8</ele>
        <time>2021-09-05T07:25:37Z</time>
      </trkpt>
      <trkpt lat="44.04936" lon="2.04441">
        <ele>317.8</ele>
        <time>2021-09-05T07:25:38Z</time>
      </trkpt>
      <trkpt lat="44.04946" lon="2.0444">
        <ele>317.8</ele>
        <time>2021-09-05T07:25:40Z</time>
      </trkpt>
      <trkpt lat="44.04951" lon="2.0444">
        <ele>317.8</ele>
        <time>2021-09-05T07:25:41Z</time>
      </trkpt>
      <trkpt lat="44.0496" lon="2.04437">
        <ele>317.8</ele>
        <time>2021-09-05T07:25:43Z</time>
      </trkpt>
      <trkpt lat="44.04979" lon="2.04429">
        <ele>318</ele>
        <time>2021-09-05T07:25:47Z</time>
      </trkpt>
      <trkpt lat="44.04984" lon="2.04427">
        <ele>318</ele>
        <time>2021-09-05T07:25:49Z</time>
      </trkpt>
      <trkpt lat="44.04997" lon="2.04418">
        <ele>318</ele>
        <time>2021-09-05T07:25:51Z</time>
      </trkpt>
      <trkpt lat="44.05001" lon="2.04415">
        <ele>318.2</ele>
        <time>2021-09-05T07:25:52Z</time>
      </trkpt>
      <trkpt lat="44.05005" lon="2.04412">
        <ele>318.2</ele>
        <time>2021-09-05T07:25:53Z</time>
      </trkpt>
      <trkpt lat="44.0501" lon="2.04409">
        <ele>318.2</ele>
        <time>2021-09-05T07:25:54Z</time>
      </trkpt>
      <trkpt lat="44.05023" lon="2.044">
        <ele>318.2</ele>
        <time>2021-09-05T07:25:57Z</time>
      </trkpt>
      <trkpt lat="44.05031" lon="2.04394">
        <ele>318</ele>
        <time>2021-09-05T07:25:59Z</time>
      </trkpt>
      <trkpt lat="44.05035" lon="2.04391">
        <ele>318</ele>
        <time>2021-09-05T07:26:00Z</time>
      </trkpt>
      <trkpt lat="44.0504" lon="2.04388">
        <ele>318</ele>
        <time>2021-09-05T07:26:01Z</time>
      </trkpt>
      <trkpt lat="44.05044" lon="2.04384">
        <ele>318</ele>
        <time>2021-09-05T07:26:02Z</time>
      </trkpt>
      <trkpt lat="44.05052" lon="2.04379">
        <ele>318.4</ele>
        <time>2021-09-05T07:26:04Z</time>
      </trkpt>
      <trkpt lat="44.05076" lon="2.04366">
        <ele>318.6</ele>
        <time>2021-09-05T07:26:09Z</time>
      </trkpt>
      <trkpt lat="44.05086" lon="2.04362">
        <ele>318.6</ele>
        <time>2021-09-05T07:26:11Z</time>
      </trkpt>
      <trkpt lat="44.05111" lon="2.0436">
        <ele>318.6</ele>
        <time>2021-09-05T07:26:16Z</time>
      </trkpt>
      <trkpt lat="44.05136" lon="2.04362">
        <ele>318.4</ele>
        <time>2021-09-05T07:26:21Z</time>
      </trkpt>
      <trkpt lat="44.05141" lon="2.04362">
        <ele>318.4</ele>
        <time>2021-09-05T07:26:22Z</time>
      </trkpt>
      <trkpt lat="44.05146" lon="2.04362">
        <ele>318.4</ele>
        <time>2021-09-05T07:26:23Z</time>
      </trkpt>
      <trkpt lat="44.05152" lon="2.04362">
        <ele>318.2</ele>
        <time>2021-09-05T07:26:24Z</time>
      </trkpt>
      <trkpt lat="44.05156" lon="2.04362">
        <ele>318.2</ele>
        <time>2021-09-05T07:26:25Z</time>
      </trkpt>
      <trkpt lat="44.0516" lon="2.04361">
        <ele>318.2</ele>
        <time>2021-09-05T07:26:26Z</time>
      </trkpt>
      <trkpt lat="44.05165" lon="2.04361">
        <ele>318</ele>
        <time>2021-09-05T07:26:27Z</time>
      </trkpt>
      <trkpt lat="44.05169" lon="2.0436">
        <ele>318.2</ele>
        <time>2021-09-05T07:26:28Z</time>
      </trkpt>
      <trkpt lat="44.05173" lon="2.0436">
        <ele>318.2</ele>
        <time>2021-09-05T07:26:29Z</time>
      </trkpt>
      <trkpt lat="44.05186" lon="2.04359">
        <ele>318.2</ele>
        <time>2021-09-05T07:26:32Z</time>
      </trkpt>
      <trkpt lat="44.05197" lon="2.04359">
        <ele>318.2</ele>
        <time>2021-09-05T07:26:34Z</time>
      </trkpt>
      <trkpt lat="44.05218" lon="2.04364">
        <ele>318</ele>
        <time>2021-09-05T07:26:38Z</time>
      </trkpt>
      <trkpt lat="44.05241" lon="2.04371">
        <ele>317.4</ele>
        <time>2021-09-05T07:26:42Z</time>
      </trkpt>
      <trkpt lat="44.05253" lon="2.04373">
        <ele>316.8</ele>
        <time>2021-09-05T07:26:44Z</time>
      </trkpt>
      <trkpt lat="44.05259" lon="2.04374">
        <ele>316.6</ele>
        <time>2021-09-05T07:26:45Z</time>
      </trkpt>
      <trkpt lat="44.0527" lon="2.04375">
        <ele>316.2</ele>
        <time>2021-09-05T07:26:47Z</time>
      </trkpt>
      <trkpt lat="44.05276" lon="2.04375">
        <ele>316.2</ele>
        <time>2021-09-05T07:26:48Z</time>
      </trkpt>
      <trkpt lat="44.05282" lon="2.04374">
        <ele>316.2</ele>
        <time>2021-09-05T07:26:49Z</time>
      </trkpt>
      <trkpt lat="44.05288" lon="2.04374">
        <ele>316</ele>
        <time>2021-09-05T07:26:50Z</time>
      </trkpt>
      <trkpt lat="44.05293" lon="2.04373">
        <ele>316</ele>
        <time>2021-09-05T07:26:51Z</time>
      </trkpt>
      <trkpt lat="44.05299" lon="2.04372">
        <ele>316</ele>
        <time>2021-09-05T07:26:52Z</time>
      </trkpt>
      <trkpt lat="44.05304" lon="2.04371">
        <ele>316</ele>
        <time>2021-09-05T07:26:53Z</time>
      </trkpt>
      <trkpt lat="44.05314" lon="2.04369">
        <ele>316</ele>
        <time>2021-09-05T07:26:55Z</time>
      </trkpt>
      <trkpt lat="44.05345" lon="2.04363">
        <ele>316.4</ele>
        <time>2021-09-05T07:27:01Z</time>
      </trkpt>
      <trkpt lat="44.05356" lon="2.0436">
        <ele>316.4</ele>
        <time>2021-09-05T07:27:03Z</time>
      </trkpt>
      <trkpt lat="44.05386" lon="2.0435">
        <ele>316.6</ele>
        <time>2021-09-05T07:27:09Z</time>
      </trkpt>
      <trkpt lat="44.05391" lon="2.04348">
        <ele>316.8</ele>
        <time>2021-09-05T07:27:10Z</time>
      </trkpt>
      <trkpt lat="44.05396" lon="2.04347">
        <ele>316.8</ele>
        <time>2021-09-05T07:27:11Z</time>
      </trkpt>
      <trkpt lat="44.054" lon="2.04346">
        <ele>317</ele>
        <time>2021-09-05T07:27:12Z</time>
      </trkpt>
      <trkpt lat="44.05405" lon="2.04345">
        <ele>317</ele>
        <time>2021-09-05T07:27:13Z</time>
      </trkpt>
      <trkpt lat="44.05409" lon="2.04345">
        <ele>317</ele>
        <time>2021-09-05T07:27:14Z</time>
      </trkpt>
      <trkpt lat="44.05414" lon="2.04344">
        <ele>317</ele>
        <time>2021-09-05T07:27:15Z</time>
      </trkpt>
      <trkpt lat="44.05418" lon="2.04343">
        <ele>317.2</ele>
        <time>2021-09-05T07:27:16Z</time>
      </trkpt>
      <trkpt lat="44.05422" lon="2.04342">
        <ele>317.4</ele>
        <time>2021-09-05T07:27:17Z</time>
      </trkpt>
      <trkpt lat="44.05426" lon="2.04342">
        <ele>317.4</ele>
        <time>2021-09-05T07:27:18Z</time>
      </trkpt>
      <trkpt lat="44.0543" lon="2.04341">
        <ele>317.6</ele>
        <time>2021-09-05T07:27:19Z</time>
      </trkpt>
      <trkpt lat="44.05443" lon="2.04336">
        <ele>318</ele>
        <time>2021-09-05T07:27:22Z</time>
      </trkpt>
      <trkpt lat="44.05447" lon="2.04335">
        <ele>318</ele>
        <time>2021-09-05T07:27:23Z</time>
      </trkpt>
      <trkpt lat="44.05456" lon="2.04334">
        <ele>318</ele>
        <time>2021-09-05T07:27:25Z</time>
      </trkpt>
      <trkpt lat="44.05461" lon="2.04334">
        <ele>318</ele>
        <time>2021-09-05T07:27:26Z</time>
      </trkpt>
      <trkpt lat="44.05465" lon="2.04333">
        <ele>318</ele>
        <time>2021-09-05T07:27:27Z</time>
      </trkpt>
      <trkpt lat="44.05488" lon="2.04331">
        <ele>318.2</ele>
        <time>2021-09-05T07:27:32Z</time>
      </trkpt>
      <trkpt lat="44.0551" lon="2.04329">
        <ele>317.8</ele>
        <time>2021-09-05T07:27:37Z</time>
      </trkpt>
      <trkpt lat="44.05515" lon="2.04328">
        <ele>317.6</ele>
        <time>2021-09-05T07:27:38Z</time>
      </trkpt>
      <trkpt lat="44.0552" lon="2.04327">
        <ele>317.6</ele>
        <time>2021-09-05T07:27:39Z</time>
      </trkpt>
      <trkpt lat="44.05534" lon="2.04324">
        <ele>317.4</ele>
        <time>2021-09-05T07:27:42Z</time>
      </trkpt>
      <trkpt lat="44.05538" lon="2.04324">
        <ele>317.4</ele>
        <time>2021-09-05T07:27:43Z</time>
      </trkpt>
      <trkpt lat="44.05542" lon="2.04323">
        <ele>317.2</ele>
        <time>2021-09-05T07:27:44Z</time>
      </trkpt>
      <trkpt lat="44.05555" lon="2.0432">
        <ele>317</ele>
        <time>2021-09-05T07:27:47Z</time>
      </trkpt>
      <trkpt lat="44.05583" lon="2.04316">
        <ele>316.6</ele>
        <time>2021-09-05T07:27:53Z</time>
      </trkpt>
      <trkpt lat="44.05587" lon="2.04315">
        <ele>316.6</ele>
        <time>2021-09-05T07:27:54Z</time>
      </trkpt>
      <trkpt lat="44.05598" lon="2.04313">
        <ele>316.2</ele>
        <time>2021-09-05T07:27:56Z</time>
      </trkpt>
      <trkpt lat="44.05626" lon="2.04308">
        <ele>315</ele>
        <time>2021-09-05T07:28:01Z</time>
      </trkpt>
      <trkpt lat="44.05631" lon="2.04307">
        <ele>314.8</ele>
        <time>2021-09-05T07:28:02Z</time>
      </trkpt>
      <trkpt lat="44.05637" lon="2.04307">
        <ele>314.4</ele>
        <time>2021-09-05T07:28:03Z</time>
      </trkpt>
      <trkpt lat="44.05647" lon="2.04306">
        <ele>313.4</ele>
        <time>2021-09-05T07:28:05Z</time>
      </trkpt>
      <trkpt lat="44.05664" lon="2.04303">
        <ele>312.4</ele>
        <time>2021-09-05T07:28:08Z</time>
      </trkpt>
      <trkpt lat="44.05682" lon="2.043">
        <ele>311.4</ele>
        <time>2021-09-05T07:28:11Z</time>
      </trkpt>
      <trkpt lat="44.05708" lon="2.04295">
        <ele>310.2</ele>
        <time>2021-09-05T07:28:15Z</time>
      </trkpt>
      <trkpt lat="44.05714" lon="2.04295">
        <ele>310.2</ele>
        <time>2021-09-05T07:28:16Z</time>
      </trkpt>
      <trkpt lat="44.0572" lon="2.04295">
        <ele>309.6</ele>
        <time>2021-09-05T07:28:17Z</time>
      </trkpt>
      <trkpt lat="44.05733" lon="2.04295">
        <ele>308.6</ele>
        <time>2021-09-05T07:28:19Z</time>
      </trkpt>
      <trkpt lat="44.05753" lon="2.04297">
        <ele>307.2</ele>
        <time>2021-09-05T07:28:22Z</time>
      </trkpt>
      <trkpt lat="44.0576" lon="2.04297">
        <ele>306.4</ele>
        <time>2021-09-05T07:28:23Z</time>
      </trkpt>
      <trkpt lat="44.05766" lon="2.04298">
        <ele>305.8</ele>
        <time>2021-09-05T07:28:24Z</time>
      </trkpt>
      <trkpt lat="44.05772" lon="2.04297">
        <ele>305.6</ele>
        <time>2021-09-05T07:28:25Z</time>
      </trkpt>
      <trkpt lat="44.05778" lon="2.04296">
        <ele>305.2</ele>
        <time>2021-09-05T07:28:26Z</time>
      </trkpt>
      <trkpt lat="44.05784" lon="2.04295">
        <ele>304.8</ele>
        <time>2021-09-05T07:28:27Z</time>
      </trkpt>
      <trkpt lat="44.0579" lon="2.04292">
        <ele>304.4</ele>
        <time>2021-09-05T07:28:28Z</time>
      </trkpt>
      <trkpt lat="44.058" lon="2.04288">
        <ele>303.6</ele>
        <time>2021-09-05T07:28:30Z</time>
      </trkpt>
      <trkpt lat="44.05816" lon="2.04282">
        <ele>302.6</ele>
        <time>2021-09-05T07:28:33Z</time>
      </trkpt>
      <trkpt lat="44.05822" lon="2.0428">
        <ele>302.4</ele>
        <time>2021-09-05T07:28:34Z</time>
      </trkpt>
      <trkpt lat="44.05826" lon="2.04278">
        <ele>302.4</ele>
        <time>2021-09-05T07:28:35Z</time>
      </trkpt>
      <trkpt lat="44.05831" lon="2.04277">
        <ele>302.2</ele>
        <time>2021-09-05T07:28:36Z</time>
      </trkpt>
      <trkpt lat="44.05834" lon="2.04276">
        <ele>302.2</ele>
        <time>2021-09-05T07:28:37Z</time>
      </trkpt>
      <trkpt lat="44.05838" lon="2.04275">
        <ele>302.2</ele>
        <time>2021-09-05T07:28:38Z</time>
      </trkpt>
      <trkpt lat="44.05841" lon="2.04275">
        <ele>302.4</ele>
        <time>2021-09-05T07:28:39Z</time>
      </trkpt>
      <trkpt lat="44.05844" lon="2.04275">
        <ele>302.6</ele>
        <time>2021-09-05T07:28:40Z</time>
      </trkpt>
      <trkpt lat="44.05846" lon="2.04275">
        <ele>302.8</ele>
        <time>2021-09-05T07:28:41Z</time>
      </trkpt>
      <trkpt lat="44.05849" lon="2.04275">
        <ele>303</ele>
        <time>2021-09-05T07:28:42Z</time>
      </trkpt>
      <trkpt lat="44.05852" lon="2.04276">
        <ele>303</ele>
        <time>2021-09-05T07:28:43Z</time>
      </trkpt>
      <trkpt lat="44.05854" lon="2.04277">
        <ele>303.2</ele>
        <time>2021-09-05T07:28:44Z</time>
      </trkpt>
      <trkpt lat="44.05857" lon="2.04278">
        <ele>303.4</ele>
        <time>2021-09-05T07:28:45Z</time>
      </trkpt>
      <trkpt lat="44.0586" lon="2.0428">
        <ele>303.6</ele>
        <time>2021-09-05T07:28:46Z</time>
      </trkpt>
      <trkpt lat="44.05862" lon="2.04282">
        <ele>304</ele>
        <time>2021-09-05T07:28:47Z</time>
      </trkpt>
      <trkpt lat="44.05865" lon="2.04283">
        <ele>304.2</ele>
        <time>2021-09-05T07:28:48Z</time>
      </trkpt>
      <trkpt lat="44.05867" lon="2.04285">
        <ele>304.4</ele>
        <time>2021-09-05T07:28:49Z</time>
      </trkpt>
      <trkpt lat="44.05869" lon="2.04286">
        <ele>304.6</ele>
        <time>2021-09-05T07:28:50Z</time>
      </trkpt>
      <trkpt lat="44.05871" lon="2.04288">
        <ele>304.8</ele>
        <time>2021-09-05T07:28:51Z</time>
      </trkpt>
      <trkpt lat="44.05873" lon="2.0429">
        <ele>305</ele>
        <time>2021-09-05T07:28:52Z</time>
      </trkpt>
      <trkpt lat="44.05875" lon="2.04291">
        <ele>305.6</ele>
        <time>2021-09-05T07:28:53Z</time>
      </trkpt>
      <trkpt lat="44.05877" lon="2.04293">
        <ele>306</ele>
        <time>2021-09-05T07:28:54Z</time>
      </trkpt>
      <trkpt lat="44.05882" lon="2.04299">
        <ele>306.6</ele>
        <time>2021-09-05T07:28:57Z</time>
      </trkpt>
      <trkpt lat="44.05885" lon="2.04303">
        <ele>306.8</ele>
        <time>2021-09-05T07:28:59Z</time>
      </trkpt>
      <trkpt lat="44.05886" lon="2.04303">
        <ele>307</ele>
        <time>2021-09-05T07:29:00Z</time>
      </trkpt>
      <trkpt lat="44.05888" lon="2.04305">
        <ele>307.2</ele>
        <time>2021-09-05T07:29:01Z</time>
      </trkpt>
      <trkpt lat="44.0589" lon="2.04306">
        <ele>307.6</ele>
        <time>2021-09-05T07:29:02Z</time>
      </trkpt>
      <trkpt lat="44.05891" lon="2.04308">
        <ele>308</ele>
        <time>2021-09-05T07:29:03Z</time>
      </trkpt>
      <trkpt lat="44.05893" lon="2.0431">
        <ele>308</ele>
        <time>2021-09-05T07:29:04Z</time>
      </trkpt>
      <trkpt lat="44.05895" lon="2.04312">
        <ele>308.4</ele>
        <time>2021-09-05T07:29:05Z</time>
      </trkpt>
      <trkpt lat="44.05897" lon="2.04313">
        <ele>308.6</ele>
        <time>2021-09-05T07:29:06Z</time>
      </trkpt>
      <trkpt lat="44.05899" lon="2.04315">
        <ele>309</ele>
        <time>2021-09-05T07:29:07Z</time>
      </trkpt>
      <trkpt lat="44.059" lon="2.04317">
        <ele>309.2</ele>
        <time>2021-09-05T07:29:08Z</time>
      </trkpt>
      <trkpt lat="44.05902" lon="2.04319">
        <ele>309.6</ele>
        <time>2021-09-05T07:29:09Z</time>
      </trkpt>
      <trkpt lat="44.05904" lon="2.04321">
        <ele>309.8</ele>
        <time>2021-09-05T07:29:10Z</time>
      </trkpt>
      <trkpt lat="44.05905" lon="2.04323">
        <ele>309.8</ele>
        <time>2021-09-05T07:29:11Z</time>
      </trkpt>
      <trkpt lat="44.05907" lon="2.04325">
        <ele>310</ele>
        <time>2021-09-05T07:29:12Z</time>
      </trkpt>
      <trkpt lat="44.05909" lon="2.04326">
        <ele>310.2</ele>
        <time>2021-09-05T07:29:13Z</time>
      </trkpt>
      <trkpt lat="44.05911" lon="2.04327">
        <ele>310.6</ele>
        <time>2021-09-05T07:29:14Z</time>
      </trkpt>
      <trkpt lat="44.05913" lon="2.04329">
        <ele>310.6</ele>
        <time>2021-09-05T07:29:15Z</time>
      </trkpt>
      <trkpt lat="44.05915" lon="2.0433">
        <ele>310.8</ele>
        <time>2021-09-05T07:29:16Z</time>
      </trkpt>
      <trkpt lat="44.05918" lon="2.04332">
        <ele>311.2</ele>
        <time>2021-09-05T07:29:17Z</time>
      </trkpt>
      <trkpt lat="44.0592" lon="2.04333">
        <ele>311.4</ele>
        <time>2021-09-05T07:29:18Z</time>
      </trkpt>
      <trkpt lat="44.05922" lon="2.04334">
        <ele>311.6</ele>
        <time>2021-09-05T07:29:19Z</time>
      </trkpt>
      <trkpt lat="44.05925" lon="2.04335">
        <ele>311.6</ele>
        <time>2021-09-05T07:29:20Z</time>
      </trkpt>
      <trkpt lat="44.05927" lon="2.04336">
        <ele>311.8</ele>
        <time>2021-09-05T07:29:21Z</time>
      </trkpt>
      <trkpt lat="44.0593" lon="2.04336">
        <ele>311.8</ele>
        <time>2021-09-05T07:29:22Z</time>
      </trkpt>
      <trkpt lat="44.05932" lon="2.04337">
        <ele>312</ele>
        <time>2021-09-05T07:29:23Z</time>
      </trkpt>
      <trkpt lat="44.05935" lon="2.04338">
        <ele>312.2</ele>
        <time>2021-09-05T07:29:24Z</time>
      </trkpt>
      <trkpt lat="44.05937" lon="2.04338">
        <ele>312.2</ele>
        <time>2021-09-05T07:29:25Z</time>
      </trkpt>
      <trkpt lat="44.05939" lon="2.04339">
        <ele>312.2</ele>
        <time>2021-09-05T07:29:26Z</time>
      </trkpt>
      <trkpt lat="44.05941" lon="2.04338">
        <ele>312.4</ele>
        <time>2021-09-05T07:29:27Z</time>
      </trkpt>
      <trkpt lat="44.05944" lon="2.04338">
        <ele>312.4</ele>
        <time>2021-09-05T07:29:28Z</time>
      </trkpt>
      <trkpt lat="44.05946" lon="2.04338">
        <ele>312.4</ele>
        <time>2021-09-05T07:29:29Z</time>
      </trkpt>
      <trkpt lat="44.05949" lon="2.04338">
        <ele>312.6</ele>
        <time>2021-09-05T07:29:30Z</time>
      </trkpt>
      <trkpt lat="44.05951" lon="2.04338">
        <ele>312.6</ele>
        <time>2021-09-05T07:29:31Z</time>
      </trkpt>
      <trkpt lat="44.05953" lon="2.04338">
        <ele>312.6</ele>
        <time>2021-09-05T07:29:32Z</time>
      </trkpt>
      <trkpt lat="44.05955" lon="2.04338">
        <ele>312.6</ele>
        <time>2021-09-05T07:29:33Z</time>
      </trkpt>
      <trkpt lat="44.05958" lon="2.04338">
        <ele>312.8</ele>
        <time>2021-09-05T07:29:34Z</time>
      </trkpt>
      <trkpt lat="44.05961" lon="2.04339">
        <ele>312.6</ele>
        <time>2021-09-05T07:29:35Z</time>
      </trkpt>
      <trkpt lat="44.05964" lon="2.04339">
        <ele>312.8</ele>
        <time>2021-09-05T07:29:36Z</time>
      </trkpt>
      <trkpt lat="44.05966" lon="2.0434">
        <ele>312.8</ele>
        <time>2021-09-05T07:29:37Z</time>
      </trkpt>
      <trkpt lat="44.05969" lon="2.04339">
        <ele>312.8</ele>
        <time>2021-09-05T07:29:38Z</time>
      </trkpt>
      <trkpt lat="44.05972" lon="2.04339">
        <ele>313</ele>
        <time>2021-09-05T07:29:39Z</time>
      </trkpt>
      <trkpt lat="44.05975" lon="2.04339">
        <ele>312.8</ele>
        <time>2021-09-05T07:29:40Z</time>
      </trkpt>
      <trkpt lat="44.05978" lon="2.04338">
        <ele>313</ele>
        <time>2021-09-05T07:29:41Z</time>
      </trkpt>
      <trkpt lat="44.05981" lon="2.04338">
        <ele>312.8</ele>
        <time>2021-09-05T07:29:42Z</time>
      </trkpt>
      <trkpt lat="44.05984" lon="2.04337">
        <ele>312.8</ele>
        <time>2021-09-05T07:29:43Z</time>
      </trkpt>
      <trkpt lat="44.05988" lon="2.04337">
        <ele>312.8</ele>
        <time>2021-09-05T07:29:44Z</time>
      </trkpt>
      <trkpt lat="44.06003" lon="2.04334">
        <ele>312.4</ele>
        <time>2021-09-05T07:29:48Z</time>
      </trkpt>
      <trkpt lat="44.06017" lon="2.04333">
        <ele>312</ele>
        <time>2021-09-05T07:29:51Z</time>
      </trkpt>
      <trkpt lat="44.06028" lon="2.04336">
        <ele>311.6</ele>
        <time>2021-09-05T07:29:53Z</time>
      </trkpt>
      <trkpt lat="44.06033" lon="2.0434">
        <ele>311.4</ele>
        <time>2021-09-05T07:29:54Z</time>
      </trkpt>
      <trkpt lat="44.06037" lon="2.04345">
        <ele>311.2</ele>
        <time>2021-09-05T07:29:55Z</time>
      </trkpt>
      <trkpt lat="44.06042" lon="2.04349">
        <ele>311</ele>
        <time>2021-09-05T07:29:56Z</time>
      </trkpt>
      <trkpt lat="44.06047" lon="2.04353">
        <ele>310.8</ele>
        <time>2021-09-05T07:29:57Z</time>
      </trkpt>
      <trkpt lat="44.06052" lon="2.04358">
        <ele>310.6</ele>
        <time>2021-09-05T07:29:58Z</time>
      </trkpt>
      <trkpt lat="44.06062" lon="2.04366">
        <ele>310</ele>
        <time>2021-09-05T07:30:00Z</time>
      </trkpt>
      <trkpt lat="44.06067" lon="2.0437">
        <ele>310</ele>
        <time>2021-09-05T07:30:01Z</time>
      </trkpt>
      <trkpt lat="44.06071" lon="2.04374">
        <ele>309.4</ele>
        <time>2021-09-05T07:30:02Z</time>
      </trkpt>
      <trkpt lat="44.06076" lon="2.04378">
        <ele>309</ele>
        <time>2021-09-05T07:30:03Z</time>
      </trkpt>
      <trkpt lat="44.0608" lon="2.04382">
        <ele>308.8</ele>
        <time>2021-09-05T07:30:04Z</time>
      </trkpt>
      <trkpt lat="44.06084" lon="2.04385">
        <ele>308.6</ele>
        <time>2021-09-05T07:30:05Z</time>
      </trkpt>
      <trkpt lat="44.06088" lon="2.04388">
        <ele>308.6</ele>
        <time>2021-09-05T07:30:06Z</time>
      </trkpt>
      <trkpt lat="44.06092" lon="2.04392">
        <ele>308.4</ele>
        <time>2021-09-05T07:30:07Z</time>
      </trkpt>
      <trkpt lat="44.06096" lon="2.04395">
        <ele>308.4</ele>
        <time>2021-09-05T07:30:08Z</time>
      </trkpt>
      <trkpt lat="44.06099" lon="2.04399">
        <ele>308.4</ele>
        <time>2021-09-05T07:30:09Z</time>
      </trkpt>
      <trkpt lat="44.06103" lon="2.04402">
        <ele>308.4</ele>
        <time>2021-09-05T07:30:10Z</time>
      </trkpt>
      <trkpt lat="44.06106" lon="2.04406">
        <ele>308.4</ele>
        <time>2021-09-05T07:30:11Z</time>
      </trkpt>
      <trkpt lat="44.06109" lon="2.04409">
        <ele>308.4</ele>
        <time>2021-09-05T07:30:12Z</time>
      </trkpt>
      <trkpt lat="44.06137" lon="2.04438">
        <ele>308.4</ele>
        <time>2021-09-05T07:30:20Z</time>
      </trkpt>
      <trkpt lat="44.06149" lon="2.04452">
        <ele>308.4</ele>
        <time>2021-09-05T07:30:24Z</time>
      </trkpt>
      <trkpt lat="44.06163" lon="2.04472">
        <ele>308.2</ele>
        <time>2021-09-05T07:30:28Z</time>
      </trkpt>
      <trkpt lat="44.06168" lon="2.04476">
        <ele>308.2</ele>
        <time>2021-09-05T07:30:29Z</time>
      </trkpt>
      <trkpt lat="44.06179" lon="2.04484">
        <ele>307.8</ele>
        <time>2021-09-05T07:30:31Z</time>
      </trkpt>
      <trkpt lat="44.0619" lon="2.04491">
        <ele>307.6</ele>
        <time>2021-09-05T07:30:33Z</time>
      </trkpt>
      <trkpt lat="44.06212" lon="2.04511">
        <ele>307.2</ele>
        <time>2021-09-05T07:30:37Z</time>
      </trkpt>
      <trkpt lat="44.06217" lon="2.04516">
        <ele>307.2</ele>
        <time>2021-09-05T07:30:38Z</time>
      </trkpt>
      <trkpt lat="44.06222" lon="2.04523">
        <ele>306.6</ele>
        <time>2021-09-05T07:30:39Z</time>
      </trkpt>
      <trkpt lat="44.06238" lon="2.04545">
        <ele>305.4</ele>
        <time>2021-09-05T07:30:42Z</time>
      </trkpt>
      <trkpt lat="44.06243" lon="2.04553">
        <ele>305</ele>
        <time>2021-09-05T07:30:43Z</time>
      </trkpt>
      <trkpt lat="44.06248" lon="2.0456">
        <ele>304.4</ele>
        <time>2021-09-05T07:30:44Z</time>
      </trkpt>
      <trkpt lat="44.06259" lon="2.04576">
        <ele>303.8</ele>
        <time>2021-09-05T07:30:46Z</time>
      </trkpt>
      <trkpt lat="44.06268" lon="2.04591">
        <ele>302.4</ele>
        <time>2021-09-05T07:30:48Z</time>
      </trkpt>
      <trkpt lat="44.06278" lon="2.04607">
        <ele>301</ele>
        <time>2021-09-05T07:30:50Z</time>
      </trkpt>
      <trkpt lat="44.06284" lon="2.04614">
        <ele>300.6</ele>
        <time>2021-09-05T07:30:51Z</time>
      </trkpt>
      <trkpt lat="44.06289" lon="2.04621">
        <ele>299.6</ele>
        <time>2021-09-05T07:30:52Z</time>
      </trkpt>
      <trkpt lat="44.06295" lon="2.04627">
        <ele>298.6</ele>
        <time>2021-09-05T07:30:53Z</time>
      </trkpt>
      <trkpt lat="44.06301" lon="2.04633">
        <ele>298.4</ele>
        <time>2021-09-05T07:30:54Z</time>
      </trkpt>
      <trkpt lat="44.06307" lon="2.04638">
        <ele>297</ele>
        <time>2021-09-05T07:30:55Z</time>
      </trkpt>
      <trkpt lat="44.06321" lon="2.04649">
        <ele>296</ele>
        <time>2021-09-05T07:30:57Z</time>
      </trkpt>
      <trkpt lat="44.06327" lon="2.04653">
        <ele>295.6</ele>
        <time>2021-09-05T07:30:58Z</time>
      </trkpt>
      <trkpt lat="44.06334" lon="2.04657">
        <ele>295.4</ele>
        <time>2021-09-05T07:30:59Z</time>
      </trkpt>
      <trkpt lat="44.0634" lon="2.04661">
        <ele>295</ele>
        <time>2021-09-05T07:31:00Z</time>
      </trkpt>
      <trkpt lat="44.06345" lon="2.04666">
        <ele>294.8</ele>
        <time>2021-09-05T07:31:01Z</time>
      </trkpt>
      <trkpt lat="44.06351" lon="2.0467">
        <ele>294.4</ele>
        <time>2021-09-05T07:31:02Z</time>
      </trkpt>
      <trkpt lat="44.06355" lon="2.04673">
        <ele>294.2</ele>
        <time>2021-09-05T07:31:03Z</time>
      </trkpt>
      <trkpt lat="44.06361" lon="2.04677">
        <ele>293</ele>
        <time>2021-09-05T07:31:04Z</time>
      </trkpt>
      <trkpt lat="44.06366" lon="2.04682">
        <ele>291.8</ele>
        <time>2021-09-05T07:31:05Z</time>
      </trkpt>
      <trkpt lat="44.06377" lon="2.04693">
        <ele>291</ele>
        <time>2021-09-05T07:31:07Z</time>
      </trkpt>
      <trkpt lat="44.06382" lon="2.04698">
        <ele>290.6</ele>
        <time>2021-09-05T07:31:08Z</time>
      </trkpt>
      <trkpt lat="44.06386" lon="2.04704">
        <ele>289.4</ele>
        <time>2021-09-05T07:31:09Z</time>
      </trkpt>
      <trkpt lat="44.06395" lon="2.04714">
        <ele>287.6</ele>
        <time>2021-09-05T07:31:11Z</time>
      </trkpt>
      <trkpt lat="44.064" lon="2.04718">
        <ele>287.2</ele>
        <time>2021-09-05T07:31:12Z</time>
      </trkpt>
      <trkpt lat="44.06404" lon="2.04722">
        <ele>286.6</ele>
        <time>2021-09-05T07:31:13Z</time>
      </trkpt>
      <trkpt lat="44.0641" lon="2.04724">
        <ele>286.2</ele>
        <time>2021-09-05T07:31:14Z</time>
      </trkpt>
      <trkpt lat="44.06421" lon="2.04727">
        <ele>285</ele>
        <time>2021-09-05T07:31:16Z</time>
      </trkpt>
      <trkpt lat="44.06426" lon="2.04728">
        <ele>284.2</ele>
        <time>2021-09-05T07:31:17Z</time>
      </trkpt>
      <trkpt lat="44.06432" lon="2.04727">
        <ele>283.2</ele>
        <time>2021-09-05T07:31:18Z</time>
      </trkpt>
      <trkpt lat="44.06444" lon="2.04726">
        <ele>282</ele>
        <time>2021-09-05T07:31:20Z</time>
      </trkpt>
      <trkpt lat="44.0645" lon="2.04725">
        <ele>281</ele>
        <time>2021-09-05T07:31:21Z</time>
      </trkpt>
      <trkpt lat="44.06456" lon="2.04724">
        <ele>280.8</ele>
        <time>2021-09-05T07:31:22Z</time>
      </trkpt>
      <trkpt lat="44.06462" lon="2.04722">
        <ele>279.4</ele>
        <time>2021-09-05T07:31:23Z</time>
      </trkpt>
      <trkpt lat="44.06474" lon="2.04717">
        <ele>277.2</ele>
        <time>2021-09-05T07:31:25Z</time>
      </trkpt>
      <trkpt lat="44.06479" lon="2.04714">
        <ele>276.8</ele>
        <time>2021-09-05T07:31:26Z</time>
      </trkpt>
      <trkpt lat="44.06485" lon="2.0471">
        <ele>275.8</ele>
        <time>2021-09-05T07:31:27Z</time>
      </trkpt>
      <trkpt lat="44.06489" lon="2.04707">
        <ele>274.6</ele>
        <time>2021-09-05T07:31:29Z</time>
      </trkpt>
      <trkpt lat="44.06499" lon="2.04701">
        <ele>273.2</ele>
        <time>2021-09-05T07:31:31Z</time>
      </trkpt>
      <trkpt lat="44.06505" lon="2.04697">
        <ele>272.4</ele>
        <time>2021-09-05T07:31:32Z</time>
      </trkpt>
      <trkpt lat="44.0651" lon="2.04694">
        <ele>271.6</ele>
        <time>2021-09-05T07:31:33Z</time>
      </trkpt>
      <trkpt lat="44.06515" lon="2.04691">
        <ele>271</ele>
        <time>2021-09-05T07:31:34Z</time>
      </trkpt>
      <trkpt lat="44.06519" lon="2.04688">
        <ele>270.4</ele>
        <time>2021-09-05T07:31:35Z</time>
      </trkpt>
      <trkpt lat="44.06523" lon="2.04685">
        <ele>269.8</ele>
        <time>2021-09-05T07:31:36Z</time>
      </trkpt>
      <trkpt lat="44.06523" lon="2.04685">
        <ele>269.6</ele>
        <time>2021-09-05T07:31:37Z</time>
      </trkpt>
      <trkpt lat="44.0653" lon="2.0468">
        <ele>268.8</ele>
        <time>2021-09-05T07:31:38Z</time>
      </trkpt>
      <trkpt lat="44.06535" lon="2.04678">
        <ele>268.2</ele>
        <time>2021-09-05T07:31:39Z</time>
      </trkpt>
      <trkpt lat="44.06538" lon="2.04676">
        <ele>267.2</ele>
        <time>2021-09-05T07:31:40Z</time>
      </trkpt>
      <trkpt lat="44.06542" lon="2.04674">
        <ele>266.8</ele>
        <time>2021-09-05T07:31:41Z</time>
      </trkpt>
      <trkpt lat="44.06545" lon="2.04672">
        <ele>266.2</ele>
        <time>2021-09-05T07:31:42Z</time>
      </trkpt>
      <trkpt lat="44.06548" lon="2.04671">
        <ele>265.6</ele>
        <time>2021-09-05T07:31:43Z</time>
      </trkpt>
      <trkpt lat="44.06551" lon="2.04669">
        <ele>264.8</ele>
        <time>2021-09-05T07:31:44Z</time>
      </trkpt>
      <trkpt lat="44.06556" lon="2.04672">
        <ele>263.4</ele>
        <time>2021-09-05T07:31:46Z</time>
      </trkpt>
      <trkpt lat="44.06558" lon="2.04675">
        <ele>262.6</ele>
        <time>2021-09-05T07:31:47Z</time>
      </trkpt>
      <trkpt lat="44.06559" lon="2.04679">
        <ele>262.4</ele>
        <time>2021-09-05T07:31:48Z</time>
      </trkpt>
      <trkpt lat="44.06562" lon="2.04689">
        <ele>261.6</ele>
        <time>2021-09-05T07:31:50Z</time>
      </trkpt>
      <trkpt lat="44.06562" lon="2.04694">
        <ele>260.6</ele>
        <time>2021-09-05T07:31:51Z</time>
      </trkpt>
      <trkpt lat="44.06561" lon="2.04699">
        <ele>260</ele>
        <time>2021-09-05T07:31:52Z</time>
      </trkpt>
      <trkpt lat="44.06561" lon="2.04703">
        <ele>259.6</ele>
        <time>2021-09-05T07:31:53Z</time>
      </trkpt>
      <trkpt lat="44.0656" lon="2.04707">
        <ele>258.4</ele>
        <time>2021-09-05T07:31:54Z</time>
      </trkpt>
      <trkpt lat="44.0656" lon="2.0471">
        <ele>258</ele>
        <time>2021-09-05T07:31:55Z</time>
      </trkpt>
      <trkpt lat="44.0656" lon="2.04714">
        <ele>257.2</ele>
        <time>2021-09-05T07:31:56Z</time>
      </trkpt>
      <trkpt lat="44.0656" lon="2.04717">
        <ele>256.8</ele>
        <time>2021-09-05T07:31:57Z</time>
      </trkpt>
      <trkpt lat="44.0656" lon="2.04719">
        <ele>255.8</ele>
        <time>2021-09-05T07:31:58Z</time>
      </trkpt>
      <trkpt lat="44.0656" lon="2.04722">
        <ele>255</ele>
        <time>2021-09-05T07:31:59Z</time>
      </trkpt>
      <trkpt lat="44.06561" lon="2.04724">
        <ele>255</ele>
        <time>2021-09-05T07:32:00Z</time>
      </trkpt>
      <trkpt lat="44.06562" lon="2.04727">
        <ele>254.2</ele>
        <time>2021-09-05T07:32:01Z</time>
      </trkpt>
      <trkpt lat="44.06563" lon="2.0473">
        <ele>253.8</ele>
        <time>2021-09-05T07:32:02Z</time>
      </trkpt>
      <trkpt lat="44.06563" lon="2.0473">
        <ele>253.2</ele>
        <time>2021-09-05T07:32:03Z</time>
      </trkpt>
      <trkpt lat="44.06566" lon="2.04738">
        <ele>253</ele>
        <time>2021-09-05T07:32:04Z</time>
      </trkpt>
      <trkpt lat="44.06568" lon="2.04744">
        <ele>252.8</ele>
        <time>2021-09-05T07:32:05Z</time>
      </trkpt>
      <trkpt lat="44.0657" lon="2.04747">
        <ele>252.6</ele>
        <time>2021-09-05T07:32:06Z</time>
      </trkpt>
      <trkpt lat="44.06571" lon="2.0475">
        <ele>252.2</ele>
        <time>2021-09-05T07:32:07Z</time>
      </trkpt>
      <trkpt lat="44.06573" lon="2.04752">
        <ele>251.2</ele>
        <time>2021-09-05T07:32:08Z</time>
      </trkpt>
      <trkpt lat="44.06574" lon="2.04754">
        <ele>250.6</ele>
        <time>2021-09-05T07:32:09Z</time>
      </trkpt>
      <trkpt lat="44.06576" lon="2.04755">
        <ele>249.4</ele>
        <time>2021-09-05T07:32:10Z</time>
      </trkpt>
      <trkpt lat="44.06579" lon="2.04761">
        <ele>248.4</ele>
        <time>2021-09-05T07:32:12Z</time>
      </trkpt>
      <trkpt lat="44.06581" lon="2.04763">
        <ele>248.2</ele>
        <time>2021-09-05T07:32:13Z</time>
      </trkpt>
      <trkpt lat="44.06583" lon="2.04765">
        <ele>247.2</ele>
        <time>2021-09-05T07:32:14Z</time>
      </trkpt>
      <trkpt lat="44.06585" lon="2.04767">
        <ele>246.2</ele>
        <time>2021-09-05T07:32:15Z</time>
      </trkpt>
      <trkpt lat="44.06588" lon="2.04771">
        <ele>245.6</ele>
        <time>2021-09-05T07:32:16Z</time>
      </trkpt>
      <trkpt lat="44.06591" lon="2.04773">
        <ele>244.8</ele>
        <time>2021-09-05T07:32:17Z</time>
      </trkpt>
      <trkpt lat="44.06594" lon="2.04778">
        <ele>243.6</ele>
        <time>2021-09-05T07:32:19Z</time>
      </trkpt>
      <trkpt lat="44.06596" lon="2.0478">
        <ele>243.2</ele>
        <time>2021-09-05T07:32:20Z</time>
      </trkpt>
      <trkpt lat="44.06599" lon="2.04784">
        <ele>242</ele>
        <time>2021-09-05T07:32:22Z</time>
      </trkpt>
      <trkpt lat="44.06603" lon="2.04788">
        <ele>241</ele>
        <time>2021-09-05T07:32:24Z</time>
      </trkpt>
      <trkpt lat="44.06607" lon="2.04791">
        <ele>240.6</ele>
        <time>2021-09-05T07:32:25Z</time>
      </trkpt>
      <trkpt lat="44.06609" lon="2.04794">
        <ele>239.8</ele>
        <time>2021-09-05T07:32:26Z</time>
      </trkpt>
      <trkpt lat="44.06614" lon="2.04795">
        <ele>239</ele>
        <time>2021-09-05T07:32:28Z</time>
      </trkpt>
      <trkpt lat="44.06617" lon="2.04796">
        <ele>238.6</ele>
        <time>2021-09-05T07:32:29Z</time>
      </trkpt>
      <trkpt lat="44.06622" lon="2.04796">
        <ele>237.4</ele>
        <time>2021-09-05T07:32:30Z</time>
      </trkpt>
      <trkpt lat="44.06624" lon="2.04798">
        <ele>236.6</ele>
        <time>2021-09-05T07:32:31Z</time>
      </trkpt>
      <trkpt lat="44.06629" lon="2.048">
        <ele>236.2</ele>
        <time>2021-09-05T07:32:32Z</time>
      </trkpt>
      <trkpt lat="44.06633" lon="2.04804">
        <ele>235.4</ele>
        <time>2021-09-05T07:32:33Z</time>
      </trkpt>
      <trkpt lat="44.06637" lon="2.04805">
        <ele>235.2</ele>
        <time>2021-09-05T07:32:34Z</time>
      </trkpt>
      <trkpt lat="44.06643" lon="2.04805">
        <ele>234</ele>
        <time>2021-09-05T07:32:35Z</time>
      </trkpt>
      <trkpt lat="44.06653" lon="2.04805">
        <ele>232.6</ele>
        <time>2021-09-05T07:32:37Z</time>
      </trkpt>
      <trkpt lat="44.06659" lon="2.04807">
        <ele>232</ele>
        <time>2021-09-05T07:32:38Z</time>
      </trkpt>
      <trkpt lat="44.06665" lon="2.0481">
        <ele>231.4</ele>
        <time>2021-09-05T07:32:39Z</time>
      </trkpt>
      <trkpt lat="44.06673" lon="2.04812">
        <ele>230.6</ele>
        <time>2021-09-05T07:32:40Z</time>
      </trkpt>
      <trkpt lat="44.06678" lon="2.04815">
        <ele>230</ele>
        <time>2021-09-05T07:32:41Z</time>
      </trkpt>
      <trkpt lat="44.06681" lon="2.04817">
        <ele>229</ele>
        <time>2021-09-05T07:32:42Z</time>
      </trkpt>
      <trkpt lat="44.06683" lon="2.04821">
        <ele>228.2</ele>
        <time>2021-09-05T07:32:43Z</time>
      </trkpt>
      <trkpt lat="44.06685" lon="2.04825">
        <ele>227.4</ele>
        <time>2021-09-05T07:32:44Z</time>
      </trkpt>
      <trkpt lat="44.06688" lon="2.0483">
        <ele>226.6</ele>
        <time>2021-09-05T07:32:45Z</time>
      </trkpt>
      <trkpt lat="44.06693" lon="2.04834">
        <ele>226.2</ele>
        <time>2021-09-05T07:32:46Z</time>
      </trkpt>
      <trkpt lat="44.06696" lon="2.04836">
        <ele>225.6</ele>
        <time>2021-09-05T07:32:47Z</time>
      </trkpt>
      <trkpt lat="44.06702" lon="2.04838">
        <ele>225.4</ele>
        <time>2021-09-05T07:32:48Z</time>
      </trkpt>
      <trkpt lat="44.06708" lon="2.04841">
        <ele>225</ele>
        <time>2021-09-05T07:32:49Z</time>
      </trkpt>
      <trkpt lat="44.06714" lon="2.04844">
        <ele>224.8</ele>
        <time>2021-09-05T07:32:50Z</time>
      </trkpt>
      <trkpt lat="44.06718" lon="2.04847">
        <ele>224</ele>
        <time>2021-09-05T07:32:51Z</time>
      </trkpt>
      <trkpt lat="44.06721" lon="2.04849">
        <ele>223.2</ele>
        <time>2021-09-05T07:32:52Z</time>
      </trkpt>
      <trkpt lat="44.06724" lon="2.04851">
        <ele>222.2</ele>
        <time>2021-09-05T07:32:53Z</time>
      </trkpt>
      <trkpt lat="44.06726" lon="2.04854">
        <ele>221.4</ele>
        <time>2021-09-05T07:32:54Z</time>
      </trkpt>
      <trkpt lat="44.06728" lon="2.04856">
        <ele>221.2</ele>
        <time>2021-09-05T07:32:55Z</time>
      </trkpt>
      <trkpt lat="44.0673" lon="2.04859">
        <ele>220.6</ele>
        <time>2021-09-05T07:32:56Z</time>
      </trkpt>
      <trkpt lat="44.06732" lon="2.0486">
        <ele>220.2</ele>
        <time>2021-09-05T07:32:57Z</time>
      </trkpt>
      <trkpt lat="44.06734" lon="2.04859">
        <ele>219.6</ele>
        <time>2021-09-05T07:32:58Z</time>
      </trkpt>
      <trkpt lat="44.06736" lon="2.04857">
        <ele>219.4</ele>
        <time>2021-09-05T07:32:59Z</time>
      </trkpt>
      <trkpt lat="44.0674" lon="2.04853">
        <ele>218.6</ele>
        <time>2021-09-05T07:33:02Z</time>
      </trkpt>
      <trkpt lat="44.06745" lon="2.04852">
        <ele>218.4</ele>
        <time>2021-09-05T07:33:03Z</time>
      </trkpt>
      <trkpt lat="44.06747" lon="2.04851">
        <ele>218.4</ele>
        <time>2021-09-05T07:33:04Z</time>
      </trkpt>
      <trkpt lat="44.06748" lon="2.04849">
        <ele>218.2</ele>
        <time>2021-09-05T07:33:05Z</time>
      </trkpt>
      <trkpt lat="44.06748" lon="2.04848">
        <ele>218</ele>
        <time>2021-09-05T07:33:06Z</time>
      </trkpt>
      <trkpt lat="44.06748" lon="2.04848">
        <ele>217.8</ele>
        <time>2021-09-05T07:33:07Z</time>
      </trkpt>
      <trkpt lat="44.0675" lon="2.04853">
        <ele>215.8</ele>
        <time>2021-09-05T07:40:38Z</time>
      </trkpt>
      <trkpt lat="44.06751" lon="2.04856">
        <ele>215.8</ele>
        <time>2021-09-05T07:40:39Z</time>
      </trkpt>
      <trkpt lat="44.06752" lon="2.04859">
        <ele>215.8</ele>
        <time>2021-09-05T07:40:40Z</time>
      </trkpt>
      <trkpt lat="44.06754" lon="2.04862">
        <ele>215.8</ele>
        <time>2021-09-05T07:40:41Z</time>
      </trkpt>
      <trkpt lat="44.06764" lon="2.04874">
        <ele>215</ele>
        <time>2021-09-05T07:40:45Z</time>
      </trkpt>
      <trkpt lat="44.06767" lon="2.04876">
        <ele>215</ele>
        <time>2021-09-05T07:40:46Z</time>
      </trkpt>
      <trkpt lat="44.0677" lon="2.04879">
        <ele>214.6</ele>
        <time>2021-09-05T07:40:47Z</time>
      </trkpt>
      <trkpt lat="44.06774" lon="2.04881">
        <ele>214.2</ele>
        <time>2021-09-05T07:40:49Z</time>
      </trkpt>
      <trkpt lat="44.06776" lon="2.04881">
        <ele>213.8</ele>
        <time>2021-09-05T07:40:50Z</time>
      </trkpt>
      <trkpt lat="44.06777" lon="2.04881">
        <ele>213.6</ele>
        <time>2021-09-05T07:40:51Z</time>
      </trkpt>
      <trkpt lat="44.06779" lon="2.04881">
        <ele>213.2</ele>
        <time>2021-09-05T07:40:52Z</time>
      </trkpt>
      <trkpt lat="44.06781" lon="2.04881">
        <ele>213</ele>
        <time>2021-09-05T07:40:53Z</time>
      </trkpt>
      <trkpt lat="44.06782" lon="2.0488">
        <ele>212.6</ele>
        <time>2021-09-05T07:40:54Z</time>
      </trkpt>
      <trkpt lat="44.06783" lon="2.04878">
        <ele>212.4</ele>
        <time>2021-09-05T07:40:55Z</time>
      </trkpt>
      <trkpt lat="44.06784" lon="2.04876">
        <ele>212</ele>
        <time>2021-09-05T07:40:56Z</time>
      </trkpt>
      <trkpt lat="44.06785" lon="2.04876">
        <ele>211.6</ele>
        <time>2021-09-05T07:40:57Z</time>
      </trkpt>
      <trkpt lat="44.06785" lon="2.04875">
        <ele>211.4</ele>
        <time>2021-09-05T07:40:58Z</time>
      </trkpt>
      <trkpt lat="44.06786" lon="2.04875">
        <ele>210.8</ele>
        <time>2021-09-05T07:40:59Z</time>
      </trkpt>
      <trkpt lat="44.06787" lon="2.04872">
        <ele>209.4</ele>
        <time>2021-09-05T07:41:20Z</time>
      </trkpt>
      <trkpt lat="44.06788" lon="2.0487">
        <ele>209.4</ele>
        <time>2021-09-05T07:41:21Z</time>
      </trkpt>
      <trkpt lat="44.0679" lon="2.04866">
        <ele>209.2</ele>
        <time>2021-09-05T07:41:23Z</time>
      </trkpt>
      <trkpt lat="44.06797" lon="2.04857">
        <ele>208.6</ele>
        <time>2021-09-05T07:41:27Z</time>
      </trkpt>
      <trkpt lat="44.06799" lon="2.04854">
        <ele>208</ele>
        <time>2021-09-05T07:41:28Z</time>
      </trkpt>
      <trkpt lat="44.06801" lon="2.04852">
        <ele>207.8</ele>
        <time>2021-09-05T07:41:29Z</time>
      </trkpt>
      <trkpt lat="44.06803" lon="2.04849">
        <ele>206.4</ele>
        <time>2021-09-05T07:41:41Z</time>
      </trkpt>
      <trkpt lat="44.06804" lon="2.04847">
        <ele>206.4</ele>
        <time>2021-09-05T07:41:42Z</time>
      </trkpt>
      <trkpt lat="44.06809" lon="2.04844">
        <ele>206.2</ele>
        <time>2021-09-05T07:41:45Z</time>
      </trkpt>
      <trkpt lat="44.06811" lon="2.04843">
        <ele>206.2</ele>
        <time>2021-09-05T07:41:46Z</time>
      </trkpt>
      <trkpt lat="44.06813" lon="2.04841">
        <ele>205.4</ele>
        <time>2021-09-05T07:41:48Z</time>
      </trkpt>
      <trkpt lat="44.06815" lon="2.04837">
        <ele>204.8</ele>
        <time>2021-09-05T07:41:49Z</time>
      </trkpt>
      <trkpt lat="44.06818" lon="2.04834">
        <ele>204.2</ele>
        <time>2021-09-05T07:41:50Z</time>
      </trkpt>
      <trkpt lat="44.06822" lon="2.04831">
        <ele>203.4</ele>
        <time>2021-09-05T07:41:51Z</time>
      </trkpt>
      <trkpt lat="44.06827" lon="2.04828">
        <ele>202.8</ele>
        <time>2021-09-05T07:41:52Z</time>
      </trkpt>
      <trkpt lat="44.06831" lon="2.04827">
        <ele>202.4</ele>
        <time>2021-09-05T07:41:53Z</time>
      </trkpt>
      <trkpt lat="44.06835" lon="2.04829">
        <ele>202</ele>
        <time>2021-09-05T07:41:54Z</time>
      </trkpt>
      <trkpt lat="44.06837" lon="2.04835">
        <ele>201.8</ele>
        <time>2021-09-05T07:41:55Z</time>
      </trkpt>
      <trkpt lat="44.06838" lon="2.04842">
        <ele>201</ele>
        <time>2021-09-05T07:41:56Z</time>
      </trkpt>
      <trkpt lat="44.06839" lon="2.04849">
        <ele>200.8</ele>
        <time>2021-09-05T07:41:57Z</time>
      </trkpt>
      <trkpt lat="44.06838" lon="2.04855">
        <ele>200</ele>
        <time>2021-09-05T07:41:58Z</time>
      </trkpt>
      <trkpt lat="44.06839" lon="2.04862">
        <ele>199.6</ele>
        <time>2021-09-05T07:41:59Z</time>
      </trkpt>
      <trkpt lat="44.0684" lon="2.04866">
        <ele>197.4</ele>
        <time>2021-09-05T07:42:00Z</time>
      </trkpt>
      <trkpt lat="44.06843" lon="2.04868">
        <ele>196</ele>
        <time>2021-09-05T07:42:01Z</time>
      </trkpt>
      <trkpt lat="44.06846" lon="2.04868">
        <ele>195.4</ele>
        <time>2021-09-05T07:42:02Z</time>
      </trkpt>
      <trkpt lat="44.06847" lon="2.04867">
        <ele>194</ele>
        <time>2021-09-05T07:42:03Z</time>
      </trkpt>
      <trkpt lat="44.06848" lon="2.04867">
        <ele>193.4</ele>
        <time>2021-09-05T07:42:04Z</time>
      </trkpt>
      <trkpt lat="44.06848" lon="2.04867">
        <ele>189.4</ele>
        <time>2021-09-05T07:43:28Z</time>
      </trkpt>
      <trkpt lat="44.06853" lon="2.04859">
        <ele>189.2</ele>
        <time>2021-09-05T07:43:31Z</time>
      </trkpt>
      <trkpt lat="44.06855" lon="2.04856">
        <ele>189.2</ele>
        <time>2021-09-05T07:43:32Z</time>
      </trkpt>
      <trkpt lat="44.06857" lon="2.04852">
        <ele>189.2</ele>
        <time>2021-09-05T07:43:33Z</time>
      </trkpt>
      <trkpt lat="44.06863" lon="2.04839">
        <ele>189</ele>
        <time>2021-09-05T07:43:35Z</time>
      </trkpt>
      <trkpt lat="44.06865" lon="2.04834">
        <ele>189</ele>
        <time>2021-09-05T07:43:36Z</time>
      </trkpt>
      <trkpt lat="44.06869" lon="2.04821">
        <ele>188.8</ele>
        <time>2021-09-05T07:43:38Z</time>
      </trkpt>
      <trkpt lat="44.06871" lon="2.04814">
        <ele>188.6</ele>
        <time>2021-09-05T07:43:39Z</time>
      </trkpt>
      <trkpt lat="44.06871" lon="2.04807">
        <ele>188.4</ele>
        <time>2021-09-05T07:43:40Z</time>
      </trkpt>
      <trkpt lat="44.0687" lon="2.04801">
        <ele>188.2</ele>
        <time>2021-09-05T07:43:41Z</time>
      </trkpt>
      <trkpt lat="44.06869" lon="2.04794">
        <ele>188</ele>
        <time>2021-09-05T07:43:42Z</time>
      </trkpt>
      <trkpt lat="44.0687" lon="2.04789">
        <ele>188</ele>
        <time>2021-09-05T07:43:43Z</time>
      </trkpt>
      <trkpt lat="44.06873" lon="2.04781">
        <ele>188</ele>
        <time>2021-09-05T07:43:44Z</time>
      </trkpt>
      <trkpt lat="44.06876" lon="2.04773">
        <ele>187.8</ele>
        <time>2021-09-05T07:43:45Z</time>
      </trkpt>
      <trkpt lat="44.0688" lon="2.04763">
        <ele>187.8</ele>
        <time>2021-09-05T07:43:46Z</time>
      </trkpt>
      <trkpt lat="44.06883" lon="2.04753">
        <ele>187.8</ele>
        <time>2021-09-05T07:43:47Z</time>
      </trkpt>
      <trkpt lat="44.06887" lon="2.04745">
        <ele>187.8</ele>
        <time>2021-09-05T07:43:48Z</time>
      </trkpt>
      <trkpt lat="44.0689" lon="2.0474">
        <ele>187.6</ele>
        <time>2021-09-05T07:43:49Z</time>
      </trkpt>
      <trkpt lat="44.06893" lon="2.04733">
        <ele>187.4</ele>
        <time>2021-09-05T07:43:50Z</time>
      </trkpt>
      <trkpt lat="44.06896" lon="2.04728">
        <ele>187.2</ele>
        <time>2021-09-05T07:43:51Z</time>
      </trkpt>
      <trkpt lat="44.06899" lon="2.04725">
        <ele>187</ele>
        <time>2021-09-05T07:43:52Z</time>
      </trkpt>
      <trkpt lat="44.06901" lon="2.04723">
        <ele>187</ele>
        <time>2021-09-05T07:43:53Z</time>
      </trkpt>
      <trkpt lat="44.06904" lon="2.04722">
        <ele>187</ele>
        <time>2021-09-05T07:43:54Z</time>
      </trkpt>
      <trkpt lat="44.06905" lon="2.04721">
        <ele>187</ele>
        <time>2021-09-05T07:43:55Z</time>
      </trkpt>
      <trkpt lat="44.06906" lon="2.04719">
        <ele>187</ele>
        <time>2021-09-05T07:43:56Z</time>
      </trkpt>
      <trkpt lat="44.06907" lon="2.04719">
        <ele>187.2</ele>
        <time>2021-09-05T07:43:57Z</time>
      </trkpt>
      <trkpt lat="44.06907" lon="2.04718">
        <ele>187.2</ele>
        <time>2021-09-05T07:43:58Z</time>
      </trkpt>
      <trkpt lat="44.06908" lon="2.04718">
        <ele>187.4</ele>
        <time>2021-09-05T07:43:59Z</time>
      </trkpt>
      <trkpt lat="44.06911" lon="2.04717">
        <ele>187.6</ele>
        <time>2021-09-05T07:44:01Z</time>
      </trkpt>
      <trkpt lat="44.06917" lon="2.04714">
        <ele>187.8</ele>
        <time>2021-09-05T07:44:05Z</time>
      </trkpt>
      <trkpt lat="44.06932" lon="2.04708">
        <ele>187.8</ele>
        <time>2021-09-05T07:44:08Z</time>
      </trkpt>
      <trkpt lat="44.06942" lon="2.04704">
        <ele>187.8</ele>
        <time>2021-09-05T07:44:10Z</time>
      </trkpt>
      <trkpt lat="44.06947" lon="2.047">
        <ele>187.8</ele>
        <time>2021-09-05T07:44:11Z</time>
      </trkpt>
      <trkpt lat="44.06952" lon="2.04695">
        <ele>187.8</ele>
        <time>2021-09-05T07:44:12Z</time>
      </trkpt>
      <trkpt lat="44.06955" lon="2.04692">
        <ele>187.6</ele>
        <time>2021-09-05T07:44:13Z</time>
      </trkpt>
      <trkpt lat="44.06958" lon="2.04689">
        <ele>187.4</ele>
        <time>2021-09-05T07:44:14Z</time>
      </trkpt>
      <trkpt lat="44.06962" lon="2.04687">
        <ele>187.4</ele>
        <time>2021-09-05T07:44:15Z</time>
      </trkpt>
      <trkpt lat="44.06966" lon="2.04686">
        <ele>187.2</ele>
        <time>2021-09-05T07:44:16Z</time>
      </trkpt>
      <trkpt lat="44.0697" lon="2.04688">
        <ele>187.2</ele>
        <time>2021-09-05T07:44:17Z</time>
      </trkpt>
      <trkpt lat="44.06972" lon="2.0469">
        <ele>187</ele>
        <time>2021-09-05T07:44:18Z</time>
      </trkpt>
      <trkpt lat="44.06974" lon="2.04693">
        <ele>187</ele>
        <time>2021-09-05T07:44:19Z</time>
      </trkpt>
      <trkpt lat="44.06976" lon="2.04697">
        <ele>187</ele>
        <time>2021-09-05T07:44:20Z</time>
      </trkpt>
      <trkpt lat="44.06979" lon="2.04701">
        <ele>187</ele>
        <time>2021-09-05T07:44:21Z</time>
      </trkpt>
      <trkpt lat="44.06981" lon="2.04704">
        <ele>187.2</ele>
        <time>2021-09-05T07:44:22Z</time>
      </trkpt>
      <trkpt lat="44.06983" lon="2.04707">
        <ele>187.2</ele>
        <time>2021-09-05T07:44:23Z</time>
      </trkpt>
      <trkpt lat="44.06985" lon="2.04712">
        <ele>187.4</ele>
        <time>2021-09-05T07:44:24Z</time>
      </trkpt>
      <trkpt lat="44.06987" lon="2.04716">
        <ele>187.6</ele>
        <time>2021-09-05T07:44:25Z</time>
      </trkpt>
      <trkpt lat="44.06993" lon="2.04728">
        <ele>188</ele>
        <time>2021-09-05T07:44:28Z</time>
      </trkpt>
      <trkpt lat="44.06994" lon="2.04731">
        <ele>188.4</ele>
        <time>2021-09-05T07:44:29Z</time>
      </trkpt>
      <trkpt lat="44.07001" lon="2.04739">
        <ele>189.2</ele>
        <time>2021-09-05T07:44:32Z</time>
      </trkpt>
      <trkpt lat="44.07004" lon="2.04742">
        <ele>189.2</ele>
        <time>2021-09-05T07:44:33Z</time>
      </trkpt>
      <trkpt lat="44.07004" lon="2.04742">
        <ele>189.2</ele>
        <time>2021-09-05T07:44:34Z</time>
      </trkpt>
      <trkpt lat="44.0701" lon="2.04749">
        <ele>189.4</ele>
        <time>2021-09-05T07:44:35Z</time>
      </trkpt>
      <trkpt lat="44.07014" lon="2.04755">
        <ele>189.6</ele>
        <time>2021-09-05T07:44:36Z</time>
      </trkpt>
      <trkpt lat="44.07025" lon="2.0477">
        <ele>190</ele>
        <time>2021-09-05T07:44:39Z</time>
      </trkpt>
      <trkpt lat="44.07027" lon="2.04773">
        <ele>190</ele>
        <time>2021-09-05T07:44:40Z</time>
      </trkpt>
      <trkpt lat="44.0703" lon="2.04779">
        <ele>190</ele>
        <time>2021-09-05T07:44:41Z</time>
      </trkpt>
      <trkpt lat="44.07033" lon="2.04782">
        <ele>190</ele>
        <time>2021-09-05T07:44:42Z</time>
      </trkpt>
      <trkpt lat="44.07036" lon="2.04787">
        <ele>190</ele>
        <time>2021-09-05T07:44:43Z</time>
      </trkpt>
      <trkpt lat="44.07039" lon="2.04791">
        <ele>190</ele>
        <time>2021-09-05T07:44:44Z</time>
      </trkpt>
      <trkpt lat="44.07043" lon="2.04795">
        <ele>190</ele>
        <time>2021-09-05T07:44:45Z</time>
      </trkpt>
      <trkpt lat="44.07047" lon="2.04801">
        <ele>190</ele>
        <time>2021-09-05T07:44:46Z</time>
      </trkpt>
      <trkpt lat="44.0705" lon="2.04805">
        <ele>190</ele>
        <time>2021-09-05T07:44:47Z</time>
      </trkpt>
      <trkpt lat="44.07054" lon="2.04809">
        <ele>190</ele>
        <time>2021-09-05T07:44:48Z</time>
      </trkpt>
      <trkpt lat="44.07057" lon="2.04813">
        <ele>189.8</ele>
        <time>2021-09-05T07:44:49Z</time>
      </trkpt>
      <trkpt lat="44.07073" lon="2.04831">
        <ele>189.8</ele>
        <time>2021-09-05T07:44:53Z</time>
      </trkpt>
      <trkpt lat="44.07085" lon="2.04845">
        <ele>189.8</ele>
        <time>2021-09-05T07:44:56Z</time>
      </trkpt>
      <trkpt lat="44.07088" lon="2.0485">
        <ele>189.8</ele>
        <time>2021-09-05T07:44:57Z</time>
      </trkpt>
      <trkpt lat="44.07092" lon="2.04854">
        <ele>189.8</ele>
        <time>2021-09-05T07:44:58Z</time>
      </trkpt>
      <trkpt lat="44.07094" lon="2.04858">
        <ele>189.8</ele>
        <time>2021-09-05T07:44:59Z</time>
      </trkpt>
      <trkpt lat="44.07096" lon="2.04862">
        <ele>189.8</ele>
        <time>2021-09-05T07:45:00Z</time>
      </trkpt>
      <trkpt lat="44.07098" lon="2.04866">
        <ele>189.8</ele>
        <time>2021-09-05T07:45:01Z</time>
      </trkpt>
      <trkpt lat="44.07098" lon="2.0487">
        <ele>189.8</ele>
        <time>2021-09-05T07:45:02Z</time>
      </trkpt>
      <trkpt lat="44.071" lon="2.04874">
        <ele>189.8</ele>
        <time>2021-09-05T07:45:03Z</time>
      </trkpt>
      <trkpt lat="44.07104" lon="2.04881">
        <ele>189.8</ele>
        <time>2021-09-05T07:45:05Z</time>
      </trkpt>
      <trkpt lat="44.07109" lon="2.04892">
        <ele>189.8</ele>
        <time>2021-09-05T07:45:08Z</time>
      </trkpt>
      <trkpt lat="44.07112" lon="2.04896">
        <ele>190</ele>
        <time>2021-09-05T07:45:09Z</time>
      </trkpt>
      <trkpt lat="44.07119" lon="2.04908">
        <ele>190</ele>
        <time>2021-09-05T07:45:12Z</time>
      </trkpt>
      <trkpt lat="44.07121" lon="2.04912">
        <ele>190</ele>
        <time>2021-09-05T07:45:13Z</time>
      </trkpt>
      <trkpt lat="44.07123" lon="2.04917">
        <ele>190</ele>
        <time>2021-09-05T07:45:14Z</time>
      </trkpt>
      <trkpt lat="44.0713" lon="2.04932">
        <ele>189.8</ele>
        <time>2021-09-05T07:45:17Z</time>
      </trkpt>
      <trkpt lat="44.07132" lon="2.04937">
        <ele>189.8</ele>
        <time>2021-09-05T07:45:18Z</time>
      </trkpt>
      <trkpt lat="44.07135" lon="2.04942">
        <ele>189.8</ele>
        <time>2021-09-05T07:45:19Z</time>
      </trkpt>
      <trkpt lat="44.07137" lon="2.04947">
        <ele>189.8</ele>
        <time>2021-09-05T07:45:20Z</time>
      </trkpt>
      <trkpt lat="44.07139" lon="2.04952">
        <ele>189.8</ele>
        <time>2021-09-05T07:45:21Z</time>
      </trkpt>
      <trkpt lat="44.07142" lon="2.04956">
        <ele>190</ele>
        <time>2021-09-05T07:45:22Z</time>
      </trkpt>
      <trkpt lat="44.07146" lon="2.04965">
        <ele>190</ele>
        <time>2021-09-05T07:45:24Z</time>
      </trkpt>
      <trkpt lat="44.07148" lon="2.0497">
        <ele>189.8</ele>
        <time>2021-09-05T07:45:25Z</time>
      </trkpt>
      <trkpt lat="44.0715" lon="2.04975">
        <ele>189.8</ele>
        <time>2021-09-05T07:45:26Z</time>
      </trkpt>
      <trkpt lat="44.07151" lon="2.04979">
        <ele>190</ele>
        <time>2021-09-05T07:45:27Z</time>
      </trkpt>
      <trkpt lat="44.07155" lon="2.04993">
        <ele>190.2</ele>
        <time>2021-09-05T07:45:30Z</time>
      </trkpt>
      <trkpt lat="44.07159" lon="2.05003">
        <ele>190.2</ele>
        <time>2021-09-05T07:45:32Z</time>
      </trkpt>
      <trkpt lat="44.07164" lon="2.05012">
        <ele>190.2</ele>
        <time>2021-09-05T07:45:34Z</time>
      </trkpt>
      <trkpt lat="44.07166" lon="2.05018">
        <ele>190</ele>
        <time>2021-09-05T07:45:35Z</time>
      </trkpt>
      <trkpt lat="44.07174" lon="2.05033">
        <ele>190</ele>
        <time>2021-09-05T07:45:38Z</time>
      </trkpt>
      <trkpt lat="44.07177" lon="2.05039">
        <ele>190.2</ele>
        <time>2021-09-05T07:45:39Z</time>
      </trkpt>
      <trkpt lat="44.07179" lon="2.05044">
        <ele>190.2</ele>
        <time>2021-09-05T07:45:40Z</time>
      </trkpt>
      <trkpt lat="44.07181" lon="2.0505">
        <ele>190.2</ele>
        <time>2021-09-05T07:45:41Z</time>
      </trkpt>
      <trkpt lat="44.07185" lon="2.0506">
        <ele>190.2</ele>
        <time>2021-09-05T07:45:43Z</time>
      </trkpt>
      <trkpt lat="44.07189" lon="2.05071">
        <ele>190.2</ele>
        <time>2021-09-05T07:45:45Z</time>
      </trkpt>
      <trkpt lat="44.07193" lon="2.05082">
        <ele>190.4</ele>
        <time>2021-09-05T07:45:47Z</time>
      </trkpt>
      <trkpt lat="44.07195" lon="2.05094">
        <ele>190.4</ele>
        <time>2021-09-05T07:45:49Z</time>
      </trkpt>
      <trkpt lat="44.072" lon="2.05105">
        <ele>190.4</ele>
        <time>2021-09-05T07:45:51Z</time>
      </trkpt>
      <trkpt lat="44.07205" lon="2.05118">
        <ele>190.4</ele>
        <time>2021-09-05T07:45:53Z</time>
      </trkpt>
      <trkpt lat="44.07207" lon="2.05123">
        <ele>190.6</ele>
        <time>2021-09-05T07:45:54Z</time>
      </trkpt>
      <trkpt lat="44.07208" lon="2.05128">
        <ele>190.8</ele>
        <time>2021-09-05T07:45:55Z</time>
      </trkpt>
      <trkpt lat="44.07213" lon="2.0514">
        <ele>190.6</ele>
        <time>2021-09-05T07:45:57Z</time>
      </trkpt>
      <trkpt lat="44.07216" lon="2.05145">
        <ele>190.8</ele>
        <time>2021-09-05T07:45:58Z</time>
      </trkpt>
      <trkpt lat="44.07224" lon="2.05165">
        <ele>190.6</ele>
        <time>2021-09-05T07:46:02Z</time>
      </trkpt>
      <trkpt lat="44.07228" lon="2.05182">
        <ele>190.8</ele>
        <time>2021-09-05T07:46:05Z</time>
      </trkpt>
      <trkpt lat="44.07232" lon="2.05194">
        <ele>190.8</ele>
        <time>2021-09-05T07:46:07Z</time>
      </trkpt>
      <trkpt lat="44.07235" lon="2.05206">
        <ele>190.8</ele>
        <time>2021-09-05T07:46:09Z</time>
      </trkpt>
      <trkpt lat="44.07237" lon="2.05212">
        <ele>190.8</ele>
        <time>2021-09-05T07:46:10Z</time>
      </trkpt>
      <trkpt lat="44.0724" lon="2.05224">
        <ele>191</ele>
        <time>2021-09-05T07:46:12Z</time>
      </trkpt>
      <trkpt lat="44.07243" lon="2.05235">
        <ele>191</ele>
        <time>2021-09-05T07:46:14Z</time>
      </trkpt>
      <trkpt lat="44.07244" lon="2.05241">
        <ele>190.8</ele>
        <time>2021-09-05T07:46:15Z</time>
      </trkpt>
      <trkpt lat="44.07246" lon="2.05253">
        <ele>190.8</ele>
        <time>2021-09-05T07:46:17Z</time>
      </trkpt>
      <trkpt lat="44.07247" lon="2.05259">
        <ele>190.8</ele>
        <time>2021-09-05T07:46:18Z</time>
      </trkpt>
      <trkpt lat="44.07248" lon="2.05265">
        <ele>190.8</ele>
        <time>2021-09-05T07:46:19Z</time>
      </trkpt>
      <trkpt lat="44.07249" lon="2.05271">
        <ele>190.6</ele>
        <time>2021-09-05T07:46:20Z</time>
      </trkpt>
      <trkpt lat="44.0725" lon="2.05277">
        <ele>190.6</ele>
        <time>2021-09-05T07:46:21Z</time>
      </trkpt>
      <trkpt lat="44.0725" lon="2.05284">
        <ele>190.4</ele>
        <time>2021-09-05T07:46:22Z</time>
      </trkpt>
      <trkpt lat="44.07251" lon="2.05297">
        <ele>190.6</ele>
        <time>2021-09-05T07:46:24Z</time>
      </trkpt>
      <trkpt lat="44.07252" lon="2.05307">
        <ele>190.6</ele>
        <time>2021-09-05T07:46:26Z</time>
      </trkpt>
      <trkpt lat="44.07251" lon="2.05313">
        <ele>190.8</ele>
        <time>2021-09-05T07:46:27Z</time>
      </trkpt>
      <trkpt lat="44.07251" lon="2.05319">
        <ele>190.8</ele>
        <time>2021-09-05T07:46:28Z</time>
      </trkpt>
      <trkpt lat="44.07251" lon="2.05325">
        <ele>191</ele>
        <time>2021-09-05T07:46:29Z</time>
      </trkpt>
      <trkpt lat="44.07251" lon="2.0533">
        <ele>191</ele>
        <time>2021-09-05T07:46:30Z</time>
      </trkpt>
      <trkpt lat="44.0725" lon="2.05335">
        <ele>191</ele>
        <time>2021-09-05T07:46:31Z</time>
      </trkpt>
      <trkpt lat="44.07249" lon="2.0534">
        <ele>191</ele>
        <time>2021-09-05T07:46:32Z</time>
      </trkpt>
      <trkpt lat="44.07248" lon="2.05344">
        <ele>191</ele>
        <time>2021-09-05T07:46:33Z</time>
      </trkpt>
      <trkpt lat="44.07247" lon="2.05362">
        <ele>191</ele>
        <time>2021-09-05T07:46:36Z</time>
      </trkpt>
      <trkpt lat="44.07246" lon="2.05374">
        <ele>191</ele>
        <time>2021-09-05T07:46:38Z</time>
      </trkpt>
      <trkpt lat="44.07245" lon="2.0538">
        <ele>191</ele>
        <time>2021-09-05T07:46:39Z</time>
      </trkpt>
      <trkpt lat="44.07243" lon="2.05387">
        <ele>191</ele>
        <time>2021-09-05T07:46:40Z</time>
      </trkpt>
      <trkpt lat="44.07242" lon="2.05394">
        <ele>191</ele>
        <time>2021-09-05T07:46:41Z</time>
      </trkpt>
      <trkpt lat="44.07241" lon="2.054">
        <ele>191</ele>
        <time>2021-09-05T07:46:42Z</time>
      </trkpt>
      <trkpt lat="44.07239" lon="2.05405">
        <ele>191</ele>
        <time>2021-09-05T07:46:43Z</time>
      </trkpt>
      <trkpt lat="44.07238" lon="2.05411">
        <ele>191</ele>
        <time>2021-09-05T07:46:44Z</time>
      </trkpt>
      <trkpt lat="44.07234" lon="2.05425">
        <ele>191.2</ele>
        <time>2021-09-05T07:46:46Z</time>
      </trkpt>
      <trkpt lat="44.0723" lon="2.05435">
        <ele>191.2</ele>
        <time>2021-09-05T07:46:48Z</time>
      </trkpt>
      <trkpt lat="44.07227" lon="2.05449">
        <ele>191.4</ele>
        <time>2021-09-05T07:46:50Z</time>
      </trkpt>
      <trkpt lat="44.07222" lon="2.05462">
        <ele>191.6</ele>
        <time>2021-09-05T07:46:52Z</time>
      </trkpt>
      <trkpt lat="44.07219" lon="2.05468">
        <ele>191.6</ele>
        <time>2021-09-05T07:46:53Z</time>
      </trkpt>
      <trkpt lat="44.07218" lon="2.05473">
        <ele>191.8</ele>
        <time>2021-09-05T07:46:54Z</time>
      </trkpt>
      <trkpt lat="44.07218" lon="2.05479">
        <ele>191.8</ele>
        <time>2021-09-05T07:46:55Z</time>
      </trkpt>
      <trkpt lat="44.07214" lon="2.05496">
        <ele>191.8</ele>
        <time>2021-09-05T07:46:58Z</time>
      </trkpt>
      <trkpt lat="44.07212" lon="2.05501">
        <ele>191.8</ele>
        <time>2021-09-05T07:46:59Z</time>
      </trkpt>
      <trkpt lat="44.07206" lon="2.05516">
        <ele>191.8</ele>
        <time>2021-09-05T07:47:02Z</time>
      </trkpt>
      <trkpt lat="44.07203" lon="2.05522">
        <ele>191.8</ele>
        <time>2021-09-05T07:47:03Z</time>
      </trkpt>
      <trkpt lat="44.07201" lon="2.05529">
        <ele>191.8</ele>
        <time>2021-09-05T07:47:04Z</time>
      </trkpt>
      <trkpt lat="44.07196" lon="2.05541">
        <ele>191.8</ele>
        <time>2021-09-05T07:47:06Z</time>
      </trkpt>
      <trkpt lat="44.07194" lon="2.05547">
        <ele>191.6</ele>
        <time>2021-09-05T07:47:07Z</time>
      </trkpt>
      <trkpt lat="44.0719" lon="2.0556">
        <ele>191.6</ele>
        <time>2021-09-05T07:47:09Z</time>
      </trkpt>
      <trkpt lat="44.07188" lon="2.05566">
        <ele>191.6</ele>
        <time>2021-09-05T07:47:10Z</time>
      </trkpt>
      <trkpt lat="44.0718" lon="2.05611">
        <ele>191.6</ele>
        <time>2021-09-05T07:47:16Z</time>
      </trkpt>
      <trkpt lat="44.07179" lon="2.05618">
        <ele>191.6</ele>
        <time>2021-09-05T07:47:17Z</time>
      </trkpt>
      <trkpt lat="44.07178" lon="2.05625">
        <ele>191.6</ele>
        <time>2021-09-05T07:47:18Z</time>
      </trkpt>
      <trkpt lat="44.07176" lon="2.05631">
        <ele>191.6</ele>
        <time>2021-09-05T07:47:19Z</time>
      </trkpt>
      <trkpt lat="44.07174" lon="2.05653">
        <ele>191.8</ele>
        <time>2021-09-05T07:47:22Z</time>
      </trkpt>
      <trkpt lat="44.07174" lon="2.0566">
        <ele>191.8</ele>
        <time>2021-09-05T07:47:23Z</time>
      </trkpt>
      <trkpt lat="44.07174" lon="2.05666">
        <ele>191.8</ele>
        <time>2021-09-05T07:47:24Z</time>
      </trkpt>
      <trkpt lat="44.07174" lon="2.05679">
        <ele>191.6</ele>
        <time>2021-09-05T07:47:26Z</time>
      </trkpt>
      <trkpt lat="44.07176" lon="2.05705">
        <ele>191.2</ele>
        <time>2021-09-05T07:47:30Z</time>
      </trkpt>
      <trkpt lat="44.07176" lon="2.05712">
        <ele>191.2</ele>
        <time>2021-09-05T07:47:31Z</time>
      </trkpt>
      <trkpt lat="44.07176" lon="2.05719">
        <ele>191</ele>
        <time>2021-09-05T07:47:32Z</time>
      </trkpt>
      <trkpt lat="44.0718" lon="2.05753">
        <ele>191.2</ele>
        <time>2021-09-05T07:47:37Z</time>
      </trkpt>
      <trkpt lat="44.0718" lon="2.0576">
        <ele>191.2</ele>
        <time>2021-09-05T07:47:38Z</time>
      </trkpt>
      <trkpt lat="44.07181" lon="2.05766">
        <ele>191.2</ele>
        <time>2021-09-05T07:47:39Z</time>
      </trkpt>
      <trkpt lat="44.07186" lon="2.05799">
        <ele>191.6</ele>
        <time>2021-09-05T07:47:44Z</time>
      </trkpt>
      <trkpt lat="44.07189" lon="2.05812">
        <ele>191.6</ele>
        <time>2021-09-05T07:47:46Z</time>
      </trkpt>
      <trkpt lat="44.07194" lon="2.05831">
        <ele>191.6</ele>
        <time>2021-09-05T07:47:49Z</time>
      </trkpt>
      <trkpt lat="44.07202" lon="2.05857">
        <ele>191.4</ele>
        <time>2021-09-05T07:47:53Z</time>
      </trkpt>
      <trkpt lat="44.07204" lon="2.05863">
        <ele>191.2</ele>
        <time>2021-09-05T07:47:54Z</time>
      </trkpt>
      <trkpt lat="44.07209" lon="2.05876">
        <ele>191.2</ele>
        <time>2021-09-05T07:47:56Z</time>
      </trkpt>
      <trkpt lat="44.07211" lon="2.05882">
        <ele>191.4</ele>
        <time>2021-09-05T07:47:57Z</time>
      </trkpt>
      <trkpt lat="44.07213" lon="2.05887">
        <ele>191.4</ele>
        <time>2021-09-05T07:47:58Z</time>
      </trkpt>
      <trkpt lat="44.07215" lon="2.05893">
        <ele>191.4</ele>
        <time>2021-09-05T07:47:59Z</time>
      </trkpt>
      <trkpt lat="44.07217" lon="2.05898">
        <ele>191.4</ele>
        <time>2021-09-05T07:48:00Z</time>
      </trkpt>
      <trkpt lat="44.07222" lon="2.05909">
        <ele>191.2</ele>
        <time>2021-09-05T07:48:02Z</time>
      </trkpt>
      <trkpt lat="44.07227" lon="2.0592">
        <ele>191.2</ele>
        <time>2021-09-05T07:48:04Z</time>
      </trkpt>
      <trkpt lat="44.07239" lon="2.05942">
        <ele>191.2</ele>
        <time>2021-09-05T07:48:08Z</time>
      </trkpt>
      <trkpt lat="44.07249" lon="2.05956">
        <ele>191.2</ele>
        <time>2021-09-05T07:48:11Z</time>
      </trkpt>
      <trkpt lat="44.07253" lon="2.0596">
        <ele>191.2</ele>
        <time>2021-09-05T07:48:12Z</time>
      </trkpt>
      <trkpt lat="44.0727" lon="2.05982">
        <ele>191</ele>
        <time>2021-09-05T07:48:17Z</time>
      </trkpt>
      <trkpt lat="44.07281" lon="2.05997">
        <ele>191</ele>
        <time>2021-09-05T07:48:20Z</time>
      </trkpt>
      <trkpt lat="44.07284" lon="2.06003">
        <ele>191</ele>
        <time>2021-09-05T07:48:21Z</time>
      </trkpt>
      <trkpt lat="44.07294" lon="2.06016">
        <ele>190.8</ele>
        <time>2021-09-05T07:48:24Z</time>
      </trkpt>
      <trkpt lat="44.07297" lon="2.0602">
        <ele>190.8</ele>
        <time>2021-09-05T07:48:25Z</time>
      </trkpt>
      <trkpt lat="44.07299" lon="2.06024">
        <ele>190.8</ele>
        <time>2021-09-05T07:48:26Z</time>
      </trkpt>
      <trkpt lat="44.07304" lon="2.0603">
        <ele>190.6</ele>
        <time>2021-09-05T07:48:28Z</time>
      </trkpt>
      <trkpt lat="44.07307" lon="2.06034">
        <ele>190.6</ele>
        <time>2021-09-05T07:48:29Z</time>
      </trkpt>
      <trkpt lat="44.0731" lon="2.06037">
        <ele>190.6</ele>
        <time>2021-09-05T07:48:30Z</time>
      </trkpt>
      <trkpt lat="44.07323" lon="2.06053">
        <ele>190.6</ele>
        <time>2021-09-05T07:48:34Z</time>
      </trkpt>
      <trkpt lat="44.07329" lon="2.06062">
        <ele>190.6</ele>
        <time>2021-09-05T07:48:36Z</time>
      </trkpt>
      <trkpt lat="44.07333" lon="2.06066">
        <ele>190.4</ele>
        <time>2021-09-05T07:48:37Z</time>
      </trkpt>
      <trkpt lat="44.07336" lon="2.06071">
        <ele>190.4</ele>
        <time>2021-09-05T07:48:38Z</time>
      </trkpt>
      <trkpt lat="44.07338" lon="2.06075">
        <ele>190.4</ele>
        <time>2021-09-05T07:48:39Z</time>
      </trkpt>
      <trkpt lat="44.07341" lon="2.06079">
        <ele>190.4</ele>
        <time>2021-09-05T07:48:40Z</time>
      </trkpt>
      <trkpt lat="44.07344" lon="2.06082">
        <ele>190.6</ele>
        <time>2021-09-05T07:48:41Z</time>
      </trkpt>
      <trkpt lat="44.07354" lon="2.06093">
        <ele>190.2</ele>
        <time>2021-09-05T07:48:44Z</time>
      </trkpt>
      <trkpt lat="44.07361" lon="2.06102">
        <ele>190.2</ele>
        <time>2021-09-05T07:48:46Z</time>
      </trkpt>
      <trkpt lat="44.07365" lon="2.06106">
        <ele>190.2</ele>
        <time>2021-09-05T07:48:47Z</time>
      </trkpt>
      <trkpt lat="44.0737" lon="2.0611">
        <ele>190.2</ele>
        <time>2021-09-05T07:48:48Z</time>
      </trkpt>
      <trkpt lat="44.07373" lon="2.06115">
        <ele>190.2</ele>
        <time>2021-09-05T07:48:49Z</time>
      </trkpt>
      <trkpt lat="44.07376" lon="2.0612">
        <ele>190.2</ele>
        <time>2021-09-05T07:48:50Z</time>
      </trkpt>
      <trkpt lat="44.0738" lon="2.06123">
        <ele>190.2</ele>
        <time>2021-09-05T07:48:51Z</time>
      </trkpt>
      <trkpt lat="44.07382" lon="2.06127">
        <ele>190.2</ele>
        <time>2021-09-05T07:48:52Z</time>
      </trkpt>
      <trkpt lat="44.07388" lon="2.06135">
        <ele>190.4</ele>
        <time>2021-09-05T07:48:54Z</time>
      </trkpt>
      <trkpt lat="44.07394" lon="2.0614">
        <ele>190.6</ele>
        <time>2021-09-05T07:48:55Z</time>
      </trkpt>
      <trkpt lat="44.07398" lon="2.06144">
        <ele>190.6</ele>
        <time>2021-09-05T07:48:56Z</time>
      </trkpt>
      <trkpt lat="44.07402" lon="2.06149">
        <ele>190.6</ele>
        <time>2021-09-05T07:48:57Z</time>
      </trkpt>
      <trkpt lat="44.07407" lon="2.06157">
        <ele>190.8</ele>
        <time>2021-09-05T07:48:59Z</time>
      </trkpt>
      <trkpt lat="44.07411" lon="2.06161">
        <ele>190.8</ele>
        <time>2021-09-05T07:49:00Z</time>
      </trkpt>
      <trkpt lat="44.07415" lon="2.06165">
        <ele>190.8</ele>
        <time>2021-09-05T07:49:01Z</time>
      </trkpt>
      <trkpt lat="44.0742" lon="2.06171">
        <ele>190.8</ele>
        <time>2021-09-05T07:49:02Z</time>
      </trkpt>
      <trkpt lat="44.07428" lon="2.06179">
        <ele>190.8</ele>
        <time>2021-09-05T07:49:04Z</time>
      </trkpt>
      <trkpt lat="44.07431" lon="2.06182">
        <ele>190.8</ele>
        <time>2021-09-05T07:49:05Z</time>
      </trkpt>
      <trkpt lat="44.07435" lon="2.06187">
        <ele>190.8</ele>
        <time>2021-09-05T07:49:06Z</time>
      </trkpt>
      <trkpt lat="44.07445" lon="2.06197">
        <ele>190.8</ele>
        <time>2021-09-05T07:49:08Z</time>
      </trkpt>
      <trkpt lat="44.07453" lon="2.06207">
        <ele>190.8</ele>
        <time>2021-09-05T07:49:10Z</time>
      </trkpt>
      <trkpt lat="44.07456" lon="2.06211">
        <ele>190.8</ele>
        <time>2021-09-05T07:49:11Z</time>
      </trkpt>
      <trkpt lat="44.07459" lon="2.06215">
        <ele>191</ele>
        <time>2021-09-05T07:49:12Z</time>
      </trkpt>
      <trkpt lat="44.07462" lon="2.06218">
        <ele>191</ele>
        <time>2021-09-05T07:49:13Z</time>
      </trkpt>
      <trkpt lat="44.07464" lon="2.0622">
        <ele>191</ele>
        <time>2021-09-05T07:49:14Z</time>
      </trkpt>
      <trkpt lat="44.07467" lon="2.0622">
        <ele>191</ele>
        <time>2021-09-05T07:49:15Z</time>
      </trkpt>
      <trkpt lat="44.0747" lon="2.06218">
        <ele>191</ele>
        <time>2021-09-05T07:49:16Z</time>
      </trkpt>
      <trkpt lat="44.07472" lon="2.06216">
        <ele>191</ele>
        <time>2021-09-05T07:49:17Z</time>
      </trkpt>
      <trkpt lat="44.07474" lon="2.06214">
        <ele>191.2</ele>
        <time>2021-09-05T07:49:18Z</time>
      </trkpt>
      <trkpt lat="44.07475" lon="2.06212">
        <ele>191.2</ele>
        <time>2021-09-05T07:49:19Z</time>
      </trkpt>
      <trkpt lat="44.07476" lon="2.06209">
        <ele>191.2</ele>
        <time>2021-09-05T07:49:20Z</time>
      </trkpt>
      <trkpt lat="44.07478" lon="2.06207">
        <ele>191.4</ele>
        <time>2021-09-05T07:49:21Z</time>
      </trkpt>
      <trkpt lat="44.07479" lon="2.06205">
        <ele>191.4</ele>
        <time>2021-09-05T07:49:22Z</time>
      </trkpt>
      <trkpt lat="44.07479" lon="2.06202">
        <ele>191.4</ele>
        <time>2021-09-05T07:49:23Z</time>
      </trkpt>
      <trkpt lat="44.0748" lon="2.062">
        <ele>191.4</ele>
        <time>2021-09-05T07:49:24Z</time>
      </trkpt>
      <trkpt lat="44.07481" lon="2.06198">
        <ele>191.4</ele>
        <time>2021-09-05T07:49:25Z</time>
      </trkpt>
      <trkpt lat="44.07482" lon="2.06196">
        <ele>191.6</ele>
        <time>2021-09-05T07:49:26Z</time>
      </trkpt>
      <trkpt lat="44.07482" lon="2.06194">
        <ele>191.8</ele>
        <time>2021-09-05T07:49:27Z</time>
      </trkpt>
      <trkpt lat="44.07483" lon="2.06192">
        <ele>191.8</ele>
        <time>2021-09-05T07:49:28Z</time>
      </trkpt>
      <trkpt lat="44.07483" lon="2.06188">
        <ele>192.2</ele>
        <time>2021-09-05T07:49:30Z</time>
      </trkpt>
      <trkpt lat="44.07483" lon="2.06186">
        <ele>192.4</ele>
        <time>2021-09-05T07:49:31Z</time>
      </trkpt>
      <trkpt lat="44.07483" lon="2.06184">
        <ele>192.6</ele>
        <time>2021-09-05T07:49:32Z</time>
      </trkpt>
      <trkpt lat="44.07483" lon="2.06182">
        <ele>192.8</ele>
        <time>2021-09-05T07:49:33Z</time>
      </trkpt>
      <trkpt lat="44.07484" lon="2.06178">
        <ele>193.4</ele>
        <time>2021-09-05T07:49:35Z</time>
      </trkpt>
      <trkpt lat="44.07485" lon="2.06176">
        <ele>193.6</ele>
        <time>2021-09-05T07:49:36Z</time>
      </trkpt>
      <trkpt lat="44.07485" lon="2.06172">
        <ele>194.2</ele>
        <time>2021-09-05T07:49:38Z</time>
      </trkpt>
      <trkpt lat="44.07485" lon="2.0617">
        <ele>194.4</ele>
        <time>2021-09-05T07:49:39Z</time>
      </trkpt>
      <trkpt lat="44.07486" lon="2.06168">
        <ele>194.8</ele>
        <time>2021-09-05T07:49:40Z</time>
      </trkpt>
      <trkpt lat="44.07486" lon="2.06167">
        <ele>194.8</ele>
        <time>2021-09-05T07:49:41Z</time>
      </trkpt>
      <trkpt lat="44.07487" lon="2.06165">
        <ele>195.2</ele>
        <time>2021-09-05T07:49:42Z</time>
      </trkpt>
      <trkpt lat="44.07488" lon="2.06163">
        <ele>195.2</ele>
        <time>2021-09-05T07:49:43Z</time>
      </trkpt>
      <trkpt lat="44.07488" lon="2.06161">
        <ele>195.8</ele>
        <time>2021-09-05T07:49:44Z</time>
      </trkpt>
      <trkpt lat="44.07489" lon="2.06159">
        <ele>196</ele>
        <time>2021-09-05T07:49:45Z</time>
      </trkpt>
      <trkpt lat="44.0749" lon="2.06156">
        <ele>196.4</ele>
        <time>2021-09-05T07:49:46Z</time>
      </trkpt>
      <trkpt lat="44.0749" lon="2.06154">
        <ele>196.6</ele>
        <time>2021-09-05T07:49:47Z</time>
      </trkpt>
      <trkpt lat="44.07491" lon="2.06152">
        <ele>196.6</ele>
        <time>2021-09-05T07:49:48Z</time>
      </trkpt>
      <trkpt lat="44.07491" lon="2.0615">
        <ele>196.8</ele>
        <time>2021-09-05T07:49:49Z</time>
      </trkpt>
      <trkpt lat="44.07492" lon="2.06149">
        <ele>197</ele>
        <time>2021-09-05T07:49:50Z</time>
      </trkpt>
      <trkpt lat="44.07492" lon="2.06147">
        <ele>197.2</ele>
        <time>2021-09-05T07:49:51Z</time>
      </trkpt>
      <trkpt lat="44.07493" lon="2.06145">
        <ele>197.2</ele>
        <time>2021-09-05T07:49:52Z</time>
      </trkpt>
      <trkpt lat="44.07493" lon="2.06144">
        <ele>197.4</ele>
        <time>2021-09-05T07:49:53Z</time>
      </trkpt>
      <trkpt lat="44.07494" lon="2.06143">
        <ele>197.4</ele>
        <time>2021-09-05T07:49:54Z</time>
      </trkpt>
      <trkpt lat="44.07494" lon="2.06141">
        <ele>197.4</ele>
        <time>2021-09-05T07:49:55Z</time>
      </trkpt>
      <trkpt lat="44.07494" lon="2.0614">
        <ele>197.6</ele>
        <time>2021-09-05T07:49:56Z</time>
      </trkpt>
      <trkpt lat="44.07495" lon="2.06138">
        <ele>197.6</ele>
        <time>2021-09-05T07:49:57Z</time>
      </trkpt>
      <trkpt lat="44.07495" lon="2.06137">
        <ele>197.8</ele>
        <time>2021-09-05T07:49:58Z</time>
      </trkpt>
      <trkpt lat="44.07496" lon="2.06135">
        <ele>198</ele>
        <time>2021-09-05T07:49:59Z</time>
      </trkpt>
      <trkpt lat="44.07496" lon="2.06133">
        <ele>198.2</ele>
        <time>2021-09-05T07:50:00Z</time>
      </trkpt>
      <trkpt lat="44.07497" lon="2.06131">
        <ele>198.4</ele>
        <time>2021-09-05T07:50:01Z</time>
      </trkpt>
      <trkpt lat="44.07497" lon="2.06129">
        <ele>198.6</ele>
        <time>2021-09-05T07:50:02Z</time>
      </trkpt>
      <trkpt lat="44.07498" lon="2.06128">
        <ele>198.8</ele>
        <time>2021-09-05T07:50:03Z</time>
      </trkpt>
      <trkpt lat="44.07499" lon="2.06127">
        <ele>199</ele>
        <time>2021-09-05T07:50:04Z</time>
      </trkpt>
      <trkpt lat="44.075" lon="2.06125">
        <ele>199.4</ele>
        <time>2021-09-05T07:50:05Z</time>
      </trkpt>
      <trkpt lat="44.075" lon="2.06122">
        <ele>199.6</ele>
        <time>2021-09-05T07:50:06Z</time>
      </trkpt>
      <trkpt lat="44.07501" lon="2.0612">
        <ele>200</ele>
        <time>2021-09-05T07:50:07Z</time>
      </trkpt>
      <trkpt lat="44.07502" lon="2.06118">
        <ele>200</ele>
        <time>2021-09-05T07:50:08Z</time>
      </trkpt>
      <trkpt lat="44.07503" lon="2.06116">
        <ele>200.4</ele>
        <time>2021-09-05T07:50:09Z</time>
      </trkpt>
      <trkpt lat="44.07503" lon="2.06114">
        <ele>200.6</ele>
        <time>2021-09-05T07:50:10Z</time>
      </trkpt>
      <trkpt lat="44.07504" lon="2.06111">
        <ele>200.8</ele>
        <time>2021-09-05T07:50:11Z</time>
      </trkpt>
      <trkpt lat="44.07504" lon="2.06108">
        <ele>201</ele>
        <time>2021-09-05T07:50:12Z</time>
      </trkpt>
      <trkpt lat="44.07505" lon="2.06106">
        <ele>201</ele>
        <time>2021-09-05T07:50:13Z</time>
      </trkpt>
      <trkpt lat="44.07504" lon="2.06103">
        <ele>201.2</ele>
        <time>2021-09-05T07:50:14Z</time>
      </trkpt>
      <trkpt lat="44.07503" lon="2.061">
        <ele>201.4</ele>
        <time>2021-09-05T07:50:15Z</time>
      </trkpt>
      <trkpt lat="44.07504" lon="2.06097">
        <ele>201.6</ele>
        <time>2021-09-05T07:50:16Z</time>
      </trkpt>
      <trkpt lat="44.07503" lon="2.06095">
        <ele>202</ele>
        <time>2021-09-05T07:50:17Z</time>
      </trkpt>
      <trkpt lat="44.07504" lon="2.06092">
        <ele>202</ele>
        <time>2021-09-05T07:50:18Z</time>
      </trkpt>
      <trkpt lat="44.07504" lon="2.06089">
        <ele>202.2</ele>
        <time>2021-09-05T07:50:19Z</time>
      </trkpt>
      <trkpt lat="44.07505" lon="2.06086">
        <ele>202.4</ele>
        <time>2021-09-05T07:50:20Z</time>
      </trkpt>
      <trkpt lat="44.07505" lon="2.06083">
        <ele>202.6</ele>
        <time>2021-09-05T07:50:21Z</time>
      </trkpt>
      <trkpt lat="44.07505" lon="2.0608">
        <ele>202.8</ele>
        <time>2021-09-05T07:50:22Z</time>
      </trkpt>
      <trkpt lat="44.07505" lon="2.06076">
        <ele>203</ele>
        <time>2021-09-05T07:50:23Z</time>
      </trkpt>
      <trkpt lat="44.07505" lon="2.06073">
        <ele>203.2</ele>
        <time>2021-09-05T07:50:24Z</time>
      </trkpt>
      <trkpt lat="44.07506" lon="2.0607">
        <ele>203.2</ele>
        <time>2021-09-05T07:50:25Z</time>
      </trkpt>
      <trkpt lat="44.07506" lon="2.06067">
        <ele>203.2</ele>
        <time>2021-09-05T07:50:26Z</time>
      </trkpt>
      <trkpt lat="44.07507" lon="2.06063">
        <ele>203.4</ele>
        <time>2021-09-05T07:50:27Z</time>
      </trkpt>
      <trkpt lat="44.07507" lon="2.0606">
        <ele>203.4</ele>
        <time>2021-09-05T07:50:28Z</time>
      </trkpt>
      <trkpt lat="44.07507" lon="2.06056">
        <ele>203.6</ele>
        <time>2021-09-05T07:50:29Z</time>
      </trkpt>
      <trkpt lat="44.07507" lon="2.06053">
        <ele>203.6</ele>
        <time>2021-09-05T07:50:30Z</time>
      </trkpt>
      <trkpt lat="44.07507" lon="2.06051">
        <ele>203.6</ele>
        <time>2021-09-05T07:50:31Z</time>
      </trkpt>
      <trkpt lat="44.07507" lon="2.06048">
        <ele>203.8</ele>
        <time>2021-09-05T07:50:32Z</time>
      </trkpt>
      <trkpt lat="44.07508" lon="2.06045">
        <ele>204</ele>
        <time>2021-09-05T07:50:33Z</time>
      </trkpt>
      <trkpt lat="44.0751" lon="2.06042">
        <ele>204</ele>
        <time>2021-09-05T07:50:34Z</time>
      </trkpt>
      <trkpt lat="44.07512" lon="2.06039">
        <ele>204.2</ele>
        <time>2021-09-05T07:50:35Z</time>
      </trkpt>
      <trkpt lat="44.07513" lon="2.06035">
        <ele>204.2</ele>
        <time>2021-09-05T07:50:36Z</time>
      </trkpt>
      <trkpt lat="44.07514" lon="2.06032">
        <ele>204.2</ele>
        <time>2021-09-05T07:50:37Z</time>
      </trkpt>
      <trkpt lat="44.07514" lon="2.06029">
        <ele>204.2</ele>
        <time>2021-09-05T07:50:38Z</time>
      </trkpt>
      <trkpt lat="44.07514" lon="2.06027">
        <ele>204.4</ele>
        <time>2021-09-05T07:50:39Z</time>
      </trkpt>
      <trkpt lat="44.07514" lon="2.06025">
        <ele>204.6</ele>
        <time>2021-09-05T07:50:40Z</time>
      </trkpt>
      <trkpt lat="44.07514" lon="2.06023">
        <ele>204.6</ele>
        <time>2021-09-05T07:50:41Z</time>
      </trkpt>
      <trkpt lat="44.07514" lon="2.0602">
        <ele>204.4</ele>
        <time>2021-09-05T07:50:42Z</time>
      </trkpt>
      <trkpt lat="44.07515" lon="2.06018">
        <ele>204.6</ele>
        <time>2021-09-05T07:50:43Z</time>
      </trkpt>
      <trkpt lat="44.07515" lon="2.06017">
        <ele>204.6</ele>
        <time>2021-09-05T07:50:44Z</time>
      </trkpt>
      <trkpt lat="44.07516" lon="2.06015">
        <ele>204.8</ele>
        <time>2021-09-05T07:50:45Z</time>
      </trkpt>
      <trkpt lat="44.07517" lon="2.06012">
        <ele>205</ele>
        <time>2021-09-05T07:50:46Z</time>
      </trkpt>
      <trkpt lat="44.07517" lon="2.0601">
        <ele>205.2</ele>
        <time>2021-09-05T07:50:47Z</time>
      </trkpt>
      <trkpt lat="44.07516" lon="2.06009">
        <ele>205.4</ele>
        <time>2021-09-05T07:50:48Z</time>
      </trkpt>
      <trkpt lat="44.07515" lon="2.06007">
        <ele>205.6</ele>
        <time>2021-09-05T07:50:49Z</time>
      </trkpt>
      <trkpt lat="44.07516" lon="2.06005">
        <ele>205.8</ele>
        <time>2021-09-05T07:50:50Z</time>
      </trkpt>
      <trkpt lat="44.07516" lon="2.06002">
        <ele>206.2</ele>
        <time>2021-09-05T07:50:51Z</time>
      </trkpt>
      <trkpt lat="44.07515" lon="2.06">
        <ele>206.2</ele>
        <time>2021-09-05T07:50:52Z</time>
      </trkpt>
      <trkpt lat="44.07515" lon="2.05998">
        <ele>206.6</ele>
        <time>2021-09-05T07:50:53Z</time>
      </trkpt>
      <trkpt lat="44.07515" lon="2.05996">
        <ele>206.8</ele>
        <time>2021-09-05T07:50:54Z</time>
      </trkpt>
      <trkpt lat="44.07514" lon="2.05995">
        <ele>207.2</ele>
        <time>2021-09-05T07:50:55Z</time>
      </trkpt>
      <trkpt lat="44.07513" lon="2.05993">
        <ele>207.4</ele>
        <time>2021-09-05T07:50:56Z</time>
      </trkpt>
      <trkpt lat="44.07513" lon="2.0599">
        <ele>207.6</ele>
        <time>2021-09-05T07:50:57Z</time>
      </trkpt>
      <trkpt lat="44.07513" lon="2.05989">
        <ele>207.8</ele>
        <time>2021-09-05T07:50:58Z</time>
      </trkpt>
      <trkpt lat="44.07512" lon="2.05987">
        <ele>208</ele>
        <time>2021-09-05T07:50:59Z</time>
      </trkpt>
      <trkpt lat="44.07511" lon="2.05986">
        <ele>208.4</ele>
        <time>2021-09-05T07:51:00Z</time>
      </trkpt>
      <trkpt lat="44.0751" lon="2.05984">
        <ele>208.4</ele>
        <time>2021-09-05T07:51:01Z</time>
      </trkpt>
      <trkpt lat="44.07509" lon="2.05982">
        <ele>208.8</ele>
        <time>2021-09-05T07:51:02Z</time>
      </trkpt>
      <trkpt lat="44.07508" lon="2.0598">
        <ele>209.2</ele>
        <time>2021-09-05T07:51:03Z</time>
      </trkpt>
      <trkpt lat="44.07507" lon="2.05978">
        <ele>209.4</ele>
        <time>2021-09-05T07:51:04Z</time>
      </trkpt>
      <trkpt lat="44.07506" lon="2.05977">
        <ele>209.6</ele>
        <time>2021-09-05T07:51:05Z</time>
      </trkpt>
      <trkpt lat="44.07505" lon="2.05975">
        <ele>209.8</ele>
        <time>2021-09-05T07:51:06Z</time>
      </trkpt>
      <trkpt lat="44.07504" lon="2.05974">
        <ele>210</ele>
        <time>2021-09-05T07:51:07Z</time>
      </trkpt>
      <trkpt lat="44.07503" lon="2.05972">
        <ele>210</ele>
        <time>2021-09-05T07:51:08Z</time>
      </trkpt>
      <trkpt lat="44.07501" lon="2.0597">
        <ele>210.2</ele>
        <time>2021-09-05T07:51:09Z</time>
      </trkpt>
      <trkpt lat="44.075" lon="2.05967">
        <ele>210.2</ele>
        <time>2021-09-05T07:51:10Z</time>
      </trkpt>
      <trkpt lat="44.07498" lon="2.05965">
        <ele>210.4</ele>
        <time>2021-09-05T07:51:11Z</time>
      </trkpt>
      <trkpt lat="44.07497" lon="2.05962">
        <ele>210.6</ele>
        <time>2021-09-05T07:51:12Z</time>
      </trkpt>
      <trkpt lat="44.07496" lon="2.0596">
        <ele>210.6</ele>
        <time>2021-09-05T07:51:13Z</time>
      </trkpt>
      <trkpt lat="44.07494" lon="2.05958">
        <ele>211</ele>
        <time>2021-09-05T07:51:14Z</time>
      </trkpt>
      <trkpt lat="44.07492" lon="2.05955">
        <ele>211</ele>
        <time>2021-09-05T07:51:15Z</time>
      </trkpt>
      <trkpt lat="44.07491" lon="2.05952">
        <ele>211.2</ele>
        <time>2021-09-05T07:51:16Z</time>
      </trkpt>
      <trkpt lat="44.07489" lon="2.05949">
        <ele>211.4</ele>
        <time>2021-09-05T07:51:17Z</time>
      </trkpt>
      <trkpt lat="44.07488" lon="2.05946">
        <ele>211.4</ele>
        <time>2021-09-05T07:51:18Z</time>
      </trkpt>
      <trkpt lat="44.07486" lon="2.05944">
        <ele>211.6</ele>
        <time>2021-09-05T07:51:19Z</time>
      </trkpt>
      <trkpt lat="44.07485" lon="2.05942">
        <ele>211.6</ele>
        <time>2021-09-05T07:51:20Z</time>
      </trkpt>
      <trkpt lat="44.07483" lon="2.05939">
        <ele>211.8</ele>
        <time>2021-09-05T07:51:21Z</time>
      </trkpt>
      <trkpt lat="44.07481" lon="2.05936">
        <ele>211.8</ele>
        <time>2021-09-05T07:51:22Z</time>
      </trkpt>
      <trkpt lat="44.07479" lon="2.05932">
        <ele>211.8</ele>
        <time>2021-09-05T07:51:23Z</time>
      </trkpt>
      <trkpt lat="44.07478" lon="2.05928">
        <ele>212</ele>
        <time>2021-09-05T07:51:24Z</time>
      </trkpt>
      <trkpt lat="44.07478" lon="2.05923">
        <ele>212</ele>
        <time>2021-09-05T07:51:25Z</time>
      </trkpt>
      <trkpt lat="44.07476" lon="2.05919">
        <ele>212.2</ele>
        <time>2021-09-05T07:51:26Z</time>
      </trkpt>
      <trkpt lat="44.07474" lon="2.05915">
        <ele>212.2</ele>
        <time>2021-09-05T07:51:27Z</time>
      </trkpt>
      <trkpt lat="44.07473" lon="2.05911">
        <ele>212.4</ele>
        <time>2021-09-05T07:51:28Z</time>
      </trkpt>
      <trkpt lat="44.07472" lon="2.05907">
        <ele>212.4</ele>
        <time>2021-09-05T07:51:29Z</time>
      </trkpt>
      <trkpt lat="44.07471" lon="2.05903">
        <ele>212.6</ele>
        <time>2021-09-05T07:51:30Z</time>
      </trkpt>
      <trkpt lat="44.07469" lon="2.05899">
        <ele>212.8</ele>
        <time>2021-09-05T07:51:31Z</time>
      </trkpt>
      <trkpt lat="44.07468" lon="2.05896">
        <ele>212.8</ele>
        <time>2021-09-05T07:51:32Z</time>
      </trkpt>
      <trkpt lat="44.07466" lon="2.05891">
        <ele>213</ele>
        <time>2021-09-05T07:51:33Z</time>
      </trkpt>
      <trkpt lat="44.07465" lon="2.05887">
        <ele>213</ele>
        <time>2021-09-05T07:51:34Z</time>
      </trkpt>
      <trkpt lat="44.07465" lon="2.05883">
        <ele>213</ele>
        <time>2021-09-05T07:51:35Z</time>
      </trkpt>
      <trkpt lat="44.07463" lon="2.0588">
        <ele>213</ele>
        <time>2021-09-05T07:51:36Z</time>
      </trkpt>
      <trkpt lat="44.07462" lon="2.05877">
        <ele>213</ele>
        <time>2021-09-05T07:51:37Z</time>
      </trkpt>
      <trkpt lat="44.07461" lon="2.05873">
        <ele>213</ele>
        <time>2021-09-05T07:51:38Z</time>
      </trkpt>
      <trkpt lat="44.07459" lon="2.0587">
        <ele>213.2</ele>
        <time>2021-09-05T07:51:39Z</time>
      </trkpt>
      <trkpt lat="44.07458" lon="2.05866">
        <ele>213.4</ele>
        <time>2021-09-05T07:51:40Z</time>
      </trkpt>
      <trkpt lat="44.07457" lon="2.05862">
        <ele>213.4</ele>
        <time>2021-09-05T07:51:41Z</time>
      </trkpt>
      <trkpt lat="44.07455" lon="2.05859">
        <ele>213.4</ele>
        <time>2021-09-05T07:51:42Z</time>
      </trkpt>
      <trkpt lat="44.07454" lon="2.05856">
        <ele>213.6</ele>
        <time>2021-09-05T07:51:43Z</time>
      </trkpt>
      <trkpt lat="44.07452" lon="2.05852">
        <ele>213.8</ele>
        <time>2021-09-05T07:51:44Z</time>
      </trkpt>
      <trkpt lat="44.07451" lon="2.05848">
        <ele>213.8</ele>
        <time>2021-09-05T07:51:45Z</time>
      </trkpt>
      <trkpt lat="44.0745" lon="2.05844">
        <ele>214</ele>
        <time>2021-09-05T07:51:46Z</time>
      </trkpt>
      <trkpt lat="44.07448" lon="2.0584">
        <ele>214.2</ele>
        <time>2021-09-05T07:51:47Z</time>
      </trkpt>
      <trkpt lat="44.07447" lon="2.05835">
        <ele>214.4</ele>
        <time>2021-09-05T07:51:48Z</time>
      </trkpt>
      <trkpt lat="44.07445" lon="2.05831">
        <ele>214.4</ele>
        <time>2021-09-05T07:51:49Z</time>
      </trkpt>
      <trkpt lat="44.07444" lon="2.05827">
        <ele>214.4</ele>
        <time>2021-09-05T07:51:50Z</time>
      </trkpt>
      <trkpt lat="44.07442" lon="2.05822">
        <ele>214.4</ele>
        <time>2021-09-05T07:51:51Z</time>
      </trkpt>
      <trkpt lat="44.0744" lon="2.05818">
        <ele>214.4</ele>
        <time>2021-09-05T07:51:52Z</time>
      </trkpt>
      <trkpt lat="44.07438" lon="2.05813">
        <ele>214.4</ele>
        <time>2021-09-05T07:51:53Z</time>
      </trkpt>
      <trkpt lat="44.07432" lon="2.05801">
        <ele>214.4</ele>
        <time>2021-09-05T07:51:56Z</time>
      </trkpt>
      <trkpt lat="44.07425" lon="2.05789">
        <ele>214.4</ele>
        <time>2021-09-05T07:51:59Z</time>
      </trkpt>
      <trkpt lat="44.0742" lon="2.05781">
        <ele>214.4</ele>
        <time>2021-09-05T07:52:01Z</time>
      </trkpt>
      <trkpt lat="44.07417" lon="2.05777">
        <ele>214.6</ele>
        <time>2021-09-05T07:52:02Z</time>
      </trkpt>
      <trkpt lat="44.0741" lon="2.05767">
        <ele>214.8</ele>
        <time>2021-09-05T07:52:05Z</time>
      </trkpt>
      <trkpt lat="44.07408" lon="2.05763">
        <ele>214.8</ele>
        <time>2021-09-05T07:52:06Z</time>
      </trkpt>
      <trkpt lat="44.07406" lon="2.05759">
        <ele>215</ele>
        <time>2021-09-05T07:52:07Z</time>
      </trkpt>
      <trkpt lat="44.07398" lon="2.05736">
        <ele>215.4</ele>
        <time>2021-09-05T07:52:12Z</time>
      </trkpt>
      <trkpt lat="44.07397" lon="2.05731">
        <ele>215.4</ele>
        <time>2021-09-05T07:52:13Z</time>
      </trkpt>
      <trkpt lat="44.07397" lon="2.05721">
        <ele>215.6</ele>
        <time>2021-09-05T07:52:15Z</time>
      </trkpt>
      <trkpt lat="44.07396" lon="2.05706">
        <ele>216</ele>
        <time>2021-09-05T07:52:18Z</time>
      </trkpt>
      <trkpt lat="44.07396" lon="2.05701">
        <ele>216</ele>
        <time>2021-09-05T07:52:19Z</time>
      </trkpt>
      <trkpt lat="44.07396" lon="2.05696">
        <ele>216.4</ele>
        <time>2021-09-05T07:52:20Z</time>
      </trkpt>
      <trkpt lat="44.07396" lon="2.05687">
        <ele>216.8</ele>
        <time>2021-09-05T07:52:22Z</time>
      </trkpt>
      <trkpt lat="44.07396" lon="2.05684">
        <ele>217</ele>
        <time>2021-09-05T07:52:23Z</time>
      </trkpt>
      <trkpt lat="44.07396" lon="2.05681">
        <ele>217</ele>
        <time>2021-09-05T07:52:24Z</time>
      </trkpt>
      <trkpt lat="44.07396" lon="2.05677">
        <ele>217.2</ele>
        <time>2021-09-05T07:52:25Z</time>
      </trkpt>
      <trkpt lat="44.07396" lon="2.05673">
        <ele>217.2</ele>
        <time>2021-09-05T07:52:26Z</time>
      </trkpt>
      <trkpt lat="44.07396" lon="2.0567">
        <ele>217.4</ele>
        <time>2021-09-05T07:52:27Z</time>
      </trkpt>
      <trkpt lat="44.07396" lon="2.05668">
        <ele>217.6</ele>
        <time>2021-09-05T07:52:28Z</time>
      </trkpt>
      <trkpt lat="44.07396" lon="2.05665">
        <ele>217.8</ele>
        <time>2021-09-05T07:52:29Z</time>
      </trkpt>
      <trkpt lat="44.07396" lon="2.05662">
        <ele>218</ele>
        <time>2021-09-05T07:52:30Z</time>
      </trkpt>
      <trkpt lat="44.07396" lon="2.0566">
        <ele>218.2</ele>
        <time>2021-09-05T07:52:31Z</time>
      </trkpt>
      <trkpt lat="44.07396" lon="2.05657">
        <ele>218.4</ele>
        <time>2021-09-05T07:52:32Z</time>
      </trkpt>
      <trkpt lat="44.07395" lon="2.05655">
        <ele>218.4</ele>
        <time>2021-09-05T07:52:33Z</time>
      </trkpt>
      <trkpt lat="44.07395" lon="2.05652">
        <ele>218.8</ele>
        <time>2021-09-05T07:52:34Z</time>
      </trkpt>
      <trkpt lat="44.07395" lon="2.05649">
        <ele>218.8</ele>
        <time>2021-09-05T07:52:35Z</time>
      </trkpt>
      <trkpt lat="44.07394" lon="2.05646">
        <ele>219</ele>
        <time>2021-09-05T07:52:36Z</time>
      </trkpt>
      <trkpt lat="44.07394" lon="2.05644">
        <ele>219</ele>
        <time>2021-09-05T07:52:37Z</time>
      </trkpt>
      <trkpt lat="44.07393" lon="2.05642">
        <ele>219.2</ele>
        <time>2021-09-05T07:52:38Z</time>
      </trkpt>
      <trkpt lat="44.07393" lon="2.05639">
        <ele>219.4</ele>
        <time>2021-09-05T07:52:39Z</time>
      </trkpt>
      <trkpt lat="44.07392" lon="2.05636">
        <ele>219.6</ele>
        <time>2021-09-05T07:52:40Z</time>
      </trkpt>
      <trkpt lat="44.07392" lon="2.05634">
        <ele>219.8</ele>
        <time>2021-09-05T07:52:41Z</time>
      </trkpt>
      <trkpt lat="44.07392" lon="2.05631">
        <ele>220</ele>
        <time>2021-09-05T07:52:42Z</time>
      </trkpt>
      <trkpt lat="44.07391" lon="2.0563">
        <ele>220.2</ele>
        <time>2021-09-05T07:52:43Z</time>
      </trkpt>
      <trkpt lat="44.07391" lon="2.05628">
        <ele>220.4</ele>
        <time>2021-09-05T07:52:44Z</time>
      </trkpt>
      <trkpt lat="44.07391" lon="2.05626">
        <ele>220.4</ele>
        <time>2021-09-05T07:52:45Z</time>
      </trkpt>
      <trkpt lat="44.07391" lon="2.05624">
        <ele>220.8</ele>
        <time>2021-09-05T07:52:46Z</time>
      </trkpt>
      <trkpt lat="44.0739" lon="2.05621">
        <ele>221</ele>
        <time>2021-09-05T07:52:47Z</time>
      </trkpt>
      <trkpt lat="44.0739" lon="2.05619">
        <ele>221.2</ele>
        <time>2021-09-05T07:52:48Z</time>
      </trkpt>
      <trkpt lat="44.0739" lon="2.05616">
        <ele>221.2</ele>
        <time>2021-09-05T07:52:49Z</time>
      </trkpt>
      <trkpt lat="44.0739" lon="2.05613">
        <ele>221.4</ele>
        <time>2021-09-05T07:52:50Z</time>
      </trkpt>
      <trkpt lat="44.0739" lon="2.05611">
        <ele>221.8</ele>
        <time>2021-09-05T07:52:51Z</time>
      </trkpt>
      <trkpt lat="44.0739" lon="2.05608">
        <ele>221.8</ele>
        <time>2021-09-05T07:52:52Z</time>
      </trkpt>
      <trkpt lat="44.07389" lon="2.05606">
        <ele>221.8</ele>
        <time>2021-09-05T07:52:53Z</time>
      </trkpt>
      <trkpt lat="44.07388" lon="2.05604">
        <ele>221.8</ele>
        <time>2021-09-05T07:52:54Z</time>
      </trkpt>
      <trkpt lat="44.07388" lon="2.05602">
        <ele>222</ele>
        <time>2021-09-05T07:52:55Z</time>
      </trkpt>
      <trkpt lat="44.07388" lon="2.05599">
        <ele>222</ele>
        <time>2021-09-05T07:52:56Z</time>
      </trkpt>
      <trkpt lat="44.07388" lon="2.05597">
        <ele>222.2</ele>
        <time>2021-09-05T07:52:57Z</time>
      </trkpt>
      <trkpt lat="44.07388" lon="2.05595">
        <ele>222.6</ele>
        <time>2021-09-05T07:52:58Z</time>
      </trkpt>
      <trkpt lat="44.07388" lon="2.05593">
        <ele>222.8</ele>
        <time>2021-09-05T07:52:59Z</time>
      </trkpt>
      <trkpt lat="44.07389" lon="2.0559">
        <ele>223</ele>
        <time>2021-09-05T07:53:00Z</time>
      </trkpt>
      <trkpt lat="44.07389" lon="2.05588">
        <ele>223.2</ele>
        <time>2021-09-05T07:53:01Z</time>
      </trkpt>
      <trkpt lat="44.07388" lon="2.05586">
        <ele>223.4</ele>
        <time>2021-09-05T07:53:02Z</time>
      </trkpt>
      <trkpt lat="44.07388" lon="2.05584">
        <ele>223.6</ele>
        <time>2021-09-05T07:53:03Z</time>
      </trkpt>
      <trkpt lat="44.07388" lon="2.05582">
        <ele>223.8</ele>
        <time>2021-09-05T07:53:04Z</time>
      </trkpt>
      <trkpt lat="44.07388" lon="2.0558">
        <ele>223.8</ele>
        <time>2021-09-05T07:53:05Z</time>
      </trkpt>
      <trkpt lat="44.07389" lon="2.05578">
        <ele>224.2</ele>
        <time>2021-09-05T07:53:06Z</time>
      </trkpt>
      <trkpt lat="44.07389" lon="2.05576">
        <ele>224.4</ele>
        <time>2021-09-05T07:53:07Z</time>
      </trkpt>
      <trkpt lat="44.07389" lon="2.05573">
        <ele>224.4</ele>
        <time>2021-09-05T07:53:08Z</time>
      </trkpt>
      <trkpt lat="44.0739" lon="2.05572">
        <ele>225</ele>
        <time>2021-09-05T07:53:09Z</time>
      </trkpt>
      <trkpt lat="44.0739" lon="2.0557">
        <ele>225.2</ele>
        <time>2021-09-05T07:53:10Z</time>
      </trkpt>
      <trkpt lat="44.0739" lon="2.05568">
        <ele>225.6</ele>
        <time>2021-09-05T07:53:11Z</time>
      </trkpt>
      <trkpt lat="44.0739" lon="2.05566">
        <ele>225.6</ele>
        <time>2021-09-05T07:53:12Z</time>
      </trkpt>
      <trkpt lat="44.0739" lon="2.05565">
        <ele>226</ele>
        <time>2021-09-05T07:53:13Z</time>
      </trkpt>
      <trkpt lat="44.0739" lon="2.05564">
        <ele>226</ele>
        <time>2021-09-05T07:53:14Z</time>
      </trkpt>
      <trkpt lat="44.0739" lon="2.05562">
        <ele>226.2</ele>
        <time>2021-09-05T07:53:15Z</time>
      </trkpt>
      <trkpt lat="44.0739" lon="2.05561">
        <ele>226.6</ele>
        <time>2021-09-05T07:53:16Z</time>
      </trkpt>
      <trkpt lat="44.07391" lon="2.05561">
        <ele>226.6</ele>
        <time>2021-09-05T07:53:17Z</time>
      </trkpt>
      <trkpt lat="44.07391" lon="2.05559">
        <ele>227</ele>
        <time>2021-09-05T07:53:18Z</time>
      </trkpt>
      <trkpt lat="44.07391" lon="2.05558">
        <ele>227</ele>
        <time>2021-09-05T07:53:19Z</time>
      </trkpt>
      <trkpt lat="44.07391" lon="2.05556">
        <ele>227.2</ele>
        <time>2021-09-05T07:53:20Z</time>
      </trkpt>
      <trkpt lat="44.07392" lon="2.05554">
        <ele>227.4</ele>
        <time>2021-09-05T07:53:21Z</time>
      </trkpt>
      <trkpt lat="44.07392" lon="2.05552">
        <ele>227.6</ele>
        <time>2021-09-05T07:53:22Z</time>
      </trkpt>
      <trkpt lat="44.07392" lon="2.0555">
        <ele>228</ele>
        <time>2021-09-05T07:53:23Z</time>
      </trkpt>
      <trkpt lat="44.07393" lon="2.05549">
        <ele>228</ele>
        <time>2021-09-05T07:53:24Z</time>
      </trkpt>
      <trkpt lat="44.07393" lon="2.05547">
        <ele>228.4</ele>
        <time>2021-09-05T07:53:25Z</time>
      </trkpt>
      <trkpt lat="44.07394" lon="2.05544">
        <ele>228.6</ele>
        <time>2021-09-05T07:53:26Z</time>
      </trkpt>
      <trkpt lat="44.07394" lon="2.05542">
        <ele>228.6</ele>
        <time>2021-09-05T07:53:27Z</time>
      </trkpt>
      <trkpt lat="44.07395" lon="2.05541">
        <ele>228.8</ele>
        <time>2021-09-05T07:53:28Z</time>
      </trkpt>
      <trkpt lat="44.07396" lon="2.0554">
        <ele>229</ele>
        <time>2021-09-05T07:53:29Z</time>
      </trkpt>
      <trkpt lat="44.07397" lon="2.05539">
        <ele>229.2</ele>
        <time>2021-09-05T07:53:30Z</time>
      </trkpt>
      <trkpt lat="44.07397" lon="2.05538">
        <ele>229.2</ele>
        <time>2021-09-05T07:53:31Z</time>
      </trkpt>
      <trkpt lat="44.07398" lon="2.05536">
        <ele>229.6</ele>
        <time>2021-09-05T07:53:32Z</time>
      </trkpt>
      <trkpt lat="44.07399" lon="2.05535">
        <ele>229.8</ele>
        <time>2021-09-05T07:53:33Z</time>
      </trkpt>
      <trkpt lat="44.07399" lon="2.05534">
        <ele>230</ele>
        <time>2021-09-05T07:53:34Z</time>
      </trkpt>
      <trkpt lat="44.074" lon="2.05533">
        <ele>230.2</ele>
        <time>2021-09-05T07:53:35Z</time>
      </trkpt>
      <trkpt lat="44.074" lon="2.05532">
        <ele>230.4</ele>
        <time>2021-09-05T07:53:36Z</time>
      </trkpt>
      <trkpt lat="44.07402" lon="2.0553">
        <ele>230.4</ele>
        <time>2021-09-05T07:53:37Z</time>
      </trkpt>
      <trkpt lat="44.07402" lon="2.05528">
        <ele>230.6</ele>
        <time>2021-09-05T07:53:38Z</time>
      </trkpt>
      <trkpt lat="44.07403" lon="2.05528">
        <ele>230.6</ele>
        <time>2021-09-05T07:53:39Z</time>
      </trkpt>
      <trkpt lat="44.07404" lon="2.05527">
        <ele>230.8</ele>
        <time>2021-09-05T07:53:40Z</time>
      </trkpt>
      <trkpt lat="44.07404" lon="2.05526">
        <ele>231</ele>
        <time>2021-09-05T07:53:41Z</time>
      </trkpt>
      <trkpt lat="44.07405" lon="2.05525">
        <ele>231.2</ele>
        <time>2021-09-05T07:53:42Z</time>
      </trkpt>
      <trkpt lat="44.07406" lon="2.05524">
        <ele>231.2</ele>
        <time>2021-09-05T07:53:43Z</time>
      </trkpt>
      <trkpt lat="44.07406" lon="2.05523">
        <ele>231.4</ele>
        <time>2021-09-05T07:53:44Z</time>
      </trkpt>
      <trkpt lat="44.07407" lon="2.05522">
        <ele>231.8</ele>
        <time>2021-09-05T07:53:45Z</time>
      </trkpt>
      <trkpt lat="44.07408" lon="2.0552">
        <ele>231.8</ele>
        <time>2021-09-05T07:53:46Z</time>
      </trkpt>
      <trkpt lat="44.07409" lon="2.05519">
        <ele>231.8</ele>
        <time>2021-09-05T07:53:47Z</time>
      </trkpt>
      <trkpt lat="44.0741" lon="2.05518">
        <ele>232.2</ele>
        <time>2021-09-05T07:53:48Z</time>
      </trkpt>
      <trkpt lat="44.07411" lon="2.05517">
        <ele>232.4</ele>
        <time>2021-09-05T07:53:49Z</time>
      </trkpt>
      <trkpt lat="44.07412" lon="2.05516">
        <ele>232.4</ele>
        <time>2021-09-05T07:53:50Z</time>
      </trkpt>
      <trkpt lat="44.07413" lon="2.05515">
        <ele>232.6</ele>
        <time>2021-09-05T07:53:51Z</time>
      </trkpt>
      <trkpt lat="44.07414" lon="2.05513">
        <ele>232.8</ele>
        <time>2021-09-05T07:53:52Z</time>
      </trkpt>
      <trkpt lat="44.07415" lon="2.05512">
        <ele>233</ele>
        <time>2021-09-05T07:53:53Z</time>
      </trkpt>
      <trkpt lat="44.07416" lon="2.05511">
        <ele>233</ele>
        <time>2021-09-05T07:53:54Z</time>
      </trkpt>
      <trkpt lat="44.07417" lon="2.0551">
        <ele>233.2</ele>
        <time>2021-09-05T07:53:55Z</time>
      </trkpt>
      <trkpt lat="44.07418" lon="2.05509">
        <ele>233.2</ele>
        <time>2021-09-05T07:53:56Z</time>
      </trkpt>
      <trkpt lat="44.07419" lon="2.05508">
        <ele>233.6</ele>
        <time>2021-09-05T07:53:57Z</time>
      </trkpt>
      <trkpt lat="44.0742" lon="2.05507">
        <ele>233.6</ele>
        <time>2021-09-05T07:53:58Z</time>
      </trkpt>
      <trkpt lat="44.07421" lon="2.05506">
        <ele>233.8</ele>
        <time>2021-09-05T07:53:59Z</time>
      </trkpt>
      <trkpt lat="44.07422" lon="2.05505">
        <ele>234</ele>
        <time>2021-09-05T07:54:00Z</time>
      </trkpt>
      <trkpt lat="44.07423" lon="2.05505">
        <ele>234</ele>
        <time>2021-09-05T07:54:01Z</time>
      </trkpt>
      <trkpt lat="44.07424" lon="2.05504">
        <ele>234.2</ele>
        <time>2021-09-05T07:54:02Z</time>
      </trkpt>
      <trkpt lat="44.07425" lon="2.05504">
        <ele>234.4</ele>
        <time>2021-09-05T07:54:03Z</time>
      </trkpt>
      <trkpt lat="44.07426" lon="2.05503">
        <ele>234.4</ele>
        <time>2021-09-05T07:54:04Z</time>
      </trkpt>
      <trkpt lat="44.07427" lon="2.05503">
        <ele>234.6</ele>
        <time>2021-09-05T07:54:05Z</time>
      </trkpt>
      <trkpt lat="44.07428" lon="2.05502">
        <ele>234.8</ele>
        <time>2021-09-05T07:54:06Z</time>
      </trkpt>
      <trkpt lat="44.07429" lon="2.05502">
        <ele>235</ele>
        <time>2021-09-05T07:54:07Z</time>
      </trkpt>
      <trkpt lat="44.0743" lon="2.05501">
        <ele>235</ele>
        <time>2021-09-05T07:54:08Z</time>
      </trkpt>
      <trkpt lat="44.07432" lon="2.055">
        <ele>235.2</ele>
        <time>2021-09-05T07:54:09Z</time>
      </trkpt>
      <trkpt lat="44.07433" lon="2.055">
        <ele>235.2</ele>
        <time>2021-09-05T07:54:10Z</time>
      </trkpt>
      <trkpt lat="44.07434" lon="2.05499">
        <ele>235.6</ele>
        <time>2021-09-05T07:54:11Z</time>
      </trkpt>
      <trkpt lat="44.07435" lon="2.05499">
        <ele>235.6</ele>
        <time>2021-09-05T07:54:12Z</time>
      </trkpt>
      <trkpt lat="44.07436" lon="2.05498">
        <ele>236</ele>
        <time>2021-09-05T07:54:13Z</time>
      </trkpt>
      <trkpt lat="44.07437" lon="2.05498">
        <ele>236</ele>
        <time>2021-09-05T07:54:14Z</time>
      </trkpt>
      <trkpt lat="44.07438" lon="2.05499">
        <ele>236.4</ele>
        <time>2021-09-05T07:54:15Z</time>
      </trkpt>
      <trkpt lat="44.07439" lon="2.05498">
        <ele>236.4</ele>
        <time>2021-09-05T07:54:16Z</time>
      </trkpt>
      <trkpt lat="44.0744" lon="2.05498">
        <ele>236.6</ele>
        <time>2021-09-05T07:54:17Z</time>
      </trkpt>
      <trkpt lat="44.07442" lon="2.05498">
        <ele>236.8</ele>
        <time>2021-09-05T07:54:18Z</time>
      </trkpt>
      <trkpt lat="44.07443" lon="2.05498">
        <ele>237</ele>
        <time>2021-09-05T07:54:19Z</time>
      </trkpt>
      <trkpt lat="44.07445" lon="2.05498">
        <ele>237.2</ele>
        <time>2021-09-05T07:54:20Z</time>
      </trkpt>
      <trkpt lat="44.07446" lon="2.05498">
        <ele>237.2</ele>
        <time>2021-09-05T07:54:21Z</time>
      </trkpt>
      <trkpt lat="44.07447" lon="2.05498">
        <ele>237.4</ele>
        <time>2021-09-05T07:54:22Z</time>
      </trkpt>
      <trkpt lat="44.07448" lon="2.05499">
        <ele>237.4</ele>
        <time>2021-09-05T07:54:23Z</time>
      </trkpt>
      <trkpt lat="44.07449" lon="2.05499">
        <ele>237.6</ele>
        <time>2021-09-05T07:54:24Z</time>
      </trkpt>
      <trkpt lat="44.07451" lon="2.05499">
        <ele>237.8</ele>
        <time>2021-09-05T07:54:25Z</time>
      </trkpt>
      <trkpt lat="44.07452" lon="2.05499">
        <ele>238</ele>
        <time>2021-09-05T07:54:26Z</time>
      </trkpt>
      <trkpt lat="44.07453" lon="2.05499">
        <ele>238.2</ele>
        <time>2021-09-05T07:54:27Z</time>
      </trkpt>
      <trkpt lat="44.07454" lon="2.055">
        <ele>238.2</ele>
        <time>2021-09-05T07:54:28Z</time>
      </trkpt>
      <trkpt lat="44.07455" lon="2.05501">
        <ele>238.4</ele>
        <time>2021-09-05T07:54:29Z</time>
      </trkpt>
      <trkpt lat="44.07456" lon="2.05502">
        <ele>238.6</ele>
        <time>2021-09-05T07:54:30Z</time>
      </trkpt>
      <trkpt lat="44.07458" lon="2.05503">
        <ele>238.8</ele>
        <time>2021-09-05T07:54:31Z</time>
      </trkpt>
      <trkpt lat="44.07459" lon="2.05504">
        <ele>239</ele>
        <time>2021-09-05T07:54:32Z</time>
      </trkpt>
      <trkpt lat="44.0746" lon="2.05505">
        <ele>239.2</ele>
        <time>2021-09-05T07:54:33Z</time>
      </trkpt>
      <trkpt lat="44.07461" lon="2.05506">
        <ele>239.4</ele>
        <time>2021-09-05T07:54:34Z</time>
      </trkpt>
      <trkpt lat="44.07462" lon="2.05507">
        <ele>239.4</ele>
        <time>2021-09-05T07:54:35Z</time>
      </trkpt>
      <trkpt lat="44.07463" lon="2.05508">
        <ele>239.6</ele>
        <time>2021-09-05T07:54:36Z</time>
      </trkpt>
      <trkpt lat="44.07464" lon="2.0551">
        <ele>239.8</ele>
        <time>2021-09-05T07:54:37Z</time>
      </trkpt>
      <trkpt lat="44.07465" lon="2.0551">
        <ele>239.8</ele>
        <time>2021-09-05T07:54:38Z</time>
      </trkpt>
      <trkpt lat="44.07466" lon="2.05511">
        <ele>240</ele>
        <time>2021-09-05T07:54:39Z</time>
      </trkpt>
      <trkpt lat="44.07466" lon="2.05513">
        <ele>240</ele>
        <time>2021-09-05T07:54:40Z</time>
      </trkpt>
      <trkpt lat="44.07467" lon="2.05514">
        <ele>240.2</ele>
        <time>2021-09-05T07:54:41Z</time>
      </trkpt>
      <trkpt lat="44.07468" lon="2.05515">
        <ele>240.2</ele>
        <time>2021-09-05T07:54:42Z</time>
      </trkpt>
      <trkpt lat="44.07469" lon="2.05517">
        <ele>240.4</ele>
        <time>2021-09-05T07:54:43Z</time>
      </trkpt>
      <trkpt lat="44.07469" lon="2.05518">
        <ele>240.6</ele>
        <time>2021-09-05T07:54:44Z</time>
      </trkpt>
      <trkpt lat="44.0747" lon="2.05519">
        <ele>240.6</ele>
        <time>2021-09-05T07:54:45Z</time>
      </trkpt>
      <trkpt lat="44.07471" lon="2.0552">
        <ele>240.8</ele>
        <time>2021-09-05T07:54:46Z</time>
      </trkpt>
      <trkpt lat="44.07472" lon="2.05521">
        <ele>240.8</ele>
        <time>2021-09-05T07:54:47Z</time>
      </trkpt>
      <trkpt lat="44.07474" lon="2.05522">
        <ele>240.8</ele>
        <time>2021-09-05T07:54:48Z</time>
      </trkpt>
      <trkpt lat="44.07475" lon="2.05522">
        <ele>241</ele>
        <time>2021-09-05T07:54:49Z</time>
      </trkpt>
      <trkpt lat="44.07476" lon="2.05523">
        <ele>241.2</ele>
        <time>2021-09-05T07:54:50Z</time>
      </trkpt>
      <trkpt lat="44.07477" lon="2.05525">
        <ele>241.2</ele>
        <time>2021-09-05T07:54:51Z</time>
      </trkpt>
      <trkpt lat="44.07478" lon="2.05526">
        <ele>241.4</ele>
        <time>2021-09-05T07:54:52Z</time>
      </trkpt>
      <trkpt lat="44.07479" lon="2.05527">
        <ele>241.6</ele>
        <time>2021-09-05T07:54:53Z</time>
      </trkpt>
      <trkpt lat="44.0748" lon="2.05528">
        <ele>241.6</ele>
        <time>2021-09-05T07:54:54Z</time>
      </trkpt>
      <trkpt lat="44.07481" lon="2.05528">
        <ele>241.8</ele>
        <time>2021-09-05T07:54:55Z</time>
      </trkpt>
      <trkpt lat="44.07482" lon="2.05529">
        <ele>241.8</ele>
        <time>2021-09-05T07:54:56Z</time>
      </trkpt>
      <trkpt lat="44.07484" lon="2.0553">
        <ele>242</ele>
        <time>2021-09-05T07:54:57Z</time>
      </trkpt>
      <trkpt lat="44.07485" lon="2.05531">
        <ele>242</ele>
        <time>2021-09-05T07:54:58Z</time>
      </trkpt>
      <trkpt lat="44.07486" lon="2.05531">
        <ele>242.2</ele>
        <time>2021-09-05T07:54:59Z</time>
      </trkpt>
      <trkpt lat="44.07487" lon="2.05532">
        <ele>242.2</ele>
        <time>2021-09-05T07:55:00Z</time>
      </trkpt>
      <trkpt lat="44.07489" lon="2.05533">
        <ele>242.4</ele>
        <time>2021-09-05T07:55:01Z</time>
      </trkpt>
      <trkpt lat="44.0749" lon="2.05533">
        <ele>242.6</ele>
        <time>2021-09-05T07:55:02Z</time>
      </trkpt>
      <trkpt lat="44.07491" lon="2.05534">
        <ele>242.6</ele>
        <time>2021-09-05T07:55:03Z</time>
      </trkpt>
      <trkpt lat="44.07492" lon="2.05534">
        <ele>242.8</ele>
        <time>2021-09-05T07:55:04Z</time>
      </trkpt>
      <trkpt lat="44.07494" lon="2.05535">
        <ele>243</ele>
        <time>2021-09-05T07:55:05Z</time>
      </trkpt>
      <trkpt lat="44.07495" lon="2.05536">
        <ele>243</ele>
        <time>2021-09-05T07:55:06Z</time>
      </trkpt>
      <trkpt lat="44.07496" lon="2.05536">
        <ele>243.2</ele>
        <time>2021-09-05T07:55:07Z</time>
      </trkpt>
      <trkpt lat="44.07497" lon="2.05537">
        <ele>243.2</ele>
        <time>2021-09-05T07:55:08Z</time>
      </trkpt>
      <trkpt lat="44.07499" lon="2.05538">
        <ele>243.4</ele>
        <time>2021-09-05T07:55:09Z</time>
      </trkpt>
      <trkpt lat="44.075" lon="2.05538">
        <ele>243.4</ele>
        <time>2021-09-05T07:55:10Z</time>
      </trkpt>
      <trkpt lat="44.07501" lon="2.05539">
        <ele>243.6</ele>
        <time>2021-09-05T07:55:11Z</time>
      </trkpt>
      <trkpt lat="44.07503" lon="2.05539">
        <ele>243.8</ele>
        <time>2021-09-05T07:55:12Z</time>
      </trkpt>
      <trkpt lat="44.07504" lon="2.0554">
        <ele>243.8</ele>
        <time>2021-09-05T07:55:13Z</time>
      </trkpt>
      <trkpt lat="44.07505" lon="2.05541">
        <ele>244</ele>
        <time>2021-09-05T07:55:14Z</time>
      </trkpt>
      <trkpt lat="44.07506" lon="2.05541">
        <ele>244</ele>
        <time>2021-09-05T07:55:15Z</time>
      </trkpt>
      <trkpt lat="44.07508" lon="2.05542">
        <ele>244.2</ele>
        <time>2021-09-05T07:55:16Z</time>
      </trkpt>
      <trkpt lat="44.07509" lon="2.05542">
        <ele>244.4</ele>
        <time>2021-09-05T07:55:17Z</time>
      </trkpt>
      <trkpt lat="44.07511" lon="2.05543">
        <ele>244.4</ele>
        <time>2021-09-05T07:55:18Z</time>
      </trkpt>
      <trkpt lat="44.07512" lon="2.05544">
        <ele>244.6</ele>
        <time>2021-09-05T07:55:19Z</time>
      </trkpt>
      <trkpt lat="44.07513" lon="2.05545">
        <ele>244.8</ele>
        <time>2021-09-05T07:55:20Z</time>
      </trkpt>
      <trkpt lat="44.07514" lon="2.05546">
        <ele>245</ele>
        <time>2021-09-05T07:55:21Z</time>
      </trkpt>
      <trkpt lat="44.07516" lon="2.05547">
        <ele>245.4</ele>
        <time>2021-09-05T07:55:22Z</time>
      </trkpt>
      <trkpt lat="44.07517" lon="2.05547">
        <ele>245.4</ele>
        <time>2021-09-05T07:55:23Z</time>
      </trkpt>
      <trkpt lat="44.07519" lon="2.05548">
        <ele>245.6</ele>
        <time>2021-09-05T07:55:24Z</time>
      </trkpt>
      <trkpt lat="44.0752" lon="2.05549">
        <ele>245.8</ele>
        <time>2021-09-05T07:55:25Z</time>
      </trkpt>
      <trkpt lat="44.07522" lon="2.0555">
        <ele>246</ele>
        <time>2021-09-05T07:55:26Z</time>
      </trkpt>
      <trkpt lat="44.07523" lon="2.05551">
        <ele>246.2</ele>
        <time>2021-09-05T07:55:27Z</time>
      </trkpt>
      <trkpt lat="44.07524" lon="2.05551">
        <ele>246.4</ele>
        <time>2021-09-05T07:55:28Z</time>
      </trkpt>
      <trkpt lat="44.07525" lon="2.05551">
        <ele>246.4</ele>
        <time>2021-09-05T07:55:29Z</time>
      </trkpt>
      <trkpt lat="44.07526" lon="2.05552">
        <ele>246.6</ele>
        <time>2021-09-05T07:55:30Z</time>
      </trkpt>
      <trkpt lat="44.07527" lon="2.05553">
        <ele>246.8</ele>
        <time>2021-09-05T07:55:31Z</time>
      </trkpt>
      <trkpt lat="44.07528" lon="2.05553">
        <ele>247</ele>
        <time>2021-09-05T07:55:32Z</time>
      </trkpt>
      <trkpt lat="44.0753" lon="2.05554">
        <ele>247.2</ele>
        <time>2021-09-05T07:55:33Z</time>
      </trkpt>
      <trkpt lat="44.07531" lon="2.05555">
        <ele>247.4</ele>
        <time>2021-09-05T07:55:34Z</time>
      </trkpt>
      <trkpt lat="44.07533" lon="2.05556">
        <ele>247.6</ele>
        <time>2021-09-05T07:55:35Z</time>
      </trkpt>
      <trkpt lat="44.07534" lon="2.05556">
        <ele>248</ele>
        <time>2021-09-05T07:55:36Z</time>
      </trkpt>
      <trkpt lat="44.07535" lon="2.05557">
        <ele>248</ele>
        <time>2021-09-05T07:55:37Z</time>
      </trkpt>
      <trkpt lat="44.07536" lon="2.05557">
        <ele>248.4</ele>
        <time>2021-09-05T07:55:38Z</time>
      </trkpt>
      <trkpt lat="44.07538" lon="2.05558">
        <ele>248.6</ele>
        <time>2021-09-05T07:55:39Z</time>
      </trkpt>
      <trkpt lat="44.07539" lon="2.05558">
        <ele>248.6</ele>
        <time>2021-09-05T07:55:40Z</time>
      </trkpt>
      <trkpt lat="44.0754" lon="2.05558">
        <ele>248.8</ele>
        <time>2021-09-05T07:55:41Z</time>
      </trkpt>
      <trkpt lat="44.0754" lon="2.05558">
        <ele>248.8</ele>
        <time>2021-09-05T07:55:42Z</time>
      </trkpt>
      <trkpt lat="44.07542" lon="2.05558">
        <ele>248.8</ele>
        <time>2021-09-05T07:55:43Z</time>
      </trkpt>
      <trkpt lat="44.07544" lon="2.05559">
        <ele>249</ele>
        <time>2021-09-05T07:55:44Z</time>
      </trkpt>
      <trkpt lat="44.07545" lon="2.0556">
        <ele>249</ele>
        <time>2021-09-05T07:55:45Z</time>
      </trkpt>
      <trkpt lat="44.07546" lon="2.0556">
        <ele>249.2</ele>
        <time>2021-09-05T07:55:46Z</time>
      </trkpt>
      <trkpt lat="44.07547" lon="2.0556">
        <ele>249.2</ele>
        <time>2021-09-05T07:55:47Z</time>
      </trkpt>
      <trkpt lat="44.07549" lon="2.05561">
        <ele>249.2</ele>
        <time>2021-09-05T07:55:48Z</time>
      </trkpt>
      <trkpt lat="44.07551" lon="2.05562">
        <ele>249.4</ele>
        <time>2021-09-05T07:55:49Z</time>
      </trkpt>
      <trkpt lat="44.07552" lon="2.05562">
        <ele>249.6</ele>
        <time>2021-09-05T07:55:50Z</time>
      </trkpt>
      <trkpt lat="44.07553" lon="2.05562">
        <ele>249.8</ele>
        <time>2021-09-05T07:55:51Z</time>
      </trkpt>
      <trkpt lat="44.07555" lon="2.05563">
        <ele>250</ele>
        <time>2021-09-05T07:55:52Z</time>
      </trkpt>
      <trkpt lat="44.07557" lon="2.05563">
        <ele>250</ele>
        <time>2021-09-05T07:55:53Z</time>
      </trkpt>
      <trkpt lat="44.07558" lon="2.05564">
        <ele>250.2</ele>
        <time>2021-09-05T07:55:54Z</time>
      </trkpt>
      <trkpt lat="44.0756" lon="2.05565">
        <ele>250.2</ele>
        <time>2021-09-05T07:55:55Z</time>
      </trkpt>
      <trkpt lat="44.07561" lon="2.05565">
        <ele>250.4</ele>
        <time>2021-09-05T07:55:56Z</time>
      </trkpt>
      <trkpt lat="44.07563" lon="2.05566">
        <ele>250.6</ele>
        <time>2021-09-05T07:55:57Z</time>
      </trkpt>
      <trkpt lat="44.07564" lon="2.05566">
        <ele>250.6</ele>
        <time>2021-09-05T07:55:58Z</time>
      </trkpt>
      <trkpt lat="44.07566" lon="2.05567">
        <ele>250.8</ele>
        <time>2021-09-05T07:55:59Z</time>
      </trkpt>
      <trkpt lat="44.07568" lon="2.05567">
        <ele>250.8</ele>
        <time>2021-09-05T07:56:00Z</time>
      </trkpt>
      <trkpt lat="44.07569" lon="2.05568">
        <ele>251</ele>
        <time>2021-09-05T07:56:01Z</time>
      </trkpt>
      <trkpt lat="44.07571" lon="2.05568">
        <ele>251</ele>
        <time>2021-09-05T07:56:02Z</time>
      </trkpt>
      <trkpt lat="44.07572" lon="2.05568">
        <ele>251.2</ele>
        <time>2021-09-05T07:56:03Z</time>
      </trkpt>
      <trkpt lat="44.07574" lon="2.05569">
        <ele>251.4</ele>
        <time>2021-09-05T07:56:04Z</time>
      </trkpt>
      <trkpt lat="44.07576" lon="2.05569">
        <ele>251.4</ele>
        <time>2021-09-05T07:56:05Z</time>
      </trkpt>
      <trkpt lat="44.07576" lon="2.05569">
        <ele>251.6</ele>
        <time>2021-09-05T07:56:06Z</time>
      </trkpt>
      <trkpt lat="44.07579" lon="2.0557">
        <ele>251.6</ele>
        <time>2021-09-05T07:56:07Z</time>
      </trkpt>
      <trkpt lat="44.07581" lon="2.05571">
        <ele>251.6</ele>
        <time>2021-09-05T07:56:08Z</time>
      </trkpt>
      <trkpt lat="44.07582" lon="2.05571">
        <ele>251.6</ele>
        <time>2021-09-05T07:56:09Z</time>
      </trkpt>
      <trkpt lat="44.07584" lon="2.05572">
        <ele>251.8</ele>
        <time>2021-09-05T07:56:10Z</time>
      </trkpt>
      <trkpt lat="44.07586" lon="2.05572">
        <ele>251.8</ele>
        <time>2021-09-05T07:56:11Z</time>
      </trkpt>
      <trkpt lat="44.07588" lon="2.05573">
        <ele>251.8</ele>
        <time>2021-09-05T07:56:12Z</time>
      </trkpt>
      <trkpt lat="44.07589" lon="2.05574">
        <ele>252</ele>
        <time>2021-09-05T07:56:13Z</time>
      </trkpt>
      <trkpt lat="44.07591" lon="2.05574">
        <ele>252</ele>
        <time>2021-09-05T07:56:14Z</time>
      </trkpt>
      <trkpt lat="44.07593" lon="2.05574">
        <ele>252.2</ele>
        <time>2021-09-05T07:56:15Z</time>
      </trkpt>
      <trkpt lat="44.07595" lon="2.05575">
        <ele>252.4</ele>
        <time>2021-09-05T07:56:16Z</time>
      </trkpt>
      <trkpt lat="44.07597" lon="2.05575">
        <ele>252.6</ele>
        <time>2021-09-05T07:56:17Z</time>
      </trkpt>
      <trkpt lat="44.07598" lon="2.05575">
        <ele>252.6</ele>
        <time>2021-09-05T07:56:18Z</time>
      </trkpt>
      <trkpt lat="44.076" lon="2.05576">
        <ele>252.8</ele>
        <time>2021-09-05T07:56:19Z</time>
      </trkpt>
      <trkpt lat="44.07602" lon="2.05577">
        <ele>252.8</ele>
        <time>2021-09-05T07:56:20Z</time>
      </trkpt>
      <trkpt lat="44.07603" lon="2.05578">
        <ele>252.8</ele>
        <time>2021-09-05T07:56:21Z</time>
      </trkpt>
      <trkpt lat="44.07605" lon="2.05579">
        <ele>253</ele>
        <time>2021-09-05T07:56:22Z</time>
      </trkpt>
      <trkpt lat="44.07607" lon="2.05579">
        <ele>253</ele>
        <time>2021-09-05T07:56:23Z</time>
      </trkpt>
      <trkpt lat="44.07608" lon="2.0558">
        <ele>253.2</ele>
        <time>2021-09-05T07:56:24Z</time>
      </trkpt>
      <trkpt lat="44.0761" lon="2.05581">
        <ele>253.2</ele>
        <time>2021-09-05T07:56:25Z</time>
      </trkpt>
      <trkpt lat="44.07611" lon="2.05582">
        <ele>253.4</ele>
        <time>2021-09-05T07:56:26Z</time>
      </trkpt>
      <trkpt lat="44.07613" lon="2.05583">
        <ele>253.6</ele>
        <time>2021-09-05T07:56:27Z</time>
      </trkpt>
      <trkpt lat="44.07615" lon="2.05584">
        <ele>253.6</ele>
        <time>2021-09-05T07:56:28Z</time>
      </trkpt>
      <trkpt lat="44.07616" lon="2.05585">
        <ele>253.8</ele>
        <time>2021-09-05T07:56:29Z</time>
      </trkpt>
      <trkpt lat="44.07618" lon="2.05585">
        <ele>253.8</ele>
        <time>2021-09-05T07:56:30Z</time>
      </trkpt>
      <trkpt lat="44.07619" lon="2.05586">
        <ele>254</ele>
        <time>2021-09-05T07:56:31Z</time>
      </trkpt>
      <trkpt lat="44.0762" lon="2.05587">
        <ele>254</ele>
        <time>2021-09-05T07:56:32Z</time>
      </trkpt>
      <trkpt lat="44.07622" lon="2.05587">
        <ele>254.2</ele>
        <time>2021-09-05T07:56:33Z</time>
      </trkpt>
      <trkpt lat="44.07623" lon="2.05588">
        <ele>254.4</ele>
        <time>2021-09-05T07:56:34Z</time>
      </trkpt>
      <trkpt lat="44.07625" lon="2.05589">
        <ele>254.4</ele>
        <time>2021-09-05T07:56:35Z</time>
      </trkpt>
      <trkpt lat="44.07626" lon="2.05589">
        <ele>254.6</ele>
        <time>2021-09-05T07:56:36Z</time>
      </trkpt>
      <trkpt lat="44.07628" lon="2.0559">
        <ele>254.6</ele>
        <time>2021-09-05T07:56:37Z</time>
      </trkpt>
      <trkpt lat="44.0763" lon="2.05591">
        <ele>254.8</ele>
        <time>2021-09-05T07:56:38Z</time>
      </trkpt>
      <trkpt lat="44.07631" lon="2.05592">
        <ele>254.8</ele>
        <time>2021-09-05T07:56:39Z</time>
      </trkpt>
      <trkpt lat="44.07633" lon="2.05593">
        <ele>255</ele>
        <time>2021-09-05T07:56:40Z</time>
      </trkpt>
      <trkpt lat="44.07634" lon="2.05594">
        <ele>255.2</ele>
        <time>2021-09-05T07:56:41Z</time>
      </trkpt>
      <trkpt lat="44.07636" lon="2.05595">
        <ele>255.4</ele>
        <time>2021-09-05T07:56:42Z</time>
      </trkpt>
      <trkpt lat="44.07637" lon="2.05596">
        <ele>255.6</ele>
        <time>2021-09-05T07:56:43Z</time>
      </trkpt>
      <trkpt lat="44.07638" lon="2.05597">
        <ele>255.6</ele>
        <time>2021-09-05T07:56:44Z</time>
      </trkpt>
      <trkpt lat="44.07639" lon="2.05598">
        <ele>255.8</ele>
        <time>2021-09-05T07:56:45Z</time>
      </trkpt>
      <trkpt lat="44.07641" lon="2.05599">
        <ele>256</ele>
        <time>2021-09-05T07:56:46Z</time>
      </trkpt>
      <trkpt lat="44.07642" lon="2.056">
        <ele>256</ele>
        <time>2021-09-05T07:56:47Z</time>
      </trkpt>
      <trkpt lat="44.07644" lon="2.05601">
        <ele>256.2</ele>
        <time>2021-09-05T07:56:48Z</time>
      </trkpt>
      <trkpt lat="44.07646" lon="2.05602">
        <ele>256.2</ele>
        <time>2021-09-05T07:56:49Z</time>
      </trkpt>
      <trkpt lat="44.07647" lon="2.05603">
        <ele>256.4</ele>
        <time>2021-09-05T07:56:50Z</time>
      </trkpt>
      <trkpt lat="44.07648" lon="2.05604">
        <ele>256.6</ele>
        <time>2021-09-05T07:56:51Z</time>
      </trkpt>
      <trkpt lat="44.0765" lon="2.05605">
        <ele>256.8</ele>
        <time>2021-09-05T07:56:52Z</time>
      </trkpt>
      <trkpt lat="44.07651" lon="2.05606">
        <ele>257</ele>
        <time>2021-09-05T07:56:53Z</time>
      </trkpt>
      <trkpt lat="44.07652" lon="2.05607">
        <ele>257.2</ele>
        <time>2021-09-05T07:56:54Z</time>
      </trkpt>
      <trkpt lat="44.07653" lon="2.05609">
        <ele>257.2</ele>
        <time>2021-09-05T07:56:55Z</time>
      </trkpt>
      <trkpt lat="44.07655" lon="2.0561">
        <ele>257.4</ele>
        <time>2021-09-05T07:56:56Z</time>
      </trkpt>
      <trkpt lat="44.07657" lon="2.05611">
        <ele>257.8</ele>
        <time>2021-09-05T07:56:57Z</time>
      </trkpt>
      <trkpt lat="44.07658" lon="2.05612">
        <ele>257.8</ele>
        <time>2021-09-05T07:56:58Z</time>
      </trkpt>
      <trkpt lat="44.0766" lon="2.05612">
        <ele>258</ele>
        <time>2021-09-05T07:56:59Z</time>
      </trkpt>
      <trkpt lat="44.07661" lon="2.05613">
        <ele>258.2</ele>
        <time>2021-09-05T07:57:00Z</time>
      </trkpt>
      <trkpt lat="44.07663" lon="2.05613">
        <ele>258.4</ele>
        <time>2021-09-05T07:57:01Z</time>
      </trkpt>
      <trkpt lat="44.07664" lon="2.05614">
        <ele>258.4</ele>
        <time>2021-09-05T07:57:02Z</time>
      </trkpt>
      <trkpt lat="44.07665" lon="2.05615">
        <ele>258.8</ele>
        <time>2021-09-05T07:57:03Z</time>
      </trkpt>
      <trkpt lat="44.07666" lon="2.05616">
        <ele>259</ele>
        <time>2021-09-05T07:57:04Z</time>
      </trkpt>
      <trkpt lat="44.07668" lon="2.05617">
        <ele>259</ele>
        <time>2021-09-05T07:57:05Z</time>
      </trkpt>
      <trkpt lat="44.07669" lon="2.05618">
        <ele>259.2</ele>
        <time>2021-09-05T07:57:06Z</time>
      </trkpt>
      <trkpt lat="44.0767" lon="2.05619">
        <ele>259.6</ele>
        <time>2021-09-05T07:57:07Z</time>
      </trkpt>
      <trkpt lat="44.07671" lon="2.0562">
        <ele>259.8</ele>
        <time>2021-09-05T07:57:08Z</time>
      </trkpt>
      <trkpt lat="44.07673" lon="2.0562">
        <ele>259.8</ele>
        <time>2021-09-05T07:57:09Z</time>
      </trkpt>
      <trkpt lat="44.07674" lon="2.05621">
        <ele>260</ele>
        <time>2021-09-05T07:57:10Z</time>
      </trkpt>
      <trkpt lat="44.07675" lon="2.0562">
        <ele>260</ele>
        <time>2021-09-05T07:57:11Z</time>
      </trkpt>
      <trkpt lat="44.07677" lon="2.05621">
        <ele>260.4</ele>
        <time>2021-09-05T07:57:12Z</time>
      </trkpt>
      <trkpt lat="44.07678" lon="2.05623">
        <ele>260.8</ele>
        <time>2021-09-05T07:57:13Z</time>
      </trkpt>
      <trkpt lat="44.07679" lon="2.05624">
        <ele>260.8</ele>
        <time>2021-09-05T07:57:14Z</time>
      </trkpt>
      <trkpt lat="44.07681" lon="2.05625">
        <ele>261</ele>
        <time>2021-09-05T07:57:15Z</time>
      </trkpt>
      <trkpt lat="44.07682" lon="2.05626">
        <ele>261.2</ele>
        <time>2021-09-05T07:57:16Z</time>
      </trkpt>
      <trkpt lat="44.07684" lon="2.05627">
        <ele>261.4</ele>
        <time>2021-09-05T07:57:17Z</time>
      </trkpt>
      <trkpt lat="44.07685" lon="2.05628">
        <ele>261.4</ele>
        <time>2021-09-05T07:57:18Z</time>
      </trkpt>
      <trkpt lat="44.07687" lon="2.05629">
        <ele>261.6</ele>
        <time>2021-09-05T07:57:19Z</time>
      </trkpt>
      <trkpt lat="44.07688" lon="2.0563">
        <ele>261.8</ele>
        <time>2021-09-05T07:57:20Z</time>
      </trkpt>
      <trkpt lat="44.07689" lon="2.05631">
        <ele>262</ele>
        <time>2021-09-05T07:57:21Z</time>
      </trkpt>
      <trkpt lat="44.0769" lon="2.05631">
        <ele>262.6</ele>
        <time>2021-09-05T07:57:22Z</time>
      </trkpt>
      <trkpt lat="44.07691" lon="2.05632">
        <ele>262.8</ele>
        <time>2021-09-05T07:57:23Z</time>
      </trkpt>
      <trkpt lat="44.07692" lon="2.05632">
        <ele>263.2</ele>
        <time>2021-09-05T07:57:24Z</time>
      </trkpt>
      <trkpt lat="44.07694" lon="2.05633">
        <ele>263.2</ele>
        <time>2021-09-05T07:57:25Z</time>
      </trkpt>
      <trkpt lat="44.07695" lon="2.05634">
        <ele>263.6</ele>
        <time>2021-09-05T07:57:26Z</time>
      </trkpt>
      <trkpt lat="44.07696" lon="2.05635">
        <ele>263.8</ele>
        <time>2021-09-05T07:57:27Z</time>
      </trkpt>
      <trkpt lat="44.07697" lon="2.05635">
        <ele>264</ele>
        <time>2021-09-05T07:57:28Z</time>
      </trkpt>
      <trkpt lat="44.07698" lon="2.05636">
        <ele>264.2</ele>
        <time>2021-09-05T07:57:29Z</time>
      </trkpt>
      <trkpt lat="44.07699" lon="2.05636">
        <ele>264.4</ele>
        <time>2021-09-05T07:57:30Z</time>
      </trkpt>
      <trkpt lat="44.077" lon="2.05637">
        <ele>264.8</ele>
        <time>2021-09-05T07:57:31Z</time>
      </trkpt>
      <trkpt lat="44.07702" lon="2.05638">
        <ele>265</ele>
        <time>2021-09-05T07:57:32Z</time>
      </trkpt>
      <trkpt lat="44.07702" lon="2.05638">
        <ele>265.2</ele>
        <time>2021-09-05T07:57:33Z</time>
      </trkpt>
      <trkpt lat="44.07704" lon="2.05639">
        <ele>265.2</ele>
        <time>2021-09-05T07:57:34Z</time>
      </trkpt>
      <trkpt lat="44.07706" lon="2.0564">
        <ele>265.6</ele>
        <time>2021-09-05T07:57:35Z</time>
      </trkpt>
      <trkpt lat="44.07708" lon="2.0564">
        <ele>265.8</ele>
        <time>2021-09-05T07:57:36Z</time>
      </trkpt>
      <trkpt lat="44.07709" lon="2.05641">
        <ele>265.8</ele>
        <time>2021-09-05T07:57:37Z</time>
      </trkpt>
      <trkpt lat="44.0771" lon="2.05642">
        <ele>266</ele>
        <time>2021-09-05T07:57:38Z</time>
      </trkpt>
      <trkpt lat="44.07712" lon="2.05642">
        <ele>266.2</ele>
        <time>2021-09-05T07:57:39Z</time>
      </trkpt>
      <trkpt lat="44.07714" lon="2.05643">
        <ele>266.2</ele>
        <time>2021-09-05T07:57:40Z</time>
      </trkpt>
      <trkpt lat="44.07716" lon="2.05643">
        <ele>266.4</ele>
        <time>2021-09-05T07:57:41Z</time>
      </trkpt>
      <trkpt lat="44.07717" lon="2.05643">
        <ele>266.4</ele>
        <time>2021-09-05T07:57:42Z</time>
      </trkpt>
      <trkpt lat="44.07718" lon="2.05644">
        <ele>266.8</ele>
        <time>2021-09-05T07:57:43Z</time>
      </trkpt>
      <trkpt lat="44.0772" lon="2.05645">
        <ele>266.8</ele>
        <time>2021-09-05T07:57:44Z</time>
      </trkpt>
      <trkpt lat="44.07721" lon="2.05645">
        <ele>267</ele>
        <time>2021-09-05T07:57:45Z</time>
      </trkpt>
      <trkpt lat="44.07723" lon="2.05646">
        <ele>267.2</ele>
        <time>2021-09-05T07:57:46Z</time>
      </trkpt>
      <trkpt lat="44.07724" lon="2.05646">
        <ele>267.2</ele>
        <time>2021-09-05T07:57:47Z</time>
      </trkpt>
      <trkpt lat="44.07725" lon="2.05647">
        <ele>267.4</ele>
        <time>2021-09-05T07:57:48Z</time>
      </trkpt>
      <trkpt lat="44.07726" lon="2.05647">
        <ele>267.6</ele>
        <time>2021-09-05T07:57:49Z</time>
      </trkpt>
      <trkpt lat="44.07728" lon="2.05647">
        <ele>267.6</ele>
        <time>2021-09-05T07:57:50Z</time>
      </trkpt>
      <trkpt lat="44.07729" lon="2.05647">
        <ele>267.6</ele>
        <time>2021-09-05T07:57:51Z</time>
      </trkpt>
      <trkpt lat="44.07731" lon="2.05648">
        <ele>267.8</ele>
        <time>2021-09-05T07:57:52Z</time>
      </trkpt>
      <trkpt lat="44.07732" lon="2.05648">
        <ele>267.8</ele>
        <time>2021-09-05T07:57:53Z</time>
      </trkpt>
      <trkpt lat="44.07734" lon="2.05649">
        <ele>268</ele>
        <time>2021-09-05T07:57:54Z</time>
      </trkpt>
      <trkpt lat="44.07735" lon="2.05649">
        <ele>268</ele>
        <time>2021-09-05T07:57:55Z</time>
      </trkpt>
      <trkpt lat="44.07737" lon="2.05649">
        <ele>268.2</ele>
        <time>2021-09-05T07:57:56Z</time>
      </trkpt>
      <trkpt lat="44.07738" lon="2.0565">
        <ele>268.4</ele>
        <time>2021-09-05T07:57:57Z</time>
      </trkpt>
      <trkpt lat="44.0774" lon="2.05651">
        <ele>268.4</ele>
        <time>2021-09-05T07:57:58Z</time>
      </trkpt>
      <trkpt lat="44.07741" lon="2.05651">
        <ele>268.8</ele>
        <time>2021-09-05T07:57:59Z</time>
      </trkpt>
      <trkpt lat="44.07743" lon="2.05651">
        <ele>268.8</ele>
        <time>2021-09-05T07:58:00Z</time>
      </trkpt>
      <trkpt lat="44.07745" lon="2.05652">
        <ele>269</ele>
        <time>2021-09-05T07:58:01Z</time>
      </trkpt>
      <trkpt lat="44.07746" lon="2.05652">
        <ele>269</ele>
        <time>2021-09-05T07:58:02Z</time>
      </trkpt>
      <trkpt lat="44.07748" lon="2.05653">
        <ele>269.2</ele>
        <time>2021-09-05T07:58:03Z</time>
      </trkpt>
      <trkpt lat="44.07749" lon="2.05653">
        <ele>269.2</ele>
        <time>2021-09-05T07:58:04Z</time>
      </trkpt>
      <trkpt lat="44.07751" lon="2.05654">
        <ele>269.2</ele>
        <time>2021-09-05T07:58:05Z</time>
      </trkpt>
      <trkpt lat="44.07752" lon="2.05654">
        <ele>269.4</ele>
        <time>2021-09-05T07:58:06Z</time>
      </trkpt>
      <trkpt lat="44.07753" lon="2.05654">
        <ele>269.4</ele>
        <time>2021-09-05T07:58:07Z</time>
      </trkpt>
      <trkpt lat="44.07755" lon="2.05654">
        <ele>269.6</ele>
        <time>2021-09-05T07:58:08Z</time>
      </trkpt>
      <trkpt lat="44.07756" lon="2.05654">
        <ele>269.6</ele>
        <time>2021-09-05T07:58:09Z</time>
      </trkpt>
      <trkpt lat="44.07758" lon="2.05654">
        <ele>269.6</ele>
        <time>2021-09-05T07:58:10Z</time>
      </trkpt>
      <trkpt lat="44.0776" lon="2.05655">
        <ele>269.8</ele>
        <time>2021-09-05T07:58:11Z</time>
      </trkpt>
      <trkpt lat="44.07761" lon="2.05656">
        <ele>269.8</ele>
        <time>2021-09-05T07:58:12Z</time>
      </trkpt>
      <trkpt lat="44.07763" lon="2.05656">
        <ele>269.8</ele>
        <time>2021-09-05T07:58:13Z</time>
      </trkpt>
      <trkpt lat="44.07765" lon="2.05657">
        <ele>270</ele>
        <time>2021-09-05T07:58:14Z</time>
      </trkpt>
      <trkpt lat="44.07766" lon="2.05657">
        <ele>270</ele>
        <time>2021-09-05T07:58:15Z</time>
      </trkpt>
      <trkpt lat="44.07768" lon="2.05658">
        <ele>270</ele>
        <time>2021-09-05T07:58:16Z</time>
      </trkpt>
      <trkpt lat="44.07769" lon="2.05658">
        <ele>270</ele>
        <time>2021-09-05T07:58:17Z</time>
      </trkpt>
      <trkpt lat="44.07771" lon="2.05659">
        <ele>270.2</ele>
        <time>2021-09-05T07:58:18Z</time>
      </trkpt>
      <trkpt lat="44.07772" lon="2.05659">
        <ele>270.2</ele>
        <time>2021-09-05T07:58:19Z</time>
      </trkpt>
      <trkpt lat="44.07774" lon="2.05659">
        <ele>270.2</ele>
        <time>2021-09-05T07:58:20Z</time>
      </trkpt>
      <trkpt lat="44.07775" lon="2.05659">
        <ele>270.4</ele>
        <time>2021-09-05T07:58:21Z</time>
      </trkpt>
      <trkpt lat="44.0778" lon="2.0566">
        <ele>270.6</ele>
        <time>2021-09-05T07:58:24Z</time>
      </trkpt>
      <trkpt lat="44.07783" lon="2.05661">
        <ele>270.8</ele>
        <time>2021-09-05T07:58:26Z</time>
      </trkpt>
      <trkpt lat="44.07785" lon="2.05661">
        <ele>270.8</ele>
        <time>2021-09-05T07:58:27Z</time>
      </trkpt>
      <trkpt lat="44.07787" lon="2.05663">
        <ele>271.4</ele>
        <time>2021-09-05T07:58:29Z</time>
      </trkpt>
      <trkpt lat="44.07793" lon="2.05664">
        <ele>272</ele>
        <time>2021-09-05T07:58:32Z</time>
      </trkpt>
      <trkpt lat="44.07798" lon="2.05665">
        <ele>272</ele>
        <time>2021-09-05T07:58:35Z</time>
      </trkpt>
      <trkpt lat="44.07799" lon="2.05665">
        <ele>272</ele>
        <time>2021-09-05T07:58:36Z</time>
      </trkpt>
      <trkpt lat="44.07801" lon="2.05666">
        <ele>272.2</ele>
        <time>2021-09-05T07:58:37Z</time>
      </trkpt>
      <trkpt lat="44.07802" lon="2.05666">
        <ele>272.2</ele>
        <time>2021-09-05T07:58:38Z</time>
      </trkpt>
      <trkpt lat="44.07804" lon="2.05667">
        <ele>272.4</ele>
        <time>2021-09-05T07:58:39Z</time>
      </trkpt>
      <trkpt lat="44.07805" lon="2.05667">
        <ele>272.6</ele>
        <time>2021-09-05T07:58:40Z</time>
      </trkpt>
      <trkpt lat="44.07807" lon="2.05667">
        <ele>272.6</ele>
        <time>2021-09-05T07:58:41Z</time>
      </trkpt>
      <trkpt lat="44.07809" lon="2.05668">
        <ele>272.8</ele>
        <time>2021-09-05T07:58:42Z</time>
      </trkpt>
      <trkpt lat="44.0781" lon="2.05668">
        <ele>272.8</ele>
        <time>2021-09-05T07:58:43Z</time>
      </trkpt>
      <trkpt lat="44.07812" lon="2.05669">
        <ele>273</ele>
        <time>2021-09-05T07:58:44Z</time>
      </trkpt>
      <trkpt lat="44.07813" lon="2.05669">
        <ele>273.2</ele>
        <time>2021-09-05T07:58:45Z</time>
      </trkpt>
      <trkpt lat="44.07814" lon="2.0567">
        <ele>273.2</ele>
        <time>2021-09-05T07:58:46Z</time>
      </trkpt>
      <trkpt lat="44.07816" lon="2.0567">
        <ele>273.4</ele>
        <time>2021-09-05T07:58:47Z</time>
      </trkpt>
      <trkpt lat="44.07817" lon="2.0567">
        <ele>273.6</ele>
        <time>2021-09-05T07:58:48Z</time>
      </trkpt>
      <trkpt lat="44.07819" lon="2.05671">
        <ele>273.8</ele>
        <time>2021-09-05T07:58:49Z</time>
      </trkpt>
      <trkpt lat="44.0782" lon="2.05671">
        <ele>274</ele>
        <time>2021-09-05T07:58:50Z</time>
      </trkpt>
      <trkpt lat="44.07822" lon="2.05672">
        <ele>274.2</ele>
        <time>2021-09-05T07:58:51Z</time>
      </trkpt>
      <trkpt lat="44.07823" lon="2.05672">
        <ele>274.4</ele>
        <time>2021-09-05T07:58:52Z</time>
      </trkpt>
      <trkpt lat="44.07824" lon="2.05672">
        <ele>274.6</ele>
        <time>2021-09-05T07:58:53Z</time>
      </trkpt>
      <trkpt lat="44.07826" lon="2.05673">
        <ele>274.8</ele>
        <time>2021-09-05T07:58:54Z</time>
      </trkpt>
      <trkpt lat="44.07827" lon="2.05673">
        <ele>275</ele>
        <time>2021-09-05T07:58:55Z</time>
      </trkpt>
      <trkpt lat="44.07829" lon="2.05673">
        <ele>275.4</ele>
        <time>2021-09-05T07:58:56Z</time>
      </trkpt>
      <trkpt lat="44.0783" lon="2.05673">
        <ele>275.6</ele>
        <time>2021-09-05T07:58:57Z</time>
      </trkpt>
      <trkpt lat="44.07831" lon="2.05673">
        <ele>275.8</ele>
        <time>2021-09-05T07:58:58Z</time>
      </trkpt>
      <trkpt lat="44.07833" lon="2.05673">
        <ele>276</ele>
        <time>2021-09-05T07:58:59Z</time>
      </trkpt>
      <trkpt lat="44.07834" lon="2.05673">
        <ele>276.2</ele>
        <time>2021-09-05T07:59:00Z</time>
      </trkpt>
      <trkpt lat="44.07835" lon="2.05673">
        <ele>276.4</ele>
        <time>2021-09-05T07:59:01Z</time>
      </trkpt>
      <trkpt lat="44.07836" lon="2.05673">
        <ele>276.4</ele>
        <time>2021-09-05T07:59:02Z</time>
      </trkpt>
      <trkpt lat="44.07837" lon="2.05674">
        <ele>276.6</ele>
        <time>2021-09-05T07:59:03Z</time>
      </trkpt>
      <trkpt lat="44.07839" lon="2.05674">
        <ele>276.6</ele>
        <time>2021-09-05T07:59:04Z</time>
      </trkpt>
      <trkpt lat="44.0784" lon="2.05674">
        <ele>276.8</ele>
        <time>2021-09-05T07:59:05Z</time>
      </trkpt>
      <trkpt lat="44.07841" lon="2.05674">
        <ele>277</ele>
        <time>2021-09-05T07:59:06Z</time>
      </trkpt>
      <trkpt lat="44.07842" lon="2.05674">
        <ele>277.2</ele>
        <time>2021-09-05T07:59:07Z</time>
      </trkpt>
      <trkpt lat="44.07843" lon="2.05674">
        <ele>277.6</ele>
        <time>2021-09-05T07:59:08Z</time>
      </trkpt>
      <trkpt lat="44.07844" lon="2.05673">
        <ele>277.6</ele>
        <time>2021-09-05T07:59:09Z</time>
      </trkpt>
      <trkpt lat="44.07845" lon="2.05674">
        <ele>277.8</ele>
        <time>2021-09-05T07:59:10Z</time>
      </trkpt>
      <trkpt lat="44.07846" lon="2.05673">
        <ele>277.8</ele>
        <time>2021-09-05T07:59:11Z</time>
      </trkpt>
      <trkpt lat="44.07847" lon="2.05674">
        <ele>278.2</ele>
        <time>2021-09-05T07:59:12Z</time>
      </trkpt>
      <trkpt lat="44.07849" lon="2.05674">
        <ele>278.2</ele>
        <time>2021-09-05T07:59:13Z</time>
      </trkpt>
      <trkpt lat="44.0785" lon="2.05674">
        <ele>278.6</ele>
        <time>2021-09-05T07:59:14Z</time>
      </trkpt>
      <trkpt lat="44.07851" lon="2.05674">
        <ele>278.8</ele>
        <time>2021-09-05T07:59:15Z</time>
      </trkpt>
      <trkpt lat="44.07852" lon="2.05675">
        <ele>279</ele>
        <time>2021-09-05T07:59:16Z</time>
      </trkpt>
      <trkpt lat="44.07853" lon="2.05675">
        <ele>279.2</ele>
        <time>2021-09-05T07:59:17Z</time>
      </trkpt>
      <trkpt lat="44.07854" lon="2.05675">
        <ele>279.4</ele>
        <time>2021-09-05T07:59:18Z</time>
      </trkpt>
      <trkpt lat="44.07855" lon="2.05675">
        <ele>279.6</ele>
        <time>2021-09-05T07:59:19Z</time>
      </trkpt>
      <trkpt lat="44.07857" lon="2.05675">
        <ele>279.6</ele>
        <time>2021-09-05T07:59:20Z</time>
      </trkpt>
      <trkpt lat="44.07859" lon="2.05675">
        <ele>280</ele>
        <time>2021-09-05T07:59:21Z</time>
      </trkpt>
      <trkpt lat="44.0786" lon="2.05675">
        <ele>280</ele>
        <time>2021-09-05T07:59:22Z</time>
      </trkpt>
      <trkpt lat="44.07861" lon="2.05675">
        <ele>280.2</ele>
        <time>2021-09-05T07:59:23Z</time>
      </trkpt>
      <trkpt lat="44.07862" lon="2.05675">
        <ele>280.6</ele>
        <time>2021-09-05T07:59:24Z</time>
      </trkpt>
      <trkpt lat="44.07864" lon="2.05675">
        <ele>280.6</ele>
        <time>2021-09-05T07:59:25Z</time>
      </trkpt>
      <trkpt lat="44.07865" lon="2.05675">
        <ele>280.8</ele>
        <time>2021-09-05T07:59:26Z</time>
      </trkpt>
      <trkpt lat="44.07866" lon="2.05675">
        <ele>280.8</ele>
        <time>2021-09-05T07:59:27Z</time>
      </trkpt>
      <trkpt lat="44.07868" lon="2.05675">
        <ele>281</ele>
        <time>2021-09-05T07:59:28Z</time>
      </trkpt>
      <trkpt lat="44.07869" lon="2.05675">
        <ele>281</ele>
        <time>2021-09-05T07:59:29Z</time>
      </trkpt>
      <trkpt lat="44.07869" lon="2.05675">
        <ele>281.4</ele>
        <time>2021-09-05T07:59:30Z</time>
      </trkpt>
      <trkpt lat="44.07871" lon="2.05674">
        <ele>281.6</ele>
        <time>2021-09-05T07:59:31Z</time>
      </trkpt>
      <trkpt lat="44.07872" lon="2.05674">
        <ele>281.6</ele>
        <time>2021-09-05T07:59:32Z</time>
      </trkpt>
      <trkpt lat="44.07875" lon="2.05674">
        <ele>281.8</ele>
        <time>2021-09-05T07:59:33Z</time>
      </trkpt>
      <trkpt lat="44.07877" lon="2.05673">
        <ele>282</ele>
        <time>2021-09-05T07:59:34Z</time>
      </trkpt>
      <trkpt lat="44.07879" lon="2.05673">
        <ele>282.2</ele>
        <time>2021-09-05T07:59:35Z</time>
      </trkpt>
      <trkpt lat="44.0788" lon="2.05673">
        <ele>282.4</ele>
        <time>2021-09-05T07:59:36Z</time>
      </trkpt>
      <trkpt lat="44.07882" lon="2.05673">
        <ele>282.8</ele>
        <time>2021-09-05T07:59:37Z</time>
      </trkpt>
      <trkpt lat="44.07885" lon="2.05673">
        <ele>282.8</ele>
        <time>2021-09-05T07:59:38Z</time>
      </trkpt>
      <trkpt lat="44.07886" lon="2.05673">
        <ele>283</ele>
        <time>2021-09-05T07:59:39Z</time>
      </trkpt>
      <trkpt lat="44.07888" lon="2.05674">
        <ele>283.2</ele>
        <time>2021-09-05T07:59:40Z</time>
      </trkpt>
      <trkpt lat="44.07889" lon="2.05675">
        <ele>283.4</ele>
        <time>2021-09-05T07:59:41Z</time>
      </trkpt>
      <trkpt lat="44.0789" lon="2.05675">
        <ele>283.6</ele>
        <time>2021-09-05T07:59:42Z</time>
      </trkpt>
      <trkpt lat="44.07891" lon="2.05676">
        <ele>283.8</ele>
        <time>2021-09-05T07:59:43Z</time>
      </trkpt>
      <trkpt lat="44.07893" lon="2.05676">
        <ele>284</ele>
        <time>2021-09-05T07:59:44Z</time>
      </trkpt>
      <trkpt lat="44.07895" lon="2.05677">
        <ele>284.2</ele>
        <time>2021-09-05T07:59:45Z</time>
      </trkpt>
      <trkpt lat="44.07896" lon="2.05677">
        <ele>284.2</ele>
        <time>2021-09-05T07:59:46Z</time>
      </trkpt>
      <trkpt lat="44.07897" lon="2.05677">
        <ele>284.6</ele>
        <time>2021-09-05T07:59:47Z</time>
      </trkpt>
      <trkpt lat="44.07899" lon="2.05677">
        <ele>284.6</ele>
        <time>2021-09-05T07:59:48Z</time>
      </trkpt>
      <trkpt lat="44.079" lon="2.05676">
        <ele>284.8</ele>
        <time>2021-09-05T07:59:49Z</time>
      </trkpt>
      <trkpt lat="44.07902" lon="2.05676">
        <ele>285</ele>
        <time>2021-09-05T07:59:50Z</time>
      </trkpt>
      <trkpt lat="44.07903" lon="2.05675">
        <ele>285.2</ele>
        <time>2021-09-05T07:59:51Z</time>
      </trkpt>
      <trkpt lat="44.07905" lon="2.05675">
        <ele>285.2</ele>
        <time>2021-09-05T07:59:52Z</time>
      </trkpt>
      <trkpt lat="44.07906" lon="2.05675">
        <ele>285.4</ele>
        <time>2021-09-05T07:59:53Z</time>
      </trkpt>
      <trkpt lat="44.07908" lon="2.05675">
        <ele>285.6</ele>
        <time>2021-09-05T07:59:54Z</time>
      </trkpt>
      <trkpt lat="44.07909" lon="2.05674">
        <ele>285.8</ele>
        <time>2021-09-05T07:59:55Z</time>
      </trkpt>
      <trkpt lat="44.0791" lon="2.05674">
        <ele>285.8</ele>
        <time>2021-09-05T07:59:56Z</time>
      </trkpt>
      <trkpt lat="44.07912" lon="2.05674">
        <ele>286</ele>
        <time>2021-09-05T07:59:57Z</time>
      </trkpt>
      <trkpt lat="44.07913" lon="2.05674">
        <ele>286.2</ele>
        <time>2021-09-05T07:59:58Z</time>
      </trkpt>
      <trkpt lat="44.07915" lon="2.05673">
        <ele>286.2</ele>
        <time>2021-09-05T07:59:59Z</time>
      </trkpt>
      <trkpt lat="44.07916" lon="2.05673">
        <ele>286.6</ele>
        <time>2021-09-05T08:00:00Z</time>
      </trkpt>
      <trkpt lat="44.07917" lon="2.05673">
        <ele>286.8</ele>
        <time>2021-09-05T08:00:01Z</time>
      </trkpt>
      <trkpt lat="44.07918" lon="2.05673">
        <ele>287</ele>
        <time>2021-09-05T08:00:02Z</time>
      </trkpt>
      <trkpt lat="44.0792" lon="2.05673">
        <ele>287.2</ele>
        <time>2021-09-05T08:00:03Z</time>
      </trkpt>
      <trkpt lat="44.07921" lon="2.05673">
        <ele>287.2</ele>
        <time>2021-09-05T08:00:04Z</time>
      </trkpt>
      <trkpt lat="44.07922" lon="2.05672">
        <ele>287.4</ele>
        <time>2021-09-05T08:00:05Z</time>
      </trkpt>
      <trkpt lat="44.07922" lon="2.05672">
        <ele>287.4</ele>
        <time>2021-09-05T08:00:06Z</time>
      </trkpt>
      <trkpt lat="44.07924" lon="2.05672">
        <ele>287.6</ele>
        <time>2021-09-05T08:00:07Z</time>
      </trkpt>
      <trkpt lat="44.07925" lon="2.05671">
        <ele>287.6</ele>
        <time>2021-09-05T08:00:08Z</time>
      </trkpt>
      <trkpt lat="44.07926" lon="2.05671">
        <ele>287.8</ele>
        <time>2021-09-05T08:00:09Z</time>
      </trkpt>
      <trkpt lat="44.07927" lon="2.05671">
        <ele>287.8</ele>
        <time>2021-09-05T08:00:10Z</time>
      </trkpt>
      <trkpt lat="44.07929" lon="2.0567">
        <ele>288</ele>
        <time>2021-09-05T08:00:11Z</time>
      </trkpt>
      <trkpt lat="44.0793" lon="2.0567">
        <ele>288</ele>
        <time>2021-09-05T08:00:12Z</time>
      </trkpt>
      <trkpt lat="44.07932" lon="2.05669">
        <ele>288.2</ele>
        <time>2021-09-05T08:00:13Z</time>
      </trkpt>
      <trkpt lat="44.07934" lon="2.05669">
        <ele>288.2</ele>
        <time>2021-09-05T08:00:14Z</time>
      </trkpt>
      <trkpt lat="44.07935" lon="2.05669">
        <ele>288.2</ele>
        <time>2021-09-05T08:00:15Z</time>
      </trkpt>
      <trkpt lat="44.07937" lon="2.05669">
        <ele>288.4</ele>
        <time>2021-09-05T08:00:16Z</time>
      </trkpt>
      <trkpt lat="44.07939" lon="2.05668">
        <ele>288.6</ele>
        <time>2021-09-05T08:00:17Z</time>
      </trkpt>
      <trkpt lat="44.07941" lon="2.05668">
        <ele>288.6</ele>
        <time>2021-09-05T08:00:18Z</time>
      </trkpt>
      <trkpt lat="44.07943" lon="2.05667">
        <ele>288.8</ele>
        <time>2021-09-05T08:00:19Z</time>
      </trkpt>
      <trkpt lat="44.07945" lon="2.05667">
        <ele>289</ele>
        <time>2021-09-05T08:00:20Z</time>
      </trkpt>
      <trkpt lat="44.07947" lon="2.05666">
        <ele>289</ele>
        <time>2021-09-05T08:00:21Z</time>
      </trkpt>
      <trkpt lat="44.07949" lon="2.05665">
        <ele>289</ele>
        <time>2021-09-05T08:00:22Z</time>
      </trkpt>
      <trkpt lat="44.07951" lon="2.05665">
        <ele>289.2</ele>
        <time>2021-09-05T08:00:23Z</time>
      </trkpt>
      <trkpt lat="44.07953" lon="2.05664">
        <ele>289.2</ele>
        <time>2021-09-05T08:00:24Z</time>
      </trkpt>
      <trkpt lat="44.07955" lon="2.05664">
        <ele>289.4</ele>
        <time>2021-09-05T08:00:25Z</time>
      </trkpt>
      <trkpt lat="44.07957" lon="2.05663">
        <ele>289.4</ele>
        <time>2021-09-05T08:00:26Z</time>
      </trkpt>
      <trkpt lat="44.07959" lon="2.05662">
        <ele>289.6</ele>
        <time>2021-09-05T08:00:27Z</time>
      </trkpt>
      <trkpt lat="44.07961" lon="2.05662">
        <ele>289.6</ele>
        <time>2021-09-05T08:00:28Z</time>
      </trkpt>
      <trkpt lat="44.07964" lon="2.05661">
        <ele>289.8</ele>
        <time>2021-09-05T08:00:29Z</time>
      </trkpt>
      <trkpt lat="44.07965" lon="2.05661">
        <ele>290</ele>
        <time>2021-09-05T08:00:30Z</time>
      </trkpt>
      <trkpt lat="44.07967" lon="2.0566">
        <ele>290</ele>
        <time>2021-09-05T08:00:31Z</time>
      </trkpt>
      <trkpt lat="44.07969" lon="2.05659">
        <ele>290.2</ele>
        <time>2021-09-05T08:00:32Z</time>
      </trkpt>
      <trkpt lat="44.07972" lon="2.05659">
        <ele>290.2</ele>
        <time>2021-09-05T08:00:33Z</time>
      </trkpt>
      <trkpt lat="44.07973" lon="2.05658">
        <ele>290.4</ele>
        <time>2021-09-05T08:00:34Z</time>
      </trkpt>
      <trkpt lat="44.07975" lon="2.05657">
        <ele>290.4</ele>
        <time>2021-09-05T08:00:35Z</time>
      </trkpt>
      <trkpt lat="44.07977" lon="2.05656">
        <ele>290.6</ele>
        <time>2021-09-05T08:00:36Z</time>
      </trkpt>
      <trkpt lat="44.07979" lon="2.05656">
        <ele>290.8</ele>
        <time>2021-09-05T08:00:37Z</time>
      </trkpt>
      <trkpt lat="44.07981" lon="2.05655">
        <ele>290.8</ele>
        <time>2021-09-05T08:00:38Z</time>
      </trkpt>
      <trkpt lat="44.07983" lon="2.05654">
        <ele>291</ele>
        <time>2021-09-05T08:00:39Z</time>
      </trkpt>
      <trkpt lat="44.07985" lon="2.05654">
        <ele>291</ele>
        <time>2021-09-05T08:00:40Z</time>
      </trkpt>
      <trkpt lat="44.07988" lon="2.05653">
        <ele>291.2</ele>
        <time>2021-09-05T08:00:41Z</time>
      </trkpt>
      <trkpt lat="44.07989" lon="2.05652">
        <ele>291.4</ele>
        <time>2021-09-05T08:00:42Z</time>
      </trkpt>
      <trkpt lat="44.07991" lon="2.05651">
        <ele>291.4</ele>
        <time>2021-09-05T08:00:43Z</time>
      </trkpt>
      <trkpt lat="44.07993" lon="2.0565">
        <ele>291.6</ele>
        <time>2021-09-05T08:00:44Z</time>
      </trkpt>
      <trkpt lat="44.07995" lon="2.0565">
        <ele>291.6</ele>
        <time>2021-09-05T08:00:45Z</time>
      </trkpt>
      <trkpt lat="44.07997" lon="2.05649">
        <ele>291.8</ele>
        <time>2021-09-05T08:00:46Z</time>
      </trkpt>
      <trkpt lat="44.07999" lon="2.05648">
        <ele>292</ele>
        <time>2021-09-05T08:00:47Z</time>
      </trkpt>
      <trkpt lat="44.08001" lon="2.05647">
        <ele>292.2</ele>
        <time>2021-09-05T08:00:48Z</time>
      </trkpt>
      <trkpt lat="44.08003" lon="2.05647">
        <ele>292.4</ele>
        <time>2021-09-05T08:00:49Z</time>
      </trkpt>
      <trkpt lat="44.08005" lon="2.05646">
        <ele>292.4</ele>
        <time>2021-09-05T08:00:50Z</time>
      </trkpt>
      <trkpt lat="44.08007" lon="2.05645">
        <ele>292.6</ele>
        <time>2021-09-05T08:00:51Z</time>
      </trkpt>
      <trkpt lat="44.08009" lon="2.05644">
        <ele>292.8</ele>
        <time>2021-09-05T08:00:52Z</time>
      </trkpt>
      <trkpt lat="44.08012" lon="2.05643">
        <ele>292.8</ele>
        <time>2021-09-05T08:00:53Z</time>
      </trkpt>
      <trkpt lat="44.08014" lon="2.05643">
        <ele>292.8</ele>
        <time>2021-09-05T08:00:54Z</time>
      </trkpt>
      <trkpt lat="44.08016" lon="2.05642">
        <ele>293</ele>
        <time>2021-09-05T08:00:55Z</time>
      </trkpt>
      <trkpt lat="44.08018" lon="2.05642">
        <ele>293</ele>
        <time>2021-09-05T08:00:56Z</time>
      </trkpt>
      <trkpt lat="44.08021" lon="2.05641">
        <ele>293.2</ele>
        <time>2021-09-05T08:00:57Z</time>
      </trkpt>
      <trkpt lat="44.08023" lon="2.0564">
        <ele>293.2</ele>
        <time>2021-09-05T08:00:58Z</time>
      </trkpt>
      <trkpt lat="44.08026" lon="2.05639">
        <ele>293.4</ele>
        <time>2021-09-05T08:00:59Z</time>
      </trkpt>
      <trkpt lat="44.08028" lon="2.05638">
        <ele>293.4</ele>
        <time>2021-09-05T08:01:00Z</time>
      </trkpt>
      <trkpt lat="44.0803" lon="2.05638">
        <ele>293.6</ele>
        <time>2021-09-05T08:01:01Z</time>
      </trkpt>
      <trkpt lat="44.08033" lon="2.05637">
        <ele>293.6</ele>
        <time>2021-09-05T08:01:02Z</time>
      </trkpt>
      <trkpt lat="44.08035" lon="2.05637">
        <ele>293.6</ele>
        <time>2021-09-05T08:01:03Z</time>
      </trkpt>
      <trkpt lat="44.08037" lon="2.05636">
        <ele>293.8</ele>
        <time>2021-09-05T08:01:04Z</time>
      </trkpt>
      <trkpt lat="44.08039" lon="2.05636">
        <ele>294</ele>
        <time>2021-09-05T08:01:05Z</time>
      </trkpt>
      <trkpt lat="44.08042" lon="2.05635">
        <ele>293.8</ele>
        <time>2021-09-05T08:01:06Z</time>
      </trkpt>
      <trkpt lat="44.08044" lon="2.05634">
        <ele>294.2</ele>
        <time>2021-09-05T08:01:07Z</time>
      </trkpt>
      <trkpt lat="44.08047" lon="2.05633">
        <ele>294.2</ele>
        <time>2021-09-05T08:01:08Z</time>
      </trkpt>
      <trkpt lat="44.0805" lon="2.05632">
        <ele>294.4</ele>
        <time>2021-09-05T08:01:09Z</time>
      </trkpt>
      <trkpt lat="44.08052" lon="2.05632">
        <ele>294.4</ele>
        <time>2021-09-05T08:01:10Z</time>
      </trkpt>
      <trkpt lat="44.08055" lon="2.0563">
        <ele>294.4</ele>
        <time>2021-09-05T08:01:11Z</time>
      </trkpt>
      <trkpt lat="44.08058" lon="2.0563">
        <ele>294.6</ele>
        <time>2021-09-05T08:01:12Z</time>
      </trkpt>
      <trkpt lat="44.08061" lon="2.05629">
        <ele>294.6</ele>
        <time>2021-09-05T08:01:13Z</time>
      </trkpt>
      <trkpt lat="44.08064" lon="2.05628">
        <ele>294.6</ele>
        <time>2021-09-05T08:01:14Z</time>
      </trkpt>
      <trkpt lat="44.08067" lon="2.05627">
        <ele>294.4</ele>
        <time>2021-09-05T08:01:15Z</time>
      </trkpt>
      <trkpt lat="44.08069" lon="2.05626">
        <ele>294.6</ele>
        <time>2021-09-05T08:01:16Z</time>
      </trkpt>
      <trkpt lat="44.08072" lon="2.05625">
        <ele>294.6</ele>
        <time>2021-09-05T08:01:17Z</time>
      </trkpt>
      <trkpt lat="44.08082" lon="2.05623">
        <ele>294.8</ele>
        <time>2021-09-05T08:01:20Z</time>
      </trkpt>
      <trkpt lat="44.08097" lon="2.05617">
        <ele>295</ele>
        <time>2021-09-05T08:01:25Z</time>
      </trkpt>
      <trkpt lat="44.08104" lon="2.05615">
        <ele>295</ele>
        <time>2021-09-05T08:01:27Z</time>
      </trkpt>
      <trkpt lat="44.08107" lon="2.05614">
        <ele>295</ele>
        <time>2021-09-05T08:01:28Z</time>
      </trkpt>
      <trkpt lat="44.08132" lon="2.05605">
        <ele>295.4</ele>
        <time>2021-09-05T08:01:35Z</time>
      </trkpt>
      <trkpt lat="44.08134" lon="2.05604">
        <ele>295.4</ele>
        <time>2021-09-05T08:01:36Z</time>
      </trkpt>
      <trkpt lat="44.08138" lon="2.05603">
        <ele>295.6</ele>
        <time>2021-09-05T08:01:37Z</time>
      </trkpt>
      <trkpt lat="44.0816" lon="2.05594">
        <ele>295.8</ele>
        <time>2021-09-05T08:01:43Z</time>
      </trkpt>
      <trkpt lat="44.08164" lon="2.05592">
        <ele>296</ele>
        <time>2021-09-05T08:01:44Z</time>
      </trkpt>
      <trkpt lat="44.08175" lon="2.05586">
        <ele>296.2</ele>
        <time>2021-09-05T08:01:47Z</time>
      </trkpt>
      <trkpt lat="44.08199" lon="2.0557">
        <ele>296.4</ele>
        <time>2021-09-05T08:01:54Z</time>
      </trkpt>
      <trkpt lat="44.08205" lon="2.05563">
        <ele>296.6</ele>
        <time>2021-09-05T08:01:56Z</time>
      </trkpt>
      <trkpt lat="44.08216" lon="2.05546">
        <ele>296.8</ele>
        <time>2021-09-05T08:02:00Z</time>
      </trkpt>
      <trkpt lat="44.08218" lon="2.05542">
        <ele>297</ele>
        <time>2021-09-05T08:02:01Z</time>
      </trkpt>
      <trkpt lat="44.0822" lon="2.05538">
        <ele>297</ele>
        <time>2021-09-05T08:02:02Z</time>
      </trkpt>
      <trkpt lat="44.08222" lon="2.05534">
        <ele>297.2</ele>
        <time>2021-09-05T08:02:03Z</time>
      </trkpt>
      <trkpt lat="44.08227" lon="2.05526">
        <ele>297.2</ele>
        <time>2021-09-05T08:02:05Z</time>
      </trkpt>
      <trkpt lat="44.08243" lon="2.055">
        <ele>298</ele>
        <time>2021-09-05T08:02:11Z</time>
      </trkpt>
      <trkpt lat="44.08246" lon="2.05496">
        <ele>298</ele>
        <time>2021-09-05T08:02:12Z</time>
      </trkpt>
      <trkpt lat="44.08249" lon="2.05493">
        <ele>298.2</ele>
        <time>2021-09-05T08:02:13Z</time>
      </trkpt>
      <trkpt lat="44.08253" lon="2.05489">
        <ele>298.2</ele>
        <time>2021-09-05T08:02:14Z</time>
      </trkpt>
      <trkpt lat="44.08256" lon="2.05485">
        <ele>298.4</ele>
        <time>2021-09-05T08:02:15Z</time>
      </trkpt>
      <trkpt lat="44.0826" lon="2.05481">
        <ele>298.4</ele>
        <time>2021-09-05T08:02:16Z</time>
      </trkpt>
      <trkpt lat="44.08285" lon="2.05462">
        <ele>299</ele>
        <time>2021-09-05T08:02:23Z</time>
      </trkpt>
      <trkpt lat="44.08289" lon="2.05459">
        <ele>299</ele>
        <time>2021-09-05T08:02:24Z</time>
      </trkpt>
      <trkpt lat="44.08293" lon="2.05457">
        <ele>299</ele>
        <time>2021-09-05T08:02:25Z</time>
      </trkpt>
      <trkpt lat="44.08297" lon="2.05454">
        <ele>299</ele>
        <time>2021-09-05T08:02:26Z</time>
      </trkpt>
      <trkpt lat="44.08305" lon="2.0545">
        <ele>299.2</ele>
        <time>2021-09-05T08:02:28Z</time>
      </trkpt>
      <trkpt lat="44.08308" lon="2.05447">
        <ele>299.2</ele>
        <time>2021-09-05T08:02:29Z</time>
      </trkpt>
      <trkpt lat="44.08315" lon="2.05443">
        <ele>299.2</ele>
        <time>2021-09-05T08:02:31Z</time>
      </trkpt>
      <trkpt lat="44.08335" lon="2.05428">
        <ele>299.8</ele>
        <time>2021-09-05T08:02:37Z</time>
      </trkpt>
      <trkpt lat="44.08342" lon="2.05423">
        <ele>300.2</ele>
        <time>2021-09-05T08:02:39Z</time>
      </trkpt>
      <trkpt lat="44.08346" lon="2.05421">
        <ele>300.2</ele>
        <time>2021-09-05T08:02:40Z</time>
      </trkpt>
      <trkpt lat="44.0835" lon="2.05419">
        <ele>300.4</ele>
        <time>2021-09-05T08:02:41Z</time>
      </trkpt>
      <trkpt lat="44.08367" lon="2.05408">
        <ele>300.8</ele>
        <time>2021-09-05T08:02:46Z</time>
      </trkpt>
      <trkpt lat="44.08371" lon="2.05405">
        <ele>301</ele>
        <time>2021-09-05T08:02:47Z</time>
      </trkpt>
      <trkpt lat="44.08377" lon="2.05401">
        <ele>301.2</ele>
        <time>2021-09-05T08:02:49Z</time>
      </trkpt>
      <trkpt lat="44.08381" lon="2.054">
        <ele>301.2</ele>
        <time>2021-09-05T08:02:50Z</time>
      </trkpt>
      <trkpt lat="44.08384" lon="2.05397">
        <ele>301.2</ele>
        <time>2021-09-05T08:02:51Z</time>
      </trkpt>
      <trkpt lat="44.08391" lon="2.05393">
        <ele>301.4</ele>
        <time>2021-09-05T08:02:53Z</time>
      </trkpt>
      <trkpt lat="44.08401" lon="2.05388">
        <ele>302.2</ele>
        <time>2021-09-05T08:02:56Z</time>
      </trkpt>
      <trkpt lat="44.08405" lon="2.05386">
        <ele>302.4</ele>
        <time>2021-09-05T08:02:57Z</time>
      </trkpt>
      <trkpt lat="44.08412" lon="2.05383">
        <ele>302.6</ele>
        <time>2021-09-05T08:02:59Z</time>
      </trkpt>
      <trkpt lat="44.08415" lon="2.05382">
        <ele>302.8</ele>
        <time>2021-09-05T08:03:00Z</time>
      </trkpt>
      <trkpt lat="44.08419" lon="2.0538">
        <ele>302.8</ele>
        <time>2021-09-05T08:03:01Z</time>
      </trkpt>
      <trkpt lat="44.08422" lon="2.05379">
        <ele>303</ele>
        <time>2021-09-05T08:03:02Z</time>
      </trkpt>
      <trkpt lat="44.08426" lon="2.05378">
        <ele>303.2</ele>
        <time>2021-09-05T08:03:03Z</time>
      </trkpt>
      <trkpt lat="44.08429" lon="2.05377">
        <ele>303.4</ele>
        <time>2021-09-05T08:03:04Z</time>
      </trkpt>
      <trkpt lat="44.08433" lon="2.05376">
        <ele>303.4</ele>
        <time>2021-09-05T08:03:05Z</time>
      </trkpt>
      <trkpt lat="44.08437" lon="2.05375">
        <ele>303.6</ele>
        <time>2021-09-05T08:03:06Z</time>
      </trkpt>
      <trkpt lat="44.0844" lon="2.05374">
        <ele>303.6</ele>
        <time>2021-09-05T08:03:07Z</time>
      </trkpt>
      <trkpt lat="44.08444" lon="2.05373">
        <ele>303.6</ele>
        <time>2021-09-05T08:03:08Z</time>
      </trkpt>
      <trkpt lat="44.08448" lon="2.05372">
        <ele>303.8</ele>
        <time>2021-09-05T08:03:09Z</time>
      </trkpt>
      <trkpt lat="44.08452" lon="2.05371">
        <ele>304</ele>
        <time>2021-09-05T08:03:10Z</time>
      </trkpt>
      <trkpt lat="44.08455" lon="2.05371">
        <ele>304.2</ele>
        <time>2021-09-05T08:03:11Z</time>
      </trkpt>
      <trkpt lat="44.08458" lon="2.0537">
        <ele>304.2</ele>
        <time>2021-09-05T08:03:12Z</time>
      </trkpt>
      <trkpt lat="44.08461" lon="2.0537">
        <ele>304.4</ele>
        <time>2021-09-05T08:03:13Z</time>
      </trkpt>
      <trkpt lat="44.08464" lon="2.0537">
        <ele>304.6</ele>
        <time>2021-09-05T08:03:14Z</time>
      </trkpt>
      <trkpt lat="44.08468" lon="2.05369">
        <ele>305</ele>
        <time>2021-09-05T08:03:15Z</time>
      </trkpt>
      <trkpt lat="44.08471" lon="2.05369">
        <ele>305</ele>
        <time>2021-09-05T08:03:16Z</time>
      </trkpt>
      <trkpt lat="44.08475" lon="2.05369">
        <ele>305.4</ele>
        <time>2021-09-05T08:03:17Z</time>
      </trkpt>
      <trkpt lat="44.08478" lon="2.05369">
        <ele>305.6</ele>
        <time>2021-09-05T08:03:18Z</time>
      </trkpt>
      <trkpt lat="44.08482" lon="2.0537">
        <ele>305.8</ele>
        <time>2021-09-05T08:03:19Z</time>
      </trkpt>
      <trkpt lat="44.08485" lon="2.0537">
        <ele>306</ele>
        <time>2021-09-05T08:03:20Z</time>
      </trkpt>
      <trkpt lat="44.08489" lon="2.0537">
        <ele>306</ele>
        <time>2021-09-05T08:03:21Z</time>
      </trkpt>
      <trkpt lat="44.08493" lon="2.0537">
        <ele>306.2</ele>
        <time>2021-09-05T08:03:22Z</time>
      </trkpt>
      <trkpt lat="44.08497" lon="2.0537">
        <ele>306.2</ele>
        <time>2021-09-05T08:03:23Z</time>
      </trkpt>
      <trkpt lat="44.08501" lon="2.05369">
        <ele>306.2</ele>
        <time>2021-09-05T08:03:24Z</time>
      </trkpt>
      <trkpt lat="44.08504" lon="2.0537">
        <ele>306.2</ele>
        <time>2021-09-05T08:03:25Z</time>
      </trkpt>
      <trkpt lat="44.08508" lon="2.0537">
        <ele>306.4</ele>
        <time>2021-09-05T08:03:26Z</time>
      </trkpt>
      <trkpt lat="44.08512" lon="2.0537">
        <ele>306.6</ele>
        <time>2021-09-05T08:03:27Z</time>
      </trkpt>
      <trkpt lat="44.08516" lon="2.0537">
        <ele>306.6</ele>
        <time>2021-09-05T08:03:28Z</time>
      </trkpt>
      <trkpt lat="44.0852" lon="2.0537">
        <ele>306.8</ele>
        <time>2021-09-05T08:03:29Z</time>
      </trkpt>
      <trkpt lat="44.08524" lon="2.0537">
        <ele>306.8</ele>
        <time>2021-09-05T08:03:30Z</time>
      </trkpt>
      <trkpt lat="44.08528" lon="2.0537">
        <ele>307</ele>
        <time>2021-09-05T08:03:31Z</time>
      </trkpt>
      <trkpt lat="44.08531" lon="2.0537">
        <ele>307</ele>
        <time>2021-09-05T08:03:32Z</time>
      </trkpt>
      <trkpt lat="44.08535" lon="2.0537">
        <ele>307.2</ele>
        <time>2021-09-05T08:03:33Z</time>
      </trkpt>
      <trkpt lat="44.08538" lon="2.0537">
        <ele>307.4</ele>
        <time>2021-09-05T08:03:34Z</time>
      </trkpt>
      <trkpt lat="44.08542" lon="2.0537">
        <ele>307.4</ele>
        <time>2021-09-05T08:03:35Z</time>
      </trkpt>
      <trkpt lat="44.08545" lon="2.0537">
        <ele>307.6</ele>
        <time>2021-09-05T08:03:36Z</time>
      </trkpt>
      <trkpt lat="44.08548" lon="2.0537">
        <ele>307.6</ele>
        <time>2021-09-05T08:03:37Z</time>
      </trkpt>
      <trkpt lat="44.0855" lon="2.0537">
        <ele>307.8</ele>
        <time>2021-09-05T08:03:38Z</time>
      </trkpt>
      <trkpt lat="44.08553" lon="2.05371">
        <ele>307.8</ele>
        <time>2021-09-05T08:03:39Z</time>
      </trkpt>
      <trkpt lat="44.08555" lon="2.05372">
        <ele>308</ele>
        <time>2021-09-05T08:03:40Z</time>
      </trkpt>
      <trkpt lat="44.08558" lon="2.05374">
        <ele>308</ele>
        <time>2021-09-05T08:03:41Z</time>
      </trkpt>
      <trkpt lat="44.0856" lon="2.05374">
        <ele>308.2</ele>
        <time>2021-09-05T08:03:42Z</time>
      </trkpt>
      <trkpt lat="44.08561" lon="2.05375">
        <ele>308.2</ele>
        <time>2021-09-05T08:03:43Z</time>
      </trkpt>
      <trkpt lat="44.08565" lon="2.05371">
        <ele>308.6</ele>
        <time>2021-09-05T08:04:36Z</time>
      </trkpt>
      <trkpt lat="44.08579" lon="2.05364">
        <ele>308.6</ele>
        <time>2021-09-05T08:04:42Z</time>
      </trkpt>
      <trkpt lat="44.086" lon="2.05358">
        <ele>308.8</ele>
        <time>2021-09-05T08:04:50Z</time>
      </trkpt>
      <trkpt lat="44.08612" lon="2.05354">
        <ele>308.8</ele>
        <time>2021-09-05T08:04:54Z</time>
      </trkpt>
      <trkpt lat="44.08618" lon="2.05352">
        <ele>308.8</ele>
        <time>2021-09-05T08:04:56Z</time>
      </trkpt>
      <trkpt lat="44.0865" lon="2.05343">
        <ele>309.6</ele>
        <time>2021-09-05T08:05:05Z</time>
      </trkpt>
      <trkpt lat="44.08658" lon="2.05341">
        <ele>309.8</ele>
        <time>2021-09-05T08:05:07Z</time>
      </trkpt>
      <trkpt lat="44.08662" lon="2.0534">
        <ele>309.8</ele>
        <time>2021-09-05T08:05:08Z</time>
      </trkpt>
      <trkpt lat="44.08669" lon="2.05338">
        <ele>310</ele>
        <time>2021-09-05T08:05:10Z</time>
      </trkpt>
      <trkpt lat="44.08685" lon="2.05334">
        <ele>310.2</ele>
        <time>2021-09-05T08:05:14Z</time>
      </trkpt>
      <trkpt lat="44.08689" lon="2.05333">
        <ele>310.2</ele>
        <time>2021-09-05T08:05:15Z</time>
      </trkpt>
      <trkpt lat="44.08721" lon="2.05327">
        <ele>310.8</ele>
        <time>2021-09-05T08:05:23Z</time>
      </trkpt>
      <trkpt lat="44.08725" lon="2.05326">
        <ele>311</ele>
        <time>2021-09-05T08:05:24Z</time>
      </trkpt>
      <trkpt lat="44.08729" lon="2.05326">
        <ele>311</ele>
        <time>2021-09-05T08:05:25Z</time>
      </trkpt>
      <trkpt lat="44.08733" lon="2.05325">
        <ele>311.2</ele>
        <time>2021-09-05T08:05:26Z</time>
      </trkpt>
      <trkpt lat="44.08757" lon="2.0532">
        <ele>311.8</ele>
        <time>2021-09-05T08:05:32Z</time>
      </trkpt>
      <trkpt lat="44.08761" lon="2.05319">
        <ele>311.8</ele>
        <time>2021-09-05T08:05:33Z</time>
      </trkpt>
      <trkpt lat="44.08794" lon="2.05312">
        <ele>312.4</ele>
        <time>2021-09-05T08:05:41Z</time>
      </trkpt>
      <trkpt lat="44.08802" lon="2.0531">
        <ele>312.4</ele>
        <time>2021-09-05T08:05:43Z</time>
      </trkpt>
      <trkpt lat="44.08816" lon="2.05308">
        <ele>312.4</ele>
        <time>2021-09-05T08:05:46Z</time>
      </trkpt>
      <trkpt lat="44.0882" lon="2.05307">
        <ele>312.4</ele>
        <time>2021-09-05T08:05:47Z</time>
      </trkpt>
      <trkpt lat="44.08825" lon="2.05306">
        <ele>312.4</ele>
        <time>2021-09-05T08:05:48Z</time>
      </trkpt>
      <trkpt lat="44.08829" lon="2.05304">
        <ele>312.4</ele>
        <time>2021-09-05T08:05:49Z</time>
      </trkpt>
      <trkpt lat="44.08834" lon="2.05303">
        <ele>312.4</ele>
        <time>2021-09-05T08:05:50Z</time>
      </trkpt>
      <trkpt lat="44.08837" lon="2.05304">
        <ele>312.4</ele>
        <time>2021-09-05T08:05:51Z</time>
      </trkpt>
      <trkpt lat="44.08841" lon="2.05306">
        <ele>312.2</ele>
        <time>2021-09-05T08:05:52Z</time>
      </trkpt>
      <trkpt lat="44.08845" lon="2.0531">
        <ele>312</ele>
        <time>2021-09-05T08:05:53Z</time>
      </trkpt>
      <trkpt lat="44.08849" lon="2.05314">
        <ele>312</ele>
        <time>2021-09-05T08:05:54Z</time>
      </trkpt>
      <trkpt lat="44.08852" lon="2.05318">
        <ele>312</ele>
        <time>2021-09-05T08:05:55Z</time>
      </trkpt>
      <trkpt lat="44.08855" lon="2.05322">
        <ele>311.8</ele>
        <time>2021-09-05T08:05:56Z</time>
      </trkpt>
      <trkpt lat="44.08883" lon="2.05356">
        <ele>311.8</ele>
        <time>2021-09-05T08:06:03Z</time>
      </trkpt>
      <trkpt lat="44.08887" lon="2.05361">
        <ele>311.8</ele>
        <time>2021-09-05T08:06:04Z</time>
      </trkpt>
      <trkpt lat="44.08891" lon="2.05366">
        <ele>312</ele>
        <time>2021-09-05T08:06:05Z</time>
      </trkpt>
      <trkpt lat="44.08899" lon="2.05375">
        <ele>311.8</ele>
        <time>2021-09-05T08:06:07Z</time>
      </trkpt>
      <trkpt lat="44.08907" lon="2.05385">
        <ele>311.8</ele>
        <time>2021-09-05T08:06:09Z</time>
      </trkpt>
      <trkpt lat="44.08915" lon="2.05394">
        <ele>311.8</ele>
        <time>2021-09-05T08:06:11Z</time>
      </trkpt>
      <trkpt lat="44.08919" lon="2.05398">
        <ele>311.8</ele>
        <time>2021-09-05T08:06:12Z</time>
      </trkpt>
      <trkpt lat="44.08923" lon="2.05403">
        <ele>312</ele>
        <time>2021-09-05T08:06:13Z</time>
      </trkpt>
      <trkpt lat="44.08927" lon="2.05407">
        <ele>312</ele>
        <time>2021-09-05T08:06:14Z</time>
      </trkpt>
      <trkpt lat="44.08931" lon="2.05412">
        <ele>312</ele>
        <time>2021-09-05T08:06:15Z</time>
      </trkpt>
      <trkpt lat="44.08954" lon="2.0544">
        <ele>312.2</ele>
        <time>2021-09-05T08:06:21Z</time>
      </trkpt>
      <trkpt lat="44.08958" lon="2.05444">
        <ele>312.2</ele>
        <time>2021-09-05T08:06:22Z</time>
      </trkpt>
      <trkpt lat="44.08966" lon="2.05454">
        <ele>312.4</ele>
        <time>2021-09-05T08:06:24Z</time>
      </trkpt>
      <trkpt lat="44.0897" lon="2.05458">
        <ele>312.4</ele>
        <time>2021-09-05T08:06:25Z</time>
      </trkpt>
      <trkpt lat="44.08973" lon="2.05462">
        <ele>312.4</ele>
        <time>2021-09-05T08:06:26Z</time>
      </trkpt>
      <trkpt lat="44.08977" lon="2.05466">
        <ele>312.6</ele>
        <time>2021-09-05T08:06:27Z</time>
      </trkpt>
      <trkpt lat="44.08981" lon="2.05468">
        <ele>312.6</ele>
        <time>2021-09-05T08:06:28Z</time>
      </trkpt>
      <trkpt lat="44.08984" lon="2.05468">
        <ele>312.6</ele>
        <time>2021-09-05T08:06:29Z</time>
      </trkpt>
      <trkpt lat="44.08986" lon="2.05465">
        <ele>312.8</ele>
        <time>2021-09-05T08:06:30Z</time>
      </trkpt>
      <trkpt lat="44.08988" lon="2.0546">
        <ele>312.8</ele>
        <time>2021-09-05T08:06:31Z</time>
      </trkpt>
      <trkpt lat="44.08988" lon="2.05455">
        <ele>313</ele>
        <time>2021-09-05T08:06:32Z</time>
      </trkpt>
      <trkpt lat="44.08992" lon="2.05423">
        <ele>313.6</ele>
        <time>2021-09-05T08:06:38Z</time>
      </trkpt>
      <trkpt lat="44.08996" lon="2.05405">
        <ele>313.8</ele>
        <time>2021-09-05T08:06:41Z</time>
      </trkpt>
      <trkpt lat="44.09001" lon="2.0538">
        <ele>314.2</ele>
        <time>2021-09-05T08:06:45Z</time>
      </trkpt>
      <trkpt lat="44.09013" lon="2.05321">
        <ele>313.4</ele>
        <time>2021-09-05T08:06:53Z</time>
      </trkpt>
      <trkpt lat="44.09014" lon="2.05314">
        <ele>313.4</ele>
        <time>2021-09-05T08:06:54Z</time>
      </trkpt>
      <trkpt lat="44.09017" lon="2.05298">
        <ele>313</ele>
        <time>2021-09-05T08:06:56Z</time>
      </trkpt>
      <trkpt lat="44.09018" lon="2.05291">
        <ele>312.6</ele>
        <time>2021-09-05T08:06:57Z</time>
      </trkpt>
      <trkpt lat="44.09019" lon="2.05284">
        <ele>312.4</ele>
        <time>2021-09-05T08:06:58Z</time>
      </trkpt>
      <trkpt lat="44.09021" lon="2.05271">
        <ele>311.6</ele>
        <time>2021-09-05T08:07:00Z</time>
      </trkpt>
      <trkpt lat="44.09023" lon="2.05257">
        <ele>310.4</ele>
        <time>2021-09-05T08:07:02Z</time>
      </trkpt>
      <trkpt lat="44.09025" lon="2.0525">
        <ele>310.2</ele>
        <time>2021-09-05T08:07:03Z</time>
      </trkpt>
      <trkpt lat="44.09026" lon="2.05243">
        <ele>309.6</ele>
        <time>2021-09-05T08:07:04Z</time>
      </trkpt>
      <trkpt lat="44.09026" lon="2.05237">
        <ele>309.4</ele>
        <time>2021-09-05T08:07:05Z</time>
      </trkpt>
      <trkpt lat="44.09027" lon="2.05223">
        <ele>308</ele>
        <time>2021-09-05T08:07:07Z</time>
      </trkpt>
      <trkpt lat="44.09026" lon="2.05215">
        <ele>307.8</ele>
        <time>2021-09-05T08:07:08Z</time>
      </trkpt>
      <trkpt lat="44.09025" lon="2.05199">
        <ele>306.8</ele>
        <time>2021-09-05T08:07:10Z</time>
      </trkpt>
      <trkpt lat="44.09023" lon="2.05182">
        <ele>305.8</ele>
        <time>2021-09-05T08:07:12Z</time>
      </trkpt>
      <trkpt lat="44.09023" lon="2.05174">
        <ele>305.2</ele>
        <time>2021-09-05T08:07:13Z</time>
      </trkpt>
      <trkpt lat="44.09023" lon="2.05156">
        <ele>304.8</ele>
        <time>2021-09-05T08:07:15Z</time>
      </trkpt>
      <trkpt lat="44.09022" lon="2.05146">
        <ele>304.4</ele>
        <time>2021-09-05T08:07:16Z</time>
      </trkpt>
      <trkpt lat="44.09022" lon="2.05136">
        <ele>304.4</ele>
        <time>2021-09-05T08:07:17Z</time>
      </trkpt>
      <trkpt lat="44.09022" lon="2.05127">
        <ele>303.8</ele>
        <time>2021-09-05T08:07:18Z</time>
      </trkpt>
      <trkpt lat="44.09023" lon="2.05118">
        <ele>303.6</ele>
        <time>2021-09-05T08:07:19Z</time>
      </trkpt>
      <trkpt lat="44.09024" lon="2.051">
        <ele>302.8</ele>
        <time>2021-09-05T08:07:21Z</time>
      </trkpt>
      <trkpt lat="44.09026" lon="2.05091">
        <ele>302.4</ele>
        <time>2021-09-05T08:07:22Z</time>
      </trkpt>
      <trkpt lat="44.09027" lon="2.05083">
        <ele>302</ele>
        <time>2021-09-05T08:07:23Z</time>
      </trkpt>
      <trkpt lat="44.09031" lon="2.05056">
        <ele>301.6</ele>
        <time>2021-09-05T08:07:26Z</time>
      </trkpt>
      <trkpt lat="44.09032" lon="2.05046">
        <ele>301.2</ele>
        <time>2021-09-05T08:07:27Z</time>
      </trkpt>
      <trkpt lat="44.09038" lon="2.0502">
        <ele>300.4</ele>
        <time>2021-09-05T08:07:30Z</time>
      </trkpt>
      <trkpt lat="44.09039" lon="2.05012">
        <ele>300.2</ele>
        <time>2021-09-05T08:07:31Z</time>
      </trkpt>
      <trkpt lat="44.09041" lon="2.05004">
        <ele>300</ele>
        <time>2021-09-05T08:07:32Z</time>
      </trkpt>
      <trkpt lat="44.09048" lon="2.0497">
        <ele>298.8</ele>
        <time>2021-09-05T08:07:36Z</time>
      </trkpt>
      <trkpt lat="44.0905" lon="2.04962">
        <ele>298.4</ele>
        <time>2021-09-05T08:07:37Z</time>
      </trkpt>
      <trkpt lat="44.09052" lon="2.04954">
        <ele>297.8</ele>
        <time>2021-09-05T08:07:38Z</time>
      </trkpt>
      <trkpt lat="44.0906" lon="2.04911">
        <ele>296.4</ele>
        <time>2021-09-05T08:07:43Z</time>
      </trkpt>
      <trkpt lat="44.09062" lon="2.049">
        <ele>296.2</ele>
        <time>2021-09-05T08:07:44Z</time>
      </trkpt>
      <trkpt lat="44.09067" lon="2.04866">
        <ele>295.2</ele>
        <time>2021-09-05T08:07:47Z</time>
      </trkpt>
      <trkpt lat="44.09074" lon="2.04835">
        <ele>294.6</ele>
        <time>2021-09-05T08:07:50Z</time>
      </trkpt>
      <trkpt lat="44.09077" lon="2.04811">
        <ele>294.4</ele>
        <time>2021-09-05T08:07:52Z</time>
      </trkpt>
      <trkpt lat="44.09078" lon="2.048">
        <ele>294</ele>
        <time>2021-09-05T08:07:53Z</time>
      </trkpt>
      <trkpt lat="44.09079" lon="2.0479">
        <ele>293.2</ele>
        <time>2021-09-05T08:07:54Z</time>
      </trkpt>
      <trkpt lat="44.0908" lon="2.0478">
        <ele>292.2</ele>
        <time>2021-09-05T08:07:55Z</time>
      </trkpt>
      <trkpt lat="44.09085" lon="2.04761">
        <ele>291.2</ele>
        <time>2021-09-05T08:07:57Z</time>
      </trkpt>
      <trkpt lat="44.09086" lon="2.04752">
        <ele>290.8</ele>
        <time>2021-09-05T08:07:58Z</time>
      </trkpt>
      <trkpt lat="44.09089" lon="2.04744">
        <ele>290</ele>
        <time>2021-09-05T08:07:59Z</time>
      </trkpt>
      <trkpt lat="44.09091" lon="2.04734">
        <ele>289.4</ele>
        <time>2021-09-05T08:08:00Z</time>
      </trkpt>
      <trkpt lat="44.09094" lon="2.04726">
        <ele>288.2</ele>
        <time>2021-09-05T08:08:01Z</time>
      </trkpt>
      <trkpt lat="44.09098" lon="2.04709">
        <ele>287.2</ele>
        <time>2021-09-05T08:08:03Z</time>
      </trkpt>
      <trkpt lat="44.091" lon="2.04701">
        <ele>286.8</ele>
        <time>2021-09-05T08:08:04Z</time>
      </trkpt>
      <trkpt lat="44.09101" lon="2.04692">
        <ele>286.6</ele>
        <time>2021-09-05T08:08:05Z</time>
      </trkpt>
      <trkpt lat="44.09103" lon="2.04682">
        <ele>286</ele>
        <time>2021-09-05T08:08:06Z</time>
      </trkpt>
      <trkpt lat="44.09105" lon="2.04673">
        <ele>285.8</ele>
        <time>2021-09-05T08:08:07Z</time>
      </trkpt>
      <trkpt lat="44.09106" lon="2.04663">
        <ele>284.8</ele>
        <time>2021-09-05T08:08:08Z</time>
      </trkpt>
      <trkpt lat="44.09107" lon="2.04652">
        <ele>284.4</ele>
        <time>2021-09-05T08:08:09Z</time>
      </trkpt>
      <trkpt lat="44.09108" lon="2.04643">
        <ele>283.2</ele>
        <time>2021-09-05T08:08:10Z</time>
      </trkpt>
      <trkpt lat="44.09109" lon="2.04635">
        <ele>282.4</ele>
        <time>2021-09-05T08:08:11Z</time>
      </trkpt>
      <trkpt lat="44.09112" lon="2.04627">
        <ele>281.8</ele>
        <time>2021-09-05T08:08:12Z</time>
      </trkpt>
      <trkpt lat="44.09115" lon="2.04619">
        <ele>281</ele>
        <time>2021-09-05T08:08:13Z</time>
      </trkpt>
      <trkpt lat="44.09119" lon="2.04611">
        <ele>280.6</ele>
        <time>2021-09-05T08:08:14Z</time>
      </trkpt>
      <trkpt lat="44.09122" lon="2.04602">
        <ele>279.6</ele>
        <time>2021-09-05T08:08:15Z</time>
      </trkpt>
      <trkpt lat="44.0913" lon="2.04588">
        <ele>278</ele>
        <time>2021-09-05T08:08:17Z</time>
      </trkpt>
      <trkpt lat="44.0914" lon="2.04575">
        <ele>276.6</ele>
        <time>2021-09-05T08:08:19Z</time>
      </trkpt>
      <trkpt lat="44.09149" lon="2.04561">
        <ele>275.6</ele>
        <time>2021-09-05T08:08:21Z</time>
      </trkpt>
      <trkpt lat="44.09154" lon="2.04555">
        <ele>275</ele>
        <time>2021-09-05T08:08:22Z</time>
      </trkpt>
      <trkpt lat="44.09158" lon="2.04549">
        <ele>274.6</ele>
        <time>2021-09-05T08:08:23Z</time>
      </trkpt>
      <trkpt lat="44.09162" lon="2.04543">
        <ele>274</ele>
        <time>2021-09-05T08:08:24Z</time>
      </trkpt>
      <trkpt lat="44.09166" lon="2.04539">
        <ele>273.8</ele>
        <time>2021-09-05T08:08:25Z</time>
      </trkpt>
      <trkpt lat="44.09169" lon="2.04534">
        <ele>273.6</ele>
        <time>2021-09-05T08:08:26Z</time>
      </trkpt>
      <trkpt lat="44.09172" lon="2.0453">
        <ele>273.2</ele>
        <time>2021-09-05T08:08:27Z</time>
      </trkpt>
      <trkpt lat="44.09175" lon="2.04525">
        <ele>272.8</ele>
        <time>2021-09-05T08:08:28Z</time>
      </trkpt>
      <trkpt lat="44.09177" lon="2.04519">
        <ele>272</ele>
        <time>2021-09-05T08:08:29Z</time>
      </trkpt>
      <trkpt lat="44.09178" lon="2.04515">
        <ele>271.6</ele>
        <time>2021-09-05T08:08:30Z</time>
      </trkpt>
      <trkpt lat="44.09179" lon="2.04512">
        <ele>271</ele>
        <time>2021-09-05T08:08:31Z</time>
      </trkpt>
      <trkpt lat="44.09178" lon="2.04508">
        <ele>270.8</ele>
        <time>2021-09-05T08:08:32Z</time>
      </trkpt>
      <trkpt lat="44.09177" lon="2.04504">
        <ele>270.2</ele>
        <time>2021-09-05T08:08:33Z</time>
      </trkpt>
      <trkpt lat="44.09177" lon="2.045">
        <ele>269.6</ele>
        <time>2021-09-05T08:08:34Z</time>
      </trkpt>
      <trkpt lat="44.09176" lon="2.04496">
        <ele>269.4</ele>
        <time>2021-09-05T08:08:35Z</time>
      </trkpt>
      <trkpt lat="44.09175" lon="2.04492">
        <ele>269</ele>
        <time>2021-09-05T08:08:36Z</time>
      </trkpt>
      <trkpt lat="44.09175" lon="2.04484">
        <ele>267.8</ele>
        <time>2021-09-05T08:08:38Z</time>
      </trkpt>
      <trkpt lat="44.09175" lon="2.04473">
        <ele>266.8</ele>
        <time>2021-09-05T08:08:40Z</time>
      </trkpt>
      <trkpt lat="44.09174" lon="2.04468">
        <ele>266.4</ele>
        <time>2021-09-05T08:08:41Z</time>
      </trkpt>
      <trkpt lat="44.09171" lon="2.04463">
        <ele>266</ele>
        <time>2021-09-05T08:08:42Z</time>
      </trkpt>
      <trkpt lat="44.09168" lon="2.04459">
        <ele>265.4</ele>
        <time>2021-09-05T08:08:43Z</time>
      </trkpt>
      <trkpt lat="44.09166" lon="2.04455">
        <ele>264.8</ele>
        <time>2021-09-05T08:08:44Z</time>
      </trkpt>
      <trkpt lat="44.09162" lon="2.0445">
        <ele>264.4</ele>
        <time>2021-09-05T08:08:45Z</time>
      </trkpt>
      <trkpt lat="44.09159" lon="2.04445">
        <ele>264.2</ele>
        <time>2021-09-05T08:08:46Z</time>
      </trkpt>
      <trkpt lat="44.09155" lon="2.04433">
        <ele>263.2</ele>
        <time>2021-09-05T08:08:48Z</time>
      </trkpt>
      <trkpt lat="44.09153" lon="2.04424">
        <ele>262.6</ele>
        <time>2021-09-05T08:08:49Z</time>
      </trkpt>
      <trkpt lat="44.0915" lon="2.04421">
        <ele>262</ele>
        <time>2021-09-05T08:08:50Z</time>
      </trkpt>
      <trkpt lat="44.09147" lon="2.04418">
        <ele>261.8</ele>
        <time>2021-09-05T08:08:51Z</time>
      </trkpt>
      <trkpt lat="44.09144" lon="2.04415">
        <ele>261.2</ele>
        <time>2021-09-05T08:08:52Z</time>
      </trkpt>
      <trkpt lat="44.09141" lon="2.04413">
        <ele>261</ele>
        <time>2021-09-05T08:08:53Z</time>
      </trkpt>
      <trkpt lat="44.09141" lon="2.0441">
        <ele>260.2</ele>
        <time>2021-09-05T08:08:54Z</time>
      </trkpt>
      <trkpt lat="44.09141" lon="2.0441">
        <ele>260</ele>
        <time>2021-09-05T08:08:55Z</time>
      </trkpt>
      <trkpt lat="44.09141" lon="2.0441">
        <ele>259.6</ele>
        <time>2021-09-05T08:08:56Z</time>
      </trkpt>
      <trkpt lat="44.09141" lon="2.0441">
        <ele>259.2</ele>
        <time>2021-09-05T08:08:57Z</time>
      </trkpt>
      <trkpt lat="44.09141" lon="2.0441">
        <ele>259</ele>
        <time>2021-09-05T08:08:58Z</time>
      </trkpt>
      <trkpt lat="44.09138" lon="2.04406">
        <ele>258.4</ele>
        <time>2021-09-05T08:08:59Z</time>
      </trkpt>
      <trkpt lat="44.09136" lon="2.04405">
        <ele>258.4</ele>
        <time>2021-09-05T08:09:00Z</time>
      </trkpt>
      <trkpt lat="44.09136" lon="2.04405">
        <ele>258</ele>
        <time>2021-09-05T08:09:01Z</time>
      </trkpt>
      <trkpt lat="44.09136" lon="2.04405">
        <ele>258</ele>
        <time>2021-09-05T08:09:02Z</time>
      </trkpt>
      <trkpt lat="44.09136" lon="2.04405">
        <ele>257.6</ele>
        <time>2021-09-05T08:09:03Z</time>
      </trkpt>
      <trkpt lat="44.09136" lon="2.04405">
        <ele>257.4</ele>
        <time>2021-09-05T08:09:04Z</time>
      </trkpt>
      <trkpt lat="44.09136" lon="2.04405">
        <ele>257.2</ele>
        <time>2021-09-05T08:09:05Z</time>
      </trkpt>
      <trkpt lat="44.09136" lon="2.04405">
        <ele>257</ele>
        <time>2021-09-05T08:09:06Z</time>
      </trkpt>
      <trkpt lat="44.09133" lon="2.04403">
        <ele>257</ele>
        <time>2021-09-05T08:09:07Z</time>
      </trkpt>
      <trkpt lat="44.09133" lon="2.04403">
        <ele>256.8</ele>
        <time>2021-09-05T08:09:09Z</time>
      </trkpt>
      <trkpt lat="44.09129" lon="2.04401">
        <ele>256.8</ele>
        <time>2021-09-05T08:09:10Z</time>
      </trkpt>
      <trkpt lat="44.09129" lon="2.04401">
        <ele>256.6</ele>
        <time>2021-09-05T08:09:12Z</time>
      </trkpt>
      <trkpt lat="44.09129" lon="2.04401">
        <ele>256.6</ele>
        <time>2021-09-05T08:09:13Z</time>
      </trkpt>
      <trkpt lat="44.09128" lon="2.04397">
        <ele>256.4</ele>
        <time>2021-09-05T08:09:14Z</time>
      </trkpt>
      <trkpt lat="44.09126" lon="2.04392">
        <ele>256.4</ele>
        <time>2021-09-05T08:09:15Z</time>
      </trkpt>
      <trkpt lat="44.09126" lon="2.04392">
        <ele>256.4</ele>
        <time>2021-09-05T08:09:16Z</time>
      </trkpt>
      <trkpt lat="44.09126" lon="2.04392">
        <ele>256.2</ele>
        <time>2021-09-05T08:09:17Z</time>
      </trkpt>
      <trkpt lat="44.09126" lon="2.04392">
        <ele>256.2</ele>
        <time>2021-09-05T08:09:18Z</time>
      </trkpt>
      <trkpt lat="44.09118" lon="2.04388">
        <ele>256</ele>
        <time>2021-09-05T08:09:21Z</time>
      </trkpt>
      <trkpt lat="44.09116" lon="2.04385">
        <ele>255.8</ele>
        <time>2021-09-05T08:09:23Z</time>
      </trkpt>
      <trkpt lat="44.09115" lon="2.04385">
        <ele>255.8</ele>
        <time>2021-09-05T08:09:24Z</time>
      </trkpt>
      <trkpt lat="44.09113" lon="2.0438">
        <ele>255.8</ele>
        <time>2021-09-05T08:09:25Z</time>
      </trkpt>
      <trkpt lat="44.09109" lon="2.04378">
        <ele>255.6</ele>
        <time>2021-09-05T08:09:26Z</time>
      </trkpt>
      <trkpt lat="44.09105" lon="2.04375">
        <ele>255.6</ele>
        <time>2021-09-05T08:09:27Z</time>
      </trkpt>
      <trkpt lat="44.09101" lon="2.04374">
        <ele>255.6</ele>
        <time>2021-09-05T08:09:29Z</time>
      </trkpt>
      <trkpt lat="44.09101" lon="2.04373">
        <ele>255.6</ele>
        <time>2021-09-05T08:09:30Z</time>
      </trkpt>
      <trkpt lat="44.09093" lon="2.04368">
        <ele>255.8</ele>
        <time>2021-09-05T08:09:33Z</time>
      </trkpt>
      <trkpt lat="44.09087" lon="2.04363">
        <ele>256</ele>
        <time>2021-09-05T08:09:35Z</time>
      </trkpt>
      <trkpt lat="44.09083" lon="2.0436">
        <ele>256</ele>
        <time>2021-09-05T08:09:37Z</time>
      </trkpt>
      <trkpt lat="44.09081" lon="2.04358">
        <ele>256.2</ele>
        <time>2021-09-05T08:09:38Z</time>
      </trkpt>
      <trkpt lat="44.0908" lon="2.04349">
        <ele>256.4</ele>
        <time>2021-09-05T08:09:40Z</time>
      </trkpt>
      <trkpt lat="44.0908" lon="2.04345">
        <ele>256.6</ele>
        <time>2021-09-05T08:09:41Z</time>
      </trkpt>
      <trkpt lat="44.09079" lon="2.04342">
        <ele>256.8</ele>
        <time>2021-09-05T08:09:42Z</time>
      </trkpt>
      <trkpt lat="44.09078" lon="2.04341">
        <ele>257</ele>
        <time>2021-09-05T08:09:43Z</time>
      </trkpt>
      <trkpt lat="44.09076" lon="2.04337">
        <ele>257.2</ele>
        <time>2021-09-05T08:09:44Z</time>
      </trkpt>
      <trkpt lat="44.09074" lon="2.04335">
        <ele>257.4</ele>
        <time>2021-09-05T08:09:45Z</time>
      </trkpt>
      <trkpt lat="44.09072" lon="2.04332">
        <ele>257.4</ele>
        <time>2021-09-05T08:09:46Z</time>
      </trkpt>
      <trkpt lat="44.09069" lon="2.04329">
        <ele>257.4</ele>
        <time>2021-09-05T08:09:47Z</time>
      </trkpt>
      <trkpt lat="44.09067" lon="2.04327">
        <ele>257.4</ele>
        <time>2021-09-05T08:09:48Z</time>
      </trkpt>
      <trkpt lat="44.09065" lon="2.04325">
        <ele>257.6</ele>
        <time>2021-09-05T08:09:49Z</time>
      </trkpt>
      <trkpt lat="44.09063" lon="2.04322">
        <ele>257.8</ele>
        <time>2021-09-05T08:09:50Z</time>
      </trkpt>
      <trkpt lat="44.0906" lon="2.04319">
        <ele>258</ele>
        <time>2021-09-05T08:09:51Z</time>
      </trkpt>
      <trkpt lat="44.09059" lon="2.04317">
        <ele>258.2</ele>
        <time>2021-09-05T08:09:52Z</time>
      </trkpt>
      <trkpt lat="44.09058" lon="2.04316">
        <ele>258.2</ele>
        <time>2021-09-05T08:09:53Z</time>
      </trkpt>
      <trkpt lat="44.09058" lon="2.04316">
        <ele>258.4</ele>
        <time>2021-09-05T08:09:54Z</time>
      </trkpt>
      <trkpt lat="44.09058" lon="2.04316">
        <ele>258.2</ele>
        <time>2021-09-05T08:10:50Z</time>
      </trkpt>
      <trkpt lat="44.09059" lon="2.04316">
        <ele>258.2</ele>
        <time>2021-09-05T08:10:53Z</time>
      </trkpt>
      <trkpt lat="44.09057" lon="2.04314">
        <ele>258.4</ele>
        <time>2021-09-05T08:17:54Z</time>
      </trkpt>
      <trkpt lat="44.0905" lon="2.04311">
        <ele>258.2</ele>
        <time>2021-09-05T08:17:57Z</time>
      </trkpt>
      <trkpt lat="44.09048" lon="2.04309">
        <ele>258.2</ele>
        <time>2021-09-05T08:17:58Z</time>
      </trkpt>
      <trkpt lat="44.09046" lon="2.04307">
        <ele>257.8</ele>
        <time>2021-09-05T08:17:59Z</time>
      </trkpt>
      <trkpt lat="44.09045" lon="2.04303">
        <ele>257.6</ele>
        <time>2021-09-05T08:18:00Z</time>
      </trkpt>
      <trkpt lat="44.09043" lon="2.04299">
        <ele>257.4</ele>
        <time>2021-09-05T08:18:01Z</time>
      </trkpt>
      <trkpt lat="44.09041" lon="2.04295">
        <ele>257</ele>
        <time>2021-09-05T08:18:02Z</time>
      </trkpt>
      <trkpt lat="44.09038" lon="2.04292">
        <ele>257</ele>
        <time>2021-09-05T08:18:03Z</time>
      </trkpt>
      <trkpt lat="44.09035" lon="2.0429">
        <ele>256.6</ele>
        <time>2021-09-05T08:18:04Z</time>
      </trkpt>
      <trkpt lat="44.09031" lon="2.04288">
        <ele>256.6</ele>
        <time>2021-09-05T08:18:05Z</time>
      </trkpt>
      <trkpt lat="44.09025" lon="2.04282">
        <ele>256.4</ele>
        <time>2021-09-05T08:18:07Z</time>
      </trkpt>
      <trkpt lat="44.09023" lon="2.0428">
        <ele>256.4</ele>
        <time>2021-09-05T08:18:08Z</time>
      </trkpt>
      <trkpt lat="44.09019" lon="2.04277">
        <ele>256.2</ele>
        <time>2021-09-05T08:18:09Z</time>
      </trkpt>
      <trkpt lat="44.09013" lon="2.04271">
        <ele>256</ele>
        <time>2021-09-05T08:18:11Z</time>
      </trkpt>
      <trkpt lat="44.09006" lon="2.04262">
        <ele>256</ele>
        <time>2021-09-05T08:18:13Z</time>
      </trkpt>
      <trkpt lat="44.09003" lon="2.04256">
        <ele>256</ele>
        <time>2021-09-05T08:18:14Z</time>
      </trkpt>
      <trkpt lat="44.08992" lon="2.04231">
        <ele>256.2</ele>
        <time>2021-09-05T08:18:17Z</time>
      </trkpt>
      <trkpt lat="44.08985" lon="2.04222">
        <ele>256.2</ele>
        <time>2021-09-05T08:18:18Z</time>
      </trkpt>
      <trkpt lat="44.0898" lon="2.04213">
        <ele>256.2</ele>
        <time>2021-09-05T08:18:19Z</time>
      </trkpt>
      <trkpt lat="44.08977" lon="2.04206">
        <ele>256.4</ele>
        <time>2021-09-05T08:18:20Z</time>
      </trkpt>
      <trkpt lat="44.08973" lon="2.042">
        <ele>256.4</ele>
        <time>2021-09-05T08:18:21Z</time>
      </trkpt>
      <trkpt lat="44.08968" lon="2.04195">
        <ele>256.6</ele>
        <time>2021-09-05T08:18:22Z</time>
      </trkpt>
      <trkpt lat="44.08965" lon="2.04191">
        <ele>256.6</ele>
        <time>2021-09-05T08:18:23Z</time>
      </trkpt>
      <trkpt lat="44.08962" lon="2.04187">
        <ele>257</ele>
        <time>2021-09-05T08:18:24Z</time>
      </trkpt>
      <trkpt lat="44.08958" lon="2.04173">
        <ele>257.4</ele>
        <time>2021-09-05T08:18:26Z</time>
      </trkpt>
      <trkpt lat="44.08957" lon="2.04163">
        <ele>257.4</ele>
        <time>2021-09-05T08:18:27Z</time>
      </trkpt>
      <trkpt lat="44.08954" lon="2.04155">
        <ele>257.4</ele>
        <time>2021-09-05T08:18:28Z</time>
      </trkpt>
      <trkpt lat="44.0895" lon="2.04147">
        <ele>257.6</ele>
        <time>2021-09-05T08:18:29Z</time>
      </trkpt>
      <trkpt lat="44.08945" lon="2.04141">
        <ele>257.8</ele>
        <time>2021-09-05T08:18:30Z</time>
      </trkpt>
      <trkpt lat="44.0894" lon="2.04137">
        <ele>258</ele>
        <time>2021-09-05T08:18:31Z</time>
      </trkpt>
      <trkpt lat="44.08931" lon="2.0413">
        <ele>257.4</ele>
        <time>2021-09-05T08:18:33Z</time>
      </trkpt>
      <trkpt lat="44.08928" lon="2.04127">
        <ele>257.4</ele>
        <time>2021-09-05T08:18:34Z</time>
      </trkpt>
      <trkpt lat="44.08921" lon="2.0412">
        <ele>257.2</ele>
        <time>2021-09-05T08:18:36Z</time>
      </trkpt>
      <trkpt lat="44.08906" lon="2.04108">
        <ele>256.8</ele>
        <time>2021-09-05T08:18:39Z</time>
      </trkpt>
      <trkpt lat="44.089" lon="2.04105">
        <ele>256.8</ele>
        <time>2021-09-05T08:18:40Z</time>
      </trkpt>
      <trkpt lat="44.08894" lon="2.04102">
        <ele>256.2</ele>
        <time>2021-09-05T08:18:41Z</time>
      </trkpt>
      <trkpt lat="44.08888" lon="2.04098">
        <ele>256</ele>
        <time>2021-09-05T08:18:42Z</time>
      </trkpt>
      <trkpt lat="44.08883" lon="2.04094">
        <ele>255.8</ele>
        <time>2021-09-05T08:18:43Z</time>
      </trkpt>
      <trkpt lat="44.0888" lon="2.04091">
        <ele>255.4</ele>
        <time>2021-09-05T08:18:44Z</time>
      </trkpt>
      <trkpt lat="44.08878" lon="2.04088">
        <ele>254.2</ele>
        <time>2021-09-05T08:18:45Z</time>
      </trkpt>
      <trkpt lat="44.08877" lon="2.04085">
        <ele>253.8</ele>
        <time>2021-09-05T08:18:46Z</time>
      </trkpt>
      <trkpt lat="44.08875" lon="2.04082">
        <ele>252.6</ele>
        <time>2021-09-05T08:18:47Z</time>
      </trkpt>
      <trkpt lat="44.08872" lon="2.04081">
        <ele>251.8</ele>
        <time>2021-09-05T08:18:48Z</time>
      </trkpt>
      <trkpt lat="44.08872" lon="2.04079">
        <ele>251.4</ele>
        <time>2021-09-05T08:18:49Z</time>
      </trkpt>
      <trkpt lat="44.08871" lon="2.04078">
        <ele>250.6</ele>
        <time>2021-09-05T08:18:50Z</time>
      </trkpt>
      <trkpt lat="44.0887" lon="2.04074">
        <ele>249.8</ele>
        <time>2021-09-05T08:18:52Z</time>
      </trkpt>
      <trkpt lat="44.08867" lon="2.04069">
        <ele>249.2</ele>
        <time>2021-09-05T08:18:54Z</time>
      </trkpt>
      <trkpt lat="44.08866" lon="2.04065">
        <ele>248.8</ele>
        <time>2021-09-05T08:18:55Z</time>
      </trkpt>
      <trkpt lat="44.08862" lon="2.04054">
        <ele>248</ele>
        <time>2021-09-05T08:18:57Z</time>
      </trkpt>
      <trkpt lat="44.0886" lon="2.04048">
        <ele>247.8</ele>
        <time>2021-09-05T08:18:58Z</time>
      </trkpt>
      <trkpt lat="44.08859" lon="2.04043">
        <ele>247.6</ele>
        <time>2021-09-05T08:18:59Z</time>
      </trkpt>
      <trkpt lat="44.08857" lon="2.04037">
        <ele>247.4</ele>
        <time>2021-09-05T08:19:00Z</time>
      </trkpt>
      <trkpt lat="44.08852" lon="2.0402">
        <ele>246.4</ele>
        <time>2021-09-05T08:19:02Z</time>
      </trkpt>
      <trkpt lat="44.08848" lon="2.0401">
        <ele>246.2</ele>
        <time>2021-09-05T08:19:03Z</time>
      </trkpt>
      <trkpt lat="44.08844" lon="2.03992">
        <ele>245.6</ele>
        <time>2021-09-05T08:19:05Z</time>
      </trkpt>
      <trkpt lat="44.08844" lon="2.03985">
        <ele>245.4</ele>
        <time>2021-09-05T08:19:06Z</time>
      </trkpt>
      <trkpt lat="44.08843" lon="2.03976">
        <ele>245.4</ele>
        <time>2021-09-05T08:19:07Z</time>
      </trkpt>
      <trkpt lat="44.08843" lon="2.03967">
        <ele>244.8</ele>
        <time>2021-09-05T08:19:08Z</time>
      </trkpt>
      <trkpt lat="44.08842" lon="2.03957">
        <ele>244.6</ele>
        <time>2021-09-05T08:19:09Z</time>
      </trkpt>
      <trkpt lat="44.08841" lon="2.03948">
        <ele>244.6</ele>
        <time>2021-09-05T08:19:10Z</time>
      </trkpt>
      <trkpt lat="44.08838" lon="2.03935">
        <ele>244.2</ele>
        <time>2021-09-05T08:19:12Z</time>
      </trkpt>
      <trkpt lat="44.08835" lon="2.03928">
        <ele>243.8</ele>
        <time>2021-09-05T08:19:13Z</time>
      </trkpt>
      <trkpt lat="44.08833" lon="2.03921">
        <ele>243.8</ele>
        <time>2021-09-05T08:19:14Z</time>
      </trkpt>
      <trkpt lat="44.0883" lon="2.03908">
        <ele>243.8</ele>
        <time>2021-09-05T08:19:15Z</time>
      </trkpt>
      <trkpt lat="44.08828" lon="2.03896">
        <ele>243.8</ele>
        <time>2021-09-05T08:19:16Z</time>
      </trkpt>
      <trkpt lat="44.08823" lon="2.03887">
        <ele>243.8</ele>
        <time>2021-09-05T08:19:17Z</time>
      </trkpt>
      <trkpt lat="44.08821" lon="2.0388">
        <ele>243.6</ele>
        <time>2021-09-05T08:19:18Z</time>
      </trkpt>
      <trkpt lat="44.0882" lon="2.03875">
        <ele>243.2</ele>
        <time>2021-09-05T08:19:20Z</time>
      </trkpt>
      <trkpt lat="44.0882" lon="2.03875">
        <ele>243</ele>
        <time>2021-09-05T08:19:21Z</time>
      </trkpt>
      <trkpt lat="44.08818" lon="2.03873">
        <ele>242.8</ele>
        <time>2021-09-05T08:19:22Z</time>
      </trkpt>
      <trkpt lat="44.08815" lon="2.03867">
        <ele>242.8</ele>
        <time>2021-09-05T08:19:23Z</time>
      </trkpt>
      <trkpt lat="44.08815" lon="2.03859">
        <ele>242.4</ele>
        <time>2021-09-05T08:19:25Z</time>
      </trkpt>
      <trkpt lat="44.08814" lon="2.03855">
        <ele>242.4</ele>
        <time>2021-09-05T08:19:26Z</time>
      </trkpt>
      <trkpt lat="44.08812" lon="2.03852">
        <ele>242.4</ele>
        <time>2021-09-05T08:19:27Z</time>
      </trkpt>
      <trkpt lat="44.08811" lon="2.03848">
        <ele>242.4</ele>
        <time>2021-09-05T08:19:28Z</time>
      </trkpt>
      <trkpt lat="44.08806" lon="2.03839">
        <ele>242.2</ele>
        <time>2021-09-05T08:19:30Z</time>
      </trkpt>
      <trkpt lat="44.08803" lon="2.03836">
        <ele>242.2</ele>
        <time>2021-09-05T08:19:31Z</time>
      </trkpt>
      <trkpt lat="44.088" lon="2.03835">
        <ele>242</ele>
        <time>2021-09-05T08:19:32Z</time>
      </trkpt>
      <trkpt lat="44.08798" lon="2.03833">
        <ele>242</ele>
        <time>2021-09-05T08:19:33Z</time>
      </trkpt>
      <trkpt lat="44.08797" lon="2.03833">
        <ele>241.6</ele>
        <time>2021-09-05T08:19:34Z</time>
      </trkpt>
      <trkpt lat="44.08797" lon="2.0383">
        <ele>241.6</ele>
        <time>2021-09-05T08:19:35Z</time>
      </trkpt>
      <trkpt lat="44.08796" lon="2.03822">
        <ele>241.4</ele>
        <time>2021-09-05T08:19:37Z</time>
      </trkpt>
      <trkpt lat="44.08794" lon="2.03818">
        <ele>241.2</ele>
        <time>2021-09-05T08:19:38Z</time>
      </trkpt>
      <trkpt lat="44.08792" lon="2.03815">
        <ele>241.2</ele>
        <time>2021-09-05T08:19:39Z</time>
      </trkpt>
      <trkpt lat="44.08787" lon="2.03811">
        <ele>241.2</ele>
        <time>2021-09-05T08:19:40Z</time>
      </trkpt>
      <trkpt lat="44.08783" lon="2.03808">
        <ele>241</ele>
        <time>2021-09-05T08:19:41Z</time>
      </trkpt>
      <trkpt lat="44.08776" lon="2.03806">
        <ele>241</ele>
        <time>2021-09-05T08:19:42Z</time>
      </trkpt>
      <trkpt lat="44.08767" lon="2.03803">
        <ele>240.8</ele>
        <time>2021-09-05T08:19:43Z</time>
      </trkpt>
      <trkpt lat="44.08761" lon="2.038">
        <ele>240.8</ele>
        <time>2021-09-05T08:19:44Z</time>
      </trkpt>
      <trkpt lat="44.08756" lon="2.038">
        <ele>240.6</ele>
        <time>2021-09-05T08:19:45Z</time>
      </trkpt>
      <trkpt lat="44.08753" lon="2.03798">
        <ele>240.6</ele>
        <time>2021-09-05T08:19:46Z</time>
      </trkpt>
      <trkpt lat="44.08751" lon="2.03797">
        <ele>240.2</ele>
        <time>2021-09-05T08:19:47Z</time>
      </trkpt>
      <trkpt lat="44.0875" lon="2.03795">
        <ele>240.2</ele>
        <time>2021-09-05T08:19:48Z</time>
      </trkpt>
      <trkpt lat="44.08749" lon="2.03794">
        <ele>240.2</ele>
        <time>2021-09-05T08:19:49Z</time>
      </trkpt>
      <trkpt lat="44.08748" lon="2.03792">
        <ele>240</ele>
        <time>2021-09-05T08:19:50Z</time>
      </trkpt>
      <trkpt lat="44.08748" lon="2.0379">
        <ele>240</ele>
        <time>2021-09-05T08:19:51Z</time>
      </trkpt>
      <trkpt lat="44.08747" lon="2.03789">
        <ele>240</ele>
        <time>2021-09-05T08:19:52Z</time>
      </trkpt>
      <trkpt lat="44.08748" lon="2.03788">
        <ele>240</ele>
        <time>2021-09-05T08:19:53Z</time>
      </trkpt>
      <trkpt lat="44.08748" lon="2.03787">
        <ele>240</ele>
        <time>2021-09-05T08:19:54Z</time>
      </trkpt>
      <trkpt lat="44.08749" lon="2.03785">
        <ele>239.8</ele>
        <time>2021-09-05T08:19:56Z</time>
      </trkpt>
      <trkpt lat="44.0875" lon="2.03783">
        <ele>239.8</ele>
        <time>2021-09-05T08:19:57Z</time>
      </trkpt>
      <trkpt lat="44.08751" lon="2.03782">
        <ele>239.6</ele>
        <time>2021-09-05T08:19:58Z</time>
      </trkpt>
      <trkpt lat="44.08751" lon="2.0378">
        <ele>239.6</ele>
        <time>2021-09-05T08:19:59Z</time>
      </trkpt>
      <trkpt lat="44.08749" lon="2.03779">
        <ele>239.6</ele>
        <time>2021-09-05T08:20:00Z</time>
      </trkpt>
      <trkpt lat="44.08748" lon="2.03777">
        <ele>239.4</ele>
        <time>2021-09-05T08:20:01Z</time>
      </trkpt>
      <trkpt lat="44.08748" lon="2.03775">
        <ele>239.4</ele>
        <time>2021-09-05T08:20:02Z</time>
      </trkpt>
      <trkpt lat="44.08747" lon="2.03773">
        <ele>239.4</ele>
        <time>2021-09-05T08:20:03Z</time>
      </trkpt>
      <trkpt lat="44.08748" lon="2.03768">
        <ele>239.4</ele>
        <time>2021-09-05T08:20:05Z</time>
      </trkpt>
      <trkpt lat="44.08748" lon="2.03762">
        <ele>239.4</ele>
        <time>2021-09-05T08:20:06Z</time>
      </trkpt>
      <trkpt lat="44.08747" lon="2.03759">
        <ele>239.4</ele>
        <time>2021-09-05T08:20:07Z</time>
      </trkpt>
      <trkpt lat="44.08745" lon="2.03756">
        <ele>239.2</ele>
        <time>2021-09-05T08:20:08Z</time>
      </trkpt>
      <trkpt lat="44.08744" lon="2.03754">
        <ele>239.2</ele>
        <time>2021-09-05T08:20:09Z</time>
      </trkpt>
      <trkpt lat="44.08744" lon="2.03751">
        <ele>239.2</ele>
        <time>2021-09-05T08:20:10Z</time>
      </trkpt>
      <trkpt lat="44.08744" lon="2.03748">
        <ele>239</ele>
        <time>2021-09-05T08:20:11Z</time>
      </trkpt>
      <trkpt lat="44.08744" lon="2.03745">
        <ele>239</ele>
        <time>2021-09-05T08:20:12Z</time>
      </trkpt>
      <trkpt lat="44.08744" lon="2.03743">
        <ele>238.6</ele>
        <time>2021-09-05T08:20:13Z</time>
      </trkpt>
      <trkpt lat="44.08744" lon="2.03742">
        <ele>238.6</ele>
        <time>2021-09-05T08:20:14Z</time>
      </trkpt>
      <trkpt lat="44.08745" lon="2.0374">
        <ele>238.6</ele>
        <time>2021-09-05T08:20:15Z</time>
      </trkpt>
      <trkpt lat="44.08745" lon="2.03739">
        <ele>238.6</ele>
        <time>2021-09-05T08:20:16Z</time>
      </trkpt>
      <trkpt lat="44.08746" lon="2.03737">
        <ele>238.6</ele>
        <time>2021-09-05T08:20:17Z</time>
      </trkpt>
      <trkpt lat="44.08747" lon="2.03733">
        <ele>238.6</ele>
        <time>2021-09-05T08:20:19Z</time>
      </trkpt>
      <trkpt lat="44.08747" lon="2.03731">
        <ele>238.6</ele>
        <time>2021-09-05T08:20:20Z</time>
      </trkpt>
      <trkpt lat="44.08745" lon="2.03728">
        <ele>238.8</ele>
        <time>2021-09-05T08:20:21Z</time>
      </trkpt>
      <trkpt lat="44.08745" lon="2.03725">
        <ele>238.8</ele>
        <time>2021-09-05T08:20:22Z</time>
      </trkpt>
      <trkpt lat="44.08744" lon="2.03722">
        <ele>239</ele>
        <time>2021-09-05T08:20:23Z</time>
      </trkpt>
      <trkpt lat="44.08738" lon="2.03709">
        <ele>239</ele>
        <time>2021-09-05T08:20:26Z</time>
      </trkpt>
      <trkpt lat="44.08735" lon="2.03706">
        <ele>239</ele>
        <time>2021-09-05T08:20:27Z</time>
      </trkpt>
      <trkpt lat="44.0873" lon="2.03703">
        <ele>239</ele>
        <time>2021-09-05T08:20:28Z</time>
      </trkpt>
      <trkpt lat="44.08728" lon="2.03702">
        <ele>238.8</ele>
        <time>2021-09-05T08:20:29Z</time>
      </trkpt>
      <trkpt lat="44.08727" lon="2.03702">
        <ele>238.8</ele>
        <time>2021-09-05T08:20:30Z</time>
      </trkpt>
      <trkpt lat="44.08727" lon="2.03702">
        <ele>238.6</ele>
        <time>2021-09-05T08:20:31Z</time>
      </trkpt>
      <trkpt lat="44.08727" lon="2.03699">
        <ele>238.4</ele>
        <time>2021-09-05T08:20:33Z</time>
      </trkpt>
      <trkpt lat="44.08727" lon="2.03699">
        <ele>238.4</ele>
        <time>2021-09-05T08:20:35Z</time>
      </trkpt>
      <trkpt lat="44.08725" lon="2.03697">
        <ele>238.4</ele>
        <time>2021-09-05T08:20:36Z</time>
      </trkpt>
      <trkpt lat="44.08724" lon="2.03696">
        <ele>238.4</ele>
        <time>2021-09-05T08:20:37Z</time>
      </trkpt>
      <trkpt lat="44.08724" lon="2.03696">
        <ele>238.2</ele>
        <time>2021-09-05T08:20:38Z</time>
      </trkpt>
      <trkpt lat="44.08724" lon="2.03696">
        <ele>238.2</ele>
        <time>2021-09-05T08:20:39Z</time>
      </trkpt>
      <trkpt lat="44.08724" lon="2.03694">
        <ele>238.2</ele>
        <time>2021-09-05T08:20:41Z</time>
      </trkpt>
      <trkpt lat="44.08722" lon="2.03692">
        <ele>238.2</ele>
        <time>2021-09-05T08:20:42Z</time>
      </trkpt>
      <trkpt lat="44.08717" lon="2.03685">
        <ele>238</ele>
        <time>2021-09-05T08:20:44Z</time>
      </trkpt>
      <trkpt lat="44.08711" lon="2.03682">
        <ele>237.8</ele>
        <time>2021-09-05T08:20:45Z</time>
      </trkpt>
      <trkpt lat="44.08707" lon="2.03674">
        <ele>237.8</ele>
        <time>2021-09-05T08:20:47Z</time>
      </trkpt>
      <trkpt lat="44.08706" lon="2.03671">
        <ele>237.6</ele>
        <time>2021-09-05T08:20:48Z</time>
      </trkpt>
      <trkpt lat="44.08702" lon="2.03668">
        <ele>237.6</ele>
        <time>2021-09-05T08:20:49Z</time>
      </trkpt>
      <trkpt lat="44.08697" lon="2.03663">
        <ele>237.6</ele>
        <time>2021-09-05T08:20:50Z</time>
      </trkpt>
      <trkpt lat="44.08691" lon="2.0366">
        <ele>237.6</ele>
        <time>2021-09-05T08:20:51Z</time>
      </trkpt>
      <trkpt lat="44.0869" lon="2.03657">
        <ele>237.6</ele>
        <time>2021-09-05T08:20:52Z</time>
      </trkpt>
      <trkpt lat="44.08688" lon="2.03655">
        <ele>237.6</ele>
        <time>2021-09-05T08:20:53Z</time>
      </trkpt>
      <trkpt lat="44.08686" lon="2.03652">
        <ele>237.8</ele>
        <time>2021-09-05T08:20:54Z</time>
      </trkpt>
      <trkpt lat="44.08683" lon="2.03649">
        <ele>237.8</ele>
        <time>2021-09-05T08:20:55Z</time>
      </trkpt>
      <trkpt lat="44.08682" lon="2.03648">
        <ele>237.8</ele>
        <time>2021-09-05T08:20:56Z</time>
      </trkpt>
      <trkpt lat="44.08682" lon="2.03648">
        <ele>237.8</ele>
        <time>2021-09-05T08:20:57Z</time>
      </trkpt>
      <trkpt lat="44.08682" lon="2.03648">
        <ele>237.8</ele>
        <time>2021-09-05T08:20:58Z</time>
      </trkpt>
      <trkpt lat="44.08682" lon="2.03648">
        <ele>237.4</ele>
        <time>2021-09-05T08:21:29Z</time>
      </trkpt>
      <trkpt lat="44.08682" lon="2.03648">
        <ele>237.2</ele>
        <time>2021-09-05T08:21:32Z</time>
      </trkpt>
      <trkpt lat="44.0868" lon="2.03648">
        <ele>236.8</ele>
        <time>2021-09-05T08:22:34Z</time>
      </trkpt>
      <trkpt lat="44.0868" lon="2.03647">
        <ele>236.8</ele>
        <time>2021-09-05T08:22:36Z</time>
      </trkpt>
      <trkpt lat="44.0868" lon="2.03645">
        <ele>236.8</ele>
        <time>2021-09-05T08:23:28Z</time>
      </trkpt>
      <trkpt lat="44.08679" lon="2.03645">
        <ele>236.8</ele>
        <time>2021-09-05T08:23:29Z</time>
      </trkpt>
      <trkpt lat="44.08676" lon="2.03643">
        <ele>236.6</ele>
        <time>2021-09-05T08:23:33Z</time>
      </trkpt>
      <trkpt lat="44.08676" lon="2.03643">
        <ele>236.4</ele>
        <time>2021-09-05T08:23:34Z</time>
      </trkpt>
      <trkpt lat="44.08675" lon="2.03643">
        <ele>236.4</ele>
        <time>2021-09-05T08:23:35Z</time>
      </trkpt>
      <trkpt lat="44.08675" lon="2.03643">
        <ele>236.4</ele>
        <time>2021-09-05T08:23:36Z</time>
      </trkpt>
      <trkpt lat="44.08675" lon="2.03642">
        <ele>236.2</ele>
        <time>2021-09-05T08:23:37Z</time>
      </trkpt>
      <trkpt lat="44.08674" lon="2.03642">
        <ele>236.2</ele>
        <time>2021-09-05T08:23:38Z</time>
      </trkpt>
      <trkpt lat="44.08672" lon="2.0364">
        <ele>235.8</ele>
        <time>2021-09-05T08:23:55Z</time>
      </trkpt>
      <trkpt lat="44.08672" lon="2.0364">
        <ele>235.6</ele>
        <time>2021-09-05T08:23:57Z</time>
      </trkpt>
      <trkpt lat="44.08671" lon="2.03642">
        <ele>235.6</ele>
        <time>2021-09-05T08:23:59Z</time>
      </trkpt>
      <trkpt lat="44.08671" lon="2.03642">
        <ele>235.8</ele>
        <time>2021-09-05T08:24:02Z</time>
      </trkpt>
      <trkpt lat="44.0867" lon="2.03642">
        <ele>235.6</ele>
        <time>2021-09-05T08:24:03Z</time>
      </trkpt>
      <trkpt lat="44.0867" lon="2.03642">
        <ele>235.6</ele>
        <time>2021-09-05T08:24:04Z</time>
      </trkpt>
      <trkpt lat="44.0867" lon="2.03642">
        <ele>235.6</ele>
        <time>2021-09-05T08:24:05Z</time>
      </trkpt>
      <trkpt lat="44.0867" lon="2.03642">
        <ele>235.6</ele>
        <time>2021-09-05T08:24:09Z</time>
      </trkpt>
      <trkpt lat="44.08666" lon="2.03642">
        <ele>236.4</ele>
        <time>2021-09-05T08:24:31Z</time>
      </trkpt>
      <trkpt lat="44.08666" lon="2.03642">
        <ele>236.4</ele>
        <time>2021-09-05T08:24:35Z</time>
      </trkpt>
      <trkpt lat="44.08666" lon="2.03642">
        <ele>236.2</ele>
        <time>2021-09-05T08:24:38Z</time>
      </trkpt>
      <trkpt lat="44.08662" lon="2.03636">
        <ele>236</ele>
        <time>2021-09-05T08:24:41Z</time>
      </trkpt>
      <trkpt lat="44.08658" lon="2.03632">
        <ele>236</ele>
        <time>2021-09-05T08:24:42Z</time>
      </trkpt>
      <trkpt lat="44.08652" lon="2.03626">
        <ele>235.6</ele>
        <time>2021-09-05T08:24:44Z</time>
      </trkpt>
      <trkpt lat="44.0865" lon="2.03622">
        <ele>235.6</ele>
        <time>2021-09-05T08:24:45Z</time>
      </trkpt>
      <trkpt lat="44.08647" lon="2.03618">
        <ele>235.6</ele>
        <time>2021-09-05T08:24:46Z</time>
      </trkpt>
      <trkpt lat="44.08644" lon="2.03612">
        <ele>235.6</ele>
        <time>2021-09-05T08:24:47Z</time>
      </trkpt>
      <trkpt lat="44.08638" lon="2.03605">
        <ele>235.6</ele>
        <time>2021-09-05T08:24:49Z</time>
      </trkpt>
      <trkpt lat="44.0863" lon="2.03599">
        <ele>235.4</ele>
        <time>2021-09-05T08:24:51Z</time>
      </trkpt>
      <trkpt lat="44.08626" lon="2.03595">
        <ele>235.4</ele>
        <time>2021-09-05T08:24:52Z</time>
      </trkpt>
      <trkpt lat="44.08626" lon="2.03595">
        <ele>235.2</ele>
        <time>2021-09-05T08:24:53Z</time>
      </trkpt>
      <trkpt lat="44.08621" lon="2.03592">
        <ele>235</ele>
        <time>2021-09-05T08:24:54Z</time>
      </trkpt>
      <trkpt lat="44.08614" lon="2.03583">
        <ele>235</ele>
        <time>2021-09-05T08:24:57Z</time>
      </trkpt>
      <trkpt lat="44.086" lon="2.0358">
        <ele>235</ele>
        <time>2021-09-05T08:25:01Z</time>
      </trkpt>
      <trkpt lat="44.08597" lon="2.03579">
        <ele>235</ele>
        <time>2021-09-05T08:25:02Z</time>
      </trkpt>
      <trkpt lat="44.0859" lon="2.03578">
        <ele>235</ele>
        <time>2021-09-05T08:25:03Z</time>
      </trkpt>
      <trkpt lat="44.08572" lon="2.03586">
        <ele>235.2</ele>
        <time>2021-09-05T08:25:07Z</time>
      </trkpt>
      <trkpt lat="44.08568" lon="2.03588">
        <ele>235.2</ele>
        <time>2021-09-05T08:25:08Z</time>
      </trkpt>
      <trkpt lat="44.08564" lon="2.03589">
        <ele>235.2</ele>
        <time>2021-09-05T08:25:09Z</time>
      </trkpt>
      <trkpt lat="44.08562" lon="2.0359">
        <ele>235.4</ele>
        <time>2021-09-05T08:25:10Z</time>
      </trkpt>
      <trkpt lat="44.08561" lon="2.03591">
        <ele>235.6</ele>
        <time>2021-09-05T08:25:11Z</time>
      </trkpt>
      <trkpt lat="44.08557" lon="2.03592">
        <ele>235.8</ele>
        <time>2021-09-05T08:25:12Z</time>
      </trkpt>
      <trkpt lat="44.08544" lon="2.0359">
        <ele>236.2</ele>
        <time>2021-09-05T08:25:16Z</time>
      </trkpt>
      <trkpt lat="44.08541" lon="2.03589">
        <ele>236.2</ele>
        <time>2021-09-05T08:25:17Z</time>
      </trkpt>
      <trkpt lat="44.08537" lon="2.03587">
        <ele>236.2</ele>
        <time>2021-09-05T08:25:18Z</time>
      </trkpt>
      <trkpt lat="44.08537" lon="2.03587">
        <ele>236.2</ele>
        <time>2021-09-05T08:25:19Z</time>
      </trkpt>
      <trkpt lat="44.08528" lon="2.03583">
        <ele>236.4</ele>
        <time>2021-09-05T08:25:20Z</time>
      </trkpt>
      <trkpt lat="44.0852" lon="2.03576">
        <ele>236.2</ele>
        <time>2021-09-05T08:25:22Z</time>
      </trkpt>
      <trkpt lat="44.0852" lon="2.03572">
        <ele>236.2</ele>
        <time>2021-09-05T08:25:23Z</time>
      </trkpt>
      <trkpt lat="44.08518" lon="2.03568">
        <ele>235.6</ele>
        <time>2021-09-05T08:25:25Z</time>
      </trkpt>
      <trkpt lat="44.08515" lon="2.03558">
        <ele>235</ele>
        <time>2021-09-05T08:25:26Z</time>
      </trkpt>
      <trkpt lat="44.08512" lon="2.03552">
        <ele>234.8</ele>
        <time>2021-09-05T08:25:27Z</time>
      </trkpt>
      <trkpt lat="44.0851" lon="2.03545">
        <ele>234.6</ele>
        <time>2021-09-05T08:25:28Z</time>
      </trkpt>
      <trkpt lat="44.08508" lon="2.0354">
        <ele>234.2</ele>
        <time>2021-09-05T08:25:29Z</time>
      </trkpt>
      <trkpt lat="44.08506" lon="2.03535">
        <ele>234</ele>
        <time>2021-09-05T08:25:30Z</time>
      </trkpt>
      <trkpt lat="44.08505" lon="2.0353">
        <ele>233.8</ele>
        <time>2021-09-05T08:25:31Z</time>
      </trkpt>
      <trkpt lat="44.08504" lon="2.03526">
        <ele>233.6</ele>
        <time>2021-09-05T08:25:32Z</time>
      </trkpt>
      <trkpt lat="44.08503" lon="2.03523">
        <ele>233.6</ele>
        <time>2021-09-05T08:25:33Z</time>
      </trkpt>
      <trkpt lat="44.08501" lon="2.03518">
        <ele>233.4</ele>
        <time>2021-09-05T08:25:35Z</time>
      </trkpt>
      <trkpt lat="44.08499" lon="2.03514">
        <ele>233.4</ele>
        <time>2021-09-05T08:25:36Z</time>
      </trkpt>
      <trkpt lat="44.08497" lon="2.0351">
        <ele>233.6</ele>
        <time>2021-09-05T08:25:37Z</time>
      </trkpt>
      <trkpt lat="44.08495" lon="2.03506">
        <ele>233.6</ele>
        <time>2021-09-05T08:25:38Z</time>
      </trkpt>
      <trkpt lat="44.08492" lon="2.03503">
        <ele>233.6</ele>
        <time>2021-09-05T08:25:39Z</time>
      </trkpt>
      <trkpt lat="44.0849" lon="2.035">
        <ele>234</ele>
        <time>2021-09-05T08:25:40Z</time>
      </trkpt>
      <trkpt lat="44.08488" lon="2.03494">
        <ele>234</ele>
        <time>2021-09-05T08:25:41Z</time>
      </trkpt>
      <trkpt lat="44.08481" lon="2.03483">
        <ele>234.4</ele>
        <time>2021-09-05T08:25:43Z</time>
      </trkpt>
      <trkpt lat="44.08465" lon="2.03468">
        <ele>234.4</ele>
        <time>2021-09-05T08:25:45Z</time>
      </trkpt>
      <trkpt lat="44.08457" lon="2.0346">
        <ele>234.4</ele>
        <time>2021-09-05T08:25:46Z</time>
      </trkpt>
      <trkpt lat="44.0845" lon="2.03453">
        <ele>234.2</ele>
        <time>2021-09-05T08:25:47Z</time>
      </trkpt>
      <trkpt lat="44.08445" lon="2.03449">
        <ele>234.2</ele>
        <time>2021-09-05T08:25:48Z</time>
      </trkpt>
      <trkpt lat="44.08439" lon="2.03446">
        <ele>233.6</ele>
        <time>2021-09-05T08:25:49Z</time>
      </trkpt>
      <trkpt lat="44.08434" lon="2.03444">
        <ele>233</ele>
        <time>2021-09-05T08:25:50Z</time>
      </trkpt>
      <trkpt lat="44.0843" lon="2.03444">
        <ele>232.4</ele>
        <time>2021-09-05T08:25:51Z</time>
      </trkpt>
      <trkpt lat="44.08427" lon="2.03444">
        <ele>232</ele>
        <time>2021-09-05T08:25:52Z</time>
      </trkpt>
      <trkpt lat="44.08424" lon="2.03445">
        <ele>231.8</ele>
        <time>2021-09-05T08:25:53Z</time>
      </trkpt>
      <trkpt lat="44.0842" lon="2.03446">
        <ele>231</ele>
        <time>2021-09-05T08:25:54Z</time>
      </trkpt>
      <trkpt lat="44.08413" lon="2.03449">
        <ele>230.6</ele>
        <time>2021-09-05T08:25:56Z</time>
      </trkpt>
      <trkpt lat="44.08407" lon="2.0345">
        <ele>230.6</ele>
        <time>2021-09-05T08:25:57Z</time>
      </trkpt>
      <trkpt lat="44.08399" lon="2.03451">
        <ele>230.6</ele>
        <time>2021-09-05T08:25:59Z</time>
      </trkpt>
      <trkpt lat="44.08388" lon="2.03451">
        <ele>230.6</ele>
        <time>2021-09-05T08:26:00Z</time>
      </trkpt>
      <trkpt lat="44.08383" lon="2.03452">
        <ele>230.6</ele>
        <time>2021-09-05T08:26:01Z</time>
      </trkpt>
      <trkpt lat="44.08378" lon="2.03452">
        <ele>230.6</ele>
        <time>2021-09-05T08:26:02Z</time>
      </trkpt>
      <trkpt lat="44.08373" lon="2.03451">
        <ele>230.8</ele>
        <time>2021-09-05T08:26:03Z</time>
      </trkpt>
      <trkpt lat="44.08371" lon="2.03452">
        <ele>231.4</ele>
        <time>2021-09-05T08:26:04Z</time>
      </trkpt>
      <trkpt lat="44.08369" lon="2.03453">
        <ele>231.6</ele>
        <time>2021-09-05T08:26:05Z</time>
      </trkpt>
      <trkpt lat="44.08362" lon="2.03452">
        <ele>232.6</ele>
        <time>2021-09-05T08:26:07Z</time>
      </trkpt>
      <trkpt lat="44.08358" lon="2.03451">
        <ele>233</ele>
        <time>2021-09-05T08:26:08Z</time>
      </trkpt>
      <trkpt lat="44.08354" lon="2.0345">
        <ele>233</ele>
        <time>2021-09-05T08:26:09Z</time>
      </trkpt>
      <trkpt lat="44.08352" lon="2.0345">
        <ele>233.2</ele>
        <time>2021-09-05T08:26:10Z</time>
      </trkpt>
      <trkpt lat="44.08349" lon="2.03451">
        <ele>233.2</ele>
        <time>2021-09-05T08:26:11Z</time>
      </trkpt>
      <trkpt lat="44.08347" lon="2.03451">
        <ele>233.6</ele>
        <time>2021-09-05T08:26:12Z</time>
      </trkpt>
      <trkpt lat="44.08345" lon="2.03451">
        <ele>234.2</ele>
        <time>2021-09-05T08:26:13Z</time>
      </trkpt>
      <trkpt lat="44.08341" lon="2.0345">
        <ele>234.6</ele>
        <time>2021-09-05T08:26:15Z</time>
      </trkpt>
      <trkpt lat="44.08338" lon="2.0345">
        <ele>234.8</ele>
        <time>2021-09-05T08:26:16Z</time>
      </trkpt>
      <trkpt lat="44.08335" lon="2.03449">
        <ele>235</ele>
        <time>2021-09-05T08:26:17Z</time>
      </trkpt>
      <trkpt lat="44.08328" lon="2.03449">
        <ele>235</ele>
        <time>2021-09-05T08:26:19Z</time>
      </trkpt>
      <trkpt lat="44.08323" lon="2.03448">
        <ele>235</ele>
        <time>2021-09-05T08:26:20Z</time>
      </trkpt>
      <trkpt lat="44.08317" lon="2.03447">
        <ele>235</ele>
        <time>2021-09-05T08:26:21Z</time>
      </trkpt>
      <trkpt lat="44.08313" lon="2.03445">
        <ele>235</ele>
        <time>2021-09-05T08:26:22Z</time>
      </trkpt>
      <trkpt lat="44.08309" lon="2.03444">
        <ele>235</ele>
        <time>2021-09-05T08:26:23Z</time>
      </trkpt>
      <trkpt lat="44.08305" lon="2.03444">
        <ele>235</ele>
        <time>2021-09-05T08:26:24Z</time>
      </trkpt>
      <trkpt lat="44.08301" lon="2.03444">
        <ele>234.8</ele>
        <time>2021-09-05T08:26:25Z</time>
      </trkpt>
      <trkpt lat="44.08299" lon="2.03444">
        <ele>234.2</ele>
        <time>2021-09-05T08:26:26Z</time>
      </trkpt>
      <trkpt lat="44.08299" lon="2.03444">
        <ele>233.8</ele>
        <time>2021-09-05T08:26:27Z</time>
      </trkpt>
      <trkpt lat="44.08299" lon="2.03444">
        <ele>231.6</ele>
        <time>2021-09-05T08:27:00Z</time>
      </trkpt>
      <trkpt lat="44.08299" lon="2.03444">
        <ele>231.6</ele>
        <time>2021-09-05T08:27:01Z</time>
      </trkpt>
      <trkpt lat="44.08299" lon="2.03444">
        <ele>231.2</ele>
        <time>2021-09-05T08:27:09Z</time>
      </trkpt>
      <trkpt lat="44.08298" lon="2.03444">
        <ele>231</ele>
        <time>2021-09-05T08:27:11Z</time>
      </trkpt>
      <trkpt lat="44.08295" lon="2.03444">
        <ele>230.8</ele>
        <time>2021-09-05T08:27:13Z</time>
      </trkpt>
      <trkpt lat="44.08295" lon="2.03444">
        <ele>230.6</ele>
        <time>2021-09-05T08:27:14Z</time>
      </trkpt>
      <trkpt lat="44.08295" lon="2.03444">
        <ele>230.4</ele>
        <time>2021-09-05T08:27:15Z</time>
      </trkpt>
      <trkpt lat="44.08292" lon="2.03445">
        <ele>229.6</ele>
        <time>2021-09-05T08:27:19Z</time>
      </trkpt>
      <trkpt lat="44.08289" lon="2.03446">
        <ele>229.2</ele>
        <time>2021-09-05T08:27:20Z</time>
      </trkpt>
      <trkpt lat="44.08284" lon="2.03446">
        <ele>228.8</ele>
        <time>2021-09-05T08:27:22Z</time>
      </trkpt>
      <trkpt lat="44.08275" lon="2.03451">
        <ele>228.4</ele>
        <time>2021-09-05T08:27:25Z</time>
      </trkpt>
      <trkpt lat="44.08272" lon="2.03452">
        <ele>227.8</ele>
        <time>2021-09-05T08:27:26Z</time>
      </trkpt>
      <trkpt lat="44.08265" lon="2.03456">
        <ele>227</ele>
        <time>2021-09-05T08:27:28Z</time>
      </trkpt>
      <trkpt lat="44.08262" lon="2.03458">
        <ele>226.4</ele>
        <time>2021-09-05T08:27:29Z</time>
      </trkpt>
      <trkpt lat="44.08258" lon="2.0346">
        <ele>226.2</ele>
        <time>2021-09-05T08:27:30Z</time>
      </trkpt>
      <trkpt lat="44.08249" lon="2.03462">
        <ele>225.6</ele>
        <time>2021-09-05T08:27:32Z</time>
      </trkpt>
      <trkpt lat="44.08245" lon="2.03463">
        <ele>225.2</ele>
        <time>2021-09-05T08:27:33Z</time>
      </trkpt>
      <trkpt lat="44.08242" lon="2.03462">
        <ele>224.8</ele>
        <time>2021-09-05T08:27:34Z</time>
      </trkpt>
      <trkpt lat="44.0824" lon="2.03462">
        <ele>223.8</ele>
        <time>2021-09-05T08:27:35Z</time>
      </trkpt>
      <trkpt lat="44.08237" lon="2.03462">
        <ele>223</ele>
        <time>2021-09-05T08:27:36Z</time>
      </trkpt>
      <trkpt lat="44.08235" lon="2.03462">
        <ele>222.6</ele>
        <time>2021-09-05T08:27:37Z</time>
      </trkpt>
      <trkpt lat="44.08233" lon="2.03461">
        <ele>222.2</ele>
        <time>2021-09-05T08:27:38Z</time>
      </trkpt>
      <trkpt lat="44.08228" lon="2.03461">
        <ele>221.6</ele>
        <time>2021-09-05T08:27:40Z</time>
      </trkpt>
      <trkpt lat="44.08227" lon="2.03461">
        <ele>221.4</ele>
        <time>2021-09-05T08:27:41Z</time>
      </trkpt>
      <trkpt lat="44.08215" lon="2.03462">
        <ele>221.2</ele>
        <time>2021-09-05T08:27:44Z</time>
      </trkpt>
      <trkpt lat="44.08207" lon="2.0346">
        <ele>221</ele>
        <time>2021-09-05T08:27:46Z</time>
      </trkpt>
      <trkpt lat="44.08201" lon="2.03458">
        <ele>220.8</ele>
        <time>2021-09-05T08:27:47Z</time>
      </trkpt>
      <trkpt lat="44.08201" lon="2.03458">
        <ele>220.6</ele>
        <time>2021-09-05T08:27:48Z</time>
      </trkpt>
      <trkpt lat="44.08196" lon="2.03457">
        <ele>220.4</ele>
        <time>2021-09-05T08:27:49Z</time>
      </trkpt>
      <trkpt lat="44.08194" lon="2.03456">
        <ele>220.2</ele>
        <time>2021-09-05T08:27:50Z</time>
      </trkpt>
      <trkpt lat="44.08192" lon="2.03454">
        <ele>220</ele>
        <time>2021-09-05T08:27:51Z</time>
      </trkpt>
      <trkpt lat="44.08188" lon="2.03452">
        <ele>219.2</ele>
        <time>2021-09-05T08:27:53Z</time>
      </trkpt>
      <trkpt lat="44.08185" lon="2.03448">
        <ele>218.8</ele>
        <time>2021-09-05T08:27:55Z</time>
      </trkpt>
      <trkpt lat="44.08183" lon="2.03446">
        <ele>218.6</ele>
        <time>2021-09-05T08:27:56Z</time>
      </trkpt>
      <trkpt lat="44.08182" lon="2.03445">
        <ele>218.6</ele>
        <time>2021-09-05T08:27:57Z</time>
      </trkpt>
      <trkpt lat="44.0818" lon="2.03444">
        <ele>218.4</ele>
        <time>2021-09-05T08:27:58Z</time>
      </trkpt>
      <trkpt lat="44.08179" lon="2.03443">
        <ele>218.2</ele>
        <time>2021-09-05T08:27:59Z</time>
      </trkpt>
      <trkpt lat="44.08178" lon="2.03443">
        <ele>218</ele>
        <time>2021-09-05T08:28:00Z</time>
      </trkpt>
      <trkpt lat="44.08175" lon="2.03444">
        <ele>217.6</ele>
        <time>2021-09-05T08:28:01Z</time>
      </trkpt>
      <trkpt lat="44.08174" lon="2.03445">
        <ele>217.4</ele>
        <time>2021-09-05T08:28:02Z</time>
      </trkpt>
      <trkpt lat="44.08173" lon="2.03444">
        <ele>216.6</ele>
        <time>2021-09-05T08:28:03Z</time>
      </trkpt>
      <trkpt lat="44.08171" lon="2.03444">
        <ele>216.4</ele>
        <time>2021-09-05T08:28:04Z</time>
      </trkpt>
      <trkpt lat="44.08169" lon="2.03443">
        <ele>216</ele>
        <time>2021-09-05T08:28:05Z</time>
      </trkpt>
      <trkpt lat="44.08168" lon="2.03444">
        <ele>214</ele>
        <time>2021-09-05T08:28:13Z</time>
      </trkpt>
      <trkpt lat="44.08165" lon="2.03447">
        <ele>214</ele>
        <time>2021-09-05T08:28:15Z</time>
      </trkpt>
      <trkpt lat="44.08163" lon="2.03448">
        <ele>213.8</ele>
        <time>2021-09-05T08:28:16Z</time>
      </trkpt>
      <trkpt lat="44.08159" lon="2.03448">
        <ele>213.8</ele>
        <time>2021-09-05T08:28:18Z</time>
      </trkpt>
      <trkpt lat="44.08157" lon="2.03449">
        <ele>213.6</ele>
        <time>2021-09-05T08:28:19Z</time>
      </trkpt>
      <trkpt lat="44.08154" lon="2.0345">
        <ele>213.6</ele>
        <time>2021-09-05T08:28:20Z</time>
      </trkpt>
      <trkpt lat="44.08145" lon="2.03453">
        <ele>212.8</ele>
        <time>2021-09-05T08:28:23Z</time>
      </trkpt>
      <trkpt lat="44.08137" lon="2.03455">
        <ele>212</ele>
        <time>2021-09-05T08:28:25Z</time>
      </trkpt>
      <trkpt lat="44.08133" lon="2.03456">
        <ele>211.8</ele>
        <time>2021-09-05T08:28:26Z</time>
      </trkpt>
      <trkpt lat="44.0813" lon="2.03457">
        <ele>211.6</ele>
        <time>2021-09-05T08:28:27Z</time>
      </trkpt>
      <trkpt lat="44.08127" lon="2.03458">
        <ele>210.8</ele>
        <time>2021-09-05T08:28:28Z</time>
      </trkpt>
      <trkpt lat="44.08125" lon="2.0346">
        <ele>210.2</ele>
        <time>2021-09-05T08:28:29Z</time>
      </trkpt>
      <trkpt lat="44.0812" lon="2.0346">
        <ele>210</ele>
        <time>2021-09-05T08:28:30Z</time>
      </trkpt>
      <trkpt lat="44.08114" lon="2.03458">
        <ele>209.4</ele>
        <time>2021-09-05T08:28:32Z</time>
      </trkpt>
      <trkpt lat="44.08111" lon="2.03457">
        <ele>209.2</ele>
        <time>2021-09-05T08:28:33Z</time>
      </trkpt>
      <trkpt lat="44.08108" lon="2.03456">
        <ele>209.2</ele>
        <time>2021-09-05T08:28:34Z</time>
      </trkpt>
      <trkpt lat="44.08105" lon="2.03455">
        <ele>208.8</ele>
        <time>2021-09-05T08:28:35Z</time>
      </trkpt>
      <trkpt lat="44.08097" lon="2.03456">
        <ele>208.4</ele>
        <time>2021-09-05T08:28:37Z</time>
      </trkpt>
      <trkpt lat="44.08089" lon="2.03457">
        <ele>208.2</ele>
        <time>2021-09-05T08:28:38Z</time>
      </trkpt>
      <trkpt lat="44.08083" lon="2.03456">
        <ele>208.2</ele>
        <time>2021-09-05T08:28:39Z</time>
      </trkpt>
      <trkpt lat="44.08053" lon="2.03453">
        <ele>208</ele>
        <time>2021-09-05T08:28:45Z</time>
      </trkpt>
      <trkpt lat="44.08045" lon="2.03453">
        <ele>208</ele>
        <time>2021-09-05T08:28:46Z</time>
      </trkpt>
      <trkpt lat="44.08034" lon="2.03454">
        <ele>208</ele>
        <time>2021-09-05T08:28:47Z</time>
      </trkpt>
      <trkpt lat="44.08019" lon="2.03457">
        <ele>207</ele>
        <time>2021-09-05T08:28:49Z</time>
      </trkpt>
      <trkpt lat="44.08016" lon="2.03459">
        <ele>206.8</ele>
        <time>2021-09-05T08:28:50Z</time>
      </trkpt>
      <trkpt lat="44.08013" lon="2.03461">
        <ele>206.6</ele>
        <time>2021-09-05T08:28:51Z</time>
      </trkpt>
      <trkpt lat="44.0801" lon="2.03462">
        <ele>206.4</ele>
        <time>2021-09-05T08:28:52Z</time>
      </trkpt>
      <trkpt lat="44.08007" lon="2.03462">
        <ele>206.4</ele>
        <time>2021-09-05T08:28:53Z</time>
      </trkpt>
      <trkpt lat="44.08002" lon="2.03462">
        <ele>206.2</ele>
        <time>2021-09-05T08:28:54Z</time>
      </trkpt>
      <trkpt lat="44.07997" lon="2.03462">
        <ele>206</ele>
        <time>2021-09-05T08:28:55Z</time>
      </trkpt>
      <trkpt lat="44.07993" lon="2.03462">
        <ele>205.8</ele>
        <time>2021-09-05T08:28:56Z</time>
      </trkpt>
      <trkpt lat="44.07986" lon="2.03469">
        <ele>204.8</ele>
        <time>2021-09-05T08:28:59Z</time>
      </trkpt>
      <trkpt lat="44.07983" lon="2.03472">
        <ele>204.6</ele>
        <time>2021-09-05T08:29:00Z</time>
      </trkpt>
      <trkpt lat="44.07981" lon="2.03473">
        <ele>204.6</ele>
        <time>2021-09-05T08:29:01Z</time>
      </trkpt>
      <trkpt lat="44.0798" lon="2.03472">
        <ele>204.4</ele>
        <time>2021-09-05T08:29:02Z</time>
      </trkpt>
      <trkpt lat="44.07976" lon="2.03471">
        <ele>204.2</ele>
        <time>2021-09-05T08:29:03Z</time>
      </trkpt>
      <trkpt lat="44.07974" lon="2.03471">
        <ele>204</ele>
        <time>2021-09-05T08:29:04Z</time>
      </trkpt>
      <trkpt lat="44.07969" lon="2.03471">
        <ele>203.4</ele>
        <time>2021-09-05T08:29:05Z</time>
      </trkpt>
      <trkpt lat="44.07966" lon="2.0347">
        <ele>202.8</ele>
        <time>2021-09-05T08:29:06Z</time>
      </trkpt>
      <trkpt lat="44.07964" lon="2.0347">
        <ele>202.6</ele>
        <time>2021-09-05T08:29:07Z</time>
      </trkpt>
      <trkpt lat="44.0796" lon="2.0347">
        <ele>202.2</ele>
        <time>2021-09-05T08:29:08Z</time>
      </trkpt>
      <trkpt lat="44.07958" lon="2.0347">
        <ele>201.8</ele>
        <time>2021-09-05T08:29:09Z</time>
      </trkpt>
      <trkpt lat="44.07953" lon="2.03469">
        <ele>201.4</ele>
        <time>2021-09-05T08:29:10Z</time>
      </trkpt>
      <trkpt lat="44.07949" lon="2.03468">
        <ele>201.4</ele>
        <time>2021-09-05T08:29:11Z</time>
      </trkpt>
      <trkpt lat="44.07932" lon="2.03461">
        <ele>201</ele>
        <time>2021-09-05T08:29:14Z</time>
      </trkpt>
      <trkpt lat="44.07928" lon="2.0346">
        <ele>200.8</ele>
        <time>2021-09-05T08:29:15Z</time>
      </trkpt>
      <trkpt lat="44.07922" lon="2.03455">
        <ele>200.6</ele>
        <time>2021-09-05T08:29:17Z</time>
      </trkpt>
      <trkpt lat="44.0792" lon="2.03453">
        <ele>200.2</ele>
        <time>2021-09-05T08:29:18Z</time>
      </trkpt>
      <trkpt lat="44.07919" lon="2.03452">
        <ele>199.6</ele>
        <time>2021-09-05T08:29:19Z</time>
      </trkpt>
      <trkpt lat="44.07918" lon="2.03449">
        <ele>199.6</ele>
        <time>2021-09-05T08:29:20Z</time>
      </trkpt>
      <trkpt lat="44.07917" lon="2.03447">
        <ele>199.4</ele>
        <time>2021-09-05T08:29:21Z</time>
      </trkpt>
      <trkpt lat="44.07915" lon="2.03444">
        <ele>199</ele>
        <time>2021-09-05T08:29:22Z</time>
      </trkpt>
      <trkpt lat="44.07911" lon="2.03443">
        <ele>199</ele>
        <time>2021-09-05T08:29:23Z</time>
      </trkpt>
      <trkpt lat="44.07907" lon="2.0344">
        <ele>198.6</ele>
        <time>2021-09-05T08:29:24Z</time>
      </trkpt>
      <trkpt lat="44.07902" lon="2.03437">
        <ele>198.6</ele>
        <time>2021-09-05T08:29:25Z</time>
      </trkpt>
      <trkpt lat="44.07898" lon="2.03433">
        <ele>198.4</ele>
        <time>2021-09-05T08:29:26Z</time>
      </trkpt>
      <trkpt lat="44.07886" lon="2.03421">
        <ele>198</ele>
        <time>2021-09-05T08:29:28Z</time>
      </trkpt>
      <trkpt lat="44.07877" lon="2.03416">
        <ele>197.8</ele>
        <time>2021-09-05T08:29:29Z</time>
      </trkpt>
      <trkpt lat="44.07871" lon="2.03413">
        <ele>197.6</ele>
        <time>2021-09-05T08:29:30Z</time>
      </trkpt>
      <trkpt lat="44.07867" lon="2.03411">
        <ele>197</ele>
        <time>2021-09-05T08:29:31Z</time>
      </trkpt>
      <trkpt lat="44.07863" lon="2.0341">
        <ele>196.8</ele>
        <time>2021-09-05T08:29:32Z</time>
      </trkpt>
      <trkpt lat="44.0786" lon="2.03411">
        <ele>196.4</ele>
        <time>2021-09-05T08:29:33Z</time>
      </trkpt>
      <trkpt lat="44.07852" lon="2.03411">
        <ele>196.2</ele>
        <time>2021-09-05T08:29:34Z</time>
      </trkpt>
      <trkpt lat="44.07844" lon="2.0341">
        <ele>196</ele>
        <time>2021-09-05T08:29:35Z</time>
      </trkpt>
      <trkpt lat="44.07843" lon="2.0341">
        <ele>195.8</ele>
        <time>2021-09-05T08:29:36Z</time>
      </trkpt>
      <trkpt lat="44.07842" lon="2.0341">
        <ele>195.2</ele>
        <time>2021-09-05T08:29:37Z</time>
      </trkpt>
      <trkpt lat="44.07842" lon="2.03409">
        <ele>195</ele>
        <time>2021-09-05T08:29:38Z</time>
      </trkpt>
      <trkpt lat="44.07841" lon="2.03409">
        <ele>194.6</ele>
        <time>2021-09-05T08:29:39Z</time>
      </trkpt>
      <trkpt lat="44.07842" lon="2.0341">
        <ele>194.4</ele>
        <time>2021-09-05T08:29:40Z</time>
      </trkpt>
      <trkpt lat="44.07842" lon="2.03409">
        <ele>194.2</ele>
        <time>2021-09-05T08:29:41Z</time>
      </trkpt>
      <trkpt lat="44.07838" lon="2.03405">
        <ele>193.8</ele>
        <time>2021-09-05T08:29:45Z</time>
      </trkpt>
      <trkpt lat="44.07836" lon="2.03402">
        <ele>194</ele>
        <time>2021-09-05T08:29:47Z</time>
      </trkpt>
      <trkpt lat="44.07834" lon="2.03397">
        <ele>194</ele>
        <time>2021-09-05T08:29:49Z</time>
      </trkpt>
      <trkpt lat="44.07831" lon="2.03395">
        <ele>194</ele>
        <time>2021-09-05T08:29:50Z</time>
      </trkpt>
      <trkpt lat="44.07828" lon="2.03391">
        <ele>194</ele>
        <time>2021-09-05T08:29:52Z</time>
      </trkpt>
      <trkpt lat="44.07826" lon="2.03389">
        <ele>194</ele>
        <time>2021-09-05T08:29:53Z</time>
      </trkpt>
      <trkpt lat="44.07823" lon="2.03387">
        <ele>194</ele>
        <time>2021-09-05T08:29:54Z</time>
      </trkpt>
      <trkpt lat="44.07819" lon="2.03385">
        <ele>194</ele>
        <time>2021-09-05T08:29:55Z</time>
      </trkpt>
      <trkpt lat="44.0781" lon="2.03379">
        <ele>194</ele>
        <time>2021-09-05T08:29:57Z</time>
      </trkpt>
      <trkpt lat="44.07801" lon="2.03372">
        <ele>194</ele>
        <time>2021-09-05T08:29:59Z</time>
      </trkpt>
      <trkpt lat="44.07794" lon="2.03366">
        <ele>193.6</ele>
        <time>2021-09-05T08:30:01Z</time>
      </trkpt>
      <trkpt lat="44.07786" lon="2.03356">
        <ele>193.4</ele>
        <time>2021-09-05T08:30:03Z</time>
      </trkpt>
      <trkpt lat="44.07781" lon="2.03351">
        <ele>193.4</ele>
        <time>2021-09-05T08:30:04Z</time>
      </trkpt>
      <trkpt lat="44.07777" lon="2.03345">
        <ele>193.4</ele>
        <time>2021-09-05T08:30:05Z</time>
      </trkpt>
      <trkpt lat="44.0777" lon="2.03332">
        <ele>193.2</ele>
        <time>2021-09-05T08:30:07Z</time>
      </trkpt>
      <trkpt lat="44.07767" lon="2.03326">
        <ele>193</ele>
        <time>2021-09-05T08:30:08Z</time>
      </trkpt>
      <trkpt lat="44.07766" lon="2.03323">
        <ele>193</ele>
        <time>2021-09-05T08:30:09Z</time>
      </trkpt>
      <trkpt lat="44.07764" lon="2.0332">
        <ele>193</ele>
        <time>2021-09-05T08:30:10Z</time>
      </trkpt>
      <trkpt lat="44.07763" lon="2.03318">
        <ele>193</ele>
        <time>2021-09-05T08:30:11Z</time>
      </trkpt>
      <trkpt lat="44.07762" lon="2.03317">
        <ele>192.8</ele>
        <time>2021-09-05T08:30:12Z</time>
      </trkpt>
      <trkpt lat="44.07762" lon="2.03313">
        <ele>192.8</ele>
        <time>2021-09-05T08:30:13Z</time>
      </trkpt>
      <trkpt lat="44.07762" lon="2.0331">
        <ele>192.8</ele>
        <time>2021-09-05T08:30:14Z</time>
      </trkpt>
      <trkpt lat="44.07762" lon="2.03308">
        <ele>192.6</ele>
        <time>2021-09-05T08:30:15Z</time>
      </trkpt>
      <trkpt lat="44.07762" lon="2.03307">
        <ele>192.6</ele>
        <time>2021-09-05T08:30:16Z</time>
      </trkpt>
      <trkpt lat="44.0776" lon="2.03306">
        <ele>192.4</ele>
        <time>2021-09-05T08:30:17Z</time>
      </trkpt>
      <trkpt lat="44.07761" lon="2.03305">
        <ele>192.4</ele>
        <time>2021-09-05T08:30:18Z</time>
      </trkpt>
      <trkpt lat="44.07762" lon="2.03304">
        <ele>192.4</ele>
        <time>2021-09-05T08:30:19Z</time>
      </trkpt>
      <trkpt lat="44.07763" lon="2.03302">
        <ele>192.4</ele>
        <time>2021-09-05T08:30:20Z</time>
      </trkpt>
      <trkpt lat="44.07765" lon="2.03303">
        <ele>192.6</ele>
        <time>2021-09-05T08:30:21Z</time>
      </trkpt>
      <trkpt lat="44.07766" lon="2.03304">
        <ele>192.8</ele>
        <time>2021-09-05T08:30:22Z</time>
      </trkpt>
      <trkpt lat="44.07767" lon="2.03304">
        <ele>192.6</ele>
        <time>2021-09-05T08:30:23Z</time>
      </trkpt>
      <trkpt lat="44.07768" lon="2.03305">
        <ele>193</ele>
        <time>2021-09-05T08:30:24Z</time>
      </trkpt>
      <trkpt lat="44.07769" lon="2.03307">
        <ele>193</ele>
        <time>2021-09-05T08:30:25Z</time>
      </trkpt>
      <trkpt lat="44.07769" lon="2.03307">
        <ele>193</ele>
        <time>2021-09-05T08:30:26Z</time>
      </trkpt>
      <trkpt lat="44.07768" lon="2.03307">
        <ele>193.2</ele>
        <time>2021-09-05T08:30:27Z</time>
      </trkpt>
      <trkpt lat="44.07768" lon="2.03308">
        <ele>193.4</ele>
        <time>2021-09-05T08:30:28Z</time>
      </trkpt>
      <trkpt lat="44.07768" lon="2.03308">
        <ele>193.6</ele>
        <time>2021-09-05T08:30:30Z</time>
      </trkpt>
      <trkpt lat="44.07769" lon="2.0331">
        <ele>193.6</ele>
        <time>2021-09-05T08:30:31Z</time>
      </trkpt>
      <trkpt lat="44.0777" lon="2.03311">
        <ele>193.6</ele>
        <time>2021-09-05T08:30:32Z</time>
      </trkpt>
      <trkpt lat="44.07771" lon="2.03312">
        <ele>193.6</ele>
        <time>2021-09-05T08:30:33Z</time>
      </trkpt>
      <trkpt lat="44.07772" lon="2.03314">
        <ele>193.8</ele>
        <time>2021-09-05T08:30:34Z</time>
      </trkpt>
      <trkpt lat="44.07775" lon="2.0332">
        <ele>194.6</ele>
        <time>2021-09-05T08:30:38Z</time>
      </trkpt>
      <trkpt lat="44.07776" lon="2.03322">
        <ele>194.8</ele>
        <time>2021-09-05T08:30:39Z</time>
      </trkpt>
      <trkpt lat="44.07776" lon="2.03323">
        <ele>195</ele>
        <time>2021-09-05T08:30:40Z</time>
      </trkpt>
      <trkpt lat="44.07777" lon="2.03325">
        <ele>195</ele>
        <time>2021-09-05T08:30:41Z</time>
      </trkpt>
      <trkpt lat="44.0778" lon="2.0333">
        <ele>195.6</ele>
        <time>2021-09-05T08:30:44Z</time>
      </trkpt>
      <trkpt lat="44.07781" lon="2.03331">
        <ele>196</ele>
        <time>2021-09-05T08:30:45Z</time>
      </trkpt>
      <trkpt lat="44.07782" lon="2.03331">
        <ele>196</ele>
        <time>2021-09-05T08:30:46Z</time>
      </trkpt>
      <trkpt lat="44.07782" lon="2.03332">
        <ele>196.2</ele>
        <time>2021-09-05T08:30:47Z</time>
      </trkpt>
      <trkpt lat="44.07784" lon="2.03332">
        <ele>196.4</ele>
        <time>2021-09-05T08:30:48Z</time>
      </trkpt>
      <trkpt lat="44.07785" lon="2.03331">
        <ele>196.6</ele>
        <time>2021-09-05T08:30:49Z</time>
      </trkpt>
      <trkpt lat="44.07786" lon="2.03331">
        <ele>196.8</ele>
        <time>2021-09-05T08:30:50Z</time>
      </trkpt>
      <trkpt lat="44.07787" lon="2.0333">
        <ele>196.8</ele>
        <time>2021-09-05T08:30:51Z</time>
      </trkpt>
      <trkpt lat="44.07788" lon="2.03328">
        <ele>197</ele>
        <time>2021-09-05T08:30:52Z</time>
      </trkpt>
      <trkpt lat="44.07789" lon="2.03326">
        <ele>197.2</ele>
        <time>2021-09-05T08:30:53Z</time>
      </trkpt>
      <trkpt lat="44.07789" lon="2.03324">
        <ele>197.2</ele>
        <time>2021-09-05T08:30:54Z</time>
      </trkpt>
      <trkpt lat="44.0779" lon="2.03322">
        <ele>197.4</ele>
        <time>2021-09-05T08:30:55Z</time>
      </trkpt>
      <trkpt lat="44.0779" lon="2.03321">
        <ele>197.4</ele>
        <time>2021-09-05T08:30:56Z</time>
      </trkpt>
      <trkpt lat="44.0779" lon="2.03318">
        <ele>197.6</ele>
        <time>2021-09-05T08:30:57Z</time>
      </trkpt>
      <trkpt lat="44.0779" lon="2.03316">
        <ele>197.8</ele>
        <time>2021-09-05T08:30:58Z</time>
      </trkpt>
      <trkpt lat="44.07789" lon="2.03316">
        <ele>197.8</ele>
        <time>2021-09-05T08:30:59Z</time>
      </trkpt>
      <trkpt lat="44.07788" lon="2.03314">
        <ele>198</ele>
        <time>2021-09-05T08:31:00Z</time>
      </trkpt>
      <trkpt lat="44.07789" lon="2.03312">
        <ele>198</ele>
        <time>2021-09-05T08:31:01Z</time>
      </trkpt>
      <trkpt lat="44.07788" lon="2.03311">
        <ele>198</ele>
        <time>2021-09-05T08:31:02Z</time>
      </trkpt>
      <trkpt lat="44.07786" lon="2.03309">
        <ele>198.2</ele>
        <time>2021-09-05T08:31:03Z</time>
      </trkpt>
      <trkpt lat="44.07785" lon="2.03307">
        <ele>198.4</ele>
        <time>2021-09-05T08:31:04Z</time>
      </trkpt>
      <trkpt lat="44.07785" lon="2.03305">
        <ele>198.4</ele>
        <time>2021-09-05T08:31:05Z</time>
      </trkpt>
      <trkpt lat="44.07785" lon="2.03302">
        <ele>198.4</ele>
        <time>2021-09-05T08:31:06Z</time>
      </trkpt>
      <trkpt lat="44.07784" lon="2.033">
        <ele>198.4</ele>
        <time>2021-09-05T08:31:07Z</time>
      </trkpt>
      <trkpt lat="44.07784" lon="2.03297">
        <ele>198.6</ele>
        <time>2021-09-05T08:31:08Z</time>
      </trkpt>
      <trkpt lat="44.07784" lon="2.03294">
        <ele>198.6</ele>
        <time>2021-09-05T08:31:09Z</time>
      </trkpt>
      <trkpt lat="44.07784" lon="2.03291">
        <ele>198.6</ele>
        <time>2021-09-05T08:31:10Z</time>
      </trkpt>
      <trkpt lat="44.07784" lon="2.03288">
        <ele>198.6</ele>
        <time>2021-09-05T08:31:11Z</time>
      </trkpt>
      <trkpt lat="44.07783" lon="2.03285">
        <ele>198.8</ele>
        <time>2021-09-05T08:31:12Z</time>
      </trkpt>
      <trkpt lat="44.07782" lon="2.03281">
        <ele>198.8</ele>
        <time>2021-09-05T08:31:13Z</time>
      </trkpt>
      <trkpt lat="44.0778" lon="2.03275">
        <ele>198.8</ele>
        <time>2021-09-05T08:31:14Z</time>
      </trkpt>
      <trkpt lat="44.07777" lon="2.0327">
        <ele>198.8</ele>
        <time>2021-09-05T08:31:15Z</time>
      </trkpt>
      <trkpt lat="44.07774" lon="2.03265">
        <ele>198.6</ele>
        <time>2021-09-05T08:31:16Z</time>
      </trkpt>
      <trkpt lat="44.07771" lon="2.0326">
        <ele>198.8</ele>
        <time>2021-09-05T08:31:17Z</time>
      </trkpt>
      <trkpt lat="44.07768" lon="2.03257">
        <ele>198.8</ele>
        <time>2021-09-05T08:31:18Z</time>
      </trkpt>
      <trkpt lat="44.07765" lon="2.03249">
        <ele>198.8</ele>
        <time>2021-09-05T08:31:20Z</time>
      </trkpt>
      <trkpt lat="44.07765" lon="2.03245">
        <ele>198.8</ele>
        <time>2021-09-05T08:31:21Z</time>
      </trkpt>
      <trkpt lat="44.07764" lon="2.03242">
        <ele>199</ele>
        <time>2021-09-05T08:31:22Z</time>
      </trkpt>
      <trkpt lat="44.07763" lon="2.03238">
        <ele>199</ele>
        <time>2021-09-05T08:31:23Z</time>
      </trkpt>
      <trkpt lat="44.07762" lon="2.03235">
        <ele>199.4</ele>
        <time>2021-09-05T08:31:24Z</time>
      </trkpt>
      <trkpt lat="44.07758" lon="2.03228">
        <ele>199.6</ele>
        <time>2021-09-05T08:31:26Z</time>
      </trkpt>
      <trkpt lat="44.07756" lon="2.03224">
        <ele>199.8</ele>
        <time>2021-09-05T08:31:27Z</time>
      </trkpt>
      <trkpt lat="44.07755" lon="2.03221">
        <ele>200</ele>
        <time>2021-09-05T08:31:28Z</time>
      </trkpt>
      <trkpt lat="44.07752" lon="2.03208">
        <ele>200.2</ele>
        <time>2021-09-05T08:31:31Z</time>
      </trkpt>
      <trkpt lat="44.07751" lon="2.03202">
        <ele>200.2</ele>
        <time>2021-09-05T08:31:32Z</time>
      </trkpt>
      <trkpt lat="44.0775" lon="2.03197">
        <ele>200.2</ele>
        <time>2021-09-05T08:31:33Z</time>
      </trkpt>
      <trkpt lat="44.07747" lon="2.0319">
        <ele>200.2</ele>
        <time>2021-09-05T08:31:34Z</time>
      </trkpt>
      <trkpt lat="44.07743" lon="2.03183">
        <ele>200.2</ele>
        <time>2021-09-05T08:31:35Z</time>
      </trkpt>
      <trkpt lat="44.07733" lon="2.03168">
        <ele>200.2</ele>
        <time>2021-09-05T08:31:37Z</time>
      </trkpt>
      <trkpt lat="44.0773" lon="2.03161">
        <ele>200</ele>
        <time>2021-09-05T08:31:38Z</time>
      </trkpt>
      <trkpt lat="44.07729" lon="2.03153">
        <ele>200</ele>
        <time>2021-09-05T08:31:39Z</time>
      </trkpt>
      <trkpt lat="44.07728" lon="2.03146">
        <ele>200</ele>
        <time>2021-09-05T08:31:40Z</time>
      </trkpt>
      <trkpt lat="44.07728" lon="2.03139">
        <ele>199.8</ele>
        <time>2021-09-05T08:31:41Z</time>
      </trkpt>
      <trkpt lat="44.07725" lon="2.03134">
        <ele>199.6</ele>
        <time>2021-09-05T08:31:42Z</time>
      </trkpt>
      <trkpt lat="44.07724" lon="2.03129">
        <ele>199.6</ele>
        <time>2021-09-05T08:31:43Z</time>
      </trkpt>
      <trkpt lat="44.07722" lon="2.03123">
        <ele>199.6</ele>
        <time>2021-09-05T08:31:44Z</time>
      </trkpt>
      <trkpt lat="44.07722" lon="2.03117">
        <ele>199.4</ele>
        <time>2021-09-05T08:31:45Z</time>
      </trkpt>
      <trkpt lat="44.07722" lon="2.03111">
        <ele>199.4</ele>
        <time>2021-09-05T08:31:46Z</time>
      </trkpt>
      <trkpt lat="44.07721" lon="2.03105">
        <ele>199.4</ele>
        <time>2021-09-05T08:31:47Z</time>
      </trkpt>
      <trkpt lat="44.0772" lon="2.03099">
        <ele>199.2</ele>
        <time>2021-09-05T08:31:48Z</time>
      </trkpt>
      <trkpt lat="44.07719" lon="2.03095">
        <ele>199.2</ele>
        <time>2021-09-05T08:31:49Z</time>
      </trkpt>
      <trkpt lat="44.07714" lon="2.03086">
        <ele>199.2</ele>
        <time>2021-09-05T08:31:51Z</time>
      </trkpt>
      <trkpt lat="44.07712" lon="2.03081">
        <ele>199.2</ele>
        <time>2021-09-05T08:31:52Z</time>
      </trkpt>
      <trkpt lat="44.0771" lon="2.03075">
        <ele>199.2</ele>
        <time>2021-09-05T08:31:53Z</time>
      </trkpt>
      <trkpt lat="44.07706" lon="2.03069">
        <ele>199.2</ele>
        <time>2021-09-05T08:31:54Z</time>
      </trkpt>
      <trkpt lat="44.07704" lon="2.03064">
        <ele>199.2</ele>
        <time>2021-09-05T08:31:55Z</time>
      </trkpt>
      <trkpt lat="44.077" lon="2.03047">
        <ele>198.8</ele>
        <time>2021-09-05T08:31:58Z</time>
      </trkpt>
      <trkpt lat="44.07698" lon="2.03041">
        <ele>198.6</ele>
        <time>2021-09-05T08:31:59Z</time>
      </trkpt>
      <trkpt lat="44.07693" lon="2.03031">
        <ele>198</ele>
        <time>2021-09-05T08:32:01Z</time>
      </trkpt>
      <trkpt lat="44.07691" lon="2.03026">
        <ele>197.6</ele>
        <time>2021-09-05T08:32:02Z</time>
      </trkpt>
      <trkpt lat="44.07689" lon="2.03022">
        <ele>197.2</ele>
        <time>2021-09-05T08:32:03Z</time>
      </trkpt>
      <trkpt lat="44.07687" lon="2.03018">
        <ele>197.2</ele>
        <time>2021-09-05T08:32:04Z</time>
      </trkpt>
      <trkpt lat="44.07684" lon="2.03014">
        <ele>196.8</ele>
        <time>2021-09-05T08:32:05Z</time>
      </trkpt>
      <trkpt lat="44.07681" lon="2.03011">
        <ele>196.6</ele>
        <time>2021-09-05T08:32:06Z</time>
      </trkpt>
      <trkpt lat="44.07677" lon="2.03008">
        <ele>196.2</ele>
        <time>2021-09-05T08:32:07Z</time>
      </trkpt>
      <trkpt lat="44.07674" lon="2.03005">
        <ele>195.8</ele>
        <time>2021-09-05T08:32:08Z</time>
      </trkpt>
      <trkpt lat="44.07672" lon="2.03003">
        <ele>195.8</ele>
        <time>2021-09-05T08:32:09Z</time>
      </trkpt>
      <trkpt lat="44.07669" lon="2.03001">
        <ele>195.6</ele>
        <time>2021-09-05T08:32:10Z</time>
      </trkpt>
      <trkpt lat="44.07667" lon="2.03">
        <ele>195.4</ele>
        <time>2021-09-05T08:32:11Z</time>
      </trkpt>
      <trkpt lat="44.07665" lon="2.03">
        <ele>194.4</ele>
        <time>2021-09-05T08:32:12Z</time>
      </trkpt>
      <trkpt lat="44.07662" lon="2.03">
        <ele>194</ele>
        <time>2021-09-05T08:32:13Z</time>
      </trkpt>
      <trkpt lat="44.07661" lon="2.03">
        <ele>193.6</ele>
        <time>2021-09-05T08:32:14Z</time>
      </trkpt>
      <trkpt lat="44.0766" lon="2.03001">
        <ele>193</ele>
        <time>2021-09-05T08:32:15Z</time>
      </trkpt>
      <trkpt lat="44.07658" lon="2.03002">
        <ele>191.8</ele>
        <time>2021-09-05T08:33:49Z</time>
      </trkpt>
      <trkpt lat="44.07656" lon="2.03004">
        <ele>191.8</ele>
        <time>2021-09-05T08:33:50Z</time>
      </trkpt>
      <trkpt lat="44.07646" lon="2.03011">
        <ele>191.6</ele>
        <time>2021-09-05T08:33:53Z</time>
      </trkpt>
      <trkpt lat="44.07621" lon="2.03028">
        <ele>191.2</ele>
        <time>2021-09-05T08:33:57Z</time>
      </trkpt>
      <trkpt lat="44.07609" lon="2.03037">
        <ele>190.6</ele>
        <time>2021-09-05T08:33:59Z</time>
      </trkpt>
      <trkpt lat="44.07602" lon="2.03043">
        <ele>190.2</ele>
        <time>2021-09-05T08:34:00Z</time>
      </trkpt>
      <trkpt lat="44.07594" lon="2.03048">
        <ele>189.4</ele>
        <time>2021-09-05T08:34:01Z</time>
      </trkpt>
      <trkpt lat="44.07589" lon="2.03051">
        <ele>189.2</ele>
        <time>2021-09-05T08:34:02Z</time>
      </trkpt>
      <trkpt lat="44.07583" lon="2.03054">
        <ele>188.6</ele>
        <time>2021-09-05T08:34:03Z</time>
      </trkpt>
      <trkpt lat="44.07578" lon="2.03058">
        <ele>188.2</ele>
        <time>2021-09-05T08:34:04Z</time>
      </trkpt>
      <trkpt lat="44.07573" lon="2.03063">
        <ele>187.8</ele>
        <time>2021-09-05T08:34:05Z</time>
      </trkpt>
      <trkpt lat="44.07569" lon="2.03069">
        <ele>187.4</ele>
        <time>2021-09-05T08:34:06Z</time>
      </trkpt>
      <trkpt lat="44.07567" lon="2.03076">
        <ele>187</ele>
        <time>2021-09-05T08:34:07Z</time>
      </trkpt>
      <trkpt lat="44.07565" lon="2.0308">
        <ele>186.6</ele>
        <time>2021-09-05T08:34:08Z</time>
      </trkpt>
      <trkpt lat="44.07562" lon="2.03085">
        <ele>186.4</ele>
        <time>2021-09-05T08:34:09Z</time>
      </trkpt>
      <trkpt lat="44.07558" lon="2.0309">
        <ele>186.2</ele>
        <time>2021-09-05T08:34:10Z</time>
      </trkpt>
      <trkpt lat="44.07556" lon="2.03095">
        <ele>186.2</ele>
        <time>2021-09-05T08:34:11Z</time>
      </trkpt>
      <trkpt lat="44.07544" lon="2.03117">
        <ele>186.2</ele>
        <time>2021-09-05T08:34:15Z</time>
      </trkpt>
      <trkpt lat="44.07535" lon="2.03128">
        <ele>186.2</ele>
        <time>2021-09-05T08:34:17Z</time>
      </trkpt>
      <trkpt lat="44.07531" lon="2.03131">
        <ele>186.2</ele>
        <time>2021-09-05T08:34:18Z</time>
      </trkpt>
      <trkpt lat="44.07522" lon="2.03139">
        <ele>186.4</ele>
        <time>2021-09-05T08:34:20Z</time>
      </trkpt>
      <trkpt lat="44.07513" lon="2.03147">
        <ele>186.4</ele>
        <time>2021-09-05T08:34:22Z</time>
      </trkpt>
      <trkpt lat="44.07509" lon="2.0315">
        <ele>186.4</ele>
        <time>2021-09-05T08:34:23Z</time>
      </trkpt>
      <trkpt lat="44.07505" lon="2.03154">
        <ele>186.4</ele>
        <time>2021-09-05T08:34:24Z</time>
      </trkpt>
      <trkpt lat="44.07505" lon="2.03154">
        <ele>186.6</ele>
        <time>2021-09-05T08:34:25Z</time>
      </trkpt>
      <trkpt lat="44.07476" lon="2.03185">
        <ele>187</ele>
        <time>2021-09-05T08:34:31Z</time>
      </trkpt>
      <trkpt lat="44.07464" lon="2.03202">
        <ele>187</ele>
        <time>2021-09-05T08:34:34Z</time>
      </trkpt>
      <trkpt lat="44.0746" lon="2.03208">
        <ele>187</ele>
        <time>2021-09-05T08:34:35Z</time>
      </trkpt>
      <trkpt lat="44.07456" lon="2.03215">
        <ele>187</ele>
        <time>2021-09-05T08:34:36Z</time>
      </trkpt>
      <trkpt lat="44.07451" lon="2.03227">
        <ele>187</ele>
        <time>2021-09-05T08:34:38Z</time>
      </trkpt>
      <trkpt lat="44.0744" lon="2.03269">
        <ele>187</ele>
        <time>2021-09-05T08:34:44Z</time>
      </trkpt>
      <trkpt lat="44.07439" lon="2.03285">
        <ele>187</ele>
        <time>2021-09-05T08:34:46Z</time>
      </trkpt>
      <trkpt lat="44.07438" lon="2.03293">
        <ele>186.8</ele>
        <time>2021-09-05T08:34:47Z</time>
      </trkpt>
      <trkpt lat="44.07438" lon="2.03299">
        <ele>186.8</ele>
        <time>2021-09-05T08:34:48Z</time>
      </trkpt>
      <trkpt lat="44.07438" lon="2.03307">
        <ele>186.8</ele>
        <time>2021-09-05T08:34:49Z</time>
      </trkpt>
      <trkpt lat="44.07437" lon="2.03313">
        <ele>186.8</ele>
        <time>2021-09-05T08:34:50Z</time>
      </trkpt>
      <trkpt lat="44.07437" lon="2.03321">
        <ele>186.8</ele>
        <time>2021-09-05T08:34:51Z</time>
      </trkpt>
      <trkpt lat="44.07438" lon="2.03328">
        <ele>186.6</ele>
        <time>2021-09-05T08:34:52Z</time>
      </trkpt>
      <trkpt lat="44.07438" lon="2.03334">
        <ele>186.6</ele>
        <time>2021-09-05T08:34:53Z</time>
      </trkpt>
      <trkpt lat="44.07438" lon="2.03341">
        <ele>186.4</ele>
        <time>2021-09-05T08:34:54Z</time>
      </trkpt>
      <trkpt lat="44.07438" lon="2.03348">
        <ele>186.4</ele>
        <time>2021-09-05T08:34:55Z</time>
      </trkpt>
      <trkpt lat="44.07437" lon="2.03356">
        <ele>186.6</ele>
        <time>2021-09-05T08:34:56Z</time>
      </trkpt>
      <trkpt lat="44.07437" lon="2.03389">
        <ele>186.6</ele>
        <time>2021-09-05T08:35:01Z</time>
      </trkpt>
      <trkpt lat="44.07436" lon="2.03396">
        <ele>186.6</ele>
        <time>2021-09-05T08:35:02Z</time>
      </trkpt>
      <trkpt lat="44.07435" lon="2.03414">
        <ele>186.6</ele>
        <time>2021-09-05T08:35:05Z</time>
      </trkpt>
      <trkpt lat="44.07434" lon="2.0342">
        <ele>186.6</ele>
        <time>2021-09-05T08:35:06Z</time>
      </trkpt>
      <trkpt lat="44.07432" lon="2.03426">
        <ele>186.6</ele>
        <time>2021-09-05T08:35:07Z</time>
      </trkpt>
      <trkpt lat="44.07431" lon="2.03429">
        <ele>186.6</ele>
        <time>2021-09-05T08:35:08Z</time>
      </trkpt>
      <trkpt lat="44.07429" lon="2.0343">
        <ele>186.6</ele>
        <time>2021-09-05T08:35:09Z</time>
      </trkpt>
      <trkpt lat="44.07426" lon="2.03431">
        <ele>186.4</ele>
        <time>2021-09-05T08:35:10Z</time>
      </trkpt>
      <trkpt lat="44.07415" lon="2.03432">
        <ele>186.2</ele>
        <time>2021-09-05T08:35:13Z</time>
      </trkpt>
      <trkpt lat="44.0741" lon="2.03434">
        <ele>186</ele>
        <time>2021-09-05T08:35:14Z</time>
      </trkpt>
      <trkpt lat="44.07393" lon="2.03444">
        <ele>185.8</ele>
        <time>2021-09-05T08:35:17Z</time>
      </trkpt>
      <trkpt lat="44.07387" lon="2.03448">
        <ele>185.6</ele>
        <time>2021-09-05T08:35:18Z</time>
      </trkpt>
      <trkpt lat="44.07381" lon="2.03454">
        <ele>185.2</ele>
        <time>2021-09-05T08:35:19Z</time>
      </trkpt>
      <trkpt lat="44.07376" lon="2.0346">
        <ele>185</ele>
        <time>2021-09-05T08:35:20Z</time>
      </trkpt>
      <trkpt lat="44.07373" lon="2.03467">
        <ele>184.4</ele>
        <time>2021-09-05T08:35:21Z</time>
      </trkpt>
      <trkpt lat="44.07372" lon="2.03473">
        <ele>184.2</ele>
        <time>2021-09-05T08:35:22Z</time>
      </trkpt>
      <trkpt lat="44.0737" lon="2.03479">
        <ele>183.8</ele>
        <time>2021-09-05T08:35:23Z</time>
      </trkpt>
      <trkpt lat="44.0737" lon="2.03479">
        <ele>183.6</ele>
        <time>2021-09-05T08:35:24Z</time>
      </trkpt>
      <trkpt lat="44.07365" lon="2.03483">
        <ele>183.4</ele>
        <time>2021-09-05T08:35:25Z</time>
      </trkpt>
      <trkpt lat="44.07361" lon="2.03483">
        <ele>183</ele>
        <time>2021-09-05T08:35:26Z</time>
      </trkpt>
      <trkpt lat="44.07358" lon="2.03482">
        <ele>182.8</ele>
        <time>2021-09-05T08:35:27Z</time>
      </trkpt>
      <trkpt lat="44.07355" lon="2.0348">
        <ele>182.6</ele>
        <time>2021-09-05T08:35:28Z</time>
      </trkpt>
      <trkpt lat="44.07352" lon="2.03479">
        <ele>182.6</ele>
        <time>2021-09-05T08:35:29Z</time>
      </trkpt>
      <trkpt lat="44.07349" lon="2.03478">
        <ele>182.6</ele>
        <time>2021-09-05T08:35:30Z</time>
      </trkpt>
      <trkpt lat="44.07347" lon="2.03477">
        <ele>182.4</ele>
        <time>2021-09-05T08:35:31Z</time>
      </trkpt>
      <trkpt lat="44.07344" lon="2.03476">
        <ele>182.4</ele>
        <time>2021-09-05T08:35:32Z</time>
      </trkpt>
      <trkpt lat="44.07342" lon="2.03475">
        <ele>182.4</ele>
        <time>2021-09-05T08:35:33Z</time>
      </trkpt>
      <trkpt lat="44.0734" lon="2.03475">
        <ele>182.4</ele>
        <time>2021-09-05T08:35:34Z</time>
      </trkpt>
      <trkpt lat="44.07339" lon="2.03474">
        <ele>182.4</ele>
        <time>2021-09-05T08:35:35Z</time>
      </trkpt>
      <trkpt lat="44.07337" lon="2.03473">
        <ele>182.4</ele>
        <time>2021-09-05T08:35:36Z</time>
      </trkpt>
      <trkpt lat="44.07335" lon="2.03471">
        <ele>182.4</ele>
        <time>2021-09-05T08:35:37Z</time>
      </trkpt>
      <trkpt lat="44.07335" lon="2.03471">
        <ele>182.4</ele>
        <time>2021-09-05T08:35:39Z</time>
      </trkpt>
      <trkpt lat="44.07334" lon="2.03471">
        <ele>182.4</ele>
        <time>2021-09-05T08:35:41Z</time>
      </trkpt>
      <trkpt lat="44.07332" lon="2.03472">
        <ele>182.6</ele>
        <time>2021-09-05T08:46:16Z</time>
      </trkpt>
      <trkpt lat="44.07324" lon="2.03473">
        <ele>182.4</ele>
        <time>2021-09-05T08:46:20Z</time>
      </trkpt>
      <trkpt lat="44.07316" lon="2.03471">
        <ele>182.4</ele>
        <time>2021-09-05T08:46:23Z</time>
      </trkpt>
      <trkpt lat="44.0731" lon="2.0347">
        <ele>182.2</ele>
        <time>2021-09-05T08:46:26Z</time>
      </trkpt>
      <trkpt lat="44.07306" lon="2.03469">
        <ele>182</ele>
        <time>2021-09-05T08:46:28Z</time>
      </trkpt>
      <trkpt lat="44.07302" lon="2.03469">
        <ele>181.8</ele>
        <time>2021-09-05T08:46:30Z</time>
      </trkpt>
      <trkpt lat="44.07301" lon="2.03469">
        <ele>181.8</ele>
        <time>2021-09-05T08:46:31Z</time>
      </trkpt>
      <trkpt lat="44.07299" lon="2.03469">
        <ele>181.8</ele>
        <time>2021-09-05T08:46:32Z</time>
      </trkpt>
      <trkpt lat="44.07297" lon="2.03468">
        <ele>181.8</ele>
        <time>2021-09-05T08:46:33Z</time>
      </trkpt>
      <trkpt lat="44.07295" lon="2.03468">
        <ele>181.8</ele>
        <time>2021-09-05T08:46:34Z</time>
      </trkpt>
      <trkpt lat="44.07287" lon="2.0347">
        <ele>181.8</ele>
        <time>2021-09-05T08:46:38Z</time>
      </trkpt>
      <trkpt lat="44.07286" lon="2.03473">
        <ele>181.8</ele>
        <time>2021-09-05T08:46:39Z</time>
      </trkpt>
      <trkpt lat="44.07285" lon="2.03476">
        <ele>181.8</ele>
        <time>2021-09-05T08:46:40Z</time>
      </trkpt>
      <trkpt lat="44.07283" lon="2.03499">
        <ele>182.4</ele>
        <time>2021-09-05T08:46:46Z</time>
      </trkpt>
      <trkpt lat="44.07283" lon="2.03504">
        <ele>182.6</ele>
        <time>2021-09-05T08:46:47Z</time>
      </trkpt>
      <trkpt lat="44.07282" lon="2.03507">
        <ele>182.6</ele>
        <time>2021-09-05T08:46:48Z</time>
      </trkpt>
      <trkpt lat="44.07281" lon="2.03525">
        <ele>183.2</ele>
        <time>2021-09-05T08:46:53Z</time>
      </trkpt>
      <trkpt lat="44.07281" lon="2.03528">
        <ele>183</ele>
        <time>2021-09-05T08:46:54Z</time>
      </trkpt>
      <trkpt lat="44.0728" lon="2.03531">
        <ele>183.4</ele>
        <time>2021-09-05T08:46:55Z</time>
      </trkpt>
      <trkpt lat="44.0728" lon="2.03534">
        <ele>183.4</ele>
        <time>2021-09-05T08:46:56Z</time>
      </trkpt>
      <trkpt lat="44.07279" lon="2.03537">
        <ele>183.2</ele>
        <time>2021-09-05T08:46:57Z</time>
      </trkpt>
      <trkpt lat="44.07278" lon="2.03539">
        <ele>183.6</ele>
        <time>2021-09-05T08:46:58Z</time>
      </trkpt>
      <trkpt lat="44.07278" lon="2.03541">
        <ele>183.8</ele>
        <time>2021-09-05T08:46:59Z</time>
      </trkpt>
      <trkpt lat="44.07278" lon="2.03544">
        <ele>184</ele>
        <time>2021-09-05T08:47:00Z</time>
      </trkpt>
      <trkpt lat="44.07275" lon="2.03553">
        <ele>184.4</ele>
        <time>2021-09-05T08:47:03Z</time>
      </trkpt>
      <trkpt lat="44.07274" lon="2.03555">
        <ele>184.6</ele>
        <time>2021-09-05T08:47:04Z</time>
      </trkpt>
      <trkpt lat="44.07272" lon="2.03555">
        <ele>184.8</ele>
        <time>2021-09-05T08:47:05Z</time>
      </trkpt>
      <trkpt lat="44.0727" lon="2.03555">
        <ele>184.8</ele>
        <time>2021-09-05T08:47:06Z</time>
      </trkpt>
      <trkpt lat="44.07268" lon="2.03554">
        <ele>185</ele>
        <time>2021-09-05T08:47:07Z</time>
      </trkpt>
      <trkpt lat="44.07266" lon="2.03553">
        <ele>185.2</ele>
        <time>2021-09-05T08:47:08Z</time>
      </trkpt>
      <trkpt lat="44.07263" lon="2.03553">
        <ele>185.2</ele>
        <time>2021-09-05T08:47:09Z</time>
      </trkpt>
      <trkpt lat="44.0726" lon="2.03551">
        <ele>185.4</ele>
        <time>2021-09-05T08:47:11Z</time>
      </trkpt>
      <trkpt lat="44.07257" lon="2.03551">
        <ele>185.6</ele>
        <time>2021-09-05T08:47:12Z</time>
      </trkpt>
      <trkpt lat="44.07255" lon="2.03551">
        <ele>185.8</ele>
        <time>2021-09-05T08:47:13Z</time>
      </trkpt>
      <trkpt lat="44.07253" lon="2.03551">
        <ele>186</ele>
        <time>2021-09-05T08:47:14Z</time>
      </trkpt>
      <trkpt lat="44.0725" lon="2.03551">
        <ele>186</ele>
        <time>2021-09-05T08:47:15Z</time>
      </trkpt>
      <trkpt lat="44.07248" lon="2.03551">
        <ele>186.2</ele>
        <time>2021-09-05T08:47:16Z</time>
      </trkpt>
      <trkpt lat="44.07247" lon="2.0355">
        <ele>186.2</ele>
        <time>2021-09-05T08:47:17Z</time>
      </trkpt>
      <trkpt lat="44.07245" lon="2.0355">
        <ele>186.2</ele>
        <time>2021-09-05T08:47:18Z</time>
      </trkpt>
      <trkpt lat="44.07243" lon="2.03549">
        <ele>186.2</ele>
        <time>2021-09-05T08:47:19Z</time>
      </trkpt>
      <trkpt lat="44.07241" lon="2.03548">
        <ele>186.4</ele>
        <time>2021-09-05T08:47:20Z</time>
      </trkpt>
      <trkpt lat="44.07239" lon="2.03548">
        <ele>186.6</ele>
        <time>2021-09-05T08:47:21Z</time>
      </trkpt>
      <trkpt lat="44.07236" lon="2.03548">
        <ele>186.6</ele>
        <time>2021-09-05T08:47:22Z</time>
      </trkpt>
      <trkpt lat="44.07234" lon="2.0355">
        <ele>186.8</ele>
        <time>2021-09-05T08:47:23Z</time>
      </trkpt>
      <trkpt lat="44.07232" lon="2.03551">
        <ele>186.8</ele>
        <time>2021-09-05T08:47:24Z</time>
      </trkpt>
      <trkpt lat="44.0723" lon="2.03554">
        <ele>186.8</ele>
        <time>2021-09-05T08:47:25Z</time>
      </trkpt>
      <trkpt lat="44.07229" lon="2.03556">
        <ele>187</ele>
        <time>2021-09-05T08:47:26Z</time>
      </trkpt>
      <trkpt lat="44.07227" lon="2.03558">
        <ele>187</ele>
        <time>2021-09-05T08:47:27Z</time>
      </trkpt>
      <trkpt lat="44.07226" lon="2.0356">
        <ele>187</ele>
        <time>2021-09-05T08:47:28Z</time>
      </trkpt>
      <trkpt lat="44.07224" lon="2.03563">
        <ele>187</ele>
        <time>2021-09-05T08:47:29Z</time>
      </trkpt>
      <trkpt lat="44.07221" lon="2.03566">
        <ele>187.2</ele>
        <time>2021-09-05T08:47:30Z</time>
      </trkpt>
      <trkpt lat="44.07219" lon="2.03568">
        <ele>187.2</ele>
        <time>2021-09-05T08:47:31Z</time>
      </trkpt>
      <trkpt lat="44.07216" lon="2.03569">
        <ele>187.2</ele>
        <time>2021-09-05T08:47:32Z</time>
      </trkpt>
      <trkpt lat="44.07214" lon="2.03571">
        <ele>187.4</ele>
        <time>2021-09-05T08:47:33Z</time>
      </trkpt>
      <trkpt lat="44.07206" lon="2.03571">
        <ele>187.6</ele>
        <time>2021-09-05T08:47:36Z</time>
      </trkpt>
      <trkpt lat="44.07199" lon="2.0357">
        <ele>187.8</ele>
        <time>2021-09-05T08:47:38Z</time>
      </trkpt>
      <trkpt lat="44.07183" lon="2.03562">
        <ele>188.6</ele>
        <time>2021-09-05T08:47:44Z</time>
      </trkpt>
      <trkpt lat="44.0718" lon="2.0356">
        <ele>188.6</ele>
        <time>2021-09-05T08:47:45Z</time>
      </trkpt>
      <trkpt lat="44.07171" lon="2.03557">
        <ele>188.8</ele>
        <time>2021-09-05T08:47:48Z</time>
      </trkpt>
      <trkpt lat="44.07168" lon="2.03557">
        <ele>189</ele>
        <time>2021-09-05T08:47:49Z</time>
      </trkpt>
      <trkpt lat="44.07166" lon="2.03558">
        <ele>189</ele>
        <time>2021-09-05T08:47:50Z</time>
      </trkpt>
      <trkpt lat="44.07163" lon="2.03559">
        <ele>189</ele>
        <time>2021-09-05T08:47:51Z</time>
      </trkpt>
      <trkpt lat="44.07161" lon="2.03561">
        <ele>189.2</ele>
        <time>2021-09-05T08:47:52Z</time>
      </trkpt>
      <trkpt lat="44.07159" lon="2.03563">
        <ele>189.2</ele>
        <time>2021-09-05T08:47:53Z</time>
      </trkpt>
      <trkpt lat="44.07158" lon="2.03566">
        <ele>189.4</ele>
        <time>2021-09-05T08:47:54Z</time>
      </trkpt>
      <trkpt lat="44.07156" lon="2.0357">
        <ele>189.4</ele>
        <time>2021-09-05T08:47:55Z</time>
      </trkpt>
      <trkpt lat="44.07154" lon="2.03573">
        <ele>189.6</ele>
        <time>2021-09-05T08:47:56Z</time>
      </trkpt>
      <trkpt lat="44.07151" lon="2.03579">
        <ele>190.2</ele>
        <time>2021-09-05T08:47:58Z</time>
      </trkpt>
      <trkpt lat="44.07149" lon="2.03584">
        <ele>190.4</ele>
        <time>2021-09-05T08:48:00Z</time>
      </trkpt>
      <trkpt lat="44.07148" lon="2.03587">
        <ele>190.4</ele>
        <time>2021-09-05T08:48:01Z</time>
      </trkpt>
      <trkpt lat="44.07146" lon="2.0359">
        <ele>190.6</ele>
        <time>2021-09-05T08:48:02Z</time>
      </trkpt>
      <trkpt lat="44.07142" lon="2.036">
        <ele>190.8</ele>
        <time>2021-09-05T08:48:05Z</time>
      </trkpt>
      <trkpt lat="44.0714" lon="2.03604">
        <ele>191</ele>
        <time>2021-09-05T08:48:06Z</time>
      </trkpt>
      <trkpt lat="44.07138" lon="2.03607">
        <ele>191.2</ele>
        <time>2021-09-05T08:48:07Z</time>
      </trkpt>
      <trkpt lat="44.07137" lon="2.0361">
        <ele>191.2</ele>
        <time>2021-09-05T08:48:08Z</time>
      </trkpt>
      <trkpt lat="44.07135" lon="2.03614">
        <ele>191.4</ele>
        <time>2021-09-05T08:48:09Z</time>
      </trkpt>
      <trkpt lat="44.07133" lon="2.03617">
        <ele>191.6</ele>
        <time>2021-09-05T08:48:10Z</time>
      </trkpt>
      <trkpt lat="44.07132" lon="2.0362">
        <ele>191.6</ele>
        <time>2021-09-05T08:48:11Z</time>
      </trkpt>
      <trkpt lat="44.07131" lon="2.03623">
        <ele>191.8</ele>
        <time>2021-09-05T08:48:12Z</time>
      </trkpt>
      <trkpt lat="44.07129" lon="2.03627">
        <ele>192</ele>
        <time>2021-09-05T08:48:13Z</time>
      </trkpt>
      <trkpt lat="44.07127" lon="2.0363">
        <ele>192</ele>
        <time>2021-09-05T08:48:14Z</time>
      </trkpt>
      <trkpt lat="44.07125" lon="2.03633">
        <ele>192.2</ele>
        <time>2021-09-05T08:48:15Z</time>
      </trkpt>
      <trkpt lat="44.07124" lon="2.03637">
        <ele>192.4</ele>
        <time>2021-09-05T08:48:16Z</time>
      </trkpt>
      <trkpt lat="44.07122" lon="2.0364">
        <ele>192.4</ele>
        <time>2021-09-05T08:48:17Z</time>
      </trkpt>
      <trkpt lat="44.07121" lon="2.03643">
        <ele>192.6</ele>
        <time>2021-09-05T08:48:18Z</time>
      </trkpt>
      <trkpt lat="44.0712" lon="2.03646">
        <ele>192.8</ele>
        <time>2021-09-05T08:48:19Z</time>
      </trkpt>
      <trkpt lat="44.07119" lon="2.03648">
        <ele>193</ele>
        <time>2021-09-05T08:48:20Z</time>
      </trkpt>
      <trkpt lat="44.07118" lon="2.03651">
        <ele>193</ele>
        <time>2021-09-05T08:48:21Z</time>
      </trkpt>
      <trkpt lat="44.07116" lon="2.03653">
        <ele>193.2</ele>
        <time>2021-09-05T08:48:22Z</time>
      </trkpt>
      <trkpt lat="44.07115" lon="2.03656">
        <ele>193.4</ele>
        <time>2021-09-05T08:48:23Z</time>
      </trkpt>
      <trkpt lat="44.07114" lon="2.03659">
        <ele>193.4</ele>
        <time>2021-09-05T08:48:24Z</time>
      </trkpt>
      <trkpt lat="44.07113" lon="2.03662">
        <ele>193.6</ele>
        <time>2021-09-05T08:48:25Z</time>
      </trkpt>
      <trkpt lat="44.07111" lon="2.03665">
        <ele>193.6</ele>
        <time>2021-09-05T08:48:26Z</time>
      </trkpt>
      <trkpt lat="44.0711" lon="2.03667">
        <ele>193.8</ele>
        <time>2021-09-05T08:48:27Z</time>
      </trkpt>
      <trkpt lat="44.07109" lon="2.03669">
        <ele>194</ele>
        <time>2021-09-05T08:48:28Z</time>
      </trkpt>
      <trkpt lat="44.07108" lon="2.03672">
        <ele>194</ele>
        <time>2021-09-05T08:48:29Z</time>
      </trkpt>
      <trkpt lat="44.07107" lon="2.03675">
        <ele>194.4</ele>
        <time>2021-09-05T08:48:30Z</time>
      </trkpt>
      <trkpt lat="44.07106" lon="2.03677">
        <ele>194.4</ele>
        <time>2021-09-05T08:48:31Z</time>
      </trkpt>
      <trkpt lat="44.07106" lon="2.03677">
        <ele>194.6</ele>
        <time>2021-09-05T08:48:32Z</time>
      </trkpt>
      <trkpt lat="44.07104" lon="2.03682">
        <ele>194.8</ele>
        <time>2021-09-05T08:48:33Z</time>
      </trkpt>
      <trkpt lat="44.07103" lon="2.03684">
        <ele>195</ele>
        <time>2021-09-05T08:48:34Z</time>
      </trkpt>
      <trkpt lat="44.07102" lon="2.03687">
        <ele>195</ele>
        <time>2021-09-05T08:48:35Z</time>
      </trkpt>
      <trkpt lat="44.07102" lon="2.03688">
        <ele>195.2</ele>
        <time>2021-09-05T08:48:36Z</time>
      </trkpt>
      <trkpt lat="44.07101" lon="2.0369">
        <ele>195.4</ele>
        <time>2021-09-05T08:48:37Z</time>
      </trkpt>
      <trkpt lat="44.071" lon="2.03692">
        <ele>195.4</ele>
        <time>2021-09-05T08:48:38Z</time>
      </trkpt>
      <trkpt lat="44.07098" lon="2.03695">
        <ele>195.6</ele>
        <time>2021-09-05T08:48:39Z</time>
      </trkpt>
      <trkpt lat="44.07097" lon="2.03697">
        <ele>195.8</ele>
        <time>2021-09-05T08:48:40Z</time>
      </trkpt>
      <trkpt lat="44.07096" lon="2.03699">
        <ele>196</ele>
        <time>2021-09-05T08:48:41Z</time>
      </trkpt>
      <trkpt lat="44.07094" lon="2.03702">
        <ele>196</ele>
        <time>2021-09-05T08:48:42Z</time>
      </trkpt>
      <trkpt lat="44.07093" lon="2.03704">
        <ele>196.4</ele>
        <time>2021-09-05T08:48:43Z</time>
      </trkpt>
      <trkpt lat="44.07091" lon="2.03706">
        <ele>196.6</ele>
        <time>2021-09-05T08:48:44Z</time>
      </trkpt>
      <trkpt lat="44.07089" lon="2.03708">
        <ele>196.8</ele>
        <time>2021-09-05T08:48:45Z</time>
      </trkpt>
      <trkpt lat="44.07088" lon="2.0371">
        <ele>197</ele>
        <time>2021-09-05T08:48:46Z</time>
      </trkpt>
      <trkpt lat="44.07087" lon="2.03711">
        <ele>197</ele>
        <time>2021-09-05T08:48:47Z</time>
      </trkpt>
      <trkpt lat="44.07085" lon="2.03713">
        <ele>197.6</ele>
        <time>2021-09-05T08:48:48Z</time>
      </trkpt>
      <trkpt lat="44.07083" lon="2.03714">
        <ele>197.6</ele>
        <time>2021-09-05T08:48:49Z</time>
      </trkpt>
      <trkpt lat="44.07081" lon="2.03714">
        <ele>198</ele>
        <time>2021-09-05T08:48:50Z</time>
      </trkpt>
      <trkpt lat="44.07079" lon="2.03713">
        <ele>198</ele>
        <time>2021-09-05T08:48:51Z</time>
      </trkpt>
      <trkpt lat="44.07077" lon="2.03713">
        <ele>198.2</ele>
        <time>2021-09-05T08:48:52Z</time>
      </trkpt>
      <trkpt lat="44.07075" lon="2.03711">
        <ele>198.4</ele>
        <time>2021-09-05T08:48:53Z</time>
      </trkpt>
      <trkpt lat="44.07074" lon="2.0371">
        <ele>198.6</ele>
        <time>2021-09-05T08:48:54Z</time>
      </trkpt>
      <trkpt lat="44.07072" lon="2.03709">
        <ele>198.6</ele>
        <time>2021-09-05T08:48:55Z</time>
      </trkpt>
      <trkpt lat="44.07071" lon="2.03707">
        <ele>198.8</ele>
        <time>2021-09-05T08:48:56Z</time>
      </trkpt>
      <trkpt lat="44.0707" lon="2.03705">
        <ele>199</ele>
        <time>2021-09-05T08:48:57Z</time>
      </trkpt>
      <trkpt lat="44.07069" lon="2.03703">
        <ele>199.2</ele>
        <time>2021-09-05T08:48:58Z</time>
      </trkpt>
      <trkpt lat="44.07067" lon="2.037">
        <ele>199.6</ele>
        <time>2021-09-05T08:48:59Z</time>
      </trkpt>
      <trkpt lat="44.07066" lon="2.03698">
        <ele>199.6</ele>
        <time>2021-09-05T08:49:00Z</time>
      </trkpt>
      <trkpt lat="44.07065" lon="2.03695">
        <ele>200</ele>
        <time>2021-09-05T08:49:01Z</time>
      </trkpt>
      <trkpt lat="44.07065" lon="2.03694">
        <ele>200.2</ele>
        <time>2021-09-05T08:49:02Z</time>
      </trkpt>
      <trkpt lat="44.07064" lon="2.03691">
        <ele>200.4</ele>
        <time>2021-09-05T08:49:03Z</time>
      </trkpt>
      <trkpt lat="44.07062" lon="2.03688">
        <ele>200.6</ele>
        <time>2021-09-05T08:49:04Z</time>
      </trkpt>
      <trkpt lat="44.07061" lon="2.03685">
        <ele>200.8</ele>
        <time>2021-09-05T08:49:05Z</time>
      </trkpt>
      <trkpt lat="44.07061" lon="2.03683">
        <ele>201</ele>
        <time>2021-09-05T08:49:06Z</time>
      </trkpt>
      <trkpt lat="44.0706" lon="2.03681">
        <ele>201.2</ele>
        <time>2021-09-05T08:49:07Z</time>
      </trkpt>
      <trkpt lat="44.07059" lon="2.03679">
        <ele>201.4</ele>
        <time>2021-09-05T08:49:08Z</time>
      </trkpt>
      <trkpt lat="44.07058" lon="2.03676">
        <ele>201.6</ele>
        <time>2021-09-05T08:49:09Z</time>
      </trkpt>
      <trkpt lat="44.07057" lon="2.03674">
        <ele>201.6</ele>
        <time>2021-09-05T08:49:10Z</time>
      </trkpt>
      <trkpt lat="44.07057" lon="2.03672">
        <ele>201.8</ele>
        <time>2021-09-05T08:49:11Z</time>
      </trkpt>
      <trkpt lat="44.07056" lon="2.03669">
        <ele>201.8</ele>
        <time>2021-09-05T08:49:12Z</time>
      </trkpt>
      <trkpt lat="44.07055" lon="2.03667">
        <ele>202.2</ele>
        <time>2021-09-05T08:49:13Z</time>
      </trkpt>
      <trkpt lat="44.07054" lon="2.03665">
        <ele>202.4</ele>
        <time>2021-09-05T08:49:14Z</time>
      </trkpt>
      <trkpt lat="44.07053" lon="2.03663">
        <ele>202.8</ele>
        <time>2021-09-05T08:49:15Z</time>
      </trkpt>
      <trkpt lat="44.07053" lon="2.0366">
        <ele>203</ele>
        <time>2021-09-05T08:49:16Z</time>
      </trkpt>
      <trkpt lat="44.07052" lon="2.03658">
        <ele>203.2</ele>
        <time>2021-09-05T08:49:17Z</time>
      </trkpt>
      <trkpt lat="44.07051" lon="2.03655">
        <ele>203.4</ele>
        <time>2021-09-05T08:49:18Z</time>
      </trkpt>
      <trkpt lat="44.07051" lon="2.03653">
        <ele>203.6</ele>
        <time>2021-09-05T08:49:19Z</time>
      </trkpt>
      <trkpt lat="44.07049" lon="2.03652">
        <ele>203.8</ele>
        <time>2021-09-05T08:49:20Z</time>
      </trkpt>
      <trkpt lat="44.07048" lon="2.0365">
        <ele>203.8</ele>
        <time>2021-09-05T08:49:21Z</time>
      </trkpt>
      <trkpt lat="44.07047" lon="2.03648">
        <ele>204.2</ele>
        <time>2021-09-05T08:49:22Z</time>
      </trkpt>
      <trkpt lat="44.07047" lon="2.03645">
        <ele>204.2</ele>
        <time>2021-09-05T08:49:23Z</time>
      </trkpt>
      <trkpt lat="44.07046" lon="2.03643">
        <ele>204.4</ele>
        <time>2021-09-05T08:49:24Z</time>
      </trkpt>
      <trkpt lat="44.07045" lon="2.03641">
        <ele>204.6</ele>
        <time>2021-09-05T08:49:25Z</time>
      </trkpt>
      <trkpt lat="44.07044" lon="2.03639">
        <ele>204.8</ele>
        <time>2021-09-05T08:49:26Z</time>
      </trkpt>
      <trkpt lat="44.07044" lon="2.03637">
        <ele>205</ele>
        <time>2021-09-05T08:49:27Z</time>
      </trkpt>
      <trkpt lat="44.07043" lon="2.03635">
        <ele>205.2</ele>
        <time>2021-09-05T08:49:28Z</time>
      </trkpt>
      <trkpt lat="44.07042" lon="2.03632">
        <ele>205.4</ele>
        <time>2021-09-05T08:49:29Z</time>
      </trkpt>
      <trkpt lat="44.07042" lon="2.0363">
        <ele>205.6</ele>
        <time>2021-09-05T08:49:30Z</time>
      </trkpt>
      <trkpt lat="44.07041" lon="2.03628">
        <ele>205.8</ele>
        <time>2021-09-05T08:49:31Z</time>
      </trkpt>
      <trkpt lat="44.0704" lon="2.03625">
        <ele>206</ele>
        <time>2021-09-05T08:49:32Z</time>
      </trkpt>
      <trkpt lat="44.0704" lon="2.03623">
        <ele>206.2</ele>
        <time>2021-09-05T08:49:33Z</time>
      </trkpt>
      <trkpt lat="44.07039" lon="2.03621">
        <ele>206.4</ele>
        <time>2021-09-05T08:49:34Z</time>
      </trkpt>
      <trkpt lat="44.07039" lon="2.03619">
        <ele>206.4</ele>
        <time>2021-09-05T08:49:35Z</time>
      </trkpt>
      <trkpt lat="44.07038" lon="2.03617">
        <ele>206.6</ele>
        <time>2021-09-05T08:49:36Z</time>
      </trkpt>
      <trkpt lat="44.07038" lon="2.03615">
        <ele>206.8</ele>
        <time>2021-09-05T08:49:37Z</time>
      </trkpt>
      <trkpt lat="44.07037" lon="2.03613">
        <ele>207</ele>
        <time>2021-09-05T08:49:38Z</time>
      </trkpt>
      <trkpt lat="44.07036" lon="2.03611">
        <ele>207.4</ele>
        <time>2021-09-05T08:49:39Z</time>
      </trkpt>
      <trkpt lat="44.07035" lon="2.03609">
        <ele>207.4</ele>
        <time>2021-09-05T08:49:40Z</time>
      </trkpt>
      <trkpt lat="44.07033" lon="2.03607">
        <ele>207.8</ele>
        <time>2021-09-05T08:49:41Z</time>
      </trkpt>
      <trkpt lat="44.07033" lon="2.03604">
        <ele>208</ele>
        <time>2021-09-05T08:49:42Z</time>
      </trkpt>
      <trkpt lat="44.07032" lon="2.03602">
        <ele>208.2</ele>
        <time>2021-09-05T08:49:43Z</time>
      </trkpt>
      <trkpt lat="44.07031" lon="2.036">
        <ele>208.2</ele>
        <time>2021-09-05T08:49:44Z</time>
      </trkpt>
      <trkpt lat="44.07029" lon="2.03598">
        <ele>208.2</ele>
        <time>2021-09-05T08:49:45Z</time>
      </trkpt>
      <trkpt lat="44.07028" lon="2.03596">
        <ele>208.4</ele>
        <time>2021-09-05T08:49:46Z</time>
      </trkpt>
      <trkpt lat="44.07027" lon="2.03595">
        <ele>208.6</ele>
        <time>2021-09-05T08:49:47Z</time>
      </trkpt>
      <trkpt lat="44.07026" lon="2.03593">
        <ele>209</ele>
        <time>2021-09-05T08:49:48Z</time>
      </trkpt>
      <trkpt lat="44.07025" lon="2.03591">
        <ele>209</ele>
        <time>2021-09-05T08:49:49Z</time>
      </trkpt>
      <trkpt lat="44.07024" lon="2.03589">
        <ele>209.4</ele>
        <time>2021-09-05T08:49:50Z</time>
      </trkpt>
      <trkpt lat="44.07022" lon="2.03587">
        <ele>209.4</ele>
        <time>2021-09-05T08:49:51Z</time>
      </trkpt>
      <trkpt lat="44.07019" lon="2.03584">
        <ele>209.8</ele>
        <time>2021-09-05T08:49:52Z</time>
      </trkpt>
      <trkpt lat="44.07017" lon="2.03581">
        <ele>209.8</ele>
        <time>2021-09-05T08:49:53Z</time>
      </trkpt>
      <trkpt lat="44.07015" lon="2.03579">
        <ele>210.2</ele>
        <time>2021-09-05T08:49:54Z</time>
      </trkpt>
      <trkpt lat="44.07014" lon="2.03578">
        <ele>210.4</ele>
        <time>2021-09-05T08:49:55Z</time>
      </trkpt>
      <trkpt lat="44.07011" lon="2.03577">
        <ele>210.4</ele>
        <time>2021-09-05T08:49:56Z</time>
      </trkpt>
      <trkpt lat="44.07009" lon="2.03578">
        <ele>210.6</ele>
        <time>2021-09-05T08:49:57Z</time>
      </trkpt>
      <trkpt lat="44.07007" lon="2.03578">
        <ele>210.6</ele>
        <time>2021-09-05T08:49:58Z</time>
      </trkpt>
      <trkpt lat="44.07005" lon="2.03577">
        <ele>210.8</ele>
        <time>2021-09-05T08:49:59Z</time>
      </trkpt>
      <trkpt lat="44.07002" lon="2.03577">
        <ele>211</ele>
        <time>2021-09-05T08:50:00Z</time>
      </trkpt>
      <trkpt lat="44.07001" lon="2.03577">
        <ele>211.2</ele>
        <time>2021-09-05T08:50:01Z</time>
      </trkpt>
      <trkpt lat="44.06999" lon="2.03577">
        <ele>211.6</ele>
        <time>2021-09-05T08:50:02Z</time>
      </trkpt>
      <trkpt lat="44.06996" lon="2.03577">
        <ele>211.6</ele>
        <time>2021-09-05T08:50:03Z</time>
      </trkpt>
      <trkpt lat="44.06994" lon="2.03577">
        <ele>212</ele>
        <time>2021-09-05T08:50:04Z</time>
      </trkpt>
      <trkpt lat="44.06993" lon="2.03577">
        <ele>212</ele>
        <time>2021-09-05T08:50:05Z</time>
      </trkpt>
      <trkpt lat="44.06991" lon="2.03578">
        <ele>212.4</ele>
        <time>2021-09-05T08:50:06Z</time>
      </trkpt>
      <trkpt lat="44.06989" lon="2.03578">
        <ele>212.4</ele>
        <time>2021-09-05T08:50:07Z</time>
      </trkpt>
      <trkpt lat="44.06988" lon="2.03578">
        <ele>212.6</ele>
        <time>2021-09-05T08:50:08Z</time>
      </trkpt>
      <trkpt lat="44.06986" lon="2.03579">
        <ele>212.8</ele>
        <time>2021-09-05T08:50:09Z</time>
      </trkpt>
      <trkpt lat="44.06984" lon="2.03579">
        <ele>213</ele>
        <time>2021-09-05T08:50:10Z</time>
      </trkpt>
      <trkpt lat="44.06983" lon="2.0358">
        <ele>213.2</ele>
        <time>2021-09-05T08:50:11Z</time>
      </trkpt>
      <trkpt lat="44.06981" lon="2.03581">
        <ele>213.4</ele>
        <time>2021-09-05T08:50:12Z</time>
      </trkpt>
      <trkpt lat="44.0698" lon="2.03582">
        <ele>213.8</ele>
        <time>2021-09-05T08:50:13Z</time>
      </trkpt>
      <trkpt lat="44.06978" lon="2.03582">
        <ele>213.8</ele>
        <time>2021-09-05T08:50:14Z</time>
      </trkpt>
      <trkpt lat="44.06977" lon="2.03583">
        <ele>214</ele>
        <time>2021-09-05T08:50:15Z</time>
      </trkpt>
      <trkpt lat="44.06975" lon="2.03583">
        <ele>214.2</ele>
        <time>2021-09-05T08:50:16Z</time>
      </trkpt>
      <trkpt lat="44.06974" lon="2.03584">
        <ele>214.4</ele>
        <time>2021-09-05T08:50:17Z</time>
      </trkpt>
      <trkpt lat="44.06972" lon="2.03585">
        <ele>214.6</ele>
        <time>2021-09-05T08:50:18Z</time>
      </trkpt>
      <trkpt lat="44.0697" lon="2.03585">
        <ele>214.8</ele>
        <time>2021-09-05T08:50:19Z</time>
      </trkpt>
      <trkpt lat="44.06969" lon="2.03585">
        <ele>215</ele>
        <time>2021-09-05T08:50:20Z</time>
      </trkpt>
      <trkpt lat="44.06967" lon="2.03586">
        <ele>215.2</ele>
        <time>2021-09-05T08:50:21Z</time>
      </trkpt>
      <trkpt lat="44.06965" lon="2.03586">
        <ele>215.4</ele>
        <time>2021-09-05T08:50:22Z</time>
      </trkpt>
      <trkpt lat="44.06963" lon="2.03586">
        <ele>215.4</ele>
        <time>2021-09-05T08:50:23Z</time>
      </trkpt>
      <trkpt lat="44.06961" lon="2.03586">
        <ele>215.8</ele>
        <time>2021-09-05T08:50:24Z</time>
      </trkpt>
      <trkpt lat="44.06959" lon="2.03586">
        <ele>215.8</ele>
        <time>2021-09-05T08:50:25Z</time>
      </trkpt>
      <trkpt lat="44.06959" lon="2.03586">
        <ele>216</ele>
        <time>2021-09-05T08:50:26Z</time>
      </trkpt>
      <trkpt lat="44.06956" lon="2.03585">
        <ele>216.2</ele>
        <time>2021-09-05T08:50:27Z</time>
      </trkpt>
      <trkpt lat="44.06954" lon="2.03585">
        <ele>216.2</ele>
        <time>2021-09-05T08:50:28Z</time>
      </trkpt>
      <trkpt lat="44.06952" lon="2.03585">
        <ele>216.4</ele>
        <time>2021-09-05T08:50:29Z</time>
      </trkpt>
      <trkpt lat="44.0695" lon="2.03585">
        <ele>216.4</ele>
        <time>2021-09-05T08:50:30Z</time>
      </trkpt>
      <trkpt lat="44.06948" lon="2.03584">
        <ele>216.6</ele>
        <time>2021-09-05T08:50:31Z</time>
      </trkpt>
      <trkpt lat="44.06946" lon="2.03584">
        <ele>216.8</ele>
        <time>2021-09-05T08:50:32Z</time>
      </trkpt>
      <trkpt lat="44.06945" lon="2.03584">
        <ele>217</ele>
        <time>2021-09-05T08:50:33Z</time>
      </trkpt>
      <trkpt lat="44.06943" lon="2.03584">
        <ele>217</ele>
        <time>2021-09-05T08:50:34Z</time>
      </trkpt>
      <trkpt lat="44.0694" lon="2.03583">
        <ele>217</ele>
        <time>2021-09-05T08:50:35Z</time>
      </trkpt>
      <trkpt lat="44.06939" lon="2.03583">
        <ele>217.2</ele>
        <time>2021-09-05T08:50:36Z</time>
      </trkpt>
      <trkpt lat="44.06937" lon="2.03583">
        <ele>217.4</ele>
        <time>2021-09-05T08:50:37Z</time>
      </trkpt>
      <trkpt lat="44.06936" lon="2.03583">
        <ele>217.4</ele>
        <time>2021-09-05T08:50:38Z</time>
      </trkpt>
      <trkpt lat="44.06933" lon="2.03582">
        <ele>217.6</ele>
        <time>2021-09-05T08:50:39Z</time>
      </trkpt>
      <trkpt lat="44.06931" lon="2.03582">
        <ele>217.8</ele>
        <time>2021-09-05T08:50:40Z</time>
      </trkpt>
      <trkpt lat="44.06928" lon="2.03582">
        <ele>218</ele>
        <time>2021-09-05T08:50:41Z</time>
      </trkpt>
      <trkpt lat="44.06926" lon="2.03582">
        <ele>218</ele>
        <time>2021-09-05T08:50:42Z</time>
      </trkpt>
      <trkpt lat="44.06923" lon="2.03581">
        <ele>218.2</ele>
        <time>2021-09-05T08:50:43Z</time>
      </trkpt>
      <trkpt lat="44.06921" lon="2.03581">
        <ele>218.2</ele>
        <time>2021-09-05T08:50:44Z</time>
      </trkpt>
      <trkpt lat="44.06919" lon="2.0358">
        <ele>218.4</ele>
        <time>2021-09-05T08:50:45Z</time>
      </trkpt>
      <trkpt lat="44.06917" lon="2.03581">
        <ele>218.4</ele>
        <time>2021-09-05T08:50:46Z</time>
      </trkpt>
      <trkpt lat="44.06917" lon="2.03581">
        <ele>218.4</ele>
        <time>2021-09-05T08:50:47Z</time>
      </trkpt>
      <trkpt lat="44.06914" lon="2.0358">
        <ele>218.6</ele>
        <time>2021-09-05T08:50:48Z</time>
      </trkpt>
      <trkpt lat="44.06914" lon="2.0358">
        <ele>218.6</ele>
        <time>2021-09-05T08:50:49Z</time>
      </trkpt>
      <trkpt lat="44.06909" lon="2.03578">
        <ele>218.8</ele>
        <time>2021-09-05T08:50:50Z</time>
      </trkpt>
      <trkpt lat="44.06906" lon="2.03576">
        <ele>218.8</ele>
        <time>2021-09-05T08:50:51Z</time>
      </trkpt>
      <trkpt lat="44.06906" lon="2.03576">
        <ele>219</ele>
        <time>2021-09-05T08:50:52Z</time>
      </trkpt>
      <trkpt lat="44.069" lon="2.03575">
        <ele>219</ele>
        <time>2021-09-05T08:50:53Z</time>
      </trkpt>
      <trkpt lat="44.06897" lon="2.03575">
        <ele>219</ele>
        <time>2021-09-05T08:50:54Z</time>
      </trkpt>
      <trkpt lat="44.06894" lon="2.03575">
        <ele>219.2</ele>
        <time>2021-09-05T08:50:55Z</time>
      </trkpt>
      <trkpt lat="44.06892" lon="2.03574">
        <ele>219.2</ele>
        <time>2021-09-05T08:50:56Z</time>
      </trkpt>
      <trkpt lat="44.06889" lon="2.03574">
        <ele>219.2</ele>
        <time>2021-09-05T08:50:57Z</time>
      </trkpt>
      <trkpt lat="44.06887" lon="2.03573">
        <ele>219.2</ele>
        <time>2021-09-05T08:50:58Z</time>
      </trkpt>
      <trkpt lat="44.06886" lon="2.03572">
        <ele>219.4</ele>
        <time>2021-09-05T08:50:59Z</time>
      </trkpt>
      <trkpt lat="44.06883" lon="2.03572">
        <ele>219.4</ele>
        <time>2021-09-05T08:51:00Z</time>
      </trkpt>
      <trkpt lat="44.06882" lon="2.03573">
        <ele>219.4</ele>
        <time>2021-09-05T08:51:01Z</time>
      </trkpt>
      <trkpt lat="44.0688" lon="2.03573">
        <ele>219.4</ele>
        <time>2021-09-05T08:51:02Z</time>
      </trkpt>
      <trkpt lat="44.06866" lon="2.03573">
        <ele>220.4</ele>
        <time>2021-09-05T08:51:07Z</time>
      </trkpt>
      <trkpt lat="44.06864" lon="2.03574">
        <ele>220.6</ele>
        <time>2021-09-05T08:51:08Z</time>
      </trkpt>
      <trkpt lat="44.06862" lon="2.03575">
        <ele>220.6</ele>
        <time>2021-09-05T08:51:09Z</time>
      </trkpt>
      <trkpt lat="44.0686" lon="2.03577">
        <ele>220.8</ele>
        <time>2021-09-05T08:51:10Z</time>
      </trkpt>
      <trkpt lat="44.06857" lon="2.03577">
        <ele>221</ele>
        <time>2021-09-05T08:51:11Z</time>
      </trkpt>
      <trkpt lat="44.06855" lon="2.03578">
        <ele>221.2</ele>
        <time>2021-09-05T08:51:12Z</time>
      </trkpt>
      <trkpt lat="44.06852" lon="2.0358">
        <ele>221.4</ele>
        <time>2021-09-05T08:51:13Z</time>
      </trkpt>
      <trkpt lat="44.06851" lon="2.03581">
        <ele>221.4</ele>
        <time>2021-09-05T08:51:14Z</time>
      </trkpt>
      <trkpt lat="44.06847" lon="2.03581">
        <ele>221.6</ele>
        <time>2021-09-05T08:51:15Z</time>
      </trkpt>
      <trkpt lat="44.06843" lon="2.03583">
        <ele>221.6</ele>
        <time>2021-09-05T08:51:16Z</time>
      </trkpt>
      <trkpt lat="44.06841" lon="2.03584">
        <ele>221.8</ele>
        <time>2021-09-05T08:51:17Z</time>
      </trkpt>
      <trkpt lat="44.06837" lon="2.03586">
        <ele>222</ele>
        <time>2021-09-05T08:51:18Z</time>
      </trkpt>
      <trkpt lat="44.06835" lon="2.03588">
        <ele>222.4</ele>
        <time>2021-09-05T08:51:19Z</time>
      </trkpt>
      <trkpt lat="44.06833" lon="2.03591">
        <ele>222.6</ele>
        <time>2021-09-05T08:51:20Z</time>
      </trkpt>
      <trkpt lat="44.06831" lon="2.03593">
        <ele>222.6</ele>
        <time>2021-09-05T08:51:21Z</time>
      </trkpt>
      <trkpt lat="44.06829" lon="2.03594">
        <ele>222.8</ele>
        <time>2021-09-05T08:51:22Z</time>
      </trkpt>
      <trkpt lat="44.06828" lon="2.03593">
        <ele>222.8</ele>
        <time>2021-09-05T08:51:23Z</time>
      </trkpt>
      <trkpt lat="44.06827" lon="2.03593">
        <ele>223</ele>
        <time>2021-09-05T08:51:24Z</time>
      </trkpt>
      <trkpt lat="44.06825" lon="2.03591">
        <ele>223</ele>
        <time>2021-09-05T08:51:25Z</time>
      </trkpt>
      <trkpt lat="44.06825" lon="2.03589">
        <ele>223.2</ele>
        <time>2021-09-05T08:51:26Z</time>
      </trkpt>
      <trkpt lat="44.06823" lon="2.03587">
        <ele>223.4</ele>
        <time>2021-09-05T08:51:27Z</time>
      </trkpt>
      <trkpt lat="44.06821" lon="2.03584">
        <ele>223.6</ele>
        <time>2021-09-05T08:51:28Z</time>
      </trkpt>
      <trkpt lat="44.06819" lon="2.03582">
        <ele>223.8</ele>
        <time>2021-09-05T08:51:29Z</time>
      </trkpt>
      <trkpt lat="44.06818" lon="2.0358">
        <ele>223.8</ele>
        <time>2021-09-05T08:51:30Z</time>
      </trkpt>
      <trkpt lat="44.06817" lon="2.03577">
        <ele>224</ele>
        <time>2021-09-05T08:51:31Z</time>
      </trkpt>
      <trkpt lat="44.06818" lon="2.03575">
        <ele>224</ele>
        <time>2021-09-05T08:51:32Z</time>
      </trkpt>
      <trkpt lat="44.06818" lon="2.03572">
        <ele>224</ele>
        <time>2021-09-05T08:51:33Z</time>
      </trkpt>
      <trkpt lat="44.06818" lon="2.03569">
        <ele>224.2</ele>
        <time>2021-09-05T08:51:34Z</time>
      </trkpt>
      <trkpt lat="44.06818" lon="2.03569">
        <ele>224.2</ele>
        <time>2021-09-05T08:51:35Z</time>
      </trkpt>
      <trkpt lat="44.06819" lon="2.03561">
        <ele>224.2</ele>
        <time>2021-09-05T08:51:36Z</time>
      </trkpt>
      <trkpt lat="44.0682" lon="2.03557">
        <ele>224.4</ele>
        <time>2021-09-05T08:51:37Z</time>
      </trkpt>
      <trkpt lat="44.06821" lon="2.03553">
        <ele>224.4</ele>
        <time>2021-09-05T08:51:38Z</time>
      </trkpt>
      <trkpt lat="44.06823" lon="2.03549">
        <ele>224.4</ele>
        <time>2021-09-05T08:51:39Z</time>
      </trkpt>
      <trkpt lat="44.06825" lon="2.03546">
        <ele>224.4</ele>
        <time>2021-09-05T08:51:40Z</time>
      </trkpt>
      <trkpt lat="44.06827" lon="2.03543">
        <ele>224.4</ele>
        <time>2021-09-05T08:51:41Z</time>
      </trkpt>
      <trkpt lat="44.06828" lon="2.0354">
        <ele>224.4</ele>
        <time>2021-09-05T08:51:42Z</time>
      </trkpt>
      <trkpt lat="44.06829" lon="2.03538">
        <ele>224.4</ele>
        <time>2021-09-05T08:51:43Z</time>
      </trkpt>
      <trkpt lat="44.06831" lon="2.03535">
        <ele>224.4</ele>
        <time>2021-09-05T08:51:44Z</time>
      </trkpt>
      <trkpt lat="44.06834" lon="2.03531">
        <ele>224.4</ele>
        <time>2021-09-05T08:51:45Z</time>
      </trkpt>
      <trkpt lat="44.06836" lon="2.03528">
        <ele>224.4</ele>
        <time>2021-09-05T08:51:46Z</time>
      </trkpt>
      <trkpt lat="44.06838" lon="2.03523">
        <ele>224.4</ele>
        <time>2021-09-05T08:51:47Z</time>
      </trkpt>
      <trkpt lat="44.06842" lon="2.03514">
        <ele>224.4</ele>
        <time>2021-09-05T08:51:49Z</time>
      </trkpt>
      <trkpt lat="44.06846" lon="2.03505">
        <ele>224.4</ele>
        <time>2021-09-05T08:51:51Z</time>
      </trkpt>
      <trkpt lat="44.06849" lon="2.03501">
        <ele>224.6</ele>
        <time>2021-09-05T08:51:52Z</time>
      </trkpt>
      <trkpt lat="44.06851" lon="2.03497">
        <ele>224.4</ele>
        <time>2021-09-05T08:51:53Z</time>
      </trkpt>
      <trkpt lat="44.06855" lon="2.03487">
        <ele>224.8</ele>
        <time>2021-09-05T08:51:55Z</time>
      </trkpt>
      <trkpt lat="44.06857" lon="2.03484">
        <ele>225</ele>
        <time>2021-09-05T08:51:56Z</time>
      </trkpt>
      <trkpt lat="44.06858" lon="2.0348">
        <ele>225.2</ele>
        <time>2021-09-05T08:51:57Z</time>
      </trkpt>
      <trkpt lat="44.0686" lon="2.03477">
        <ele>225.4</ele>
        <time>2021-09-05T08:51:58Z</time>
      </trkpt>
      <trkpt lat="44.0686" lon="2.03477">
        <ele>225.6</ele>
        <time>2021-09-05T08:51:59Z</time>
      </trkpt>
      <trkpt lat="44.06868" lon="2.03459">
        <ele>226</ele>
        <time>2021-09-05T08:52:02Z</time>
      </trkpt>
      <trkpt lat="44.06868" lon="2.03456">
        <ele>226.2</ele>
        <time>2021-09-05T08:52:03Z</time>
      </trkpt>
      <trkpt lat="44.06869" lon="2.03454">
        <ele>226.4</ele>
        <time>2021-09-05T08:52:04Z</time>
      </trkpt>
      <trkpt lat="44.06873" lon="2.03449">
        <ele>227</ele>
        <time>2021-09-05T08:52:06Z</time>
      </trkpt>
      <trkpt lat="44.06875" lon="2.03447">
        <ele>227</ele>
        <time>2021-09-05T08:52:07Z</time>
      </trkpt>
      <trkpt lat="44.06876" lon="2.0344">
        <ele>227.2</ele>
        <time>2021-09-05T08:52:09Z</time>
      </trkpt>
      <trkpt lat="44.06877" lon="2.03437">
        <ele>227.4</ele>
        <time>2021-09-05T08:52:10Z</time>
      </trkpt>
      <trkpt lat="44.06877" lon="2.03437">
        <ele>227.6</ele>
        <time>2021-09-05T08:52:11Z</time>
      </trkpt>
      <trkpt lat="44.0688" lon="2.0343">
        <ele>227.8</ele>
        <time>2021-09-05T08:52:12Z</time>
      </trkpt>
      <trkpt lat="44.0688" lon="2.03427">
        <ele>228</ele>
        <time>2021-09-05T08:52:13Z</time>
      </trkpt>
      <trkpt lat="44.06882" lon="2.03423">
        <ele>228.2</ele>
        <time>2021-09-05T08:52:14Z</time>
      </trkpt>
      <trkpt lat="44.06883" lon="2.0342">
        <ele>228.6</ele>
        <time>2021-09-05T08:52:15Z</time>
      </trkpt>
      <trkpt lat="44.06885" lon="2.03416">
        <ele>228.6</ele>
        <time>2021-09-05T08:52:16Z</time>
      </trkpt>
      <trkpt lat="44.06886" lon="2.03413">
        <ele>229</ele>
        <time>2021-09-05T08:52:17Z</time>
      </trkpt>
      <trkpt lat="44.06888" lon="2.0341">
        <ele>229</ele>
        <time>2021-09-05T08:52:18Z</time>
      </trkpt>
      <trkpt lat="44.0689" lon="2.03406">
        <ele>229.2</ele>
        <time>2021-09-05T08:52:19Z</time>
      </trkpt>
      <trkpt lat="44.06891" lon="2.03402">
        <ele>229.2</ele>
        <time>2021-09-05T08:52:20Z</time>
      </trkpt>
      <trkpt lat="44.06892" lon="2.03398">
        <ele>229.4</ele>
        <time>2021-09-05T08:52:21Z</time>
      </trkpt>
      <trkpt lat="44.06893" lon="2.03395">
        <ele>229.4</ele>
        <time>2021-09-05T08:52:22Z</time>
      </trkpt>
      <trkpt lat="44.06895" lon="2.03392">
        <ele>229.4</ele>
        <time>2021-09-05T08:52:23Z</time>
      </trkpt>
      <trkpt lat="44.06896" lon="2.03389">
        <ele>229.4</ele>
        <time>2021-09-05T08:52:24Z</time>
      </trkpt>
      <trkpt lat="44.06897" lon="2.03385">
        <ele>229.4</ele>
        <time>2021-09-05T08:52:25Z</time>
      </trkpt>
      <trkpt lat="44.06898" lon="2.03382">
        <ele>229.8</ele>
        <time>2021-09-05T08:52:26Z</time>
      </trkpt>
      <trkpt lat="44.069" lon="2.03378">
        <ele>230</ele>
        <time>2021-09-05T08:52:27Z</time>
      </trkpt>
      <trkpt lat="44.06902" lon="2.03373">
        <ele>230.2</ele>
        <time>2021-09-05T08:52:28Z</time>
      </trkpt>
      <trkpt lat="44.06904" lon="2.03369">
        <ele>230.6</ele>
        <time>2021-09-05T08:52:29Z</time>
      </trkpt>
      <trkpt lat="44.06906" lon="2.03366">
        <ele>230.6</ele>
        <time>2021-09-05T08:52:30Z</time>
      </trkpt>
      <trkpt lat="44.06908" lon="2.03362">
        <ele>230.8</ele>
        <time>2021-09-05T08:52:31Z</time>
      </trkpt>
      <trkpt lat="44.06909" lon="2.03358">
        <ele>230.8</ele>
        <time>2021-09-05T08:52:32Z</time>
      </trkpt>
      <trkpt lat="44.06911" lon="2.03354">
        <ele>231</ele>
        <time>2021-09-05T08:52:33Z</time>
      </trkpt>
      <trkpt lat="44.06913" lon="2.0335">
        <ele>231</ele>
        <time>2021-09-05T08:52:34Z</time>
      </trkpt>
      <trkpt lat="44.06914" lon="2.03346">
        <ele>231.2</ele>
        <time>2021-09-05T08:52:35Z</time>
      </trkpt>
      <trkpt lat="44.06916" lon="2.03343">
        <ele>231.6</ele>
        <time>2021-09-05T08:52:36Z</time>
      </trkpt>
      <trkpt lat="44.06916" lon="2.0334">
        <ele>231.6</ele>
        <time>2021-09-05T08:52:37Z</time>
      </trkpt>
      <trkpt lat="44.06918" lon="2.03337">
        <ele>232</ele>
        <time>2021-09-05T08:52:38Z</time>
      </trkpt>
      <trkpt lat="44.0692" lon="2.03334">
        <ele>232.4</ele>
        <time>2021-09-05T08:52:39Z</time>
      </trkpt>
      <trkpt lat="44.06922" lon="2.03331">
        <ele>232.6</ele>
        <time>2021-09-05T08:52:40Z</time>
      </trkpt>
      <trkpt lat="44.06923" lon="2.03329">
        <ele>232.8</ele>
        <time>2021-09-05T08:52:41Z</time>
      </trkpt>
      <trkpt lat="44.06924" lon="2.03327">
        <ele>232.8</ele>
        <time>2021-09-05T08:52:42Z</time>
      </trkpt>
      <trkpt lat="44.06926" lon="2.03324">
        <ele>233</ele>
        <time>2021-09-05T08:52:43Z</time>
      </trkpt>
      <trkpt lat="44.06927" lon="2.03321">
        <ele>233</ele>
        <time>2021-09-05T08:52:44Z</time>
      </trkpt>
      <trkpt lat="44.06929" lon="2.03317">
        <ele>233.2</ele>
        <time>2021-09-05T08:52:45Z</time>
      </trkpt>
      <trkpt lat="44.06931" lon="2.03315">
        <ele>233.4</ele>
        <time>2021-09-05T08:52:46Z</time>
      </trkpt>
      <trkpt lat="44.06932" lon="2.03313">
        <ele>233.8</ele>
        <time>2021-09-05T08:52:47Z</time>
      </trkpt>
      <trkpt lat="44.06933" lon="2.03311">
        <ele>234</ele>
        <time>2021-09-05T08:52:48Z</time>
      </trkpt>
      <trkpt lat="44.06934" lon="2.03308">
        <ele>234.4</ele>
        <time>2021-09-05T08:52:49Z</time>
      </trkpt>
      <trkpt lat="44.06934" lon="2.03307">
        <ele>234.4</ele>
        <time>2021-09-05T08:52:50Z</time>
      </trkpt>
      <trkpt lat="44.06935" lon="2.03304">
        <ele>234.6</ele>
        <time>2021-09-05T08:52:51Z</time>
      </trkpt>
      <trkpt lat="44.06936" lon="2.03303">
        <ele>234.8</ele>
        <time>2021-09-05T08:52:52Z</time>
      </trkpt>
      <trkpt lat="44.06937" lon="2.033">
        <ele>234.8</ele>
        <time>2021-09-05T08:52:53Z</time>
      </trkpt>
      <trkpt lat="44.06938" lon="2.03298">
        <ele>235.2</ele>
        <time>2021-09-05T08:52:54Z</time>
      </trkpt>
      <trkpt lat="44.0694" lon="2.03295">
        <ele>235.2</ele>
        <time>2021-09-05T08:52:55Z</time>
      </trkpt>
      <trkpt lat="44.06941" lon="2.03292">
        <ele>235.4</ele>
        <time>2021-09-05T08:52:56Z</time>
      </trkpt>
      <trkpt lat="44.06941" lon="2.03291">
        <ele>235.6</ele>
        <time>2021-09-05T08:52:57Z</time>
      </trkpt>
      <trkpt lat="44.06942" lon="2.03288">
        <ele>235.8</ele>
        <time>2021-09-05T08:52:58Z</time>
      </trkpt>
      <trkpt lat="44.06942" lon="2.03286">
        <ele>236.2</ele>
        <time>2021-09-05T08:52:59Z</time>
      </trkpt>
      <trkpt lat="44.06942" lon="2.03283">
        <ele>236.4</ele>
        <time>2021-09-05T08:53:00Z</time>
      </trkpt>
      <trkpt lat="44.06943" lon="2.03281">
        <ele>236.6</ele>
        <time>2021-09-05T08:53:01Z</time>
      </trkpt>
      <trkpt lat="44.06943" lon="2.03278">
        <ele>236.6</ele>
        <time>2021-09-05T08:53:02Z</time>
      </trkpt>
      <trkpt lat="44.06943" lon="2.03276">
        <ele>236.8</ele>
        <time>2021-09-05T08:53:03Z</time>
      </trkpt>
      <trkpt lat="44.06942" lon="2.03274">
        <ele>236.8</ele>
        <time>2021-09-05T08:53:04Z</time>
      </trkpt>
      <trkpt lat="44.06941" lon="2.03272">
        <ele>237.2</ele>
        <time>2021-09-05T08:53:05Z</time>
      </trkpt>
      <trkpt lat="44.06941" lon="2.0327">
        <ele>237.4</ele>
        <time>2021-09-05T08:53:06Z</time>
      </trkpt>
      <trkpt lat="44.06941" lon="2.03268">
        <ele>237.4</ele>
        <time>2021-09-05T08:53:07Z</time>
      </trkpt>
      <trkpt lat="44.06941" lon="2.03266">
        <ele>237.8</ele>
        <time>2021-09-05T08:53:08Z</time>
      </trkpt>
      <trkpt lat="44.0694" lon="2.03264">
        <ele>238</ele>
        <time>2021-09-05T08:53:09Z</time>
      </trkpt>
      <trkpt lat="44.0694" lon="2.03262">
        <ele>238.2</ele>
        <time>2021-09-05T08:53:10Z</time>
      </trkpt>
      <trkpt lat="44.0694" lon="2.03262">
        <ele>238.6</ele>
        <time>2021-09-05T08:53:11Z</time>
      </trkpt>
      <trkpt lat="44.06939" lon="2.03259">
        <ele>239</ele>
        <time>2021-09-05T08:53:12Z</time>
      </trkpt>
      <trkpt lat="44.06938" lon="2.03258">
        <ele>239.2</ele>
        <time>2021-09-05T08:53:13Z</time>
      </trkpt>
      <trkpt lat="44.06938" lon="2.03257">
        <ele>239.6</ele>
        <time>2021-09-05T08:53:14Z</time>
      </trkpt>
      <trkpt lat="44.06937" lon="2.03254">
        <ele>240</ele>
        <time>2021-09-05T08:53:15Z</time>
      </trkpt>
      <trkpt lat="44.06936" lon="2.03252">
        <ele>240</ele>
        <time>2021-09-05T08:53:16Z</time>
      </trkpt>
      <trkpt lat="44.06936" lon="2.03249">
        <ele>240.4</ele>
        <time>2021-09-05T08:53:17Z</time>
      </trkpt>
      <trkpt lat="44.06935" lon="2.03247">
        <ele>240.4</ele>
        <time>2021-09-05T08:53:18Z</time>
      </trkpt>
      <trkpt lat="44.06934" lon="2.03244">
        <ele>240.6</ele>
        <time>2021-09-05T08:53:19Z</time>
      </trkpt>
      <trkpt lat="44.06932" lon="2.03242">
        <ele>240.8</ele>
        <time>2021-09-05T08:53:20Z</time>
      </trkpt>
      <trkpt lat="44.06931" lon="2.03239">
        <ele>240.8</ele>
        <time>2021-09-05T08:53:21Z</time>
      </trkpt>
      <trkpt lat="44.06929" lon="2.03236">
        <ele>241</ele>
        <time>2021-09-05T08:53:22Z</time>
      </trkpt>
      <trkpt lat="44.06929" lon="2.03234">
        <ele>241.2</ele>
        <time>2021-09-05T08:53:23Z</time>
      </trkpt>
      <trkpt lat="44.06928" lon="2.03232">
        <ele>241.4</ele>
        <time>2021-09-05T08:53:24Z</time>
      </trkpt>
      <trkpt lat="44.06927" lon="2.03229">
        <ele>241.4</ele>
        <time>2021-09-05T08:53:25Z</time>
      </trkpt>
      <trkpt lat="44.06927" lon="2.03228">
        <ele>241.6</ele>
        <time>2021-09-05T08:53:26Z</time>
      </trkpt>
      <trkpt lat="44.06926" lon="2.03227">
        <ele>241.6</ele>
        <time>2021-09-05T08:53:27Z</time>
      </trkpt>
      <trkpt lat="44.06926" lon="2.03227">
        <ele>241.8</ele>
        <time>2021-09-05T08:53:28Z</time>
      </trkpt>
      <trkpt lat="44.06925" lon="2.03224">
        <ele>242.4</ele>
        <time>2021-09-05T08:53:29Z</time>
      </trkpt>
      <trkpt lat="44.06925" lon="2.03223">
        <ele>242.4</ele>
        <time>2021-09-05T08:53:30Z</time>
      </trkpt>
      <trkpt lat="44.06925" lon="2.03223">
        <ele>242.4</ele>
        <time>2021-09-05T08:53:31Z</time>
      </trkpt>
      <trkpt lat="44.06924" lon="2.03219">
        <ele>242.6</ele>
        <time>2021-09-05T08:53:32Z</time>
      </trkpt>
      <trkpt lat="44.06922" lon="2.03217">
        <ele>243</ele>
        <time>2021-09-05T08:53:33Z</time>
      </trkpt>
      <trkpt lat="44.06922" lon="2.03215">
        <ele>243.2</ele>
        <time>2021-09-05T08:53:34Z</time>
      </trkpt>
      <trkpt lat="44.06923" lon="2.03212">
        <ele>243.4</ele>
        <time>2021-09-05T08:53:35Z</time>
      </trkpt>
      <trkpt lat="44.06921" lon="2.03209">
        <ele>243.4</ele>
        <time>2021-09-05T08:53:36Z</time>
      </trkpt>
      <trkpt lat="44.06921" lon="2.03205">
        <ele>243.8</ele>
        <time>2021-09-05T08:53:37Z</time>
      </trkpt>
      <trkpt lat="44.0692" lon="2.03203">
        <ele>244</ele>
        <time>2021-09-05T08:53:38Z</time>
      </trkpt>
      <trkpt lat="44.06919" lon="2.03201">
        <ele>244</ele>
        <time>2021-09-05T08:53:39Z</time>
      </trkpt>
      <trkpt lat="44.06918" lon="2.032">
        <ele>244.2</ele>
        <time>2021-09-05T08:53:40Z</time>
      </trkpt>
      <trkpt lat="44.06916" lon="2.03198">
        <ele>244.2</ele>
        <time>2021-09-05T08:53:41Z</time>
      </trkpt>
      <trkpt lat="44.06915" lon="2.03196">
        <ele>244.4</ele>
        <time>2021-09-05T08:53:42Z</time>
      </trkpt>
      <trkpt lat="44.06914" lon="2.03194">
        <ele>244.4</ele>
        <time>2021-09-05T08:53:43Z</time>
      </trkpt>
      <trkpt lat="44.06913" lon="2.03191">
        <ele>244.6</ele>
        <time>2021-09-05T08:53:44Z</time>
      </trkpt>
      <trkpt lat="44.06914" lon="2.03188">
        <ele>244.8</ele>
        <time>2021-09-05T08:53:45Z</time>
      </trkpt>
      <trkpt lat="44.06914" lon="2.03188">
        <ele>245</ele>
        <time>2021-09-05T08:53:46Z</time>
      </trkpt>
      <trkpt lat="44.06915" lon="2.03181">
        <ele>245.2</ele>
        <time>2021-09-05T08:53:47Z</time>
      </trkpt>
      <trkpt lat="44.06915" lon="2.03179">
        <ele>245.2</ele>
        <time>2021-09-05T08:53:48Z</time>
      </trkpt>
      <trkpt lat="44.06915" lon="2.03176">
        <ele>245.4</ele>
        <time>2021-09-05T08:53:49Z</time>
      </trkpt>
      <trkpt lat="44.06915" lon="2.03173">
        <ele>245.6</ele>
        <time>2021-09-05T08:53:50Z</time>
      </trkpt>
      <trkpt lat="44.06915" lon="2.0317">
        <ele>245.8</ele>
        <time>2021-09-05T08:53:51Z</time>
      </trkpt>
      <trkpt lat="44.06915" lon="2.03168">
        <ele>246</ele>
        <time>2021-09-05T08:53:52Z</time>
      </trkpt>
      <trkpt lat="44.06915" lon="2.03167">
        <ele>246.2</ele>
        <time>2021-09-05T08:53:53Z</time>
      </trkpt>
      <trkpt lat="44.06916" lon="2.03165">
        <ele>246.6</ele>
        <time>2021-09-05T08:53:54Z</time>
      </trkpt>
      <trkpt lat="44.06916" lon="2.03162">
        <ele>246.8</ele>
        <time>2021-09-05T08:53:55Z</time>
      </trkpt>
      <trkpt lat="44.06916" lon="2.03162">
        <ele>247.2</ele>
        <time>2021-09-05T08:53:56Z</time>
      </trkpt>
      <trkpt lat="44.06916" lon="2.03159">
        <ele>247.2</ele>
        <time>2021-09-05T08:53:57Z</time>
      </trkpt>
      <trkpt lat="44.06916" lon="2.03158">
        <ele>247.4</ele>
        <time>2021-09-05T08:53:58Z</time>
      </trkpt>
      <trkpt lat="44.06916" lon="2.03157">
        <ele>247.6</ele>
        <time>2021-09-05T08:53:59Z</time>
      </trkpt>
      <trkpt lat="44.06916" lon="2.03155">
        <ele>247.8</ele>
        <time>2021-09-05T08:54:00Z</time>
      </trkpt>
      <trkpt lat="44.06917" lon="2.03153">
        <ele>248</ele>
        <time>2021-09-05T08:54:01Z</time>
      </trkpt>
      <trkpt lat="44.06917" lon="2.03152">
        <ele>248</ele>
        <time>2021-09-05T08:54:02Z</time>
      </trkpt>
      <trkpt lat="44.06917" lon="2.0315">
        <ele>248.2</ele>
        <time>2021-09-05T08:54:03Z</time>
      </trkpt>
      <trkpt lat="44.06917" lon="2.03148">
        <ele>248.4</ele>
        <time>2021-09-05T08:54:04Z</time>
      </trkpt>
      <trkpt lat="44.06917" lon="2.03146">
        <ele>248.6</ele>
        <time>2021-09-05T08:54:05Z</time>
      </trkpt>
      <trkpt lat="44.06918" lon="2.03145">
        <ele>249</ele>
        <time>2021-09-05T08:54:06Z</time>
      </trkpt>
      <trkpt lat="44.06917" lon="2.03143">
        <ele>249.2</ele>
        <time>2021-09-05T08:54:07Z</time>
      </trkpt>
      <trkpt lat="44.06917" lon="2.03141">
        <ele>249.6</ele>
        <time>2021-09-05T08:54:08Z</time>
      </trkpt>
      <trkpt lat="44.06917" lon="2.03138">
        <ele>249.6</ele>
        <time>2021-09-05T08:54:09Z</time>
      </trkpt>
      <trkpt lat="44.06917" lon="2.03135">
        <ele>249.8</ele>
        <time>2021-09-05T08:54:10Z</time>
      </trkpt>
      <trkpt lat="44.06917" lon="2.03133">
        <ele>250</ele>
        <time>2021-09-05T08:54:11Z</time>
      </trkpt>
      <trkpt lat="44.06917" lon="2.03131">
        <ele>250.2</ele>
        <time>2021-09-05T08:54:12Z</time>
      </trkpt>
      <trkpt lat="44.06916" lon="2.03129">
        <ele>250.2</ele>
        <time>2021-09-05T08:54:13Z</time>
      </trkpt>
      <trkpt lat="44.06916" lon="2.03128">
        <ele>250.4</ele>
        <time>2021-09-05T08:54:14Z</time>
      </trkpt>
      <trkpt lat="44.06917" lon="2.03126">
        <ele>250.6</ele>
        <time>2021-09-05T08:54:15Z</time>
      </trkpt>
      <trkpt lat="44.06917" lon="2.03124">
        <ele>250.8</ele>
        <time>2021-09-05T08:54:16Z</time>
      </trkpt>
      <trkpt lat="44.06916" lon="2.03122">
        <ele>251</ele>
        <time>2021-09-05T08:54:17Z</time>
      </trkpt>
      <trkpt lat="44.06917" lon="2.03121">
        <ele>251.2</ele>
        <time>2021-09-05T08:54:18Z</time>
      </trkpt>
      <trkpt lat="44.06917" lon="2.03119">
        <ele>251.4</ele>
        <time>2021-09-05T08:54:19Z</time>
      </trkpt>
      <trkpt lat="44.06917" lon="2.03119">
        <ele>251.6</ele>
        <time>2021-09-05T08:54:20Z</time>
      </trkpt>
      <trkpt lat="44.06917" lon="2.03119">
        <ele>252.2</ele>
        <time>2021-09-05T08:54:21Z</time>
      </trkpt>
      <trkpt lat="44.06917" lon="2.03116">
        <ele>252.4</ele>
        <time>2021-09-05T08:54:22Z</time>
      </trkpt>
      <trkpt lat="44.06915" lon="2.03115">
        <ele>252.6</ele>
        <time>2021-09-05T08:54:23Z</time>
      </trkpt>
      <trkpt lat="44.06914" lon="2.03113">
        <ele>252.8</ele>
        <time>2021-09-05T08:54:24Z</time>
      </trkpt>
      <trkpt lat="44.06914" lon="2.0311">
        <ele>252.8</ele>
        <time>2021-09-05T08:54:25Z</time>
      </trkpt>
      <trkpt lat="44.06914" lon="2.0311">
        <ele>253</ele>
        <time>2021-09-05T08:54:26Z</time>
      </trkpt>
      <trkpt lat="44.06913" lon="2.03103">
        <ele>253</ele>
        <time>2021-09-05T08:54:27Z</time>
      </trkpt>
      <trkpt lat="44.06912" lon="2.031">
        <ele>253.2</ele>
        <time>2021-09-05T08:54:28Z</time>
      </trkpt>
      <trkpt lat="44.06911" lon="2.03099">
        <ele>253.2</ele>
        <time>2021-09-05T08:54:29Z</time>
      </trkpt>
      <trkpt lat="44.06911" lon="2.03097">
        <ele>253.4</ele>
        <time>2021-09-05T08:54:30Z</time>
      </trkpt>
      <trkpt lat="44.06909" lon="2.03095">
        <ele>253.4</ele>
        <time>2021-09-05T08:54:31Z</time>
      </trkpt>
      <trkpt lat="44.06905" lon="2.03091">
        <ele>253.4</ele>
        <time>2021-09-05T08:54:32Z</time>
      </trkpt>
      <trkpt lat="44.06904" lon="2.03087">
        <ele>253.6</ele>
        <time>2021-09-05T08:54:33Z</time>
      </trkpt>
      <trkpt lat="44.06903" lon="2.03083">
        <ele>253.8</ele>
        <time>2021-09-05T08:54:34Z</time>
      </trkpt>
      <trkpt lat="44.06903" lon="2.03079">
        <ele>253.8</ele>
        <time>2021-09-05T08:54:35Z</time>
      </trkpt>
      <trkpt lat="44.06903" lon="2.03077">
        <ele>254</ele>
        <time>2021-09-05T08:54:36Z</time>
      </trkpt>
      <trkpt lat="44.06902" lon="2.03074">
        <ele>254</ele>
        <time>2021-09-05T08:54:37Z</time>
      </trkpt>
      <trkpt lat="44.06901" lon="2.03071">
        <ele>254.2</ele>
        <time>2021-09-05T08:54:38Z</time>
      </trkpt>
      <trkpt lat="44.06901" lon="2.03069">
        <ele>254.4</ele>
        <time>2021-09-05T08:54:39Z</time>
      </trkpt>
      <trkpt lat="44.06901" lon="2.03067">
        <ele>254.6</ele>
        <time>2021-09-05T08:54:40Z</time>
      </trkpt>
      <trkpt lat="44.06901" lon="2.03064">
        <ele>254.6</ele>
        <time>2021-09-05T08:54:41Z</time>
      </trkpt>
      <trkpt lat="44.069" lon="2.03063">
        <ele>254.8</ele>
        <time>2021-09-05T08:54:42Z</time>
      </trkpt>
      <trkpt lat="44.069" lon="2.03062">
        <ele>254.8</ele>
        <time>2021-09-05T08:54:43Z</time>
      </trkpt>
      <trkpt lat="44.069" lon="2.03062">
        <ele>255</ele>
        <time>2021-09-05T08:54:44Z</time>
      </trkpt>
      <trkpt lat="44.06897" lon="2.0306">
        <ele>255.2</ele>
        <time>2021-09-05T08:54:45Z</time>
      </trkpt>
      <trkpt lat="44.06894" lon="2.03058">
        <ele>255.2</ele>
        <time>2021-09-05T08:54:46Z</time>
      </trkpt>
      <trkpt lat="44.06893" lon="2.03056">
        <ele>255.6</ele>
        <time>2021-09-05T08:54:47Z</time>
      </trkpt>
      <trkpt lat="44.06892" lon="2.03054">
        <ele>255.6</ele>
        <time>2021-09-05T08:54:48Z</time>
      </trkpt>
      <trkpt lat="44.06891" lon="2.03053">
        <ele>255.8</ele>
        <time>2021-09-05T08:54:49Z</time>
      </trkpt>
      <trkpt lat="44.06891" lon="2.03052">
        <ele>256</ele>
        <time>2021-09-05T08:54:50Z</time>
      </trkpt>
      <trkpt lat="44.06892" lon="2.0305">
        <ele>256.4</ele>
        <time>2021-09-05T08:54:51Z</time>
      </trkpt>
      <trkpt lat="44.06892" lon="2.03047">
        <ele>256.6</ele>
        <time>2021-09-05T08:54:52Z</time>
      </trkpt>
      <trkpt lat="44.0689" lon="2.03043">
        <ele>256.8</ele>
        <time>2021-09-05T08:54:53Z</time>
      </trkpt>
      <trkpt lat="44.06887" lon="2.03041">
        <ele>257</ele>
        <time>2021-09-05T08:54:54Z</time>
      </trkpt>
      <trkpt lat="44.06885" lon="2.0304">
        <ele>257.2</ele>
        <time>2021-09-05T08:54:55Z</time>
      </trkpt>
      <trkpt lat="44.06882" lon="2.03039">
        <ele>257.2</ele>
        <time>2021-09-05T08:54:56Z</time>
      </trkpt>
      <trkpt lat="44.0688" lon="2.03037">
        <ele>257.4</ele>
        <time>2021-09-05T08:54:57Z</time>
      </trkpt>
      <trkpt lat="44.0688" lon="2.03037">
        <ele>257.6</ele>
        <time>2021-09-05T08:54:58Z</time>
      </trkpt>
      <trkpt lat="44.06877" lon="2.03034">
        <ele>257.8</ele>
        <time>2021-09-05T08:54:59Z</time>
      </trkpt>
      <trkpt lat="44.06877" lon="2.03034">
        <ele>258.2</ele>
        <time>2021-09-05T08:55:00Z</time>
      </trkpt>
      <trkpt lat="44.06875" lon="2.0303">
        <ele>258.2</ele>
        <time>2021-09-05T08:55:01Z</time>
      </trkpt>
      <trkpt lat="44.06874" lon="2.03028">
        <ele>258.4</ele>
        <time>2021-09-05T08:55:02Z</time>
      </trkpt>
      <trkpt lat="44.06874" lon="2.03028">
        <ele>258.6</ele>
        <time>2021-09-05T08:55:03Z</time>
      </trkpt>
      <trkpt lat="44.06872" lon="2.03026">
        <ele>258.6</ele>
        <time>2021-09-05T08:55:04Z</time>
      </trkpt>
      <trkpt lat="44.06871" lon="2.03025">
        <ele>258.8</ele>
        <time>2021-09-05T08:55:05Z</time>
      </trkpt>
      <trkpt lat="44.0687" lon="2.03023">
        <ele>259</ele>
        <time>2021-09-05T08:55:06Z</time>
      </trkpt>
      <trkpt lat="44.06868" lon="2.03022">
        <ele>259.2</ele>
        <time>2021-09-05T08:55:07Z</time>
      </trkpt>
      <trkpt lat="44.06867" lon="2.0302">
        <ele>259.4</ele>
        <time>2021-09-05T08:55:08Z</time>
      </trkpt>
      <trkpt lat="44.06867" lon="2.03019">
        <ele>259.4</ele>
        <time>2021-09-05T08:55:09Z</time>
      </trkpt>
      <trkpt lat="44.06866" lon="2.03017">
        <ele>259.6</ele>
        <time>2021-09-05T08:55:10Z</time>
      </trkpt>
      <trkpt lat="44.06865" lon="2.03016">
        <ele>259.8</ele>
        <time>2021-09-05T08:55:11Z</time>
      </trkpt>
      <trkpt lat="44.06864" lon="2.03014">
        <ele>259.8</ele>
        <time>2021-09-05T08:55:12Z</time>
      </trkpt>
      <trkpt lat="44.06863" lon="2.03012">
        <ele>260</ele>
        <time>2021-09-05T08:55:13Z</time>
      </trkpt>
      <trkpt lat="44.06862" lon="2.03011">
        <ele>260</ele>
        <time>2021-09-05T08:55:14Z</time>
      </trkpt>
      <trkpt lat="44.06862" lon="2.03009">
        <ele>260.2</ele>
        <time>2021-09-05T08:55:15Z</time>
      </trkpt>
      <trkpt lat="44.06861" lon="2.03008">
        <ele>260.4</ele>
        <time>2021-09-05T08:55:16Z</time>
      </trkpt>
      <trkpt lat="44.0686" lon="2.03006">
        <ele>260.4</ele>
        <time>2021-09-05T08:55:17Z</time>
      </trkpt>
      <trkpt lat="44.0686" lon="2.03006">
        <ele>260.6</ele>
        <time>2021-09-05T08:55:18Z</time>
      </trkpt>
      <trkpt lat="44.06859" lon="2.03003">
        <ele>260.8</ele>
        <time>2021-09-05T08:55:19Z</time>
      </trkpt>
      <trkpt lat="44.06858" lon="2.03002">
        <ele>261</ele>
        <time>2021-09-05T08:55:20Z</time>
      </trkpt>
      <trkpt lat="44.06857" lon="2.03001">
        <ele>261.2</ele>
        <time>2021-09-05T08:55:21Z</time>
      </trkpt>
      <trkpt lat="44.06857" lon="2.02999">
        <ele>261.2</ele>
        <time>2021-09-05T08:55:22Z</time>
      </trkpt>
      <trkpt lat="44.06856" lon="2.02998">
        <ele>261.8</ele>
        <time>2021-09-05T08:55:23Z</time>
      </trkpt>
      <trkpt lat="44.06855" lon="2.02997">
        <ele>262</ele>
        <time>2021-09-05T08:55:24Z</time>
      </trkpt>
      <trkpt lat="44.06854" lon="2.02995">
        <ele>262.2</ele>
        <time>2021-09-05T08:55:25Z</time>
      </trkpt>
      <trkpt lat="44.06852" lon="2.02994">
        <ele>262.2</ele>
        <time>2021-09-05T08:55:26Z</time>
      </trkpt>
      <trkpt lat="44.06851" lon="2.02993">
        <ele>262.2</ele>
        <time>2021-09-05T08:55:27Z</time>
      </trkpt>
      <trkpt lat="44.0685" lon="2.02991">
        <ele>262.6</ele>
        <time>2021-09-05T08:55:28Z</time>
      </trkpt>
      <trkpt lat="44.06849" lon="2.02989">
        <ele>262.6</ele>
        <time>2021-09-05T08:55:29Z</time>
      </trkpt>
      <trkpt lat="44.06849" lon="2.02989">
        <ele>262.8</ele>
        <time>2021-09-05T08:55:30Z</time>
      </trkpt>
      <trkpt lat="44.06847" lon="2.02985">
        <ele>263.2</ele>
        <time>2021-09-05T08:55:31Z</time>
      </trkpt>
      <trkpt lat="44.06845" lon="2.02984">
        <ele>263.4</ele>
        <time>2021-09-05T08:55:32Z</time>
      </trkpt>
      <trkpt lat="44.06844" lon="2.02982">
        <ele>263.4</ele>
        <time>2021-09-05T08:55:33Z</time>
      </trkpt>
      <trkpt lat="44.06842" lon="2.0298">
        <ele>263.8</ele>
        <time>2021-09-05T08:55:34Z</time>
      </trkpt>
      <trkpt lat="44.06841" lon="2.02979">
        <ele>264</ele>
        <time>2021-09-05T08:55:35Z</time>
      </trkpt>
      <trkpt lat="44.0684" lon="2.02977">
        <ele>264</ele>
        <time>2021-09-05T08:55:36Z</time>
      </trkpt>
      <trkpt lat="44.06838" lon="2.02976">
        <ele>264.2</ele>
        <time>2021-09-05T08:55:37Z</time>
      </trkpt>
      <trkpt lat="44.06838" lon="2.02976">
        <ele>264.4</ele>
        <time>2021-09-05T08:55:38Z</time>
      </trkpt>
      <trkpt lat="44.06835" lon="2.02973">
        <ele>264.4</ele>
        <time>2021-09-05T08:55:39Z</time>
      </trkpt>
      <trkpt lat="44.06834" lon="2.02971">
        <ele>264.6</ele>
        <time>2021-09-05T08:55:40Z</time>
      </trkpt>
      <trkpt lat="44.06832" lon="2.0297">
        <ele>264.6</ele>
        <time>2021-09-05T08:55:41Z</time>
      </trkpt>
      <trkpt lat="44.06831" lon="2.02968">
        <ele>264.8</ele>
        <time>2021-09-05T08:55:42Z</time>
      </trkpt>
      <trkpt lat="44.06831" lon="2.02968">
        <ele>264.8</ele>
        <time>2021-09-05T08:55:43Z</time>
      </trkpt>
      <trkpt lat="44.06828" lon="2.02965">
        <ele>265</ele>
        <time>2021-09-05T08:55:44Z</time>
      </trkpt>
      <trkpt lat="44.06827" lon="2.02964">
        <ele>265</ele>
        <time>2021-09-05T08:55:45Z</time>
      </trkpt>
      <trkpt lat="44.06825" lon="2.02963">
        <ele>265.2</ele>
        <time>2021-09-05T08:55:46Z</time>
      </trkpt>
      <trkpt lat="44.06825" lon="2.02963">
        <ele>265.4</ele>
        <time>2021-09-05T08:55:47Z</time>
      </trkpt>
      <trkpt lat="44.06823" lon="2.0296">
        <ele>265.4</ele>
        <time>2021-09-05T08:55:48Z</time>
      </trkpt>
      <trkpt lat="44.06822" lon="2.02959">
        <ele>265.8</ele>
        <time>2021-09-05T08:55:49Z</time>
      </trkpt>
      <trkpt lat="44.06821" lon="2.02958">
        <ele>266</ele>
        <time>2021-09-05T08:55:50Z</time>
      </trkpt>
      <trkpt lat="44.0682" lon="2.02957">
        <ele>266</ele>
        <time>2021-09-05T08:55:51Z</time>
      </trkpt>
      <trkpt lat="44.06819" lon="2.02956">
        <ele>266.2</ele>
        <time>2021-09-05T08:55:52Z</time>
      </trkpt>
      <trkpt lat="44.06818" lon="2.02955">
        <ele>266.4</ele>
        <time>2021-09-05T08:55:53Z</time>
      </trkpt>
      <trkpt lat="44.06816" lon="2.02954">
        <ele>266.6</ele>
        <time>2021-09-05T08:55:54Z</time>
      </trkpt>
      <trkpt lat="44.06815" lon="2.02952">
        <ele>266.8</ele>
        <time>2021-09-05T08:55:55Z</time>
      </trkpt>
      <trkpt lat="44.06815" lon="2.02951">
        <ele>267.2</ele>
        <time>2021-09-05T08:55:56Z</time>
      </trkpt>
      <trkpt lat="44.06814" lon="2.02951">
        <ele>267.4</ele>
        <time>2021-09-05T08:55:57Z</time>
      </trkpt>
      <trkpt lat="44.06812" lon="2.02949">
        <ele>267.6</ele>
        <time>2021-09-05T08:55:58Z</time>
      </trkpt>
      <trkpt lat="44.06811" lon="2.02948">
        <ele>267.8</ele>
        <time>2021-09-05T08:55:59Z</time>
      </trkpt>
      <trkpt lat="44.0681" lon="2.02948">
        <ele>268</ele>
        <time>2021-09-05T08:56:00Z</time>
      </trkpt>
      <trkpt lat="44.06809" lon="2.02947">
        <ele>268.2</ele>
        <time>2021-09-05T08:56:01Z</time>
      </trkpt>
      <trkpt lat="44.06807" lon="2.02946">
        <ele>268.6</ele>
        <time>2021-09-05T08:56:02Z</time>
      </trkpt>
      <trkpt lat="44.06806" lon="2.02945">
        <ele>268.8</ele>
        <time>2021-09-05T08:56:03Z</time>
      </trkpt>
      <trkpt lat="44.06805" lon="2.02944">
        <ele>268.8</ele>
        <time>2021-09-05T08:56:04Z</time>
      </trkpt>
      <trkpt lat="44.06803" lon="2.02943">
        <ele>269</ele>
        <time>2021-09-05T08:56:05Z</time>
      </trkpt>
      <trkpt lat="44.06802" lon="2.02942">
        <ele>269.2</ele>
        <time>2021-09-05T08:56:06Z</time>
      </trkpt>
      <trkpt lat="44.06801" lon="2.02941">
        <ele>269.2</ele>
        <time>2021-09-05T08:56:07Z</time>
      </trkpt>
      <trkpt lat="44.06799" lon="2.0294">
        <ele>269.4</ele>
        <time>2021-09-05T08:56:08Z</time>
      </trkpt>
      <trkpt lat="44.06798" lon="2.02939">
        <ele>269.6</ele>
        <time>2021-09-05T08:56:09Z</time>
      </trkpt>
      <trkpt lat="44.06797" lon="2.02939">
        <ele>269.6</ele>
        <time>2021-09-05T08:56:10Z</time>
      </trkpt>
      <trkpt lat="44.06795" lon="2.02938">
        <ele>269.8</ele>
        <time>2021-09-05T08:56:11Z</time>
      </trkpt>
      <trkpt lat="44.06794" lon="2.02938">
        <ele>270</ele>
        <time>2021-09-05T08:56:12Z</time>
      </trkpt>
      <trkpt lat="44.06793" lon="2.02937">
        <ele>270</ele>
        <time>2021-09-05T08:56:13Z</time>
      </trkpt>
      <trkpt lat="44.06791" lon="2.02936">
        <ele>270</ele>
        <time>2021-09-05T08:56:14Z</time>
      </trkpt>
      <trkpt lat="44.06789" lon="2.02935">
        <ele>270.2</ele>
        <time>2021-09-05T08:56:15Z</time>
      </trkpt>
      <trkpt lat="44.06787" lon="2.02934">
        <ele>270.2</ele>
        <time>2021-09-05T08:56:16Z</time>
      </trkpt>
      <trkpt lat="44.06786" lon="2.02933">
        <ele>270.2</ele>
        <time>2021-09-05T08:56:17Z</time>
      </trkpt>
      <trkpt lat="44.06784" lon="2.02932">
        <ele>270.2</ele>
        <time>2021-09-05T08:56:18Z</time>
      </trkpt>
      <trkpt lat="44.06783" lon="2.02931">
        <ele>270.4</ele>
        <time>2021-09-05T08:56:19Z</time>
      </trkpt>
      <trkpt lat="44.06782" lon="2.0293">
        <ele>270.4</ele>
        <time>2021-09-05T08:56:20Z</time>
      </trkpt>
      <trkpt lat="44.0678" lon="2.02929">
        <ele>270.6</ele>
        <time>2021-09-05T08:56:21Z</time>
      </trkpt>
      <trkpt lat="44.06779" lon="2.02929">
        <ele>270.6</ele>
        <time>2021-09-05T08:56:22Z</time>
      </trkpt>
      <trkpt lat="44.06777" lon="2.02928">
        <ele>271</ele>
        <time>2021-09-05T08:56:23Z</time>
      </trkpt>
      <trkpt lat="44.06776" lon="2.02928">
        <ele>271</ele>
        <time>2021-09-05T08:56:24Z</time>
      </trkpt>
      <trkpt lat="44.06775" lon="2.02927">
        <ele>271.4</ele>
        <time>2021-09-05T08:56:25Z</time>
      </trkpt>
      <trkpt lat="44.06774" lon="2.02926">
        <ele>271.6</ele>
        <time>2021-09-05T08:56:26Z</time>
      </trkpt>
      <trkpt lat="44.06773" lon="2.02926">
        <ele>271.8</ele>
        <time>2021-09-05T08:56:27Z</time>
      </trkpt>
      <trkpt lat="44.06771" lon="2.02925">
        <ele>271.8</ele>
        <time>2021-09-05T08:56:28Z</time>
      </trkpt>
      <trkpt lat="44.0677" lon="2.02925">
        <ele>272</ele>
        <time>2021-09-05T08:56:29Z</time>
      </trkpt>
      <trkpt lat="44.06768" lon="2.02924">
        <ele>272</ele>
        <time>2021-09-05T08:56:30Z</time>
      </trkpt>
      <trkpt lat="44.06767" lon="2.02923">
        <ele>272</ele>
        <time>2021-09-05T08:56:31Z</time>
      </trkpt>
      <trkpt lat="44.06765" lon="2.02922">
        <ele>272.4</ele>
        <time>2021-09-05T08:56:32Z</time>
      </trkpt>
      <trkpt lat="44.06764" lon="2.02921">
        <ele>272.6</ele>
        <time>2021-09-05T08:56:33Z</time>
      </trkpt>
      <trkpt lat="44.06763" lon="2.0292">
        <ele>272.6</ele>
        <time>2021-09-05T08:56:34Z</time>
      </trkpt>
      <trkpt lat="44.06761" lon="2.0292">
        <ele>273</ele>
        <time>2021-09-05T08:56:35Z</time>
      </trkpt>
      <trkpt lat="44.0676" lon="2.02919">
        <ele>273.2</ele>
        <time>2021-09-05T08:56:36Z</time>
      </trkpt>
      <trkpt lat="44.06758" lon="2.02919">
        <ele>273.4</ele>
        <time>2021-09-05T08:56:37Z</time>
      </trkpt>
      <trkpt lat="44.06757" lon="2.02919">
        <ele>273.4</ele>
        <time>2021-09-05T08:56:38Z</time>
      </trkpt>
      <trkpt lat="44.06755" lon="2.02918">
        <ele>273.6</ele>
        <time>2021-09-05T08:56:39Z</time>
      </trkpt>
      <trkpt lat="44.06753" lon="2.02917">
        <ele>273.6</ele>
        <time>2021-09-05T08:56:40Z</time>
      </trkpt>
      <trkpt lat="44.06752" lon="2.02917">
        <ele>273.8</ele>
        <time>2021-09-05T08:56:41Z</time>
      </trkpt>
      <trkpt lat="44.0675" lon="2.02917">
        <ele>274</ele>
        <time>2021-09-05T08:56:42Z</time>
      </trkpt>
      <trkpt lat="44.06749" lon="2.02916">
        <ele>274</ele>
        <time>2021-09-05T08:56:43Z</time>
      </trkpt>
      <trkpt lat="44.06748" lon="2.02916">
        <ele>274.2</ele>
        <time>2021-09-05T08:56:44Z</time>
      </trkpt>
      <trkpt lat="44.06747" lon="2.02915">
        <ele>274.4</ele>
        <time>2021-09-05T08:56:45Z</time>
      </trkpt>
      <trkpt lat="44.06746" lon="2.02914">
        <ele>274.6</ele>
        <time>2021-09-05T08:56:46Z</time>
      </trkpt>
      <trkpt lat="44.06745" lon="2.02914">
        <ele>274.8</ele>
        <time>2021-09-05T08:56:47Z</time>
      </trkpt>
      <trkpt lat="44.06744" lon="2.02913">
        <ele>275.4</ele>
        <time>2021-09-05T08:56:48Z</time>
      </trkpt>
      <trkpt lat="44.06744" lon="2.02913">
        <ele>275.6</ele>
        <time>2021-09-05T08:56:49Z</time>
      </trkpt>
      <trkpt lat="44.06742" lon="2.02913">
        <ele>275.8</ele>
        <time>2021-09-05T08:56:50Z</time>
      </trkpt>
      <trkpt lat="44.06741" lon="2.02912">
        <ele>276</ele>
        <time>2021-09-05T08:56:51Z</time>
      </trkpt>
      <trkpt lat="44.0674" lon="2.02912">
        <ele>276</ele>
        <time>2021-09-05T08:56:52Z</time>
      </trkpt>
      <trkpt lat="44.06738" lon="2.02911">
        <ele>276.4</ele>
        <time>2021-09-05T08:56:53Z</time>
      </trkpt>
      <trkpt lat="44.06737" lon="2.02911">
        <ele>276.6</ele>
        <time>2021-09-05T08:56:54Z</time>
      </trkpt>
      <trkpt lat="44.06735" lon="2.02911">
        <ele>276.8</ele>
        <time>2021-09-05T08:56:55Z</time>
      </trkpt>
      <trkpt lat="44.06734" lon="2.02911">
        <ele>277</ele>
        <time>2021-09-05T08:56:56Z</time>
      </trkpt>
      <trkpt lat="44.06733" lon="2.02911">
        <ele>277.2</ele>
        <time>2021-09-05T08:56:57Z</time>
      </trkpt>
      <trkpt lat="44.06732" lon="2.02911">
        <ele>277.4</ele>
        <time>2021-09-05T08:56:58Z</time>
      </trkpt>
      <trkpt lat="44.0673" lon="2.02911">
        <ele>277.6</ele>
        <time>2021-09-05T08:56:59Z</time>
      </trkpt>
      <trkpt lat="44.06728" lon="2.0291">
        <ele>277.6</ele>
        <time>2021-09-05T08:57:00Z</time>
      </trkpt>
      <trkpt lat="44.06727" lon="2.0291">
        <ele>277.8</ele>
        <time>2021-09-05T08:57:01Z</time>
      </trkpt>
      <trkpt lat="44.06725" lon="2.0291">
        <ele>278</ele>
        <time>2021-09-05T08:57:02Z</time>
      </trkpt>
      <trkpt lat="44.06724" lon="2.0291">
        <ele>278</ele>
        <time>2021-09-05T08:57:03Z</time>
      </trkpt>
      <trkpt lat="44.06723" lon="2.02909">
        <ele>278.4</ele>
        <time>2021-09-05T08:57:04Z</time>
      </trkpt>
      <trkpt lat="44.06723" lon="2.02909">
        <ele>278.6</ele>
        <time>2021-09-05T08:57:05Z</time>
      </trkpt>
      <trkpt lat="44.06721" lon="2.02909">
        <ele>278.6</ele>
        <time>2021-09-05T08:57:06Z</time>
      </trkpt>
      <trkpt lat="44.06721" lon="2.02909">
        <ele>279</ele>
        <time>2021-09-05T08:57:07Z</time>
      </trkpt>
      <trkpt lat="44.06718" lon="2.02909">
        <ele>279</ele>
        <time>2021-09-05T08:57:08Z</time>
      </trkpt>
      <trkpt lat="44.06717" lon="2.02908">
        <ele>279.4</ele>
        <time>2021-09-05T08:57:09Z</time>
      </trkpt>
      <trkpt lat="44.06716" lon="2.02908">
        <ele>279.6</ele>
        <time>2021-09-05T08:57:10Z</time>
      </trkpt>
      <trkpt lat="44.06714" lon="2.02908">
        <ele>279.8</ele>
        <time>2021-09-05T08:57:11Z</time>
      </trkpt>
      <trkpt lat="44.06714" lon="2.02908">
        <ele>280.2</ele>
        <time>2021-09-05T08:57:12Z</time>
      </trkpt>
      <trkpt lat="44.06713" lon="2.02908">
        <ele>280</ele>
        <time>2021-09-05T08:57:13Z</time>
      </trkpt>
      <trkpt lat="44.0671" lon="2.02907">
        <ele>280.4</ele>
        <time>2021-09-05T08:57:14Z</time>
      </trkpt>
      <trkpt lat="44.06709" lon="2.02907">
        <ele>280.4</ele>
        <time>2021-09-05T08:57:15Z</time>
      </trkpt>
      <trkpt lat="44.06707" lon="2.02908">
        <ele>280.6</ele>
        <time>2021-09-05T08:57:16Z</time>
      </trkpt>
      <trkpt lat="44.06705" lon="2.02907">
        <ele>280.8</ele>
        <time>2021-09-05T08:57:17Z</time>
      </trkpt>
      <trkpt lat="44.06703" lon="2.02907">
        <ele>281</ele>
        <time>2021-09-05T08:57:18Z</time>
      </trkpt>
      <trkpt lat="44.06702" lon="2.02907">
        <ele>281</ele>
        <time>2021-09-05T08:57:19Z</time>
      </trkpt>
      <trkpt lat="44.067" lon="2.02906">
        <ele>281.2</ele>
        <time>2021-09-05T08:57:20Z</time>
      </trkpt>
      <trkpt lat="44.06699" lon="2.02906">
        <ele>281.2</ele>
        <time>2021-09-05T08:57:21Z</time>
      </trkpt>
      <trkpt lat="44.06698" lon="2.02906">
        <ele>281.4</ele>
        <time>2021-09-05T08:57:22Z</time>
      </trkpt>
      <trkpt lat="44.06694" lon="2.02904">
        <ele>281.6</ele>
        <time>2021-09-05T08:57:23Z</time>
      </trkpt>
      <trkpt lat="44.06691" lon="2.02902">
        <ele>281.6</ele>
        <time>2021-09-05T08:57:24Z</time>
      </trkpt>
      <trkpt lat="44.06687" lon="2.02901">
        <ele>282</ele>
        <time>2021-09-05T08:57:25Z</time>
      </trkpt>
      <trkpt lat="44.06685" lon="2.02899">
        <ele>282.2</ele>
        <time>2021-09-05T08:57:26Z</time>
      </trkpt>
      <trkpt lat="44.06684" lon="2.02899">
        <ele>282.4</ele>
        <time>2021-09-05T08:57:27Z</time>
      </trkpt>
      <trkpt lat="44.06683" lon="2.02899">
        <ele>282.4</ele>
        <time>2021-09-05T08:57:28Z</time>
      </trkpt>
      <trkpt lat="44.0668" lon="2.02897">
        <ele>282.6</ele>
        <time>2021-09-05T08:57:29Z</time>
      </trkpt>
      <trkpt lat="44.06678" lon="2.02896">
        <ele>282.8</ele>
        <time>2021-09-05T08:57:30Z</time>
      </trkpt>
      <trkpt lat="44.06676" lon="2.02895">
        <ele>282.8</ele>
        <time>2021-09-05T08:57:31Z</time>
      </trkpt>
      <trkpt lat="44.06672" lon="2.02892">
        <ele>283</ele>
        <time>2021-09-05T08:57:32Z</time>
      </trkpt>
      <trkpt lat="44.0667" lon="2.02891">
        <ele>283</ele>
        <time>2021-09-05T08:57:33Z</time>
      </trkpt>
      <trkpt lat="44.06668" lon="2.0289">
        <ele>283.4</ele>
        <time>2021-09-05T08:57:34Z</time>
      </trkpt>
      <trkpt lat="44.06667" lon="2.02888">
        <ele>283.6</ele>
        <time>2021-09-05T08:57:35Z</time>
      </trkpt>
      <trkpt lat="44.06666" lon="2.02887">
        <ele>283.8</ele>
        <time>2021-09-05T08:57:36Z</time>
      </trkpt>
      <trkpt lat="44.06665" lon="2.02886">
        <ele>283.8</ele>
        <time>2021-09-05T08:57:37Z</time>
      </trkpt>
      <trkpt lat="44.06665" lon="2.02885">
        <ele>284</ele>
        <time>2021-09-05T08:57:38Z</time>
      </trkpt>
      <trkpt lat="44.06665" lon="2.02885">
        <ele>284.2</ele>
        <time>2021-09-05T08:57:39Z</time>
      </trkpt>
      <trkpt lat="44.06662" lon="2.02882">
        <ele>284.2</ele>
        <time>2021-09-05T08:57:40Z</time>
      </trkpt>
      <trkpt lat="44.0666" lon="2.02881">
        <ele>284.4</ele>
        <time>2021-09-05T08:57:41Z</time>
      </trkpt>
      <trkpt lat="44.06659" lon="2.02879">
        <ele>284.4</ele>
        <time>2021-09-05T08:57:42Z</time>
      </trkpt>
      <trkpt lat="44.06656" lon="2.02877">
        <ele>284.4</ele>
        <time>2021-09-05T08:57:43Z</time>
      </trkpt>
      <trkpt lat="44.06656" lon="2.02877">
        <ele>284.6</ele>
        <time>2021-09-05T08:57:44Z</time>
      </trkpt>
      <trkpt lat="44.06654" lon="2.02873">
        <ele>284.6</ele>
        <time>2021-09-05T08:57:45Z</time>
      </trkpt>
      <trkpt lat="44.06652" lon="2.0287">
        <ele>284.6</ele>
        <time>2021-09-05T08:57:46Z</time>
      </trkpt>
      <trkpt lat="44.06649" lon="2.02867">
        <ele>284.8</ele>
        <time>2021-09-05T08:57:47Z</time>
      </trkpt>
      <trkpt lat="44.06647" lon="2.02865">
        <ele>284.8</ele>
        <time>2021-09-05T08:57:48Z</time>
      </trkpt>
      <trkpt lat="44.06647" lon="2.02865">
        <ele>284.8</ele>
        <time>2021-09-05T08:57:49Z</time>
      </trkpt>
      <trkpt lat="44.06645" lon="2.02861">
        <ele>285</ele>
        <time>2021-09-05T08:57:50Z</time>
      </trkpt>
      <trkpt lat="44.06643" lon="2.02859">
        <ele>284.8</ele>
        <time>2021-09-05T08:57:51Z</time>
      </trkpt>
      <trkpt lat="44.06642" lon="2.02858">
        <ele>285</ele>
        <time>2021-09-05T08:57:52Z</time>
      </trkpt>
      <trkpt lat="44.0664" lon="2.02856">
        <ele>285.2</ele>
        <time>2021-09-05T08:57:53Z</time>
      </trkpt>
      <trkpt lat="44.06637" lon="2.02853">
        <ele>285.2</ele>
        <time>2021-09-05T08:57:54Z</time>
      </trkpt>
      <trkpt lat="44.06634" lon="2.0285">
        <ele>285.2</ele>
        <time>2021-09-05T08:57:55Z</time>
      </trkpt>
      <trkpt lat="44.06631" lon="2.02847">
        <ele>285.4</ele>
        <time>2021-09-05T08:57:56Z</time>
      </trkpt>
      <trkpt lat="44.06629" lon="2.02844">
        <ele>285.4</ele>
        <time>2021-09-05T08:57:57Z</time>
      </trkpt>
      <trkpt lat="44.06628" lon="2.02841">
        <ele>285.6</ele>
        <time>2021-09-05T08:57:58Z</time>
      </trkpt>
      <trkpt lat="44.06626" lon="2.02838">
        <ele>285.6</ele>
        <time>2021-09-05T08:57:59Z</time>
      </trkpt>
      <trkpt lat="44.06624" lon="2.02834">
        <ele>285.6</ele>
        <time>2021-09-05T08:58:00Z</time>
      </trkpt>
      <trkpt lat="44.06614" lon="2.02816">
        <ele>286</ele>
        <time>2021-09-05T08:58:06Z</time>
      </trkpt>
      <trkpt lat="44.06613" lon="2.02813">
        <ele>286</ele>
        <time>2021-09-05T08:58:07Z</time>
      </trkpt>
      <trkpt lat="44.06606" lon="2.02795">
        <ele>286.2</ele>
        <time>2021-09-05T08:58:13Z</time>
      </trkpt>
      <trkpt lat="44.06603" lon="2.02789">
        <ele>286.4</ele>
        <time>2021-09-05T08:58:15Z</time>
      </trkpt>
      <trkpt lat="44.06602" lon="2.02786">
        <ele>286.4</ele>
        <time>2021-09-05T08:58:16Z</time>
      </trkpt>
      <trkpt lat="44.06601" lon="2.02783">
        <ele>286.6</ele>
        <time>2021-09-05T08:58:17Z</time>
      </trkpt>
      <trkpt lat="44.06599" lon="2.02777">
        <ele>286.8</ele>
        <time>2021-09-05T08:58:19Z</time>
      </trkpt>
      <trkpt lat="44.06594" lon="2.02768">
        <ele>287.4</ele>
        <time>2021-09-05T08:58:22Z</time>
      </trkpt>
      <trkpt lat="44.0659" lon="2.02758">
        <ele>287.6</ele>
        <time>2021-09-05T08:58:25Z</time>
      </trkpt>
      <trkpt lat="44.06587" lon="2.0275">
        <ele>287.6</ele>
        <time>2021-09-05T08:58:27Z</time>
      </trkpt>
      <trkpt lat="44.06582" lon="2.02739">
        <ele>288</ele>
        <time>2021-09-05T08:58:31Z</time>
      </trkpt>
      <trkpt lat="44.06579" lon="2.02732">
        <ele>288</ele>
        <time>2021-09-05T08:58:32Z</time>
      </trkpt>
      <trkpt lat="44.06576" lon="2.02726">
        <ele>288.2</ele>
        <time>2021-09-05T08:58:34Z</time>
      </trkpt>
      <trkpt lat="44.06575" lon="2.02722">
        <ele>288.4</ele>
        <time>2021-09-05T08:58:35Z</time>
      </trkpt>
      <trkpt lat="44.06573" lon="2.02715">
        <ele>288.8</ele>
        <time>2021-09-05T08:58:37Z</time>
      </trkpt>
      <trkpt lat="44.06572" lon="2.02712">
        <ele>289</ele>
        <time>2021-09-05T08:58:38Z</time>
      </trkpt>
      <trkpt lat="44.0657" lon="2.02709">
        <ele>289</ele>
        <time>2021-09-05T08:58:39Z</time>
      </trkpt>
      <trkpt lat="44.06568" lon="2.02703">
        <ele>289.2</ele>
        <time>2021-09-05T08:58:41Z</time>
      </trkpt>
      <trkpt lat="44.06567" lon="2.02699">
        <ele>289.4</ele>
        <time>2021-09-05T08:58:42Z</time>
      </trkpt>
      <trkpt lat="44.06566" lon="2.02697">
        <ele>289.8</ele>
        <time>2021-09-05T08:58:43Z</time>
      </trkpt>
      <trkpt lat="44.06565" lon="2.02694">
        <ele>290</ele>
        <time>2021-09-05T08:58:44Z</time>
      </trkpt>
      <trkpt lat="44.06564" lon="2.02692">
        <ele>290</ele>
        <time>2021-09-05T08:58:45Z</time>
      </trkpt>
      <trkpt lat="44.06563" lon="2.02689">
        <ele>290.2</ele>
        <time>2021-09-05T08:58:46Z</time>
      </trkpt>
      <trkpt lat="44.06562" lon="2.02687">
        <ele>290.2</ele>
        <time>2021-09-05T08:58:47Z</time>
      </trkpt>
      <trkpt lat="44.06561" lon="2.02684">
        <ele>290.4</ele>
        <time>2021-09-05T08:58:48Z</time>
      </trkpt>
      <trkpt lat="44.0656" lon="2.02681">
        <ele>290.4</ele>
        <time>2021-09-05T08:58:49Z</time>
      </trkpt>
      <trkpt lat="44.06559" lon="2.02679">
        <ele>290.8</ele>
        <time>2021-09-05T08:58:50Z</time>
      </trkpt>
      <trkpt lat="44.06559" lon="2.02676">
        <ele>290.8</ele>
        <time>2021-09-05T08:58:51Z</time>
      </trkpt>
      <trkpt lat="44.06558" lon="2.02673">
        <ele>291</ele>
        <time>2021-09-05T08:58:52Z</time>
      </trkpt>
      <trkpt lat="44.06557" lon="2.02671">
        <ele>291.2</ele>
        <time>2021-09-05T08:58:53Z</time>
      </trkpt>
      <trkpt lat="44.06557" lon="2.02668">
        <ele>291.4</ele>
        <time>2021-09-05T08:58:54Z</time>
      </trkpt>
      <trkpt lat="44.06556" lon="2.02666">
        <ele>291.8</ele>
        <time>2021-09-05T08:58:55Z</time>
      </trkpt>
      <trkpt lat="44.06556" lon="2.02663">
        <ele>292</ele>
        <time>2021-09-05T08:58:56Z</time>
      </trkpt>
      <trkpt lat="44.06556" lon="2.0266">
        <ele>292.4</ele>
        <time>2021-09-05T08:58:57Z</time>
      </trkpt>
      <trkpt lat="44.06556" lon="2.02657">
        <ele>292.6</ele>
        <time>2021-09-05T08:58:58Z</time>
      </trkpt>
      <trkpt lat="44.06556" lon="2.02657">
        <ele>292.8</ele>
        <time>2021-09-05T08:58:59Z</time>
      </trkpt>
      <trkpt lat="44.06555" lon="2.02652">
        <ele>293.2</ele>
        <time>2021-09-05T08:59:00Z</time>
      </trkpt>
      <trkpt lat="44.06555" lon="2.02649">
        <ele>293.2</ele>
        <time>2021-09-05T08:59:01Z</time>
      </trkpt>
      <trkpt lat="44.06555" lon="2.02647">
        <ele>293.4</ele>
        <time>2021-09-05T08:59:02Z</time>
      </trkpt>
      <trkpt lat="44.06555" lon="2.02645">
        <ele>293.4</ele>
        <time>2021-09-05T08:59:03Z</time>
      </trkpt>
      <trkpt lat="44.06555" lon="2.02643">
        <ele>294</ele>
        <time>2021-09-05T08:59:04Z</time>
      </trkpt>
      <trkpt lat="44.06555" lon="2.02641">
        <ele>294</ele>
        <time>2021-09-05T08:59:05Z</time>
      </trkpt>
      <trkpt lat="44.06555" lon="2.02639">
        <ele>294.2</ele>
        <time>2021-09-05T08:59:06Z</time>
      </trkpt>
      <trkpt lat="44.06555" lon="2.02638">
        <ele>294.4</ele>
        <time>2021-09-05T08:59:07Z</time>
      </trkpt>
      <trkpt lat="44.06555" lon="2.02636">
        <ele>294.6</ele>
        <time>2021-09-05T08:59:08Z</time>
      </trkpt>
      <trkpt lat="44.06555" lon="2.02636">
        <ele>294.8</ele>
        <time>2021-09-05T08:59:09Z</time>
      </trkpt>
      <trkpt lat="44.06555" lon="2.02632">
        <ele>294.8</ele>
        <time>2021-09-05T08:59:10Z</time>
      </trkpt>
      <trkpt lat="44.06555" lon="2.0263">
        <ele>295.2</ele>
        <time>2021-09-05T08:59:11Z</time>
      </trkpt>
      <trkpt lat="44.06555" lon="2.02628">
        <ele>295.2</ele>
        <time>2021-09-05T08:59:12Z</time>
      </trkpt>
      <trkpt lat="44.06555" lon="2.02626">
        <ele>295.4</ele>
        <time>2021-09-05T08:59:13Z</time>
      </trkpt>
      <trkpt lat="44.06555" lon="2.02624">
        <ele>295.6</ele>
        <time>2021-09-05T08:59:14Z</time>
      </trkpt>
      <trkpt lat="44.06555" lon="2.02622">
        <ele>295.8</ele>
        <time>2021-09-05T08:59:15Z</time>
      </trkpt>
      <trkpt lat="44.06555" lon="2.0262">
        <ele>296.2</ele>
        <time>2021-09-05T08:59:16Z</time>
      </trkpt>
      <trkpt lat="44.06555" lon="2.02618">
        <ele>296.4</ele>
        <time>2021-09-05T08:59:17Z</time>
      </trkpt>
      <trkpt lat="44.06555" lon="2.02616">
        <ele>296.8</ele>
        <time>2021-09-05T08:59:18Z</time>
      </trkpt>
      <trkpt lat="44.06555" lon="2.02614">
        <ele>297</ele>
        <time>2021-09-05T08:59:19Z</time>
      </trkpt>
      <trkpt lat="44.06555" lon="2.02612">
        <ele>297.2</ele>
        <time>2021-09-05T08:59:20Z</time>
      </trkpt>
      <trkpt lat="44.06554" lon="2.0261">
        <ele>297.4</ele>
        <time>2021-09-05T08:59:21Z</time>
      </trkpt>
      <trkpt lat="44.06554" lon="2.02608">
        <ele>297.6</ele>
        <time>2021-09-05T08:59:22Z</time>
      </trkpt>
      <trkpt lat="44.06553" lon="2.02606">
        <ele>297.8</ele>
        <time>2021-09-05T08:59:23Z</time>
      </trkpt>
      <trkpt lat="44.06553" lon="2.02604">
        <ele>297.8</ele>
        <time>2021-09-05T08:59:24Z</time>
      </trkpt>
      <trkpt lat="44.06553" lon="2.02602">
        <ele>298</ele>
        <time>2021-09-05T08:59:25Z</time>
      </trkpt>
      <trkpt lat="44.06552" lon="2.026">
        <ele>298</ele>
        <time>2021-09-05T08:59:26Z</time>
      </trkpt>
      <trkpt lat="44.06552" lon="2.02599">
        <ele>298.2</ele>
        <time>2021-09-05T08:59:27Z</time>
      </trkpt>
      <trkpt lat="44.06552" lon="2.02597">
        <ele>298.2</ele>
        <time>2021-09-05T08:59:28Z</time>
      </trkpt>
      <trkpt lat="44.06552" lon="2.02597">
        <ele>298.6</ele>
        <time>2021-09-05T08:59:29Z</time>
      </trkpt>
      <trkpt lat="44.06551" lon="2.02594">
        <ele>298.6</ele>
        <time>2021-09-05T08:59:30Z</time>
      </trkpt>
      <trkpt lat="44.06551" lon="2.02592">
        <ele>298.8</ele>
        <time>2021-09-05T08:59:31Z</time>
      </trkpt>
      <trkpt lat="44.06551" lon="2.0259">
        <ele>298.8</ele>
        <time>2021-09-05T08:59:32Z</time>
      </trkpt>
      <trkpt lat="44.0655" lon="2.02589">
        <ele>299</ele>
        <time>2021-09-05T08:59:33Z</time>
      </trkpt>
      <trkpt lat="44.0655" lon="2.02589">
        <ele>299.2</ele>
        <time>2021-09-05T08:59:34Z</time>
      </trkpt>
      <trkpt lat="44.0655" lon="2.02584">
        <ele>299.2</ele>
        <time>2021-09-05T08:59:35Z</time>
      </trkpt>
      <trkpt lat="44.06549" lon="2.02583">
        <ele>299.8</ele>
        <time>2021-09-05T08:59:36Z</time>
      </trkpt>
      <trkpt lat="44.06549" lon="2.02581">
        <ele>299.8</ele>
        <time>2021-09-05T08:59:37Z</time>
      </trkpt>
      <trkpt lat="44.06549" lon="2.02579">
        <ele>300</ele>
        <time>2021-09-05T08:59:38Z</time>
      </trkpt>
      <trkpt lat="44.06548" lon="2.02577">
        <ele>300.2</ele>
        <time>2021-09-05T08:59:39Z</time>
      </trkpt>
      <trkpt lat="44.06548" lon="2.02575">
        <ele>300.4</ele>
        <time>2021-09-05T08:59:40Z</time>
      </trkpt>
      <trkpt lat="44.06547" lon="2.02573">
        <ele>300.6</ele>
        <time>2021-09-05T08:59:41Z</time>
      </trkpt>
      <trkpt lat="44.06547" lon="2.0257">
        <ele>300.8</ele>
        <time>2021-09-05T08:59:42Z</time>
      </trkpt>
      <trkpt lat="44.06547" lon="2.02568">
        <ele>301</ele>
        <time>2021-09-05T08:59:43Z</time>
      </trkpt>
      <trkpt lat="44.06547" lon="2.02566">
        <ele>301</ele>
        <time>2021-09-05T08:59:44Z</time>
      </trkpt>
      <trkpt lat="44.06546" lon="2.02564">
        <ele>301.2</ele>
        <time>2021-09-05T08:59:45Z</time>
      </trkpt>
      <trkpt lat="44.06546" lon="2.02561">
        <ele>301.6</ele>
        <time>2021-09-05T08:59:46Z</time>
      </trkpt>
      <trkpt lat="44.06546" lon="2.02559">
        <ele>301.6</ele>
        <time>2021-09-05T08:59:47Z</time>
      </trkpt>
      <trkpt lat="44.06546" lon="2.02557">
        <ele>301.8</ele>
        <time>2021-09-05T08:59:48Z</time>
      </trkpt>
      <trkpt lat="44.06546" lon="2.02557">
        <ele>302</ele>
        <time>2021-09-05T08:59:49Z</time>
      </trkpt>
      <trkpt lat="44.06545" lon="2.02553">
        <ele>302.2</ele>
        <time>2021-09-05T08:59:50Z</time>
      </trkpt>
      <trkpt lat="44.06545" lon="2.02551">
        <ele>302.2</ele>
        <time>2021-09-05T08:59:51Z</time>
      </trkpt>
      <trkpt lat="44.06545" lon="2.02549">
        <ele>302.4</ele>
        <time>2021-09-05T08:59:52Z</time>
      </trkpt>
      <trkpt lat="44.06545" lon="2.02547">
        <ele>302.6</ele>
        <time>2021-09-05T08:59:53Z</time>
      </trkpt>
      <trkpt lat="44.06544" lon="2.02545">
        <ele>302.8</ele>
        <time>2021-09-05T08:59:54Z</time>
      </trkpt>
      <trkpt lat="44.06544" lon="2.02543">
        <ele>303</ele>
        <time>2021-09-05T08:59:55Z</time>
      </trkpt>
      <trkpt lat="44.06544" lon="2.02541">
        <ele>303.2</ele>
        <time>2021-09-05T08:59:56Z</time>
      </trkpt>
      <trkpt lat="44.06544" lon="2.02538">
        <ele>303.4</ele>
        <time>2021-09-05T08:59:57Z</time>
      </trkpt>
      <trkpt lat="44.06543" lon="2.02536">
        <ele>303.6</ele>
        <time>2021-09-05T08:59:58Z</time>
      </trkpt>
      <trkpt lat="44.06543" lon="2.02535">
        <ele>303.8</ele>
        <time>2021-09-05T08:59:59Z</time>
      </trkpt>
      <trkpt lat="44.06543" lon="2.02533">
        <ele>303.8</ele>
        <time>2021-09-05T09:00:00Z</time>
      </trkpt>
      <trkpt lat="44.06542" lon="2.02531">
        <ele>304</ele>
        <time>2021-09-05T09:00:01Z</time>
      </trkpt>
      <trkpt lat="44.06542" lon="2.02528">
        <ele>304.2</ele>
        <time>2021-09-05T09:00:02Z</time>
      </trkpt>
      <trkpt lat="44.06541" lon="2.02526">
        <ele>304.4</ele>
        <time>2021-09-05T09:00:03Z</time>
      </trkpt>
      <trkpt lat="44.0654" lon="2.02524">
        <ele>304.6</ele>
        <time>2021-09-05T09:00:04Z</time>
      </trkpt>
      <trkpt lat="44.0654" lon="2.02522">
        <ele>304.8</ele>
        <time>2021-09-05T09:00:05Z</time>
      </trkpt>
      <trkpt lat="44.0654" lon="2.0252">
        <ele>305</ele>
        <time>2021-09-05T09:00:06Z</time>
      </trkpt>
      <trkpt lat="44.06539" lon="2.02518">
        <ele>305.2</ele>
        <time>2021-09-05T09:00:07Z</time>
      </trkpt>
      <trkpt lat="44.06538" lon="2.02516">
        <ele>305.4</ele>
        <time>2021-09-05T09:00:08Z</time>
      </trkpt>
      <trkpt lat="44.06538" lon="2.02516">
        <ele>305.6</ele>
        <time>2021-09-05T09:00:09Z</time>
      </trkpt>
      <trkpt lat="44.06537" lon="2.02512">
        <ele>305.6</ele>
        <time>2021-09-05T09:00:10Z</time>
      </trkpt>
      <trkpt lat="44.06537" lon="2.0251">
        <ele>305.8</ele>
        <time>2021-09-05T09:00:11Z</time>
      </trkpt>
      <trkpt lat="44.06536" lon="2.02508">
        <ele>305.8</ele>
        <time>2021-09-05T09:00:12Z</time>
      </trkpt>
      <trkpt lat="44.06535" lon="2.02507">
        <ele>306</ele>
        <time>2021-09-05T09:00:13Z</time>
      </trkpt>
      <trkpt lat="44.06535" lon="2.02507">
        <ele>306</ele>
        <time>2021-09-05T09:00:14Z</time>
      </trkpt>
      <trkpt lat="44.06534" lon="2.02503">
        <ele>306.2</ele>
        <time>2021-09-05T09:00:15Z</time>
      </trkpt>
      <trkpt lat="44.06533" lon="2.02501">
        <ele>306.4</ele>
        <time>2021-09-05T09:00:16Z</time>
      </trkpt>
      <trkpt lat="44.06533" lon="2.025">
        <ele>306.6</ele>
        <time>2021-09-05T09:00:17Z</time>
      </trkpt>
      <trkpt lat="44.06532" lon="2.02498">
        <ele>306.8</ele>
        <time>2021-09-05T09:00:18Z</time>
      </trkpt>
      <trkpt lat="44.06531" lon="2.02496">
        <ele>307</ele>
        <time>2021-09-05T09:00:19Z</time>
      </trkpt>
      <trkpt lat="44.06531" lon="2.02493">
        <ele>307.2</ele>
        <time>2021-09-05T09:00:20Z</time>
      </trkpt>
      <trkpt lat="44.0653" lon="2.02491">
        <ele>307.4</ele>
        <time>2021-09-05T09:00:21Z</time>
      </trkpt>
      <trkpt lat="44.06529" lon="2.02489">
        <ele>307.6</ele>
        <time>2021-09-05T09:00:22Z</time>
      </trkpt>
      <trkpt lat="44.06528" lon="2.02487">
        <ele>307.6</ele>
        <time>2021-09-05T09:00:23Z</time>
      </trkpt>
      <trkpt lat="44.06527" lon="2.02485">
        <ele>307.6</ele>
        <time>2021-09-05T09:00:24Z</time>
      </trkpt>
      <trkpt lat="44.06526" lon="2.02483">
        <ele>308</ele>
        <time>2021-09-05T09:00:25Z</time>
      </trkpt>
      <trkpt lat="44.06526" lon="2.02481">
        <ele>307.8</ele>
        <time>2021-09-05T09:00:26Z</time>
      </trkpt>
      <trkpt lat="44.06525" lon="2.02479">
        <ele>308.2</ele>
        <time>2021-09-05T09:00:27Z</time>
      </trkpt>
      <trkpt lat="44.06524" lon="2.02477">
        <ele>308.2</ele>
        <time>2021-09-05T09:00:28Z</time>
      </trkpt>
      <trkpt lat="44.06524" lon="2.02474">
        <ele>308.4</ele>
        <time>2021-09-05T09:00:29Z</time>
      </trkpt>
      <trkpt lat="44.06523" lon="2.02472">
        <ele>308.4</ele>
        <time>2021-09-05T09:00:30Z</time>
      </trkpt>
      <trkpt lat="44.06523" lon="2.0247">
        <ele>308.6</ele>
        <time>2021-09-05T09:00:31Z</time>
      </trkpt>
      <trkpt lat="44.06522" lon="2.02467">
        <ele>308.6</ele>
        <time>2021-09-05T09:00:32Z</time>
      </trkpt>
      <trkpt lat="44.06521" lon="2.02465">
        <ele>308.6</ele>
        <time>2021-09-05T09:00:33Z</time>
      </trkpt>
      <trkpt lat="44.0652" lon="2.02463">
        <ele>308.8</ele>
        <time>2021-09-05T09:00:34Z</time>
      </trkpt>
      <trkpt lat="44.0652" lon="2.0246">
        <ele>308.8</ele>
        <time>2021-09-05T09:00:35Z</time>
      </trkpt>
      <trkpt lat="44.06519" lon="2.02458">
        <ele>309</ele>
        <time>2021-09-05T09:00:36Z</time>
      </trkpt>
      <trkpt lat="44.06518" lon="2.02455">
        <ele>309</ele>
        <time>2021-09-05T09:00:37Z</time>
      </trkpt>
      <trkpt lat="44.06518" lon="2.02453">
        <ele>309</ele>
        <time>2021-09-05T09:00:38Z</time>
      </trkpt>
      <trkpt lat="44.06517" lon="2.02451">
        <ele>309.2</ele>
        <time>2021-09-05T09:00:39Z</time>
      </trkpt>
      <trkpt lat="44.06516" lon="2.02448">
        <ele>309.2</ele>
        <time>2021-09-05T09:00:40Z</time>
      </trkpt>
      <trkpt lat="44.06515" lon="2.02446">
        <ele>309.4</ele>
        <time>2021-09-05T09:00:41Z</time>
      </trkpt>
      <trkpt lat="44.06514" lon="2.02444">
        <ele>309.4</ele>
        <time>2021-09-05T09:00:42Z</time>
      </trkpt>
      <trkpt lat="44.06513" lon="2.02441">
        <ele>309.4</ele>
        <time>2021-09-05T09:00:43Z</time>
      </trkpt>
      <trkpt lat="44.06512" lon="2.02438">
        <ele>309.6</ele>
        <time>2021-09-05T09:00:44Z</time>
      </trkpt>
      <trkpt lat="44.06511" lon="2.02436">
        <ele>309.6</ele>
        <time>2021-09-05T09:00:45Z</time>
      </trkpt>
      <trkpt lat="44.0651" lon="2.02433">
        <ele>309.6</ele>
        <time>2021-09-05T09:00:46Z</time>
      </trkpt>
      <trkpt lat="44.06509" lon="2.02431">
        <ele>309.8</ele>
        <time>2021-09-05T09:00:47Z</time>
      </trkpt>
      <trkpt lat="44.06508" lon="2.02428">
        <ele>309.8</ele>
        <time>2021-09-05T09:00:48Z</time>
      </trkpt>
      <trkpt lat="44.06507" lon="2.02426">
        <ele>310</ele>
        <time>2021-09-05T09:00:50Z</time>
      </trkpt>
      <trkpt lat="44.06505" lon="2.02421">
        <ele>310</ele>
        <time>2021-09-05T09:00:51Z</time>
      </trkpt>
      <trkpt lat="44.06501" lon="2.02414">
        <ele>310</ele>
        <time>2021-09-05T09:00:54Z</time>
      </trkpt>
      <trkpt lat="44.0649" lon="2.02397">
        <ele>310</ele>
        <time>2021-09-05T09:01:01Z</time>
      </trkpt>
      <trkpt lat="44.06489" lon="2.02395">
        <ele>310</ele>
        <time>2021-09-05T09:01:02Z</time>
      </trkpt>
      <trkpt lat="44.06487" lon="2.02393">
        <ele>310</ele>
        <time>2021-09-05T09:01:03Z</time>
      </trkpt>
      <trkpt lat="44.06486" lon="2.0239">
        <ele>310</ele>
        <time>2021-09-05T09:01:04Z</time>
      </trkpt>
      <trkpt lat="44.06485" lon="2.02388">
        <ele>310</ele>
        <time>2021-09-05T09:01:05Z</time>
      </trkpt>
      <trkpt lat="44.06484" lon="2.02385">
        <ele>309.8</ele>
        <time>2021-09-05T09:01:06Z</time>
      </trkpt>
      <trkpt lat="44.06483" lon="2.02383">
        <ele>309.8</ele>
        <time>2021-09-05T09:01:07Z</time>
      </trkpt>
      <trkpt lat="44.06483" lon="2.02381">
        <ele>310</ele>
        <time>2021-09-05T09:01:08Z</time>
      </trkpt>
      <trkpt lat="44.06482" lon="2.0238">
        <ele>310</ele>
        <time>2021-09-05T09:01:09Z</time>
      </trkpt>
      <trkpt lat="44.06482" lon="2.02378">
        <ele>310</ele>
        <time>2021-09-05T09:01:10Z</time>
      </trkpt>
      <trkpt lat="44.06482" lon="2.02377">
        <ele>310</ele>
        <time>2021-09-05T09:01:11Z</time>
      </trkpt>
      <trkpt lat="44.06481" lon="2.02373">
        <ele>310.2</ele>
        <time>2021-09-05T09:03:11Z</time>
      </trkpt>
      <trkpt lat="44.06477" lon="2.02369">
        <ele>310.2</ele>
        <time>2021-09-05T09:03:14Z</time>
      </trkpt>
      <trkpt lat="44.06464" lon="2.02364">
        <ele>310</ele>
        <time>2021-09-05T09:03:20Z</time>
      </trkpt>
      <trkpt lat="44.06456" lon="2.02356">
        <ele>309.8</ele>
        <time>2021-09-05T09:03:23Z</time>
      </trkpt>
      <trkpt lat="44.06453" lon="2.02352">
        <ele>309.8</ele>
        <time>2021-09-05T09:03:24Z</time>
      </trkpt>
      <trkpt lat="44.0645" lon="2.02349">
        <ele>309.8</ele>
        <time>2021-09-05T09:03:25Z</time>
      </trkpt>
      <trkpt lat="44.06432" lon="2.02332">
        <ele>309</ele>
        <time>2021-09-05T09:03:29Z</time>
      </trkpt>
      <trkpt lat="44.06427" lon="2.02326">
        <ele>308.8</ele>
        <time>2021-09-05T09:03:30Z</time>
      </trkpt>
      <trkpt lat="44.06422" lon="2.0232">
        <ele>308.6</ele>
        <time>2021-09-05T09:03:31Z</time>
      </trkpt>
      <trkpt lat="44.06414" lon="2.02305">
        <ele>308.2</ele>
        <time>2021-09-05T09:03:33Z</time>
      </trkpt>
      <trkpt lat="44.06411" lon="2.02298">
        <ele>308</ele>
        <time>2021-09-05T09:03:34Z</time>
      </trkpt>
      <trkpt lat="44.06407" lon="2.02293">
        <ele>307.6</ele>
        <time>2021-09-05T09:03:35Z</time>
      </trkpt>
      <trkpt lat="44.06403" lon="2.02287">
        <ele>307.4</ele>
        <time>2021-09-05T09:03:36Z</time>
      </trkpt>
      <trkpt lat="44.06399" lon="2.02282">
        <ele>306.8</ele>
        <time>2021-09-05T09:03:37Z</time>
      </trkpt>
      <trkpt lat="44.06394" lon="2.02276">
        <ele>306.6</ele>
        <time>2021-09-05T09:03:38Z</time>
      </trkpt>
      <trkpt lat="44.06389" lon="2.02271">
        <ele>306.4</ele>
        <time>2021-09-05T09:03:39Z</time>
      </trkpt>
      <trkpt lat="44.06384" lon="2.02266">
        <ele>306</ele>
        <time>2021-09-05T09:03:40Z</time>
      </trkpt>
      <trkpt lat="44.0638" lon="2.0226">
        <ele>305.8</ele>
        <time>2021-09-05T09:03:41Z</time>
      </trkpt>
      <trkpt lat="44.06377" lon="2.02254">
        <ele>304</ele>
        <time>2021-09-05T09:03:42Z</time>
      </trkpt>
      <trkpt lat="44.06374" lon="2.02247">
        <ele>303.6</ele>
        <time>2021-09-05T09:03:43Z</time>
      </trkpt>
      <trkpt lat="44.06372" lon="2.02241">
        <ele>302.6</ele>
        <time>2021-09-05T09:03:44Z</time>
      </trkpt>
      <trkpt lat="44.06366" lon="2.02229">
        <ele>301.4</ele>
        <time>2021-09-05T09:03:46Z</time>
      </trkpt>
      <trkpt lat="44.06363" lon="2.02223">
        <ele>301</ele>
        <time>2021-09-05T09:03:47Z</time>
      </trkpt>
      <trkpt lat="44.06361" lon="2.02217">
        <ele>300.2</ele>
        <time>2021-09-05T09:03:48Z</time>
      </trkpt>
      <trkpt lat="44.06358" lon="2.02212">
        <ele>299</ele>
        <time>2021-09-05T09:03:49Z</time>
      </trkpt>
      <trkpt lat="44.06355" lon="2.02208">
        <ele>298.2</ele>
        <time>2021-09-05T09:03:50Z</time>
      </trkpt>
      <trkpt lat="44.06352" lon="2.02203">
        <ele>297.4</ele>
        <time>2021-09-05T09:03:51Z</time>
      </trkpt>
      <trkpt lat="44.06345" lon="2.02195">
        <ele>296</ele>
        <time>2021-09-05T09:03:53Z</time>
      </trkpt>
      <trkpt lat="44.06342" lon="2.0219">
        <ele>295.6</ele>
        <time>2021-09-05T09:03:54Z</time>
      </trkpt>
      <trkpt lat="44.06339" lon="2.02185">
        <ele>294.8</ele>
        <time>2021-09-05T09:03:55Z</time>
      </trkpt>
      <trkpt lat="44.06337" lon="2.0218">
        <ele>293.2</ele>
        <time>2021-09-05T09:03:56Z</time>
      </trkpt>
      <trkpt lat="44.06334" lon="2.02168">
        <ele>292</ele>
        <time>2021-09-05T09:03:58Z</time>
      </trkpt>
      <trkpt lat="44.06333" lon="2.02161">
        <ele>291.2</ele>
        <time>2021-09-05T09:03:59Z</time>
      </trkpt>
      <trkpt lat="44.06333" lon="2.02154">
        <ele>290.4</ele>
        <time>2021-09-05T09:04:00Z</time>
      </trkpt>
      <trkpt lat="44.06331" lon="2.02141">
        <ele>288.6</ele>
        <time>2021-09-05T09:04:02Z</time>
      </trkpt>
      <trkpt lat="44.06329" lon="2.02135">
        <ele>288</ele>
        <time>2021-09-05T09:04:03Z</time>
      </trkpt>
      <trkpt lat="44.06328" lon="2.0213">
        <ele>287.2</ele>
        <time>2021-09-05T09:04:04Z</time>
      </trkpt>
      <trkpt lat="44.06326" lon="2.02124">
        <ele>286</ele>
        <time>2021-09-05T09:04:05Z</time>
      </trkpt>
      <trkpt lat="44.06323" lon="2.0212">
        <ele>285.6</ele>
        <time>2021-09-05T09:04:06Z</time>
      </trkpt>
      <trkpt lat="44.06321" lon="2.02115">
        <ele>284.6</ele>
        <time>2021-09-05T09:04:07Z</time>
      </trkpt>
      <trkpt lat="44.06321" lon="2.0211">
        <ele>283.6</ele>
        <time>2021-09-05T09:04:08Z</time>
      </trkpt>
      <trkpt lat="44.06322" lon="2.02103">
        <ele>282.4</ele>
        <time>2021-09-05T09:04:09Z</time>
      </trkpt>
      <trkpt lat="44.06325" lon="2.02096">
        <ele>281.8</ele>
        <time>2021-09-05T09:04:10Z</time>
      </trkpt>
      <trkpt lat="44.06326" lon="2.02089">
        <ele>280.4</ele>
        <time>2021-09-05T09:04:11Z</time>
      </trkpt>
      <trkpt lat="44.06327" lon="2.02085">
        <ele>279.2</ele>
        <time>2021-09-05T09:04:12Z</time>
      </trkpt>
      <trkpt lat="44.06327" lon="2.02079">
        <ele>278.4</ele>
        <time>2021-09-05T09:04:13Z</time>
      </trkpt>
      <trkpt lat="44.06326" lon="2.02072">
        <ele>277.6</ele>
        <time>2021-09-05T09:04:14Z</time>
      </trkpt>
      <trkpt lat="44.06325" lon="2.02068">
        <ele>276.6</ele>
        <time>2021-09-05T09:04:15Z</time>
      </trkpt>
      <trkpt lat="44.06323" lon="2.02066">
        <ele>275.4</ele>
        <time>2021-09-05T09:04:16Z</time>
      </trkpt>
      <trkpt lat="44.0632" lon="2.02066">
        <ele>274.6</ele>
        <time>2021-09-05T09:04:17Z</time>
      </trkpt>
      <trkpt lat="44.06318" lon="2.02066">
        <ele>273.6</ele>
        <time>2021-09-05T09:04:18Z</time>
      </trkpt>
      <trkpt lat="44.06316" lon="2.02065">
        <ele>272.2</ele>
        <time>2021-09-05T09:04:19Z</time>
      </trkpt>
      <trkpt lat="44.06314" lon="2.02065">
        <ele>271.6</ele>
        <time>2021-09-05T09:04:20Z</time>
      </trkpt>
      <trkpt lat="44.06312" lon="2.02064">
        <ele>270.4</ele>
        <time>2021-09-05T09:04:21Z</time>
      </trkpt>
      <trkpt lat="44.06309" lon="2.02064">
        <ele>270</ele>
        <time>2021-09-05T09:04:22Z</time>
      </trkpt>
      <trkpt lat="44.06306" lon="2.02064">
        <ele>269.2</ele>
        <time>2021-09-05T09:04:23Z</time>
      </trkpt>
      <trkpt lat="44.06303" lon="2.02064">
        <ele>268.8</ele>
        <time>2021-09-05T09:04:24Z</time>
      </trkpt>
      <trkpt lat="44.06301" lon="2.02064">
        <ele>268</ele>
        <time>2021-09-05T09:04:25Z</time>
      </trkpt>
      <trkpt lat="44.06299" lon="2.02064">
        <ele>267.2</ele>
        <time>2021-09-05T09:04:26Z</time>
      </trkpt>
      <trkpt lat="44.06296" lon="2.02064">
        <ele>265.8</ele>
        <time>2021-09-05T09:04:27Z</time>
      </trkpt>
      <trkpt lat="44.0629" lon="2.02063">
        <ele>264.8</ele>
        <time>2021-09-05T09:04:28Z</time>
      </trkpt>
      <trkpt lat="44.06279" lon="2.02059">
        <ele>263.4</ele>
        <time>2021-09-05T09:04:30Z</time>
      </trkpt>
      <trkpt lat="44.06263" lon="2.02055">
        <ele>262.2</ele>
        <time>2021-09-05T09:04:33Z</time>
      </trkpt>
      <trkpt lat="44.06259" lon="2.02055">
        <ele>261.6</ele>
        <time>2021-09-05T09:04:34Z</time>
      </trkpt>
      <trkpt lat="44.06254" lon="2.02053">
        <ele>260.8</ele>
        <time>2021-09-05T09:04:35Z</time>
      </trkpt>
      <trkpt lat="44.06244" lon="2.02049">
        <ele>259.4</ele>
        <time>2021-09-05T09:04:37Z</time>
      </trkpt>
      <trkpt lat="44.06239" lon="2.02046">
        <ele>259</ele>
        <time>2021-09-05T09:04:38Z</time>
      </trkpt>
      <trkpt lat="44.06233" lon="2.02041">
        <ele>258.2</ele>
        <time>2021-09-05T09:04:39Z</time>
      </trkpt>
      <trkpt lat="44.06227" lon="2.02034">
        <ele>258</ele>
        <time>2021-09-05T09:04:40Z</time>
      </trkpt>
      <trkpt lat="44.06222" lon="2.02027">
        <ele>257</ele>
        <time>2021-09-05T09:04:41Z</time>
      </trkpt>
      <trkpt lat="44.06217" lon="2.02019">
        <ele>255.6</ele>
        <time>2021-09-05T09:04:42Z</time>
      </trkpt>
      <trkpt lat="44.06209" lon="2.02001">
        <ele>253.6</ele>
        <time>2021-09-05T09:04:44Z</time>
      </trkpt>
      <trkpt lat="44.06201" lon="2.01982">
        <ele>251.8</ele>
        <time>2021-09-05T09:04:46Z</time>
      </trkpt>
      <trkpt lat="44.06197" lon="2.01974">
        <ele>251.6</ele>
        <time>2021-09-05T09:04:47Z</time>
      </trkpt>
      <trkpt lat="44.06193" lon="2.01967">
        <ele>250.6</ele>
        <time>2021-09-05T09:04:48Z</time>
      </trkpt>
      <trkpt lat="44.06189" lon="2.01961">
        <ele>250.2</ele>
        <time>2021-09-05T09:04:49Z</time>
      </trkpt>
      <trkpt lat="44.06185" lon="2.01957">
        <ele>249.6</ele>
        <time>2021-09-05T09:04:50Z</time>
      </trkpt>
      <trkpt lat="44.06183" lon="2.01955">
        <ele>249</ele>
        <time>2021-09-05T09:04:51Z</time>
      </trkpt>
      <trkpt lat="44.06181" lon="2.01953">
        <ele>248.8</ele>
        <time>2021-09-05T09:04:52Z</time>
      </trkpt>
      <trkpt lat="44.06179" lon="2.01952">
        <ele>248.6</ele>
        <time>2021-09-05T09:04:53Z</time>
      </trkpt>
      <trkpt lat="44.06178" lon="2.01952">
        <ele>248.4</ele>
        <time>2021-09-05T09:04:54Z</time>
      </trkpt>
      <trkpt lat="44.06178" lon="2.01952">
        <ele>248.4</ele>
        <time>2021-09-05T09:04:55Z</time>
      </trkpt>
      <trkpt lat="44.06177" lon="2.01951">
        <ele>248.4</ele>
        <time>2021-09-05T09:04:56Z</time>
      </trkpt>
      <trkpt lat="44.06177" lon="2.01951">
        <ele>248.6</ele>
        <time>2021-09-05T09:04:57Z</time>
      </trkpt>
      <trkpt lat="44.06175" lon="2.01948">
        <ele>248.6</ele>
        <time>2021-09-05T09:07:46Z</time>
      </trkpt>
      <trkpt lat="44.06173" lon="2.01946">
        <ele>248.6</ele>
        <time>2021-09-05T09:07:48Z</time>
      </trkpt>
      <trkpt lat="44.06172" lon="2.01945">
        <ele>248.8</ele>
        <time>2021-09-05T09:07:49Z</time>
      </trkpt>
      <trkpt lat="44.06171" lon="2.01943">
        <ele>249.4</ele>
        <time>2021-09-05T09:08:07Z</time>
      </trkpt>
      <trkpt lat="44.06171" lon="2.0194">
        <ele>249.4</ele>
        <time>2021-09-05T09:08:09Z</time>
      </trkpt>
      <trkpt lat="44.06171" lon="2.01935">
        <ele>249.4</ele>
        <time>2021-09-05T09:08:11Z</time>
      </trkpt>
      <trkpt lat="44.06171" lon="2.01933">
        <ele>249.4</ele>
        <time>2021-09-05T09:08:12Z</time>
      </trkpt>
      <trkpt lat="44.06171" lon="2.0193">
        <ele>249.4</ele>
        <time>2021-09-05T09:08:13Z</time>
      </trkpt>
      <trkpt lat="44.06171" lon="2.01926">
        <ele>249.6</ele>
        <time>2021-09-05T09:08:15Z</time>
      </trkpt>
      <trkpt lat="44.06171" lon="2.01923">
        <ele>249.6</ele>
        <time>2021-09-05T09:08:16Z</time>
      </trkpt>
      <trkpt lat="44.06171" lon="2.01899">
        <ele>250.6</ele>
        <time>2021-09-05T09:08:24Z</time>
      </trkpt>
      <trkpt lat="44.06172" lon="2.01895">
        <ele>250.8</ele>
        <time>2021-09-05T09:08:25Z</time>
      </trkpt>
      <trkpt lat="44.06176" lon="2.01877">
        <ele>251.8</ele>
        <time>2021-09-05T09:08:30Z</time>
      </trkpt>
      <trkpt lat="44.06177" lon="2.01873">
        <ele>252</ele>
        <time>2021-09-05T09:08:31Z</time>
      </trkpt>
      <trkpt lat="44.06177" lon="2.01866">
        <ele>252.4</ele>
        <time>2021-09-05T09:08:33Z</time>
      </trkpt>
      <trkpt lat="44.06177" lon="2.01861">
        <ele>252.6</ele>
        <time>2021-09-05T09:08:34Z</time>
      </trkpt>
      <trkpt lat="44.06178" lon="2.01857">
        <ele>252.8</ele>
        <time>2021-09-05T09:08:35Z</time>
      </trkpt>
      <trkpt lat="44.06178" lon="2.01853">
        <ele>253.2</ele>
        <time>2021-09-05T09:08:36Z</time>
      </trkpt>
      <trkpt lat="44.06179" lon="2.01848">
        <ele>253.2</ele>
        <time>2021-09-05T09:08:37Z</time>
      </trkpt>
      <trkpt lat="44.06179" lon="2.01842">
        <ele>253.4</ele>
        <time>2021-09-05T09:08:38Z</time>
      </trkpt>
      <trkpt lat="44.06181" lon="2.01836">
        <ele>253.4</ele>
        <time>2021-09-05T09:08:39Z</time>
      </trkpt>
      <trkpt lat="44.06182" lon="2.0183">
        <ele>253.4</ele>
        <time>2021-09-05T09:08:40Z</time>
      </trkpt>
      <trkpt lat="44.06183" lon="2.01823">
        <ele>253.6</ele>
        <time>2021-09-05T09:08:41Z</time>
      </trkpt>
      <trkpt lat="44.06185" lon="2.01816">
        <ele>253.6</ele>
        <time>2021-09-05T09:08:42Z</time>
      </trkpt>
      <trkpt lat="44.06187" lon="2.01809">
        <ele>253.6</ele>
        <time>2021-09-05T09:08:43Z</time>
      </trkpt>
      <trkpt lat="44.06188" lon="2.01801">
        <ele>253.4</ele>
        <time>2021-09-05T09:08:44Z</time>
      </trkpt>
      <trkpt lat="44.06189" lon="2.01794">
        <ele>253.2</ele>
        <time>2021-09-05T09:08:45Z</time>
      </trkpt>
      <trkpt lat="44.0619" lon="2.01787">
        <ele>253</ele>
        <time>2021-09-05T09:08:46Z</time>
      </trkpt>
      <trkpt lat="44.06191" lon="2.01779">
        <ele>253</ele>
        <time>2021-09-05T09:08:47Z</time>
      </trkpt>
      <trkpt lat="44.06191" lon="2.01771">
        <ele>252.8</ele>
        <time>2021-09-05T09:08:48Z</time>
      </trkpt>
      <trkpt lat="44.06192" lon="2.01763">
        <ele>252.6</ele>
        <time>2021-09-05T09:08:49Z</time>
      </trkpt>
      <trkpt lat="44.06193" lon="2.01754">
        <ele>252.4</ele>
        <time>2021-09-05T09:08:50Z</time>
      </trkpt>
      <trkpt lat="44.06195" lon="2.01745">
        <ele>252.2</ele>
        <time>2021-09-05T09:08:51Z</time>
      </trkpt>
      <trkpt lat="44.06199" lon="2.01716">
        <ele>251.8</ele>
        <time>2021-09-05T09:08:54Z</time>
      </trkpt>
      <trkpt lat="44.06204" lon="2.01671">
        <ele>250.6</ele>
        <time>2021-09-05T09:08:58Z</time>
      </trkpt>
      <trkpt lat="44.06204" lon="2.01659">
        <ele>250.4</ele>
        <time>2021-09-05T09:08:59Z</time>
      </trkpt>
      <trkpt lat="44.06201" lon="2.01637">
        <ele>249.6</ele>
        <time>2021-09-05T09:09:01Z</time>
      </trkpt>
      <trkpt lat="44.06201" lon="2.01627">
        <ele>249.6</ele>
        <time>2021-09-05T09:09:02Z</time>
      </trkpt>
      <trkpt lat="44.062" lon="2.01616">
        <ele>249.2</ele>
        <time>2021-09-05T09:09:03Z</time>
      </trkpt>
      <trkpt lat="44.06199" lon="2.01594">
        <ele>248.6</ele>
        <time>2021-09-05T09:09:05Z</time>
      </trkpt>
      <trkpt lat="44.06202" lon="2.01573">
        <ele>248.4</ele>
        <time>2021-09-05T09:09:07Z</time>
      </trkpt>
      <trkpt lat="44.06204" lon="2.01564">
        <ele>248.4</ele>
        <time>2021-09-05T09:09:08Z</time>
      </trkpt>
      <trkpt lat="44.06208" lon="2.01556">
        <ele>248.4</ele>
        <time>2021-09-05T09:09:09Z</time>
      </trkpt>
      <trkpt lat="44.06213" lon="2.01548">
        <ele>248.4</ele>
        <time>2021-09-05T09:09:10Z</time>
      </trkpt>
      <trkpt lat="44.06218" lon="2.01541">
        <ele>248.4</ele>
        <time>2021-09-05T09:09:11Z</time>
      </trkpt>
      <trkpt lat="44.06223" lon="2.01533">
        <ele>248.2</ele>
        <time>2021-09-05T09:09:12Z</time>
      </trkpt>
      <trkpt lat="44.06227" lon="2.01526">
        <ele>248.2</ele>
        <time>2021-09-05T09:09:13Z</time>
      </trkpt>
      <trkpt lat="44.06232" lon="2.01518">
        <ele>248</ele>
        <time>2021-09-05T09:09:14Z</time>
      </trkpt>
      <trkpt lat="44.06239" lon="2.01502">
        <ele>248</ele>
        <time>2021-09-05T09:09:16Z</time>
      </trkpt>
      <trkpt lat="44.06268" lon="2.01432">
        <ele>248.6</ele>
        <time>2021-09-05T09:09:24Z</time>
      </trkpt>
      <trkpt lat="44.06272" lon="2.01423">
        <ele>248.4</ele>
        <time>2021-09-05T09:09:25Z</time>
      </trkpt>
      <trkpt lat="44.0629" lon="2.01373">
        <ele>248.2</ele>
        <time>2021-09-05T09:09:30Z</time>
      </trkpt>
      <trkpt lat="44.06296" lon="2.01339">
        <ele>247.6</ele>
        <time>2021-09-05T09:09:33Z</time>
      </trkpt>
      <trkpt lat="44.06299" lon="2.01315">
        <ele>247</ele>
        <time>2021-09-05T09:09:35Z</time>
      </trkpt>
      <trkpt lat="44.06301" lon="2.01291">
        <ele>246.4</ele>
        <time>2021-09-05T09:09:37Z</time>
      </trkpt>
      <trkpt lat="44.06307" lon="2.01256">
        <ele>245.2</ele>
        <time>2021-09-05T09:09:40Z</time>
      </trkpt>
      <trkpt lat="44.0631" lon="2.01244">
        <ele>244.8</ele>
        <time>2021-09-05T09:09:41Z</time>
      </trkpt>
      <trkpt lat="44.06323" lon="2.01211">
        <ele>243.8</ele>
        <time>2021-09-05T09:09:44Z</time>
      </trkpt>
      <trkpt lat="44.06328" lon="2.012">
        <ele>243.8</ele>
        <time>2021-09-05T09:09:45Z</time>
      </trkpt>
      <trkpt lat="44.06341" lon="2.01164">
        <ele>243.2</ele>
        <time>2021-09-05T09:09:48Z</time>
      </trkpt>
      <trkpt lat="44.06345" lon="2.01152">
        <ele>243</ele>
        <time>2021-09-05T09:09:49Z</time>
      </trkpt>
      <trkpt lat="44.06348" lon="2.01141">
        <ele>242.8</ele>
        <time>2021-09-05T09:09:50Z</time>
      </trkpt>
      <trkpt lat="44.06351" lon="2.0113">
        <ele>242.6</ele>
        <time>2021-09-05T09:09:51Z</time>
      </trkpt>
      <trkpt lat="44.06353" lon="2.0112">
        <ele>242.6</ele>
        <time>2021-09-05T09:09:52Z</time>
      </trkpt>
      <trkpt lat="44.06352" lon="2.0111">
        <ele>242.6</ele>
        <time>2021-09-05T09:09:53Z</time>
      </trkpt>
      <trkpt lat="44.06351" lon="2.01102">
        <ele>242.8</ele>
        <time>2021-09-05T09:09:54Z</time>
      </trkpt>
      <trkpt lat="44.06349" lon="2.01096">
        <ele>242.8</ele>
        <time>2021-09-05T09:09:55Z</time>
      </trkpt>
      <trkpt lat="44.06346" lon="2.01091">
        <ele>243</ele>
        <time>2021-09-05T09:09:56Z</time>
      </trkpt>
      <trkpt lat="44.06345" lon="2.01086">
        <ele>243</ele>
        <time>2021-09-05T09:09:57Z</time>
      </trkpt>
      <trkpt lat="44.06344" lon="2.01081">
        <ele>243.4</ele>
        <time>2021-09-05T09:09:58Z</time>
      </trkpt>
      <trkpt lat="44.06344" lon="2.01076">
        <ele>243.6</ele>
        <time>2021-09-05T09:09:59Z</time>
      </trkpt>
      <trkpt lat="44.06345" lon="2.01073">
        <ele>244.2</ele>
        <time>2021-09-05T09:10:00Z</time>
      </trkpt>
      <trkpt lat="44.06346" lon="2.01068">
        <ele>244.6</ele>
        <time>2021-09-05T09:10:01Z</time>
      </trkpt>
      <trkpt lat="44.06347" lon="2.01062">
        <ele>245.8</ele>
        <time>2021-09-05T09:10:02Z</time>
      </trkpt>
      <trkpt lat="44.0635" lon="2.01052">
        <ele>246.8</ele>
        <time>2021-09-05T09:10:04Z</time>
      </trkpt>
      <trkpt lat="44.06354" lon="2.01035">
        <ele>248.2</ele>
        <time>2021-09-05T09:10:07Z</time>
      </trkpt>
      <trkpt lat="44.06354" lon="2.01016">
        <ele>248.6</ele>
        <time>2021-09-05T09:10:10Z</time>
      </trkpt>
      <trkpt lat="44.06354" lon="2.01009">
        <ele>248.8</ele>
        <time>2021-09-05T09:10:11Z</time>
      </trkpt>
      <trkpt lat="44.06354" lon="2.01001">
        <ele>248.8</ele>
        <time>2021-09-05T09:10:12Z</time>
      </trkpt>
      <trkpt lat="44.06353" lon="2.00994">
        <ele>248.8</ele>
        <time>2021-09-05T09:10:13Z</time>
      </trkpt>
      <trkpt lat="44.06352" lon="2.00986">
        <ele>248.8</ele>
        <time>2021-09-05T09:10:14Z</time>
      </trkpt>
      <trkpt lat="44.06351" lon="2.00977">
        <ele>248.6</ele>
        <time>2021-09-05T09:10:15Z</time>
      </trkpt>
      <trkpt lat="44.0635" lon="2.00969">
        <ele>248.6</ele>
        <time>2021-09-05T09:10:16Z</time>
      </trkpt>
      <trkpt lat="44.06349" lon="2.00961">
        <ele>248.6</ele>
        <time>2021-09-05T09:10:17Z</time>
      </trkpt>
      <trkpt lat="44.06347" lon="2.00952">
        <ele>248.4</ele>
        <time>2021-09-05T09:10:18Z</time>
      </trkpt>
      <trkpt lat="44.06346" lon="2.00944">
        <ele>248.2</ele>
        <time>2021-09-05T09:10:19Z</time>
      </trkpt>
      <trkpt lat="44.06344" lon="2.00936">
        <ele>248.2</ele>
        <time>2021-09-05T09:10:20Z</time>
      </trkpt>
      <trkpt lat="44.06342" lon="2.00927">
        <ele>248</ele>
        <time>2021-09-05T09:10:21Z</time>
      </trkpt>
      <trkpt lat="44.06339" lon="2.00918">
        <ele>248</ele>
        <time>2021-09-05T09:10:22Z</time>
      </trkpt>
      <trkpt lat="44.06335" lon="2.00909">
        <ele>248</ele>
        <time>2021-09-05T09:10:23Z</time>
      </trkpt>
      <trkpt lat="44.0633" lon="2.00899">
        <ele>247.8</ele>
        <time>2021-09-05T09:10:24Z</time>
      </trkpt>
      <trkpt lat="44.06324" lon="2.0089">
        <ele>247.6</ele>
        <time>2021-09-05T09:10:25Z</time>
      </trkpt>
      <trkpt lat="44.06316" lon="2.00881">
        <ele>246.8</ele>
        <time>2021-09-05T09:10:26Z</time>
      </trkpt>
      <trkpt lat="44.06308" lon="2.00873">
        <ele>246.6</ele>
        <time>2021-09-05T09:10:27Z</time>
      </trkpt>
      <trkpt lat="44.06289" lon="2.0086">
        <ele>245.6</ele>
        <time>2021-09-05T09:10:29Z</time>
      </trkpt>
      <trkpt lat="44.06282" lon="2.00853">
        <ele>244.2</ele>
        <time>2021-09-05T09:10:30Z</time>
      </trkpt>
      <trkpt lat="44.06277" lon="2.00845">
        <ele>243.6</ele>
        <time>2021-09-05T09:10:31Z</time>
      </trkpt>
      <trkpt lat="44.06276" lon="2.00836">
        <ele>242.8</ele>
        <time>2021-09-05T09:10:32Z</time>
      </trkpt>
      <trkpt lat="44.06278" lon="2.00829">
        <ele>242.2</ele>
        <time>2021-09-05T09:10:33Z</time>
      </trkpt>
      <trkpt lat="44.06281" lon="2.00824">
        <ele>241.8</ele>
        <time>2021-09-05T09:10:34Z</time>
      </trkpt>
      <trkpt lat="44.06286" lon="2.0082">
        <ele>241.6</ele>
        <time>2021-09-05T09:10:35Z</time>
      </trkpt>
      <trkpt lat="44.06297" lon="2.00813">
        <ele>241.4</ele>
        <time>2021-09-05T09:10:37Z</time>
      </trkpt>
      <trkpt lat="44.06303" lon="2.00808">
        <ele>241.4</ele>
        <time>2021-09-05T09:10:38Z</time>
      </trkpt>
      <trkpt lat="44.06308" lon="2.00802">
        <ele>241.2</ele>
        <time>2021-09-05T09:10:39Z</time>
      </trkpt>
      <trkpt lat="44.06313" lon="2.00795">
        <ele>241.2</ele>
        <time>2021-09-05T09:10:40Z</time>
      </trkpt>
      <trkpt lat="44.0632" lon="2.00777">
        <ele>241</ele>
        <time>2021-09-05T09:10:42Z</time>
      </trkpt>
      <trkpt lat="44.06322" lon="2.00768">
        <ele>241</ele>
        <time>2021-09-05T09:10:43Z</time>
      </trkpt>
      <trkpt lat="44.06323" lon="2.00757">
        <ele>241</ele>
        <time>2021-09-05T09:10:44Z</time>
      </trkpt>
      <trkpt lat="44.06324" lon="2.00746">
        <ele>241</ele>
        <time>2021-09-05T09:10:45Z</time>
      </trkpt>
      <trkpt lat="44.06324" lon="2.00725">
        <ele>240.8</ele>
        <time>2021-09-05T09:10:47Z</time>
      </trkpt>
      <trkpt lat="44.06323" lon="2.00714">
        <ele>240.8</ele>
        <time>2021-09-05T09:10:48Z</time>
      </trkpt>
      <trkpt lat="44.06323" lon="2.00704">
        <ele>240.8</ele>
        <time>2021-09-05T09:10:49Z</time>
      </trkpt>
      <trkpt lat="44.06323" lon="2.00694">
        <ele>240.8</ele>
        <time>2021-09-05T09:10:50Z</time>
      </trkpt>
      <trkpt lat="44.06323" lon="2.00686">
        <ele>241</ele>
        <time>2021-09-05T09:10:51Z</time>
      </trkpt>
      <trkpt lat="44.06323" lon="2.00677">
        <ele>241</ele>
        <time>2021-09-05T09:10:52Z</time>
      </trkpt>
      <trkpt lat="44.06323" lon="2.00669">
        <ele>241.2</ele>
        <time>2021-09-05T09:10:53Z</time>
      </trkpt>
      <trkpt lat="44.06322" lon="2.00663">
        <ele>241.4</ele>
        <time>2021-09-05T09:10:54Z</time>
      </trkpt>
      <trkpt lat="44.0632" lon="2.00656">
        <ele>241.6</ele>
        <time>2021-09-05T09:10:55Z</time>
      </trkpt>
      <trkpt lat="44.06319" lon="2.00651">
        <ele>241.8</ele>
        <time>2021-09-05T09:10:56Z</time>
      </trkpt>
      <trkpt lat="44.06317" lon="2.00646">
        <ele>242</ele>
        <time>2021-09-05T09:10:57Z</time>
      </trkpt>
      <trkpt lat="44.06315" lon="2.00642">
        <ele>242.2</ele>
        <time>2021-09-05T09:10:58Z</time>
      </trkpt>
      <trkpt lat="44.06313" lon="2.00638">
        <ele>242.4</ele>
        <time>2021-09-05T09:10:59Z</time>
      </trkpt>
      <trkpt lat="44.06311" lon="2.00635">
        <ele>242.6</ele>
        <time>2021-09-05T09:11:00Z</time>
      </trkpt>
      <trkpt lat="44.06309" lon="2.00631">
        <ele>242.8</ele>
        <time>2021-09-05T09:11:01Z</time>
      </trkpt>
      <trkpt lat="44.06307" lon="2.00628">
        <ele>243.2</ele>
        <time>2021-09-05T09:11:02Z</time>
      </trkpt>
      <trkpt lat="44.06306" lon="2.00625">
        <ele>243.2</ele>
        <time>2021-09-05T09:11:03Z</time>
      </trkpt>
      <trkpt lat="44.06304" lon="2.00622">
        <ele>243.6</ele>
        <time>2021-09-05T09:11:04Z</time>
      </trkpt>
      <trkpt lat="44.06302" lon="2.00619">
        <ele>244</ele>
        <time>2021-09-05T09:11:05Z</time>
      </trkpt>
      <trkpt lat="44.063" lon="2.00615">
        <ele>244.2</ele>
        <time>2021-09-05T09:11:06Z</time>
      </trkpt>
      <trkpt lat="44.06298" lon="2.00612">
        <ele>244.4</ele>
        <time>2021-09-05T09:11:07Z</time>
      </trkpt>
      <trkpt lat="44.06295" lon="2.00604">
        <ele>244.6</ele>
        <time>2021-09-05T09:11:09Z</time>
      </trkpt>
      <trkpt lat="44.06292" lon="2.00592">
        <ele>244.6</ele>
        <time>2021-09-05T09:11:11Z</time>
      </trkpt>
      <trkpt lat="44.06291" lon="2.00584">
        <ele>244.6</ele>
        <time>2021-09-05T09:11:12Z</time>
      </trkpt>
      <trkpt lat="44.0629" lon="2.00574">
        <ele>244.4</ele>
        <time>2021-09-05T09:11:13Z</time>
      </trkpt>
      <trkpt lat="44.06289" lon="2.00562">
        <ele>244.2</ele>
        <time>2021-09-05T09:11:14Z</time>
      </trkpt>
      <trkpt lat="44.06287" lon="2.0055">
        <ele>244.2</ele>
        <time>2021-09-05T09:11:15Z</time>
      </trkpt>
      <trkpt lat="44.06286" lon="2.00538">
        <ele>243.8</ele>
        <time>2021-09-05T09:11:16Z</time>
      </trkpt>
      <trkpt lat="44.06285" lon="2.00526">
        <ele>243.6</ele>
        <time>2021-09-05T09:11:17Z</time>
      </trkpt>
      <trkpt lat="44.06284" lon="2.00515">
        <ele>242.8</ele>
        <time>2021-09-05T09:11:18Z</time>
      </trkpt>
      <trkpt lat="44.06284" lon="2.00506">
        <ele>242.4</ele>
        <time>2021-09-05T09:11:19Z</time>
      </trkpt>
      <trkpt lat="44.06283" lon="2.00497">
        <ele>242</ele>
        <time>2021-09-05T09:11:20Z</time>
      </trkpt>
      <trkpt lat="44.06282" lon="2.0049">
        <ele>241.8</ele>
        <time>2021-09-05T09:11:21Z</time>
      </trkpt>
      <trkpt lat="44.06281" lon="2.00483">
        <ele>241.8</ele>
        <time>2021-09-05T09:11:22Z</time>
      </trkpt>
      <trkpt lat="44.0628" lon="2.00478">
        <ele>241.8</ele>
        <time>2021-09-05T09:11:23Z</time>
      </trkpt>
      <trkpt lat="44.06279" lon="2.00475">
        <ele>241.8</ele>
        <time>2021-09-05T09:11:24Z</time>
      </trkpt>
      <trkpt lat="44.06277" lon="2.00473">
        <ele>241.8</ele>
        <time>2021-09-05T09:11:25Z</time>
      </trkpt>
      <trkpt lat="44.06276" lon="2.00471">
        <ele>241.8</ele>
        <time>2021-09-05T09:11:26Z</time>
      </trkpt>
      <trkpt lat="44.06274" lon="2.00469">
        <ele>242</ele>
        <time>2021-09-05T09:11:27Z</time>
      </trkpt>
      <trkpt lat="44.06273" lon="2.00467">
        <ele>242.4</ele>
        <time>2021-09-05T09:11:28Z</time>
      </trkpt>
      <trkpt lat="44.06271" lon="2.00466">
        <ele>242.8</ele>
        <time>2021-09-05T09:11:29Z</time>
      </trkpt>
      <trkpt lat="44.0627" lon="2.00466">
        <ele>243.4</ele>
        <time>2021-09-05T09:11:30Z</time>
      </trkpt>
      <trkpt lat="44.06268" lon="2.00466">
        <ele>243.6</ele>
        <time>2021-09-05T09:11:31Z</time>
      </trkpt>
      <trkpt lat="44.06266" lon="2.00466">
        <ele>244</ele>
        <time>2021-09-05T09:11:32Z</time>
      </trkpt>
      <trkpt lat="44.06265" lon="2.00466">
        <ele>244.4</ele>
        <time>2021-09-05T09:11:33Z</time>
      </trkpt>
      <trkpt lat="44.06263" lon="2.00465">
        <ele>244.8</ele>
        <time>2021-09-05T09:11:34Z</time>
      </trkpt>
      <trkpt lat="44.06261" lon="2.00465">
        <ele>245</ele>
        <time>2021-09-05T09:11:35Z</time>
      </trkpt>
      <trkpt lat="44.0626" lon="2.00464">
        <ele>245.2</ele>
        <time>2021-09-05T09:11:36Z</time>
      </trkpt>
      <trkpt lat="44.06255" lon="2.00463">
        <ele>245.6</ele>
        <time>2021-09-05T09:11:39Z</time>
      </trkpt>
      <trkpt lat="44.06253" lon="2.00463">
        <ele>245.8</ele>
        <time>2021-09-05T09:11:40Z</time>
      </trkpt>
      <trkpt lat="44.06252" lon="2.00462">
        <ele>246.2</ele>
        <time>2021-09-05T09:11:41Z</time>
      </trkpt>
      <trkpt lat="44.06251" lon="2.00462">
        <ele>246.2</ele>
        <time>2021-09-05T09:11:42Z</time>
      </trkpt>
      <trkpt lat="44.0625" lon="2.00462">
        <ele>246.6</ele>
        <time>2021-09-05T09:11:43Z</time>
      </trkpt>
      <trkpt lat="44.06249" lon="2.00462">
        <ele>246.8</ele>
        <time>2021-09-05T09:11:44Z</time>
      </trkpt>
      <trkpt lat="44.06248" lon="2.00462">
        <ele>247</ele>
        <time>2021-09-05T09:11:45Z</time>
      </trkpt>
      <trkpt lat="44.06246" lon="2.00462">
        <ele>247.2</ele>
        <time>2021-09-05T09:11:46Z</time>
      </trkpt>
      <trkpt lat="44.06244" lon="2.00461">
        <ele>247.4</ele>
        <time>2021-09-05T09:11:47Z</time>
      </trkpt>
      <trkpt lat="44.06243" lon="2.00461">
        <ele>247.6</ele>
        <time>2021-09-05T09:11:48Z</time>
      </trkpt>
      <trkpt lat="44.06241" lon="2.00461">
        <ele>247.8</ele>
        <time>2021-09-05T09:11:49Z</time>
      </trkpt>
      <trkpt lat="44.06239" lon="2.00461">
        <ele>248</ele>
        <time>2021-09-05T09:11:50Z</time>
      </trkpt>
      <trkpt lat="44.06237" lon="2.0046">
        <ele>248.2</ele>
        <time>2021-09-05T09:11:51Z</time>
      </trkpt>
      <trkpt lat="44.06236" lon="2.0046">
        <ele>248.2</ele>
        <time>2021-09-05T09:11:52Z</time>
      </trkpt>
      <trkpt lat="44.06234" lon="2.00459">
        <ele>248.4</ele>
        <time>2021-09-05T09:11:53Z</time>
      </trkpt>
      <trkpt lat="44.06233" lon="2.00459">
        <ele>248.6</ele>
        <time>2021-09-05T09:11:54Z</time>
      </trkpt>
      <trkpt lat="44.06231" lon="2.00459">
        <ele>249</ele>
        <time>2021-09-05T09:11:55Z</time>
      </trkpt>
      <trkpt lat="44.06229" lon="2.00459">
        <ele>249</ele>
        <time>2021-09-05T09:11:56Z</time>
      </trkpt>
      <trkpt lat="44.06228" lon="2.00458">
        <ele>249.2</ele>
        <time>2021-09-05T09:11:57Z</time>
      </trkpt>
      <trkpt lat="44.06226" lon="2.00458">
        <ele>249.4</ele>
        <time>2021-09-05T09:11:58Z</time>
      </trkpt>
      <trkpt lat="44.06225" lon="2.00458">
        <ele>249.4</ele>
        <time>2021-09-05T09:11:59Z</time>
      </trkpt>
      <trkpt lat="44.06223" lon="2.00458">
        <ele>249.6</ele>
        <time>2021-09-05T09:12:00Z</time>
      </trkpt>
      <trkpt lat="44.06221" lon="2.00458">
        <ele>249.8</ele>
        <time>2021-09-05T09:12:01Z</time>
      </trkpt>
      <trkpt lat="44.0622" lon="2.00458">
        <ele>250</ele>
        <time>2021-09-05T09:12:02Z</time>
      </trkpt>
      <trkpt lat="44.06218" lon="2.00458">
        <ele>250</ele>
        <time>2021-09-05T09:12:03Z</time>
      </trkpt>
      <trkpt lat="44.06217" lon="2.00459">
        <ele>250.4</ele>
        <time>2021-09-05T09:12:04Z</time>
      </trkpt>
      <trkpt lat="44.06215" lon="2.00459">
        <ele>250.4</ele>
        <time>2021-09-05T09:12:05Z</time>
      </trkpt>
      <trkpt lat="44.06214" lon="2.00458">
        <ele>250.6</ele>
        <time>2021-09-05T09:12:06Z</time>
      </trkpt>
      <trkpt lat="44.06212" lon="2.00457">
        <ele>250.8</ele>
        <time>2021-09-05T09:12:07Z</time>
      </trkpt>
      <trkpt lat="44.0621" lon="2.00457">
        <ele>250.8</ele>
        <time>2021-09-05T09:12:08Z</time>
      </trkpt>
      <trkpt lat="44.06209" lon="2.00457">
        <ele>251</ele>
        <time>2021-09-05T09:12:09Z</time>
      </trkpt>
      <trkpt lat="44.06208" lon="2.00457">
        <ele>251</ele>
        <time>2021-09-05T09:12:10Z</time>
      </trkpt>
      <trkpt lat="44.06206" lon="2.00456">
        <ele>251.2</ele>
        <time>2021-09-05T09:12:11Z</time>
      </trkpt>
      <trkpt lat="44.06204" lon="2.00455">
        <ele>251.4</ele>
        <time>2021-09-05T09:12:12Z</time>
      </trkpt>
      <trkpt lat="44.06203" lon="2.00454">
        <ele>251.6</ele>
        <time>2021-09-05T09:12:13Z</time>
      </trkpt>
      <trkpt lat="44.06201" lon="2.00454">
        <ele>251.8</ele>
        <time>2021-09-05T09:12:14Z</time>
      </trkpt>
      <trkpt lat="44.062" lon="2.00453">
        <ele>252</ele>
        <time>2021-09-05T09:12:15Z</time>
      </trkpt>
      <trkpt lat="44.06198" lon="2.00452">
        <ele>252.2</ele>
        <time>2021-09-05T09:12:16Z</time>
      </trkpt>
      <trkpt lat="44.06197" lon="2.00452">
        <ele>252.4</ele>
        <time>2021-09-05T09:12:17Z</time>
      </trkpt>
      <trkpt lat="44.06195" lon="2.00451">
        <ele>252.6</ele>
        <time>2021-09-05T09:12:18Z</time>
      </trkpt>
      <trkpt lat="44.06194" lon="2.0045">
        <ele>252.8</ele>
        <time>2021-09-05T09:12:19Z</time>
      </trkpt>
      <trkpt lat="44.06192" lon="2.00449">
        <ele>253</ele>
        <time>2021-09-05T09:12:20Z</time>
      </trkpt>
      <trkpt lat="44.06191" lon="2.00449">
        <ele>253</ele>
        <time>2021-09-05T09:12:21Z</time>
      </trkpt>
      <trkpt lat="44.0619" lon="2.00449">
        <ele>253.2</ele>
        <time>2021-09-05T09:12:22Z</time>
      </trkpt>
      <trkpt lat="44.06189" lon="2.00449">
        <ele>253.4</ele>
        <time>2021-09-05T09:12:23Z</time>
      </trkpt>
      <trkpt lat="44.06188" lon="2.00448">
        <ele>253.6</ele>
        <time>2021-09-05T09:12:24Z</time>
      </trkpt>
      <trkpt lat="44.06187" lon="2.00449">
        <ele>253.8</ele>
        <time>2021-09-05T09:12:25Z</time>
      </trkpt>
      <trkpt lat="44.06185" lon="2.00449">
        <ele>254</ele>
        <time>2021-09-05T09:12:26Z</time>
      </trkpt>
      <trkpt lat="44.06184" lon="2.00448">
        <ele>254.2</ele>
        <time>2021-09-05T09:12:27Z</time>
      </trkpt>
      <trkpt lat="44.06183" lon="2.00448">
        <ele>254.4</ele>
        <time>2021-09-05T09:12:28Z</time>
      </trkpt>
      <trkpt lat="44.06181" lon="2.00447">
        <ele>254.8</ele>
        <time>2021-09-05T09:12:29Z</time>
      </trkpt>
      <trkpt lat="44.06179" lon="2.00447">
        <ele>254.8</ele>
        <time>2021-09-05T09:12:30Z</time>
      </trkpt>
      <trkpt lat="44.06179" lon="2.00447">
        <ele>255.2</ele>
        <time>2021-09-05T09:12:31Z</time>
      </trkpt>
      <trkpt lat="44.06178" lon="2.00446">
        <ele>255.4</ele>
        <time>2021-09-05T09:12:32Z</time>
      </trkpt>
      <trkpt lat="44.06177" lon="2.00446">
        <ele>255.4</ele>
        <time>2021-09-05T09:12:33Z</time>
      </trkpt>
      <trkpt lat="44.06175" lon="2.00446">
        <ele>255.6</ele>
        <time>2021-09-05T09:12:34Z</time>
      </trkpt>
      <trkpt lat="44.06173" lon="2.00445">
        <ele>255.8</ele>
        <time>2021-09-05T09:12:35Z</time>
      </trkpt>
      <trkpt lat="44.06172" lon="2.00444">
        <ele>256</ele>
        <time>2021-09-05T09:12:36Z</time>
      </trkpt>
      <trkpt lat="44.0617" lon="2.00443">
        <ele>256</ele>
        <time>2021-09-05T09:12:37Z</time>
      </trkpt>
      <trkpt lat="44.06168" lon="2.00443">
        <ele>256.4</ele>
        <time>2021-09-05T09:12:38Z</time>
      </trkpt>
      <trkpt lat="44.06167" lon="2.00443">
        <ele>256.6</ele>
        <time>2021-09-05T09:12:39Z</time>
      </trkpt>
      <trkpt lat="44.06164" lon="2.00442">
        <ele>256.6</ele>
        <time>2021-09-05T09:12:40Z</time>
      </trkpt>
      <trkpt lat="44.06163" lon="2.00442">
        <ele>257</ele>
        <time>2021-09-05T09:12:41Z</time>
      </trkpt>
      <trkpt lat="44.06162" lon="2.00441">
        <ele>257</ele>
        <time>2021-09-05T09:12:42Z</time>
      </trkpt>
      <trkpt lat="44.0616" lon="2.00441">
        <ele>257.4</ele>
        <time>2021-09-05T09:12:43Z</time>
      </trkpt>
      <trkpt lat="44.06158" lon="2.00441">
        <ele>257.4</ele>
        <time>2021-09-05T09:12:44Z</time>
      </trkpt>
      <trkpt lat="44.06155" lon="2.00441">
        <ele>257.8</ele>
        <time>2021-09-05T09:12:45Z</time>
      </trkpt>
      <trkpt lat="44.06153" lon="2.00441">
        <ele>258</ele>
        <time>2021-09-05T09:12:46Z</time>
      </trkpt>
      <trkpt lat="44.06152" lon="2.00439">
        <ele>258</ele>
        <time>2021-09-05T09:12:47Z</time>
      </trkpt>
      <trkpt lat="44.06151" lon="2.00437">
        <ele>258.2</ele>
        <time>2021-09-05T09:12:48Z</time>
      </trkpt>
      <trkpt lat="44.06149" lon="2.00436">
        <ele>258.4</ele>
        <time>2021-09-05T09:12:49Z</time>
      </trkpt>
      <trkpt lat="44.06148" lon="2.00434">
        <ele>258.6</ele>
        <time>2021-09-05T09:12:50Z</time>
      </trkpt>
      <trkpt lat="44.06148" lon="2.00433">
        <ele>258.8</ele>
        <time>2021-09-05T09:12:51Z</time>
      </trkpt>
      <trkpt lat="44.06149" lon="2.00431">
        <ele>259.2</ele>
        <time>2021-09-05T09:12:52Z</time>
      </trkpt>
      <trkpt lat="44.06151" lon="2.00429">
        <ele>259.4</ele>
        <time>2021-09-05T09:12:53Z</time>
      </trkpt>
      <trkpt lat="44.06151" lon="2.00428">
        <ele>259.6</ele>
        <time>2021-09-05T09:12:54Z</time>
      </trkpt>
      <trkpt lat="44.06151" lon="2.00428">
        <ele>259.8</ele>
        <time>2021-09-05T09:12:55Z</time>
      </trkpt>
      <trkpt lat="44.06152" lon="2.00429">
        <ele>260</ele>
        <time>2021-09-05T09:12:56Z</time>
      </trkpt>
      <trkpt lat="44.06153" lon="2.00428">
        <ele>260.4</ele>
        <time>2021-09-05T09:12:57Z</time>
      </trkpt>
      <trkpt lat="44.06154" lon="2.00427">
        <ele>260.6</ele>
        <time>2021-09-05T09:12:58Z</time>
      </trkpt>
      <trkpt lat="44.06155" lon="2.00426">
        <ele>261</ele>
        <time>2021-09-05T09:12:59Z</time>
      </trkpt>
      <trkpt lat="44.06156" lon="2.00425">
        <ele>261</ele>
        <time>2021-09-05T09:13:00Z</time>
      </trkpt>
      <trkpt lat="44.06157" lon="2.00425">
        <ele>261</ele>
        <time>2021-09-05T09:13:01Z</time>
      </trkpt>
      <trkpt lat="44.06157" lon="2.00425">
        <ele>261.2</ele>
        <time>2021-09-05T09:13:02Z</time>
      </trkpt>
      <trkpt lat="44.06159" lon="2.00424">
        <ele>261.2</ele>
        <time>2021-09-05T09:13:03Z</time>
      </trkpt>
      <trkpt lat="44.0616" lon="2.00423">
        <ele>261.4</ele>
        <time>2021-09-05T09:13:04Z</time>
      </trkpt>
      <trkpt lat="44.06161" lon="2.00422">
        <ele>261.4</ele>
        <time>2021-09-05T09:13:05Z</time>
      </trkpt>
      <trkpt lat="44.06162" lon="2.00422">
        <ele>261.6</ele>
        <time>2021-09-05T09:13:06Z</time>
      </trkpt>
      <trkpt lat="44.06162" lon="2.00421">
        <ele>261.6</ele>
        <time>2021-09-05T09:13:07Z</time>
      </trkpt>
      <trkpt lat="44.06163" lon="2.00421">
        <ele>261.8</ele>
        <time>2021-09-05T09:13:08Z</time>
      </trkpt>
      <trkpt lat="44.06164" lon="2.0042">
        <ele>262</ele>
        <time>2021-09-05T09:13:09Z</time>
      </trkpt>
      <trkpt lat="44.06166" lon="2.0042">
        <ele>262</ele>
        <time>2021-09-05T09:13:10Z</time>
      </trkpt>
      <trkpt lat="44.06167" lon="2.00419">
        <ele>262.2</ele>
        <time>2021-09-05T09:13:11Z</time>
      </trkpt>
      <trkpt lat="44.06168" lon="2.00418">
        <ele>262.4</ele>
        <time>2021-09-05T09:13:12Z</time>
      </trkpt>
      <trkpt lat="44.06169" lon="2.00417">
        <ele>262.4</ele>
        <time>2021-09-05T09:13:13Z</time>
      </trkpt>
      <trkpt lat="44.0617" lon="2.00415">
        <ele>262.6</ele>
        <time>2021-09-05T09:13:14Z</time>
      </trkpt>
      <trkpt lat="44.06171" lon="2.00414">
        <ele>262.8</ele>
        <time>2021-09-05T09:13:15Z</time>
      </trkpt>
      <trkpt lat="44.06172" lon="2.00413">
        <ele>262.8</ele>
        <time>2021-09-05T09:13:16Z</time>
      </trkpt>
      <trkpt lat="44.06174" lon="2.00412">
        <ele>263.2</ele>
        <time>2021-09-05T09:13:17Z</time>
      </trkpt>
      <trkpt lat="44.06175" lon="2.00412">
        <ele>263.4</ele>
        <time>2021-09-05T09:13:18Z</time>
      </trkpt>
      <trkpt lat="44.06176" lon="2.00412">
        <ele>263.4</ele>
        <time>2021-09-05T09:13:19Z</time>
      </trkpt>
      <trkpt lat="44.06177" lon="2.00412">
        <ele>263.4</ele>
        <time>2021-09-05T09:13:20Z</time>
      </trkpt>
      <trkpt lat="44.06179" lon="2.00412">
        <ele>263.6</ele>
        <time>2021-09-05T09:13:21Z</time>
      </trkpt>
      <trkpt lat="44.06181" lon="2.00411">
        <ele>263.6</ele>
        <time>2021-09-05T09:13:22Z</time>
      </trkpt>
      <trkpt lat="44.06182" lon="2.00411">
        <ele>263.8</ele>
        <time>2021-09-05T09:13:23Z</time>
      </trkpt>
      <trkpt lat="44.06183" lon="2.0041">
        <ele>264</ele>
        <time>2021-09-05T09:13:24Z</time>
      </trkpt>
      <trkpt lat="44.06184" lon="2.00409">
        <ele>264.2</ele>
        <time>2021-09-05T09:13:25Z</time>
      </trkpt>
      <trkpt lat="44.06186" lon="2.00408">
        <ele>264.4</ele>
        <time>2021-09-05T09:13:26Z</time>
      </trkpt>
      <trkpt lat="44.06188" lon="2.00407">
        <ele>264.6</ele>
        <time>2021-09-05T09:13:27Z</time>
      </trkpt>
      <trkpt lat="44.0619" lon="2.00406">
        <ele>264.8</ele>
        <time>2021-09-05T09:13:28Z</time>
      </trkpt>
      <trkpt lat="44.06192" lon="2.00406">
        <ele>265</ele>
        <time>2021-09-05T09:13:29Z</time>
      </trkpt>
      <trkpt lat="44.06194" lon="2.00405">
        <ele>265.2</ele>
        <time>2021-09-05T09:13:30Z</time>
      </trkpt>
      <trkpt lat="44.06198" lon="2.00405">
        <ele>265.2</ele>
        <time>2021-09-05T09:13:31Z</time>
      </trkpt>
      <trkpt lat="44.062" lon="2.00403">
        <ele>265.4</ele>
        <time>2021-09-05T09:13:32Z</time>
      </trkpt>
      <trkpt lat="44.062" lon="2.00401">
        <ele>265.6</ele>
        <time>2021-09-05T09:13:33Z</time>
      </trkpt>
      <trkpt lat="44.06201" lon="2.00399">
        <ele>265.8</ele>
        <time>2021-09-05T09:13:34Z</time>
      </trkpt>
      <trkpt lat="44.06202" lon="2.00398">
        <ele>266</ele>
        <time>2021-09-05T09:13:35Z</time>
      </trkpt>
      <trkpt lat="44.06203" lon="2.00398">
        <ele>266</ele>
        <time>2021-09-05T09:13:36Z</time>
      </trkpt>
      <trkpt lat="44.06204" lon="2.00396">
        <ele>266.2</ele>
        <time>2021-09-05T09:13:37Z</time>
      </trkpt>
      <trkpt lat="44.06205" lon="2.00396">
        <ele>266.4</ele>
        <time>2021-09-05T09:13:38Z</time>
      </trkpt>
      <trkpt lat="44.06206" lon="2.00394">
        <ele>266.4</ele>
        <time>2021-09-05T09:13:39Z</time>
      </trkpt>
      <trkpt lat="44.06208" lon="2.00393">
        <ele>266.8</ele>
        <time>2021-09-05T09:13:40Z</time>
      </trkpt>
      <trkpt lat="44.06209" lon="2.00392">
        <ele>267.2</ele>
        <time>2021-09-05T09:13:41Z</time>
      </trkpt>
      <trkpt lat="44.06209" lon="2.00391">
        <ele>267.2</ele>
        <time>2021-09-05T09:13:42Z</time>
      </trkpt>
      <trkpt lat="44.0621" lon="2.0039">
        <ele>267.6</ele>
        <time>2021-09-05T09:13:43Z</time>
      </trkpt>
      <trkpt lat="44.06211" lon="2.00389">
        <ele>267.8</ele>
        <time>2021-09-05T09:13:44Z</time>
      </trkpt>
      <trkpt lat="44.06212" lon="2.00388">
        <ele>268</ele>
        <time>2021-09-05T09:13:45Z</time>
      </trkpt>
      <trkpt lat="44.06213" lon="2.00387">
        <ele>268</ele>
        <time>2021-09-05T09:13:46Z</time>
      </trkpt>
      <trkpt lat="44.06214" lon="2.00387">
        <ele>268.2</ele>
        <time>2021-09-05T09:13:47Z</time>
      </trkpt>
      <trkpt lat="44.06216" lon="2.00386">
        <ele>268.2</ele>
        <time>2021-09-05T09:13:48Z</time>
      </trkpt>
      <trkpt lat="44.06216" lon="2.00385">
        <ele>268.4</ele>
        <time>2021-09-05T09:13:49Z</time>
      </trkpt>
      <trkpt lat="44.06218" lon="2.00384">
        <ele>268.6</ele>
        <time>2021-09-05T09:13:50Z</time>
      </trkpt>
      <trkpt lat="44.06219" lon="2.00383">
        <ele>268.8</ele>
        <time>2021-09-05T09:13:51Z</time>
      </trkpt>
      <trkpt lat="44.06221" lon="2.00382">
        <ele>269.2</ele>
        <time>2021-09-05T09:13:52Z</time>
      </trkpt>
      <trkpt lat="44.06222" lon="2.00381">
        <ele>269.2</ele>
        <time>2021-09-05T09:13:53Z</time>
      </trkpt>
      <trkpt lat="44.06223" lon="2.0038">
        <ele>269.4</ele>
        <time>2021-09-05T09:13:54Z</time>
      </trkpt>
      <trkpt lat="44.06224" lon="2.00379">
        <ele>269.4</ele>
        <time>2021-09-05T09:13:55Z</time>
      </trkpt>
      <trkpt lat="44.06225" lon="2.00378">
        <ele>269.6</ele>
        <time>2021-09-05T09:13:56Z</time>
      </trkpt>
      <trkpt lat="44.06226" lon="2.00377">
        <ele>269.8</ele>
        <time>2021-09-05T09:13:57Z</time>
      </trkpt>
      <trkpt lat="44.06227" lon="2.00376">
        <ele>270</ele>
        <time>2021-09-05T09:13:58Z</time>
      </trkpt>
      <trkpt lat="44.06228" lon="2.00375">
        <ele>270.2</ele>
        <time>2021-09-05T09:13:59Z</time>
      </trkpt>
      <trkpt lat="44.06229" lon="2.00374">
        <ele>270.2</ele>
        <time>2021-09-05T09:14:00Z</time>
      </trkpt>
      <trkpt lat="44.0623" lon="2.00372">
        <ele>270.4</ele>
        <time>2021-09-05T09:14:01Z</time>
      </trkpt>
      <trkpt lat="44.06231" lon="2.00369">
        <ele>270.4</ele>
        <time>2021-09-05T09:14:02Z</time>
      </trkpt>
      <trkpt lat="44.06232" lon="2.00367">
        <ele>270.6</ele>
        <time>2021-09-05T09:14:03Z</time>
      </trkpt>
      <trkpt lat="44.06233" lon="2.00366">
        <ele>270.8</ele>
        <time>2021-09-05T09:14:04Z</time>
      </trkpt>
      <trkpt lat="44.06234" lon="2.00363">
        <ele>271</ele>
        <time>2021-09-05T09:14:05Z</time>
      </trkpt>
      <trkpt lat="44.06235" lon="2.00361">
        <ele>271.4</ele>
        <time>2021-09-05T09:14:06Z</time>
      </trkpt>
      <trkpt lat="44.06236" lon="2.00358">
        <ele>271.6</ele>
        <time>2021-09-05T09:14:07Z</time>
      </trkpt>
      <trkpt lat="44.06237" lon="2.00357">
        <ele>271.8</ele>
        <time>2021-09-05T09:14:08Z</time>
      </trkpt>
      <trkpt lat="44.06238" lon="2.00354">
        <ele>271.8</ele>
        <time>2021-09-05T09:14:09Z</time>
      </trkpt>
      <trkpt lat="44.0624" lon="2.0035">
        <ele>272</ele>
        <time>2021-09-05T09:14:10Z</time>
      </trkpt>
      <trkpt lat="44.06241" lon="2.00347">
        <ele>272</ele>
        <time>2021-09-05T09:14:11Z</time>
      </trkpt>
      <trkpt lat="44.06242" lon="2.00345">
        <ele>272.2</ele>
        <time>2021-09-05T09:14:12Z</time>
      </trkpt>
      <trkpt lat="44.06243" lon="2.00343">
        <ele>272.6</ele>
        <time>2021-09-05T09:14:13Z</time>
      </trkpt>
      <trkpt lat="44.06244" lon="2.00342">
        <ele>272.6</ele>
        <time>2021-09-05T09:14:14Z</time>
      </trkpt>
      <trkpt lat="44.06243" lon="2.00339">
        <ele>272.8</ele>
        <time>2021-09-05T09:14:15Z</time>
      </trkpt>
      <trkpt lat="44.06242" lon="2.00336">
        <ele>273</ele>
        <time>2021-09-05T09:14:16Z</time>
      </trkpt>
      <trkpt lat="44.06241" lon="2.00335">
        <ele>273.4</ele>
        <time>2021-09-05T09:14:17Z</time>
      </trkpt>
      <trkpt lat="44.0624" lon="2.00332">
        <ele>273.6</ele>
        <time>2021-09-05T09:14:18Z</time>
      </trkpt>
      <trkpt lat="44.0624" lon="2.00329">
        <ele>273.8</ele>
        <time>2021-09-05T09:14:19Z</time>
      </trkpt>
      <trkpt lat="44.06241" lon="2.00327">
        <ele>274</ele>
        <time>2021-09-05T09:14:20Z</time>
      </trkpt>
      <trkpt lat="44.06243" lon="2.00323">
        <ele>274.2</ele>
        <time>2021-09-05T09:14:21Z</time>
      </trkpt>
      <trkpt lat="44.06243" lon="2.00321">
        <ele>274.2</ele>
        <time>2021-09-05T09:14:22Z</time>
      </trkpt>
      <trkpt lat="44.06244" lon="2.00319">
        <ele>274.4</ele>
        <time>2021-09-05T09:14:23Z</time>
      </trkpt>
      <trkpt lat="44.06245" lon="2.00317">
        <ele>274.6</ele>
        <time>2021-09-05T09:14:24Z</time>
      </trkpt>
      <trkpt lat="44.06245" lon="2.00315">
        <ele>275</ele>
        <time>2021-09-05T09:14:25Z</time>
      </trkpt>
      <trkpt lat="44.06244" lon="2.00312">
        <ele>275.2</ele>
        <time>2021-09-05T09:14:26Z</time>
      </trkpt>
      <trkpt lat="44.06244" lon="2.00309">
        <ele>275.6</ele>
        <time>2021-09-05T09:14:27Z</time>
      </trkpt>
      <trkpt lat="44.06244" lon="2.00307">
        <ele>275.8</ele>
        <time>2021-09-05T09:14:28Z</time>
      </trkpt>
      <trkpt lat="44.06245" lon="2.00305">
        <ele>276.2</ele>
        <time>2021-09-05T09:14:29Z</time>
      </trkpt>
      <trkpt lat="44.06245" lon="2.00302">
        <ele>276.4</ele>
        <time>2021-09-05T09:14:30Z</time>
      </trkpt>
      <trkpt lat="44.06246" lon="2.003">
        <ele>277</ele>
        <time>2021-09-05T09:14:31Z</time>
      </trkpt>
      <trkpt lat="44.06246" lon="2.00297">
        <ele>277.2</ele>
        <time>2021-09-05T09:14:32Z</time>
      </trkpt>
      <trkpt lat="44.06247" lon="2.00294">
        <ele>277.6</ele>
        <time>2021-09-05T09:14:33Z</time>
      </trkpt>
      <trkpt lat="44.06249" lon="2.00291">
        <ele>277.6</ele>
        <time>2021-09-05T09:14:34Z</time>
      </trkpt>
      <trkpt lat="44.0625" lon="2.00288">
        <ele>277.8</ele>
        <time>2021-09-05T09:14:35Z</time>
      </trkpt>
      <trkpt lat="44.0625" lon="2.00286">
        <ele>278.4</ele>
        <time>2021-09-05T09:14:36Z</time>
      </trkpt>
      <trkpt lat="44.0625" lon="2.00283">
        <ele>278.4</ele>
        <time>2021-09-05T09:14:37Z</time>
      </trkpt>
      <trkpt lat="44.0625" lon="2.0028">
        <ele>278.8</ele>
        <time>2021-09-05T09:14:38Z</time>
      </trkpt>
      <trkpt lat="44.06249" lon="2.00277">
        <ele>279</ele>
        <time>2021-09-05T09:14:39Z</time>
      </trkpt>
      <trkpt lat="44.06249" lon="2.00274">
        <ele>279.2</ele>
        <time>2021-09-05T09:14:40Z</time>
      </trkpt>
      <trkpt lat="44.06249" lon="2.00272">
        <ele>279.2</ele>
        <time>2021-09-05T09:14:41Z</time>
      </trkpt>
      <trkpt lat="44.06249" lon="2.0027">
        <ele>279.6</ele>
        <time>2021-09-05T09:14:42Z</time>
      </trkpt>
      <trkpt lat="44.06249" lon="2.00267">
        <ele>280</ele>
        <time>2021-09-05T09:14:43Z</time>
      </trkpt>
      <trkpt lat="44.06248" lon="2.00264">
        <ele>280.2</ele>
        <time>2021-09-05T09:14:44Z</time>
      </trkpt>
      <trkpt lat="44.06248" lon="2.00262">
        <ele>280.4</ele>
        <time>2021-09-05T09:14:45Z</time>
      </trkpt>
      <trkpt lat="44.06247" lon="2.00261">
        <ele>280.6</ele>
        <time>2021-09-05T09:14:46Z</time>
      </trkpt>
      <trkpt lat="44.06247" lon="2.00259">
        <ele>281</ele>
        <time>2021-09-05T09:14:47Z</time>
      </trkpt>
      <trkpt lat="44.06247" lon="2.00258">
        <ele>281.2</ele>
        <time>2021-09-05T09:14:48Z</time>
      </trkpt>
      <trkpt lat="44.06247" lon="2.00256">
        <ele>281.4</ele>
        <time>2021-09-05T09:14:49Z</time>
      </trkpt>
      <trkpt lat="44.06247" lon="2.00255">
        <ele>281.6</ele>
        <time>2021-09-05T09:14:50Z</time>
      </trkpt>
      <trkpt lat="44.06246" lon="2.00254">
        <ele>282</ele>
        <time>2021-09-05T09:14:51Z</time>
      </trkpt>
      <trkpt lat="44.06246" lon="2.00252">
        <ele>282.2</ele>
        <time>2021-09-05T09:14:52Z</time>
      </trkpt>
      <trkpt lat="44.06246" lon="2.0025">
        <ele>282.4</ele>
        <time>2021-09-05T09:14:53Z</time>
      </trkpt>
      <trkpt lat="44.06246" lon="2.00248">
        <ele>282.8</ele>
        <time>2021-09-05T09:14:54Z</time>
      </trkpt>
      <trkpt lat="44.06245" lon="2.00246">
        <ele>282.8</ele>
        <time>2021-09-05T09:14:55Z</time>
      </trkpt>
      <trkpt lat="44.06245" lon="2.00244">
        <ele>283.2</ele>
        <time>2021-09-05T09:14:56Z</time>
      </trkpt>
      <trkpt lat="44.06244" lon="2.00242">
        <ele>283.2</ele>
        <time>2021-09-05T09:14:57Z</time>
      </trkpt>
      <trkpt lat="44.06244" lon="2.0024">
        <ele>283.4</ele>
        <time>2021-09-05T09:14:58Z</time>
      </trkpt>
      <trkpt lat="44.06243" lon="2.00238">
        <ele>283.6</ele>
        <time>2021-09-05T09:14:59Z</time>
      </trkpt>
      <trkpt lat="44.06242" lon="2.00235">
        <ele>283.6</ele>
        <time>2021-09-05T09:15:00Z</time>
      </trkpt>
      <trkpt lat="44.06241" lon="2.00233">
        <ele>283.8</ele>
        <time>2021-09-05T09:15:02Z</time>
      </trkpt>
      <trkpt lat="44.06241" lon="2.00231">
        <ele>283.8</ele>
        <time>2021-09-05T09:15:03Z</time>
      </trkpt>
      <trkpt lat="44.0624" lon="2.00229">
        <ele>284</ele>
        <time>2021-09-05T09:15:04Z</time>
      </trkpt>
      <trkpt lat="44.06239" lon="2.00227">
        <ele>284</ele>
        <time>2021-09-05T09:15:05Z</time>
      </trkpt>
      <trkpt lat="44.06239" lon="2.00225">
        <ele>284</ele>
        <time>2021-09-05T09:15:06Z</time>
      </trkpt>
      <trkpt lat="44.06238" lon="2.00223">
        <ele>284.2</ele>
        <time>2021-09-05T09:15:07Z</time>
      </trkpt>
      <trkpt lat="44.06238" lon="2.0022">
        <ele>284.2</ele>
        <time>2021-09-05T09:15:08Z</time>
      </trkpt>
      <trkpt lat="44.06237" lon="2.00217">
        <ele>284.4</ele>
        <time>2021-09-05T09:15:09Z</time>
      </trkpt>
      <trkpt lat="44.06237" lon="2.00214">
        <ele>284.4</ele>
        <time>2021-09-05T09:15:10Z</time>
      </trkpt>
      <trkpt lat="44.06236" lon="2.00212">
        <ele>284.8</ele>
        <time>2021-09-05T09:15:11Z</time>
      </trkpt>
      <trkpt lat="44.06236" lon="2.00209">
        <ele>284.8</ele>
        <time>2021-09-05T09:15:12Z</time>
      </trkpt>
      <trkpt lat="44.06235" lon="2.00207">
        <ele>285</ele>
        <time>2021-09-05T09:15:13Z</time>
      </trkpt>
      <trkpt lat="44.06233" lon="2.00203">
        <ele>285.2</ele>
        <time>2021-09-05T09:15:14Z</time>
      </trkpt>
      <trkpt lat="44.06232" lon="2.00201">
        <ele>285.4</ele>
        <time>2021-09-05T09:15:15Z</time>
      </trkpt>
      <trkpt lat="44.06231" lon="2.00198">
        <ele>285.6</ele>
        <time>2021-09-05T09:15:16Z</time>
      </trkpt>
      <trkpt lat="44.0623" lon="2.00195">
        <ele>285.6</ele>
        <time>2021-09-05T09:15:17Z</time>
      </trkpt>
      <trkpt lat="44.06228" lon="2.00192">
        <ele>285.8</ele>
        <time>2021-09-05T09:15:18Z</time>
      </trkpt>
      <trkpt lat="44.06227" lon="2.0019">
        <ele>285.8</ele>
        <time>2021-09-05T09:15:19Z</time>
      </trkpt>
      <trkpt lat="44.06226" lon="2.00187">
        <ele>286</ele>
        <time>2021-09-05T09:15:20Z</time>
      </trkpt>
      <trkpt lat="44.06225" lon="2.00183">
        <ele>286</ele>
        <time>2021-09-05T09:15:21Z</time>
      </trkpt>
      <trkpt lat="44.06223" lon="2.0018">
        <ele>286.2</ele>
        <time>2021-09-05T09:15:22Z</time>
      </trkpt>
      <trkpt lat="44.06222" lon="2.00176">
        <ele>286.4</ele>
        <time>2021-09-05T09:15:23Z</time>
      </trkpt>
      <trkpt lat="44.06221" lon="2.00175">
        <ele>286.4</ele>
        <time>2021-09-05T09:15:24Z</time>
      </trkpt>
      <trkpt lat="44.0622" lon="2.00173">
        <ele>286.8</ele>
        <time>2021-09-05T09:15:25Z</time>
      </trkpt>
      <trkpt lat="44.06219" lon="2.00169">
        <ele>286.8</ele>
        <time>2021-09-05T09:15:26Z</time>
      </trkpt>
      <trkpt lat="44.06217" lon="2.00166">
        <ele>287</ele>
        <time>2021-09-05T09:15:27Z</time>
      </trkpt>
      <trkpt lat="44.06216" lon="2.00164">
        <ele>287</ele>
        <time>2021-09-05T09:15:28Z</time>
      </trkpt>
      <trkpt lat="44.06215" lon="2.00162">
        <ele>287.2</ele>
        <time>2021-09-05T09:15:29Z</time>
      </trkpt>
      <trkpt lat="44.06213" lon="2.0016">
        <ele>287.2</ele>
        <time>2021-09-05T09:15:30Z</time>
      </trkpt>
      <trkpt lat="44.06211" lon="2.00157">
        <ele>287.2</ele>
        <time>2021-09-05T09:15:31Z</time>
      </trkpt>
      <trkpt lat="44.0621" lon="2.00154">
        <ele>287.4</ele>
        <time>2021-09-05T09:15:32Z</time>
      </trkpt>
      <trkpt lat="44.06208" lon="2.00152">
        <ele>287.4</ele>
        <time>2021-09-05T09:15:33Z</time>
      </trkpt>
      <trkpt lat="44.06207" lon="2.0015">
        <ele>287.6</ele>
        <time>2021-09-05T09:15:34Z</time>
      </trkpt>
      <trkpt lat="44.06205" lon="2.00146">
        <ele>287.6</ele>
        <time>2021-09-05T09:15:35Z</time>
      </trkpt>
      <trkpt lat="44.06203" lon="2.00145">
        <ele>287.8</ele>
        <time>2021-09-05T09:15:36Z</time>
      </trkpt>
      <trkpt lat="44.06201" lon="2.00141">
        <ele>287.8</ele>
        <time>2021-09-05T09:15:37Z</time>
      </trkpt>
      <trkpt lat="44.062" lon="2.00139">
        <ele>288</ele>
        <time>2021-09-05T09:15:38Z</time>
      </trkpt>
      <trkpt lat="44.06198" lon="2.00137">
        <ele>288</ele>
        <time>2021-09-05T09:15:39Z</time>
      </trkpt>
      <trkpt lat="44.06197" lon="2.00134">
        <ele>288.2</ele>
        <time>2021-09-05T09:15:40Z</time>
      </trkpt>
      <trkpt lat="44.06195" lon="2.00131">
        <ele>288.2</ele>
        <time>2021-09-05T09:15:41Z</time>
      </trkpt>
      <trkpt lat="44.06194" lon="2.00129">
        <ele>288.2</ele>
        <time>2021-09-05T09:15:42Z</time>
      </trkpt>
      <trkpt lat="44.06194" lon="2.00126">
        <ele>288.2</ele>
        <time>2021-09-05T09:15:43Z</time>
      </trkpt>
      <trkpt lat="44.06193" lon="2.00124">
        <ele>288.2</ele>
        <time>2021-09-05T09:15:44Z</time>
      </trkpt>
      <trkpt lat="44.06192" lon="2.00121">
        <ele>288.4</ele>
        <time>2021-09-05T09:15:45Z</time>
      </trkpt>
      <trkpt lat="44.06192" lon="2.00118">
        <ele>288.6</ele>
        <time>2021-09-05T09:15:46Z</time>
      </trkpt>
      <trkpt lat="44.06192" lon="2.00115">
        <ele>288.8</ele>
        <time>2021-09-05T09:15:47Z</time>
      </trkpt>
      <trkpt lat="44.06191" lon="2.00111">
        <ele>289</ele>
        <time>2021-09-05T09:15:48Z</time>
      </trkpt>
      <trkpt lat="44.06191" lon="2.00107">
        <ele>289.2</ele>
        <time>2021-09-05T09:15:49Z</time>
      </trkpt>
      <trkpt lat="44.06191" lon="2.00104">
        <ele>289.2</ele>
        <time>2021-09-05T09:15:50Z</time>
      </trkpt>
      <trkpt lat="44.06191" lon="2.001">
        <ele>289.4</ele>
        <time>2021-09-05T09:15:51Z</time>
      </trkpt>
      <trkpt lat="44.0619" lon="2.00097">
        <ele>289.4</ele>
        <time>2021-09-05T09:15:52Z</time>
      </trkpt>
      <trkpt lat="44.0619" lon="2.00094">
        <ele>289.6</ele>
        <time>2021-09-05T09:15:53Z</time>
      </trkpt>
      <trkpt lat="44.0619" lon="2.00091">
        <ele>289.6</ele>
        <time>2021-09-05T09:15:54Z</time>
      </trkpt>
      <trkpt lat="44.0619" lon="2.00087">
        <ele>289.8</ele>
        <time>2021-09-05T09:15:55Z</time>
      </trkpt>
      <trkpt lat="44.0619" lon="2.00084">
        <ele>289.8</ele>
        <time>2021-09-05T09:15:56Z</time>
      </trkpt>
      <trkpt lat="44.0619" lon="2.00082">
        <ele>289.8</ele>
        <time>2021-09-05T09:15:57Z</time>
      </trkpt>
      <trkpt lat="44.0619" lon="2.00078">
        <ele>289.8</ele>
        <time>2021-09-05T09:15:58Z</time>
      </trkpt>
      <trkpt lat="44.06189" lon="2.00075">
        <ele>290.2</ele>
        <time>2021-09-05T09:15:59Z</time>
      </trkpt>
      <trkpt lat="44.06189" lon="2.00072">
        <ele>290.4</ele>
        <time>2021-09-05T09:16:00Z</time>
      </trkpt>
      <trkpt lat="44.06188" lon="2.00068">
        <ele>290.8</ele>
        <time>2021-09-05T09:16:01Z</time>
      </trkpt>
      <trkpt lat="44.06188" lon="2.00065">
        <ele>291</ele>
        <time>2021-09-05T09:16:02Z</time>
      </trkpt>
      <trkpt lat="44.06188" lon="2.00062">
        <ele>291.2</ele>
        <time>2021-09-05T09:16:03Z</time>
      </trkpt>
      <trkpt lat="44.06188" lon="2.00058">
        <ele>291.4</ele>
        <time>2021-09-05T09:16:04Z</time>
      </trkpt>
      <trkpt lat="44.06188" lon="2.00054">
        <ele>291.4</ele>
        <time>2021-09-05T09:16:05Z</time>
      </trkpt>
      <trkpt lat="44.06188" lon="2.00051">
        <ele>291.6</ele>
        <time>2021-09-05T09:16:06Z</time>
      </trkpt>
      <trkpt lat="44.06187" lon="2.00047">
        <ele>291.6</ele>
        <time>2021-09-05T09:16:07Z</time>
      </trkpt>
      <trkpt lat="44.06186" lon="2.00043">
        <ele>291.8</ele>
        <time>2021-09-05T09:16:08Z</time>
      </trkpt>
      <trkpt lat="44.06186" lon="2.0004">
        <ele>292</ele>
        <time>2021-09-05T09:16:09Z</time>
      </trkpt>
      <trkpt lat="44.06186" lon="2.00037">
        <ele>292.2</ele>
        <time>2021-09-05T09:16:10Z</time>
      </trkpt>
      <trkpt lat="44.06186" lon="2.00033">
        <ele>292.4</ele>
        <time>2021-09-05T09:16:11Z</time>
      </trkpt>
      <trkpt lat="44.06185" lon="2.0003">
        <ele>292.4</ele>
        <time>2021-09-05T09:16:12Z</time>
      </trkpt>
      <trkpt lat="44.06185" lon="2.00026">
        <ele>292.6</ele>
        <time>2021-09-05T09:16:13Z</time>
      </trkpt>
      <trkpt lat="44.06184" lon="2.00023">
        <ele>292.6</ele>
        <time>2021-09-05T09:16:14Z</time>
      </trkpt>
      <trkpt lat="44.06184" lon="2.00019">
        <ele>292.8</ele>
        <time>2021-09-05T09:16:15Z</time>
      </trkpt>
      <trkpt lat="44.06184" lon="2.00016">
        <ele>293</ele>
        <time>2021-09-05T09:16:16Z</time>
      </trkpt>
      <trkpt lat="44.06184" lon="2.00012">
        <ele>293.2</ele>
        <time>2021-09-05T09:16:17Z</time>
      </trkpt>
      <trkpt lat="44.06183" lon="2.00007">
        <ele>293.2</ele>
        <time>2021-09-05T09:16:18Z</time>
      </trkpt>
      <trkpt lat="44.06183" lon="2.00004">
        <ele>293.4</ele>
        <time>2021-09-05T09:16:19Z</time>
      </trkpt>
      <trkpt lat="44.06183" lon="2.00001">
        <ele>293.8</ele>
        <time>2021-09-05T09:16:20Z</time>
      </trkpt>
      <trkpt lat="44.06182" lon="1.99997">
        <ele>293.8</ele>
        <time>2021-09-05T09:16:21Z</time>
      </trkpt>
      <trkpt lat="44.06182" lon="1.99993">
        <ele>294</ele>
        <time>2021-09-05T09:16:22Z</time>
      </trkpt>
      <trkpt lat="44.06181" lon="1.99989">
        <ele>294</ele>
        <time>2021-09-05T09:16:23Z</time>
      </trkpt>
      <trkpt lat="44.06181" lon="1.99985">
        <ele>294.2</ele>
        <time>2021-09-05T09:16:24Z</time>
      </trkpt>
      <trkpt lat="44.0618" lon="1.99981">
        <ele>294.2</ele>
        <time>2021-09-05T09:16:25Z</time>
      </trkpt>
      <trkpt lat="44.0618" lon="1.99976">
        <ele>294.4</ele>
        <time>2021-09-05T09:16:26Z</time>
      </trkpt>
      <trkpt lat="44.06179" lon="1.99973">
        <ele>294.4</ele>
        <time>2021-09-05T09:16:27Z</time>
      </trkpt>
      <trkpt lat="44.06179" lon="1.99969">
        <ele>294.4</ele>
        <time>2021-09-05T09:16:28Z</time>
      </trkpt>
      <trkpt lat="44.06178" lon="1.99965">
        <ele>294.6</ele>
        <time>2021-09-05T09:16:29Z</time>
      </trkpt>
      <trkpt lat="44.06178" lon="1.99961">
        <ele>294.6</ele>
        <time>2021-09-05T09:16:30Z</time>
      </trkpt>
      <trkpt lat="44.06177" lon="1.99955">
        <ele>294.6</ele>
        <time>2021-09-05T09:16:31Z</time>
      </trkpt>
      <trkpt lat="44.06176" lon="1.9995">
        <ele>294.8</ele>
        <time>2021-09-05T09:16:32Z</time>
      </trkpt>
      <trkpt lat="44.06175" lon="1.99946">
        <ele>294.8</ele>
        <time>2021-09-05T09:16:33Z</time>
      </trkpt>
      <trkpt lat="44.06175" lon="1.99941">
        <ele>294.8</ele>
        <time>2021-09-05T09:16:34Z</time>
      </trkpt>
      <trkpt lat="44.06175" lon="1.99935">
        <ele>294.8</ele>
        <time>2021-09-05T09:16:35Z</time>
      </trkpt>
      <trkpt lat="44.06174" lon="1.9993">
        <ele>294.8</ele>
        <time>2021-09-05T09:16:36Z</time>
      </trkpt>
      <trkpt lat="44.06173" lon="1.99923">
        <ele>295</ele>
        <time>2021-09-05T09:16:37Z</time>
      </trkpt>
      <trkpt lat="44.06173" lon="1.99917">
        <ele>295</ele>
        <time>2021-09-05T09:16:38Z</time>
      </trkpt>
      <trkpt lat="44.06173" lon="1.99911">
        <ele>295</ele>
        <time>2021-09-05T09:16:39Z</time>
      </trkpt>
      <trkpt lat="44.06172" lon="1.99904">
        <ele>295.2</ele>
        <time>2021-09-05T09:16:40Z</time>
      </trkpt>
      <trkpt lat="44.06171" lon="1.99898">
        <ele>295.2</ele>
        <time>2021-09-05T09:16:41Z</time>
      </trkpt>
      <trkpt lat="44.06171" lon="1.99886">
        <ele>295.4</ele>
        <time>2021-09-05T09:16:43Z</time>
      </trkpt>
      <trkpt lat="44.0617" lon="1.9988">
        <ele>295.4</ele>
        <time>2021-09-05T09:16:44Z</time>
      </trkpt>
      <trkpt lat="44.06169" lon="1.99874">
        <ele>295.4</ele>
        <time>2021-09-05T09:16:45Z</time>
      </trkpt>
      <trkpt lat="44.06168" lon="1.99869">
        <ele>295.4</ele>
        <time>2021-09-05T09:16:46Z</time>
      </trkpt>
      <trkpt lat="44.06166" lon="1.99866">
        <ele>295.4</ele>
        <time>2021-09-05T09:16:47Z</time>
      </trkpt>
      <trkpt lat="44.06163" lon="1.99862">
        <ele>295.4</ele>
        <time>2021-09-05T09:16:48Z</time>
      </trkpt>
      <trkpt lat="44.06161" lon="1.99859">
        <ele>295.4</ele>
        <time>2021-09-05T09:16:49Z</time>
      </trkpt>
      <trkpt lat="44.06158" lon="1.99855">
        <ele>295.6</ele>
        <time>2021-09-05T09:16:50Z</time>
      </trkpt>
      <trkpt lat="44.06156" lon="1.99851">
        <ele>295.6</ele>
        <time>2021-09-05T09:16:51Z</time>
      </trkpt>
      <trkpt lat="44.06144" lon="1.99835">
        <ele>295.8</ele>
        <time>2021-09-05T09:16:55Z</time>
      </trkpt>
      <trkpt lat="44.06135" lon="1.99822">
        <ele>295.4</ele>
        <time>2021-09-05T09:16:58Z</time>
      </trkpt>
      <trkpt lat="44.06119" lon="1.99803">
        <ele>295.2</ele>
        <time>2021-09-05T09:17:02Z</time>
      </trkpt>
      <trkpt lat="44.06115" lon="1.99799">
        <ele>295</ele>
        <time>2021-09-05T09:17:03Z</time>
      </trkpt>
      <trkpt lat="44.06112" lon="1.99796">
        <ele>295</ele>
        <time>2021-09-05T09:17:04Z</time>
      </trkpt>
      <trkpt lat="44.06107" lon="1.99791">
        <ele>295</ele>
        <time>2021-09-05T09:17:05Z</time>
      </trkpt>
      <trkpt lat="44.06104" lon="1.99788">
        <ele>294.8</ele>
        <time>2021-09-05T09:17:06Z</time>
      </trkpt>
      <trkpt lat="44.06101" lon="1.99785">
        <ele>294.8</ele>
        <time>2021-09-05T09:17:07Z</time>
      </trkpt>
      <trkpt lat="44.06098" lon="1.99782">
        <ele>294.8</ele>
        <time>2021-09-05T09:17:08Z</time>
      </trkpt>
      <trkpt lat="44.06095" lon="1.99779">
        <ele>294.8</ele>
        <time>2021-09-05T09:17:09Z</time>
      </trkpt>
      <trkpt lat="44.06092" lon="1.99776">
        <ele>294.8</ele>
        <time>2021-09-05T09:17:10Z</time>
      </trkpt>
      <trkpt lat="44.0608" lon="1.99762">
        <ele>294.6</ele>
        <time>2021-09-05T09:17:14Z</time>
      </trkpt>
      <trkpt lat="44.06074" lon="1.99753">
        <ele>294.4</ele>
        <time>2021-09-05T09:17:16Z</time>
      </trkpt>
      <trkpt lat="44.06061" lon="1.99736">
        <ele>293.8</ele>
        <time>2021-09-05T09:17:19Z</time>
      </trkpt>
      <trkpt lat="44.06057" lon="1.99732">
        <ele>293.6</ele>
        <time>2021-09-05T09:17:20Z</time>
      </trkpt>
      <trkpt lat="44.06054" lon="1.99727">
        <ele>293.6</ele>
        <time>2021-09-05T09:17:21Z</time>
      </trkpt>
      <trkpt lat="44.06051" lon="1.99722">
        <ele>293</ele>
        <time>2021-09-05T09:17:22Z</time>
      </trkpt>
      <trkpt lat="44.06047" lon="1.99717">
        <ele>293</ele>
        <time>2021-09-05T09:17:23Z</time>
      </trkpt>
      <trkpt lat="44.06045" lon="1.99714">
        <ele>292.8</ele>
        <time>2021-09-05T09:17:24Z</time>
      </trkpt>
      <trkpt lat="44.06044" lon="1.99712">
        <ele>292.8</ele>
        <time>2021-09-05T09:17:25Z</time>
      </trkpt>
      <trkpt lat="44.06042" lon="1.99709">
        <ele>292.8</ele>
        <time>2021-09-05T09:17:26Z</time>
      </trkpt>
      <trkpt lat="44.06041" lon="1.99707">
        <ele>292.8</ele>
        <time>2021-09-05T09:17:27Z</time>
      </trkpt>
      <trkpt lat="44.0604" lon="1.99705">
        <ele>292.8</ele>
        <time>2021-09-05T09:17:28Z</time>
      </trkpt>
      <trkpt lat="44.06039" lon="1.99703">
        <ele>293.2</ele>
        <time>2021-09-05T09:17:29Z</time>
      </trkpt>
      <trkpt lat="44.06039" lon="1.99701">
        <ele>293.2</ele>
        <time>2021-09-05T09:17:30Z</time>
      </trkpt>
      <trkpt lat="44.0604" lon="1.99695">
        <ele>293.2</ele>
        <time>2021-09-05T09:17:32Z</time>
      </trkpt>
      <trkpt lat="44.06043" lon="1.9969">
        <ele>293.6</ele>
        <time>2021-09-05T09:17:34Z</time>
      </trkpt>
      <trkpt lat="44.06045" lon="1.99685">
        <ele>293.6</ele>
        <time>2021-09-05T09:17:35Z</time>
      </trkpt>
      <trkpt lat="44.06048" lon="1.99677">
        <ele>293.8</ele>
        <time>2021-09-05T09:17:37Z</time>
      </trkpt>
      <trkpt lat="44.06061" lon="1.99653">
        <ele>293.6</ele>
        <time>2021-09-05T09:17:41Z</time>
      </trkpt>
      <trkpt lat="44.06078" lon="1.99618">
        <ele>292.6</ele>
        <time>2021-09-05T09:17:46Z</time>
      </trkpt>
      <trkpt lat="44.06081" lon="1.99612">
        <ele>292.2</ele>
        <time>2021-09-05T09:17:47Z</time>
      </trkpt>
      <trkpt lat="44.06085" lon="1.99604">
        <ele>292</ele>
        <time>2021-09-05T09:17:48Z</time>
      </trkpt>
      <trkpt lat="44.06088" lon="1.99596">
        <ele>291.6</ele>
        <time>2021-09-05T09:17:49Z</time>
      </trkpt>
      <trkpt lat="44.06092" lon="1.99587">
        <ele>291.4</ele>
        <time>2021-09-05T09:17:50Z</time>
      </trkpt>
      <trkpt lat="44.06103" lon="1.99565">
        <ele>290.4</ele>
        <time>2021-09-05T09:17:53Z</time>
      </trkpt>
      <trkpt lat="44.06106" lon="1.99558">
        <ele>290</ele>
        <time>2021-09-05T09:17:54Z</time>
      </trkpt>
      <trkpt lat="44.06113" lon="1.99544">
        <ele>289.2</ele>
        <time>2021-09-05T09:17:56Z</time>
      </trkpt>
      <trkpt lat="44.06128" lon="1.99513">
        <ele>288</ele>
        <time>2021-09-05T09:18:00Z</time>
      </trkpt>
      <trkpt lat="44.06132" lon="1.99506">
        <ele>287.2</ele>
        <time>2021-09-05T09:18:01Z</time>
      </trkpt>
      <trkpt lat="44.06136" lon="1.99497">
        <ele>287</ele>
        <time>2021-09-05T09:18:02Z</time>
      </trkpt>
      <trkpt lat="44.06139" lon="1.99489">
        <ele>286.4</ele>
        <time>2021-09-05T09:18:03Z</time>
      </trkpt>
      <trkpt lat="44.06142" lon="1.99483">
        <ele>286.2</ele>
        <time>2021-09-05T09:18:04Z</time>
      </trkpt>
      <trkpt lat="44.06145" lon="1.99476">
        <ele>285.6</ele>
        <time>2021-09-05T09:18:05Z</time>
      </trkpt>
      <trkpt lat="44.06147" lon="1.99469">
        <ele>285.4</ele>
        <time>2021-09-05T09:18:06Z</time>
      </trkpt>
      <trkpt lat="44.0615" lon="1.99463">
        <ele>285</ele>
        <time>2021-09-05T09:18:07Z</time>
      </trkpt>
      <trkpt lat="44.06156" lon="1.99449">
        <ele>284.6</ele>
        <time>2021-09-05T09:18:09Z</time>
      </trkpt>
      <trkpt lat="44.0617" lon="1.99412">
        <ele>283.8</ele>
        <time>2021-09-05T09:18:14Z</time>
      </trkpt>
      <trkpt lat="44.06173" lon="1.99403">
        <ele>283.8</ele>
        <time>2021-09-05T09:18:15Z</time>
      </trkpt>
      <trkpt lat="44.06175" lon="1.99397">
        <ele>283.6</ele>
        <time>2021-09-05T09:18:16Z</time>
      </trkpt>
      <trkpt lat="44.06177" lon="1.99388">
        <ele>283.4</ele>
        <time>2021-09-05T09:18:17Z</time>
      </trkpt>
      <trkpt lat="44.06178" lon="1.99382">
        <ele>283.4</ele>
        <time>2021-09-05T09:18:18Z</time>
      </trkpt>
      <trkpt lat="44.0618" lon="1.99374">
        <ele>283.2</ele>
        <time>2021-09-05T09:18:19Z</time>
      </trkpt>
      <trkpt lat="44.06183" lon="1.99367">
        <ele>283.2</ele>
        <time>2021-09-05T09:18:20Z</time>
      </trkpt>
      <trkpt lat="44.06185" lon="1.99359">
        <ele>283</ele>
        <time>2021-09-05T09:18:21Z</time>
      </trkpt>
      <trkpt lat="44.06186" lon="1.99352">
        <ele>283</ele>
        <time>2021-09-05T09:18:22Z</time>
      </trkpt>
      <trkpt lat="44.06195" lon="1.99297">
        <ele>283</ele>
        <time>2021-09-05T09:18:29Z</time>
      </trkpt>
      <trkpt lat="44.06196" lon="1.99274">
        <ele>283</ele>
        <time>2021-09-05T09:18:32Z</time>
      </trkpt>
      <trkpt lat="44.06197" lon="1.99265">
        <ele>283</ele>
        <time>2021-09-05T09:18:33Z</time>
      </trkpt>
      <trkpt lat="44.06198" lon="1.99258">
        <ele>283</ele>
        <time>2021-09-05T09:18:34Z</time>
      </trkpt>
      <trkpt lat="44.06198" lon="1.99249">
        <ele>283.2</ele>
        <time>2021-09-05T09:18:35Z</time>
      </trkpt>
      <trkpt lat="44.06198" lon="1.99243">
        <ele>283.2</ele>
        <time>2021-09-05T09:18:36Z</time>
      </trkpt>
      <trkpt lat="44.06198" lon="1.99236">
        <ele>283.4</ele>
        <time>2021-09-05T09:18:37Z</time>
      </trkpt>
      <trkpt lat="44.06198" lon="1.99227">
        <ele>283.4</ele>
        <time>2021-09-05T09:18:38Z</time>
      </trkpt>
      <trkpt lat="44.06198" lon="1.9922">
        <ele>283.6</ele>
        <time>2021-09-05T09:18:39Z</time>
      </trkpt>
      <trkpt lat="44.06199" lon="1.99214">
        <ele>283.8</ele>
        <time>2021-09-05T09:18:40Z</time>
      </trkpt>
      <trkpt lat="44.06199" lon="1.99209">
        <ele>284</ele>
        <time>2021-09-05T09:18:41Z</time>
      </trkpt>
      <trkpt lat="44.06199" lon="1.99201">
        <ele>284.2</ele>
        <time>2021-09-05T09:18:42Z</time>
      </trkpt>
      <trkpt lat="44.06199" lon="1.99196">
        <ele>284.2</ele>
        <time>2021-09-05T09:18:43Z</time>
      </trkpt>
      <trkpt lat="44.06199" lon="1.99188">
        <ele>284.4</ele>
        <time>2021-09-05T09:18:44Z</time>
      </trkpt>
      <trkpt lat="44.06198" lon="1.99175">
        <ele>284.8</ele>
        <time>2021-09-05T09:18:46Z</time>
      </trkpt>
      <trkpt lat="44.06196" lon="1.99141">
        <ele>285.6</ele>
        <time>2021-09-05T09:18:50Z</time>
      </trkpt>
      <trkpt lat="44.06195" lon="1.9913">
        <ele>286</ele>
        <time>2021-09-05T09:18:51Z</time>
      </trkpt>
      <trkpt lat="44.06191" lon="1.99107">
        <ele>286.2</ele>
        <time>2021-09-05T09:18:54Z</time>
      </trkpt>
      <trkpt lat="44.0619" lon="1.99099">
        <ele>286.4</ele>
        <time>2021-09-05T09:18:55Z</time>
      </trkpt>
      <trkpt lat="44.06189" lon="1.99091">
        <ele>286.8</ele>
        <time>2021-09-05T09:18:56Z</time>
      </trkpt>
      <trkpt lat="44.06188" lon="1.99085">
        <ele>286.8</ele>
        <time>2021-09-05T09:18:57Z</time>
      </trkpt>
      <trkpt lat="44.06187" lon="1.9908">
        <ele>287.6</ele>
        <time>2021-09-05T09:18:58Z</time>
      </trkpt>
      <trkpt lat="44.06186" lon="1.99075">
        <ele>287.8</ele>
        <time>2021-09-05T09:18:59Z</time>
      </trkpt>
      <trkpt lat="44.06186" lon="1.9907">
        <ele>288.2</ele>
        <time>2021-09-05T09:19:00Z</time>
      </trkpt>
      <trkpt lat="44.06184" lon="1.99064">
        <ele>288.2</ele>
        <time>2021-09-05T09:19:01Z</time>
      </trkpt>
      <trkpt lat="44.06184" lon="1.99061">
        <ele>288.4</ele>
        <time>2021-09-05T09:19:02Z</time>
      </trkpt>
      <trkpt lat="44.06182" lon="1.99057">
        <ele>288.6</ele>
        <time>2021-09-05T09:19:03Z</time>
      </trkpt>
      <trkpt lat="44.06181" lon="1.99053">
        <ele>289</ele>
        <time>2021-09-05T09:19:04Z</time>
      </trkpt>
      <trkpt lat="44.06181" lon="1.99049">
        <ele>289</ele>
        <time>2021-09-05T09:19:05Z</time>
      </trkpt>
      <trkpt lat="44.0618" lon="1.99045">
        <ele>289.2</ele>
        <time>2021-09-05T09:19:06Z</time>
      </trkpt>
      <trkpt lat="44.06179" lon="1.99042">
        <ele>289.4</ele>
        <time>2021-09-05T09:19:07Z</time>
      </trkpt>
      <trkpt lat="44.06178" lon="1.99039">
        <ele>289.4</ele>
        <time>2021-09-05T09:19:08Z</time>
      </trkpt>
      <trkpt lat="44.06177" lon="1.99037">
        <ele>289.6</ele>
        <time>2021-09-05T09:19:09Z</time>
      </trkpt>
      <trkpt lat="44.06176" lon="1.99033">
        <ele>289.8</ele>
        <time>2021-09-05T09:19:10Z</time>
      </trkpt>
      <trkpt lat="44.06175" lon="1.9903">
        <ele>290.2</ele>
        <time>2021-09-05T09:19:11Z</time>
      </trkpt>
      <trkpt lat="44.06174" lon="1.99027">
        <ele>290.2</ele>
        <time>2021-09-05T09:19:12Z</time>
      </trkpt>
      <trkpt lat="44.06173" lon="1.99023">
        <ele>290.4</ele>
        <time>2021-09-05T09:19:13Z</time>
      </trkpt>
      <trkpt lat="44.06172" lon="1.99019">
        <ele>290.6</ele>
        <time>2021-09-05T09:19:14Z</time>
      </trkpt>
      <trkpt lat="44.06172" lon="1.99016">
        <ele>290.6</ele>
        <time>2021-09-05T09:19:15Z</time>
      </trkpt>
      <trkpt lat="44.06171" lon="1.99012">
        <ele>290.8</ele>
        <time>2021-09-05T09:19:16Z</time>
      </trkpt>
      <trkpt lat="44.0617" lon="1.99009">
        <ele>291</ele>
        <time>2021-09-05T09:19:17Z</time>
      </trkpt>
      <trkpt lat="44.06169" lon="1.99005">
        <ele>291.2</ele>
        <time>2021-09-05T09:19:18Z</time>
      </trkpt>
      <trkpt lat="44.06169" lon="1.99001">
        <ele>291.4</ele>
        <time>2021-09-05T09:19:19Z</time>
      </trkpt>
      <trkpt lat="44.06168" lon="1.98997">
        <ele>291.4</ele>
        <time>2021-09-05T09:19:20Z</time>
      </trkpt>
      <trkpt lat="44.06167" lon="1.98994">
        <ele>291.6</ele>
        <time>2021-09-05T09:19:21Z</time>
      </trkpt>
      <trkpt lat="44.06167" lon="1.98989">
        <ele>291.6</ele>
        <time>2021-09-05T09:19:22Z</time>
      </trkpt>
      <trkpt lat="44.06166" lon="1.98985">
        <ele>291.8</ele>
        <time>2021-09-05T09:19:23Z</time>
      </trkpt>
      <trkpt lat="44.06164" lon="1.98981">
        <ele>291.8</ele>
        <time>2021-09-05T09:19:24Z</time>
      </trkpt>
      <trkpt lat="44.06163" lon="1.98975">
        <ele>292</ele>
        <time>2021-09-05T09:19:25Z</time>
      </trkpt>
      <trkpt lat="44.06162" lon="1.98972">
        <ele>292.2</ele>
        <time>2021-09-05T09:19:26Z</time>
      </trkpt>
      <trkpt lat="44.06161" lon="1.98967">
        <ele>292.4</ele>
        <time>2021-09-05T09:19:27Z</time>
      </trkpt>
      <trkpt lat="44.0616" lon="1.98962">
        <ele>292.6</ele>
        <time>2021-09-05T09:19:28Z</time>
      </trkpt>
      <trkpt lat="44.0616" lon="1.98958">
        <ele>292.6</ele>
        <time>2021-09-05T09:19:29Z</time>
      </trkpt>
      <trkpt lat="44.0616" lon="1.98954">
        <ele>292.8</ele>
        <time>2021-09-05T09:19:30Z</time>
      </trkpt>
      <trkpt lat="44.0616" lon="1.9895">
        <ele>292.8</ele>
        <time>2021-09-05T09:19:31Z</time>
      </trkpt>
      <trkpt lat="44.0616" lon="1.98945">
        <ele>293</ele>
        <time>2021-09-05T09:19:32Z</time>
      </trkpt>
      <trkpt lat="44.06159" lon="1.9894">
        <ele>293.2</ele>
        <time>2021-09-05T09:19:33Z</time>
      </trkpt>
      <trkpt lat="44.06159" lon="1.98937">
        <ele>293.4</ele>
        <time>2021-09-05T09:19:34Z</time>
      </trkpt>
      <trkpt lat="44.06159" lon="1.98933">
        <ele>293.4</ele>
        <time>2021-09-05T09:19:35Z</time>
      </trkpt>
      <trkpt lat="44.06157" lon="1.98929">
        <ele>293.6</ele>
        <time>2021-09-05T09:19:36Z</time>
      </trkpt>
      <trkpt lat="44.06157" lon="1.98925">
        <ele>294</ele>
        <time>2021-09-05T09:19:37Z</time>
      </trkpt>
      <trkpt lat="44.06156" lon="1.98921">
        <ele>294</ele>
        <time>2021-09-05T09:19:38Z</time>
      </trkpt>
      <trkpt lat="44.06155" lon="1.98917">
        <ele>294.2</ele>
        <time>2021-09-05T09:19:39Z</time>
      </trkpt>
      <trkpt lat="44.06155" lon="1.98913">
        <ele>294.2</ele>
        <time>2021-09-05T09:19:40Z</time>
      </trkpt>
      <trkpt lat="44.06154" lon="1.98908">
        <ele>294.2</ele>
        <time>2021-09-05T09:19:41Z</time>
      </trkpt>
      <trkpt lat="44.06153" lon="1.98902">
        <ele>294.4</ele>
        <time>2021-09-05T09:19:42Z</time>
      </trkpt>
      <trkpt lat="44.06152" lon="1.98898">
        <ele>294.6</ele>
        <time>2021-09-05T09:19:43Z</time>
      </trkpt>
      <trkpt lat="44.06151" lon="1.98894">
        <ele>294.8</ele>
        <time>2021-09-05T09:19:44Z</time>
      </trkpt>
      <trkpt lat="44.0615" lon="1.9889">
        <ele>295</ele>
        <time>2021-09-05T09:19:45Z</time>
      </trkpt>
      <trkpt lat="44.0615" lon="1.98885">
        <ele>295</ele>
        <time>2021-09-05T09:19:46Z</time>
      </trkpt>
      <trkpt lat="44.06149" lon="1.9888">
        <ele>295.2</ele>
        <time>2021-09-05T09:19:47Z</time>
      </trkpt>
      <trkpt lat="44.06148" lon="1.98876">
        <ele>295.2</ele>
        <time>2021-09-05T09:19:48Z</time>
      </trkpt>
      <trkpt lat="44.06148" lon="1.98871">
        <ele>295.2</ele>
        <time>2021-09-05T09:19:49Z</time>
      </trkpt>
      <trkpt lat="44.06147" lon="1.98866">
        <ele>295.4</ele>
        <time>2021-09-05T09:19:50Z</time>
      </trkpt>
      <trkpt lat="44.06147" lon="1.9886">
        <ele>295.6</ele>
        <time>2021-09-05T09:19:51Z</time>
      </trkpt>
      <trkpt lat="44.06146" lon="1.98855">
        <ele>295.8</ele>
        <time>2021-09-05T09:19:52Z</time>
      </trkpt>
      <trkpt lat="44.06146" lon="1.98851">
        <ele>296</ele>
        <time>2021-09-05T09:19:53Z</time>
      </trkpt>
      <trkpt lat="44.06146" lon="1.98846">
        <ele>296</ele>
        <time>2021-09-05T09:19:54Z</time>
      </trkpt>
      <trkpt lat="44.06146" lon="1.9884">
        <ele>296.4</ele>
        <time>2021-09-05T09:19:55Z</time>
      </trkpt>
      <trkpt lat="44.06146" lon="1.98835">
        <ele>296.4</ele>
        <time>2021-09-05T09:19:56Z</time>
      </trkpt>
      <trkpt lat="44.06145" lon="1.98831">
        <ele>296.4</ele>
        <time>2021-09-05T09:19:57Z</time>
      </trkpt>
      <trkpt lat="44.06145" lon="1.98826">
        <ele>296.6</ele>
        <time>2021-09-05T09:19:58Z</time>
      </trkpt>
      <trkpt lat="44.06146" lon="1.98819">
        <ele>296.6</ele>
        <time>2021-09-05T09:19:59Z</time>
      </trkpt>
      <trkpt lat="44.06146" lon="1.98814">
        <ele>296.8</ele>
        <time>2021-09-05T09:20:00Z</time>
      </trkpt>
      <trkpt lat="44.06146" lon="1.98809">
        <ele>296.8</ele>
        <time>2021-09-05T09:20:01Z</time>
      </trkpt>
      <trkpt lat="44.06146" lon="1.98805">
        <ele>296.8</ele>
        <time>2021-09-05T09:20:02Z</time>
      </trkpt>
      <trkpt lat="44.06146" lon="1.988">
        <ele>297</ele>
        <time>2021-09-05T09:20:03Z</time>
      </trkpt>
      <trkpt lat="44.06147" lon="1.98794">
        <ele>297</ele>
        <time>2021-09-05T09:20:04Z</time>
      </trkpt>
      <trkpt lat="44.06147" lon="1.9879">
        <ele>297</ele>
        <time>2021-09-05T09:20:05Z</time>
      </trkpt>
      <trkpt lat="44.06147" lon="1.98786">
        <ele>297.2</ele>
        <time>2021-09-05T09:20:06Z</time>
      </trkpt>
      <trkpt lat="44.06147" lon="1.98781">
        <ele>297.4</ele>
        <time>2021-09-05T09:20:07Z</time>
      </trkpt>
      <trkpt lat="44.06148" lon="1.98776">
        <ele>297.4</ele>
        <time>2021-09-05T09:20:08Z</time>
      </trkpt>
      <trkpt lat="44.06148" lon="1.98771">
        <ele>297.6</ele>
        <time>2021-09-05T09:20:09Z</time>
      </trkpt>
      <trkpt lat="44.06148" lon="1.98765">
        <ele>297.6</ele>
        <time>2021-09-05T09:20:10Z</time>
      </trkpt>
      <trkpt lat="44.06148" lon="1.98761">
        <ele>297.8</ele>
        <time>2021-09-05T09:20:11Z</time>
      </trkpt>
      <trkpt lat="44.06148" lon="1.98756">
        <ele>297.8</ele>
        <time>2021-09-05T09:20:12Z</time>
      </trkpt>
      <trkpt lat="44.06148" lon="1.9875">
        <ele>298</ele>
        <time>2021-09-05T09:20:13Z</time>
      </trkpt>
      <trkpt lat="44.06149" lon="1.98745">
        <ele>298</ele>
        <time>2021-09-05T09:20:14Z</time>
      </trkpt>
      <trkpt lat="44.06149" lon="1.98739">
        <ele>298</ele>
        <time>2021-09-05T09:20:15Z</time>
      </trkpt>
      <trkpt lat="44.06149" lon="1.98734">
        <ele>298.2</ele>
        <time>2021-09-05T09:20:16Z</time>
      </trkpt>
      <trkpt lat="44.06149" lon="1.98728">
        <ele>298.2</ele>
        <time>2021-09-05T09:20:17Z</time>
      </trkpt>
      <trkpt lat="44.06149" lon="1.98723">
        <ele>298.4</ele>
        <time>2021-09-05T09:20:18Z</time>
      </trkpt>
      <trkpt lat="44.0615" lon="1.98716">
        <ele>298.4</ele>
        <time>2021-09-05T09:20:19Z</time>
      </trkpt>
      <trkpt lat="44.06151" lon="1.98711">
        <ele>298.6</ele>
        <time>2021-09-05T09:20:20Z</time>
      </trkpt>
      <trkpt lat="44.06151" lon="1.98705">
        <ele>298.8</ele>
        <time>2021-09-05T09:20:21Z</time>
      </trkpt>
      <trkpt lat="44.06152" lon="1.98699">
        <ele>299</ele>
        <time>2021-09-05T09:20:22Z</time>
      </trkpt>
      <trkpt lat="44.06152" lon="1.98693">
        <ele>299</ele>
        <time>2021-09-05T09:20:23Z</time>
      </trkpt>
      <trkpt lat="44.06152" lon="1.98687">
        <ele>299</ele>
        <time>2021-09-05T09:20:24Z</time>
      </trkpt>
      <trkpt lat="44.06152" lon="1.9868">
        <ele>299</ele>
        <time>2021-09-05T09:20:25Z</time>
      </trkpt>
      <trkpt lat="44.06153" lon="1.98673">
        <ele>299</ele>
        <time>2021-09-05T09:20:26Z</time>
      </trkpt>
      <trkpt lat="44.06153" lon="1.98666">
        <ele>299.2</ele>
        <time>2021-09-05T09:20:27Z</time>
      </trkpt>
      <trkpt lat="44.06153" lon="1.9866">
        <ele>299.2</ele>
        <time>2021-09-05T09:20:28Z</time>
      </trkpt>
      <trkpt lat="44.06153" lon="1.98653">
        <ele>299.2</ele>
        <time>2021-09-05T09:20:29Z</time>
      </trkpt>
      <trkpt lat="44.06155" lon="1.98618">
        <ele>299.2</ele>
        <time>2021-09-05T09:20:34Z</time>
      </trkpt>
      <trkpt lat="44.06156" lon="1.98602">
        <ele>299.2</ele>
        <time>2021-09-05T09:20:36Z</time>
      </trkpt>
      <trkpt lat="44.0616" lon="1.98561">
        <ele>299.2</ele>
        <time>2021-09-05T09:20:42Z</time>
      </trkpt>
      <trkpt lat="44.06168" lon="1.9851">
        <ele>298.8</ele>
        <time>2021-09-05T09:20:49Z</time>
      </trkpt>
      <trkpt lat="44.06179" lon="1.98446">
        <ele>298.6</ele>
        <time>2021-09-05T09:20:57Z</time>
      </trkpt>
      <trkpt lat="44.06188" lon="1.98393">
        <ele>298.2</ele>
        <time>2021-09-05T09:21:03Z</time>
      </trkpt>
      <trkpt lat="44.06189" lon="1.98385">
        <ele>298.2</ele>
        <time>2021-09-05T09:21:04Z</time>
      </trkpt>
      <trkpt lat="44.06191" lon="1.98376">
        <ele>298.2</ele>
        <time>2021-09-05T09:21:05Z</time>
      </trkpt>
      <trkpt lat="44.06195" lon="1.98335">
        <ele>298</ele>
        <time>2021-09-05T09:21:10Z</time>
      </trkpt>
      <trkpt lat="44.06196" lon="1.98326">
        <ele>298.2</ele>
        <time>2021-09-05T09:21:11Z</time>
      </trkpt>
      <trkpt lat="44.06198" lon="1.98307">
        <ele>298.2</ele>
        <time>2021-09-05T09:21:13Z</time>
      </trkpt>
      <trkpt lat="44.06199" lon="1.98292">
        <ele>298.2</ele>
        <time>2021-09-05T09:21:15Z</time>
      </trkpt>
      <trkpt lat="44.062" lon="1.98282">
        <ele>298.2</ele>
        <time>2021-09-05T09:21:16Z</time>
      </trkpt>
      <trkpt lat="44.06201" lon="1.98275">
        <ele>298.4</ele>
        <time>2021-09-05T09:21:17Z</time>
      </trkpt>
      <trkpt lat="44.06207" lon="1.9824">
        <ele>298.6</ele>
        <time>2021-09-05T09:21:21Z</time>
      </trkpt>
      <trkpt lat="44.06208" lon="1.98232">
        <ele>298.8</ele>
        <time>2021-09-05T09:21:22Z</time>
      </trkpt>
      <trkpt lat="44.06209" lon="1.98225">
        <ele>298.8</ele>
        <time>2021-09-05T09:21:23Z</time>
      </trkpt>
      <trkpt lat="44.06211" lon="1.98218">
        <ele>299</ele>
        <time>2021-09-05T09:21:24Z</time>
      </trkpt>
      <trkpt lat="44.06227" lon="1.98171">
        <ele>299.2</ele>
        <time>2021-09-05T09:21:30Z</time>
      </trkpt>
      <trkpt lat="44.06229" lon="1.98163">
        <ele>299.4</ele>
        <time>2021-09-05T09:21:31Z</time>
      </trkpt>
      <trkpt lat="44.06242" lon="1.98123">
        <ele>299.6</ele>
        <time>2021-09-05T09:21:36Z</time>
      </trkpt>
      <trkpt lat="44.06248" lon="1.981">
        <ele>299.8</ele>
        <time>2021-09-05T09:21:39Z</time>
      </trkpt>
      <trkpt lat="44.06254" lon="1.98077">
        <ele>300</ele>
        <time>2021-09-05T09:21:42Z</time>
      </trkpt>
      <trkpt lat="44.06257" lon="1.9806">
        <ele>300</ele>
        <time>2021-09-05T09:21:44Z</time>
      </trkpt>
      <trkpt lat="44.06259" lon="1.9805">
        <ele>300</ele>
        <time>2021-09-05T09:21:45Z</time>
      </trkpt>
      <trkpt lat="44.0626" lon="1.98043">
        <ele>300.2</ele>
        <time>2021-09-05T09:21:46Z</time>
      </trkpt>
      <trkpt lat="44.06261" lon="1.98035">
        <ele>300.2</ele>
        <time>2021-09-05T09:21:47Z</time>
      </trkpt>
      <trkpt lat="44.06262" lon="1.98026">
        <ele>300.2</ele>
        <time>2021-09-05T09:21:48Z</time>
      </trkpt>
      <trkpt lat="44.06263" lon="1.98018">
        <ele>300.2</ele>
        <time>2021-09-05T09:21:49Z</time>
      </trkpt>
      <trkpt lat="44.06263" lon="1.98012">
        <ele>300.4</ele>
        <time>2021-09-05T09:21:50Z</time>
      </trkpt>
      <trkpt lat="44.06263" lon="1.98004">
        <ele>300.4</ele>
        <time>2021-09-05T09:21:51Z</time>
      </trkpt>
      <trkpt lat="44.06264" lon="1.97997">
        <ele>300.4</ele>
        <time>2021-09-05T09:21:52Z</time>
      </trkpt>
      <trkpt lat="44.06264" lon="1.97989">
        <ele>300.4</ele>
        <time>2021-09-05T09:21:53Z</time>
      </trkpt>
      <trkpt lat="44.06264" lon="1.97982">
        <ele>300.4</ele>
        <time>2021-09-05T09:21:54Z</time>
      </trkpt>
      <trkpt lat="44.06264" lon="1.97974">
        <ele>300.4</ele>
        <time>2021-09-05T09:21:55Z</time>
      </trkpt>
      <trkpt lat="44.06264" lon="1.97959">
        <ele>300.2</ele>
        <time>2021-09-05T09:21:57Z</time>
      </trkpt>
      <trkpt lat="44.06264" lon="1.97952">
        <ele>300.2</ele>
        <time>2021-09-05T09:21:58Z</time>
      </trkpt>
      <trkpt lat="44.06265" lon="1.97944">
        <ele>300</ele>
        <time>2021-09-05T09:21:59Z</time>
      </trkpt>
      <trkpt lat="44.06265" lon="1.97937">
        <ele>300</ele>
        <time>2021-09-05T09:22:00Z</time>
      </trkpt>
      <trkpt lat="44.06265" lon="1.97922">
        <ele>299.8</ele>
        <time>2021-09-05T09:22:02Z</time>
      </trkpt>
      <trkpt lat="44.06269" lon="1.97894">
        <ele>299.6</ele>
        <time>2021-09-05T09:22:06Z</time>
      </trkpt>
      <trkpt lat="44.06274" lon="1.97872">
        <ele>299.4</ele>
        <time>2021-09-05T09:22:09Z</time>
      </trkpt>
      <trkpt lat="44.06276" lon="1.97865">
        <ele>299.4</ele>
        <time>2021-09-05T09:22:10Z</time>
      </trkpt>
      <trkpt lat="44.06279" lon="1.97851">
        <ele>299.4</ele>
        <time>2021-09-05T09:22:12Z</time>
      </trkpt>
      <trkpt lat="44.06281" lon="1.97843">
        <ele>299.4</ele>
        <time>2021-09-05T09:22:13Z</time>
      </trkpt>
      <trkpt lat="44.06282" lon="1.97821">
        <ele>299.4</ele>
        <time>2021-09-05T09:22:16Z</time>
      </trkpt>
      <trkpt lat="44.06283" lon="1.97799">
        <ele>299.4</ele>
        <time>2021-09-05T09:22:19Z</time>
      </trkpt>
      <trkpt lat="44.06283" lon="1.97791">
        <ele>299.4</ele>
        <time>2021-09-05T09:22:20Z</time>
      </trkpt>
      <trkpt lat="44.06283" lon="1.97784">
        <ele>299.4</ele>
        <time>2021-09-05T09:22:21Z</time>
      </trkpt>
      <trkpt lat="44.06282" lon="1.9773">
        <ele>298.8</ele>
        <time>2021-09-05T09:22:28Z</time>
      </trkpt>
      <trkpt lat="44.06288" lon="1.97676">
        <ele>298.2</ele>
        <time>2021-09-05T09:22:34Z</time>
      </trkpt>
      <trkpt lat="44.06289" lon="1.97658">
        <ele>297.8</ele>
        <time>2021-09-05T09:22:36Z</time>
      </trkpt>
      <trkpt lat="44.0629" lon="1.97616">
        <ele>296.8</ele>
        <time>2021-09-05T09:22:40Z</time>
      </trkpt>
      <trkpt lat="44.06291" lon="1.97605">
        <ele>296.6</ele>
        <time>2021-09-05T09:22:41Z</time>
      </trkpt>
      <trkpt lat="44.06292" lon="1.97597">
        <ele>296.4</ele>
        <time>2021-09-05T09:22:42Z</time>
      </trkpt>
      <trkpt lat="44.06292" lon="1.97587">
        <ele>296.2</ele>
        <time>2021-09-05T09:22:43Z</time>
      </trkpt>
      <trkpt lat="44.06292" lon="1.97576">
        <ele>296</ele>
        <time>2021-09-05T09:22:44Z</time>
      </trkpt>
      <trkpt lat="44.06292" lon="1.97566">
        <ele>295.6</ele>
        <time>2021-09-05T09:22:45Z</time>
      </trkpt>
      <trkpt lat="44.06292" lon="1.97559">
        <ele>295.4</ele>
        <time>2021-09-05T09:22:46Z</time>
      </trkpt>
      <trkpt lat="44.06291" lon="1.97549">
        <ele>295</ele>
        <time>2021-09-05T09:22:47Z</time>
      </trkpt>
      <trkpt lat="44.0629" lon="1.9754">
        <ele>294.8</ele>
        <time>2021-09-05T09:22:48Z</time>
      </trkpt>
      <trkpt lat="44.0629" lon="1.97531">
        <ele>294.6</ele>
        <time>2021-09-05T09:22:49Z</time>
      </trkpt>
      <trkpt lat="44.06289" lon="1.97521">
        <ele>294.6</ele>
        <time>2021-09-05T09:22:50Z</time>
      </trkpt>
      <trkpt lat="44.06288" lon="1.97514">
        <ele>294.6</ele>
        <time>2021-09-05T09:22:51Z</time>
      </trkpt>
      <trkpt lat="44.06288" lon="1.97503">
        <ele>294.6</ele>
        <time>2021-09-05T09:22:52Z</time>
      </trkpt>
      <trkpt lat="44.06288" lon="1.97497">
        <ele>294.6</ele>
        <time>2021-09-05T09:22:53Z</time>
      </trkpt>
      <trkpt lat="44.06288" lon="1.97487">
        <ele>294.6</ele>
        <time>2021-09-05T09:22:54Z</time>
      </trkpt>
      <trkpt lat="44.06287" lon="1.9748">
        <ele>294.6</ele>
        <time>2021-09-05T09:22:55Z</time>
      </trkpt>
      <trkpt lat="44.06287" lon="1.97472">
        <ele>294.6</ele>
        <time>2021-09-05T09:22:56Z</time>
      </trkpt>
      <trkpt lat="44.06287" lon="1.97465">
        <ele>294.6</ele>
        <time>2021-09-05T09:22:57Z</time>
      </trkpt>
      <trkpt lat="44.06287" lon="1.97458">
        <ele>294.6</ele>
        <time>2021-09-05T09:22:58Z</time>
      </trkpt>
      <trkpt lat="44.06287" lon="1.97449">
        <ele>294.8</ele>
        <time>2021-09-05T09:22:59Z</time>
      </trkpt>
      <trkpt lat="44.06287" lon="1.97443">
        <ele>295</ele>
        <time>2021-09-05T09:23:00Z</time>
      </trkpt>
      <trkpt lat="44.06285" lon="1.97405">
        <ele>295.6</ele>
        <time>2021-09-05T09:23:05Z</time>
      </trkpt>
      <trkpt lat="44.06282" lon="1.97375">
        <ele>296</ele>
        <time>2021-09-05T09:23:09Z</time>
      </trkpt>
      <trkpt lat="44.06281" lon="1.97368">
        <ele>296</ele>
        <time>2021-09-05T09:23:10Z</time>
      </trkpt>
      <trkpt lat="44.06279" lon="1.97345">
        <ele>296</ele>
        <time>2021-09-05T09:23:13Z</time>
      </trkpt>
      <trkpt lat="44.06277" lon="1.9733">
        <ele>296</ele>
        <time>2021-09-05T09:23:15Z</time>
      </trkpt>
      <trkpt lat="44.06277" lon="1.97321">
        <ele>296</ele>
        <time>2021-09-05T09:23:16Z</time>
      </trkpt>
      <trkpt lat="44.06276" lon="1.97308">
        <ele>296</ele>
        <time>2021-09-05T09:23:18Z</time>
      </trkpt>
      <trkpt lat="44.06275" lon="1.973">
        <ele>296</ele>
        <time>2021-09-05T09:23:19Z</time>
      </trkpt>
      <trkpt lat="44.06271" lon="1.97262">
        <ele>295.4</ele>
        <time>2021-09-05T09:23:24Z</time>
      </trkpt>
      <trkpt lat="44.06268" lon="1.97212">
        <ele>294.6</ele>
        <time>2021-09-05T09:23:30Z</time>
      </trkpt>
      <trkpt lat="44.06266" lon="1.97194">
        <ele>294.2</ele>
        <time>2021-09-05T09:23:32Z</time>
      </trkpt>
      <trkpt lat="44.06265" lon="1.97167">
        <ele>293.4</ele>
        <time>2021-09-05T09:23:35Z</time>
      </trkpt>
      <trkpt lat="44.06263" lon="1.9714">
        <ele>292.6</ele>
        <time>2021-09-05T09:23:38Z</time>
      </trkpt>
      <trkpt lat="44.06262" lon="1.97122">
        <ele>292.2</ele>
        <time>2021-09-05T09:23:40Z</time>
      </trkpt>
      <trkpt lat="44.06254" lon="1.97046">
        <ele>291.4</ele>
        <time>2021-09-05T09:23:48Z</time>
      </trkpt>
      <trkpt lat="44.06252" lon="1.97027">
        <ele>291.2</ele>
        <time>2021-09-05T09:23:50Z</time>
      </trkpt>
      <trkpt lat="44.06251" lon="1.97017">
        <ele>291</ele>
        <time>2021-09-05T09:23:51Z</time>
      </trkpt>
      <trkpt lat="44.0625" lon="1.97007">
        <ele>291</ele>
        <time>2021-09-05T09:23:52Z</time>
      </trkpt>
      <trkpt lat="44.06249" lon="1.96998">
        <ele>291</ele>
        <time>2021-09-05T09:23:53Z</time>
      </trkpt>
      <trkpt lat="44.06248" lon="1.96989">
        <ele>291</ele>
        <time>2021-09-05T09:23:54Z</time>
      </trkpt>
      <trkpt lat="44.06248" lon="1.9698">
        <ele>291</ele>
        <time>2021-09-05T09:23:55Z</time>
      </trkpt>
      <trkpt lat="44.06248" lon="1.96971">
        <ele>291</ele>
        <time>2021-09-05T09:23:56Z</time>
      </trkpt>
      <trkpt lat="44.06247" lon="1.96963">
        <ele>291</ele>
        <time>2021-09-05T09:23:57Z</time>
      </trkpt>
      <trkpt lat="44.06247" lon="1.96955">
        <ele>291</ele>
        <time>2021-09-05T09:23:58Z</time>
      </trkpt>
      <trkpt lat="44.06247" lon="1.96946">
        <ele>291.2</ele>
        <time>2021-09-05T09:23:59Z</time>
      </trkpt>
      <trkpt lat="44.06246" lon="1.96938">
        <ele>291.2</ele>
        <time>2021-09-05T09:24:00Z</time>
      </trkpt>
      <trkpt lat="44.06246" lon="1.9693">
        <ele>291.2</ele>
        <time>2021-09-05T09:24:01Z</time>
      </trkpt>
      <trkpt lat="44.06246" lon="1.96922">
        <ele>291.4</ele>
        <time>2021-09-05T09:24:02Z</time>
      </trkpt>
      <trkpt lat="44.06246" lon="1.96914">
        <ele>291.6</ele>
        <time>2021-09-05T09:24:03Z</time>
      </trkpt>
      <trkpt lat="44.06246" lon="1.96905">
        <ele>291.6</ele>
        <time>2021-09-05T09:24:04Z</time>
      </trkpt>
      <trkpt lat="44.06246" lon="1.96897">
        <ele>291.6</ele>
        <time>2021-09-05T09:24:05Z</time>
      </trkpt>
      <trkpt lat="44.06245" lon="1.9689">
        <ele>291.6</ele>
        <time>2021-09-05T09:24:06Z</time>
      </trkpt>
      <trkpt lat="44.06244" lon="1.96882">
        <ele>291.6</ele>
        <time>2021-09-05T09:24:07Z</time>
      </trkpt>
      <trkpt lat="44.06243" lon="1.96874">
        <ele>291.6</ele>
        <time>2021-09-05T09:24:08Z</time>
      </trkpt>
      <trkpt lat="44.06243" lon="1.96867">
        <ele>291.6</ele>
        <time>2021-09-05T09:24:09Z</time>
      </trkpt>
      <trkpt lat="44.06243" lon="1.96859">
        <ele>291.6</ele>
        <time>2021-09-05T09:24:10Z</time>
      </trkpt>
      <trkpt lat="44.06243" lon="1.96853">
        <ele>291.6</ele>
        <time>2021-09-05T09:24:11Z</time>
      </trkpt>
      <trkpt lat="44.06242" lon="1.96846">
        <ele>291.6</ele>
        <time>2021-09-05T09:24:12Z</time>
      </trkpt>
      <trkpt lat="44.06242" lon="1.96839">
        <ele>291.6</ele>
        <time>2021-09-05T09:24:13Z</time>
      </trkpt>
      <trkpt lat="44.06241" lon="1.96819">
        <ele>291.8</ele>
        <time>2021-09-05T09:24:16Z</time>
      </trkpt>
      <trkpt lat="44.0624" lon="1.96812">
        <ele>291.8</ele>
        <time>2021-09-05T09:24:17Z</time>
      </trkpt>
      <trkpt lat="44.0624" lon="1.96805">
        <ele>291.8</ele>
        <time>2021-09-05T09:24:18Z</time>
      </trkpt>
      <trkpt lat="44.06239" lon="1.968">
        <ele>291.8</ele>
        <time>2021-09-05T09:24:19Z</time>
      </trkpt>
      <trkpt lat="44.06239" lon="1.96794">
        <ele>291.8</ele>
        <time>2021-09-05T09:24:20Z</time>
      </trkpt>
      <trkpt lat="44.06239" lon="1.96788">
        <ele>291.8</ele>
        <time>2021-09-05T09:24:21Z</time>
      </trkpt>
      <trkpt lat="44.06241" lon="1.96752">
        <ele>291.6</ele>
        <time>2021-09-05T09:24:26Z</time>
      </trkpt>
      <trkpt lat="44.06242" lon="1.96729">
        <ele>291.4</ele>
        <time>2021-09-05T09:24:29Z</time>
      </trkpt>
      <trkpt lat="44.06242" lon="1.96722">
        <ele>291.4</ele>
        <time>2021-09-05T09:24:30Z</time>
      </trkpt>
      <trkpt lat="44.06243" lon="1.96716">
        <ele>291.4</ele>
        <time>2021-09-05T09:24:31Z</time>
      </trkpt>
      <trkpt lat="44.06243" lon="1.96711">
        <ele>291.2</ele>
        <time>2021-09-05T09:24:32Z</time>
      </trkpt>
      <trkpt lat="44.06244" lon="1.96706">
        <ele>290.8</ele>
        <time>2021-09-05T09:24:33Z</time>
      </trkpt>
      <trkpt lat="44.06244" lon="1.96702">
        <ele>290.8</ele>
        <time>2021-09-05T09:24:34Z</time>
      </trkpt>
      <trkpt lat="44.06244" lon="1.96698">
        <ele>290.6</ele>
        <time>2021-09-05T09:24:35Z</time>
      </trkpt>
      <trkpt lat="44.06244" lon="1.96694">
        <ele>290.4</ele>
        <time>2021-09-05T09:24:36Z</time>
      </trkpt>
      <trkpt lat="44.06244" lon="1.9669">
        <ele>290.2</ele>
        <time>2021-09-05T09:24:37Z</time>
      </trkpt>
      <trkpt lat="44.06244" lon="1.96687">
        <ele>290</ele>
        <time>2021-09-05T09:24:38Z</time>
      </trkpt>
      <trkpt lat="44.06244" lon="1.96683">
        <ele>290</ele>
        <time>2021-09-05T09:24:39Z</time>
      </trkpt>
      <trkpt lat="44.06244" lon="1.96676">
        <ele>289.8</ele>
        <time>2021-09-05T09:24:41Z</time>
      </trkpt>
      <trkpt lat="44.06245" lon="1.96673">
        <ele>289.6</ele>
        <time>2021-09-05T09:24:42Z</time>
      </trkpt>
      <trkpt lat="44.06245" lon="1.96671">
        <ele>289.6</ele>
        <time>2021-09-05T09:24:43Z</time>
      </trkpt>
      <trkpt lat="44.06245" lon="1.9667">
        <ele>289.6</ele>
        <time>2021-09-05T09:24:44Z</time>
      </trkpt>
      <trkpt lat="44.06246" lon="1.96665">
        <ele>288.2</ele>
        <time>2021-09-05T09:25:02Z</time>
      </trkpt>
      <trkpt lat="44.06248" lon="1.96655">
        <ele>288.4</ele>
        <time>2021-09-05T09:25:05Z</time>
      </trkpt>
      <trkpt lat="44.06256" lon="1.96623">
        <ele>288</ele>
        <time>2021-09-05T09:25:12Z</time>
      </trkpt>
      <trkpt lat="44.06257" lon="1.96609">
        <ele>287.8</ele>
        <time>2021-09-05T09:25:14Z</time>
      </trkpt>
      <trkpt lat="44.06258" lon="1.96594">
        <ele>287</ele>
        <time>2021-09-05T09:25:16Z</time>
      </trkpt>
      <trkpt lat="44.06258" lon="1.96576">
        <ele>286.6</ele>
        <time>2021-09-05T09:25:18Z</time>
      </trkpt>
      <trkpt lat="44.06259" lon="1.96556">
        <ele>285.6</ele>
        <time>2021-09-05T09:25:20Z</time>
      </trkpt>
      <trkpt lat="44.0626" lon="1.96545">
        <ele>284.2</ele>
        <time>2021-09-05T09:25:21Z</time>
      </trkpt>
      <trkpt lat="44.06261" lon="1.96536">
        <ele>284</ele>
        <time>2021-09-05T09:25:22Z</time>
      </trkpt>
      <trkpt lat="44.06262" lon="1.96528">
        <ele>283</ele>
        <time>2021-09-05T09:25:23Z</time>
      </trkpt>
      <trkpt lat="44.06262" lon="1.96522">
        <ele>282.8</ele>
        <time>2021-09-05T09:25:24Z</time>
      </trkpt>
      <trkpt lat="44.06263" lon="1.96516">
        <ele>282</ele>
        <time>2021-09-05T09:25:25Z</time>
      </trkpt>
      <trkpt lat="44.06262" lon="1.96512">
        <ele>281.8</ele>
        <time>2021-09-05T09:25:26Z</time>
      </trkpt>
      <trkpt lat="44.06261" lon="1.96508">
        <ele>281.4</ele>
        <time>2021-09-05T09:25:27Z</time>
      </trkpt>
      <trkpt lat="44.0626" lon="1.96505">
        <ele>280.8</ele>
        <time>2021-09-05T09:25:28Z</time>
      </trkpt>
      <trkpt lat="44.0626" lon="1.96501">
        <ele>280.6</ele>
        <time>2021-09-05T09:25:29Z</time>
      </trkpt>
      <trkpt lat="44.0626" lon="1.96497">
        <ele>280.2</ele>
        <time>2021-09-05T09:25:30Z</time>
      </trkpt>
      <trkpt lat="44.0626" lon="1.96494">
        <ele>280</ele>
        <time>2021-09-05T09:25:31Z</time>
      </trkpt>
      <trkpt lat="44.06261" lon="1.9649">
        <ele>280</ele>
        <time>2021-09-05T09:25:32Z</time>
      </trkpt>
      <trkpt lat="44.06261" lon="1.96487">
        <ele>279.6</ele>
        <time>2021-09-05T09:25:33Z</time>
      </trkpt>
      <trkpt lat="44.06261" lon="1.96483">
        <ele>279</ele>
        <time>2021-09-05T09:25:34Z</time>
      </trkpt>
      <trkpt lat="44.06262" lon="1.96481">
        <ele>278.8</ele>
        <time>2021-09-05T09:25:35Z</time>
      </trkpt>
      <trkpt lat="44.06262" lon="1.96478">
        <ele>278</ele>
        <time>2021-09-05T09:25:36Z</time>
      </trkpt>
      <trkpt lat="44.06263" lon="1.96476">
        <ele>277.8</ele>
        <time>2021-09-05T09:25:37Z</time>
      </trkpt>
      <trkpt lat="44.06263" lon="1.96474">
        <ele>277.6</ele>
        <time>2021-09-05T09:25:38Z</time>
      </trkpt>
      <trkpt lat="44.06263" lon="1.96472">
        <ele>277.4</ele>
        <time>2021-09-05T09:25:39Z</time>
      </trkpt>
      <trkpt lat="44.06263" lon="1.96471">
        <ele>277.2</ele>
        <time>2021-09-05T09:25:40Z</time>
      </trkpt>
      <trkpt lat="44.06263" lon="1.96469">
        <ele>277</ele>
        <time>2021-09-05T09:25:41Z</time>
      </trkpt>
      <trkpt lat="44.06264" lon="1.96468">
        <ele>277</ele>
        <time>2021-09-05T09:25:42Z</time>
      </trkpt>
      <trkpt lat="44.06264" lon="1.96467">
        <ele>276.8</ele>
        <time>2021-09-05T09:25:43Z</time>
      </trkpt>
      <trkpt lat="44.06264" lon="1.96467">
        <ele>276.6</ele>
        <time>2021-09-05T09:25:45Z</time>
      </trkpt>
      <trkpt lat="44.06264" lon="1.96467">
        <ele>276.4</ele>
        <time>2021-09-05T09:25:46Z</time>
      </trkpt>
      <trkpt lat="44.06264" lon="1.96467">
        <ele>275.4</ele>
        <time>2021-09-05T09:26:44Z</time>
      </trkpt>
      <trkpt lat="44.06264" lon="1.96467">
        <ele>275.4</ele>
        <time>2021-09-05T09:26:45Z</time>
      </trkpt>
      <trkpt lat="44.06264" lon="1.96467">
        <ele>276.2</ele>
        <time>2021-09-05T09:27:03Z</time>
      </trkpt>
      <trkpt lat="44.06264" lon="1.96467">
        <ele>276.2</ele>
        <time>2021-09-05T09:27:04Z</time>
      </trkpt>
      <trkpt lat="44.06264" lon="1.96466">
        <ele>276.2</ele>
        <time>2021-09-05T09:27:05Z</time>
      </trkpt>
      <trkpt lat="44.06265" lon="1.96457">
        <ele>276.2</ele>
        <time>2021-09-05T09:27:08Z</time>
      </trkpt>
      <trkpt lat="44.06264" lon="1.96445">
        <ele>276.2</ele>
        <time>2021-09-05T09:27:11Z</time>
      </trkpt>
      <trkpt lat="44.06264" lon="1.96433">
        <ele>275.4</ele>
        <time>2021-09-05T09:27:14Z</time>
      </trkpt>
      <trkpt lat="44.06265" lon="1.96429">
        <ele>275</ele>
        <time>2021-09-05T09:27:15Z</time>
      </trkpt>
      <trkpt lat="44.06264" lon="1.96426">
        <ele>274.4</ele>
        <time>2021-09-05T09:27:16Z</time>
      </trkpt>
      <trkpt lat="44.06262" lon="1.96424">
        <ele>273.4</ele>
        <time>2021-09-05T09:27:17Z</time>
      </trkpt>
      <trkpt lat="44.0626" lon="1.96422">
        <ele>272</ele>
        <time>2021-09-05T09:27:18Z</time>
      </trkpt>
      <trkpt lat="44.06249" lon="1.96416">
        <ele>271</ele>
        <time>2021-09-05T09:27:21Z</time>
      </trkpt>
      <trkpt lat="44.06245" lon="1.96413">
        <ele>269.8</ele>
        <time>2021-09-05T09:27:22Z</time>
      </trkpt>
      <trkpt lat="44.06241" lon="1.96402">
        <ele>268</ele>
        <time>2021-09-05T09:27:24Z</time>
      </trkpt>
      <trkpt lat="44.0624" lon="1.96394">
        <ele>267.4</ele>
        <time>2021-09-05T09:27:25Z</time>
      </trkpt>
      <trkpt lat="44.06239" lon="1.96383">
        <ele>266.6</ele>
        <time>2021-09-05T09:27:26Z</time>
      </trkpt>
      <trkpt lat="44.06238" lon="1.96372">
        <ele>265.6</ele>
        <time>2021-09-05T09:27:27Z</time>
      </trkpt>
      <trkpt lat="44.06236" lon="1.96361">
        <ele>265</ele>
        <time>2021-09-05T09:27:28Z</time>
      </trkpt>
      <trkpt lat="44.06235" lon="1.96351">
        <ele>263.8</ele>
        <time>2021-09-05T09:27:29Z</time>
      </trkpt>
      <trkpt lat="44.06234" lon="1.96342">
        <ele>263.4</ele>
        <time>2021-09-05T09:27:30Z</time>
      </trkpt>
      <trkpt lat="44.06233" lon="1.96334">
        <ele>262.8</ele>
        <time>2021-09-05T09:27:31Z</time>
      </trkpt>
      <trkpt lat="44.06232" lon="1.96326">
        <ele>262.6</ele>
        <time>2021-09-05T09:27:32Z</time>
      </trkpt>
      <trkpt lat="44.0623" lon="1.9632">
        <ele>260.6</ele>
        <time>2021-09-05T09:27:33Z</time>
      </trkpt>
      <trkpt lat="44.06229" lon="1.96311">
        <ele>258.6</ele>
        <time>2021-09-05T09:27:34Z</time>
      </trkpt>
      <trkpt lat="44.06227" lon="1.96293">
        <ele>256.4</ele>
        <time>2021-09-05T09:27:36Z</time>
      </trkpt>
      <trkpt lat="44.06226" lon="1.96271">
        <ele>254.6</ele>
        <time>2021-09-05T09:27:38Z</time>
      </trkpt>
      <trkpt lat="44.06225" lon="1.96261">
        <ele>254.2</ele>
        <time>2021-09-05T09:27:39Z</time>
      </trkpt>
      <trkpt lat="44.06224" lon="1.96251">
        <ele>252.8</ele>
        <time>2021-09-05T09:27:40Z</time>
      </trkpt>
      <trkpt lat="44.06222" lon="1.96243">
        <ele>251.4</ele>
        <time>2021-09-05T09:27:41Z</time>
      </trkpt>
      <trkpt lat="44.0622" lon="1.96237">
        <ele>251</ele>
        <time>2021-09-05T09:27:42Z</time>
      </trkpt>
      <trkpt lat="44.06217" lon="1.96231">
        <ele>250.2</ele>
        <time>2021-09-05T09:27:43Z</time>
      </trkpt>
      <trkpt lat="44.06212" lon="1.96229">
        <ele>249.8</ele>
        <time>2021-09-05T09:27:44Z</time>
      </trkpt>
      <trkpt lat="44.06208" lon="1.9623">
        <ele>248</ele>
        <time>2021-09-05T09:27:45Z</time>
      </trkpt>
      <trkpt lat="44.06203" lon="1.96231">
        <ele>247</ele>
        <time>2021-09-05T09:27:46Z</time>
      </trkpt>
      <trkpt lat="44.06198" lon="1.96231">
        <ele>245.8</ele>
        <time>2021-09-05T09:27:47Z</time>
      </trkpt>
      <trkpt lat="44.06192" lon="1.96227">
        <ele>245.4</ele>
        <time>2021-09-05T09:27:48Z</time>
      </trkpt>
      <trkpt lat="44.06186" lon="1.96222">
        <ele>243.8</ele>
        <time>2021-09-05T09:27:49Z</time>
      </trkpt>
      <trkpt lat="44.0618" lon="1.96217">
        <ele>242.8</ele>
        <time>2021-09-05T09:27:50Z</time>
      </trkpt>
      <trkpt lat="44.06175" lon="1.96213">
        <ele>242.2</ele>
        <time>2021-09-05T09:27:51Z</time>
      </trkpt>
      <trkpt lat="44.06171" lon="1.96208">
        <ele>241.2</ele>
        <time>2021-09-05T09:27:52Z</time>
      </trkpt>
      <trkpt lat="44.0617" lon="1.96202">
        <ele>240.8</ele>
        <time>2021-09-05T09:27:53Z</time>
      </trkpt>
      <trkpt lat="44.0617" lon="1.96196">
        <ele>239.2</ele>
        <time>2021-09-05T09:27:54Z</time>
      </trkpt>
      <trkpt lat="44.0617" lon="1.96189">
        <ele>238.4</ele>
        <time>2021-09-05T09:27:55Z</time>
      </trkpt>
      <trkpt lat="44.06169" lon="1.96182">
        <ele>237.2</ele>
        <time>2021-09-05T09:27:56Z</time>
      </trkpt>
      <trkpt lat="44.06169" lon="1.96174">
        <ele>236</ele>
        <time>2021-09-05T09:27:57Z</time>
      </trkpt>
      <trkpt lat="44.06169" lon="1.96166">
        <ele>235</ele>
        <time>2021-09-05T09:27:58Z</time>
      </trkpt>
      <trkpt lat="44.06169" lon="1.96159">
        <ele>233.4</ele>
        <time>2021-09-05T09:27:59Z</time>
      </trkpt>
      <trkpt lat="44.0617" lon="1.96153">
        <ele>232.8</ele>
        <time>2021-09-05T09:28:00Z</time>
      </trkpt>
      <trkpt lat="44.06171" lon="1.96147">
        <ele>231.4</ele>
        <time>2021-09-05T09:28:01Z</time>
      </trkpt>
      <trkpt lat="44.06172" lon="1.96141">
        <ele>230.4</ele>
        <time>2021-09-05T09:28:02Z</time>
      </trkpt>
      <trkpt lat="44.06174" lon="1.96135">
        <ele>228.2</ele>
        <time>2021-09-05T09:28:03Z</time>
      </trkpt>
      <trkpt lat="44.06176" lon="1.96129">
        <ele>227.6</ele>
        <time>2021-09-05T09:28:04Z</time>
      </trkpt>
      <trkpt lat="44.06178" lon="1.96122">
        <ele>226.6</ele>
        <time>2021-09-05T09:28:05Z</time>
      </trkpt>
      <trkpt lat="44.06179" lon="1.96117">
        <ele>225.6</ele>
        <time>2021-09-05T09:28:06Z</time>
      </trkpt>
      <trkpt lat="44.06181" lon="1.96112">
        <ele>225</ele>
        <time>2021-09-05T09:28:07Z</time>
      </trkpt>
      <trkpt lat="44.06182" lon="1.96107">
        <ele>223.8</ele>
        <time>2021-09-05T09:28:08Z</time>
      </trkpt>
      <trkpt lat="44.06183" lon="1.96103">
        <ele>223.2</ele>
        <time>2021-09-05T09:28:09Z</time>
      </trkpt>
      <trkpt lat="44.06184" lon="1.961">
        <ele>222.4</ele>
        <time>2021-09-05T09:28:10Z</time>
      </trkpt>
      <trkpt lat="44.06185" lon="1.96096">
        <ele>222.2</ele>
        <time>2021-09-05T09:28:11Z</time>
      </trkpt>
      <trkpt lat="44.06184" lon="1.96093">
        <ele>221.4</ele>
        <time>2021-09-05T09:28:12Z</time>
      </trkpt>
      <trkpt lat="44.06184" lon="1.96089">
        <ele>220.6</ele>
        <time>2021-09-05T09:28:13Z</time>
      </trkpt>
      <trkpt lat="44.06185" lon="1.96085">
        <ele>220.2</ele>
        <time>2021-09-05T09:28:14Z</time>
      </trkpt>
      <trkpt lat="44.06185" lon="1.9608">
        <ele>219.8</ele>
        <time>2021-09-05T09:28:15Z</time>
      </trkpt>
      <trkpt lat="44.06187" lon="1.96076">
        <ele>219.6</ele>
        <time>2021-09-05T09:28:16Z</time>
      </trkpt>
      <trkpt lat="44.06188" lon="1.96072">
        <ele>219.4</ele>
        <time>2021-09-05T09:28:17Z</time>
      </trkpt>
      <trkpt lat="44.0619" lon="1.96068">
        <ele>219.2</ele>
        <time>2021-09-05T09:28:18Z</time>
      </trkpt>
      <trkpt lat="44.06194" lon="1.96047">
        <ele>218</ele>
        <time>2021-09-05T09:28:22Z</time>
      </trkpt>
      <trkpt lat="44.06196" lon="1.9604">
        <ele>217.8</ele>
        <time>2021-09-05T09:28:23Z</time>
      </trkpt>
      <trkpt lat="44.06199" lon="1.96034">
        <ele>217.6</ele>
        <time>2021-09-05T09:28:24Z</time>
      </trkpt>
      <trkpt lat="44.06208" lon="1.96007">
        <ele>217</ele>
        <time>2021-09-05T09:28:28Z</time>
      </trkpt>
      <trkpt lat="44.06211" lon="1.96001">
        <ele>216.4</ele>
        <time>2021-09-05T09:28:29Z</time>
      </trkpt>
      <trkpt lat="44.06214" lon="1.95996">
        <ele>216</ele>
        <time>2021-09-05T09:28:30Z</time>
      </trkpt>
      <trkpt lat="44.06216" lon="1.95993">
        <ele>215.2</ele>
        <time>2021-09-05T09:28:31Z</time>
      </trkpt>
      <trkpt lat="44.06218" lon="1.9599">
        <ele>215</ele>
        <time>2021-09-05T09:28:32Z</time>
      </trkpt>
      <trkpt lat="44.06218" lon="1.95988">
        <ele>214.4</ele>
        <time>2021-09-05T09:28:33Z</time>
      </trkpt>
      <trkpt lat="44.06219" lon="1.95986">
        <ele>214.4</ele>
        <time>2021-09-05T09:28:34Z</time>
      </trkpt>
      <trkpt lat="44.06219" lon="1.95985">
        <ele>212.2</ele>
        <time>2021-09-05T09:28:56Z</time>
      </trkpt>
      <trkpt lat="44.0622" lon="1.95977">
        <ele>212.2</ele>
        <time>2021-09-05T09:29:00Z</time>
      </trkpt>
      <trkpt lat="44.06225" lon="1.9596">
        <ele>211.8</ele>
        <time>2021-09-05T09:29:05Z</time>
      </trkpt>
      <trkpt lat="44.06234" lon="1.95933">
        <ele>211</ele>
        <time>2021-09-05T09:29:10Z</time>
      </trkpt>
      <trkpt lat="44.06236" lon="1.95928">
        <ele>211</ele>
        <time>2021-09-05T09:29:11Z</time>
      </trkpt>
      <trkpt lat="44.06237" lon="1.95923">
        <ele>210.8</ele>
        <time>2021-09-05T09:29:12Z</time>
      </trkpt>
      <trkpt lat="44.06239" lon="1.95917">
        <ele>210.6</ele>
        <time>2021-09-05T09:29:13Z</time>
      </trkpt>
      <trkpt lat="44.06243" lon="1.95902">
        <ele>210</ele>
        <time>2021-09-05T09:29:16Z</time>
      </trkpt>
      <trkpt lat="44.06244" lon="1.95897">
        <ele>209.8</ele>
        <time>2021-09-05T09:29:17Z</time>
      </trkpt>
      <trkpt lat="44.06246" lon="1.95885">
        <ele>209.6</ele>
        <time>2021-09-05T09:29:19Z</time>
      </trkpt>
      <trkpt lat="44.06248" lon="1.95867">
        <ele>209.2</ele>
        <time>2021-09-05T09:29:22Z</time>
      </trkpt>
      <trkpt lat="44.06248" lon="1.95861">
        <ele>209.2</ele>
        <time>2021-09-05T09:29:23Z</time>
      </trkpt>
      <trkpt lat="44.0625" lon="1.95855">
        <ele>208.8</ele>
        <time>2021-09-05T09:29:24Z</time>
      </trkpt>
      <trkpt lat="44.06251" lon="1.95851">
        <ele>208.6</ele>
        <time>2021-09-05T09:29:25Z</time>
      </trkpt>
      <trkpt lat="44.06253" lon="1.95844">
        <ele>208.2</ele>
        <time>2021-09-05T09:29:26Z</time>
      </trkpt>
      <trkpt lat="44.06255" lon="1.95838">
        <ele>208.2</ele>
        <time>2021-09-05T09:29:27Z</time>
      </trkpt>
      <trkpt lat="44.06257" lon="1.95832">
        <ele>207.8</ele>
        <time>2021-09-05T09:29:28Z</time>
      </trkpt>
      <trkpt lat="44.06257" lon="1.95826">
        <ele>207.8</ele>
        <time>2021-09-05T09:29:29Z</time>
      </trkpt>
      <trkpt lat="44.06257" lon="1.95821">
        <ele>207.6</ele>
        <time>2021-09-05T09:29:30Z</time>
      </trkpt>
      <trkpt lat="44.06257" lon="1.95817">
        <ele>207.4</ele>
        <time>2021-09-05T09:29:31Z</time>
      </trkpt>
      <trkpt lat="44.06256" lon="1.95815">
        <ele>207</ele>
        <time>2021-09-05T09:29:32Z</time>
      </trkpt>
      <trkpt lat="44.06256" lon="1.95812">
        <ele>206.8</ele>
        <time>2021-09-05T09:29:33Z</time>
      </trkpt>
      <trkpt lat="44.06252" lon="1.958">
        <ele>205.8</ele>
        <time>2021-09-05T09:29:37Z</time>
      </trkpt>
      <trkpt lat="44.06252" lon="1.95798">
        <ele>205.8</ele>
        <time>2021-09-05T09:29:38Z</time>
      </trkpt>
      <trkpt lat="44.06251" lon="1.95795">
        <ele>205.4</ele>
        <time>2021-09-05T09:29:39Z</time>
      </trkpt>
      <trkpt lat="44.06251" lon="1.95794">
        <ele>205.2</ele>
        <time>2021-09-05T09:29:40Z</time>
      </trkpt>
      <trkpt lat="44.0625" lon="1.95793">
        <ele>205.2</ele>
        <time>2021-09-05T09:29:41Z</time>
      </trkpt>
      <trkpt lat="44.06249" lon="1.95791">
        <ele>205.2</ele>
        <time>2021-09-05T09:29:42Z</time>
      </trkpt>
      <trkpt lat="44.06248" lon="1.95791">
        <ele>205</ele>
        <time>2021-09-05T09:29:43Z</time>
      </trkpt>
      <trkpt lat="44.06248" lon="1.95791">
        <ele>204.8</ele>
        <time>2021-09-05T09:29:44Z</time>
      </trkpt>
      <trkpt lat="44.06248" lon="1.95791">
        <ele>204.8</ele>
        <time>2021-09-05T09:29:45Z</time>
      </trkpt>
      <trkpt lat="44.06248" lon="1.95791">
        <ele>204.4</ele>
        <time>2021-09-05T09:29:46Z</time>
      </trkpt>
      <trkpt lat="44.06243" lon="1.95788">
        <ele>204</ele>
        <time>2021-09-05T09:29:48Z</time>
      </trkpt>
      <trkpt lat="44.06237" lon="1.95787">
        <ele>203.6</ele>
        <time>2021-09-05T09:29:49Z</time>
      </trkpt>
      <trkpt lat="44.06232" lon="1.95786">
        <ele>203.2</ele>
        <time>2021-09-05T09:29:50Z</time>
      </trkpt>
      <trkpt lat="44.06222" lon="1.95784">
        <ele>202.6</ele>
        <time>2021-09-05T09:29:51Z</time>
      </trkpt>
      <trkpt lat="44.06212" lon="1.95779">
        <ele>202.2</ele>
        <time>2021-09-05T09:29:52Z</time>
      </trkpt>
      <trkpt lat="44.06201" lon="1.95775">
        <ele>201.8</ele>
        <time>2021-09-05T09:29:53Z</time>
      </trkpt>
      <trkpt lat="44.06192" lon="1.9577">
        <ele>201.4</ele>
        <time>2021-09-05T09:29:54Z</time>
      </trkpt>
      <trkpt lat="44.06184" lon="1.95766">
        <ele>200.2</ele>
        <time>2021-09-05T09:29:55Z</time>
      </trkpt>
      <trkpt lat="44.06178" lon="1.95763">
        <ele>199.2</ele>
        <time>2021-09-05T09:29:56Z</time>
      </trkpt>
      <trkpt lat="44.06174" lon="1.9576">
        <ele>198.4</ele>
        <time>2021-09-05T09:29:57Z</time>
      </trkpt>
      <trkpt lat="44.06171" lon="1.95757">
        <ele>197</ele>
        <time>2021-09-05T09:29:58Z</time>
      </trkpt>
      <trkpt lat="44.06169" lon="1.95755">
        <ele>195.8</ele>
        <time>2021-09-05T09:29:59Z</time>
      </trkpt>
      <trkpt lat="44.06169" lon="1.95754">
        <ele>193.8</ele>
        <time>2021-09-05T09:30:00Z</time>
      </trkpt>
      <trkpt lat="44.06169" lon="1.95753">
        <ele>193</ele>
        <time>2021-09-05T09:30:01Z</time>
      </trkpt>
      <trkpt lat="44.06169" lon="1.95752">
        <ele>191.4</ele>
        <time>2021-09-05T09:30:02Z</time>
      </trkpt>
      <trkpt lat="44.06169" lon="1.9575">
        <ele>190.8</ele>
        <time>2021-09-05T09:30:03Z</time>
      </trkpt>
      <trkpt lat="44.0617" lon="1.95749">
        <ele>190</ele>
        <time>2021-09-05T09:30:04Z</time>
      </trkpt>
      <trkpt lat="44.0617" lon="1.95747">
        <ele>189.4</ele>
        <time>2021-09-05T09:30:05Z</time>
      </trkpt>
      <trkpt lat="44.0617" lon="1.95746">
        <ele>189.2</ele>
        <time>2021-09-05T09:30:06Z</time>
      </trkpt>
      <trkpt lat="44.0617" lon="1.95744">
        <ele>189</ele>
        <time>2021-09-05T09:30:07Z</time>
      </trkpt>
      <trkpt lat="44.0617" lon="1.95744">
        <ele>189</ele>
        <time>2021-09-05T09:30:08Z</time>
      </trkpt>
      <trkpt lat="44.0617" lon="1.95744">
        <ele>189.2</ele>
        <time>2021-09-05T09:31:15Z</time>
      </trkpt>
      <trkpt lat="44.0617" lon="1.95741">
        <ele>189.2</ele>
        <time>2021-09-05T09:31:17Z</time>
      </trkpt>
      <trkpt lat="44.0617" lon="1.95738">
        <ele>189.4</ele>
        <time>2021-09-05T09:31:18Z</time>
      </trkpt>
      <trkpt lat="44.0617" lon="1.95734">
        <ele>189.4</ele>
        <time>2021-09-05T09:31:20Z</time>
      </trkpt>
      <trkpt lat="44.06171" lon="1.95732">
        <ele>189.4</ele>
        <time>2021-09-05T09:31:21Z</time>
      </trkpt>
      <trkpt lat="44.06171" lon="1.9573">
        <ele>189.6</ele>
        <time>2021-09-05T09:31:22Z</time>
      </trkpt>
      <trkpt lat="44.06172" lon="1.95726">
        <ele>189.8</ele>
        <time>2021-09-05T09:31:24Z</time>
      </trkpt>
      <trkpt lat="44.06172" lon="1.95723">
        <ele>190.2</ele>
        <time>2021-09-05T09:31:26Z</time>
      </trkpt>
      <trkpt lat="44.06173" lon="1.95721">
        <ele>190.4</ele>
        <time>2021-09-05T09:31:27Z</time>
      </trkpt>
      <trkpt lat="44.06174" lon="1.95717">
        <ele>191</ele>
        <time>2021-09-05T09:31:29Z</time>
      </trkpt>
      <trkpt lat="44.06174" lon="1.95715">
        <ele>191.2</ele>
        <time>2021-09-05T09:31:30Z</time>
      </trkpt>
      <trkpt lat="44.06174" lon="1.95712">
        <ele>191.4</ele>
        <time>2021-09-05T09:31:31Z</time>
      </trkpt>
      <trkpt lat="44.06175" lon="1.95708">
        <ele>192</ele>
        <time>2021-09-05T09:31:33Z</time>
      </trkpt>
      <trkpt lat="44.06176" lon="1.95705">
        <ele>192.6</ele>
        <time>2021-09-05T09:31:35Z</time>
      </trkpt>
      <trkpt lat="44.06176" lon="1.95703">
        <ele>193</ele>
        <time>2021-09-05T09:31:36Z</time>
      </trkpt>
      <trkpt lat="44.06177" lon="1.95701">
        <ele>193.2</ele>
        <time>2021-09-05T09:31:37Z</time>
      </trkpt>
      <trkpt lat="44.06176" lon="1.95699">
        <ele>193.6</ele>
        <time>2021-09-05T09:31:38Z</time>
      </trkpt>
      <trkpt lat="44.06176" lon="1.95696">
        <ele>193.8</ele>
        <time>2021-09-05T09:31:39Z</time>
      </trkpt>
      <trkpt lat="44.06177" lon="1.95694">
        <ele>194.2</ele>
        <time>2021-09-05T09:31:40Z</time>
      </trkpt>
      <trkpt lat="44.06178" lon="1.95692">
        <ele>194.8</ele>
        <time>2021-09-05T09:31:41Z</time>
      </trkpt>
      <trkpt lat="44.06178" lon="1.9569">
        <ele>194.8</ele>
        <time>2021-09-05T09:31:42Z</time>
      </trkpt>
      <trkpt lat="44.06179" lon="1.95688">
        <ele>195.4</ele>
        <time>2021-09-05T09:31:43Z</time>
      </trkpt>
      <trkpt lat="44.06179" lon="1.95687">
        <ele>195.6</ele>
        <time>2021-09-05T09:31:44Z</time>
      </trkpt>
      <trkpt lat="44.06179" lon="1.95685">
        <ele>196</ele>
        <time>2021-09-05T09:31:45Z</time>
      </trkpt>
      <trkpt lat="44.0618" lon="1.95683">
        <ele>196</ele>
        <time>2021-09-05T09:31:46Z</time>
      </trkpt>
      <trkpt lat="44.0618" lon="1.95681">
        <ele>196.4</ele>
        <time>2021-09-05T09:31:47Z</time>
      </trkpt>
      <trkpt lat="44.0618" lon="1.9568">
        <ele>196.6</ele>
        <time>2021-09-05T09:31:48Z</time>
      </trkpt>
      <trkpt lat="44.06181" lon="1.95678">
        <ele>196.8</ele>
        <time>2021-09-05T09:31:49Z</time>
      </trkpt>
      <trkpt lat="44.0618" lon="1.95676">
        <ele>197.2</ele>
        <time>2021-09-05T09:31:50Z</time>
      </trkpt>
      <trkpt lat="44.0618" lon="1.95674">
        <ele>197.4</ele>
        <time>2021-09-05T09:31:51Z</time>
      </trkpt>
      <trkpt lat="44.0618" lon="1.95672">
        <ele>197.6</ele>
        <time>2021-09-05T09:31:52Z</time>
      </trkpt>
      <trkpt lat="44.0618" lon="1.9567">
        <ele>197.8</ele>
        <time>2021-09-05T09:31:53Z</time>
      </trkpt>
      <trkpt lat="44.0618" lon="1.95668">
        <ele>198</ele>
        <time>2021-09-05T09:31:54Z</time>
      </trkpt>
      <trkpt lat="44.0618" lon="1.95667">
        <ele>198.2</ele>
        <time>2021-09-05T09:31:55Z</time>
      </trkpt>
      <trkpt lat="44.0618" lon="1.95665">
        <ele>198.6</ele>
        <time>2021-09-05T09:31:56Z</time>
      </trkpt>
      <trkpt lat="44.0618" lon="1.95663">
        <ele>198.6</ele>
        <time>2021-09-05T09:31:57Z</time>
      </trkpt>
      <trkpt lat="44.06181" lon="1.95661">
        <ele>199</ele>
        <time>2021-09-05T09:31:58Z</time>
      </trkpt>
      <trkpt lat="44.06181" lon="1.95659">
        <ele>199.4</ele>
        <time>2021-09-05T09:31:59Z</time>
      </trkpt>
      <trkpt lat="44.06181" lon="1.95657">
        <ele>199.4</ele>
        <time>2021-09-05T09:32:00Z</time>
      </trkpt>
      <trkpt lat="44.06182" lon="1.95655">
        <ele>199.6</ele>
        <time>2021-09-05T09:32:01Z</time>
      </trkpt>
      <trkpt lat="44.06182" lon="1.95653">
        <ele>199.8</ele>
        <time>2021-09-05T09:32:02Z</time>
      </trkpt>
      <trkpt lat="44.06182" lon="1.95652">
        <ele>200.2</ele>
        <time>2021-09-05T09:32:03Z</time>
      </trkpt>
      <trkpt lat="44.06182" lon="1.95649">
        <ele>200.4</ele>
        <time>2021-09-05T09:32:04Z</time>
      </trkpt>
      <trkpt lat="44.06183" lon="1.95647">
        <ele>200.6</ele>
        <time>2021-09-05T09:32:05Z</time>
      </trkpt>
      <trkpt lat="44.06183" lon="1.95646">
        <ele>200.8</ele>
        <time>2021-09-05T09:32:06Z</time>
      </trkpt>
      <trkpt lat="44.06184" lon="1.95644">
        <ele>201</ele>
        <time>2021-09-05T09:32:07Z</time>
      </trkpt>
      <trkpt lat="44.06184" lon="1.95642">
        <ele>201.4</ele>
        <time>2021-09-05T09:32:08Z</time>
      </trkpt>
      <trkpt lat="44.06184" lon="1.9564">
        <ele>201.4</ele>
        <time>2021-09-05T09:32:09Z</time>
      </trkpt>
      <trkpt lat="44.06184" lon="1.95638">
        <ele>201.8</ele>
        <time>2021-09-05T09:32:10Z</time>
      </trkpt>
      <trkpt lat="44.06185" lon="1.95637">
        <ele>202</ele>
        <time>2021-09-05T09:32:11Z</time>
      </trkpt>
      <trkpt lat="44.06185" lon="1.95635">
        <ele>202.2</ele>
        <time>2021-09-05T09:32:12Z</time>
      </trkpt>
      <trkpt lat="44.06185" lon="1.95633">
        <ele>202.4</ele>
        <time>2021-09-05T09:32:13Z</time>
      </trkpt>
      <trkpt lat="44.06185" lon="1.95631">
        <ele>202.6</ele>
        <time>2021-09-05T09:32:14Z</time>
      </trkpt>
      <trkpt lat="44.06185" lon="1.95629">
        <ele>203</ele>
        <time>2021-09-05T09:32:15Z</time>
      </trkpt>
      <trkpt lat="44.06185" lon="1.95628">
        <ele>203</ele>
        <time>2021-09-05T09:32:16Z</time>
      </trkpt>
      <trkpt lat="44.06186" lon="1.95627">
        <ele>203.4</ele>
        <time>2021-09-05T09:32:17Z</time>
      </trkpt>
      <trkpt lat="44.06185" lon="1.95626">
        <ele>203.6</ele>
        <time>2021-09-05T09:32:18Z</time>
      </trkpt>
      <trkpt lat="44.06185" lon="1.95625">
        <ele>204</ele>
        <time>2021-09-05T09:32:19Z</time>
      </trkpt>
      <trkpt lat="44.06186" lon="1.95622">
        <ele>204.6</ele>
        <time>2021-09-05T09:32:20Z</time>
      </trkpt>
      <trkpt lat="44.06186" lon="1.95621">
        <ele>204.8</ele>
        <time>2021-09-05T09:32:21Z</time>
      </trkpt>
      <trkpt lat="44.06186" lon="1.95619">
        <ele>205.4</ele>
        <time>2021-09-05T09:32:22Z</time>
      </trkpt>
      <trkpt lat="44.06187" lon="1.95617">
        <ele>205.4</ele>
        <time>2021-09-05T09:32:23Z</time>
      </trkpt>
      <trkpt lat="44.06187" lon="1.95615">
        <ele>205.8</ele>
        <time>2021-09-05T09:32:24Z</time>
      </trkpt>
      <trkpt lat="44.06187" lon="1.95614">
        <ele>206</ele>
        <time>2021-09-05T09:32:25Z</time>
      </trkpt>
      <trkpt lat="44.06188" lon="1.95612">
        <ele>206.2</ele>
        <time>2021-09-05T09:32:26Z</time>
      </trkpt>
      <trkpt lat="44.06188" lon="1.9561">
        <ele>206.4</ele>
        <time>2021-09-05T09:32:27Z</time>
      </trkpt>
      <trkpt lat="44.06189" lon="1.95609">
        <ele>206.6</ele>
        <time>2021-09-05T09:32:28Z</time>
      </trkpt>
      <trkpt lat="44.0619" lon="1.95606">
        <ele>207.2</ele>
        <time>2021-09-05T09:32:29Z</time>
      </trkpt>
      <trkpt lat="44.0619" lon="1.95604">
        <ele>207.4</ele>
        <time>2021-09-05T09:32:30Z</time>
      </trkpt>
      <trkpt lat="44.06191" lon="1.95602">
        <ele>207.8</ele>
        <time>2021-09-05T09:32:31Z</time>
      </trkpt>
      <trkpt lat="44.06191" lon="1.95601">
        <ele>208</ele>
        <time>2021-09-05T09:32:32Z</time>
      </trkpt>
      <trkpt lat="44.06192" lon="1.95599">
        <ele>208.4</ele>
        <time>2021-09-05T09:32:33Z</time>
      </trkpt>
      <trkpt lat="44.06193" lon="1.95597">
        <ele>208.4</ele>
        <time>2021-09-05T09:32:34Z</time>
      </trkpt>
      <trkpt lat="44.06193" lon="1.95596">
        <ele>208.8</ele>
        <time>2021-09-05T09:32:35Z</time>
      </trkpt>
      <trkpt lat="44.06194" lon="1.95594">
        <ele>209.2</ele>
        <time>2021-09-05T09:32:36Z</time>
      </trkpt>
      <trkpt lat="44.06195" lon="1.95593">
        <ele>209.4</ele>
        <time>2021-09-05T09:32:37Z</time>
      </trkpt>
      <trkpt lat="44.06196" lon="1.95591">
        <ele>210</ele>
        <time>2021-09-05T09:32:38Z</time>
      </trkpt>
      <trkpt lat="44.06197" lon="1.95589">
        <ele>210</ele>
        <time>2021-09-05T09:32:39Z</time>
      </trkpt>
      <trkpt lat="44.06198" lon="1.95588">
        <ele>210.6</ele>
        <time>2021-09-05T09:32:40Z</time>
      </trkpt>
      <trkpt lat="44.06199" lon="1.95586">
        <ele>211</ele>
        <time>2021-09-05T09:32:41Z</time>
      </trkpt>
      <trkpt lat="44.062" lon="1.95585">
        <ele>211.4</ele>
        <time>2021-09-05T09:32:42Z</time>
      </trkpt>
      <trkpt lat="44.06201" lon="1.95584">
        <ele>211.8</ele>
        <time>2021-09-05T09:32:43Z</time>
      </trkpt>
      <trkpt lat="44.06201" lon="1.95583">
        <ele>212</ele>
        <time>2021-09-05T09:32:44Z</time>
      </trkpt>
      <trkpt lat="44.06201" lon="1.95582">
        <ele>212.4</ele>
        <time>2021-09-05T09:32:45Z</time>
      </trkpt>
      <trkpt lat="44.06202" lon="1.9558">
        <ele>212.4</ele>
        <time>2021-09-05T09:32:46Z</time>
      </trkpt>
      <trkpt lat="44.06204" lon="1.95578">
        <ele>212.8</ele>
        <time>2021-09-05T09:32:47Z</time>
      </trkpt>
      <trkpt lat="44.06205" lon="1.95576">
        <ele>213.2</ele>
        <time>2021-09-05T09:32:48Z</time>
      </trkpt>
      <trkpt lat="44.06206" lon="1.95575">
        <ele>213.6</ele>
        <time>2021-09-05T09:32:49Z</time>
      </trkpt>
      <trkpt lat="44.06207" lon="1.95573">
        <ele>213.6</ele>
        <time>2021-09-05T09:32:50Z</time>
      </trkpt>
      <trkpt lat="44.06208" lon="1.95572">
        <ele>214</ele>
        <time>2021-09-05T09:32:51Z</time>
      </trkpt>
      <trkpt lat="44.06209" lon="1.95571">
        <ele>214.6</ele>
        <time>2021-09-05T09:32:52Z</time>
      </trkpt>
      <trkpt lat="44.06209" lon="1.95569">
        <ele>214.6</ele>
        <time>2021-09-05T09:32:53Z</time>
      </trkpt>
      <trkpt lat="44.06209" lon="1.95567">
        <ele>215.2</ele>
        <time>2021-09-05T09:32:54Z</time>
      </trkpt>
      <trkpt lat="44.0621" lon="1.95566">
        <ele>215.6</ele>
        <time>2021-09-05T09:32:55Z</time>
      </trkpt>
      <trkpt lat="44.06211" lon="1.95565">
        <ele>216</ele>
        <time>2021-09-05T09:32:56Z</time>
      </trkpt>
      <trkpt lat="44.06212" lon="1.95563">
        <ele>216.2</ele>
        <time>2021-09-05T09:32:57Z</time>
      </trkpt>
      <trkpt lat="44.06213" lon="1.95562">
        <ele>216.6</ele>
        <time>2021-09-05T09:32:58Z</time>
      </trkpt>
      <trkpt lat="44.06213" lon="1.95561">
        <ele>217</ele>
        <time>2021-09-05T09:32:59Z</time>
      </trkpt>
      <trkpt lat="44.06214" lon="1.9556">
        <ele>217.2</ele>
        <time>2021-09-05T09:33:00Z</time>
      </trkpt>
      <trkpt lat="44.06215" lon="1.9556">
        <ele>217.6</ele>
        <time>2021-09-05T09:33:01Z</time>
      </trkpt>
      <trkpt lat="44.06216" lon="1.9556">
        <ele>218</ele>
        <time>2021-09-05T09:33:02Z</time>
      </trkpt>
      <trkpt lat="44.06217" lon="1.9556">
        <ele>218.2</ele>
        <time>2021-09-05T09:33:03Z</time>
      </trkpt>
      <trkpt lat="44.06218" lon="1.95561">
        <ele>218.4</ele>
        <time>2021-09-05T09:33:04Z</time>
      </trkpt>
      <trkpt lat="44.06218" lon="1.95561">
        <ele>218.8</ele>
        <time>2021-09-05T09:33:05Z</time>
      </trkpt>
      <trkpt lat="44.0622" lon="1.95561">
        <ele>219</ele>
        <time>2021-09-05T09:33:06Z</time>
      </trkpt>
      <trkpt lat="44.06221" lon="1.9556">
        <ele>219</ele>
        <time>2021-09-05T09:33:07Z</time>
      </trkpt>
      <trkpt lat="44.06222" lon="1.9556">
        <ele>219.6</ele>
        <time>2021-09-05T09:33:08Z</time>
      </trkpt>
      <trkpt lat="44.06224" lon="1.95558">
        <ele>219.8</ele>
        <time>2021-09-05T09:33:09Z</time>
      </trkpt>
      <trkpt lat="44.06225" lon="1.95557">
        <ele>220</ele>
        <time>2021-09-05T09:33:10Z</time>
      </trkpt>
      <trkpt lat="44.06226" lon="1.95556">
        <ele>220.2</ele>
        <time>2021-09-05T09:33:11Z</time>
      </trkpt>
      <trkpt lat="44.06227" lon="1.95555">
        <ele>220.4</ele>
        <time>2021-09-05T09:33:12Z</time>
      </trkpt>
      <trkpt lat="44.06228" lon="1.95555">
        <ele>220.6</ele>
        <time>2021-09-05T09:33:13Z</time>
      </trkpt>
      <trkpt lat="44.06229" lon="1.95555">
        <ele>221</ele>
        <time>2021-09-05T09:33:14Z</time>
      </trkpt>
      <trkpt lat="44.0623" lon="1.95554">
        <ele>221.2</ele>
        <time>2021-09-05T09:33:15Z</time>
      </trkpt>
      <trkpt lat="44.06231" lon="1.95553">
        <ele>221.2</ele>
        <time>2021-09-05T09:33:16Z</time>
      </trkpt>
      <trkpt lat="44.06231" lon="1.95551">
        <ele>221.4</ele>
        <time>2021-09-05T09:33:17Z</time>
      </trkpt>
      <trkpt lat="44.06232" lon="1.9555">
        <ele>221.4</ele>
        <time>2021-09-05T09:33:18Z</time>
      </trkpt>
      <trkpt lat="44.06231" lon="1.95548">
        <ele>221.4</ele>
        <time>2021-09-05T09:33:19Z</time>
      </trkpt>
      <trkpt lat="44.06232" lon="1.95546">
        <ele>221.6</ele>
        <time>2021-09-05T09:33:20Z</time>
      </trkpt>
      <trkpt lat="44.06232" lon="1.95544">
        <ele>221.6</ele>
        <time>2021-09-05T09:33:21Z</time>
      </trkpt>
      <trkpt lat="44.06232" lon="1.95542">
        <ele>221.6</ele>
        <time>2021-09-05T09:33:22Z</time>
      </trkpt>
      <trkpt lat="44.06231" lon="1.9554">
        <ele>221.8</ele>
        <time>2021-09-05T09:33:23Z</time>
      </trkpt>
      <trkpt lat="44.06229" lon="1.95538">
        <ele>221.8</ele>
        <time>2021-09-05T09:33:24Z</time>
      </trkpt>
      <trkpt lat="44.06229" lon="1.95536">
        <ele>221.8</ele>
        <time>2021-09-05T09:33:25Z</time>
      </trkpt>
      <trkpt lat="44.06229" lon="1.95535">
        <ele>221.8</ele>
        <time>2021-09-05T09:33:26Z</time>
      </trkpt>
      <trkpt lat="44.06229" lon="1.95534">
        <ele>222</ele>
        <time>2021-09-05T09:33:27Z</time>
      </trkpt>
      <trkpt lat="44.06229" lon="1.95533">
        <ele>222</ele>
        <time>2021-09-05T09:33:28Z</time>
      </trkpt>
      <trkpt lat="44.06228" lon="1.95532">
        <ele>222</ele>
        <time>2021-09-05T09:33:29Z</time>
      </trkpt>
      <trkpt lat="44.06228" lon="1.95531">
        <ele>222</ele>
        <time>2021-09-05T09:33:30Z</time>
      </trkpt>
      <trkpt lat="44.06228" lon="1.95531">
        <ele>222.2</ele>
        <time>2021-09-05T09:33:31Z</time>
      </trkpt>
      <trkpt lat="44.06228" lon="1.95531">
        <ele>222.2</ele>
        <time>2021-09-05T09:33:32Z</time>
      </trkpt>
      <trkpt lat="44.06227" lon="1.95529">
        <ele>222.2</ele>
        <time>2021-09-05T09:33:33Z</time>
      </trkpt>
      <trkpt lat="44.06226" lon="1.95528">
        <ele>222.2</ele>
        <time>2021-09-05T09:33:34Z</time>
      </trkpt>
      <trkpt lat="44.06225" lon="1.95527">
        <ele>222.4</ele>
        <time>2021-09-05T09:33:35Z</time>
      </trkpt>
      <trkpt lat="44.06224" lon="1.95526">
        <ele>222.4</ele>
        <time>2021-09-05T09:33:36Z</time>
      </trkpt>
      <trkpt lat="44.06224" lon="1.95525">
        <ele>222.4</ele>
        <time>2021-09-05T09:33:37Z</time>
      </trkpt>
      <trkpt lat="44.06223" lon="1.95524">
        <ele>222.4</ele>
        <time>2021-09-05T09:33:38Z</time>
      </trkpt>
      <trkpt lat="44.06223" lon="1.95524">
        <ele>222.6</ele>
        <time>2021-09-05T09:33:39Z</time>
      </trkpt>
      <trkpt lat="44.06223" lon="1.95524">
        <ele>222.6</ele>
        <time>2021-09-05T09:33:40Z</time>
      </trkpt>
      <trkpt lat="44.06223" lon="1.95525">
        <ele>222.6</ele>
        <time>2021-09-05T09:33:41Z</time>
      </trkpt>
      <trkpt lat="44.06224" lon="1.95527">
        <ele>222.8</ele>
        <time>2021-09-05T09:33:43Z</time>
      </trkpt>
      <trkpt lat="44.06224" lon="1.95533">
        <ele>222.8</ele>
        <time>2021-09-05T09:33:47Z</time>
      </trkpt>
      <trkpt lat="44.06225" lon="1.95536">
        <ele>222.8</ele>
        <time>2021-09-05T09:33:48Z</time>
      </trkpt>
      <trkpt lat="44.06227" lon="1.95538">
        <ele>222.8</ele>
        <time>2021-09-05T09:33:50Z</time>
      </trkpt>
      <trkpt lat="44.06228" lon="1.95539">
        <ele>222.6</ele>
        <time>2021-09-05T09:33:51Z</time>
      </trkpt>
      <trkpt lat="44.0623" lon="1.95538">
        <ele>222.6</ele>
        <time>2021-09-05T09:33:52Z</time>
      </trkpt>
      <trkpt lat="44.0623" lon="1.95537">
        <ele>222.4</ele>
        <time>2021-09-05T09:33:53Z</time>
      </trkpt>
      <trkpt lat="44.0623" lon="1.95534">
        <ele>222.4</ele>
        <time>2021-09-05T09:33:55Z</time>
      </trkpt>
      <trkpt lat="44.06229" lon="1.95531">
        <ele>222.4</ele>
        <time>2021-09-05T09:33:56Z</time>
      </trkpt>
      <trkpt lat="44.06229" lon="1.9553">
        <ele>222.2</ele>
        <time>2021-09-05T09:33:57Z</time>
      </trkpt>
      <trkpt lat="44.06229" lon="1.95528">
        <ele>222.2</ele>
        <time>2021-09-05T09:33:58Z</time>
      </trkpt>
      <trkpt lat="44.06229" lon="1.95526">
        <ele>222.2</ele>
        <time>2021-09-05T09:33:59Z</time>
      </trkpt>
      <trkpt lat="44.06229" lon="1.95525">
        <ele>222.2</ele>
        <time>2021-09-05T09:34:00Z</time>
      </trkpt>
      <trkpt lat="44.06229" lon="1.9552">
        <ele>222.4</ele>
        <time>2021-09-05T09:34:03Z</time>
      </trkpt>
      <trkpt lat="44.06229" lon="1.95519">
        <ele>222.6</ele>
        <time>2021-09-05T09:34:04Z</time>
      </trkpt>
      <trkpt lat="44.0623" lon="1.95518">
        <ele>223</ele>
        <time>2021-09-05T09:34:05Z</time>
      </trkpt>
      <trkpt lat="44.0623" lon="1.95517">
        <ele>223.2</ele>
        <time>2021-09-05T09:34:06Z</time>
      </trkpt>
      <trkpt lat="44.0623" lon="1.95516">
        <ele>223.4</ele>
        <time>2021-09-05T09:34:07Z</time>
      </trkpt>
      <trkpt lat="44.0623" lon="1.95514">
        <ele>223.6</ele>
        <time>2021-09-05T09:34:08Z</time>
      </trkpt>
      <trkpt lat="44.0623" lon="1.95513">
        <ele>224</ele>
        <time>2021-09-05T09:34:09Z</time>
      </trkpt>
      <trkpt lat="44.06231" lon="1.95511">
        <ele>224.2</ele>
        <time>2021-09-05T09:34:10Z</time>
      </trkpt>
      <trkpt lat="44.0623" lon="1.9551">
        <ele>224.4</ele>
        <time>2021-09-05T09:34:11Z</time>
      </trkpt>
      <trkpt lat="44.0623" lon="1.95508">
        <ele>224.8</ele>
        <time>2021-09-05T09:34:12Z</time>
      </trkpt>
      <trkpt lat="44.06229" lon="1.95506">
        <ele>225</ele>
        <time>2021-09-05T09:34:13Z</time>
      </trkpt>
      <trkpt lat="44.06228" lon="1.95504">
        <ele>225.4</ele>
        <time>2021-09-05T09:34:14Z</time>
      </trkpt>
      <trkpt lat="44.06229" lon="1.95501">
        <ele>225.6</ele>
        <time>2021-09-05T09:34:15Z</time>
      </trkpt>
      <trkpt lat="44.06229" lon="1.95499">
        <ele>226</ele>
        <time>2021-09-05T09:34:16Z</time>
      </trkpt>
      <trkpt lat="44.0623" lon="1.95497">
        <ele>226</ele>
        <time>2021-09-05T09:34:17Z</time>
      </trkpt>
      <trkpt lat="44.0623" lon="1.95494">
        <ele>226.2</ele>
        <time>2021-09-05T09:34:18Z</time>
      </trkpt>
      <trkpt lat="44.06231" lon="1.95492">
        <ele>226.6</ele>
        <time>2021-09-05T09:34:19Z</time>
      </trkpt>
      <trkpt lat="44.06231" lon="1.95491">
        <ele>226.6</ele>
        <time>2021-09-05T09:34:20Z</time>
      </trkpt>
      <trkpt lat="44.06232" lon="1.95488">
        <ele>227</ele>
        <time>2021-09-05T09:34:21Z</time>
      </trkpt>
      <trkpt lat="44.06232" lon="1.95486">
        <ele>227.2</ele>
        <time>2021-09-05T09:34:22Z</time>
      </trkpt>
      <trkpt lat="44.06233" lon="1.95483">
        <ele>227.6</ele>
        <time>2021-09-05T09:34:23Z</time>
      </trkpt>
      <trkpt lat="44.06233" lon="1.95481">
        <ele>227.6</ele>
        <time>2021-09-05T09:34:24Z</time>
      </trkpt>
      <trkpt lat="44.06234" lon="1.95479">
        <ele>227.8</ele>
        <time>2021-09-05T09:34:25Z</time>
      </trkpt>
      <trkpt lat="44.06235" lon="1.95477">
        <ele>228</ele>
        <time>2021-09-05T09:34:26Z</time>
      </trkpt>
      <trkpt lat="44.06235" lon="1.95475">
        <ele>228</ele>
        <time>2021-09-05T09:34:27Z</time>
      </trkpt>
      <trkpt lat="44.06235" lon="1.95473">
        <ele>228.4</ele>
        <time>2021-09-05T09:34:28Z</time>
      </trkpt>
      <trkpt lat="44.06236" lon="1.95471">
        <ele>228.8</ele>
        <time>2021-09-05T09:34:29Z</time>
      </trkpt>
      <trkpt lat="44.06236" lon="1.95468">
        <ele>229.2</ele>
        <time>2021-09-05T09:34:30Z</time>
      </trkpt>
      <trkpt lat="44.06235" lon="1.95466">
        <ele>229.2</ele>
        <time>2021-09-05T09:34:31Z</time>
      </trkpt>
      <trkpt lat="44.06234" lon="1.95463">
        <ele>229.4</ele>
        <time>2021-09-05T09:34:32Z</time>
      </trkpt>
      <trkpt lat="44.06234" lon="1.9546">
        <ele>229.4</ele>
        <time>2021-09-05T09:34:33Z</time>
      </trkpt>
      <trkpt lat="44.06234" lon="1.95458">
        <ele>229.4</ele>
        <time>2021-09-05T09:34:34Z</time>
      </trkpt>
      <trkpt lat="44.06234" lon="1.95456">
        <ele>229.6</ele>
        <time>2021-09-05T09:34:35Z</time>
      </trkpt>
      <trkpt lat="44.06235" lon="1.95454">
        <ele>229.8</ele>
        <time>2021-09-05T09:34:36Z</time>
      </trkpt>
      <trkpt lat="44.06234" lon="1.95452">
        <ele>229.8</ele>
        <time>2021-09-05T09:34:37Z</time>
      </trkpt>
      <trkpt lat="44.06234" lon="1.9545">
        <ele>230</ele>
        <time>2021-09-05T09:34:38Z</time>
      </trkpt>
      <trkpt lat="44.06233" lon="1.95447">
        <ele>230.2</ele>
        <time>2021-09-05T09:34:39Z</time>
      </trkpt>
      <trkpt lat="44.06232" lon="1.95445">
        <ele>230.2</ele>
        <time>2021-09-05T09:34:40Z</time>
      </trkpt>
      <trkpt lat="44.06232" lon="1.95443">
        <ele>230.6</ele>
        <time>2021-09-05T09:34:41Z</time>
      </trkpt>
      <trkpt lat="44.06231" lon="1.9544">
        <ele>230.8</ele>
        <time>2021-09-05T09:34:42Z</time>
      </trkpt>
      <trkpt lat="44.06231" lon="1.95438">
        <ele>230.8</ele>
        <time>2021-09-05T09:34:43Z</time>
      </trkpt>
      <trkpt lat="44.0623" lon="1.95437">
        <ele>230.8</ele>
        <time>2021-09-05T09:34:44Z</time>
      </trkpt>
      <trkpt lat="44.0623" lon="1.95435">
        <ele>231</ele>
        <time>2021-09-05T09:34:45Z</time>
      </trkpt>
      <trkpt lat="44.06231" lon="1.95434">
        <ele>231.2</ele>
        <time>2021-09-05T09:34:46Z</time>
      </trkpt>
      <trkpt lat="44.06232" lon="1.95432">
        <ele>231.2</ele>
        <time>2021-09-05T09:34:47Z</time>
      </trkpt>
      <trkpt lat="44.06232" lon="1.9543">
        <ele>231.4</ele>
        <time>2021-09-05T09:34:48Z</time>
      </trkpt>
      <trkpt lat="44.06232" lon="1.95428">
        <ele>231.6</ele>
        <time>2021-09-05T09:34:49Z</time>
      </trkpt>
      <trkpt lat="44.06231" lon="1.95425">
        <ele>231.6</ele>
        <time>2021-09-05T09:34:50Z</time>
      </trkpt>
      <trkpt lat="44.0623" lon="1.95423">
        <ele>231.8</ele>
        <time>2021-09-05T09:34:51Z</time>
      </trkpt>
      <trkpt lat="44.0623" lon="1.95421">
        <ele>231.8</ele>
        <time>2021-09-05T09:34:52Z</time>
      </trkpt>
      <trkpt lat="44.0623" lon="1.9542">
        <ele>232</ele>
        <time>2021-09-05T09:34:53Z</time>
      </trkpt>
      <trkpt lat="44.0623" lon="1.95418">
        <ele>232</ele>
        <time>2021-09-05T09:34:54Z</time>
      </trkpt>
      <trkpt lat="44.06231" lon="1.95417">
        <ele>232.2</ele>
        <time>2021-09-05T09:34:55Z</time>
      </trkpt>
      <trkpt lat="44.06232" lon="1.95416">
        <ele>232.2</ele>
        <time>2021-09-05T09:34:56Z</time>
      </trkpt>
      <trkpt lat="44.06234" lon="1.95415">
        <ele>232.4</ele>
        <time>2021-09-05T09:34:57Z</time>
      </trkpt>
      <trkpt lat="44.06235" lon="1.95414">
        <ele>232.4</ele>
        <time>2021-09-05T09:34:58Z</time>
      </trkpt>
      <trkpt lat="44.06236" lon="1.95413">
        <ele>232.6</ele>
        <time>2021-09-05T09:34:59Z</time>
      </trkpt>
      <trkpt lat="44.06237" lon="1.9541">
        <ele>232.8</ele>
        <time>2021-09-05T09:35:00Z</time>
      </trkpt>
      <trkpt lat="44.06238" lon="1.9541">
        <ele>232.8</ele>
        <time>2021-09-05T09:35:01Z</time>
      </trkpt>
      <trkpt lat="44.06238" lon="1.9541">
        <ele>233.4</ele>
        <time>2021-09-05T09:35:02Z</time>
      </trkpt>
      <trkpt lat="44.06238" lon="1.95408">
        <ele>233.8</ele>
        <time>2021-09-05T09:35:03Z</time>
      </trkpt>
      <trkpt lat="44.06239" lon="1.95406">
        <ele>234.6</ele>
        <time>2021-09-05T09:35:04Z</time>
      </trkpt>
      <trkpt lat="44.0624" lon="1.95403">
        <ele>235.2</ele>
        <time>2021-09-05T09:35:05Z</time>
      </trkpt>
      <trkpt lat="44.0624" lon="1.95401">
        <ele>235.4</ele>
        <time>2021-09-05T09:35:06Z</time>
      </trkpt>
      <trkpt lat="44.0624" lon="1.95398">
        <ele>236</ele>
        <time>2021-09-05T09:35:07Z</time>
      </trkpt>
      <trkpt lat="44.0624" lon="1.95395">
        <ele>236.6</ele>
        <time>2021-09-05T09:35:08Z</time>
      </trkpt>
      <trkpt lat="44.0624" lon="1.95392">
        <ele>237.4</ele>
        <time>2021-09-05T09:35:09Z</time>
      </trkpt>
      <trkpt lat="44.0624" lon="1.95389">
        <ele>237.6</ele>
        <time>2021-09-05T09:35:10Z</time>
      </trkpt>
      <trkpt lat="44.0624" lon="1.95388">
        <ele>238</ele>
        <time>2021-09-05T09:35:11Z</time>
      </trkpt>
      <trkpt lat="44.0624" lon="1.95385">
        <ele>238.2</ele>
        <time>2021-09-05T09:35:12Z</time>
      </trkpt>
      <trkpt lat="44.06239" lon="1.95383">
        <ele>238.8</ele>
        <time>2021-09-05T09:35:13Z</time>
      </trkpt>
      <trkpt lat="44.06239" lon="1.95381">
        <ele>239.4</ele>
        <time>2021-09-05T09:35:14Z</time>
      </trkpt>
      <trkpt lat="44.06238" lon="1.95378">
        <ele>239.6</ele>
        <time>2021-09-05T09:35:15Z</time>
      </trkpt>
      <trkpt lat="44.06238" lon="1.95373">
        <ele>240.2</ele>
        <time>2021-09-05T09:35:46Z</time>
      </trkpt>
      <trkpt lat="44.06236" lon="1.9536">
        <ele>240.2</ele>
        <time>2021-09-05T09:35:49Z</time>
      </trkpt>
      <trkpt lat="44.06234" lon="1.95354">
        <ele>240</ele>
        <time>2021-09-05T09:35:50Z</time>
      </trkpt>
      <trkpt lat="44.0623" lon="1.95332">
        <ele>239.2</ele>
        <time>2021-09-05T09:35:54Z</time>
      </trkpt>
      <trkpt lat="44.06228" lon="1.95314">
        <ele>238.6</ele>
        <time>2021-09-05T09:35:57Z</time>
      </trkpt>
      <trkpt lat="44.06227" lon="1.95302">
        <ele>238</ele>
        <time>2021-09-05T09:35:59Z</time>
      </trkpt>
      <trkpt lat="44.06226" lon="1.95295">
        <ele>237.6</ele>
        <time>2021-09-05T09:36:00Z</time>
      </trkpt>
      <trkpt lat="44.06226" lon="1.9529">
        <ele>237.4</ele>
        <time>2021-09-05T09:36:01Z</time>
      </trkpt>
      <trkpt lat="44.06226" lon="1.95286">
        <ele>237.2</ele>
        <time>2021-09-05T09:36:02Z</time>
      </trkpt>
      <trkpt lat="44.06226" lon="1.95284">
        <ele>237.2</ele>
        <time>2021-09-05T09:36:03Z</time>
      </trkpt>
      <trkpt lat="44.06227" lon="1.95282">
        <ele>237.2</ele>
        <time>2021-09-05T09:36:04Z</time>
      </trkpt>
      <trkpt lat="44.06227" lon="1.9528">
        <ele>237.2</ele>
        <time>2021-09-05T09:36:05Z</time>
      </trkpt>
      <trkpt lat="44.06227" lon="1.95277">
        <ele>237.2</ele>
        <time>2021-09-05T09:36:06Z</time>
      </trkpt>
      <trkpt lat="44.06227" lon="1.95275">
        <ele>237</ele>
        <time>2021-09-05T09:36:07Z</time>
      </trkpt>
      <trkpt lat="44.06228" lon="1.95272">
        <ele>237</ele>
        <time>2021-09-05T09:36:08Z</time>
      </trkpt>
      <trkpt lat="44.06228" lon="1.9527">
        <ele>237.2</ele>
        <time>2021-09-05T09:36:09Z</time>
      </trkpt>
      <trkpt lat="44.06229" lon="1.95261">
        <ele>237.8</ele>
        <time>2021-09-05T09:36:13Z</time>
      </trkpt>
      <trkpt lat="44.06231" lon="1.95257">
        <ele>238.2</ele>
        <time>2021-09-05T09:36:15Z</time>
      </trkpt>
      <trkpt lat="44.06231" lon="1.95255">
        <ele>238.4</ele>
        <time>2021-09-05T09:36:16Z</time>
      </trkpt>
      <trkpt lat="44.06231" lon="1.95251">
        <ele>238.8</ele>
        <time>2021-09-05T09:36:18Z</time>
      </trkpt>
      <trkpt lat="44.06231" lon="1.95246">
        <ele>239.4</ele>
        <time>2021-09-05T09:36:20Z</time>
      </trkpt>
      <trkpt lat="44.06231" lon="1.95244">
        <ele>239.6</ele>
        <time>2021-09-05T09:36:21Z</time>
      </trkpt>
      <trkpt lat="44.06233" lon="1.95236">
        <ele>240</ele>
        <time>2021-09-05T09:36:24Z</time>
      </trkpt>
      <trkpt lat="44.06233" lon="1.95231">
        <ele>240.2</ele>
        <time>2021-09-05T09:36:26Z</time>
      </trkpt>
      <trkpt lat="44.06231" lon="1.95226">
        <ele>240.2</ele>
        <time>2021-09-05T09:36:28Z</time>
      </trkpt>
      <trkpt lat="44.06231" lon="1.95224">
        <ele>240.6</ele>
        <time>2021-09-05T09:36:29Z</time>
      </trkpt>
      <trkpt lat="44.06231" lon="1.95222">
        <ele>240.6</ele>
        <time>2021-09-05T09:36:30Z</time>
      </trkpt>
      <trkpt lat="44.06231" lon="1.95219">
        <ele>240.8</ele>
        <time>2021-09-05T09:36:31Z</time>
      </trkpt>
      <trkpt lat="44.06231" lon="1.95216">
        <ele>240.8</ele>
        <time>2021-09-05T09:36:32Z</time>
      </trkpt>
      <trkpt lat="44.0623" lon="1.95213">
        <ele>240.8</ele>
        <time>2021-09-05T09:36:33Z</time>
      </trkpt>
      <trkpt lat="44.0623" lon="1.95209">
        <ele>241</ele>
        <time>2021-09-05T09:36:34Z</time>
      </trkpt>
      <trkpt lat="44.06229" lon="1.95205">
        <ele>241</ele>
        <time>2021-09-05T09:36:35Z</time>
      </trkpt>
      <trkpt lat="44.0623" lon="1.95201">
        <ele>241</ele>
        <time>2021-09-05T09:36:36Z</time>
      </trkpt>
      <trkpt lat="44.0623" lon="1.95195">
        <ele>241</ele>
        <time>2021-09-05T09:36:37Z</time>
      </trkpt>
      <trkpt lat="44.0623" lon="1.95189">
        <ele>240.8</ele>
        <time>2021-09-05T09:36:38Z</time>
      </trkpt>
      <trkpt lat="44.0623" lon="1.95182">
        <ele>240.8</ele>
        <time>2021-09-05T09:36:39Z</time>
      </trkpt>
      <trkpt lat="44.06229" lon="1.95175">
        <ele>240.6</ele>
        <time>2021-09-05T09:36:40Z</time>
      </trkpt>
      <trkpt lat="44.06229" lon="1.95166">
        <ele>240.2</ele>
        <time>2021-09-05T09:36:41Z</time>
      </trkpt>
      <trkpt lat="44.06228" lon="1.95158">
        <ele>240.2</ele>
        <time>2021-09-05T09:36:42Z</time>
      </trkpt>
      <trkpt lat="44.06226" lon="1.95139">
        <ele>239.4</ele>
        <time>2021-09-05T09:36:44Z</time>
      </trkpt>
      <trkpt lat="44.06225" lon="1.9513">
        <ele>238.6</ele>
        <time>2021-09-05T09:36:45Z</time>
      </trkpt>
      <trkpt lat="44.06224" lon="1.95122">
        <ele>238.4</ele>
        <time>2021-09-05T09:36:46Z</time>
      </trkpt>
      <trkpt lat="44.06223" lon="1.95116">
        <ele>237.8</ele>
        <time>2021-09-05T09:36:47Z</time>
      </trkpt>
      <trkpt lat="44.06223" lon="1.95111">
        <ele>236.6</ele>
        <time>2021-09-05T09:36:48Z</time>
      </trkpt>
      <trkpt lat="44.06223" lon="1.95106">
        <ele>236.2</ele>
        <time>2021-09-05T09:36:49Z</time>
      </trkpt>
      <trkpt lat="44.06223" lon="1.95101">
        <ele>235.4</ele>
        <time>2021-09-05T09:36:50Z</time>
      </trkpt>
      <trkpt lat="44.06224" lon="1.9509">
        <ele>234.4</ele>
        <time>2021-09-05T09:36:52Z</time>
      </trkpt>
      <trkpt lat="44.06224" lon="1.95084">
        <ele>234.2</ele>
        <time>2021-09-05T09:36:53Z</time>
      </trkpt>
      <trkpt lat="44.06225" lon="1.95078">
        <ele>233.8</ele>
        <time>2021-09-05T09:36:54Z</time>
      </trkpt>
      <trkpt lat="44.06227" lon="1.95072">
        <ele>233.2</ele>
        <time>2021-09-05T09:36:55Z</time>
      </trkpt>
      <trkpt lat="44.06228" lon="1.95068">
        <ele>233</ele>
        <time>2021-09-05T09:36:56Z</time>
      </trkpt>
      <trkpt lat="44.0623" lon="1.95063">
        <ele>232.4</ele>
        <time>2021-09-05T09:36:57Z</time>
      </trkpt>
      <trkpt lat="44.06231" lon="1.95058">
        <ele>232.2</ele>
        <time>2021-09-05T09:36:58Z</time>
      </trkpt>
      <trkpt lat="44.06233" lon="1.95054">
        <ele>231.6</ele>
        <time>2021-09-05T09:36:59Z</time>
      </trkpt>
      <trkpt lat="44.06237" lon="1.95044">
        <ele>230.8</ele>
        <time>2021-09-05T09:37:01Z</time>
      </trkpt>
      <trkpt lat="44.06241" lon="1.95033">
        <ele>230.2</ele>
        <time>2021-09-05T09:37:03Z</time>
      </trkpt>
      <trkpt lat="44.06243" lon="1.95028">
        <ele>230</ele>
        <time>2021-09-05T09:37:04Z</time>
      </trkpt>
      <trkpt lat="44.06244" lon="1.95022">
        <ele>229.8</ele>
        <time>2021-09-05T09:37:05Z</time>
      </trkpt>
      <trkpt lat="44.06245" lon="1.95016">
        <ele>229.2</ele>
        <time>2021-09-05T09:37:06Z</time>
      </trkpt>
      <trkpt lat="44.06246" lon="1.9501">
        <ele>229</ele>
        <time>2021-09-05T09:37:07Z</time>
      </trkpt>
      <trkpt lat="44.06248" lon="1.94998">
        <ele>228.2</ele>
        <time>2021-09-05T09:37:09Z</time>
      </trkpt>
      <trkpt lat="44.06249" lon="1.94992">
        <ele>227.8</ele>
        <time>2021-09-05T09:37:10Z</time>
      </trkpt>
      <trkpt lat="44.0625" lon="1.94986">
        <ele>227.6</ele>
        <time>2021-09-05T09:37:11Z</time>
      </trkpt>
      <trkpt lat="44.0625" lon="1.94979">
        <ele>227.4</ele>
        <time>2021-09-05T09:37:12Z</time>
      </trkpt>
      <trkpt lat="44.0625" lon="1.94965">
        <ele>226.6</ele>
        <time>2021-09-05T09:37:14Z</time>
      </trkpt>
      <trkpt lat="44.0625" lon="1.94957">
        <ele>226.2</ele>
        <time>2021-09-05T09:37:15Z</time>
      </trkpt>
      <trkpt lat="44.06249" lon="1.9495">
        <ele>226.2</ele>
        <time>2021-09-05T09:37:16Z</time>
      </trkpt>
      <trkpt lat="44.06246" lon="1.94936">
        <ele>226</ele>
        <time>2021-09-05T09:37:18Z</time>
      </trkpt>
      <trkpt lat="44.06242" lon="1.94906">
        <ele>225.4</ele>
        <time>2021-09-05T09:37:21Z</time>
      </trkpt>
      <trkpt lat="44.0624" lon="1.94895">
        <ele>225</ele>
        <time>2021-09-05T09:37:22Z</time>
      </trkpt>
      <trkpt lat="44.06239" lon="1.94884">
        <ele>224.8</ele>
        <time>2021-09-05T09:37:23Z</time>
      </trkpt>
      <trkpt lat="44.06239" lon="1.94874">
        <ele>223.8</ele>
        <time>2021-09-05T09:37:24Z</time>
      </trkpt>
      <trkpt lat="44.06239" lon="1.94864">
        <ele>223.4</ele>
        <time>2021-09-05T09:37:25Z</time>
      </trkpt>
      <trkpt lat="44.0624" lon="1.94854">
        <ele>222.8</ele>
        <time>2021-09-05T09:37:26Z</time>
      </trkpt>
      <trkpt lat="44.06241" lon="1.94845">
        <ele>222.2</ele>
        <time>2021-09-05T09:37:27Z</time>
      </trkpt>
      <trkpt lat="44.06243" lon="1.94837">
        <ele>221.8</ele>
        <time>2021-09-05T09:37:28Z</time>
      </trkpt>
      <trkpt lat="44.06244" lon="1.9483">
        <ele>220.8</ele>
        <time>2021-09-05T09:37:29Z</time>
      </trkpt>
      <trkpt lat="44.06248" lon="1.94814">
        <ele>219</ele>
        <time>2021-09-05T09:37:31Z</time>
      </trkpt>
      <trkpt lat="44.0625" lon="1.94807">
        <ele>218.4</ele>
        <time>2021-09-05T09:37:32Z</time>
      </trkpt>
      <trkpt lat="44.06252" lon="1.948">
        <ele>217.4</ele>
        <time>2021-09-05T09:37:33Z</time>
      </trkpt>
      <trkpt lat="44.06254" lon="1.94794">
        <ele>216.2</ele>
        <time>2021-09-05T09:37:34Z</time>
      </trkpt>
      <trkpt lat="44.06255" lon="1.94789">
        <ele>215.6</ele>
        <time>2021-09-05T09:37:35Z</time>
      </trkpt>
      <trkpt lat="44.06257" lon="1.94783">
        <ele>215</ele>
        <time>2021-09-05T09:37:36Z</time>
      </trkpt>
      <trkpt lat="44.06261" lon="1.9477">
        <ele>213.6</ele>
        <time>2021-09-05T09:37:38Z</time>
      </trkpt>
      <trkpt lat="44.06266" lon="1.94748">
        <ele>212.2</ele>
        <time>2021-09-05T09:37:41Z</time>
      </trkpt>
      <trkpt lat="44.06268" lon="1.94742">
        <ele>211.6</ele>
        <time>2021-09-05T09:37:42Z</time>
      </trkpt>
      <trkpt lat="44.0627" lon="1.94735">
        <ele>211</ele>
        <time>2021-09-05T09:37:43Z</time>
      </trkpt>
      <trkpt lat="44.06272" lon="1.9473">
        <ele>210.8</ele>
        <time>2021-09-05T09:37:44Z</time>
      </trkpt>
      <trkpt lat="44.06275" lon="1.94725">
        <ele>210.6</ele>
        <time>2021-09-05T09:37:45Z</time>
      </trkpt>
      <trkpt lat="44.06279" lon="1.94722">
        <ele>210.6</ele>
        <time>2021-09-05T09:37:46Z</time>
      </trkpt>
      <trkpt lat="44.06281" lon="1.94718">
        <ele>210.6</ele>
        <time>2021-09-05T09:37:47Z</time>
      </trkpt>
      <trkpt lat="44.06284" lon="1.94715">
        <ele>210.4</ele>
        <time>2021-09-05T09:37:48Z</time>
      </trkpt>
      <trkpt lat="44.06286" lon="1.94714">
        <ele>210.4</ele>
        <time>2021-09-05T09:37:49Z</time>
      </trkpt>
      <trkpt lat="44.06287" lon="1.94712">
        <ele>210.4</ele>
        <time>2021-09-05T09:37:50Z</time>
      </trkpt>
      <trkpt lat="44.06289" lon="1.94711">
        <ele>210.6</ele>
        <time>2021-09-05T09:37:51Z</time>
      </trkpt>
      <trkpt lat="44.063" lon="1.94704">
        <ele>211</ele>
        <time>2021-09-05T09:37:56Z</time>
      </trkpt>
      <trkpt lat="44.06302" lon="1.94702">
        <ele>211.4</ele>
        <time>2021-09-05T09:37:57Z</time>
      </trkpt>
      <trkpt lat="44.06304" lon="1.94701">
        <ele>211.6</ele>
        <time>2021-09-05T09:37:58Z</time>
      </trkpt>
      <trkpt lat="44.06307" lon="1.94701">
        <ele>211.8</ele>
        <time>2021-09-05T09:37:59Z</time>
      </trkpt>
      <trkpt lat="44.06312" lon="1.94699">
        <ele>212.4</ele>
        <time>2021-09-05T09:38:01Z</time>
      </trkpt>
      <trkpt lat="44.06314" lon="1.94698">
        <ele>212.6</ele>
        <time>2021-09-05T09:38:02Z</time>
      </trkpt>
      <trkpt lat="44.06319" lon="1.94698">
        <ele>213</ele>
        <time>2021-09-05T09:38:04Z</time>
      </trkpt>
      <trkpt lat="44.06324" lon="1.94699">
        <ele>213.6</ele>
        <time>2021-09-05T09:38:06Z</time>
      </trkpt>
      <trkpt lat="44.06326" lon="1.947">
        <ele>213.8</ele>
        <time>2021-09-05T09:38:07Z</time>
      </trkpt>
      <trkpt lat="44.06329" lon="1.94702">
        <ele>214.2</ele>
        <time>2021-09-05T09:38:08Z</time>
      </trkpt>
      <trkpt lat="44.06331" lon="1.94703">
        <ele>214.4</ele>
        <time>2021-09-05T09:38:09Z</time>
      </trkpt>
      <trkpt lat="44.06332" lon="1.94704">
        <ele>214.6</ele>
        <time>2021-09-05T09:38:10Z</time>
      </trkpt>
      <trkpt lat="44.06334" lon="1.94705">
        <ele>214.8</ele>
        <time>2021-09-05T09:38:11Z</time>
      </trkpt>
      <trkpt lat="44.06337" lon="1.94707">
        <ele>215.2</ele>
        <time>2021-09-05T09:38:13Z</time>
      </trkpt>
      <trkpt lat="44.06342" lon="1.9471">
        <ele>215.8</ele>
        <time>2021-09-05T09:38:16Z</time>
      </trkpt>
      <trkpt lat="44.06344" lon="1.94711">
        <ele>216</ele>
        <time>2021-09-05T09:38:17Z</time>
      </trkpt>
      <trkpt lat="44.06346" lon="1.94711">
        <ele>216.2</ele>
        <time>2021-09-05T09:38:18Z</time>
      </trkpt>
      <trkpt lat="44.06347" lon="1.94712">
        <ele>216.4</ele>
        <time>2021-09-05T09:38:19Z</time>
      </trkpt>
      <trkpt lat="44.06348" lon="1.94712">
        <ele>216.6</ele>
        <time>2021-09-05T09:38:20Z</time>
      </trkpt>
      <trkpt lat="44.0635" lon="1.94712">
        <ele>216.8</ele>
        <time>2021-09-05T09:38:21Z</time>
      </trkpt>
      <trkpt lat="44.06351" lon="1.94712">
        <ele>216.8</ele>
        <time>2021-09-05T09:38:22Z</time>
      </trkpt>
      <trkpt lat="44.06352" lon="1.94712">
        <ele>217</ele>
        <time>2021-09-05T09:38:23Z</time>
      </trkpt>
      <trkpt lat="44.06352" lon="1.94713">
        <ele>217</ele>
        <time>2021-09-05T09:38:24Z</time>
      </trkpt>
      <trkpt lat="44.06353" lon="1.94713">
        <ele>217.2</ele>
        <time>2021-09-05T09:38:27Z</time>
      </trkpt>
      <trkpt lat="44.06353" lon="1.94713">
        <ele>217.2</ele>
        <time>2021-09-05T09:38:28Z</time>
      </trkpt>
      <trkpt lat="44.06353" lon="1.94713">
        <ele>217.2</ele>
        <time>2021-09-05T09:38:29Z</time>
      </trkpt>
      <trkpt lat="44.06354" lon="1.94714">
        <ele>217.2</ele>
        <time>2021-09-05T09:38:30Z</time>
      </trkpt>
      <trkpt lat="44.06354" lon="1.94714">
        <ele>217.4</ele>
        <time>2021-09-05T09:38:39Z</time>
      </trkpt>
      <trkpt lat="44.06354" lon="1.94714">
        <ele>217.4</ele>
        <time>2021-09-05T09:38:40Z</time>
      </trkpt>
      <trkpt lat="44.06351" lon="1.94712">
        <ele>217.4</ele>
        <time>2021-09-05T09:38:41Z</time>
      </trkpt>
      <trkpt lat="44.06348" lon="1.94709">
        <ele>217.2</ele>
        <time>2021-09-05T09:38:42Z</time>
      </trkpt>
      <trkpt lat="44.06342" lon="1.947">
        <ele>216.8</ele>
        <time>2021-09-05T09:38:44Z</time>
      </trkpt>
      <trkpt lat="44.06336" lon="1.94689">
        <ele>216</ele>
        <time>2021-09-05T09:38:46Z</time>
      </trkpt>
      <trkpt lat="44.06334" lon="1.94684">
        <ele>215.4</ele>
        <time>2021-09-05T09:38:47Z</time>
      </trkpt>
      <trkpt lat="44.06333" lon="1.94673">
        <ele>214.4</ele>
        <time>2021-09-05T09:38:49Z</time>
      </trkpt>
      <trkpt lat="44.06333" lon="1.94666">
        <ele>213.8</ele>
        <time>2021-09-05T09:38:50Z</time>
      </trkpt>
      <trkpt lat="44.06333" lon="1.94657">
        <ele>212.8</ele>
        <time>2021-09-05T09:38:51Z</time>
      </trkpt>
      <trkpt lat="44.06332" lon="1.94646">
        <ele>211.4</ele>
        <time>2021-09-05T09:38:52Z</time>
      </trkpt>
      <trkpt lat="44.06332" lon="1.94635">
        <ele>210.6</ele>
        <time>2021-09-05T09:38:53Z</time>
      </trkpt>
      <trkpt lat="44.06333" lon="1.94625">
        <ele>209.4</ele>
        <time>2021-09-05T09:38:54Z</time>
      </trkpt>
      <trkpt lat="44.06334" lon="1.94615">
        <ele>208.8</ele>
        <time>2021-09-05T09:38:55Z</time>
      </trkpt>
      <trkpt lat="44.06335" lon="1.94607">
        <ele>208</ele>
        <time>2021-09-05T09:38:56Z</time>
      </trkpt>
      <trkpt lat="44.06335" lon="1.94599">
        <ele>206.6</ele>
        <time>2021-09-05T09:38:57Z</time>
      </trkpt>
      <trkpt lat="44.06335" lon="1.94591">
        <ele>204</ele>
        <time>2021-09-05T09:38:58Z</time>
      </trkpt>
      <trkpt lat="44.06335" lon="1.94573">
        <ele>201</ele>
        <time>2021-09-05T09:39:00Z</time>
      </trkpt>
      <trkpt lat="44.06334" lon="1.94564">
        <ele>200</ele>
        <time>2021-09-05T09:39:01Z</time>
      </trkpt>
      <trkpt lat="44.06333" lon="1.94555">
        <ele>199.6</ele>
        <time>2021-09-05T09:39:02Z</time>
      </trkpt>
      <trkpt lat="44.06332" lon="1.94547">
        <ele>198.6</ele>
        <time>2021-09-05T09:39:03Z</time>
      </trkpt>
      <trkpt lat="44.06327" lon="1.94527">
        <ele>196.6</ele>
        <time>2021-09-05T09:39:05Z</time>
      </trkpt>
      <trkpt lat="44.06325" lon="1.94518">
        <ele>195.6</ele>
        <time>2021-09-05T09:39:06Z</time>
      </trkpt>
      <trkpt lat="44.06324" lon="1.9451">
        <ele>194</ele>
        <time>2021-09-05T09:39:07Z</time>
      </trkpt>
      <trkpt lat="44.06323" lon="1.94504">
        <ele>193</ele>
        <time>2021-09-05T09:39:08Z</time>
      </trkpt>
      <trkpt lat="44.06322" lon="1.94499">
        <ele>192.4</ele>
        <time>2021-09-05T09:39:09Z</time>
      </trkpt>
      <trkpt lat="44.06321" lon="1.94495">
        <ele>190</ele>
        <time>2021-09-05T09:39:10Z</time>
      </trkpt>
      <trkpt lat="44.06321" lon="1.94492">
        <ele>189.2</ele>
        <time>2021-09-05T09:39:11Z</time>
      </trkpt>
      <trkpt lat="44.0632" lon="1.94489">
        <ele>187.2</ele>
        <time>2021-09-05T09:39:12Z</time>
      </trkpt>
      <trkpt lat="44.06319" lon="1.94486">
        <ele>186.4</ele>
        <time>2021-09-05T09:39:13Z</time>
      </trkpt>
      <trkpt lat="44.06319" lon="1.94484">
        <ele>185.2</ele>
        <time>2021-09-05T09:39:14Z</time>
      </trkpt>
      <trkpt lat="44.06317" lon="1.94481">
        <ele>184.4</ele>
        <time>2021-09-05T09:39:15Z</time>
      </trkpt>
      <trkpt lat="44.06316" lon="1.94477">
        <ele>183.6</ele>
        <time>2021-09-05T09:39:16Z</time>
      </trkpt>
      <trkpt lat="44.06309" lon="1.94465">
        <ele>182</ele>
        <time>2021-09-05T09:39:19Z</time>
      </trkpt>
      <trkpt lat="44.06309" lon="1.94461">
        <ele>181.8</ele>
        <time>2021-09-05T09:39:20Z</time>
      </trkpt>
      <trkpt lat="44.06309" lon="1.94457">
        <ele>180.8</ele>
        <time>2021-09-05T09:39:21Z</time>
      </trkpt>
      <trkpt lat="44.06309" lon="1.94453">
        <ele>180.2</ele>
        <time>2021-09-05T09:39:22Z</time>
      </trkpt>
      <trkpt lat="44.0631" lon="1.94449">
        <ele>179.4</ele>
        <time>2021-09-05T09:39:23Z</time>
      </trkpt>
      <trkpt lat="44.06309" lon="1.94443">
        <ele>178.4</ele>
        <time>2021-09-05T09:39:25Z</time>
      </trkpt>
      <trkpt lat="44.06308" lon="1.9444">
        <ele>177.6</ele>
        <time>2021-09-05T09:39:26Z</time>
      </trkpt>
      <trkpt lat="44.06306" lon="1.94437">
        <ele>177</ele>
        <time>2021-09-05T09:39:27Z</time>
      </trkpt>
      <trkpt lat="44.06304" lon="1.94434">
        <ele>175.6</ele>
        <time>2021-09-05T09:39:28Z</time>
      </trkpt>
      <trkpt lat="44.06302" lon="1.94431">
        <ele>175.2</ele>
        <time>2021-09-05T09:39:29Z</time>
      </trkpt>
      <trkpt lat="44.063" lon="1.94427">
        <ele>174.6</ele>
        <time>2021-09-05T09:39:30Z</time>
      </trkpt>
      <trkpt lat="44.06299" lon="1.94424">
        <ele>174.4</ele>
        <time>2021-09-05T09:39:31Z</time>
      </trkpt>
      <trkpt lat="44.06298" lon="1.9442">
        <ele>173.2</ele>
        <time>2021-09-05T09:39:32Z</time>
      </trkpt>
      <trkpt lat="44.06296" lon="1.94416">
        <ele>172</ele>
        <time>2021-09-05T09:39:33Z</time>
      </trkpt>
      <trkpt lat="44.06291" lon="1.94408">
        <ele>171.2</ele>
        <time>2021-09-05T09:39:35Z</time>
      </trkpt>
      <trkpt lat="44.06287" lon="1.94401">
        <ele>171</ele>
        <time>2021-09-05T09:39:36Z</time>
      </trkpt>
      <trkpt lat="44.06284" lon="1.94392">
        <ele>170.8</ele>
        <time>2021-09-05T09:39:37Z</time>
      </trkpt>
      <trkpt lat="44.06281" lon="1.94384">
        <ele>170.6</ele>
        <time>2021-09-05T09:39:38Z</time>
      </trkpt>
      <trkpt lat="44.0628" lon="1.94377">
        <ele>170.2</ele>
        <time>2021-09-05T09:39:39Z</time>
      </trkpt>
      <trkpt lat="44.0628" lon="1.94369">
        <ele>169.6</ele>
        <time>2021-09-05T09:39:40Z</time>
      </trkpt>
      <trkpt lat="44.06281" lon="1.94362">
        <ele>169.2</ele>
        <time>2021-09-05T09:39:41Z</time>
      </trkpt>
      <trkpt lat="44.06284" lon="1.94352">
        <ele>168.8</ele>
        <time>2021-09-05T09:39:42Z</time>
      </trkpt>
      <trkpt lat="44.06286" lon="1.94344">
        <ele>168.4</ele>
        <time>2021-09-05T09:39:43Z</time>
      </trkpt>
      <trkpt lat="44.06287" lon="1.94335">
        <ele>168</ele>
        <time>2021-09-05T09:39:44Z</time>
      </trkpt>
      <trkpt lat="44.06286" lon="1.94325">
        <ele>167.8</ele>
        <time>2021-09-05T09:39:45Z</time>
      </trkpt>
      <trkpt lat="44.06286" lon="1.94314">
        <ele>167.6</ele>
        <time>2021-09-05T09:39:46Z</time>
      </trkpt>
      <trkpt lat="44.06285" lon="1.94308">
        <ele>167.4</ele>
        <time>2021-09-05T09:39:47Z</time>
      </trkpt>
      <trkpt lat="44.06282" lon="1.94301">
        <ele>167</ele>
        <time>2021-09-05T09:39:48Z</time>
      </trkpt>
      <trkpt lat="44.06279" lon="1.94295">
        <ele>166.8</ele>
        <time>2021-09-05T09:39:49Z</time>
      </trkpt>
      <trkpt lat="44.06277" lon="1.94289">
        <ele>166.8</ele>
        <time>2021-09-05T09:39:50Z</time>
      </trkpt>
      <trkpt lat="44.06274" lon="1.94284">
        <ele>166.6</ele>
        <time>2021-09-05T09:39:51Z</time>
      </trkpt>
      <trkpt lat="44.06272" lon="1.94279">
        <ele>166.6</ele>
        <time>2021-09-05T09:39:52Z</time>
      </trkpt>
      <trkpt lat="44.06269" lon="1.94274">
        <ele>166.4</ele>
        <time>2021-09-05T09:39:53Z</time>
      </trkpt>
      <trkpt lat="44.06266" lon="1.94268">
        <ele>166.4</ele>
        <time>2021-09-05T09:39:54Z</time>
      </trkpt>
      <trkpt lat="44.06264" lon="1.94265">
        <ele>166.4</ele>
        <time>2021-09-05T09:39:55Z</time>
      </trkpt>
      <trkpt lat="44.06263" lon="1.94263">
        <ele>166.4</ele>
        <time>2021-09-05T09:39:56Z</time>
      </trkpt>
      <trkpt lat="44.06252" lon="1.94245">
        <ele>166.6</ele>
        <time>2021-09-05T09:40:01Z</time>
      </trkpt>
      <trkpt lat="44.0625" lon="1.94241">
        <ele>166.6</ele>
        <time>2021-09-05T09:40:02Z</time>
      </trkpt>
      <trkpt lat="44.06248" lon="1.94238">
        <ele>166.8</ele>
        <time>2021-09-05T09:40:03Z</time>
      </trkpt>
      <trkpt lat="44.06246" lon="1.94234">
        <ele>166.8</ele>
        <time>2021-09-05T09:40:04Z</time>
      </trkpt>
      <trkpt lat="44.06244" lon="1.9423">
        <ele>167</ele>
        <time>2021-09-05T09:40:05Z</time>
      </trkpt>
      <trkpt lat="44.06242" lon="1.94226">
        <ele>167</ele>
        <time>2021-09-05T09:40:06Z</time>
      </trkpt>
      <trkpt lat="44.0624" lon="1.94222">
        <ele>167</ele>
        <time>2021-09-05T09:40:07Z</time>
      </trkpt>
      <trkpt lat="44.06238" lon="1.94218">
        <ele>167.2</ele>
        <time>2021-09-05T09:40:08Z</time>
      </trkpt>
      <trkpt lat="44.06236" lon="1.94215">
        <ele>167.4</ele>
        <time>2021-09-05T09:40:09Z</time>
      </trkpt>
      <trkpt lat="44.06235" lon="1.94212">
        <ele>167.4</ele>
        <time>2021-09-05T09:40:10Z</time>
      </trkpt>
      <trkpt lat="44.06234" lon="1.9421">
        <ele>167.6</ele>
        <time>2021-09-05T09:40:11Z</time>
      </trkpt>
      <trkpt lat="44.06233" lon="1.94207">
        <ele>167.8</ele>
        <time>2021-09-05T09:40:12Z</time>
      </trkpt>
      <trkpt lat="44.06232" lon="1.94205">
        <ele>167.8</ele>
        <time>2021-09-05T09:40:13Z</time>
      </trkpt>
      <trkpt lat="44.06231" lon="1.94202">
        <ele>168</ele>
        <time>2021-09-05T09:40:14Z</time>
      </trkpt>
      <trkpt lat="44.06232" lon="1.94199">
        <ele>168.2</ele>
        <time>2021-09-05T09:40:15Z</time>
      </trkpt>
      <trkpt lat="44.06233" lon="1.94197">
        <ele>168.6</ele>
        <time>2021-09-05T09:40:16Z</time>
      </trkpt>
      <trkpt lat="44.06234" lon="1.94194">
        <ele>168.6</ele>
        <time>2021-09-05T09:40:17Z</time>
      </trkpt>
      <trkpt lat="44.06235" lon="1.94193">
        <ele>169</ele>
        <time>2021-09-05T09:40:18Z</time>
      </trkpt>
      <trkpt lat="44.06236" lon="1.94191">
        <ele>169</ele>
        <time>2021-09-05T09:40:19Z</time>
      </trkpt>
      <trkpt lat="44.06239" lon="1.94187">
        <ele>169.6</ele>
        <time>2021-09-05T09:40:21Z</time>
      </trkpt>
      <trkpt lat="44.06248" lon="1.94175">
        <ele>170.4</ele>
        <time>2021-09-05T09:40:26Z</time>
      </trkpt>
      <trkpt lat="44.0625" lon="1.94172">
        <ele>170.6</ele>
        <time>2021-09-05T09:40:27Z</time>
      </trkpt>
      <trkpt lat="44.06254" lon="1.94169">
        <ele>170.6</ele>
        <time>2021-09-05T09:40:28Z</time>
      </trkpt>
      <trkpt lat="44.06258" lon="1.94166">
        <ele>170.4</ele>
        <time>2021-09-05T09:40:29Z</time>
      </trkpt>
      <trkpt lat="44.0626" lon="1.94163">
        <ele>170.4</ele>
        <time>2021-09-05T09:40:30Z</time>
      </trkpt>
      <trkpt lat="44.06262" lon="1.94161">
        <ele>170.4</ele>
        <time>2021-09-05T09:40:31Z</time>
      </trkpt>
      <trkpt lat="44.06264" lon="1.94158">
        <ele>170.4</ele>
        <time>2021-09-05T09:40:32Z</time>
      </trkpt>
      <trkpt lat="44.06267" lon="1.94156">
        <ele>170.4</ele>
        <time>2021-09-05T09:40:33Z</time>
      </trkpt>
      <trkpt lat="44.0627" lon="1.94154">
        <ele>170.4</ele>
        <time>2021-09-05T09:40:34Z</time>
      </trkpt>
      <trkpt lat="44.06273" lon="1.94151">
        <ele>170.2</ele>
        <time>2021-09-05T09:40:35Z</time>
      </trkpt>
      <trkpt lat="44.06276" lon="1.94148">
        <ele>170.2</ele>
        <time>2021-09-05T09:40:36Z</time>
      </trkpt>
      <trkpt lat="44.06279" lon="1.94144">
        <ele>170.2</ele>
        <time>2021-09-05T09:40:37Z</time>
      </trkpt>
      <trkpt lat="44.06282" lon="1.94141">
        <ele>170.2</ele>
        <time>2021-09-05T09:40:38Z</time>
      </trkpt>
      <trkpt lat="44.06286" lon="1.94138">
        <ele>170.2</ele>
        <time>2021-09-05T09:40:39Z</time>
      </trkpt>
      <trkpt lat="44.0629" lon="1.94134">
        <ele>170.2</ele>
        <time>2021-09-05T09:40:40Z</time>
      </trkpt>
      <trkpt lat="44.06293" lon="1.94131">
        <ele>170.2</ele>
        <time>2021-09-05T09:40:41Z</time>
      </trkpt>
      <trkpt lat="44.06295" lon="1.94128">
        <ele>170.2</ele>
        <time>2021-09-05T09:40:42Z</time>
      </trkpt>
      <trkpt lat="44.06298" lon="1.94125">
        <ele>170.2</ele>
        <time>2021-09-05T09:40:43Z</time>
      </trkpt>
      <trkpt lat="44.06299" lon="1.94121">
        <ele>170.2</ele>
        <time>2021-09-05T09:40:44Z</time>
      </trkpt>
      <trkpt lat="44.06299" lon="1.94115">
        <ele>170.2</ele>
        <time>2021-09-05T09:40:45Z</time>
      </trkpt>
      <trkpt lat="44.06299" lon="1.94109">
        <ele>170.2</ele>
        <time>2021-09-05T09:40:46Z</time>
      </trkpt>
      <trkpt lat="44.06299" lon="1.94107">
        <ele>170.2</ele>
        <time>2021-09-05T09:40:47Z</time>
      </trkpt>
      <trkpt lat="44.06299" lon="1.94104">
        <ele>170</ele>
        <time>2021-09-05T09:40:48Z</time>
      </trkpt>
      <trkpt lat="44.06297" lon="1.94091">
        <ele>170.2</ele>
        <time>2021-09-05T09:40:52Z</time>
      </trkpt>
      <trkpt lat="44.06297" lon="1.94088">
        <ele>170.2</ele>
        <time>2021-09-05T09:40:53Z</time>
      </trkpt>
      <trkpt lat="44.06295" lon="1.9408">
        <ele>170.4</ele>
        <time>2021-09-05T09:40:55Z</time>
      </trkpt>
      <trkpt lat="44.06293" lon="1.94073">
        <ele>170.6</ele>
        <time>2021-09-05T09:40:57Z</time>
      </trkpt>
      <trkpt lat="44.0629" lon="1.94064">
        <ele>171</ele>
        <time>2021-09-05T09:40:59Z</time>
      </trkpt>
      <trkpt lat="44.06288" lon="1.9406">
        <ele>171.2</ele>
        <time>2021-09-05T09:41:00Z</time>
      </trkpt>
      <trkpt lat="44.06284" lon="1.94047">
        <ele>171.6</ele>
        <time>2021-09-05T09:41:03Z</time>
      </trkpt>
      <trkpt lat="44.06278" lon="1.94036">
        <ele>171.6</ele>
        <time>2021-09-05T09:41:05Z</time>
      </trkpt>
      <trkpt lat="44.06274" lon="1.9403">
        <ele>171.6</ele>
        <time>2021-09-05T09:41:06Z</time>
      </trkpt>
      <trkpt lat="44.06272" lon="1.94021">
        <ele>172</ele>
        <time>2021-09-05T09:41:08Z</time>
      </trkpt>
      <trkpt lat="44.06272" lon="1.94017">
        <ele>172.2</ele>
        <time>2021-09-05T09:41:09Z</time>
      </trkpt>
      <trkpt lat="44.0627" lon="1.94013">
        <ele>172.4</ele>
        <time>2021-09-05T09:41:10Z</time>
      </trkpt>
      <trkpt lat="44.06265" lon="1.94">
        <ele>172.8</ele>
        <time>2021-09-05T09:41:12Z</time>
      </trkpt>
      <trkpt lat="44.06264" lon="1.93995">
        <ele>173</ele>
        <time>2021-09-05T09:41:13Z</time>
      </trkpt>
      <trkpt lat="44.06263" lon="1.9399">
        <ele>173.2</ele>
        <time>2021-09-05T09:41:14Z</time>
      </trkpt>
      <trkpt lat="44.0626" lon="1.93984">
        <ele>173.2</ele>
        <time>2021-09-05T09:41:15Z</time>
      </trkpt>
      <trkpt lat="44.0626" lon="1.9398">
        <ele>173.6</ele>
        <time>2021-09-05T09:41:16Z</time>
      </trkpt>
      <trkpt lat="44.06259" lon="1.93975">
        <ele>173.8</ele>
        <time>2021-09-05T09:41:17Z</time>
      </trkpt>
      <trkpt lat="44.0626" lon="1.93971">
        <ele>174</ele>
        <time>2021-09-05T09:41:18Z</time>
      </trkpt>
      <trkpt lat="44.0626" lon="1.93967">
        <ele>174.2</ele>
        <time>2021-09-05T09:41:19Z</time>
      </trkpt>
      <trkpt lat="44.06259" lon="1.93963">
        <ele>174.4</ele>
        <time>2021-09-05T09:41:20Z</time>
      </trkpt>
      <trkpt lat="44.06258" lon="1.93959">
        <ele>174.4</ele>
        <time>2021-09-05T09:41:21Z</time>
      </trkpt>
      <trkpt lat="44.06257" lon="1.93954">
        <ele>174.6</ele>
        <time>2021-09-05T09:41:22Z</time>
      </trkpt>
      <trkpt lat="44.06257" lon="1.93949">
        <ele>174.6</ele>
        <time>2021-09-05T09:41:23Z</time>
      </trkpt>
      <trkpt lat="44.06258" lon="1.93946">
        <ele>174.6</ele>
        <time>2021-09-05T09:41:24Z</time>
      </trkpt>
      <trkpt lat="44.06259" lon="1.93943">
        <ele>174.8</ele>
        <time>2021-09-05T09:41:25Z</time>
      </trkpt>
      <trkpt lat="44.0626" lon="1.9394">
        <ele>174.8</ele>
        <time>2021-09-05T09:41:26Z</time>
      </trkpt>
      <trkpt lat="44.06258" lon="1.93935">
        <ele>175</ele>
        <time>2021-09-05T09:41:27Z</time>
      </trkpt>
      <trkpt lat="44.06258" lon="1.93931">
        <ele>175</ele>
        <time>2021-09-05T09:41:28Z</time>
      </trkpt>
      <trkpt lat="44.06257" lon="1.93927">
        <ele>175.2</ele>
        <time>2021-09-05T09:41:29Z</time>
      </trkpt>
      <trkpt lat="44.06257" lon="1.93923">
        <ele>175.6</ele>
        <time>2021-09-05T09:41:30Z</time>
      </trkpt>
      <trkpt lat="44.06256" lon="1.93919">
        <ele>175.8</ele>
        <time>2021-09-05T09:41:31Z</time>
      </trkpt>
      <trkpt lat="44.06256" lon="1.93916">
        <ele>176</ele>
        <time>2021-09-05T09:41:32Z</time>
      </trkpt>
      <trkpt lat="44.06256" lon="1.93912">
        <ele>176.2</ele>
        <time>2021-09-05T09:41:33Z</time>
      </trkpt>
      <trkpt lat="44.06256" lon="1.93909">
        <ele>176.4</ele>
        <time>2021-09-05T09:41:34Z</time>
      </trkpt>
      <trkpt lat="44.06256" lon="1.93907">
        <ele>176.6</ele>
        <time>2021-09-05T09:41:35Z</time>
      </trkpt>
      <trkpt lat="44.06256" lon="1.93903">
        <ele>177</ele>
        <time>2021-09-05T09:41:36Z</time>
      </trkpt>
      <trkpt lat="44.06256" lon="1.93899">
        <ele>177</ele>
        <time>2021-09-05T09:41:37Z</time>
      </trkpt>
      <trkpt lat="44.06256" lon="1.93895">
        <ele>177.2</ele>
        <time>2021-09-05T09:41:38Z</time>
      </trkpt>
      <trkpt lat="44.06256" lon="1.93892">
        <ele>177.8</ele>
        <time>2021-09-05T09:41:39Z</time>
      </trkpt>
      <trkpt lat="44.06257" lon="1.93888">
        <ele>178</ele>
        <time>2021-09-05T09:41:40Z</time>
      </trkpt>
      <trkpt lat="44.06258" lon="1.93884">
        <ele>178.6</ele>
        <time>2021-09-05T09:41:41Z</time>
      </trkpt>
      <trkpt lat="44.06259" lon="1.93882">
        <ele>179</ele>
        <time>2021-09-05T09:41:42Z</time>
      </trkpt>
      <trkpt lat="44.0626" lon="1.93878">
        <ele>179.2</ele>
        <time>2021-09-05T09:41:43Z</time>
      </trkpt>
      <trkpt lat="44.06261" lon="1.93874">
        <ele>179.4</ele>
        <time>2021-09-05T09:41:44Z</time>
      </trkpt>
      <trkpt lat="44.06263" lon="1.9387">
        <ele>179.6</ele>
        <time>2021-09-05T09:41:45Z</time>
      </trkpt>
      <trkpt lat="44.06265" lon="1.93866">
        <ele>179.8</ele>
        <time>2021-09-05T09:41:46Z</time>
      </trkpt>
      <trkpt lat="44.06267" lon="1.93863">
        <ele>180</ele>
        <time>2021-09-05T09:41:47Z</time>
      </trkpt>
      <trkpt lat="44.06269" lon="1.93859">
        <ele>180</ele>
        <time>2021-09-05T09:41:48Z</time>
      </trkpt>
      <trkpt lat="44.06272" lon="1.93854">
        <ele>180.2</ele>
        <time>2021-09-05T09:41:49Z</time>
      </trkpt>
      <trkpt lat="44.06273" lon="1.9385">
        <ele>180.2</ele>
        <time>2021-09-05T09:41:50Z</time>
      </trkpt>
      <trkpt lat="44.06275" lon="1.93847">
        <ele>180.4</ele>
        <time>2021-09-05T09:41:51Z</time>
      </trkpt>
      <trkpt lat="44.06276" lon="1.93843">
        <ele>180.6</ele>
        <time>2021-09-05T09:41:52Z</time>
      </trkpt>
      <trkpt lat="44.06276" lon="1.93838">
        <ele>181.2</ele>
        <time>2021-09-05T09:41:53Z</time>
      </trkpt>
      <trkpt lat="44.06277" lon="1.93835">
        <ele>181.4</ele>
        <time>2021-09-05T09:41:54Z</time>
      </trkpt>
      <trkpt lat="44.06279" lon="1.9383">
        <ele>181.8</ele>
        <time>2021-09-05T09:41:55Z</time>
      </trkpt>
      <trkpt lat="44.06281" lon="1.93827">
        <ele>182</ele>
        <time>2021-09-05T09:41:56Z</time>
      </trkpt>
      <trkpt lat="44.06282" lon="1.93824">
        <ele>182.4</ele>
        <time>2021-09-05T09:41:57Z</time>
      </trkpt>
      <trkpt lat="44.06283" lon="1.93821">
        <ele>182.4</ele>
        <time>2021-09-05T09:41:58Z</time>
      </trkpt>
      <trkpt lat="44.06285" lon="1.93819">
        <ele>182.6</ele>
        <time>2021-09-05T09:41:59Z</time>
      </trkpt>
      <trkpt lat="44.06285" lon="1.93817">
        <ele>182.6</ele>
        <time>2021-09-05T09:42:00Z</time>
      </trkpt>
      <trkpt lat="44.06287" lon="1.93815">
        <ele>182.8</ele>
        <time>2021-09-05T09:42:01Z</time>
      </trkpt>
      <trkpt lat="44.06288" lon="1.93814">
        <ele>183.2</ele>
        <time>2021-09-05T09:42:02Z</time>
      </trkpt>
      <trkpt lat="44.06289" lon="1.93812">
        <ele>183.2</ele>
        <time>2021-09-05T09:42:03Z</time>
      </trkpt>
      <trkpt lat="44.0629" lon="1.93809">
        <ele>183.2</ele>
        <time>2021-09-05T09:42:04Z</time>
      </trkpt>
      <trkpt lat="44.06292" lon="1.93806">
        <ele>183.4</ele>
        <time>2021-09-05T09:42:05Z</time>
      </trkpt>
      <trkpt lat="44.06293" lon="1.93804">
        <ele>183.4</ele>
        <time>2021-09-05T09:42:06Z</time>
      </trkpt>
      <trkpt lat="44.06295" lon="1.93802">
        <ele>183.4</ele>
        <time>2021-09-05T09:42:07Z</time>
      </trkpt>
      <trkpt lat="44.06295" lon="1.93801">
        <ele>183.4</ele>
        <time>2021-09-05T09:42:08Z</time>
      </trkpt>
      <trkpt lat="44.06295" lon="1.938">
        <ele>183.4</ele>
        <time>2021-09-05T09:42:09Z</time>
      </trkpt>
      <trkpt lat="44.06296" lon="1.93798">
        <ele>183.4</ele>
        <time>2021-09-05T09:42:10Z</time>
      </trkpt>
      <trkpt lat="44.06297" lon="1.93797">
        <ele>183.6</ele>
        <time>2021-09-05T09:42:11Z</time>
      </trkpt>
      <trkpt lat="44.06298" lon="1.93795">
        <ele>183.6</ele>
        <time>2021-09-05T09:42:12Z</time>
      </trkpt>
      <trkpt lat="44.063" lon="1.93794">
        <ele>184</ele>
        <time>2021-09-05T09:42:13Z</time>
      </trkpt>
      <trkpt lat="44.06301" lon="1.93792">
        <ele>184</ele>
        <time>2021-09-05T09:42:14Z</time>
      </trkpt>
      <trkpt lat="44.06302" lon="1.93791">
        <ele>184</ele>
        <time>2021-09-05T09:42:15Z</time>
      </trkpt>
      <trkpt lat="44.06303" lon="1.93789">
        <ele>184</ele>
        <time>2021-09-05T09:42:16Z</time>
      </trkpt>
      <trkpt lat="44.06305" lon="1.93788">
        <ele>184</ele>
        <time>2021-09-05T09:42:17Z</time>
      </trkpt>
      <trkpt lat="44.06306" lon="1.93786">
        <ele>184.2</ele>
        <time>2021-09-05T09:42:18Z</time>
      </trkpt>
      <trkpt lat="44.06307" lon="1.93785">
        <ele>184.2</ele>
        <time>2021-09-05T09:42:19Z</time>
      </trkpt>
      <trkpt lat="44.06308" lon="1.93783">
        <ele>184.2</ele>
        <time>2021-09-05T09:42:20Z</time>
      </trkpt>
      <trkpt lat="44.06309" lon="1.93781">
        <ele>184.2</ele>
        <time>2021-09-05T09:42:21Z</time>
      </trkpt>
      <trkpt lat="44.0631" lon="1.9378">
        <ele>184.6</ele>
        <time>2021-09-05T09:42:22Z</time>
      </trkpt>
      <trkpt lat="44.06312" lon="1.93777">
        <ele>184.6</ele>
        <time>2021-09-05T09:42:23Z</time>
      </trkpt>
      <trkpt lat="44.06314" lon="1.93776">
        <ele>184.6</ele>
        <time>2021-09-05T09:42:24Z</time>
      </trkpt>
      <trkpt lat="44.06315" lon="1.93774">
        <ele>184.8</ele>
        <time>2021-09-05T09:42:25Z</time>
      </trkpt>
      <trkpt lat="44.06317" lon="1.93773">
        <ele>184.8</ele>
        <time>2021-09-05T09:42:26Z</time>
      </trkpt>
      <trkpt lat="44.06318" lon="1.93771">
        <ele>184.8</ele>
        <time>2021-09-05T09:42:27Z</time>
      </trkpt>
      <trkpt lat="44.06322" lon="1.93767">
        <ele>184.8</ele>
        <time>2021-09-05T09:42:29Z</time>
      </trkpt>
      <trkpt lat="44.06331" lon="1.93753">
        <ele>185</ele>
        <time>2021-09-05T09:42:36Z</time>
      </trkpt>
      <trkpt lat="44.06332" lon="1.93752">
        <ele>185</ele>
        <time>2021-09-05T09:42:37Z</time>
      </trkpt>
      <trkpt lat="44.06337" lon="1.93745">
        <ele>185.2</ele>
        <time>2021-09-05T09:42:40Z</time>
      </trkpt>
      <trkpt lat="44.06341" lon="1.93739">
        <ele>185.2</ele>
        <time>2021-09-05T09:42:43Z</time>
      </trkpt>
      <trkpt lat="44.06343" lon="1.9373">
        <ele>185.2</ele>
        <time>2021-09-05T09:42:47Z</time>
      </trkpt>
      <trkpt lat="44.06343" lon="1.93727">
        <ele>185.2</ele>
        <time>2021-09-05T09:42:48Z</time>
      </trkpt>
      <trkpt lat="44.06344" lon="1.93723">
        <ele>185.2</ele>
        <time>2021-09-05T09:42:50Z</time>
      </trkpt>
      <trkpt lat="44.06344" lon="1.93717">
        <ele>185.2</ele>
        <time>2021-09-05T09:42:52Z</time>
      </trkpt>
      <trkpt lat="44.06344" lon="1.93712">
        <ele>185.4</ele>
        <time>2021-09-05T09:42:54Z</time>
      </trkpt>
      <trkpt lat="44.06344" lon="1.93709">
        <ele>185.4</ele>
        <time>2021-09-05T09:42:55Z</time>
      </trkpt>
      <trkpt lat="44.06344" lon="1.93702">
        <ele>185.4</ele>
        <time>2021-09-05T09:42:58Z</time>
      </trkpt>
      <trkpt lat="44.06344" lon="1.93699">
        <ele>185.4</ele>
        <time>2021-09-05T09:42:59Z</time>
      </trkpt>
      <trkpt lat="44.06343" lon="1.93694">
        <ele>185.4</ele>
        <time>2021-09-05T09:43:01Z</time>
      </trkpt>
      <trkpt lat="44.06343" lon="1.93692">
        <ele>185.4</ele>
        <time>2021-09-05T09:43:02Z</time>
      </trkpt>
      <trkpt lat="44.06344" lon="1.93687">
        <ele>185.6</ele>
        <time>2021-09-05T09:43:04Z</time>
      </trkpt>
      <trkpt lat="44.06343" lon="1.93681">
        <ele>185.6</ele>
        <time>2021-09-05T09:43:06Z</time>
      </trkpt>
      <trkpt lat="44.06342" lon="1.93671">
        <ele>185.8</ele>
        <time>2021-09-05T09:43:10Z</time>
      </trkpt>
      <trkpt lat="44.06342" lon="1.93668">
        <ele>185.8</ele>
        <time>2021-09-05T09:43:11Z</time>
      </trkpt>
      <trkpt lat="44.06342" lon="1.93666">
        <ele>185.8</ele>
        <time>2021-09-05T09:43:12Z</time>
      </trkpt>
      <trkpt lat="44.06342" lon="1.93664">
        <ele>186.2</ele>
        <time>2021-09-05T09:43:13Z</time>
      </trkpt>
      <trkpt lat="44.06342" lon="1.93661">
        <ele>186.2</ele>
        <time>2021-09-05T09:43:14Z</time>
      </trkpt>
      <trkpt lat="44.06344" lon="1.93656">
        <ele>186.2</ele>
        <time>2021-09-05T09:43:16Z</time>
      </trkpt>
      <trkpt lat="44.06345" lon="1.93653">
        <ele>186.6</ele>
        <time>2021-09-05T09:43:17Z</time>
      </trkpt>
      <trkpt lat="44.06346" lon="1.93648">
        <ele>186.6</ele>
        <time>2021-09-05T09:43:19Z</time>
      </trkpt>
      <trkpt lat="44.06348" lon="1.93641">
        <ele>186.8</ele>
        <time>2021-09-05T09:43:22Z</time>
      </trkpt>
      <trkpt lat="44.0635" lon="1.93632">
        <ele>187</ele>
        <time>2021-09-05T09:43:25Z</time>
      </trkpt>
      <trkpt lat="44.06351" lon="1.93626">
        <ele>187.2</ele>
        <time>2021-09-05T09:43:27Z</time>
      </trkpt>
      <trkpt lat="44.06352" lon="1.93624">
        <ele>187.2</ele>
        <time>2021-09-05T09:43:28Z</time>
      </trkpt>
      <trkpt lat="44.06355" lon="1.93617">
        <ele>187.2</ele>
        <time>2021-09-05T09:43:30Z</time>
      </trkpt>
      <trkpt lat="44.06356" lon="1.93614">
        <ele>187.4</ele>
        <time>2021-09-05T09:43:31Z</time>
      </trkpt>
      <trkpt lat="44.06357" lon="1.93612">
        <ele>187.4</ele>
        <time>2021-09-05T09:43:32Z</time>
      </trkpt>
      <trkpt lat="44.06361" lon="1.936">
        <ele>187.6</ele>
        <time>2021-09-05T09:43:36Z</time>
      </trkpt>
      <trkpt lat="44.06365" lon="1.93594">
        <ele>187.8</ele>
        <time>2021-09-05T09:43:39Z</time>
      </trkpt>
      <trkpt lat="44.06366" lon="1.93591">
        <ele>188.4</ele>
        <time>2021-09-05T09:43:40Z</time>
      </trkpt>
      <trkpt lat="44.06368" lon="1.93587">
        <ele>188.6</ele>
        <time>2021-09-05T09:43:42Z</time>
      </trkpt>
      <trkpt lat="44.06369" lon="1.93585">
        <ele>189.2</ele>
        <time>2021-09-05T09:43:43Z</time>
      </trkpt>
      <trkpt lat="44.0637" lon="1.93584">
        <ele>189.6</ele>
        <time>2021-09-05T09:43:44Z</time>
      </trkpt>
      <trkpt lat="44.06371" lon="1.93581">
        <ele>189.8</ele>
        <time>2021-09-05T09:43:45Z</time>
      </trkpt>
      <trkpt lat="44.06373" lon="1.93576">
        <ele>190.2</ele>
        <time>2021-09-05T09:43:47Z</time>
      </trkpt>
      <trkpt lat="44.06375" lon="1.93574">
        <ele>190.2</ele>
        <time>2021-09-05T09:43:48Z</time>
      </trkpt>
      <trkpt lat="44.06375" lon="1.93572">
        <ele>190.4</ele>
        <time>2021-09-05T09:43:49Z</time>
      </trkpt>
      <trkpt lat="44.06377" lon="1.93569">
        <ele>190.8</ele>
        <time>2021-09-05T09:43:50Z</time>
      </trkpt>
      <trkpt lat="44.06378" lon="1.93566">
        <ele>190.8</ele>
        <time>2021-09-05T09:43:51Z</time>
      </trkpt>
      <trkpt lat="44.06379" lon="1.93564">
        <ele>191</ele>
        <time>2021-09-05T09:43:52Z</time>
      </trkpt>
      <trkpt lat="44.0638" lon="1.93562">
        <ele>191</ele>
        <time>2021-09-05T09:43:53Z</time>
      </trkpt>
      <trkpt lat="44.06381" lon="1.93559">
        <ele>191.2</ele>
        <time>2021-09-05T09:43:54Z</time>
      </trkpt>
      <trkpt lat="44.06382" lon="1.93556">
        <ele>191.2</ele>
        <time>2021-09-05T09:43:55Z</time>
      </trkpt>
      <trkpt lat="44.06382" lon="1.93554">
        <ele>191.4</ele>
        <time>2021-09-05T09:43:56Z</time>
      </trkpt>
      <trkpt lat="44.06383" lon="1.93551">
        <ele>191.6</ele>
        <time>2021-09-05T09:43:57Z</time>
      </trkpt>
      <trkpt lat="44.06384" lon="1.93548">
        <ele>191.6</ele>
        <time>2021-09-05T09:43:58Z</time>
      </trkpt>
      <trkpt lat="44.06385" lon="1.93546">
        <ele>191.8</ele>
        <time>2021-09-05T09:43:59Z</time>
      </trkpt>
      <trkpt lat="44.06386" lon="1.93544">
        <ele>192</ele>
        <time>2021-09-05T09:44:00Z</time>
      </trkpt>
      <trkpt lat="44.06386" lon="1.93541">
        <ele>192.2</ele>
        <time>2021-09-05T09:44:01Z</time>
      </trkpt>
      <trkpt lat="44.06387" lon="1.93539">
        <ele>192.2</ele>
        <time>2021-09-05T09:44:02Z</time>
      </trkpt>
      <trkpt lat="44.06388" lon="1.93537">
        <ele>192.4</ele>
        <time>2021-09-05T09:44:03Z</time>
      </trkpt>
      <trkpt lat="44.06388" lon="1.93535">
        <ele>192.6</ele>
        <time>2021-09-05T09:44:04Z</time>
      </trkpt>
      <trkpt lat="44.06389" lon="1.93533">
        <ele>192.6</ele>
        <time>2021-09-05T09:44:05Z</time>
      </trkpt>
      <trkpt lat="44.0639" lon="1.9353">
        <ele>192.8</ele>
        <time>2021-09-05T09:44:06Z</time>
      </trkpt>
      <trkpt lat="44.06391" lon="1.93527">
        <ele>193</ele>
        <time>2021-09-05T09:44:07Z</time>
      </trkpt>
      <trkpt lat="44.06392" lon="1.93525">
        <ele>193</ele>
        <time>2021-09-05T09:44:08Z</time>
      </trkpt>
      <trkpt lat="44.06392" lon="1.93523">
        <ele>193</ele>
        <time>2021-09-05T09:44:09Z</time>
      </trkpt>
      <trkpt lat="44.06392" lon="1.9352">
        <ele>193.2</ele>
        <time>2021-09-05T09:44:10Z</time>
      </trkpt>
      <trkpt lat="44.06393" lon="1.93518">
        <ele>193.2</ele>
        <time>2021-09-05T09:44:11Z</time>
      </trkpt>
      <trkpt lat="44.06393" lon="1.93518">
        <ele>193.4</ele>
        <time>2021-09-05T09:44:12Z</time>
      </trkpt>
      <trkpt lat="44.06394" lon="1.93513">
        <ele>193.6</ele>
        <time>2021-09-05T09:44:13Z</time>
      </trkpt>
      <trkpt lat="44.06394" lon="1.93511">
        <ele>193.6</ele>
        <time>2021-09-05T09:44:14Z</time>
      </trkpt>
      <trkpt lat="44.06395" lon="1.93508">
        <ele>193.6</ele>
        <time>2021-09-05T09:44:15Z</time>
      </trkpt>
      <trkpt lat="44.06395" lon="1.93505">
        <ele>193.8</ele>
        <time>2021-09-05T09:44:16Z</time>
      </trkpt>
      <trkpt lat="44.06395" lon="1.93502">
        <ele>193.8</ele>
        <time>2021-09-05T09:44:17Z</time>
      </trkpt>
      <trkpt lat="44.06394" lon="1.935">
        <ele>194</ele>
        <time>2021-09-05T09:44:18Z</time>
      </trkpt>
      <trkpt lat="44.06394" lon="1.93497">
        <ele>194</ele>
        <time>2021-09-05T09:44:19Z</time>
      </trkpt>
      <trkpt lat="44.06393" lon="1.93494">
        <ele>194</ele>
        <time>2021-09-05T09:44:20Z</time>
      </trkpt>
      <trkpt lat="44.06393" lon="1.9349">
        <ele>194</ele>
        <time>2021-09-05T09:44:21Z</time>
      </trkpt>
      <trkpt lat="44.06392" lon="1.93488">
        <ele>194.2</ele>
        <time>2021-09-05T09:44:22Z</time>
      </trkpt>
      <trkpt lat="44.06391" lon="1.93484">
        <ele>194.2</ele>
        <time>2021-09-05T09:44:23Z</time>
      </trkpt>
      <trkpt lat="44.0639" lon="1.93481">
        <ele>194.2</ele>
        <time>2021-09-05T09:44:24Z</time>
      </trkpt>
      <trkpt lat="44.06389" lon="1.93478">
        <ele>194.2</ele>
        <time>2021-09-05T09:44:25Z</time>
      </trkpt>
      <trkpt lat="44.06387" lon="1.93475">
        <ele>194.2</ele>
        <time>2021-09-05T09:44:26Z</time>
      </trkpt>
      <trkpt lat="44.06386" lon="1.93471">
        <ele>194.4</ele>
        <time>2021-09-05T09:44:27Z</time>
      </trkpt>
      <trkpt lat="44.06385" lon="1.93468">
        <ele>194.4</ele>
        <time>2021-09-05T09:44:28Z</time>
      </trkpt>
      <trkpt lat="44.06384" lon="1.93465">
        <ele>194.4</ele>
        <time>2021-09-05T09:44:29Z</time>
      </trkpt>
      <trkpt lat="44.06383" lon="1.93462">
        <ele>194.4</ele>
        <time>2021-09-05T09:44:30Z</time>
      </trkpt>
      <trkpt lat="44.06379" lon="1.93453">
        <ele>194.4</ele>
        <time>2021-09-05T09:44:33Z</time>
      </trkpt>
      <trkpt lat="44.06376" lon="1.93447">
        <ele>194.4</ele>
        <time>2021-09-05T09:44:35Z</time>
      </trkpt>
      <trkpt lat="44.06374" lon="1.93444">
        <ele>194.4</ele>
        <time>2021-09-05T09:44:36Z</time>
      </trkpt>
      <trkpt lat="44.06372" lon="1.93441">
        <ele>194.4</ele>
        <time>2021-09-05T09:44:37Z</time>
      </trkpt>
      <trkpt lat="44.0637" lon="1.93439">
        <ele>194.6</ele>
        <time>2021-09-05T09:44:38Z</time>
      </trkpt>
      <trkpt lat="44.06355" lon="1.93414">
        <ele>195</ele>
        <time>2021-09-05T09:44:46Z</time>
      </trkpt>
      <trkpt lat="44.06341" lon="1.93395">
        <ele>195.2</ele>
        <time>2021-09-05T09:44:53Z</time>
      </trkpt>
      <trkpt lat="44.06339" lon="1.93393">
        <ele>195.2</ele>
        <time>2021-09-05T09:44:54Z</time>
      </trkpt>
      <trkpt lat="44.06337" lon="1.9339">
        <ele>195.2</ele>
        <time>2021-09-05T09:44:55Z</time>
      </trkpt>
      <trkpt lat="44.06335" lon="1.93388">
        <ele>195.2</ele>
        <time>2021-09-05T09:44:56Z</time>
      </trkpt>
      <trkpt lat="44.06326" lon="1.93374">
        <ele>195.6</ele>
        <time>2021-09-05T09:45:01Z</time>
      </trkpt>
      <trkpt lat="44.06324" lon="1.93371">
        <ele>195.6</ele>
        <time>2021-09-05T09:45:02Z</time>
      </trkpt>
      <trkpt lat="44.06322" lon="1.93369">
        <ele>195.8</ele>
        <time>2021-09-05T09:45:03Z</time>
      </trkpt>
      <trkpt lat="44.0632" lon="1.93366">
        <ele>196</ele>
        <time>2021-09-05T09:45:04Z</time>
      </trkpt>
      <trkpt lat="44.06319" lon="1.93364">
        <ele>196</ele>
        <time>2021-09-05T09:45:05Z</time>
      </trkpt>
      <trkpt lat="44.06317" lon="1.93361">
        <ele>196.2</ele>
        <time>2021-09-05T09:45:06Z</time>
      </trkpt>
      <trkpt lat="44.06316" lon="1.93359">
        <ele>196.6</ele>
        <time>2021-09-05T09:45:07Z</time>
      </trkpt>
      <trkpt lat="44.06308" lon="1.93348">
        <ele>197.2</ele>
        <time>2021-09-05T09:45:12Z</time>
      </trkpt>
      <trkpt lat="44.06307" lon="1.93346">
        <ele>197.4</ele>
        <time>2021-09-05T09:45:13Z</time>
      </trkpt>
      <trkpt lat="44.06305" lon="1.93344">
        <ele>197.6</ele>
        <time>2021-09-05T09:45:14Z</time>
      </trkpt>
      <trkpt lat="44.06304" lon="1.93342">
        <ele>197.8</ele>
        <time>2021-09-05T09:45:15Z</time>
      </trkpt>
      <trkpt lat="44.06303" lon="1.9334">
        <ele>198</ele>
        <time>2021-09-05T09:45:16Z</time>
      </trkpt>
      <trkpt lat="44.063" lon="1.93336">
        <ele>198</ele>
        <time>2021-09-05T09:45:18Z</time>
      </trkpt>
      <trkpt lat="44.06299" lon="1.93333">
        <ele>198</ele>
        <time>2021-09-05T09:45:19Z</time>
      </trkpt>
      <trkpt lat="44.06298" lon="1.93331">
        <ele>198.2</ele>
        <time>2021-09-05T09:45:20Z</time>
      </trkpt>
      <trkpt lat="44.06297" lon="1.93329">
        <ele>198.4</ele>
        <time>2021-09-05T09:45:21Z</time>
      </trkpt>
      <trkpt lat="44.06296" lon="1.93327">
        <ele>198.4</ele>
        <time>2021-09-05T09:45:22Z</time>
      </trkpt>
      <trkpt lat="44.06294" lon="1.93325">
        <ele>198.6</ele>
        <time>2021-09-05T09:45:23Z</time>
      </trkpt>
      <trkpt lat="44.06293" lon="1.93324">
        <ele>199</ele>
        <time>2021-09-05T09:45:24Z</time>
      </trkpt>
      <trkpt lat="44.06292" lon="1.93323">
        <ele>199</ele>
        <time>2021-09-05T09:45:25Z</time>
      </trkpt>
      <trkpt lat="44.06292" lon="1.93321">
        <ele>199.2</ele>
        <time>2021-09-05T09:45:26Z</time>
      </trkpt>
      <trkpt lat="44.06291" lon="1.93319">
        <ele>199.4</ele>
        <time>2021-09-05T09:45:27Z</time>
      </trkpt>
      <trkpt lat="44.0629" lon="1.93318">
        <ele>199.4</ele>
        <time>2021-09-05T09:45:28Z</time>
      </trkpt>
      <trkpt lat="44.06289" lon="1.93316">
        <ele>199.6</ele>
        <time>2021-09-05T09:45:29Z</time>
      </trkpt>
      <trkpt lat="44.06288" lon="1.93314">
        <ele>199.8</ele>
        <time>2021-09-05T09:45:30Z</time>
      </trkpt>
      <trkpt lat="44.06287" lon="1.93313">
        <ele>199.8</ele>
        <time>2021-09-05T09:45:31Z</time>
      </trkpt>
      <trkpt lat="44.06286" lon="1.93312">
        <ele>200</ele>
        <time>2021-09-05T09:45:32Z</time>
      </trkpt>
      <trkpt lat="44.06285" lon="1.93311">
        <ele>200</ele>
        <time>2021-09-05T09:45:33Z</time>
      </trkpt>
      <trkpt lat="44.06283" lon="1.9331">
        <ele>200</ele>
        <time>2021-09-05T09:45:34Z</time>
      </trkpt>
      <trkpt lat="44.06282" lon="1.93309">
        <ele>200.2</ele>
        <time>2021-09-05T09:45:35Z</time>
      </trkpt>
      <trkpt lat="44.06281" lon="1.93308">
        <ele>200.4</ele>
        <time>2021-09-05T09:45:36Z</time>
      </trkpt>
      <trkpt lat="44.0628" lon="1.93308">
        <ele>200.6</ele>
        <time>2021-09-05T09:45:37Z</time>
      </trkpt>
      <trkpt lat="44.06278" lon="1.93307">
        <ele>200.6</ele>
        <time>2021-09-05T09:45:38Z</time>
      </trkpt>
      <trkpt lat="44.06277" lon="1.93307">
        <ele>200.8</ele>
        <time>2021-09-05T09:45:39Z</time>
      </trkpt>
      <trkpt lat="44.06275" lon="1.93307">
        <ele>201.2</ele>
        <time>2021-09-05T09:45:40Z</time>
      </trkpt>
      <trkpt lat="44.06274" lon="1.93307">
        <ele>201.2</ele>
        <time>2021-09-05T09:45:41Z</time>
      </trkpt>
      <trkpt lat="44.06273" lon="1.93306">
        <ele>201.4</ele>
        <time>2021-09-05T09:45:42Z</time>
      </trkpt>
      <trkpt lat="44.06271" lon="1.93306">
        <ele>201.4</ele>
        <time>2021-09-05T09:45:43Z</time>
      </trkpt>
      <trkpt lat="44.0627" lon="1.93306">
        <ele>201.6</ele>
        <time>2021-09-05T09:45:44Z</time>
      </trkpt>
      <trkpt lat="44.06269" lon="1.93306">
        <ele>201.8</ele>
        <time>2021-09-05T09:45:45Z</time>
      </trkpt>
      <trkpt lat="44.06268" lon="1.93305">
        <ele>202</ele>
        <time>2021-09-05T09:45:46Z</time>
      </trkpt>
      <trkpt lat="44.06266" lon="1.93305">
        <ele>202</ele>
        <time>2021-09-05T09:45:47Z</time>
      </trkpt>
      <trkpt lat="44.06265" lon="1.93305">
        <ele>202.2</ele>
        <time>2021-09-05T09:45:48Z</time>
      </trkpt>
      <trkpt lat="44.06264" lon="1.93305">
        <ele>202.2</ele>
        <time>2021-09-05T09:45:49Z</time>
      </trkpt>
      <trkpt lat="44.06262" lon="1.93304">
        <ele>202.4</ele>
        <time>2021-09-05T09:45:50Z</time>
      </trkpt>
      <trkpt lat="44.06261" lon="1.93304">
        <ele>202.4</ele>
        <time>2021-09-05T09:45:51Z</time>
      </trkpt>
      <trkpt lat="44.06259" lon="1.93304">
        <ele>202.6</ele>
        <time>2021-09-05T09:45:52Z</time>
      </trkpt>
      <trkpt lat="44.06258" lon="1.93304">
        <ele>202.6</ele>
        <time>2021-09-05T09:45:53Z</time>
      </trkpt>
      <trkpt lat="44.06257" lon="1.93304">
        <ele>202.6</ele>
        <time>2021-09-05T09:45:54Z</time>
      </trkpt>
      <trkpt lat="44.06255" lon="1.93303">
        <ele>202.8</ele>
        <time>2021-09-05T09:45:55Z</time>
      </trkpt>
      <trkpt lat="44.06254" lon="1.93303">
        <ele>203</ele>
        <time>2021-09-05T09:45:56Z</time>
      </trkpt>
      <trkpt lat="44.06252" lon="1.93303">
        <ele>203.2</ele>
        <time>2021-09-05T09:45:57Z</time>
      </trkpt>
      <trkpt lat="44.06251" lon="1.93302">
        <ele>203.4</ele>
        <time>2021-09-05T09:45:58Z</time>
      </trkpt>
      <trkpt lat="44.06249" lon="1.93302">
        <ele>203.4</ele>
        <time>2021-09-05T09:45:59Z</time>
      </trkpt>
      <trkpt lat="44.06248" lon="1.93303">
        <ele>203.6</ele>
        <time>2021-09-05T09:46:00Z</time>
      </trkpt>
      <trkpt lat="44.06247" lon="1.93303">
        <ele>203.6</ele>
        <time>2021-09-05T09:46:01Z</time>
      </trkpt>
      <trkpt lat="44.06245" lon="1.93302">
        <ele>203.8</ele>
        <time>2021-09-05T09:46:02Z</time>
      </trkpt>
      <trkpt lat="44.06244" lon="1.93302">
        <ele>203.8</ele>
        <time>2021-09-05T09:46:03Z</time>
      </trkpt>
      <trkpt lat="44.06242" lon="1.93302">
        <ele>204</ele>
        <time>2021-09-05T09:46:04Z</time>
      </trkpt>
      <trkpt lat="44.06241" lon="1.93301">
        <ele>204</ele>
        <time>2021-09-05T09:46:05Z</time>
      </trkpt>
      <trkpt lat="44.0624" lon="1.93301">
        <ele>204</ele>
        <time>2021-09-05T09:46:06Z</time>
      </trkpt>
      <trkpt lat="44.06238" lon="1.93301">
        <ele>204</ele>
        <time>2021-09-05T09:46:07Z</time>
      </trkpt>
      <trkpt lat="44.06237" lon="1.933">
        <ele>204.2</ele>
        <time>2021-09-05T09:46:08Z</time>
      </trkpt>
      <trkpt lat="44.06236" lon="1.933">
        <ele>204.2</ele>
        <time>2021-09-05T09:46:09Z</time>
      </trkpt>
      <trkpt lat="44.06234" lon="1.933">
        <ele>204.2</ele>
        <time>2021-09-05T09:46:10Z</time>
      </trkpt>
      <trkpt lat="44.06233" lon="1.93299">
        <ele>204.2</ele>
        <time>2021-09-05T09:46:11Z</time>
      </trkpt>
      <trkpt lat="44.06231" lon="1.93299">
        <ele>204.4</ele>
        <time>2021-09-05T09:46:12Z</time>
      </trkpt>
      <trkpt lat="44.0623" lon="1.93299">
        <ele>204.4</ele>
        <time>2021-09-05T09:46:13Z</time>
      </trkpt>
      <trkpt lat="44.06228" lon="1.93299">
        <ele>204.6</ele>
        <time>2021-09-05T09:46:14Z</time>
      </trkpt>
      <trkpt lat="44.06226" lon="1.93298">
        <ele>204.8</ele>
        <time>2021-09-05T09:46:15Z</time>
      </trkpt>
      <trkpt lat="44.06225" lon="1.93299">
        <ele>205</ele>
        <time>2021-09-05T09:46:16Z</time>
      </trkpt>
      <trkpt lat="44.06224" lon="1.93299">
        <ele>205.2</ele>
        <time>2021-09-05T09:46:17Z</time>
      </trkpt>
      <trkpt lat="44.06221" lon="1.93298">
        <ele>205.4</ele>
        <time>2021-09-05T09:46:19Z</time>
      </trkpt>
      <trkpt lat="44.0622" lon="1.93298">
        <ele>205.6</ele>
        <time>2021-09-05T09:46:20Z</time>
      </trkpt>
      <trkpt lat="44.06218" lon="1.93298">
        <ele>205.6</ele>
        <time>2021-09-05T09:46:21Z</time>
      </trkpt>
      <trkpt lat="44.06216" lon="1.93298">
        <ele>205.6</ele>
        <time>2021-09-05T09:46:22Z</time>
      </trkpt>
      <trkpt lat="44.06215" lon="1.93298">
        <ele>205.8</ele>
        <time>2021-09-05T09:46:23Z</time>
      </trkpt>
      <trkpt lat="44.06215" lon="1.93298">
        <ele>205.8</ele>
        <time>2021-09-05T09:46:24Z</time>
      </trkpt>
      <trkpt lat="44.06212" lon="1.93298">
        <ele>206</ele>
        <time>2021-09-05T09:46:25Z</time>
      </trkpt>
      <trkpt lat="44.06211" lon="1.93298">
        <ele>206</ele>
        <time>2021-09-05T09:46:26Z</time>
      </trkpt>
      <trkpt lat="44.0621" lon="1.93298">
        <ele>206.2</ele>
        <time>2021-09-05T09:46:27Z</time>
      </trkpt>
      <trkpt lat="44.06208" lon="1.93297">
        <ele>206.4</ele>
        <time>2021-09-05T09:46:28Z</time>
      </trkpt>
      <trkpt lat="44.06207" lon="1.93297">
        <ele>206.4</ele>
        <time>2021-09-05T09:46:29Z</time>
      </trkpt>
      <trkpt lat="44.06206" lon="1.93297">
        <ele>206.6</ele>
        <time>2021-09-05T09:46:30Z</time>
      </trkpt>
      <trkpt lat="44.06204" lon="1.93297">
        <ele>206.6</ele>
        <time>2021-09-05T09:46:31Z</time>
      </trkpt>
      <trkpt lat="44.06202" lon="1.93297">
        <ele>207</ele>
        <time>2021-09-05T09:46:32Z</time>
      </trkpt>
      <trkpt lat="44.06201" lon="1.93297">
        <ele>207</ele>
        <time>2021-09-05T09:46:33Z</time>
      </trkpt>
      <trkpt lat="44.06199" lon="1.93297">
        <ele>207.2</ele>
        <time>2021-09-05T09:46:34Z</time>
      </trkpt>
      <trkpt lat="44.06198" lon="1.93297">
        <ele>207.4</ele>
        <time>2021-09-05T09:46:35Z</time>
      </trkpt>
      <trkpt lat="44.06196" lon="1.93297">
        <ele>207.6</ele>
        <time>2021-09-05T09:46:36Z</time>
      </trkpt>
      <trkpt lat="44.06195" lon="1.93297">
        <ele>207.8</ele>
        <time>2021-09-05T09:46:37Z</time>
      </trkpt>
      <trkpt lat="44.06194" lon="1.93297">
        <ele>207.8</ele>
        <time>2021-09-05T09:46:38Z</time>
      </trkpt>
      <trkpt lat="44.06193" lon="1.93297">
        <ele>208</ele>
        <time>2021-09-05T09:46:39Z</time>
      </trkpt>
      <trkpt lat="44.06191" lon="1.93297">
        <ele>208</ele>
        <time>2021-09-05T09:46:40Z</time>
      </trkpt>
      <trkpt lat="44.06189" lon="1.93297">
        <ele>208</ele>
        <time>2021-09-05T09:46:41Z</time>
      </trkpt>
      <trkpt lat="44.06188" lon="1.93297">
        <ele>208.2</ele>
        <time>2021-09-05T09:46:42Z</time>
      </trkpt>
      <trkpt lat="44.06186" lon="1.93296">
        <ele>208.2</ele>
        <time>2021-09-05T09:46:43Z</time>
      </trkpt>
      <trkpt lat="44.06185" lon="1.93296">
        <ele>208.4</ele>
        <time>2021-09-05T09:46:44Z</time>
      </trkpt>
      <trkpt lat="44.06183" lon="1.93296">
        <ele>208.6</ele>
        <time>2021-09-05T09:46:45Z</time>
      </trkpt>
      <trkpt lat="44.06182" lon="1.93296">
        <ele>208.8</ele>
        <time>2021-09-05T09:46:46Z</time>
      </trkpt>
      <trkpt lat="44.0618" lon="1.93296">
        <ele>208.8</ele>
        <time>2021-09-05T09:46:47Z</time>
      </trkpt>
      <trkpt lat="44.06179" lon="1.93296">
        <ele>209</ele>
        <time>2021-09-05T09:46:48Z</time>
      </trkpt>
      <trkpt lat="44.06177" lon="1.93296">
        <ele>209.2</ele>
        <time>2021-09-05T09:46:49Z</time>
      </trkpt>
      <trkpt lat="44.06175" lon="1.93295">
        <ele>209.4</ele>
        <time>2021-09-05T09:46:50Z</time>
      </trkpt>
      <trkpt lat="44.06173" lon="1.93296">
        <ele>209.8</ele>
        <time>2021-09-05T09:46:51Z</time>
      </trkpt>
      <trkpt lat="44.06172" lon="1.93296">
        <ele>210</ele>
        <time>2021-09-05T09:46:52Z</time>
      </trkpt>
      <trkpt lat="44.06171" lon="1.93296">
        <ele>210.2</ele>
        <time>2021-09-05T09:46:53Z</time>
      </trkpt>
      <trkpt lat="44.06169" lon="1.93295">
        <ele>210.2</ele>
        <time>2021-09-05T09:46:54Z</time>
      </trkpt>
      <trkpt lat="44.06168" lon="1.93295">
        <ele>210.2</ele>
        <time>2021-09-05T09:46:55Z</time>
      </trkpt>
      <trkpt lat="44.06167" lon="1.93295">
        <ele>210.2</ele>
        <time>2021-09-05T09:46:56Z</time>
      </trkpt>
      <trkpt lat="44.06165" lon="1.93294">
        <ele>210.4</ele>
        <time>2021-09-05T09:46:57Z</time>
      </trkpt>
      <trkpt lat="44.06164" lon="1.93294">
        <ele>210.6</ele>
        <time>2021-09-05T09:46:58Z</time>
      </trkpt>
      <trkpt lat="44.06162" lon="1.93294">
        <ele>210.6</ele>
        <time>2021-09-05T09:46:59Z</time>
      </trkpt>
      <trkpt lat="44.06161" lon="1.93294">
        <ele>210.8</ele>
        <time>2021-09-05T09:47:00Z</time>
      </trkpt>
      <trkpt lat="44.0616" lon="1.93294">
        <ele>211</ele>
        <time>2021-09-05T09:47:01Z</time>
      </trkpt>
      <trkpt lat="44.06158" lon="1.93294">
        <ele>211.2</ele>
        <time>2021-09-05T09:47:02Z</time>
      </trkpt>
      <trkpt lat="44.06156" lon="1.93294">
        <ele>211.4</ele>
        <time>2021-09-05T09:47:03Z</time>
      </trkpt>
      <trkpt lat="44.06155" lon="1.93294">
        <ele>211.6</ele>
        <time>2021-09-05T09:47:04Z</time>
      </trkpt>
      <trkpt lat="44.06153" lon="1.93293">
        <ele>211.8</ele>
        <time>2021-09-05T09:47:05Z</time>
      </trkpt>
      <trkpt lat="44.06152" lon="1.93293">
        <ele>212</ele>
        <time>2021-09-05T09:47:06Z</time>
      </trkpt>
      <trkpt lat="44.06151" lon="1.93293">
        <ele>212</ele>
        <time>2021-09-05T09:47:07Z</time>
      </trkpt>
      <trkpt lat="44.0615" lon="1.93293">
        <ele>212</ele>
        <time>2021-09-05T09:47:08Z</time>
      </trkpt>
      <trkpt lat="44.06148" lon="1.93292">
        <ele>212.2</ele>
        <time>2021-09-05T09:47:09Z</time>
      </trkpt>
      <trkpt lat="44.06146" lon="1.93293">
        <ele>212.2</ele>
        <time>2021-09-05T09:47:10Z</time>
      </trkpt>
      <trkpt lat="44.06145" lon="1.93293">
        <ele>212.4</ele>
        <time>2021-09-05T09:47:11Z</time>
      </trkpt>
      <trkpt lat="44.06144" lon="1.93293">
        <ele>212.6</ele>
        <time>2021-09-05T09:47:12Z</time>
      </trkpt>
      <trkpt lat="44.06142" lon="1.93293">
        <ele>212.6</ele>
        <time>2021-09-05T09:47:13Z</time>
      </trkpt>
      <trkpt lat="44.06141" lon="1.93293">
        <ele>212.8</ele>
        <time>2021-09-05T09:47:14Z</time>
      </trkpt>
      <trkpt lat="44.0614" lon="1.93293">
        <ele>212.8</ele>
        <time>2021-09-05T09:47:15Z</time>
      </trkpt>
      <trkpt lat="44.06138" lon="1.93293">
        <ele>213</ele>
        <time>2021-09-05T09:47:16Z</time>
      </trkpt>
      <trkpt lat="44.06136" lon="1.93293">
        <ele>213</ele>
        <time>2021-09-05T09:47:17Z</time>
      </trkpt>
      <trkpt lat="44.06135" lon="1.93293">
        <ele>213.2</ele>
        <time>2021-09-05T09:47:18Z</time>
      </trkpt>
      <trkpt lat="44.06134" lon="1.93292">
        <ele>213.2</ele>
        <time>2021-09-05T09:47:19Z</time>
      </trkpt>
      <trkpt lat="44.06133" lon="1.93292">
        <ele>213.4</ele>
        <time>2021-09-05T09:47:20Z</time>
      </trkpt>
      <trkpt lat="44.06131" lon="1.93292">
        <ele>213.6</ele>
        <time>2021-09-05T09:47:21Z</time>
      </trkpt>
      <trkpt lat="44.0613" lon="1.93292">
        <ele>213.6</ele>
        <time>2021-09-05T09:47:22Z</time>
      </trkpt>
      <trkpt lat="44.06128" lon="1.93292">
        <ele>213.8</ele>
        <time>2021-09-05T09:47:23Z</time>
      </trkpt>
      <trkpt lat="44.06127" lon="1.93291">
        <ele>213.8</ele>
        <time>2021-09-05T09:47:24Z</time>
      </trkpt>
      <trkpt lat="44.06127" lon="1.93291">
        <ele>214</ele>
        <time>2021-09-05T09:47:25Z</time>
      </trkpt>
      <trkpt lat="44.06124" lon="1.93292">
        <ele>214</ele>
        <time>2021-09-05T09:47:26Z</time>
      </trkpt>
      <trkpt lat="44.06122" lon="1.93292">
        <ele>214</ele>
        <time>2021-09-05T09:47:27Z</time>
      </trkpt>
      <trkpt lat="44.06121" lon="1.93292">
        <ele>214.2</ele>
        <time>2021-09-05T09:47:28Z</time>
      </trkpt>
      <trkpt lat="44.0612" lon="1.93292">
        <ele>214.2</ele>
        <time>2021-09-05T09:47:29Z</time>
      </trkpt>
      <trkpt lat="44.06118" lon="1.93292">
        <ele>214.2</ele>
        <time>2021-09-05T09:47:30Z</time>
      </trkpt>
      <trkpt lat="44.06117" lon="1.93292">
        <ele>214.4</ele>
        <time>2021-09-05T09:47:31Z</time>
      </trkpt>
      <trkpt lat="44.06116" lon="1.93292">
        <ele>214.4</ele>
        <time>2021-09-05T09:47:32Z</time>
      </trkpt>
      <trkpt lat="44.06114" lon="1.93292">
        <ele>214.6</ele>
        <time>2021-09-05T09:47:33Z</time>
      </trkpt>
      <trkpt lat="44.06113" lon="1.93292">
        <ele>214.8</ele>
        <time>2021-09-05T09:47:34Z</time>
      </trkpt>
      <trkpt lat="44.06112" lon="1.93291">
        <ele>214.8</ele>
        <time>2021-09-05T09:47:35Z</time>
      </trkpt>
      <trkpt lat="44.06111" lon="1.93291">
        <ele>215</ele>
        <time>2021-09-05T09:47:36Z</time>
      </trkpt>
      <trkpt lat="44.0611" lon="1.93291">
        <ele>215</ele>
        <time>2021-09-05T09:47:37Z</time>
      </trkpt>
      <trkpt lat="44.06108" lon="1.9329">
        <ele>215.2</ele>
        <time>2021-09-05T09:47:38Z</time>
      </trkpt>
      <trkpt lat="44.06107" lon="1.9329">
        <ele>215.2</ele>
        <time>2021-09-05T09:47:39Z</time>
      </trkpt>
      <trkpt lat="44.06106" lon="1.9329">
        <ele>215.2</ele>
        <time>2021-09-05T09:47:40Z</time>
      </trkpt>
      <trkpt lat="44.06105" lon="1.9329">
        <ele>215.4</ele>
        <time>2021-09-05T09:47:41Z</time>
      </trkpt>
      <trkpt lat="44.06103" lon="1.9329">
        <ele>215.6</ele>
        <time>2021-09-05T09:47:42Z</time>
      </trkpt>
      <trkpt lat="44.06102" lon="1.9329">
        <ele>215.8</ele>
        <time>2021-09-05T09:47:43Z</time>
      </trkpt>
      <trkpt lat="44.061" lon="1.9329">
        <ele>216</ele>
        <time>2021-09-05T09:47:44Z</time>
      </trkpt>
      <trkpt lat="44.06099" lon="1.9329">
        <ele>216.2</ele>
        <time>2021-09-05T09:47:45Z</time>
      </trkpt>
      <trkpt lat="44.06098" lon="1.9329">
        <ele>216.4</ele>
        <time>2021-09-05T09:47:46Z</time>
      </trkpt>
      <trkpt lat="44.06096" lon="1.9329">
        <ele>216.4</ele>
        <time>2021-09-05T09:47:47Z</time>
      </trkpt>
      <trkpt lat="44.06095" lon="1.9329">
        <ele>216.6</ele>
        <time>2021-09-05T09:47:48Z</time>
      </trkpt>
      <trkpt lat="44.06094" lon="1.9329">
        <ele>216.8</ele>
        <time>2021-09-05T09:47:49Z</time>
      </trkpt>
      <trkpt lat="44.06093" lon="1.93289">
        <ele>217</ele>
        <time>2021-09-05T09:47:50Z</time>
      </trkpt>
      <trkpt lat="44.06092" lon="1.93289">
        <ele>217.2</ele>
        <time>2021-09-05T09:47:51Z</time>
      </trkpt>
      <trkpt lat="44.0609" lon="1.93289">
        <ele>217.4</ele>
        <time>2021-09-05T09:47:52Z</time>
      </trkpt>
      <trkpt lat="44.06089" lon="1.93289">
        <ele>217.6</ele>
        <time>2021-09-05T09:47:53Z</time>
      </trkpt>
      <trkpt lat="44.06088" lon="1.93289">
        <ele>217.6</ele>
        <time>2021-09-05T09:47:54Z</time>
      </trkpt>
      <trkpt lat="44.06086" lon="1.93289">
        <ele>217.8</ele>
        <time>2021-09-05T09:47:55Z</time>
      </trkpt>
      <trkpt lat="44.06085" lon="1.93288">
        <ele>218</ele>
        <time>2021-09-05T09:47:56Z</time>
      </trkpt>
      <trkpt lat="44.06084" lon="1.93288">
        <ele>218.2</ele>
        <time>2021-09-05T09:47:57Z</time>
      </trkpt>
      <trkpt lat="44.06083" lon="1.93287">
        <ele>218.2</ele>
        <time>2021-09-05T09:47:58Z</time>
      </trkpt>
      <trkpt lat="44.06082" lon="1.93287">
        <ele>218.4</ele>
        <time>2021-09-05T09:47:59Z</time>
      </trkpt>
      <trkpt lat="44.06081" lon="1.93287">
        <ele>218.8</ele>
        <time>2021-09-05T09:48:00Z</time>
      </trkpt>
      <trkpt lat="44.06079" lon="1.93287">
        <ele>218.8</ele>
        <time>2021-09-05T09:48:01Z</time>
      </trkpt>
      <trkpt lat="44.06078" lon="1.93287">
        <ele>219</ele>
        <time>2021-09-05T09:48:02Z</time>
      </trkpt>
      <trkpt lat="44.06077" lon="1.93287">
        <ele>219.2</ele>
        <time>2021-09-05T09:48:03Z</time>
      </trkpt>
      <trkpt lat="44.06075" lon="1.93286">
        <ele>219.4</ele>
        <time>2021-09-05T09:48:04Z</time>
      </trkpt>
      <trkpt lat="44.06074" lon="1.93286">
        <ele>219.6</ele>
        <time>2021-09-05T09:48:05Z</time>
      </trkpt>
      <trkpt lat="44.06073" lon="1.93285">
        <ele>219.6</ele>
        <time>2021-09-05T09:48:06Z</time>
      </trkpt>
      <trkpt lat="44.06072" lon="1.93284">
        <ele>219.8</ele>
        <time>2021-09-05T09:48:07Z</time>
      </trkpt>
      <trkpt lat="44.06071" lon="1.93283">
        <ele>219.8</ele>
        <time>2021-09-05T09:48:08Z</time>
      </trkpt>
      <trkpt lat="44.0607" lon="1.93282">
        <ele>220</ele>
        <time>2021-09-05T09:48:09Z</time>
      </trkpt>
      <trkpt lat="44.06069" lon="1.93282">
        <ele>220.2</ele>
        <time>2021-09-05T09:48:10Z</time>
      </trkpt>
      <trkpt lat="44.06067" lon="1.93281">
        <ele>220.4</ele>
        <time>2021-09-05T09:48:11Z</time>
      </trkpt>
      <trkpt lat="44.06067" lon="1.9328">
        <ele>220.6</ele>
        <time>2021-09-05T09:48:12Z</time>
      </trkpt>
      <trkpt lat="44.06066" lon="1.93279">
        <ele>220.8</ele>
        <time>2021-09-05T09:48:13Z</time>
      </trkpt>
      <trkpt lat="44.06065" lon="1.93279">
        <ele>221</ele>
        <time>2021-09-05T09:48:14Z</time>
      </trkpt>
      <trkpt lat="44.06064" lon="1.93278">
        <ele>221.2</ele>
        <time>2021-09-05T09:48:15Z</time>
      </trkpt>
      <trkpt lat="44.06062" lon="1.93278">
        <ele>221.4</ele>
        <time>2021-09-05T09:48:16Z</time>
      </trkpt>
      <trkpt lat="44.06061" lon="1.93277">
        <ele>221.6</ele>
        <time>2021-09-05T09:48:17Z</time>
      </trkpt>
      <trkpt lat="44.06059" lon="1.93277">
        <ele>221.8</ele>
        <time>2021-09-05T09:48:18Z</time>
      </trkpt>
      <trkpt lat="44.06058" lon="1.93277">
        <ele>221.8</ele>
        <time>2021-09-05T09:48:19Z</time>
      </trkpt>
      <trkpt lat="44.06057" lon="1.93277">
        <ele>222</ele>
        <time>2021-09-05T09:48:20Z</time>
      </trkpt>
      <trkpt lat="44.06056" lon="1.93276">
        <ele>222</ele>
        <time>2021-09-05T09:48:21Z</time>
      </trkpt>
      <trkpt lat="44.06054" lon="1.93276">
        <ele>222.4</ele>
        <time>2021-09-05T09:48:22Z</time>
      </trkpt>
      <trkpt lat="44.06053" lon="1.93276">
        <ele>222.6</ele>
        <time>2021-09-05T09:48:23Z</time>
      </trkpt>
      <trkpt lat="44.06051" lon="1.93275">
        <ele>222.8</ele>
        <time>2021-09-05T09:48:24Z</time>
      </trkpt>
      <trkpt lat="44.0605" lon="1.93274">
        <ele>223.2</ele>
        <time>2021-09-05T09:48:25Z</time>
      </trkpt>
      <trkpt lat="44.06049" lon="1.93274">
        <ele>223.4</ele>
        <time>2021-09-05T09:48:26Z</time>
      </trkpt>
      <trkpt lat="44.06048" lon="1.93273">
        <ele>223.6</ele>
        <time>2021-09-05T09:48:27Z</time>
      </trkpt>
      <trkpt lat="44.06046" lon="1.93272">
        <ele>223.8</ele>
        <time>2021-09-05T09:48:28Z</time>
      </trkpt>
      <trkpt lat="44.06045" lon="1.93271">
        <ele>224</ele>
        <time>2021-09-05T09:48:29Z</time>
      </trkpt>
      <trkpt lat="44.06044" lon="1.93269">
        <ele>224.2</ele>
        <time>2021-09-05T09:48:30Z</time>
      </trkpt>
      <trkpt lat="44.06043" lon="1.93268">
        <ele>224.4</ele>
        <time>2021-09-05T09:48:31Z</time>
      </trkpt>
      <trkpt lat="44.06042" lon="1.93266">
        <ele>224.6</ele>
        <time>2021-09-05T09:48:32Z</time>
      </trkpt>
      <trkpt lat="44.06041" lon="1.93266">
        <ele>224.8</ele>
        <time>2021-09-05T09:48:33Z</time>
      </trkpt>
      <trkpt lat="44.0604" lon="1.93265">
        <ele>225</ele>
        <time>2021-09-05T09:48:34Z</time>
      </trkpt>
      <trkpt lat="44.06039" lon="1.93264">
        <ele>225.2</ele>
        <time>2021-09-05T09:48:35Z</time>
      </trkpt>
      <trkpt lat="44.06038" lon="1.93262">
        <ele>225.4</ele>
        <time>2021-09-05T09:48:36Z</time>
      </trkpt>
      <trkpt lat="44.06037" lon="1.9326">
        <ele>225.6</ele>
        <time>2021-09-05T09:48:37Z</time>
      </trkpt>
      <trkpt lat="44.06037" lon="1.93259">
        <ele>225.6</ele>
        <time>2021-09-05T09:48:38Z</time>
      </trkpt>
      <trkpt lat="44.06036" lon="1.93257">
        <ele>226</ele>
        <time>2021-09-05T09:48:39Z</time>
      </trkpt>
      <trkpt lat="44.06035" lon="1.93255">
        <ele>226</ele>
        <time>2021-09-05T09:48:40Z</time>
      </trkpt>
      <trkpt lat="44.06035" lon="1.93254">
        <ele>226.2</ele>
        <time>2021-09-05T09:48:41Z</time>
      </trkpt>
      <trkpt lat="44.06034" lon="1.93252">
        <ele>226.4</ele>
        <time>2021-09-05T09:48:42Z</time>
      </trkpt>
      <trkpt lat="44.06033" lon="1.9325">
        <ele>226.6</ele>
        <time>2021-09-05T09:48:43Z</time>
      </trkpt>
      <trkpt lat="44.06032" lon="1.93249">
        <ele>226.8</ele>
        <time>2021-09-05T09:48:44Z</time>
      </trkpt>
      <trkpt lat="44.06031" lon="1.93248">
        <ele>227</ele>
        <time>2021-09-05T09:48:45Z</time>
      </trkpt>
      <trkpt lat="44.0603" lon="1.93246">
        <ele>227</ele>
        <time>2021-09-05T09:48:46Z</time>
      </trkpt>
      <trkpt lat="44.06029" lon="1.93245">
        <ele>227.2</ele>
        <time>2021-09-05T09:48:47Z</time>
      </trkpt>
      <trkpt lat="44.06028" lon="1.93244">
        <ele>227.2</ele>
        <time>2021-09-05T09:48:48Z</time>
      </trkpt>
      <trkpt lat="44.06028" lon="1.93242">
        <ele>227.2</ele>
        <time>2021-09-05T09:48:49Z</time>
      </trkpt>
      <trkpt lat="44.06027" lon="1.9324">
        <ele>227.6</ele>
        <time>2021-09-05T09:48:50Z</time>
      </trkpt>
      <trkpt lat="44.06025" lon="1.93239">
        <ele>227.6</ele>
        <time>2021-09-05T09:48:51Z</time>
      </trkpt>
      <trkpt lat="44.06025" lon="1.93238">
        <ele>228</ele>
        <time>2021-09-05T09:48:52Z</time>
      </trkpt>
      <trkpt lat="44.06024" lon="1.93236">
        <ele>228.2</ele>
        <time>2021-09-05T09:48:53Z</time>
      </trkpt>
      <trkpt lat="44.06023" lon="1.93235">
        <ele>228.6</ele>
        <time>2021-09-05T09:48:54Z</time>
      </trkpt>
      <trkpt lat="44.06023" lon="1.93233">
        <ele>229</ele>
        <time>2021-09-05T09:48:55Z</time>
      </trkpt>
      <trkpt lat="44.06023" lon="1.93232">
        <ele>229</ele>
        <time>2021-09-05T09:48:56Z</time>
      </trkpt>
      <trkpt lat="44.06022" lon="1.9323">
        <ele>229.2</ele>
        <time>2021-09-05T09:48:57Z</time>
      </trkpt>
      <trkpt lat="44.06022" lon="1.93228">
        <ele>229.4</ele>
        <time>2021-09-05T09:48:58Z</time>
      </trkpt>
      <trkpt lat="44.06021" lon="1.93227">
        <ele>229.4</ele>
        <time>2021-09-05T09:48:59Z</time>
      </trkpt>
      <trkpt lat="44.06021" lon="1.93225">
        <ele>229.6</ele>
        <time>2021-09-05T09:49:00Z</time>
      </trkpt>
      <trkpt lat="44.0602" lon="1.93223">
        <ele>229.8</ele>
        <time>2021-09-05T09:49:01Z</time>
      </trkpt>
      <trkpt lat="44.06019" lon="1.93222">
        <ele>230.2</ele>
        <time>2021-09-05T09:49:02Z</time>
      </trkpt>
      <trkpt lat="44.06018" lon="1.93221">
        <ele>230.4</ele>
        <time>2021-09-05T09:49:03Z</time>
      </trkpt>
      <trkpt lat="44.06018" lon="1.93219">
        <ele>230.6</ele>
        <time>2021-09-05T09:49:04Z</time>
      </trkpt>
      <trkpt lat="44.06017" lon="1.93218">
        <ele>230.6</ele>
        <time>2021-09-05T09:49:05Z</time>
      </trkpt>
      <trkpt lat="44.06016" lon="1.93216">
        <ele>230.8</ele>
        <time>2021-09-05T09:49:06Z</time>
      </trkpt>
      <trkpt lat="44.06015" lon="1.93215">
        <ele>230.8</ele>
        <time>2021-09-05T09:49:07Z</time>
      </trkpt>
      <trkpt lat="44.06014" lon="1.93214">
        <ele>231.2</ele>
        <time>2021-09-05T09:49:08Z</time>
      </trkpt>
      <trkpt lat="44.06014" lon="1.93212">
        <ele>231.4</ele>
        <time>2021-09-05T09:49:09Z</time>
      </trkpt>
      <trkpt lat="44.06013" lon="1.93211">
        <ele>231.6</ele>
        <time>2021-09-05T09:49:10Z</time>
      </trkpt>
      <trkpt lat="44.06012" lon="1.93209">
        <ele>231.8</ele>
        <time>2021-09-05T09:49:11Z</time>
      </trkpt>
      <trkpt lat="44.06012" lon="1.93208">
        <ele>231.8</ele>
        <time>2021-09-05T09:49:12Z</time>
      </trkpt>
      <trkpt lat="44.06011" lon="1.93206">
        <ele>232</ele>
        <time>2021-09-05T09:49:13Z</time>
      </trkpt>
      <trkpt lat="44.06009" lon="1.93205">
        <ele>232.2</ele>
        <time>2021-09-05T09:49:14Z</time>
      </trkpt>
      <trkpt lat="44.06009" lon="1.93203">
        <ele>232.4</ele>
        <time>2021-09-05T09:49:15Z</time>
      </trkpt>
      <trkpt lat="44.06008" lon="1.93202">
        <ele>232.6</ele>
        <time>2021-09-05T09:49:16Z</time>
      </trkpt>
      <trkpt lat="44.06007" lon="1.932">
        <ele>233</ele>
        <time>2021-09-05T09:49:17Z</time>
      </trkpt>
      <trkpt lat="44.06007" lon="1.93199">
        <ele>233.2</ele>
        <time>2021-09-05T09:49:18Z</time>
      </trkpt>
      <trkpt lat="44.06006" lon="1.93198">
        <ele>233.2</ele>
        <time>2021-09-05T09:49:19Z</time>
      </trkpt>
      <trkpt lat="44.06005" lon="1.93196">
        <ele>233.4</ele>
        <time>2021-09-05T09:49:20Z</time>
      </trkpt>
      <trkpt lat="44.06004" lon="1.93195">
        <ele>233.6</ele>
        <time>2021-09-05T09:49:21Z</time>
      </trkpt>
      <trkpt lat="44.06004" lon="1.93194">
        <ele>233.6</ele>
        <time>2021-09-05T09:49:22Z</time>
      </trkpt>
      <trkpt lat="44.06003" lon="1.93192">
        <ele>233.8</ele>
        <time>2021-09-05T09:49:23Z</time>
      </trkpt>
      <trkpt lat="44.06002" lon="1.93191">
        <ele>234</ele>
        <time>2021-09-05T09:49:24Z</time>
      </trkpt>
      <trkpt lat="44.06001" lon="1.9319">
        <ele>234.2</ele>
        <time>2021-09-05T09:49:25Z</time>
      </trkpt>
      <trkpt lat="44.06" lon="1.93188">
        <ele>234.4</ele>
        <time>2021-09-05T09:49:26Z</time>
      </trkpt>
      <trkpt lat="44.05999" lon="1.93187">
        <ele>234.8</ele>
        <time>2021-09-05T09:49:27Z</time>
      </trkpt>
      <trkpt lat="44.05998" lon="1.93185">
        <ele>234.8</ele>
        <time>2021-09-05T09:49:28Z</time>
      </trkpt>
      <trkpt lat="44.05997" lon="1.93184">
        <ele>235.4</ele>
        <time>2021-09-05T09:49:29Z</time>
      </trkpt>
      <trkpt lat="44.05997" lon="1.93182">
        <ele>235.6</ele>
        <time>2021-09-05T09:49:30Z</time>
      </trkpt>
      <trkpt lat="44.05996" lon="1.9318">
        <ele>235.8</ele>
        <time>2021-09-05T09:49:31Z</time>
      </trkpt>
      <trkpt lat="44.05995" lon="1.93178">
        <ele>235.8</ele>
        <time>2021-09-05T09:49:32Z</time>
      </trkpt>
      <trkpt lat="44.05995" lon="1.93177">
        <ele>236</ele>
        <time>2021-09-05T09:49:33Z</time>
      </trkpt>
      <trkpt lat="44.05994" lon="1.93175">
        <ele>236.2</ele>
        <time>2021-09-05T09:49:34Z</time>
      </trkpt>
      <trkpt lat="44.05993" lon="1.93174">
        <ele>236.2</ele>
        <time>2021-09-05T09:49:35Z</time>
      </trkpt>
      <trkpt lat="44.05992" lon="1.93172">
        <ele>236.4</ele>
        <time>2021-09-05T09:49:36Z</time>
      </trkpt>
      <trkpt lat="44.05991" lon="1.93171">
        <ele>236.6</ele>
        <time>2021-09-05T09:49:37Z</time>
      </trkpt>
      <trkpt lat="44.05991" lon="1.93171">
        <ele>236.8</ele>
        <time>2021-09-05T09:49:38Z</time>
      </trkpt>
      <trkpt lat="44.05989" lon="1.93168">
        <ele>237</ele>
        <time>2021-09-05T09:49:39Z</time>
      </trkpt>
      <trkpt lat="44.05988" lon="1.93166">
        <ele>237.2</ele>
        <time>2021-09-05T09:49:40Z</time>
      </trkpt>
      <trkpt lat="44.05987" lon="1.93165">
        <ele>237.6</ele>
        <time>2021-09-05T09:49:41Z</time>
      </trkpt>
      <trkpt lat="44.05986" lon="1.93164">
        <ele>237.6</ele>
        <time>2021-09-05T09:49:42Z</time>
      </trkpt>
      <trkpt lat="44.05985" lon="1.93163">
        <ele>238</ele>
        <time>2021-09-05T09:49:43Z</time>
      </trkpt>
      <trkpt lat="44.05984" lon="1.93161">
        <ele>238.2</ele>
        <time>2021-09-05T09:49:44Z</time>
      </trkpt>
      <trkpt lat="44.05983" lon="1.93161">
        <ele>238.6</ele>
        <time>2021-09-05T09:49:45Z</time>
      </trkpt>
      <trkpt lat="44.05982" lon="1.93159">
        <ele>238.6</ele>
        <time>2021-09-05T09:49:46Z</time>
      </trkpt>
      <trkpt lat="44.05981" lon="1.93158">
        <ele>238.8</ele>
        <time>2021-09-05T09:49:47Z</time>
      </trkpt>
      <trkpt lat="44.0598" lon="1.93157">
        <ele>239</ele>
        <time>2021-09-05T09:49:48Z</time>
      </trkpt>
      <trkpt lat="44.05979" lon="1.93155">
        <ele>239.2</ele>
        <time>2021-09-05T09:49:49Z</time>
      </trkpt>
      <trkpt lat="44.05978" lon="1.93154">
        <ele>239.6</ele>
        <time>2021-09-05T09:49:50Z</time>
      </trkpt>
      <trkpt lat="44.05976" lon="1.93153">
        <ele>239.8</ele>
        <time>2021-09-05T09:49:51Z</time>
      </trkpt>
      <trkpt lat="44.05975" lon="1.93152">
        <ele>240.4</ele>
        <time>2021-09-05T09:49:52Z</time>
      </trkpt>
      <trkpt lat="44.05974" lon="1.93151">
        <ele>240.4</ele>
        <time>2021-09-05T09:49:53Z</time>
      </trkpt>
      <trkpt lat="44.05973" lon="1.9315">
        <ele>240.6</ele>
        <time>2021-09-05T09:49:54Z</time>
      </trkpt>
      <trkpt lat="44.05971" lon="1.93149">
        <ele>240.6</ele>
        <time>2021-09-05T09:49:55Z</time>
      </trkpt>
      <trkpt lat="44.0597" lon="1.93147">
        <ele>240.8</ele>
        <time>2021-09-05T09:49:56Z</time>
      </trkpt>
      <trkpt lat="44.05968" lon="1.93146">
        <ele>241</ele>
        <time>2021-09-05T09:49:57Z</time>
      </trkpt>
      <trkpt lat="44.05967" lon="1.93145">
        <ele>241.2</ele>
        <time>2021-09-05T09:49:58Z</time>
      </trkpt>
      <trkpt lat="44.05966" lon="1.93144">
        <ele>241.4</ele>
        <time>2021-09-05T09:49:59Z</time>
      </trkpt>
      <trkpt lat="44.05964" lon="1.93143">
        <ele>241.4</ele>
        <time>2021-09-05T09:50:00Z</time>
      </trkpt>
      <trkpt lat="44.05963" lon="1.93142">
        <ele>241.6</ele>
        <time>2021-09-05T09:50:01Z</time>
      </trkpt>
      <trkpt lat="44.05962" lon="1.93141">
        <ele>241.8</ele>
        <time>2021-09-05T09:50:02Z</time>
      </trkpt>
      <trkpt lat="44.0596" lon="1.9314">
        <ele>241.8</ele>
        <time>2021-09-05T09:50:03Z</time>
      </trkpt>
      <trkpt lat="44.05959" lon="1.93139">
        <ele>242.2</ele>
        <time>2021-09-05T09:50:04Z</time>
      </trkpt>
      <trkpt lat="44.05957" lon="1.93138">
        <ele>242.4</ele>
        <time>2021-09-05T09:50:05Z</time>
      </trkpt>
      <trkpt lat="44.05956" lon="1.93137">
        <ele>242.6</ele>
        <time>2021-09-05T09:50:06Z</time>
      </trkpt>
      <trkpt lat="44.05955" lon="1.93137">
        <ele>242.8</ele>
        <time>2021-09-05T09:50:07Z</time>
      </trkpt>
      <trkpt lat="44.05953" lon="1.93136">
        <ele>243</ele>
        <time>2021-09-05T09:50:08Z</time>
      </trkpt>
      <trkpt lat="44.05952" lon="1.93135">
        <ele>243.2</ele>
        <time>2021-09-05T09:50:09Z</time>
      </trkpt>
      <trkpt lat="44.05951" lon="1.93134">
        <ele>243.4</ele>
        <time>2021-09-05T09:50:10Z</time>
      </trkpt>
      <trkpt lat="44.05949" lon="1.93133">
        <ele>243.6</ele>
        <time>2021-09-05T09:50:11Z</time>
      </trkpt>
      <trkpt lat="44.05948" lon="1.93133">
        <ele>244</ele>
        <time>2021-09-05T09:50:12Z</time>
      </trkpt>
      <trkpt lat="44.05947" lon="1.93132">
        <ele>244.2</ele>
        <time>2021-09-05T09:50:13Z</time>
      </trkpt>
      <trkpt lat="44.05945" lon="1.93131">
        <ele>244.2</ele>
        <time>2021-09-05T09:50:14Z</time>
      </trkpt>
      <trkpt lat="44.05944" lon="1.9313">
        <ele>244.2</ele>
        <time>2021-09-05T09:50:15Z</time>
      </trkpt>
      <trkpt lat="44.05942" lon="1.9313">
        <ele>244.4</ele>
        <time>2021-09-05T09:50:16Z</time>
      </trkpt>
      <trkpt lat="44.05941" lon="1.93129">
        <ele>244.4</ele>
        <time>2021-09-05T09:50:17Z</time>
      </trkpt>
      <trkpt lat="44.05939" lon="1.93128">
        <ele>244.6</ele>
        <time>2021-09-05T09:50:18Z</time>
      </trkpt>
      <trkpt lat="44.05937" lon="1.93127">
        <ele>245</ele>
        <time>2021-09-05T09:50:19Z</time>
      </trkpt>
      <trkpt lat="44.05936" lon="1.93127">
        <ele>245.2</ele>
        <time>2021-09-05T09:50:20Z</time>
      </trkpt>
      <trkpt lat="44.05934" lon="1.93126">
        <ele>245.4</ele>
        <time>2021-09-05T09:50:21Z</time>
      </trkpt>
      <trkpt lat="44.05933" lon="1.93125">
        <ele>245.6</ele>
        <time>2021-09-05T09:50:22Z</time>
      </trkpt>
      <trkpt lat="44.05931" lon="1.93124">
        <ele>245.8</ele>
        <time>2021-09-05T09:50:23Z</time>
      </trkpt>
      <trkpt lat="44.0593" lon="1.93124">
        <ele>246</ele>
        <time>2021-09-05T09:50:24Z</time>
      </trkpt>
      <trkpt lat="44.05928" lon="1.93123">
        <ele>246.2</ele>
        <time>2021-09-05T09:50:25Z</time>
      </trkpt>
      <trkpt lat="44.05927" lon="1.93123">
        <ele>246.4</ele>
        <time>2021-09-05T09:50:26Z</time>
      </trkpt>
      <trkpt lat="44.05925" lon="1.93122">
        <ele>246.8</ele>
        <time>2021-09-05T09:50:27Z</time>
      </trkpt>
      <trkpt lat="44.05924" lon="1.93121">
        <ele>247</ele>
        <time>2021-09-05T09:50:28Z</time>
      </trkpt>
      <trkpt lat="44.05922" lon="1.93121">
        <ele>247.4</ele>
        <time>2021-09-05T09:50:29Z</time>
      </trkpt>
      <trkpt lat="44.0592" lon="1.9312">
        <ele>247.6</ele>
        <time>2021-09-05T09:50:30Z</time>
      </trkpt>
      <trkpt lat="44.05919" lon="1.9312">
        <ele>248</ele>
        <time>2021-09-05T09:50:31Z</time>
      </trkpt>
      <trkpt lat="44.05917" lon="1.93119">
        <ele>248</ele>
        <time>2021-09-05T09:50:32Z</time>
      </trkpt>
      <trkpt lat="44.05916" lon="1.93119">
        <ele>248.2</ele>
        <time>2021-09-05T09:50:33Z</time>
      </trkpt>
      <trkpt lat="44.05914" lon="1.93118">
        <ele>248.4</ele>
        <time>2021-09-05T09:50:34Z</time>
      </trkpt>
      <trkpt lat="44.05912" lon="1.93118">
        <ele>248.8</ele>
        <time>2021-09-05T09:50:35Z</time>
      </trkpt>
      <trkpt lat="44.05912" lon="1.93118">
        <ele>249</ele>
        <time>2021-09-05T09:50:36Z</time>
      </trkpt>
      <trkpt lat="44.05909" lon="1.93117">
        <ele>249.2</ele>
        <time>2021-09-05T09:50:37Z</time>
      </trkpt>
      <trkpt lat="44.05907" lon="1.93117">
        <ele>249.6</ele>
        <time>2021-09-05T09:50:38Z</time>
      </trkpt>
      <trkpt lat="44.05906" lon="1.93117">
        <ele>249.6</ele>
        <time>2021-09-05T09:50:39Z</time>
      </trkpt>
      <trkpt lat="44.05904" lon="1.93117">
        <ele>249.8</ele>
        <time>2021-09-05T09:50:40Z</time>
      </trkpt>
      <trkpt lat="44.05902" lon="1.93117">
        <ele>249.8</ele>
        <time>2021-09-05T09:50:41Z</time>
      </trkpt>
      <trkpt lat="44.05901" lon="1.93117">
        <ele>250.4</ele>
        <time>2021-09-05T09:50:42Z</time>
      </trkpt>
      <trkpt lat="44.05899" lon="1.93118">
        <ele>250.6</ele>
        <time>2021-09-05T09:50:43Z</time>
      </trkpt>
      <trkpt lat="44.05897" lon="1.93118">
        <ele>251.2</ele>
        <time>2021-09-05T09:50:44Z</time>
      </trkpt>
      <trkpt lat="44.05895" lon="1.93119">
        <ele>251.4</ele>
        <time>2021-09-05T09:50:45Z</time>
      </trkpt>
      <trkpt lat="44.05894" lon="1.93121">
        <ele>251.6</ele>
        <time>2021-09-05T09:50:46Z</time>
      </trkpt>
      <trkpt lat="44.05893" lon="1.93122">
        <ele>251.8</ele>
        <time>2021-09-05T09:50:47Z</time>
      </trkpt>
      <trkpt lat="44.05891" lon="1.93123">
        <ele>251.8</ele>
        <time>2021-09-05T09:50:48Z</time>
      </trkpt>
      <trkpt lat="44.0589" lon="1.93125">
        <ele>251.8</ele>
        <time>2021-09-05T09:50:49Z</time>
      </trkpt>
      <trkpt lat="44.0589" lon="1.93125">
        <ele>252</ele>
        <time>2021-09-05T09:50:50Z</time>
      </trkpt>
      <trkpt lat="44.05887" lon="1.93127">
        <ele>252.2</ele>
        <time>2021-09-05T09:50:51Z</time>
      </trkpt>
      <trkpt lat="44.05885" lon="1.93128">
        <ele>252.6</ele>
        <time>2021-09-05T09:50:52Z</time>
      </trkpt>
      <trkpt lat="44.05884" lon="1.9313">
        <ele>252.8</ele>
        <time>2021-09-05T09:50:53Z</time>
      </trkpt>
      <trkpt lat="44.05883" lon="1.93131">
        <ele>253.2</ele>
        <time>2021-09-05T09:50:54Z</time>
      </trkpt>
      <trkpt lat="44.05882" lon="1.93133">
        <ele>253.4</ele>
        <time>2021-09-05T09:50:55Z</time>
      </trkpt>
      <trkpt lat="44.05881" lon="1.93134">
        <ele>253.6</ele>
        <time>2021-09-05T09:50:56Z</time>
      </trkpt>
      <trkpt lat="44.0588" lon="1.93136">
        <ele>253.6</ele>
        <time>2021-09-05T09:50:57Z</time>
      </trkpt>
      <trkpt lat="44.05879" lon="1.93138">
        <ele>253.8</ele>
        <time>2021-09-05T09:50:58Z</time>
      </trkpt>
      <trkpt lat="44.05877" lon="1.9314">
        <ele>253.8</ele>
        <time>2021-09-05T09:50:59Z</time>
      </trkpt>
      <trkpt lat="44.05876" lon="1.93142">
        <ele>254.2</ele>
        <time>2021-09-05T09:51:00Z</time>
      </trkpt>
      <trkpt lat="44.05875" lon="1.93143">
        <ele>254.4</ele>
        <time>2021-09-05T09:51:01Z</time>
      </trkpt>
      <trkpt lat="44.05873" lon="1.93145">
        <ele>254.4</ele>
        <time>2021-09-05T09:51:02Z</time>
      </trkpt>
      <trkpt lat="44.05872" lon="1.93147">
        <ele>254.4</ele>
        <time>2021-09-05T09:51:03Z</time>
      </trkpt>
      <trkpt lat="44.05871" lon="1.93149">
        <ele>254.6</ele>
        <time>2021-09-05T09:51:04Z</time>
      </trkpt>
      <trkpt lat="44.05869" lon="1.93152">
        <ele>254.6</ele>
        <time>2021-09-05T09:51:05Z</time>
      </trkpt>
      <trkpt lat="44.05868" lon="1.93154">
        <ele>254.8</ele>
        <time>2021-09-05T09:51:06Z</time>
      </trkpt>
      <trkpt lat="44.05867" lon="1.93155">
        <ele>255</ele>
        <time>2021-09-05T09:51:07Z</time>
      </trkpt>
      <trkpt lat="44.05867" lon="1.93157">
        <ele>255.4</ele>
        <time>2021-09-05T09:51:08Z</time>
      </trkpt>
      <trkpt lat="44.05866" lon="1.93159">
        <ele>255.4</ele>
        <time>2021-09-05T09:51:09Z</time>
      </trkpt>
      <trkpt lat="44.05866" lon="1.93161">
        <ele>255.8</ele>
        <time>2021-09-05T09:51:10Z</time>
      </trkpt>
      <trkpt lat="44.05865" lon="1.93164">
        <ele>256</ele>
        <time>2021-09-05T09:51:11Z</time>
      </trkpt>
      <trkpt lat="44.05865" lon="1.93166">
        <ele>256.2</ele>
        <time>2021-09-05T09:51:12Z</time>
      </trkpt>
      <trkpt lat="44.05864" lon="1.93168">
        <ele>256.4</ele>
        <time>2021-09-05T09:51:13Z</time>
      </trkpt>
      <trkpt lat="44.05863" lon="1.93169">
        <ele>256.6</ele>
        <time>2021-09-05T09:51:14Z</time>
      </trkpt>
      <trkpt lat="44.05862" lon="1.93171">
        <ele>256.8</ele>
        <time>2021-09-05T09:51:15Z</time>
      </trkpt>
      <trkpt lat="44.05861" lon="1.93173">
        <ele>257.4</ele>
        <time>2021-09-05T09:51:16Z</time>
      </trkpt>
      <trkpt lat="44.0586" lon="1.93175">
        <ele>257.8</ele>
        <time>2021-09-05T09:51:17Z</time>
      </trkpt>
      <trkpt lat="44.05859" lon="1.93177">
        <ele>258</ele>
        <time>2021-09-05T09:51:18Z</time>
      </trkpt>
      <trkpt lat="44.05858" lon="1.93179">
        <ele>258.2</ele>
        <time>2021-09-05T09:51:19Z</time>
      </trkpt>
      <trkpt lat="44.05858" lon="1.9318">
        <ele>258.4</ele>
        <time>2021-09-05T09:51:20Z</time>
      </trkpt>
      <trkpt lat="44.05857" lon="1.93182">
        <ele>258.6</ele>
        <time>2021-09-05T09:51:21Z</time>
      </trkpt>
      <trkpt lat="44.05856" lon="1.93184">
        <ele>258.8</ele>
        <time>2021-09-05T09:51:22Z</time>
      </trkpt>
      <trkpt lat="44.05856" lon="1.93186">
        <ele>259</ele>
        <time>2021-09-05T09:51:23Z</time>
      </trkpt>
      <trkpt lat="44.05855" lon="1.93188">
        <ele>259.2</ele>
        <time>2021-09-05T09:51:24Z</time>
      </trkpt>
      <trkpt lat="44.05855" lon="1.93191">
        <ele>259.6</ele>
        <time>2021-09-05T09:51:25Z</time>
      </trkpt>
      <trkpt lat="44.05855" lon="1.93193">
        <ele>259.8</ele>
        <time>2021-09-05T09:51:26Z</time>
      </trkpt>
      <trkpt lat="44.05855" lon="1.93195">
        <ele>260</ele>
        <time>2021-09-05T09:51:27Z</time>
      </trkpt>
      <trkpt lat="44.05855" lon="1.93197">
        <ele>260.2</ele>
        <time>2021-09-05T09:51:28Z</time>
      </trkpt>
      <trkpt lat="44.05854" lon="1.93199">
        <ele>260.6</ele>
        <time>2021-09-05T09:51:29Z</time>
      </trkpt>
      <trkpt lat="44.05854" lon="1.932">
        <ele>260.8</ele>
        <time>2021-09-05T09:51:30Z</time>
      </trkpt>
      <trkpt lat="44.05854" lon="1.93202">
        <ele>261.2</ele>
        <time>2021-09-05T09:51:31Z</time>
      </trkpt>
      <trkpt lat="44.05853" lon="1.93204">
        <ele>261.4</ele>
        <time>2021-09-05T09:51:32Z</time>
      </trkpt>
      <trkpt lat="44.05853" lon="1.93206">
        <ele>261.6</ele>
        <time>2021-09-05T09:51:33Z</time>
      </trkpt>
      <trkpt lat="44.05852" lon="1.93208">
        <ele>261.6</ele>
        <time>2021-09-05T09:51:34Z</time>
      </trkpt>
      <trkpt lat="44.05851" lon="1.93209">
        <ele>261.8</ele>
        <time>2021-09-05T09:51:35Z</time>
      </trkpt>
      <trkpt lat="44.05851" lon="1.9321">
        <ele>261.8</ele>
        <time>2021-09-05T09:51:36Z</time>
      </trkpt>
      <trkpt lat="44.0585" lon="1.93211">
        <ele>261.8</ele>
        <time>2021-09-05T09:51:37Z</time>
      </trkpt>
      <trkpt lat="44.0585" lon="1.93212">
        <ele>261.8</ele>
        <time>2021-09-05T09:51:38Z</time>
      </trkpt>
      <trkpt lat="44.05849" lon="1.93213">
        <ele>262.4</ele>
        <time>2021-09-05T09:51:39Z</time>
      </trkpt>
      <trkpt lat="44.05849" lon="1.93214">
        <ele>263.2</ele>
        <time>2021-09-05T09:52:17Z</time>
      </trkpt>
      <trkpt lat="44.05847" lon="1.93216">
        <ele>263.2</ele>
        <time>2021-09-05T09:52:19Z</time>
      </trkpt>
      <trkpt lat="44.05846" lon="1.93218">
        <ele>263.2</ele>
        <time>2021-09-05T09:52:20Z</time>
      </trkpt>
      <trkpt lat="44.05845" lon="1.93219">
        <ele>263.2</ele>
        <time>2021-09-05T09:52:21Z</time>
      </trkpt>
      <trkpt lat="44.0584" lon="1.93224">
        <ele>263.4</ele>
        <time>2021-09-05T09:52:24Z</time>
      </trkpt>
      <trkpt lat="44.05837" lon="1.93228">
        <ele>263.4</ele>
        <time>2021-09-05T09:52:27Z</time>
      </trkpt>
      <trkpt lat="44.05836" lon="1.93229">
        <ele>263.6</ele>
        <time>2021-09-05T09:52:28Z</time>
      </trkpt>
      <trkpt lat="44.05829" lon="1.93238">
        <ele>263.8</ele>
        <time>2021-09-05T09:52:34Z</time>
      </trkpt>
      <trkpt lat="44.05827" lon="1.93242">
        <ele>263.8</ele>
        <time>2021-09-05T09:52:36Z</time>
      </trkpt>
      <trkpt lat="44.05826" lon="1.93244">
        <ele>263.8</ele>
        <time>2021-09-05T09:52:37Z</time>
      </trkpt>
      <trkpt lat="44.0582" lon="1.93256">
        <ele>264.4</ele>
        <time>2021-09-05T09:52:42Z</time>
      </trkpt>
      <trkpt lat="44.05817" lon="1.93262">
        <ele>264.6</ele>
        <time>2021-09-05T09:52:44Z</time>
      </trkpt>
      <trkpt lat="44.05816" lon="1.93264">
        <ele>264.6</ele>
        <time>2021-09-05T09:52:45Z</time>
      </trkpt>
      <trkpt lat="44.05814" lon="1.93269">
        <ele>265</ele>
        <time>2021-09-05T09:52:47Z</time>
      </trkpt>
      <trkpt lat="44.05813" lon="1.93271">
        <ele>265.2</ele>
        <time>2021-09-05T09:52:48Z</time>
      </trkpt>
      <trkpt lat="44.0581" lon="1.93273">
        <ele>265.2</ele>
        <time>2021-09-05T09:52:49Z</time>
      </trkpt>
      <trkpt lat="44.05808" lon="1.93275">
        <ele>265.4</ele>
        <time>2021-09-05T09:52:50Z</time>
      </trkpt>
      <trkpt lat="44.0579" lon="1.93282">
        <ele>266</ele>
        <time>2021-09-05T09:52:56Z</time>
      </trkpt>
      <trkpt lat="44.05761" lon="1.93289">
        <ele>266</ele>
        <time>2021-09-05T09:53:04Z</time>
      </trkpt>
      <trkpt lat="44.05738" lon="1.93296">
        <ele>265.4</ele>
        <time>2021-09-05T09:53:09Z</time>
      </trkpt>
      <trkpt lat="44.05733" lon="1.93298">
        <ele>265.2</ele>
        <time>2021-09-05T09:53:10Z</time>
      </trkpt>
      <trkpt lat="44.05729" lon="1.93299">
        <ele>265.2</ele>
        <time>2021-09-05T09:53:11Z</time>
      </trkpt>
      <trkpt lat="44.05724" lon="1.933">
        <ele>265.2</ele>
        <time>2021-09-05T09:53:12Z</time>
      </trkpt>
      <trkpt lat="44.05719" lon="1.93301">
        <ele>265</ele>
        <time>2021-09-05T09:53:13Z</time>
      </trkpt>
      <trkpt lat="44.05706" lon="1.93305">
        <ele>264.6</ele>
        <time>2021-09-05T09:53:16Z</time>
      </trkpt>
      <trkpt lat="44.05702" lon="1.93306">
        <ele>264.4</ele>
        <time>2021-09-05T09:53:17Z</time>
      </trkpt>
      <trkpt lat="44.05699" lon="1.93307">
        <ele>264.2</ele>
        <time>2021-09-05T09:53:18Z</time>
      </trkpt>
      <trkpt lat="44.05695" lon="1.93308">
        <ele>264.2</ele>
        <time>2021-09-05T09:53:19Z</time>
      </trkpt>
      <trkpt lat="44.0569" lon="1.93309">
        <ele>264.2</ele>
        <time>2021-09-05T09:53:20Z</time>
      </trkpt>
      <trkpt lat="44.05686" lon="1.93309">
        <ele>264.2</ele>
        <time>2021-09-05T09:53:21Z</time>
      </trkpt>
      <trkpt lat="44.05683" lon="1.93309">
        <ele>264.2</ele>
        <time>2021-09-05T09:53:22Z</time>
      </trkpt>
      <trkpt lat="44.05679" lon="1.93308">
        <ele>264.2</ele>
        <time>2021-09-05T09:53:23Z</time>
      </trkpt>
      <trkpt lat="44.05661" lon="1.93302">
        <ele>264.2</ele>
        <time>2021-09-05T09:53:27Z</time>
      </trkpt>
      <trkpt lat="44.0564" lon="1.93293">
        <ele>264.2</ele>
        <time>2021-09-05T09:53:32Z</time>
      </trkpt>
      <trkpt lat="44.05635" lon="1.93292">
        <ele>264.2</ele>
        <time>2021-09-05T09:53:33Z</time>
      </trkpt>
      <trkpt lat="44.05631" lon="1.9329">
        <ele>264.4</ele>
        <time>2021-09-05T09:53:34Z</time>
      </trkpt>
      <trkpt lat="44.05626" lon="1.93288">
        <ele>264.4</ele>
        <time>2021-09-05T09:53:35Z</time>
      </trkpt>
      <trkpt lat="44.05621" lon="1.93286">
        <ele>264.6</ele>
        <time>2021-09-05T09:53:36Z</time>
      </trkpt>
      <trkpt lat="44.05618" lon="1.93285">
        <ele>264.8</ele>
        <time>2021-09-05T09:53:37Z</time>
      </trkpt>
      <trkpt lat="44.05614" lon="1.93284">
        <ele>264.8</ele>
        <time>2021-09-05T09:53:38Z</time>
      </trkpt>
      <trkpt lat="44.0561" lon="1.93283">
        <ele>265</ele>
        <time>2021-09-05T09:53:39Z</time>
      </trkpt>
      <trkpt lat="44.05605" lon="1.93281">
        <ele>265.2</ele>
        <time>2021-09-05T09:53:40Z</time>
      </trkpt>
      <trkpt lat="44.05601" lon="1.9328">
        <ele>265.4</ele>
        <time>2021-09-05T09:53:41Z</time>
      </trkpt>
      <trkpt lat="44.05598" lon="1.93279">
        <ele>265.4</ele>
        <time>2021-09-05T09:53:42Z</time>
      </trkpt>
      <trkpt lat="44.05594" lon="1.93278">
        <ele>265.4</ele>
        <time>2021-09-05T09:53:43Z</time>
      </trkpt>
      <trkpt lat="44.05572" lon="1.93269">
        <ele>265.6</ele>
        <time>2021-09-05T09:53:48Z</time>
      </trkpt>
      <trkpt lat="44.05567" lon="1.93267">
        <ele>265.6</ele>
        <time>2021-09-05T09:53:49Z</time>
      </trkpt>
      <trkpt lat="44.05561" lon="1.93264">
        <ele>265.8</ele>
        <time>2021-09-05T09:53:50Z</time>
      </trkpt>
      <trkpt lat="44.05557" lon="1.9326">
        <ele>265.8</ele>
        <time>2021-09-05T09:53:51Z</time>
      </trkpt>
      <trkpt lat="44.05553" lon="1.93255">
        <ele>265.8</ele>
        <time>2021-09-05T09:53:52Z</time>
      </trkpt>
      <trkpt lat="44.05549" lon="1.93249">
        <ele>265.8</ele>
        <time>2021-09-05T09:53:53Z</time>
      </trkpt>
      <trkpt lat="44.05545" lon="1.93244">
        <ele>265.8</ele>
        <time>2021-09-05T09:53:54Z</time>
      </trkpt>
      <trkpt lat="44.05542" lon="1.93239">
        <ele>265.8</ele>
        <time>2021-09-05T09:53:55Z</time>
      </trkpt>
      <trkpt lat="44.05539" lon="1.93234">
        <ele>265.8</ele>
        <time>2021-09-05T09:53:56Z</time>
      </trkpt>
      <trkpt lat="44.05537" lon="1.93231">
        <ele>266</ele>
        <time>2021-09-05T09:53:57Z</time>
      </trkpt>
      <trkpt lat="44.05535" lon="1.93227">
        <ele>266</ele>
        <time>2021-09-05T09:53:58Z</time>
      </trkpt>
      <trkpt lat="44.05533" lon="1.93224">
        <ele>266.2</ele>
        <time>2021-09-05T09:53:59Z</time>
      </trkpt>
      <trkpt lat="44.05531" lon="1.93221">
        <ele>266.2</ele>
        <time>2021-09-05T09:54:00Z</time>
      </trkpt>
      <trkpt lat="44.05529" lon="1.93219">
        <ele>266.2</ele>
        <time>2021-09-05T09:54:01Z</time>
      </trkpt>
      <trkpt lat="44.05527" lon="1.93217">
        <ele>266.4</ele>
        <time>2021-09-05T09:54:02Z</time>
      </trkpt>
      <trkpt lat="44.05525" lon="1.93216">
        <ele>266.4</ele>
        <time>2021-09-05T09:54:03Z</time>
      </trkpt>
      <trkpt lat="44.05522" lon="1.93214">
        <ele>266.4</ele>
        <time>2021-09-05T09:54:04Z</time>
      </trkpt>
      <trkpt lat="44.0551" lon="1.93205">
        <ele>267.4</ele>
        <time>2021-09-05T09:54:09Z</time>
      </trkpt>
      <trkpt lat="44.05507" lon="1.93203">
        <ele>267.6</ele>
        <time>2021-09-05T09:54:10Z</time>
      </trkpt>
      <trkpt lat="44.05501" lon="1.93198">
        <ele>268.2</ele>
        <time>2021-09-05T09:54:12Z</time>
      </trkpt>
      <trkpt lat="44.05499" lon="1.93196">
        <ele>268.4</ele>
        <time>2021-09-05T09:54:13Z</time>
      </trkpt>
      <trkpt lat="44.05488" lon="1.93186">
        <ele>268.8</ele>
        <time>2021-09-05T09:54:17Z</time>
      </trkpt>
      <trkpt lat="44.05485" lon="1.93184">
        <ele>269</ele>
        <time>2021-09-05T09:54:18Z</time>
      </trkpt>
      <trkpt lat="44.05482" lon="1.93181">
        <ele>269.2</ele>
        <time>2021-09-05T09:54:19Z</time>
      </trkpt>
      <trkpt lat="44.05479" lon="1.93179">
        <ele>269.2</ele>
        <time>2021-09-05T09:54:20Z</time>
      </trkpt>
      <trkpt lat="44.05475" lon="1.93176">
        <ele>269.4</ele>
        <time>2021-09-05T09:54:21Z</time>
      </trkpt>
      <trkpt lat="44.05472" lon="1.93173">
        <ele>269.4</ele>
        <time>2021-09-05T09:54:22Z</time>
      </trkpt>
      <trkpt lat="44.05469" lon="1.93171">
        <ele>269.4</ele>
        <time>2021-09-05T09:54:23Z</time>
      </trkpt>
      <trkpt lat="44.05466" lon="1.93168">
        <ele>269.6</ele>
        <time>2021-09-05T09:54:24Z</time>
      </trkpt>
      <trkpt lat="44.05463" lon="1.93165">
        <ele>269.6</ele>
        <time>2021-09-05T09:54:25Z</time>
      </trkpt>
      <trkpt lat="44.05459" lon="1.93163">
        <ele>269.6</ele>
        <time>2021-09-05T09:54:26Z</time>
      </trkpt>
      <trkpt lat="44.05456" lon="1.9316">
        <ele>269.6</ele>
        <time>2021-09-05T09:54:27Z</time>
      </trkpt>
      <trkpt lat="44.05453" lon="1.93157">
        <ele>269.6</ele>
        <time>2021-09-05T09:54:28Z</time>
      </trkpt>
      <trkpt lat="44.0545" lon="1.93155">
        <ele>269.8</ele>
        <time>2021-09-05T09:54:29Z</time>
      </trkpt>
      <trkpt lat="44.05448" lon="1.93153">
        <ele>269.8</ele>
        <time>2021-09-05T09:54:30Z</time>
      </trkpt>
      <trkpt lat="44.05445" lon="1.9315">
        <ele>270</ele>
        <time>2021-09-05T09:54:31Z</time>
      </trkpt>
      <trkpt lat="44.05442" lon="1.93147">
        <ele>270</ele>
        <time>2021-09-05T09:54:32Z</time>
      </trkpt>
      <trkpt lat="44.05439" lon="1.93145">
        <ele>270</ele>
        <time>2021-09-05T09:54:33Z</time>
      </trkpt>
      <trkpt lat="44.05437" lon="1.93142">
        <ele>270.4</ele>
        <time>2021-09-05T09:54:34Z</time>
      </trkpt>
      <trkpt lat="44.05435" lon="1.9314">
        <ele>270.4</ele>
        <time>2021-09-05T09:54:35Z</time>
      </trkpt>
      <trkpt lat="44.05433" lon="1.93138">
        <ele>270.6</ele>
        <time>2021-09-05T09:54:36Z</time>
      </trkpt>
      <trkpt lat="44.05431" lon="1.93136">
        <ele>270.6</ele>
        <time>2021-09-05T09:54:37Z</time>
      </trkpt>
      <trkpt lat="44.05429" lon="1.93135">
        <ele>270.8</ele>
        <time>2021-09-05T09:54:38Z</time>
      </trkpt>
      <trkpt lat="44.05427" lon="1.93133">
        <ele>270.8</ele>
        <time>2021-09-05T09:54:39Z</time>
      </trkpt>
      <trkpt lat="44.05425" lon="1.93131">
        <ele>271</ele>
        <time>2021-09-05T09:54:40Z</time>
      </trkpt>
      <trkpt lat="44.05423" lon="1.93129">
        <ele>271.2</ele>
        <time>2021-09-05T09:54:41Z</time>
      </trkpt>
      <trkpt lat="44.05421" lon="1.93128">
        <ele>271.2</ele>
        <time>2021-09-05T09:54:42Z</time>
      </trkpt>
      <trkpt lat="44.05419" lon="1.93126">
        <ele>271.2</ele>
        <time>2021-09-05T09:54:43Z</time>
      </trkpt>
      <trkpt lat="44.05417" lon="1.93125">
        <ele>271.2</ele>
        <time>2021-09-05T09:54:44Z</time>
      </trkpt>
      <trkpt lat="44.05415" lon="1.93123">
        <ele>271.4</ele>
        <time>2021-09-05T09:54:45Z</time>
      </trkpt>
      <trkpt lat="44.05414" lon="1.93121">
        <ele>271.4</ele>
        <time>2021-09-05T09:54:46Z</time>
      </trkpt>
      <trkpt lat="44.05411" lon="1.9312">
        <ele>271.6</ele>
        <time>2021-09-05T09:54:47Z</time>
      </trkpt>
      <trkpt lat="44.05409" lon="1.93118">
        <ele>271.6</ele>
        <time>2021-09-05T09:54:48Z</time>
      </trkpt>
      <trkpt lat="44.05407" lon="1.93116">
        <ele>272</ele>
        <time>2021-09-05T09:54:49Z</time>
      </trkpt>
      <trkpt lat="44.05405" lon="1.93115">
        <ele>272.2</ele>
        <time>2021-09-05T09:54:50Z</time>
      </trkpt>
      <trkpt lat="44.05404" lon="1.93113">
        <ele>272.2</ele>
        <time>2021-09-05T09:54:51Z</time>
      </trkpt>
      <trkpt lat="44.05402" lon="1.93112">
        <ele>272.6</ele>
        <time>2021-09-05T09:54:52Z</time>
      </trkpt>
      <trkpt lat="44.054" lon="1.9311">
        <ele>272.6</ele>
        <time>2021-09-05T09:54:53Z</time>
      </trkpt>
      <trkpt lat="44.05398" lon="1.93108">
        <ele>273</ele>
        <time>2021-09-05T09:54:54Z</time>
      </trkpt>
      <trkpt lat="44.05395" lon="1.93107">
        <ele>273.2</ele>
        <time>2021-09-05T09:54:55Z</time>
      </trkpt>
      <trkpt lat="44.05394" lon="1.93105">
        <ele>273.4</ele>
        <time>2021-09-05T09:54:56Z</time>
      </trkpt>
      <trkpt lat="44.05392" lon="1.93103">
        <ele>273.8</ele>
        <time>2021-09-05T09:54:57Z</time>
      </trkpt>
      <trkpt lat="44.0539" lon="1.93102">
        <ele>273.8</ele>
        <time>2021-09-05T09:54:58Z</time>
      </trkpt>
      <trkpt lat="44.05387" lon="1.931">
        <ele>274</ele>
        <time>2021-09-05T09:54:59Z</time>
      </trkpt>
      <trkpt lat="44.05386" lon="1.93098">
        <ele>274.2</ele>
        <time>2021-09-05T09:55:00Z</time>
      </trkpt>
      <trkpt lat="44.05383" lon="1.93097">
        <ele>274.8</ele>
        <time>2021-09-05T09:55:01Z</time>
      </trkpt>
      <trkpt lat="44.05381" lon="1.93096">
        <ele>275</ele>
        <time>2021-09-05T09:55:02Z</time>
      </trkpt>
      <trkpt lat="44.05379" lon="1.93095">
        <ele>275.2</ele>
        <time>2021-09-05T09:55:03Z</time>
      </trkpt>
      <trkpt lat="44.05377" lon="1.93094">
        <ele>275.4</ele>
        <time>2021-09-05T09:55:04Z</time>
      </trkpt>
      <trkpt lat="44.05374" lon="1.93093">
        <ele>275.6</ele>
        <time>2021-09-05T09:55:05Z</time>
      </trkpt>
      <trkpt lat="44.05372" lon="1.93092">
        <ele>276</ele>
        <time>2021-09-05T09:55:06Z</time>
      </trkpt>
      <trkpt lat="44.05369" lon="1.93092">
        <ele>276.2</ele>
        <time>2021-09-05T09:55:07Z</time>
      </trkpt>
      <trkpt lat="44.05367" lon="1.93092">
        <ele>276.8</ele>
        <time>2021-09-05T09:55:08Z</time>
      </trkpt>
      <trkpt lat="44.05365" lon="1.93092">
        <ele>277.2</ele>
        <time>2021-09-05T09:55:09Z</time>
      </trkpt>
      <trkpt lat="44.05362" lon="1.93092">
        <ele>277.6</ele>
        <time>2021-09-05T09:55:10Z</time>
      </trkpt>
      <trkpt lat="44.05359" lon="1.93092">
        <ele>277.8</ele>
        <time>2021-09-05T09:55:11Z</time>
      </trkpt>
      <trkpt lat="44.05357" lon="1.93092">
        <ele>278</ele>
        <time>2021-09-05T09:55:12Z</time>
      </trkpt>
      <trkpt lat="44.05354" lon="1.93092">
        <ele>278.2</ele>
        <time>2021-09-05T09:55:13Z</time>
      </trkpt>
      <trkpt lat="44.05351" lon="1.93092">
        <ele>278.4</ele>
        <time>2021-09-05T09:55:14Z</time>
      </trkpt>
      <trkpt lat="44.05348" lon="1.93092">
        <ele>278.6</ele>
        <time>2021-09-05T09:55:15Z</time>
      </trkpt>
      <trkpt lat="44.05346" lon="1.93092">
        <ele>278.6</ele>
        <time>2021-09-05T09:55:16Z</time>
      </trkpt>
      <trkpt lat="44.05343" lon="1.93093">
        <ele>278.8</ele>
        <time>2021-09-05T09:55:17Z</time>
      </trkpt>
      <trkpt lat="44.05341" lon="1.93093">
        <ele>278.8</ele>
        <time>2021-09-05T09:55:18Z</time>
      </trkpt>
      <trkpt lat="44.05339" lon="1.93094">
        <ele>279.2</ele>
        <time>2021-09-05T09:55:19Z</time>
      </trkpt>
      <trkpt lat="44.05336" lon="1.93095">
        <ele>279.4</ele>
        <time>2021-09-05T09:55:20Z</time>
      </trkpt>
      <trkpt lat="44.05334" lon="1.93096">
        <ele>279.4</ele>
        <time>2021-09-05T09:55:21Z</time>
      </trkpt>
      <trkpt lat="44.05332" lon="1.93096">
        <ele>279.8</ele>
        <time>2021-09-05T09:55:22Z</time>
      </trkpt>
      <trkpt lat="44.05331" lon="1.93096">
        <ele>279.8</ele>
        <time>2021-09-05T09:55:23Z</time>
      </trkpt>
      <trkpt lat="44.05329" lon="1.93097">
        <ele>279.8</ele>
        <time>2021-09-05T09:55:24Z</time>
      </trkpt>
      <trkpt lat="44.05328" lon="1.93097">
        <ele>280</ele>
        <time>2021-09-05T09:55:25Z</time>
      </trkpt>
      <trkpt lat="44.05327" lon="1.93098">
        <ele>280.2</ele>
        <time>2021-09-05T09:55:26Z</time>
      </trkpt>
      <trkpt lat="44.05325" lon="1.93098">
        <ele>280.4</ele>
        <time>2021-09-05T09:55:27Z</time>
      </trkpt>
      <trkpt lat="44.05323" lon="1.93098">
        <ele>281</ele>
        <time>2021-09-05T09:55:28Z</time>
      </trkpt>
      <trkpt lat="44.05321" lon="1.93099">
        <ele>281.2</ele>
        <time>2021-09-05T09:55:29Z</time>
      </trkpt>
      <trkpt lat="44.05319" lon="1.931">
        <ele>281.2</ele>
        <time>2021-09-05T09:55:30Z</time>
      </trkpt>
      <trkpt lat="44.05318" lon="1.93101">
        <ele>281.4</ele>
        <time>2021-09-05T09:55:31Z</time>
      </trkpt>
      <trkpt lat="44.05316" lon="1.93102">
        <ele>281.4</ele>
        <time>2021-09-05T09:55:32Z</time>
      </trkpt>
      <trkpt lat="44.05315" lon="1.93103">
        <ele>281.4</ele>
        <time>2021-09-05T09:55:33Z</time>
      </trkpt>
      <trkpt lat="44.05312" lon="1.93104">
        <ele>281.6</ele>
        <time>2021-09-05T09:55:34Z</time>
      </trkpt>
      <trkpt lat="44.0531" lon="1.93104">
        <ele>281.6</ele>
        <time>2021-09-05T09:55:35Z</time>
      </trkpt>
      <trkpt lat="44.05307" lon="1.93104">
        <ele>281.6</ele>
        <time>2021-09-05T09:55:36Z</time>
      </trkpt>
      <trkpt lat="44.05303" lon="1.93102">
        <ele>281.6</ele>
        <time>2021-09-05T09:55:37Z</time>
      </trkpt>
      <trkpt lat="44.053" lon="1.93099">
        <ele>281.6</ele>
        <time>2021-09-05T09:55:38Z</time>
      </trkpt>
      <trkpt lat="44.05295" lon="1.93095">
        <ele>281.6</ele>
        <time>2021-09-05T09:55:39Z</time>
      </trkpt>
      <trkpt lat="44.05292" lon="1.93092">
        <ele>281.4</ele>
        <time>2021-09-05T09:55:40Z</time>
      </trkpt>
      <trkpt lat="44.05288" lon="1.93089">
        <ele>281.2</ele>
        <time>2021-09-05T09:55:41Z</time>
      </trkpt>
      <trkpt lat="44.05284" lon="1.93085">
        <ele>281</ele>
        <time>2021-09-05T09:55:42Z</time>
      </trkpt>
      <trkpt lat="44.05279" lon="1.93079">
        <ele>280.8</ele>
        <time>2021-09-05T09:55:43Z</time>
      </trkpt>
      <trkpt lat="44.05274" lon="1.93075">
        <ele>280.4</ele>
        <time>2021-09-05T09:55:44Z</time>
      </trkpt>
      <trkpt lat="44.0527" lon="1.9307">
        <ele>280.2</ele>
        <time>2021-09-05T09:55:45Z</time>
      </trkpt>
      <trkpt lat="44.05265" lon="1.93066">
        <ele>280.2</ele>
        <time>2021-09-05T09:55:46Z</time>
      </trkpt>
      <trkpt lat="44.0526" lon="1.93061">
        <ele>279.8</ele>
        <time>2021-09-05T09:55:47Z</time>
      </trkpt>
      <trkpt lat="44.0524" lon="1.93038">
        <ele>279</ele>
        <time>2021-09-05T09:55:51Z</time>
      </trkpt>
      <trkpt lat="44.05235" lon="1.9303">
        <ele>278.2</ele>
        <time>2021-09-05T09:55:52Z</time>
      </trkpt>
      <trkpt lat="44.05231" lon="1.93022">
        <ele>277.8</ele>
        <time>2021-09-05T09:55:53Z</time>
      </trkpt>
      <trkpt lat="44.05228" lon="1.93013">
        <ele>277.4</ele>
        <time>2021-09-05T09:55:54Z</time>
      </trkpt>
      <trkpt lat="44.05225" lon="1.93005">
        <ele>277.2</ele>
        <time>2021-09-05T09:55:55Z</time>
      </trkpt>
      <trkpt lat="44.05223" lon="1.92999">
        <ele>276.8</ele>
        <time>2021-09-05T09:55:56Z</time>
      </trkpt>
      <trkpt lat="44.05218" lon="1.92982">
        <ele>275.6</ele>
        <time>2021-09-05T09:55:58Z</time>
      </trkpt>
      <trkpt lat="44.05215" lon="1.92974">
        <ele>275.2</ele>
        <time>2021-09-05T09:55:59Z</time>
      </trkpt>
      <trkpt lat="44.05213" lon="1.92967">
        <ele>274.6</ele>
        <time>2021-09-05T09:56:00Z</time>
      </trkpt>
      <trkpt lat="44.0521" lon="1.9296">
        <ele>274</ele>
        <time>2021-09-05T09:56:01Z</time>
      </trkpt>
      <trkpt lat="44.05207" lon="1.92953">
        <ele>273.4</ele>
        <time>2021-09-05T09:56:02Z</time>
      </trkpt>
      <trkpt lat="44.05203" lon="1.92947">
        <ele>272.4</ele>
        <time>2021-09-05T09:56:03Z</time>
      </trkpt>
      <trkpt lat="44.05199" lon="1.92941">
        <ele>271.8</ele>
        <time>2021-09-05T09:56:04Z</time>
      </trkpt>
      <trkpt lat="44.05195" lon="1.92936">
        <ele>271.4</ele>
        <time>2021-09-05T09:56:05Z</time>
      </trkpt>
      <trkpt lat="44.05191" lon="1.92931">
        <ele>271</ele>
        <time>2021-09-05T09:56:06Z</time>
      </trkpt>
      <trkpt lat="44.05188" lon="1.92925">
        <ele>270.6</ele>
        <time>2021-09-05T09:56:07Z</time>
      </trkpt>
      <trkpt lat="44.05185" lon="1.9292">
        <ele>270</ele>
        <time>2021-09-05T09:56:08Z</time>
      </trkpt>
      <trkpt lat="44.05182" lon="1.92914">
        <ele>269.4</ele>
        <time>2021-09-05T09:56:09Z</time>
      </trkpt>
      <trkpt lat="44.05181" lon="1.9291">
        <ele>268.8</ele>
        <time>2021-09-05T09:56:10Z</time>
      </trkpt>
      <trkpt lat="44.0518" lon="1.92906">
        <ele>268.6</ele>
        <time>2021-09-05T09:56:11Z</time>
      </trkpt>
      <trkpt lat="44.0518" lon="1.92903">
        <ele>268.4</ele>
        <time>2021-09-05T09:56:12Z</time>
      </trkpt>
      <trkpt lat="44.05179" lon="1.92901">
        <ele>268.4</ele>
        <time>2021-09-05T09:56:13Z</time>
      </trkpt>
      <trkpt lat="44.05178" lon="1.92897">
        <ele>267.6</ele>
        <time>2021-09-05T09:56:14Z</time>
      </trkpt>
      <trkpt lat="44.05176" lon="1.92894">
        <ele>267.4</ele>
        <time>2021-09-05T09:56:15Z</time>
      </trkpt>
      <trkpt lat="44.05175" lon="1.92892">
        <ele>266.8</ele>
        <time>2021-09-05T09:56:16Z</time>
      </trkpt>
      <trkpt lat="44.05172" lon="1.92888">
        <ele>266.4</ele>
        <time>2021-09-05T09:56:17Z</time>
      </trkpt>
      <trkpt lat="44.05171" lon="1.92884">
        <ele>266.2</ele>
        <time>2021-09-05T09:56:18Z</time>
      </trkpt>
      <trkpt lat="44.05165" lon="1.92873">
        <ele>265.4</ele>
        <time>2021-09-05T09:56:21Z</time>
      </trkpt>
      <trkpt lat="44.05163" lon="1.9287">
        <ele>265</ele>
        <time>2021-09-05T09:56:22Z</time>
      </trkpt>
      <trkpt lat="44.05161" lon="1.92867">
        <ele>264.8</ele>
        <time>2021-09-05T09:56:23Z</time>
      </trkpt>
      <trkpt lat="44.05158" lon="1.92864">
        <ele>264</ele>
        <time>2021-09-05T09:56:24Z</time>
      </trkpt>
      <trkpt lat="44.05156" lon="1.92862">
        <ele>263.8</ele>
        <time>2021-09-05T09:56:25Z</time>
      </trkpt>
      <trkpt lat="44.05155" lon="1.9286">
        <ele>263</ele>
        <time>2021-09-05T09:56:26Z</time>
      </trkpt>
      <trkpt lat="44.05152" lon="1.92856">
        <ele>262.8</ele>
        <time>2021-09-05T09:56:27Z</time>
      </trkpt>
      <trkpt lat="44.05148" lon="1.92846">
        <ele>261.8</ele>
        <time>2021-09-05T09:56:29Z</time>
      </trkpt>
      <trkpt lat="44.05143" lon="1.92841">
        <ele>261.2</ele>
        <time>2021-09-05T09:56:30Z</time>
      </trkpt>
      <trkpt lat="44.0514" lon="1.92838">
        <ele>260.6</ele>
        <time>2021-09-05T09:56:31Z</time>
      </trkpt>
      <trkpt lat="44.05135" lon="1.92836">
        <ele>260.4</ele>
        <time>2021-09-05T09:56:32Z</time>
      </trkpt>
      <trkpt lat="44.0513" lon="1.92833">
        <ele>259.4</ele>
        <time>2021-09-05T09:56:33Z</time>
      </trkpt>
      <trkpt lat="44.05126" lon="1.9283">
        <ele>258.8</ele>
        <time>2021-09-05T09:56:34Z</time>
      </trkpt>
      <trkpt lat="44.05121" lon="1.92824">
        <ele>257.4</ele>
        <time>2021-09-05T09:56:35Z</time>
      </trkpt>
      <trkpt lat="44.05118" lon="1.92818">
        <ele>256.8</ele>
        <time>2021-09-05T09:56:36Z</time>
      </trkpt>
      <trkpt lat="44.05114" lon="1.92811">
        <ele>256.4</ele>
        <time>2021-09-05T09:56:37Z</time>
      </trkpt>
      <trkpt lat="44.05111" lon="1.92804">
        <ele>256.2</ele>
        <time>2021-09-05T09:56:38Z</time>
      </trkpt>
      <trkpt lat="44.05109" lon="1.92799">
        <ele>256.2</ele>
        <time>2021-09-05T09:56:39Z</time>
      </trkpt>
      <trkpt lat="44.05107" lon="1.92795">
        <ele>256</ele>
        <time>2021-09-05T09:56:40Z</time>
      </trkpt>
      <trkpt lat="44.05105" lon="1.92792">
        <ele>256</ele>
        <time>2021-09-05T09:56:41Z</time>
      </trkpt>
      <trkpt lat="44.05103" lon="1.92787">
        <ele>255.8</ele>
        <time>2021-09-05T09:56:42Z</time>
      </trkpt>
      <trkpt lat="44.05102" lon="1.92783">
        <ele>255.6</ele>
        <time>2021-09-05T09:56:43Z</time>
      </trkpt>
      <trkpt lat="44.051" lon="1.92777">
        <ele>255.6</ele>
        <time>2021-09-05T09:56:44Z</time>
      </trkpt>
      <trkpt lat="44.05099" lon="1.92773">
        <ele>255.6</ele>
        <time>2021-09-05T09:56:45Z</time>
      </trkpt>
      <trkpt lat="44.05097" lon="1.92769">
        <ele>255.6</ele>
        <time>2021-09-05T09:56:46Z</time>
      </trkpt>
      <trkpt lat="44.05094" lon="1.92765">
        <ele>255.6</ele>
        <time>2021-09-05T09:56:47Z</time>
      </trkpt>
      <trkpt lat="44.05091" lon="1.92762">
        <ele>255.6</ele>
        <time>2021-09-05T09:56:48Z</time>
      </trkpt>
      <trkpt lat="44.05088" lon="1.92759">
        <ele>255.6</ele>
        <time>2021-09-05T09:56:49Z</time>
      </trkpt>
      <trkpt lat="44.05086" lon="1.92756">
        <ele>255.6</ele>
        <time>2021-09-05T09:56:50Z</time>
      </trkpt>
      <trkpt lat="44.05084" lon="1.92754">
        <ele>255.8</ele>
        <time>2021-09-05T09:56:51Z</time>
      </trkpt>
      <trkpt lat="44.05082" lon="1.92753">
        <ele>255.8</ele>
        <time>2021-09-05T09:56:52Z</time>
      </trkpt>
      <trkpt lat="44.05081" lon="1.92752">
        <ele>256</ele>
        <time>2021-09-05T09:56:53Z</time>
      </trkpt>
      <trkpt lat="44.05079" lon="1.92751">
        <ele>256</ele>
        <time>2021-09-05T09:56:54Z</time>
      </trkpt>
      <trkpt lat="44.05078" lon="1.9275">
        <ele>256.2</ele>
        <time>2021-09-05T09:56:55Z</time>
      </trkpt>
      <trkpt lat="44.05077" lon="1.92751">
        <ele>256.2</ele>
        <time>2021-09-05T09:56:56Z</time>
      </trkpt>
      <trkpt lat="44.05077" lon="1.92752">
        <ele>256.2</ele>
        <time>2021-09-05T09:56:57Z</time>
      </trkpt>
      <trkpt lat="44.05076" lon="1.92752">
        <ele>256.2</ele>
        <time>2021-09-05T09:56:58Z</time>
      </trkpt>
      <trkpt lat="44.05074" lon="1.92752">
        <ele>256.2</ele>
        <time>2021-09-05T09:56:59Z</time>
      </trkpt>
      <trkpt lat="44.05073" lon="1.92753">
        <ele>256.2</ele>
        <time>2021-09-05T09:57:00Z</time>
      </trkpt>
      <trkpt lat="44.05072" lon="1.92754">
        <ele>256.2</ele>
        <time>2021-09-05T09:57:01Z</time>
      </trkpt>
      <trkpt lat="44.05067" lon="1.92759">
        <ele>256</ele>
        <time>2021-09-05T09:57:04Z</time>
      </trkpt>
      <trkpt lat="44.05066" lon="1.92761">
        <ele>256</ele>
        <time>2021-09-05T09:57:05Z</time>
      </trkpt>
      <trkpt lat="44.05065" lon="1.92763">
        <ele>255.8</ele>
        <time>2021-09-05T09:57:06Z</time>
      </trkpt>
      <trkpt lat="44.05064" lon="1.92764">
        <ele>255.8</ele>
        <time>2021-09-05T09:57:07Z</time>
      </trkpt>
      <trkpt lat="44.05062" lon="1.92764">
        <ele>255.6</ele>
        <time>2021-09-05T09:57:08Z</time>
      </trkpt>
      <trkpt lat="44.0506" lon="1.92765">
        <ele>255.2</ele>
        <time>2021-09-05T09:57:09Z</time>
      </trkpt>
      <trkpt lat="44.05057" lon="1.92764">
        <ele>255</ele>
        <time>2021-09-05T09:57:10Z</time>
      </trkpt>
      <trkpt lat="44.05054" lon="1.92763">
        <ele>254.8</ele>
        <time>2021-09-05T09:57:11Z</time>
      </trkpt>
      <trkpt lat="44.05052" lon="1.92764">
        <ele>254.2</ele>
        <time>2021-09-05T09:57:12Z</time>
      </trkpt>
      <trkpt lat="44.05051" lon="1.92766">
        <ele>253.8</ele>
        <time>2021-09-05T09:57:13Z</time>
      </trkpt>
      <trkpt lat="44.0505" lon="1.9277">
        <ele>253.4</ele>
        <time>2021-09-05T09:57:14Z</time>
      </trkpt>
      <trkpt lat="44.05048" lon="1.92774">
        <ele>253.2</ele>
        <time>2021-09-05T09:57:15Z</time>
      </trkpt>
      <trkpt lat="44.05046" lon="1.92777">
        <ele>253</ele>
        <time>2021-09-05T09:57:16Z</time>
      </trkpt>
      <trkpt lat="44.05045" lon="1.92779">
        <ele>252.8</ele>
        <time>2021-09-05T09:57:17Z</time>
      </trkpt>
      <trkpt lat="44.05042" lon="1.92786">
        <ele>251.8</ele>
        <time>2021-09-05T09:57:19Z</time>
      </trkpt>
      <trkpt lat="44.05041" lon="1.9279">
        <ele>251.8</ele>
        <time>2021-09-05T09:57:20Z</time>
      </trkpt>
      <trkpt lat="44.05039" lon="1.92792">
        <ele>251.6</ele>
        <time>2021-09-05T09:57:21Z</time>
      </trkpt>
      <trkpt lat="44.05037" lon="1.92793">
        <ele>251.6</ele>
        <time>2021-09-05T09:57:22Z</time>
      </trkpt>
      <trkpt lat="44.05037" lon="1.92794">
        <ele>251.6</ele>
        <time>2021-09-05T09:57:23Z</time>
      </trkpt>
      <trkpt lat="44.05036" lon="1.92795">
        <ele>251.4</ele>
        <time>2021-09-05T09:57:24Z</time>
      </trkpt>
      <trkpt lat="44.05036" lon="1.92797">
        <ele>251.6</ele>
        <time>2021-09-05T09:57:25Z</time>
      </trkpt>
      <trkpt lat="44.05035" lon="1.928">
        <ele>251.6</ele>
        <time>2021-09-05T09:57:26Z</time>
      </trkpt>
      <trkpt lat="44.05036" lon="1.92802">
        <ele>251.8</ele>
        <time>2021-09-05T09:57:27Z</time>
      </trkpt>
      <trkpt lat="44.05036" lon="1.92804">
        <ele>252</ele>
        <time>2021-09-05T09:57:28Z</time>
      </trkpt>
      <trkpt lat="44.05037" lon="1.92806">
        <ele>252</ele>
        <time>2021-09-05T09:57:29Z</time>
      </trkpt>
      <trkpt lat="44.05038" lon="1.92806">
        <ele>252</ele>
        <time>2021-09-05T09:57:30Z</time>
      </trkpt>
      <trkpt lat="44.05038" lon="1.92812">
        <ele>251.8</ele>
        <time>2021-09-05T09:57:32Z</time>
      </trkpt>
      <trkpt lat="44.05038" lon="1.92814">
        <ele>251.8</ele>
        <time>2021-09-05T09:57:33Z</time>
      </trkpt>
      <trkpt lat="44.05039" lon="1.92816">
        <ele>251.6</ele>
        <time>2021-09-05T09:57:34Z</time>
      </trkpt>
      <trkpt lat="44.05039" lon="1.92818">
        <ele>251.6</ele>
        <time>2021-09-05T09:57:35Z</time>
      </trkpt>
      <trkpt lat="44.05038" lon="1.92821">
        <ele>251.6</ele>
        <time>2021-09-05T09:57:36Z</time>
      </trkpt>
      <trkpt lat="44.05037" lon="1.92822">
        <ele>251.4</ele>
        <time>2021-09-05T09:57:37Z</time>
      </trkpt>
      <trkpt lat="44.05036" lon="1.92823">
        <ele>251.2</ele>
        <time>2021-09-05T09:57:38Z</time>
      </trkpt>
      <trkpt lat="44.05036" lon="1.92824">
        <ele>250.8</ele>
        <time>2021-09-05T09:57:39Z</time>
      </trkpt>
      <trkpt lat="44.05036" lon="1.92824">
        <ele>250.6</ele>
        <time>2021-09-05T09:57:40Z</time>
      </trkpt>
      <trkpt lat="44.05036" lon="1.92824">
        <ele>250.6</ele>
        <time>2021-09-05T09:57:41Z</time>
      </trkpt>
      <trkpt lat="44.05036" lon="1.92826">
        <ele>250.4</ele>
        <time>2021-09-05T09:57:42Z</time>
      </trkpt>
      <trkpt lat="44.05036" lon="1.92827">
        <ele>250.4</ele>
        <time>2021-09-05T09:57:43Z</time>
      </trkpt>
      <trkpt lat="44.05035" lon="1.92827">
        <ele>250.2</ele>
        <time>2021-09-05T09:57:44Z</time>
      </trkpt>
      <trkpt lat="44.05035" lon="1.92814">
        <ele>248.6</ele>
        <time>2021-09-05T10:00:41Z</time>
      </trkpt>
      <trkpt lat="44.05034" lon="1.92815">
        <ele>248.6</ele>
        <time>2021-09-05T10:00:42Z</time>
      </trkpt>
      <trkpt lat="44.05028" lon="1.92815">
        <ele>248.6</ele>
        <time>2021-09-05T10:00:43Z</time>
      </trkpt>
      <trkpt lat="44.05033" lon="1.9281">
        <ele>248.6</ele>
        <time>2021-09-05T10:00:44Z</time>
      </trkpt>
      <trkpt lat="44.05027" lon="1.92833">
        <ele>247.6</ele>
        <time>2021-09-05T10:02:13Z</time>
      </trkpt>
      <trkpt lat="44.05027" lon="1.92831">
        <ele>247.6</ele>
        <time>2021-09-05T10:02:14Z</time>
      </trkpt>
      <trkpt lat="44.05026" lon="1.9282">
        <ele>247.6</ele>
        <time>2021-09-05T10:02:20Z</time>
      </trkpt>
      <trkpt lat="44.05023" lon="1.92812">
        <ele>247.6</ele>
        <time>2021-09-05T10:02:23Z</time>
      </trkpt>
      <trkpt lat="44.05022" lon="1.9281">
        <ele>247.8</ele>
        <time>2021-09-05T10:02:24Z</time>
      </trkpt>
      <trkpt lat="44.05022" lon="1.92807">
        <ele>247.8</ele>
        <time>2021-09-05T10:02:25Z</time>
      </trkpt>
      <trkpt lat="44.05021" lon="1.92804">
        <ele>247.8</ele>
        <time>2021-09-05T10:02:26Z</time>
      </trkpt>
      <trkpt lat="44.05021" lon="1.92802">
        <ele>248.2</ele>
        <time>2021-09-05T10:02:27Z</time>
      </trkpt>
      <trkpt lat="44.05021" lon="1.92794">
        <ele>248.4</ele>
        <time>2021-09-05T10:02:30Z</time>
      </trkpt>
      <trkpt lat="44.05017" lon="1.92789">
        <ele>248.4</ele>
        <time>2021-09-05T10:02:33Z</time>
      </trkpt>
      <trkpt lat="44.05015" lon="1.92787">
        <ele>248.4</ele>
        <time>2021-09-05T10:02:34Z</time>
      </trkpt>
      <trkpt lat="44.05014" lon="1.92786">
        <ele>248.4</ele>
        <time>2021-09-05T10:02:35Z</time>
      </trkpt>
      <trkpt lat="44.05009" lon="1.92784">
        <ele>248.4</ele>
        <time>2021-09-05T10:02:37Z</time>
      </trkpt>
      <trkpt lat="44.05007" lon="1.92783">
        <ele>248.4</ele>
        <time>2021-09-05T10:02:38Z</time>
      </trkpt>
      <trkpt lat="44.05003" lon="1.92782">
        <ele>248.4</ele>
        <time>2021-09-05T10:02:39Z</time>
      </trkpt>
      <trkpt lat="44.05" lon="1.92784">
        <ele>248.2</ele>
        <time>2021-09-05T10:02:40Z</time>
      </trkpt>
      <trkpt lat="44.04996" lon="1.92788">
        <ele>248.2</ele>
        <time>2021-09-05T10:02:41Z</time>
      </trkpt>
      <trkpt lat="44.04993" lon="1.92792">
        <ele>247.8</ele>
        <time>2021-09-05T10:02:42Z</time>
      </trkpt>
      <trkpt lat="44.0499" lon="1.92796">
        <ele>247</ele>
        <time>2021-09-05T10:02:43Z</time>
      </trkpt>
      <trkpt lat="44.04987" lon="1.928">
        <ele>245.6</ele>
        <time>2021-09-05T10:02:44Z</time>
      </trkpt>
      <trkpt lat="44.04985" lon="1.92804">
        <ele>244.8</ele>
        <time>2021-09-05T10:02:45Z</time>
      </trkpt>
      <trkpt lat="44.04982" lon="1.92807">
        <ele>243.4</ele>
        <time>2021-09-05T10:02:46Z</time>
      </trkpt>
      <trkpt lat="44.04976" lon="1.92814">
        <ele>241.6</ele>
        <time>2021-09-05T10:02:48Z</time>
      </trkpt>
      <trkpt lat="44.04969" lon="1.9282">
        <ele>239.4</ele>
        <time>2021-09-05T10:02:50Z</time>
      </trkpt>
      <trkpt lat="44.04965" lon="1.92822">
        <ele>239</ele>
        <time>2021-09-05T10:02:51Z</time>
      </trkpt>
      <trkpt lat="44.04962" lon="1.92823">
        <ele>237.6</ele>
        <time>2021-09-05T10:02:52Z</time>
      </trkpt>
      <trkpt lat="44.0496" lon="1.92822">
        <ele>236.4</ele>
        <time>2021-09-05T10:02:53Z</time>
      </trkpt>
      <trkpt lat="44.04959" lon="1.92821">
        <ele>235.4</ele>
        <time>2021-09-05T10:02:54Z</time>
      </trkpt>
      <trkpt lat="44.04959" lon="1.92819">
        <ele>233.6</ele>
        <time>2021-09-05T10:02:55Z</time>
      </trkpt>
      <trkpt lat="44.04958" lon="1.9281">
        <ele>231.8</ele>
        <time>2021-09-05T10:02:57Z</time>
      </trkpt>
      <trkpt lat="44.04958" lon="1.92803">
        <ele>230.8</ele>
        <time>2021-09-05T10:02:59Z</time>
      </trkpt>
      <trkpt lat="44.04959" lon="1.92798">
        <ele>229.6</ele>
        <time>2021-09-05T10:03:00Z</time>
      </trkpt>
      <trkpt lat="44.0496" lon="1.92788">
        <ele>227.8</ele>
        <time>2021-09-05T10:03:02Z</time>
      </trkpt>
      <trkpt lat="44.0496" lon="1.92783">
        <ele>227.4</ele>
        <time>2021-09-05T10:03:03Z</time>
      </trkpt>
      <trkpt lat="44.04961" lon="1.92779">
        <ele>226.4</ele>
        <time>2021-09-05T10:03:04Z</time>
      </trkpt>
      <trkpt lat="44.04961" lon="1.92775">
        <ele>225.8</ele>
        <time>2021-09-05T10:03:05Z</time>
      </trkpt>
      <trkpt lat="44.04962" lon="1.92773">
        <ele>224.6</ele>
        <time>2021-09-05T10:03:06Z</time>
      </trkpt>
      <trkpt lat="44.04962" lon="1.92771">
        <ele>224</ele>
        <time>2021-09-05T10:03:07Z</time>
      </trkpt>
      <trkpt lat="44.04961" lon="1.9277">
        <ele>222.8</ele>
        <time>2021-09-05T10:03:08Z</time>
      </trkpt>
      <trkpt lat="44.04958" lon="1.92771">
        <ele>221.6</ele>
        <time>2021-09-05T10:03:09Z</time>
      </trkpt>
      <trkpt lat="44.04954" lon="1.92773">
        <ele>221.2</ele>
        <time>2021-09-05T10:03:10Z</time>
      </trkpt>
      <trkpt lat="44.04952" lon="1.92774">
        <ele>221</ele>
        <time>2021-09-05T10:03:11Z</time>
      </trkpt>
      <trkpt lat="44.04948" lon="1.92776">
        <ele>220.6</ele>
        <time>2021-09-05T10:03:12Z</time>
      </trkpt>
      <trkpt lat="44.04946" lon="1.92776">
        <ele>219.6</ele>
        <time>2021-09-05T10:03:13Z</time>
      </trkpt>
      <trkpt lat="44.04945" lon="1.92776">
        <ele>218.8</ele>
        <time>2021-09-05T10:03:14Z</time>
      </trkpt>
      <trkpt lat="44.04944" lon="1.92774">
        <ele>217.4</ele>
        <time>2021-09-05T10:03:15Z</time>
      </trkpt>
      <trkpt lat="44.04943" lon="1.92771">
        <ele>216</ele>
        <time>2021-09-05T10:03:16Z</time>
      </trkpt>
      <trkpt lat="44.04945" lon="1.92762">
        <ele>215</ele>
        <time>2021-09-05T10:03:18Z</time>
      </trkpt>
      <trkpt lat="44.04945" lon="1.92755">
        <ele>214.8</ele>
        <time>2021-09-05T10:03:19Z</time>
      </trkpt>
      <trkpt lat="44.04947" lon="1.92749">
        <ele>213.8</ele>
        <time>2021-09-05T10:03:20Z</time>
      </trkpt>
      <trkpt lat="44.04949" lon="1.92742">
        <ele>213.6</ele>
        <time>2021-09-05T10:03:21Z</time>
      </trkpt>
      <trkpt lat="44.04949" lon="1.92738">
        <ele>212.4</ele>
        <time>2021-09-05T10:03:22Z</time>
      </trkpt>
      <trkpt lat="44.04948" lon="1.92735">
        <ele>211</ele>
        <time>2021-09-05T10:03:23Z</time>
      </trkpt>
      <trkpt lat="44.04943" lon="1.92739">
        <ele>210</ele>
        <time>2021-09-05T10:03:25Z</time>
      </trkpt>
      <trkpt lat="44.0494" lon="1.92741">
        <ele>209.4</ele>
        <time>2021-09-05T10:03:26Z</time>
      </trkpt>
      <trkpt lat="44.04935" lon="1.92745">
        <ele>208.6</ele>
        <time>2021-09-05T10:03:27Z</time>
      </trkpt>
      <trkpt lat="44.04929" lon="1.92751">
        <ele>208.2</ele>
        <time>2021-09-05T10:03:28Z</time>
      </trkpt>
      <trkpt lat="44.04924" lon="1.92756">
        <ele>207.4</ele>
        <time>2021-09-05T10:03:29Z</time>
      </trkpt>
      <trkpt lat="44.04918" lon="1.92761">
        <ele>207.2</ele>
        <time>2021-09-05T10:03:30Z</time>
      </trkpt>
      <trkpt lat="44.04913" lon="1.92768">
        <ele>206.6</ele>
        <time>2021-09-05T10:03:31Z</time>
      </trkpt>
      <trkpt lat="44.04908" lon="1.92776">
        <ele>205.4</ele>
        <time>2021-09-05T10:03:32Z</time>
      </trkpt>
      <trkpt lat="44.04903" lon="1.92781">
        <ele>205</ele>
        <time>2021-09-05T10:03:33Z</time>
      </trkpt>
      <trkpt lat="44.04899" lon="1.92786">
        <ele>204.2</ele>
        <time>2021-09-05T10:03:34Z</time>
      </trkpt>
      <trkpt lat="44.04896" lon="1.9279">
        <ele>203.8</ele>
        <time>2021-09-05T10:03:35Z</time>
      </trkpt>
      <trkpt lat="44.04893" lon="1.92794">
        <ele>202.2</ele>
        <time>2021-09-05T10:03:36Z</time>
      </trkpt>
      <trkpt lat="44.04891" lon="1.92798">
        <ele>201.6</ele>
        <time>2021-09-05T10:03:37Z</time>
      </trkpt>
      <trkpt lat="44.04889" lon="1.92801">
        <ele>200.4</ele>
        <time>2021-09-05T10:03:38Z</time>
      </trkpt>
      <trkpt lat="44.04887" lon="1.92805">
        <ele>199.8</ele>
        <time>2021-09-05T10:03:39Z</time>
      </trkpt>
      <trkpt lat="44.04884" lon="1.92808">
        <ele>199.4</ele>
        <time>2021-09-05T10:03:40Z</time>
      </trkpt>
      <trkpt lat="44.04881" lon="1.92811">
        <ele>199</ele>
        <time>2021-09-05T10:03:41Z</time>
      </trkpt>
      <trkpt lat="44.04877" lon="1.92816">
        <ele>198.8</ele>
        <time>2021-09-05T10:03:42Z</time>
      </trkpt>
      <trkpt lat="44.04874" lon="1.92822">
        <ele>198.4</ele>
        <time>2021-09-05T10:03:43Z</time>
      </trkpt>
      <trkpt lat="44.04872" lon="1.92828">
        <ele>197.8</ele>
        <time>2021-09-05T10:03:44Z</time>
      </trkpt>
      <trkpt lat="44.04869" lon="1.92834">
        <ele>197</ele>
        <time>2021-09-05T10:03:45Z</time>
      </trkpt>
      <trkpt lat="44.04867" lon="1.92838">
        <ele>196.8</ele>
        <time>2021-09-05T10:03:46Z</time>
      </trkpt>
      <trkpt lat="44.04863" lon="1.92843">
        <ele>196.4</ele>
        <time>2021-09-05T10:03:47Z</time>
      </trkpt>
      <trkpt lat="44.04861" lon="1.92848">
        <ele>196.2</ele>
        <time>2021-09-05T10:03:48Z</time>
      </trkpt>
      <trkpt lat="44.04858" lon="1.92852">
        <ele>196.2</ele>
        <time>2021-09-05T10:03:49Z</time>
      </trkpt>
      <trkpt lat="44.04855" lon="1.92856">
        <ele>196.2</ele>
        <time>2021-09-05T10:03:50Z</time>
      </trkpt>
      <trkpt lat="44.04852" lon="1.92858">
        <ele>196.2</ele>
        <time>2021-09-05T10:03:51Z</time>
      </trkpt>
      <trkpt lat="44.04849" lon="1.9286">
        <ele>196.2</ele>
        <time>2021-09-05T10:03:52Z</time>
      </trkpt>
      <trkpt lat="44.04846" lon="1.92864">
        <ele>196</ele>
        <time>2021-09-05T10:03:53Z</time>
      </trkpt>
      <trkpt lat="44.04843" lon="1.92867">
        <ele>196</ele>
        <time>2021-09-05T10:03:54Z</time>
      </trkpt>
      <trkpt lat="44.0484" lon="1.92871">
        <ele>196</ele>
        <time>2021-09-05T10:03:55Z</time>
      </trkpt>
      <trkpt lat="44.04835" lon="1.92875">
        <ele>196</ele>
        <time>2021-09-05T10:03:57Z</time>
      </trkpt>
      <trkpt lat="44.04823" lon="1.92885">
        <ele>196.2</ele>
        <time>2021-09-05T10:04:01Z</time>
      </trkpt>
      <trkpt lat="44.0482" lon="1.92888">
        <ele>196.2</ele>
        <time>2021-09-05T10:04:02Z</time>
      </trkpt>
      <trkpt lat="44.04815" lon="1.92892">
        <ele>196.4</ele>
        <time>2021-09-05T10:04:04Z</time>
      </trkpt>
      <trkpt lat="44.04813" lon="1.92894">
        <ele>196.4</ele>
        <time>2021-09-05T10:04:05Z</time>
      </trkpt>
      <trkpt lat="44.0481" lon="1.92895">
        <ele>196.4</ele>
        <time>2021-09-05T10:04:06Z</time>
      </trkpt>
      <trkpt lat="44.04796" lon="1.9291">
        <ele>196.6</ele>
        <time>2021-09-05T10:04:11Z</time>
      </trkpt>
      <trkpt lat="44.04794" lon="1.92913">
        <ele>196.8</ele>
        <time>2021-09-05T10:04:12Z</time>
      </trkpt>
      <trkpt lat="44.04789" lon="1.92922">
        <ele>197</ele>
        <time>2021-09-05T10:04:15Z</time>
      </trkpt>
      <trkpt lat="44.04785" lon="1.92929">
        <ele>197</ele>
        <time>2021-09-05T10:04:17Z</time>
      </trkpt>
      <trkpt lat="44.04783" lon="1.92933">
        <ele>197</ele>
        <time>2021-09-05T10:04:18Z</time>
      </trkpt>
      <trkpt lat="44.04767" lon="1.92958">
        <ele>197.4</ele>
        <time>2021-09-05T10:04:24Z</time>
      </trkpt>
      <trkpt lat="44.04751" lon="1.92993">
        <ele>197.6</ele>
        <time>2021-09-05T10:04:30Z</time>
      </trkpt>
      <trkpt lat="44.04743" lon="1.9301">
        <ele>197.8</ele>
        <time>2021-09-05T10:04:33Z</time>
      </trkpt>
      <trkpt lat="44.0474" lon="1.93015">
        <ele>197.8</ele>
        <time>2021-09-05T10:04:34Z</time>
      </trkpt>
      <trkpt lat="44.04733" lon="1.93034">
        <ele>198</ele>
        <time>2021-09-05T10:04:37Z</time>
      </trkpt>
      <trkpt lat="44.04731" lon="1.93039">
        <ele>198</ele>
        <time>2021-09-05T10:04:38Z</time>
      </trkpt>
      <trkpt lat="44.04729" lon="1.93046">
        <ele>198</ele>
        <time>2021-09-05T10:04:39Z</time>
      </trkpt>
      <trkpt lat="44.04723" lon="1.93067">
        <ele>198</ele>
        <time>2021-09-05T10:04:43Z</time>
      </trkpt>
      <trkpt lat="44.04722" lon="1.93073">
        <ele>198</ele>
        <time>2021-09-05T10:04:44Z</time>
      </trkpt>
      <trkpt lat="44.0472" lon="1.93078">
        <ele>198</ele>
        <time>2021-09-05T10:04:45Z</time>
      </trkpt>
      <trkpt lat="44.04719" lon="1.93084">
        <ele>198</ele>
        <time>2021-09-05T10:04:46Z</time>
      </trkpt>
      <trkpt lat="44.04718" lon="1.9309">
        <ele>198.2</ele>
        <time>2021-09-05T10:04:47Z</time>
      </trkpt>
      <trkpt lat="44.04717" lon="1.93094">
        <ele>198.2</ele>
        <time>2021-09-05T10:04:48Z</time>
      </trkpt>
      <trkpt lat="44.04716" lon="1.93099">
        <ele>198.4</ele>
        <time>2021-09-05T10:04:49Z</time>
      </trkpt>
      <trkpt lat="44.04712" lon="1.93124">
        <ele>198.6</ele>
        <time>2021-09-05T10:04:54Z</time>
      </trkpt>
      <trkpt lat="44.04711" lon="1.9313">
        <ele>198.6</ele>
        <time>2021-09-05T10:04:55Z</time>
      </trkpt>
      <trkpt lat="44.0471" lon="1.93135">
        <ele>198.8</ele>
        <time>2021-09-05T10:04:56Z</time>
      </trkpt>
      <trkpt lat="44.04709" lon="1.9314">
        <ele>198.8</ele>
        <time>2021-09-05T10:04:57Z</time>
      </trkpt>
      <trkpt lat="44.04708" lon="1.93146">
        <ele>198.8</ele>
        <time>2021-09-05T10:04:58Z</time>
      </trkpt>
      <trkpt lat="44.04707" lon="1.93156">
        <ele>199</ele>
        <time>2021-09-05T10:05:00Z</time>
      </trkpt>
      <trkpt lat="44.04706" lon="1.93171">
        <ele>199.6</ele>
        <time>2021-09-05T10:05:03Z</time>
      </trkpt>
      <trkpt lat="44.04703" lon="1.9318">
        <ele>199.8</ele>
        <time>2021-09-05T10:05:05Z</time>
      </trkpt>
      <trkpt lat="44.04698" lon="1.93205">
        <ele>200.4</ele>
        <time>2021-09-05T10:05:10Z</time>
      </trkpt>
      <trkpt lat="44.04697" lon="1.93211">
        <ele>200.4</ele>
        <time>2021-09-05T10:05:11Z</time>
      </trkpt>
      <trkpt lat="44.04696" lon="1.93216">
        <ele>200.6</ele>
        <time>2021-09-05T10:05:12Z</time>
      </trkpt>
      <trkpt lat="44.04695" lon="1.93222">
        <ele>200.8</ele>
        <time>2021-09-05T10:05:13Z</time>
      </trkpt>
      <trkpt lat="44.04694" lon="1.93226">
        <ele>200.8</ele>
        <time>2021-09-05T10:05:14Z</time>
      </trkpt>
      <trkpt lat="44.04693" lon="1.9323">
        <ele>201</ele>
        <time>2021-09-05T10:05:15Z</time>
      </trkpt>
      <trkpt lat="44.04692" lon="1.93234">
        <ele>201</ele>
        <time>2021-09-05T10:05:16Z</time>
      </trkpt>
      <trkpt lat="44.04692" lon="1.9324">
        <ele>201.2</ele>
        <time>2021-09-05T10:05:17Z</time>
      </trkpt>
      <trkpt lat="44.0469" lon="1.93244">
        <ele>201.4</ele>
        <time>2021-09-05T10:05:18Z</time>
      </trkpt>
      <trkpt lat="44.04689" lon="1.93249">
        <ele>201.6</ele>
        <time>2021-09-05T10:05:19Z</time>
      </trkpt>
      <trkpt lat="44.04688" lon="1.93252">
        <ele>201.6</ele>
        <time>2021-09-05T10:05:20Z</time>
      </trkpt>
      <trkpt lat="44.04687" lon="1.93257">
        <ele>201.8</ele>
        <time>2021-09-05T10:05:21Z</time>
      </trkpt>
      <trkpt lat="44.04686" lon="1.93262">
        <ele>202.2</ele>
        <time>2021-09-05T10:05:22Z</time>
      </trkpt>
      <trkpt lat="44.04685" lon="1.93266">
        <ele>202.2</ele>
        <time>2021-09-05T10:05:23Z</time>
      </trkpt>
      <trkpt lat="44.04684" lon="1.93269">
        <ele>202.4</ele>
        <time>2021-09-05T10:05:24Z</time>
      </trkpt>
      <trkpt lat="44.04683" lon="1.93272">
        <ele>202.6</ele>
        <time>2021-09-05T10:05:25Z</time>
      </trkpt>
      <trkpt lat="44.04681" lon="1.93276">
        <ele>202.8</ele>
        <time>2021-09-05T10:05:26Z</time>
      </trkpt>
      <trkpt lat="44.0468" lon="1.9328">
        <ele>202.8</ele>
        <time>2021-09-05T10:05:27Z</time>
      </trkpt>
      <trkpt lat="44.0468" lon="1.93284">
        <ele>203</ele>
        <time>2021-09-05T10:05:28Z</time>
      </trkpt>
      <trkpt lat="44.04679" lon="1.93289">
        <ele>203</ele>
        <time>2021-09-05T10:05:29Z</time>
      </trkpt>
      <trkpt lat="44.04678" lon="1.93292">
        <ele>203.2</ele>
        <time>2021-09-05T10:05:30Z</time>
      </trkpt>
      <trkpt lat="44.04677" lon="1.93295">
        <ele>203.4</ele>
        <time>2021-09-05T10:05:31Z</time>
      </trkpt>
      <trkpt lat="44.04676" lon="1.93299">
        <ele>203.4</ele>
        <time>2021-09-05T10:05:32Z</time>
      </trkpt>
      <trkpt lat="44.04675" lon="1.93302">
        <ele>203.6</ele>
        <time>2021-09-05T10:05:33Z</time>
      </trkpt>
      <trkpt lat="44.04674" lon="1.93306">
        <ele>203.8</ele>
        <time>2021-09-05T10:05:34Z</time>
      </trkpt>
      <trkpt lat="44.04674" lon="1.93309">
        <ele>204</ele>
        <time>2021-09-05T10:05:35Z</time>
      </trkpt>
      <trkpt lat="44.04674" lon="1.93313">
        <ele>204</ele>
        <time>2021-09-05T10:05:36Z</time>
      </trkpt>
      <trkpt lat="44.04673" lon="1.93318">
        <ele>204.2</ele>
        <time>2021-09-05T10:05:37Z</time>
      </trkpt>
      <trkpt lat="44.04673" lon="1.93322">
        <ele>204.2</ele>
        <time>2021-09-05T10:05:38Z</time>
      </trkpt>
      <trkpt lat="44.04672" lon="1.93326">
        <ele>204.4</ele>
        <time>2021-09-05T10:05:39Z</time>
      </trkpt>
      <trkpt lat="44.04671" lon="1.93329">
        <ele>204.4</ele>
        <time>2021-09-05T10:05:40Z</time>
      </trkpt>
      <trkpt lat="44.04671" lon="1.93333">
        <ele>204.6</ele>
        <time>2021-09-05T10:05:41Z</time>
      </trkpt>
      <trkpt lat="44.0467" lon="1.93336">
        <ele>204.6</ele>
        <time>2021-09-05T10:05:42Z</time>
      </trkpt>
      <trkpt lat="44.04669" lon="1.93341">
        <ele>204.8</ele>
        <time>2021-09-05T10:05:43Z</time>
      </trkpt>
      <trkpt lat="44.04668" lon="1.93345">
        <ele>204.8</ele>
        <time>2021-09-05T10:05:44Z</time>
      </trkpt>
      <trkpt lat="44.04668" lon="1.93348">
        <ele>204.8</ele>
        <time>2021-09-05T10:05:45Z</time>
      </trkpt>
      <trkpt lat="44.04667" lon="1.93353">
        <ele>205</ele>
        <time>2021-09-05T10:05:46Z</time>
      </trkpt>
      <trkpt lat="44.04666" lon="1.93357">
        <ele>205</ele>
        <time>2021-09-05T10:05:47Z</time>
      </trkpt>
      <trkpt lat="44.04665" lon="1.93362">
        <ele>205.2</ele>
        <time>2021-09-05T10:05:48Z</time>
      </trkpt>
      <trkpt lat="44.04663" lon="1.93366">
        <ele>205.2</ele>
        <time>2021-09-05T10:05:49Z</time>
      </trkpt>
      <trkpt lat="44.04662" lon="1.9337">
        <ele>205.4</ele>
        <time>2021-09-05T10:05:50Z</time>
      </trkpt>
      <trkpt lat="44.0466" lon="1.93374">
        <ele>205.4</ele>
        <time>2021-09-05T10:05:51Z</time>
      </trkpt>
      <trkpt lat="44.04659" lon="1.93378">
        <ele>205.4</ele>
        <time>2021-09-05T10:05:52Z</time>
      </trkpt>
      <trkpt lat="44.04657" lon="1.93383">
        <ele>205.6</ele>
        <time>2021-09-05T10:05:53Z</time>
      </trkpt>
      <trkpt lat="44.04655" lon="1.93387">
        <ele>205.6</ele>
        <time>2021-09-05T10:05:54Z</time>
      </trkpt>
      <trkpt lat="44.04654" lon="1.93391">
        <ele>205.6</ele>
        <time>2021-09-05T10:05:55Z</time>
      </trkpt>
      <trkpt lat="44.04653" lon="1.93395">
        <ele>206</ele>
        <time>2021-09-05T10:05:56Z</time>
      </trkpt>
      <trkpt lat="44.04652" lon="1.93399">
        <ele>206</ele>
        <time>2021-09-05T10:05:57Z</time>
      </trkpt>
      <trkpt lat="44.0465" lon="1.93404">
        <ele>206.2</ele>
        <time>2021-09-05T10:05:58Z</time>
      </trkpt>
      <trkpt lat="44.0465" lon="1.93409">
        <ele>206.2</ele>
        <time>2021-09-05T10:05:59Z</time>
      </trkpt>
      <trkpt lat="44.0465" lon="1.93413">
        <ele>206.2</ele>
        <time>2021-09-05T10:06:00Z</time>
      </trkpt>
      <trkpt lat="44.04649" lon="1.93419">
        <ele>206.4</ele>
        <time>2021-09-05T10:06:01Z</time>
      </trkpt>
      <trkpt lat="44.04648" lon="1.93423">
        <ele>206.4</ele>
        <time>2021-09-05T10:06:02Z</time>
      </trkpt>
      <trkpt lat="44.04647" lon="1.93428">
        <ele>206.8</ele>
        <time>2021-09-05T10:06:03Z</time>
      </trkpt>
      <trkpt lat="44.04645" lon="1.93434">
        <ele>206.8</ele>
        <time>2021-09-05T10:06:04Z</time>
      </trkpt>
      <trkpt lat="44.04644" lon="1.93438">
        <ele>207</ele>
        <time>2021-09-05T10:06:05Z</time>
      </trkpt>
      <trkpt lat="44.04643" lon="1.93443">
        <ele>207</ele>
        <time>2021-09-05T10:06:06Z</time>
      </trkpt>
      <trkpt lat="44.04643" lon="1.93447">
        <ele>207</ele>
        <time>2021-09-05T10:06:07Z</time>
      </trkpt>
      <trkpt lat="44.04642" lon="1.93452">
        <ele>207</ele>
        <time>2021-09-05T10:06:08Z</time>
      </trkpt>
      <trkpt lat="44.0464" lon="1.93458">
        <ele>207.2</ele>
        <time>2021-09-05T10:06:09Z</time>
      </trkpt>
      <trkpt lat="44.04639" lon="1.93463">
        <ele>207.4</ele>
        <time>2021-09-05T10:06:10Z</time>
      </trkpt>
      <trkpt lat="44.04639" lon="1.93467">
        <ele>207.4</ele>
        <time>2021-09-05T10:06:11Z</time>
      </trkpt>
      <trkpt lat="44.04638" lon="1.93471">
        <ele>207.6</ele>
        <time>2021-09-05T10:06:12Z</time>
      </trkpt>
      <trkpt lat="44.04637" lon="1.93476">
        <ele>207.6</ele>
        <time>2021-09-05T10:06:13Z</time>
      </trkpt>
      <trkpt lat="44.04637" lon="1.93482">
        <ele>207.8</ele>
        <time>2021-09-05T10:06:14Z</time>
      </trkpt>
      <trkpt lat="44.04637" lon="1.93486">
        <ele>207.8</ele>
        <time>2021-09-05T10:06:15Z</time>
      </trkpt>
      <trkpt lat="44.04637" lon="1.93491">
        <ele>208</ele>
        <time>2021-09-05T10:06:16Z</time>
      </trkpt>
      <trkpt lat="44.04637" lon="1.93494">
        <ele>208</ele>
        <time>2021-09-05T10:06:17Z</time>
      </trkpt>
      <trkpt lat="44.04636" lon="1.93498">
        <ele>208.2</ele>
        <time>2021-09-05T10:06:18Z</time>
      </trkpt>
      <trkpt lat="44.04635" lon="1.93502">
        <ele>208.2</ele>
        <time>2021-09-05T10:06:19Z</time>
      </trkpt>
      <trkpt lat="44.04635" lon="1.93504">
        <ele>208.2</ele>
        <time>2021-09-05T10:06:20Z</time>
      </trkpt>
      <trkpt lat="44.04634" lon="1.93507">
        <ele>208.2</ele>
        <time>2021-09-05T10:06:21Z</time>
      </trkpt>
      <trkpt lat="44.04634" lon="1.9351">
        <ele>208.4</ele>
        <time>2021-09-05T10:06:22Z</time>
      </trkpt>
      <trkpt lat="44.04634" lon="1.93514">
        <ele>208.6</ele>
        <time>2021-09-05T10:06:23Z</time>
      </trkpt>
      <trkpt lat="44.04634" lon="1.93518">
        <ele>208.4</ele>
        <time>2021-09-05T10:06:24Z</time>
      </trkpt>
      <trkpt lat="44.04634" lon="1.93522">
        <ele>208.6</ele>
        <time>2021-09-05T10:06:25Z</time>
      </trkpt>
      <trkpt lat="44.04634" lon="1.93526">
        <ele>208.8</ele>
        <time>2021-09-05T10:06:26Z</time>
      </trkpt>
      <trkpt lat="44.04634" lon="1.9353">
        <ele>208.8</ele>
        <time>2021-09-05T10:06:27Z</time>
      </trkpt>
      <trkpt lat="44.04633" lon="1.93533">
        <ele>209</ele>
        <time>2021-09-05T10:06:28Z</time>
      </trkpt>
      <trkpt lat="44.04632" lon="1.93537">
        <ele>209</ele>
        <time>2021-09-05T10:06:29Z</time>
      </trkpt>
      <trkpt lat="44.0463" lon="1.93541">
        <ele>209.2</ele>
        <time>2021-09-05T10:06:30Z</time>
      </trkpt>
      <trkpt lat="44.04629" lon="1.93545">
        <ele>209.2</ele>
        <time>2021-09-05T10:06:31Z</time>
      </trkpt>
      <trkpt lat="44.04627" lon="1.93549">
        <ele>209.6</ele>
        <time>2021-09-05T10:06:32Z</time>
      </trkpt>
      <trkpt lat="44.04626" lon="1.93553">
        <ele>209.8</ele>
        <time>2021-09-05T10:06:33Z</time>
      </trkpt>
      <trkpt lat="44.04624" lon="1.93557">
        <ele>210</ele>
        <time>2021-09-05T10:06:34Z</time>
      </trkpt>
      <trkpt lat="44.04622" lon="1.93562">
        <ele>210</ele>
        <time>2021-09-05T10:06:35Z</time>
      </trkpt>
      <trkpt lat="44.0462" lon="1.93567">
        <ele>210</ele>
        <time>2021-09-05T10:06:36Z</time>
      </trkpt>
      <trkpt lat="44.04619" lon="1.93571">
        <ele>210.2</ele>
        <time>2021-09-05T10:06:37Z</time>
      </trkpt>
      <trkpt lat="44.04617" lon="1.93577">
        <ele>210.2</ele>
        <time>2021-09-05T10:06:38Z</time>
      </trkpt>
      <trkpt lat="44.04616" lon="1.93582">
        <ele>210.4</ele>
        <time>2021-09-05T10:06:39Z</time>
      </trkpt>
      <trkpt lat="44.04615" lon="1.93589">
        <ele>210.4</ele>
        <time>2021-09-05T10:06:40Z</time>
      </trkpt>
      <trkpt lat="44.04615" lon="1.93593">
        <ele>210.6</ele>
        <time>2021-09-05T10:06:41Z</time>
      </trkpt>
      <trkpt lat="44.04615" lon="1.93597">
        <ele>210.8</ele>
        <time>2021-09-05T10:06:42Z</time>
      </trkpt>
      <trkpt lat="44.04614" lon="1.93602">
        <ele>210.8</ele>
        <time>2021-09-05T10:06:43Z</time>
      </trkpt>
      <trkpt lat="44.04614" lon="1.93606">
        <ele>211</ele>
        <time>2021-09-05T10:06:44Z</time>
      </trkpt>
      <trkpt lat="44.04613" lon="1.93611">
        <ele>211</ele>
        <time>2021-09-05T10:06:45Z</time>
      </trkpt>
      <trkpt lat="44.04613" lon="1.93616">
        <ele>211.2</ele>
        <time>2021-09-05T10:06:46Z</time>
      </trkpt>
      <trkpt lat="44.04613" lon="1.93621">
        <ele>211.4</ele>
        <time>2021-09-05T10:06:47Z</time>
      </trkpt>
      <trkpt lat="44.04613" lon="1.93625">
        <ele>211.6</ele>
        <time>2021-09-05T10:06:48Z</time>
      </trkpt>
      <trkpt lat="44.04613" lon="1.93629">
        <ele>211.6</ele>
        <time>2021-09-05T10:06:49Z</time>
      </trkpt>
      <trkpt lat="44.04614" lon="1.93633">
        <ele>211.8</ele>
        <time>2021-09-05T10:06:50Z</time>
      </trkpt>
      <trkpt lat="44.04615" lon="1.93639">
        <ele>212</ele>
        <time>2021-09-05T10:06:51Z</time>
      </trkpt>
      <trkpt lat="44.04614" lon="1.93645">
        <ele>212</ele>
        <time>2021-09-05T10:06:52Z</time>
      </trkpt>
      <trkpt lat="44.04615" lon="1.93649">
        <ele>212.2</ele>
        <time>2021-09-05T10:06:53Z</time>
      </trkpt>
      <trkpt lat="44.04616" lon="1.93654">
        <ele>212.2</ele>
        <time>2021-09-05T10:06:54Z</time>
      </trkpt>
      <trkpt lat="44.04617" lon="1.93659">
        <ele>212.4</ele>
        <time>2021-09-05T10:06:55Z</time>
      </trkpt>
      <trkpt lat="44.04619" lon="1.93665">
        <ele>212.6</ele>
        <time>2021-09-05T10:06:56Z</time>
      </trkpt>
      <trkpt lat="44.04619" lon="1.9367">
        <ele>212.4</ele>
        <time>2021-09-05T10:06:57Z</time>
      </trkpt>
      <trkpt lat="44.04619" lon="1.93674">
        <ele>212.8</ele>
        <time>2021-09-05T10:06:58Z</time>
      </trkpt>
      <trkpt lat="44.04618" lon="1.93679">
        <ele>212.8</ele>
        <time>2021-09-05T10:06:59Z</time>
      </trkpt>
      <trkpt lat="44.04618" lon="1.93686">
        <ele>213</ele>
        <time>2021-09-05T10:07:00Z</time>
      </trkpt>
      <trkpt lat="44.04617" lon="1.93692">
        <ele>213</ele>
        <time>2021-09-05T10:07:01Z</time>
      </trkpt>
      <trkpt lat="44.04616" lon="1.93699">
        <ele>213</ele>
        <time>2021-09-05T10:07:02Z</time>
      </trkpt>
      <trkpt lat="44.04615" lon="1.93704">
        <ele>213</ele>
        <time>2021-09-05T10:07:03Z</time>
      </trkpt>
      <trkpt lat="44.04614" lon="1.93711">
        <ele>213</ele>
        <time>2021-09-05T10:07:04Z</time>
      </trkpt>
      <trkpt lat="44.04613" lon="1.93718">
        <ele>213</ele>
        <time>2021-09-05T10:07:05Z</time>
      </trkpt>
      <trkpt lat="44.04611" lon="1.93724">
        <ele>213</ele>
        <time>2021-09-05T10:07:06Z</time>
      </trkpt>
      <trkpt lat="44.0461" lon="1.93729">
        <ele>212.8</ele>
        <time>2021-09-05T10:07:07Z</time>
      </trkpt>
      <trkpt lat="44.04609" lon="1.93735">
        <ele>212.4</ele>
        <time>2021-09-05T10:07:08Z</time>
      </trkpt>
      <trkpt lat="44.04606" lon="1.93752">
        <ele>212</ele>
        <time>2021-09-05T10:07:11Z</time>
      </trkpt>
      <trkpt lat="44.04605" lon="1.93759">
        <ele>211.6</ele>
        <time>2021-09-05T10:07:12Z</time>
      </trkpt>
      <trkpt lat="44.04603" lon="1.93766">
        <ele>211.6</ele>
        <time>2021-09-05T10:07:13Z</time>
      </trkpt>
      <trkpt lat="44.04602" lon="1.9377">
        <ele>211.4</ele>
        <time>2021-09-05T10:07:14Z</time>
      </trkpt>
      <trkpt lat="44.04601" lon="1.93776">
        <ele>211.4</ele>
        <time>2021-09-05T10:07:15Z</time>
      </trkpt>
      <trkpt lat="44.046" lon="1.93781">
        <ele>211.2</ele>
        <time>2021-09-05T10:07:16Z</time>
      </trkpt>
      <trkpt lat="44.04601" lon="1.93793">
        <ele>211</ele>
        <time>2021-09-05T10:07:18Z</time>
      </trkpt>
      <trkpt lat="44.04602" lon="1.93798">
        <ele>210.8</ele>
        <time>2021-09-05T10:07:19Z</time>
      </trkpt>
      <trkpt lat="44.04603" lon="1.93801">
        <ele>210.6</ele>
        <time>2021-09-05T10:07:20Z</time>
      </trkpt>
      <trkpt lat="44.04604" lon="1.93803">
        <ele>210.4</ele>
        <time>2021-09-05T10:07:21Z</time>
      </trkpt>
      <trkpt lat="44.04606" lon="1.93805">
        <ele>210.4</ele>
        <time>2021-09-05T10:07:22Z</time>
      </trkpt>
      <trkpt lat="44.04607" lon="1.93807">
        <ele>210.4</ele>
        <time>2021-09-05T10:07:23Z</time>
      </trkpt>
      <trkpt lat="44.04607" lon="1.93808">
        <ele>210.4</ele>
        <time>2021-09-05T10:07:24Z</time>
      </trkpt>
      <trkpt lat="44.04608" lon="1.93811">
        <ele>210.4</ele>
        <time>2021-09-05T10:07:26Z</time>
      </trkpt>
      <trkpt lat="44.04609" lon="1.93814">
        <ele>210.4</ele>
        <time>2021-09-05T10:07:27Z</time>
      </trkpt>
      <trkpt lat="44.04609" lon="1.93816">
        <ele>210.6</ele>
        <time>2021-09-05T10:07:28Z</time>
      </trkpt>
      <trkpt lat="44.04379" lon="1.94763">
        <ele>287.8</ele>
        <time>2021-09-05T10:15:05Z</time>
      </trkpt>
      <trkpt lat="44.04376" lon="1.94781">
        <ele>275.2</ele>
        <time>2021-09-05T10:15:11Z</time>
      </trkpt>
      <trkpt lat="44.04378" lon="1.94789">
        <ele>287.6</ele>
        <time>2021-09-05T10:15:13Z</time>
      </trkpt>
      <trkpt lat="44.04379" lon="1.94792">
        <ele>287.6</ele>
        <time>2021-09-05T10:15:14Z</time>
      </trkpt>
      <trkpt lat="44.0438" lon="1.94795">
        <ele>287.6</ele>
        <time>2021-09-05T10:15:15Z</time>
      </trkpt>
      <trkpt lat="44.0438" lon="1.94798">
        <ele>287.6</ele>
        <time>2021-09-05T10:15:16Z</time>
      </trkpt>
      <trkpt lat="44.04381" lon="1.94801">
        <ele>287.6</ele>
        <time>2021-09-05T10:15:17Z</time>
      </trkpt>
      <trkpt lat="44.04381" lon="1.94807">
        <ele>287.8</ele>
        <time>2021-09-05T10:15:19Z</time>
      </trkpt>
      <trkpt lat="44.04381" lon="1.94811">
        <ele>287.8</ele>
        <time>2021-09-05T10:15:20Z</time>
      </trkpt>
      <trkpt lat="44.0438" lon="1.94814">
        <ele>287.8</ele>
        <time>2021-09-05T10:15:21Z</time>
      </trkpt>
      <trkpt lat="44.04378" lon="1.9482">
        <ele>288.2</ele>
        <time>2021-09-05T10:15:23Z</time>
      </trkpt>
      <trkpt lat="44.04377" lon="1.94823">
        <ele>288.2</ele>
        <time>2021-09-05T10:15:24Z</time>
      </trkpt>
      <trkpt lat="44.04376" lon="1.94826">
        <ele>288.2</ele>
        <time>2021-09-05T10:15:25Z</time>
      </trkpt>
      <trkpt lat="44.04375" lon="1.94831">
        <ele>288.2</ele>
        <time>2021-09-05T10:15:27Z</time>
      </trkpt>
      <trkpt lat="44.04375" lon="1.94834">
        <ele>288.2</ele>
        <time>2021-09-05T10:15:28Z</time>
      </trkpt>
      <trkpt lat="44.04375" lon="1.94836">
        <ele>288.2</ele>
        <time>2021-09-05T10:15:29Z</time>
      </trkpt>
      <trkpt lat="44.04375" lon="1.94838">
        <ele>287.8</ele>
        <time>2021-09-05T10:15:30Z</time>
      </trkpt>
      <trkpt lat="44.04376" lon="1.94841">
        <ele>287.8</ele>
        <time>2021-09-05T10:15:31Z</time>
      </trkpt>
      <trkpt lat="44.04378" lon="1.94842">
        <ele>287.6</ele>
        <time>2021-09-05T10:15:32Z</time>
      </trkpt>
      <trkpt lat="44.04379" lon="1.94842">
        <ele>287.6</ele>
        <time>2021-09-05T10:15:33Z</time>
      </trkpt>
      <trkpt lat="44.0438" lon="1.94842">
        <ele>287.6</ele>
        <time>2021-09-05T10:15:34Z</time>
      </trkpt>
      <trkpt lat="44.04381" lon="1.94842">
        <ele>287.6</ele>
        <time>2021-09-05T10:15:35Z</time>
      </trkpt>
      <trkpt lat="44.04382" lon="1.94842">
        <ele>287.6</ele>
        <time>2021-09-05T10:15:36Z</time>
      </trkpt>
      <trkpt lat="44.04383" lon="1.94843">
        <ele>287.8</ele>
        <time>2021-09-05T10:15:37Z</time>
      </trkpt>
      <trkpt lat="44.04384" lon="1.94844">
        <ele>287.8</ele>
        <time>2021-09-05T10:15:38Z</time>
      </trkpt>
      <trkpt lat="44.04384" lon="1.94846">
        <ele>288</ele>
        <time>2021-09-05T10:15:39Z</time>
      </trkpt>
      <trkpt lat="44.04384" lon="1.94859">
        <ele>289.2</ele>
        <time>2021-09-05T10:15:43Z</time>
      </trkpt>
      <trkpt lat="44.04384" lon="1.94861">
        <ele>289.4</ele>
        <time>2021-09-05T10:15:44Z</time>
      </trkpt>
      <trkpt lat="44.04383" lon="1.94864">
        <ele>289.6</ele>
        <time>2021-09-05T10:15:45Z</time>
      </trkpt>
      <trkpt lat="44.04382" lon="1.94866">
        <ele>289.6</ele>
        <time>2021-09-05T10:15:46Z</time>
      </trkpt>
      <trkpt lat="44.04381" lon="1.94869">
        <ele>289.6</ele>
        <time>2021-09-05T10:15:47Z</time>
      </trkpt>
      <trkpt lat="44.0438" lon="1.94873">
        <ele>289.6</ele>
        <time>2021-09-05T10:15:48Z</time>
      </trkpt>
      <trkpt lat="44.04381" lon="1.94877">
        <ele>289.6</ele>
        <time>2021-09-05T10:15:49Z</time>
      </trkpt>
      <trkpt lat="44.04382" lon="1.9488">
        <ele>289.6</ele>
        <time>2021-09-05T10:15:50Z</time>
      </trkpt>
      <trkpt lat="44.04382" lon="1.94882">
        <ele>289.6</ele>
        <time>2021-09-05T10:15:51Z</time>
      </trkpt>
      <trkpt lat="44.04383" lon="1.94884">
        <ele>289.8</ele>
        <time>2021-09-05T10:15:52Z</time>
      </trkpt>
      <trkpt lat="44.04384" lon="1.94885">
        <ele>289.8</ele>
        <time>2021-09-05T10:15:53Z</time>
      </trkpt>
      <trkpt lat="44.04387" lon="1.94886">
        <ele>289.8</ele>
        <time>2021-09-05T10:15:55Z</time>
      </trkpt>
      <trkpt lat="44.04387" lon="1.94887">
        <ele>289.8</ele>
        <time>2021-09-05T10:15:56Z</time>
      </trkpt>
      <trkpt lat="44.04388" lon="1.94889">
        <ele>289.8</ele>
        <time>2021-09-05T10:15:57Z</time>
      </trkpt>
      <trkpt lat="44.04389" lon="1.94891">
        <ele>289.8</ele>
        <time>2021-09-05T10:15:58Z</time>
      </trkpt>
      <trkpt lat="44.04389" lon="1.94893">
        <ele>290</ele>
        <time>2021-09-05T10:15:59Z</time>
      </trkpt>
      <trkpt lat="44.04391" lon="1.94899">
        <ele>290.8</ele>
        <time>2021-09-05T10:16:02Z</time>
      </trkpt>
      <trkpt lat="44.04391" lon="1.949">
        <ele>291</ele>
        <time>2021-09-05T10:16:03Z</time>
      </trkpt>
      <trkpt lat="44.04391" lon="1.94902">
        <ele>291.2</ele>
        <time>2021-09-05T10:16:04Z</time>
      </trkpt>
      <trkpt lat="44.04392" lon="1.94903">
        <ele>291.4</ele>
        <time>2021-09-05T10:16:05Z</time>
      </trkpt>
      <trkpt lat="44.04392" lon="1.94905">
        <ele>291.6</ele>
        <time>2021-09-05T10:16:06Z</time>
      </trkpt>
      <trkpt lat="44.04392" lon="1.94907">
        <ele>291.8</ele>
        <time>2021-09-05T10:16:07Z</time>
      </trkpt>
      <trkpt lat="44.04393" lon="1.94909">
        <ele>292</ele>
        <time>2021-09-05T10:16:08Z</time>
      </trkpt>
      <trkpt lat="44.04393" lon="1.94911">
        <ele>292</ele>
        <time>2021-09-05T10:16:09Z</time>
      </trkpt>
      <trkpt lat="44.04395" lon="1.94914">
        <ele>292.2</ele>
        <time>2021-09-05T10:16:11Z</time>
      </trkpt>
      <trkpt lat="44.04395" lon="1.94916">
        <ele>292.2</ele>
        <time>2021-09-05T10:16:12Z</time>
      </trkpt>
      <trkpt lat="44.04396" lon="1.94918">
        <ele>292.6</ele>
        <time>2021-09-05T10:16:13Z</time>
      </trkpt>
      <trkpt lat="44.04397" lon="1.94919">
        <ele>292.6</ele>
        <time>2021-09-05T10:16:14Z</time>
      </trkpt>
      <trkpt lat="44.04398" lon="1.94921">
        <ele>292.6</ele>
        <time>2021-09-05T10:16:15Z</time>
      </trkpt>
      <trkpt lat="44.044" lon="1.94922">
        <ele>292.8</ele>
        <time>2021-09-05T10:16:16Z</time>
      </trkpt>
      <trkpt lat="44.04401" lon="1.94923">
        <ele>292.8</ele>
        <time>2021-09-05T10:16:17Z</time>
      </trkpt>
      <trkpt lat="44.04402" lon="1.94924">
        <ele>292.8</ele>
        <time>2021-09-05T10:16:18Z</time>
      </trkpt>
      <trkpt lat="44.04403" lon="1.94925">
        <ele>292.8</ele>
        <time>2021-09-05T10:16:19Z</time>
      </trkpt>
      <trkpt lat="44.04404" lon="1.94926">
        <ele>293</ele>
        <time>2021-09-05T10:16:20Z</time>
      </trkpt>
      <trkpt lat="44.04405" lon="1.94928">
        <ele>293.2</ele>
        <time>2021-09-05T10:16:21Z</time>
      </trkpt>
      <trkpt lat="44.04407" lon="1.9493">
        <ele>293.2</ele>
        <time>2021-09-05T10:16:22Z</time>
      </trkpt>
      <trkpt lat="44.04407" lon="1.94933">
        <ele>293.6</ele>
        <time>2021-09-05T10:16:23Z</time>
      </trkpt>
      <trkpt lat="44.04407" lon="1.94935">
        <ele>293.8</ele>
        <time>2021-09-05T10:16:24Z</time>
      </trkpt>
      <trkpt lat="44.04408" lon="1.94936">
        <ele>294.4</ele>
        <time>2021-09-05T10:16:25Z</time>
      </trkpt>
      <trkpt lat="44.04408" lon="1.94938">
        <ele>294.4</ele>
        <time>2021-09-05T10:16:26Z</time>
      </trkpt>
      <trkpt lat="44.04409" lon="1.9494">
        <ele>294.8</ele>
        <time>2021-09-05T10:16:27Z</time>
      </trkpt>
      <trkpt lat="44.0441" lon="1.94941">
        <ele>294.8</ele>
        <time>2021-09-05T10:16:28Z</time>
      </trkpt>
      <trkpt lat="44.04411" lon="1.94944">
        <ele>295</ele>
        <time>2021-09-05T10:16:29Z</time>
      </trkpt>
      <trkpt lat="44.04411" lon="1.94946">
        <ele>295.2</ele>
        <time>2021-09-05T10:16:30Z</time>
      </trkpt>
      <trkpt lat="44.04411" lon="1.94947">
        <ele>295.4</ele>
        <time>2021-09-05T10:16:31Z</time>
      </trkpt>
      <trkpt lat="44.04412" lon="1.9495">
        <ele>295.6</ele>
        <time>2021-09-05T10:16:32Z</time>
      </trkpt>
      <trkpt lat="44.04413" lon="1.94953">
        <ele>295.6</ele>
        <time>2021-09-05T10:16:33Z</time>
      </trkpt>
      <trkpt lat="44.04414" lon="1.94956">
        <ele>295.8</ele>
        <time>2021-09-05T10:16:34Z</time>
      </trkpt>
      <trkpt lat="44.04415" lon="1.94958">
        <ele>296</ele>
        <time>2021-09-05T10:16:35Z</time>
      </trkpt>
      <trkpt lat="44.04416" lon="1.9496">
        <ele>296.2</ele>
        <time>2021-09-05T10:16:36Z</time>
      </trkpt>
      <trkpt lat="44.04418" lon="1.94963">
        <ele>296.2</ele>
        <time>2021-09-05T10:16:37Z</time>
      </trkpt>
      <trkpt lat="44.0442" lon="1.94966">
        <ele>296.2</ele>
        <time>2021-09-05T10:16:38Z</time>
      </trkpt>
      <trkpt lat="44.04421" lon="1.94969">
        <ele>296.2</ele>
        <time>2021-09-05T10:16:39Z</time>
      </trkpt>
      <trkpt lat="44.04423" lon="1.94971">
        <ele>296.4</ele>
        <time>2021-09-05T10:16:40Z</time>
      </trkpt>
      <trkpt lat="44.04424" lon="1.94972">
        <ele>296.4</ele>
        <time>2021-09-05T10:16:41Z</time>
      </trkpt>
      <trkpt lat="44.04426" lon="1.94974">
        <ele>296.4</ele>
        <time>2021-09-05T10:16:42Z</time>
      </trkpt>
      <trkpt lat="44.04428" lon="1.94976">
        <ele>296.4</ele>
        <time>2021-09-05T10:16:43Z</time>
      </trkpt>
      <trkpt lat="44.04429" lon="1.94978">
        <ele>296.4</ele>
        <time>2021-09-05T10:16:44Z</time>
      </trkpt>
      <trkpt lat="44.04431" lon="1.94982">
        <ele>296.6</ele>
        <time>2021-09-05T10:16:45Z</time>
      </trkpt>
      <trkpt lat="44.04432" lon="1.94985">
        <ele>296.6</ele>
        <time>2021-09-05T10:16:46Z</time>
      </trkpt>
      <trkpt lat="44.04432" lon="1.94987">
        <ele>296.8</ele>
        <time>2021-09-05T10:16:47Z</time>
      </trkpt>
      <trkpt lat="44.04433" lon="1.9499">
        <ele>296.8</ele>
        <time>2021-09-05T10:16:48Z</time>
      </trkpt>
      <trkpt lat="44.04434" lon="1.94992">
        <ele>296.8</ele>
        <time>2021-09-05T10:16:49Z</time>
      </trkpt>
      <trkpt lat="44.04434" lon="1.94993">
        <ele>297</ele>
        <time>2021-09-05T10:16:50Z</time>
      </trkpt>
      <trkpt lat="44.04434" lon="1.94995">
        <ele>297.2</ele>
        <time>2021-09-05T10:16:51Z</time>
      </trkpt>
      <trkpt lat="44.04434" lon="1.94997">
        <ele>297.4</ele>
        <time>2021-09-05T10:16:52Z</time>
      </trkpt>
      <trkpt lat="44.04434" lon="1.94999">
        <ele>297.4</ele>
        <time>2021-09-05T10:16:53Z</time>
      </trkpt>
      <trkpt lat="44.04434" lon="1.95001">
        <ele>297.4</ele>
        <time>2021-09-05T10:16:54Z</time>
      </trkpt>
      <trkpt lat="44.04433" lon="1.95004">
        <ele>297.8</ele>
        <time>2021-09-05T10:16:55Z</time>
      </trkpt>
      <trkpt lat="44.04432" lon="1.95007">
        <ele>297.8</ele>
        <time>2021-09-05T10:16:56Z</time>
      </trkpt>
      <trkpt lat="44.04432" lon="1.9501">
        <ele>297.8</ele>
        <time>2021-09-05T10:16:57Z</time>
      </trkpt>
      <trkpt lat="44.04431" lon="1.95012">
        <ele>298</ele>
        <time>2021-09-05T10:16:58Z</time>
      </trkpt>
      <trkpt lat="44.04431" lon="1.95018">
        <ele>297.8</ele>
        <time>2021-09-05T10:17:00Z</time>
      </trkpt>
      <trkpt lat="44.04428" lon="1.95033">
        <ele>297.8</ele>
        <time>2021-09-05T10:17:04Z</time>
      </trkpt>
      <trkpt lat="44.04428" lon="1.95037">
        <ele>297.8</ele>
        <time>2021-09-05T10:17:05Z</time>
      </trkpt>
      <trkpt lat="44.04427" lon="1.9504">
        <ele>297.8</ele>
        <time>2021-09-05T10:17:06Z</time>
      </trkpt>
      <trkpt lat="44.04426" lon="1.95042">
        <ele>297.8</ele>
        <time>2021-09-05T10:17:07Z</time>
      </trkpt>
      <trkpt lat="44.04425" lon="1.95045">
        <ele>297.8</ele>
        <time>2021-09-05T10:17:08Z</time>
      </trkpt>
      <trkpt lat="44.04423" lon="1.95047">
        <ele>297.8</ele>
        <time>2021-09-05T10:17:09Z</time>
      </trkpt>
      <trkpt lat="44.04421" lon="1.9505">
        <ele>297.6</ele>
        <time>2021-09-05T10:17:10Z</time>
      </trkpt>
      <trkpt lat="44.04419" lon="1.95053">
        <ele>297.6</ele>
        <time>2021-09-05T10:17:11Z</time>
      </trkpt>
      <trkpt lat="44.04412" lon="1.95064">
        <ele>297.4</ele>
        <time>2021-09-05T10:17:14Z</time>
      </trkpt>
      <trkpt lat="44.04411" lon="1.95068">
        <ele>297.4</ele>
        <time>2021-09-05T10:17:15Z</time>
      </trkpt>
      <trkpt lat="44.04409" lon="1.95071">
        <ele>297.2</ele>
        <time>2021-09-05T10:17:16Z</time>
      </trkpt>
      <trkpt lat="44.04406" lon="1.95079">
        <ele>297</ele>
        <time>2021-09-05T10:17:18Z</time>
      </trkpt>
      <trkpt lat="44.04405" lon="1.95085">
        <ele>296.8</ele>
        <time>2021-09-05T10:17:19Z</time>
      </trkpt>
      <trkpt lat="44.04404" lon="1.9509">
        <ele>296.6</ele>
        <time>2021-09-05T10:17:20Z</time>
      </trkpt>
      <trkpt lat="44.04403" lon="1.95095">
        <ele>296.4</ele>
        <time>2021-09-05T10:17:21Z</time>
      </trkpt>
      <trkpt lat="44.04402" lon="1.951">
        <ele>296</ele>
        <time>2021-09-05T10:17:22Z</time>
      </trkpt>
      <trkpt lat="44.04402" lon="1.95103">
        <ele>296</ele>
        <time>2021-09-05T10:17:23Z</time>
      </trkpt>
      <trkpt lat="44.04401" lon="1.95106">
        <ele>295.8</ele>
        <time>2021-09-05T10:17:24Z</time>
      </trkpt>
      <trkpt lat="44.04401" lon="1.95109">
        <ele>295.6</ele>
        <time>2021-09-05T10:17:25Z</time>
      </trkpt>
      <trkpt lat="44.044" lon="1.95112">
        <ele>295.6</ele>
        <time>2021-09-05T10:17:26Z</time>
      </trkpt>
      <trkpt lat="44.04399" lon="1.95132">
        <ele>295.2</ele>
        <time>2021-09-05T10:17:30Z</time>
      </trkpt>
      <trkpt lat="44.04401" lon="1.95137">
        <ele>295.2</ele>
        <time>2021-09-05T10:17:31Z</time>
      </trkpt>
      <trkpt lat="44.04402" lon="1.95142">
        <ele>295.2</ele>
        <time>2021-09-05T10:17:32Z</time>
      </trkpt>
      <trkpt lat="44.04403" lon="1.95146">
        <ele>295.4</ele>
        <time>2021-09-05T10:17:33Z</time>
      </trkpt>
      <trkpt lat="44.04402" lon="1.95151">
        <ele>295.2</ele>
        <time>2021-09-05T10:17:34Z</time>
      </trkpt>
      <trkpt lat="44.04398" lon="1.95165">
        <ele>295.2</ele>
        <time>2021-09-05T10:17:37Z</time>
      </trkpt>
      <trkpt lat="44.04398" lon="1.95169">
        <ele>295.2</ele>
        <time>2021-09-05T10:17:38Z</time>
      </trkpt>
      <trkpt lat="44.04398" lon="1.95174">
        <ele>295.2</ele>
        <time>2021-09-05T10:17:39Z</time>
      </trkpt>
      <trkpt lat="44.04397" lon="1.95198">
        <ele>295</ele>
        <time>2021-09-05T10:17:44Z</time>
      </trkpt>
      <trkpt lat="44.04397" lon="1.95208">
        <ele>294.8</ele>
        <time>2021-09-05T10:17:46Z</time>
      </trkpt>
      <trkpt lat="44.04397" lon="1.95212">
        <ele>294.6</ele>
        <time>2021-09-05T10:17:47Z</time>
      </trkpt>
      <trkpt lat="44.04398" lon="1.95216">
        <ele>294.6</ele>
        <time>2021-09-05T10:17:48Z</time>
      </trkpt>
      <trkpt lat="44.04397" lon="1.9522">
        <ele>294.4</ele>
        <time>2021-09-05T10:17:49Z</time>
      </trkpt>
      <trkpt lat="44.04396" lon="1.95231">
        <ele>294.2</ele>
        <time>2021-09-05T10:17:51Z</time>
      </trkpt>
      <trkpt lat="44.04396" lon="1.95239">
        <ele>294.2</ele>
        <time>2021-09-05T10:17:52Z</time>
      </trkpt>
      <trkpt lat="44.04398" lon="1.95256">
        <ele>294</ele>
        <time>2021-09-05T10:17:54Z</time>
      </trkpt>
      <trkpt lat="44.04399" lon="1.95266">
        <ele>293.8</ele>
        <time>2021-09-05T10:17:55Z</time>
      </trkpt>
      <trkpt lat="44.04399" lon="1.95274">
        <ele>293</ele>
        <time>2021-09-05T10:17:56Z</time>
      </trkpt>
      <trkpt lat="44.04399" lon="1.9528">
        <ele>292.8</ele>
        <time>2021-09-05T10:17:57Z</time>
      </trkpt>
      <trkpt lat="44.04399" lon="1.95286">
        <ele>292.6</ele>
        <time>2021-09-05T10:17:58Z</time>
      </trkpt>
      <trkpt lat="44.04399" lon="1.95291">
        <ele>292.2</ele>
        <time>2021-09-05T10:17:59Z</time>
      </trkpt>
      <trkpt lat="44.04399" lon="1.95296">
        <ele>291.8</ele>
        <time>2021-09-05T10:18:00Z</time>
      </trkpt>
      <trkpt lat="44.04399" lon="1.95301">
        <ele>291.8</ele>
        <time>2021-09-05T10:18:01Z</time>
      </trkpt>
      <trkpt lat="44.044" lon="1.95305">
        <ele>291.6</ele>
        <time>2021-09-05T10:18:02Z</time>
      </trkpt>
      <trkpt lat="44.04399" lon="1.9531">
        <ele>291.6</ele>
        <time>2021-09-05T10:18:03Z</time>
      </trkpt>
      <trkpt lat="44.04399" lon="1.95314">
        <ele>291.6</ele>
        <time>2021-09-05T10:18:04Z</time>
      </trkpt>
      <trkpt lat="44.04399" lon="1.95327">
        <ele>291.6</ele>
        <time>2021-09-05T10:18:07Z</time>
      </trkpt>
      <trkpt lat="44.04398" lon="1.95332">
        <ele>291.4</ele>
        <time>2021-09-05T10:18:08Z</time>
      </trkpt>
      <trkpt lat="44.04398" lon="1.95336">
        <ele>291.4</ele>
        <time>2021-09-05T10:18:09Z</time>
      </trkpt>
      <trkpt lat="44.04398" lon="1.9534">
        <ele>291.6</ele>
        <time>2021-09-05T10:18:10Z</time>
      </trkpt>
      <trkpt lat="44.04398" lon="1.95344">
        <ele>291.8</ele>
        <time>2021-09-05T10:18:11Z</time>
      </trkpt>
      <trkpt lat="44.04398" lon="1.95347">
        <ele>291.8</ele>
        <time>2021-09-05T10:18:12Z</time>
      </trkpt>
      <trkpt lat="44.04398" lon="1.95349">
        <ele>291.8</ele>
        <time>2021-09-05T10:18:13Z</time>
      </trkpt>
      <trkpt lat="44.04398" lon="1.9535">
        <ele>292.2</ele>
        <time>2021-09-05T10:18:14Z</time>
      </trkpt>
      <trkpt lat="44.04397" lon="1.95353">
        <ele>292.2</ele>
        <time>2021-09-05T10:23:13Z</time>
      </trkpt>
      <trkpt lat="44.04396" lon="1.9537">
        <ele>292.2</ele>
        <time>2021-09-05T10:23:18Z</time>
      </trkpt>
      <trkpt lat="44.04393" lon="1.95405">
        <ele>292.2</ele>
        <time>2021-09-05T10:23:25Z</time>
      </trkpt>
      <trkpt lat="44.04388" lon="1.95437">
        <ele>291.8</ele>
        <time>2021-09-05T10:23:30Z</time>
      </trkpt>
      <trkpt lat="44.04387" lon="1.95443">
        <ele>291.8</ele>
        <time>2021-09-05T10:23:31Z</time>
      </trkpt>
      <trkpt lat="44.04386" lon="1.95449">
        <ele>291.8</ele>
        <time>2021-09-05T10:23:32Z</time>
      </trkpt>
      <trkpt lat="44.04385" lon="1.9546">
        <ele>291.8</ele>
        <time>2021-09-05T10:23:34Z</time>
      </trkpt>
      <trkpt lat="44.04382" lon="1.95484">
        <ele>292</ele>
        <time>2021-09-05T10:23:38Z</time>
      </trkpt>
      <trkpt lat="44.0438" lon="1.95495">
        <ele>292.2</ele>
        <time>2021-09-05T10:23:40Z</time>
      </trkpt>
      <trkpt lat="44.04379" lon="1.95507">
        <ele>292.4</ele>
        <time>2021-09-05T10:23:42Z</time>
      </trkpt>
      <trkpt lat="44.04378" lon="1.95511">
        <ele>292.6</ele>
        <time>2021-09-05T10:23:43Z</time>
      </trkpt>
      <trkpt lat="44.04377" lon="1.95517">
        <ele>292.6</ele>
        <time>2021-09-05T10:23:44Z</time>
      </trkpt>
      <trkpt lat="44.04375" lon="1.95523">
        <ele>292.8</ele>
        <time>2021-09-05T10:23:45Z</time>
      </trkpt>
      <trkpt lat="44.04376" lon="1.95528">
        <ele>292.8</ele>
        <time>2021-09-05T10:23:46Z</time>
      </trkpt>
      <trkpt lat="44.04377" lon="1.95532">
        <ele>292.8</ele>
        <time>2021-09-05T10:23:47Z</time>
      </trkpt>
      <trkpt lat="44.0438" lon="1.95535">
        <ele>292.8</ele>
        <time>2021-09-05T10:23:48Z</time>
      </trkpt>
      <trkpt lat="44.04382" lon="1.95537">
        <ele>292.8</ele>
        <time>2021-09-05T10:23:49Z</time>
      </trkpt>
      <trkpt lat="44.04389" lon="1.9554">
        <ele>293.2</ele>
        <time>2021-09-05T10:23:51Z</time>
      </trkpt>
      <trkpt lat="44.04391" lon="1.95541">
        <ele>293.4</ele>
        <time>2021-09-05T10:23:52Z</time>
      </trkpt>
      <trkpt lat="44.04395" lon="1.95542">
        <ele>293.4</ele>
        <time>2021-09-05T10:23:53Z</time>
      </trkpt>
      <trkpt lat="44.04411" lon="1.95548">
        <ele>294.6</ele>
        <time>2021-09-05T10:23:57Z</time>
      </trkpt>
      <trkpt lat="44.04414" lon="1.95549">
        <ele>294.8</ele>
        <time>2021-09-05T10:23:58Z</time>
      </trkpt>
      <trkpt lat="44.04418" lon="1.9555">
        <ele>295.2</ele>
        <time>2021-09-05T10:23:59Z</time>
      </trkpt>
      <trkpt lat="44.0442" lon="1.95551">
        <ele>295.4</ele>
        <time>2021-09-05T10:24:00Z</time>
      </trkpt>
      <trkpt lat="44.04422" lon="1.95552">
        <ele>295.8</ele>
        <time>2021-09-05T10:24:01Z</time>
      </trkpt>
      <trkpt lat="44.04425" lon="1.95553">
        <ele>296.2</ele>
        <time>2021-09-05T10:24:02Z</time>
      </trkpt>
      <trkpt lat="44.04427" lon="1.95555">
        <ele>296.8</ele>
        <time>2021-09-05T10:24:03Z</time>
      </trkpt>
      <trkpt lat="44.0443" lon="1.95556">
        <ele>297.4</ele>
        <time>2021-09-05T10:24:04Z</time>
      </trkpt>
      <trkpt lat="44.04432" lon="1.95556">
        <ele>297.8</ele>
        <time>2021-09-05T10:24:05Z</time>
      </trkpt>
      <trkpt lat="44.04434" lon="1.95557">
        <ele>298</ele>
        <time>2021-09-05T10:24:06Z</time>
      </trkpt>
      <trkpt lat="44.04437" lon="1.95558">
        <ele>298.2</ele>
        <time>2021-09-05T10:24:07Z</time>
      </trkpt>
      <trkpt lat="44.04439" lon="1.95559">
        <ele>298.2</ele>
        <time>2021-09-05T10:24:08Z</time>
      </trkpt>
      <trkpt lat="44.04441" lon="1.9556">
        <ele>298.4</ele>
        <time>2021-09-05T10:24:09Z</time>
      </trkpt>
      <trkpt lat="44.04443" lon="1.95561">
        <ele>298.8</ele>
        <time>2021-09-05T10:24:10Z</time>
      </trkpt>
      <trkpt lat="44.04446" lon="1.95562">
        <ele>299</ele>
        <time>2021-09-05T10:24:11Z</time>
      </trkpt>
      <trkpt lat="44.04448" lon="1.95563">
        <ele>299.2</ele>
        <time>2021-09-05T10:24:12Z</time>
      </trkpt>
      <trkpt lat="44.04451" lon="1.95564">
        <ele>299.4</ele>
        <time>2021-09-05T10:24:13Z</time>
      </trkpt>
      <trkpt lat="44.04453" lon="1.95565">
        <ele>299.4</ele>
        <time>2021-09-05T10:24:14Z</time>
      </trkpt>
      <trkpt lat="44.04456" lon="1.95566">
        <ele>299.6</ele>
        <time>2021-09-05T10:24:15Z</time>
      </trkpt>
      <trkpt lat="44.04458" lon="1.95566">
        <ele>299.8</ele>
        <time>2021-09-05T10:24:16Z</time>
      </trkpt>
      <trkpt lat="44.04461" lon="1.95566">
        <ele>300</ele>
        <time>2021-09-05T10:24:17Z</time>
      </trkpt>
      <trkpt lat="44.04463" lon="1.95566">
        <ele>300</ele>
        <time>2021-09-05T10:24:18Z</time>
      </trkpt>
      <trkpt lat="44.04465" lon="1.95566">
        <ele>300</ele>
        <time>2021-09-05T10:24:19Z</time>
      </trkpt>
      <trkpt lat="44.04468" lon="1.95565">
        <ele>300</ele>
        <time>2021-09-05T10:24:20Z</time>
      </trkpt>
      <trkpt lat="44.0447" lon="1.95565">
        <ele>300.2</ele>
        <time>2021-09-05T10:24:21Z</time>
      </trkpt>
      <trkpt lat="44.04473" lon="1.95566">
        <ele>300.4</ele>
        <time>2021-09-05T10:24:22Z</time>
      </trkpt>
      <trkpt lat="44.04476" lon="1.95567">
        <ele>300.4</ele>
        <time>2021-09-05T10:24:23Z</time>
      </trkpt>
      <trkpt lat="44.04478" lon="1.95568">
        <ele>300.4</ele>
        <time>2021-09-05T10:24:24Z</time>
      </trkpt>
      <trkpt lat="44.04481" lon="1.95569">
        <ele>300.4</ele>
        <time>2021-09-05T10:24:25Z</time>
      </trkpt>
      <trkpt lat="44.04483" lon="1.95571">
        <ele>300.4</ele>
        <time>2021-09-05T10:24:26Z</time>
      </trkpt>
      <trkpt lat="44.04486" lon="1.95574">
        <ele>300.4</ele>
        <time>2021-09-05T10:24:27Z</time>
      </trkpt>
      <trkpt lat="44.04488" lon="1.95576">
        <ele>300.4</ele>
        <time>2021-09-05T10:24:28Z</time>
      </trkpt>
      <trkpt lat="44.04491" lon="1.95578">
        <ele>300.4</ele>
        <time>2021-09-05T10:24:29Z</time>
      </trkpt>
      <trkpt lat="44.04494" lon="1.9558">
        <ele>300.4</ele>
        <time>2021-09-05T10:24:30Z</time>
      </trkpt>
      <trkpt lat="44.04497" lon="1.95583">
        <ele>300.2</ele>
        <time>2021-09-05T10:24:31Z</time>
      </trkpt>
      <trkpt lat="44.045" lon="1.95585">
        <ele>300.2</ele>
        <time>2021-09-05T10:24:32Z</time>
      </trkpt>
      <trkpt lat="44.04504" lon="1.95588">
        <ele>300.2</ele>
        <time>2021-09-05T10:24:33Z</time>
      </trkpt>
      <trkpt lat="44.04507" lon="1.95591">
        <ele>300.2</ele>
        <time>2021-09-05T10:24:34Z</time>
      </trkpt>
      <trkpt lat="44.0451" lon="1.95593">
        <ele>300.2</ele>
        <time>2021-09-05T10:24:35Z</time>
      </trkpt>
      <trkpt lat="44.04513" lon="1.95596">
        <ele>300.4</ele>
        <time>2021-09-05T10:24:36Z</time>
      </trkpt>
      <trkpt lat="44.04519" lon="1.95601">
        <ele>300.4</ele>
        <time>2021-09-05T10:24:38Z</time>
      </trkpt>
      <trkpt lat="44.04528" lon="1.95608">
        <ele>300.6</ele>
        <time>2021-09-05T10:24:41Z</time>
      </trkpt>
      <trkpt lat="44.04547" lon="1.95626">
        <ele>301</ele>
        <time>2021-09-05T10:24:47Z</time>
      </trkpt>
      <trkpt lat="44.04577" lon="1.95654">
        <ele>300.6</ele>
        <time>2021-09-05T10:24:55Z</time>
      </trkpt>
      <trkpt lat="44.04605" lon="1.95682">
        <ele>300.4</ele>
        <time>2021-09-05T10:25:01Z</time>
      </trkpt>
      <trkpt lat="44.04635" lon="1.95715">
        <ele>299.8</ele>
        <time>2021-09-05T10:25:07Z</time>
      </trkpt>
      <trkpt lat="44.04645" lon="1.95725">
        <ele>299.4</ele>
        <time>2021-09-05T10:25:09Z</time>
      </trkpt>
      <trkpt lat="44.0465" lon="1.95731">
        <ele>299</ele>
        <time>2021-09-05T10:25:10Z</time>
      </trkpt>
      <trkpt lat="44.04654" lon="1.95736">
        <ele>299</ele>
        <time>2021-09-05T10:25:11Z</time>
      </trkpt>
      <trkpt lat="44.04658" lon="1.95741">
        <ele>299</ele>
        <time>2021-09-05T10:25:12Z</time>
      </trkpt>
      <trkpt lat="44.04661" lon="1.95745">
        <ele>298.8</ele>
        <time>2021-09-05T10:25:13Z</time>
      </trkpt>
      <trkpt lat="44.04666" lon="1.9575">
        <ele>298.8</ele>
        <time>2021-09-05T10:25:14Z</time>
      </trkpt>
      <trkpt lat="44.04669" lon="1.95755">
        <ele>298.8</ele>
        <time>2021-09-05T10:25:15Z</time>
      </trkpt>
      <trkpt lat="44.04673" lon="1.95759">
        <ele>298.8</ele>
        <time>2021-09-05T10:25:16Z</time>
      </trkpt>
      <trkpt lat="44.04698" lon="1.95786">
        <ele>298.6</ele>
        <time>2021-09-05T10:25:22Z</time>
      </trkpt>
      <trkpt lat="44.04703" lon="1.95795">
        <ele>298.4</ele>
        <time>2021-09-05T10:25:23Z</time>
      </trkpt>
      <trkpt lat="44.04706" lon="1.95804">
        <ele>298.2</ele>
        <time>2021-09-05T10:25:24Z</time>
      </trkpt>
      <trkpt lat="44.04709" lon="1.95813">
        <ele>297.8</ele>
        <time>2021-09-05T10:25:25Z</time>
      </trkpt>
      <trkpt lat="44.04712" lon="1.95823">
        <ele>297.4</ele>
        <time>2021-09-05T10:25:26Z</time>
      </trkpt>
      <trkpt lat="44.04725" lon="1.95854">
        <ele>296.2</ele>
        <time>2021-09-05T10:25:29Z</time>
      </trkpt>
      <trkpt lat="44.0473" lon="1.95863">
        <ele>295</ele>
        <time>2021-09-05T10:25:30Z</time>
      </trkpt>
      <trkpt lat="44.04734" lon="1.9587">
        <ele>294.6</ele>
        <time>2021-09-05T10:25:31Z</time>
      </trkpt>
      <trkpt lat="44.04739" lon="1.95878">
        <ele>294</ele>
        <time>2021-09-05T10:25:32Z</time>
      </trkpt>
      <trkpt lat="44.04745" lon="1.95883">
        <ele>293.6</ele>
        <time>2021-09-05T10:25:33Z</time>
      </trkpt>
      <trkpt lat="44.04751" lon="1.95887">
        <ele>292.8</ele>
        <time>2021-09-05T10:25:34Z</time>
      </trkpt>
      <trkpt lat="44.04757" lon="1.95892">
        <ele>292.2</ele>
        <time>2021-09-05T10:25:35Z</time>
      </trkpt>
      <trkpt lat="44.04762" lon="1.95894">
        <ele>291.6</ele>
        <time>2021-09-05T10:25:36Z</time>
      </trkpt>
      <trkpt lat="44.04769" lon="1.95897">
        <ele>290.4</ele>
        <time>2021-09-05T10:25:37Z</time>
      </trkpt>
      <trkpt lat="44.04775" lon="1.95899">
        <ele>290</ele>
        <time>2021-09-05T10:25:38Z</time>
      </trkpt>
      <trkpt lat="44.04781" lon="1.95901">
        <ele>289.4</ele>
        <time>2021-09-05T10:25:39Z</time>
      </trkpt>
      <trkpt lat="44.04785" lon="1.95901">
        <ele>289.2</ele>
        <time>2021-09-05T10:25:40Z</time>
      </trkpt>
      <trkpt lat="44.0479" lon="1.95901">
        <ele>289</ele>
        <time>2021-09-05T10:25:41Z</time>
      </trkpt>
      <trkpt lat="44.04795" lon="1.95901">
        <ele>288.8</ele>
        <time>2021-09-05T10:25:42Z</time>
      </trkpt>
      <trkpt lat="44.048" lon="1.95901">
        <ele>288.8</ele>
        <time>2021-09-05T10:25:43Z</time>
      </trkpt>
      <trkpt lat="44.04804" lon="1.959">
        <ele>289</ele>
        <time>2021-09-05T10:25:44Z</time>
      </trkpt>
      <trkpt lat="44.04808" lon="1.959">
        <ele>289.2</ele>
        <time>2021-09-05T10:25:45Z</time>
      </trkpt>
      <trkpt lat="44.04812" lon="1.95899">
        <ele>289.2</ele>
        <time>2021-09-05T10:25:46Z</time>
      </trkpt>
      <trkpt lat="44.04815" lon="1.95899">
        <ele>289.4</ele>
        <time>2021-09-05T10:25:47Z</time>
      </trkpt>
      <trkpt lat="44.04817" lon="1.95899">
        <ele>289.8</ele>
        <time>2021-09-05T10:25:48Z</time>
      </trkpt>
      <trkpt lat="44.04819" lon="1.95898">
        <ele>290</ele>
        <time>2021-09-05T10:25:49Z</time>
      </trkpt>
      <trkpt lat="44.04821" lon="1.95898">
        <ele>290.2</ele>
        <time>2021-09-05T10:25:50Z</time>
      </trkpt>
      <trkpt lat="44.04823" lon="1.95897">
        <ele>290.6</ele>
        <time>2021-09-05T10:25:51Z</time>
      </trkpt>
      <trkpt lat="44.04825" lon="1.95897">
        <ele>290.6</ele>
        <time>2021-09-05T10:25:52Z</time>
      </trkpt>
      <trkpt lat="44.04826" lon="1.95897">
        <ele>290.8</ele>
        <time>2021-09-05T10:25:53Z</time>
      </trkpt>
      <trkpt lat="44.04828" lon="1.95897">
        <ele>290.8</ele>
        <time>2021-09-05T10:25:54Z</time>
      </trkpt>
      <trkpt lat="44.0483" lon="1.95897">
        <ele>291.2</ele>
        <time>2021-09-05T10:25:55Z</time>
      </trkpt>
      <trkpt lat="44.04832" lon="1.95897">
        <ele>291.4</ele>
        <time>2021-09-05T10:25:56Z</time>
      </trkpt>
      <trkpt lat="44.04835" lon="1.95897">
        <ele>291.8</ele>
        <time>2021-09-05T10:25:57Z</time>
      </trkpt>
      <trkpt lat="44.04836" lon="1.95897">
        <ele>292</ele>
        <time>2021-09-05T10:25:58Z</time>
      </trkpt>
      <trkpt lat="44.04839" lon="1.95897">
        <ele>292.4</ele>
        <time>2021-09-05T10:25:59Z</time>
      </trkpt>
      <trkpt lat="44.04845" lon="1.95897">
        <ele>293.2</ele>
        <time>2021-09-05T10:26:02Z</time>
      </trkpt>
      <trkpt lat="44.04847" lon="1.95897">
        <ele>293.4</ele>
        <time>2021-09-05T10:26:03Z</time>
      </trkpt>
      <trkpt lat="44.04849" lon="1.95897">
        <ele>293.6</ele>
        <time>2021-09-05T10:26:04Z</time>
      </trkpt>
      <trkpt lat="44.04851" lon="1.95896">
        <ele>293.8</ele>
        <time>2021-09-05T10:26:05Z</time>
      </trkpt>
      <trkpt lat="44.04853" lon="1.95894">
        <ele>294.2</ele>
        <time>2021-09-05T10:26:06Z</time>
      </trkpt>
      <trkpt lat="44.04855" lon="1.95893">
        <ele>294.4</ele>
        <time>2021-09-05T10:26:07Z</time>
      </trkpt>
      <trkpt lat="44.04857" lon="1.95893">
        <ele>294.6</ele>
        <time>2021-09-05T10:26:08Z</time>
      </trkpt>
      <trkpt lat="44.04858" lon="1.95893">
        <ele>295</ele>
        <time>2021-09-05T10:26:09Z</time>
      </trkpt>
      <trkpt lat="44.0486" lon="1.95894">
        <ele>295</ele>
        <time>2021-09-05T10:26:10Z</time>
      </trkpt>
      <trkpt lat="44.04861" lon="1.95894">
        <ele>295.4</ele>
        <time>2021-09-05T10:26:11Z</time>
      </trkpt>
      <trkpt lat="44.04862" lon="1.95895">
        <ele>295.4</ele>
        <time>2021-09-05T10:26:12Z</time>
      </trkpt>
      <trkpt lat="44.04864" lon="1.95896">
        <ele>295.6</ele>
        <time>2021-09-05T10:26:13Z</time>
      </trkpt>
      <trkpt lat="44.04866" lon="1.95895">
        <ele>295.8</ele>
        <time>2021-09-05T10:26:14Z</time>
      </trkpt>
      <trkpt lat="44.04869" lon="1.95895">
        <ele>296</ele>
        <time>2021-09-05T10:26:15Z</time>
      </trkpt>
      <trkpt lat="44.04871" lon="1.95895">
        <ele>296.2</ele>
        <time>2021-09-05T10:26:16Z</time>
      </trkpt>
      <trkpt lat="44.04873" lon="1.95895">
        <ele>296.4</ele>
        <time>2021-09-05T10:26:17Z</time>
      </trkpt>
      <trkpt lat="44.04875" lon="1.95895">
        <ele>296.8</ele>
        <time>2021-09-05T10:26:18Z</time>
      </trkpt>
      <trkpt lat="44.04876" lon="1.95894">
        <ele>296.8</ele>
        <time>2021-09-05T10:26:19Z</time>
      </trkpt>
      <trkpt lat="44.04878" lon="1.95895">
        <ele>297</ele>
        <time>2021-09-05T10:26:20Z</time>
      </trkpt>
      <trkpt lat="44.04879" lon="1.95895">
        <ele>297.2</ele>
        <time>2021-09-05T10:26:21Z</time>
      </trkpt>
      <trkpt lat="44.04881" lon="1.95894">
        <ele>297.4</ele>
        <time>2021-09-05T10:26:22Z</time>
      </trkpt>
      <trkpt lat="44.04882" lon="1.95894">
        <ele>297.6</ele>
        <time>2021-09-05T10:26:23Z</time>
      </trkpt>
      <trkpt lat="44.04884" lon="1.95893">
        <ele>297.8</ele>
        <time>2021-09-05T10:26:24Z</time>
      </trkpt>
      <trkpt lat="44.04885" lon="1.95893">
        <ele>298.2</ele>
        <time>2021-09-05T10:26:25Z</time>
      </trkpt>
      <trkpt lat="44.04886" lon="1.95893">
        <ele>298.2</ele>
        <time>2021-09-05T10:26:26Z</time>
      </trkpt>
      <trkpt lat="44.04888" lon="1.95893">
        <ele>298.4</ele>
        <time>2021-09-05T10:26:27Z</time>
      </trkpt>
      <trkpt lat="44.04889" lon="1.95892">
        <ele>298.4</ele>
        <time>2021-09-05T10:26:28Z</time>
      </trkpt>
      <trkpt lat="44.04891" lon="1.95892">
        <ele>298.8</ele>
        <time>2021-09-05T10:26:29Z</time>
      </trkpt>
      <trkpt lat="44.04892" lon="1.95891">
        <ele>299</ele>
        <time>2021-09-05T10:26:30Z</time>
      </trkpt>
      <trkpt lat="44.04894" lon="1.95891">
        <ele>299.4</ele>
        <time>2021-09-05T10:26:31Z</time>
      </trkpt>
      <trkpt lat="44.04895" lon="1.95891">
        <ele>299.8</ele>
        <time>2021-09-05T10:26:32Z</time>
      </trkpt>
      <trkpt lat="44.04896" lon="1.95891">
        <ele>299.8</ele>
        <time>2021-09-05T10:26:33Z</time>
      </trkpt>
      <trkpt lat="44.04898" lon="1.95891">
        <ele>300</ele>
        <time>2021-09-05T10:26:34Z</time>
      </trkpt>
      <trkpt lat="44.049" lon="1.9589">
        <ele>300</ele>
        <time>2021-09-05T10:26:35Z</time>
      </trkpt>
      <trkpt lat="44.04901" lon="1.9589">
        <ele>300.2</ele>
        <time>2021-09-05T10:26:36Z</time>
      </trkpt>
      <trkpt lat="44.04903" lon="1.9589">
        <ele>300.4</ele>
        <time>2021-09-05T10:26:37Z</time>
      </trkpt>
      <trkpt lat="44.04904" lon="1.9589">
        <ele>300.6</ele>
        <time>2021-09-05T10:26:38Z</time>
      </trkpt>
      <trkpt lat="44.04906" lon="1.9589">
        <ele>300.8</ele>
        <time>2021-09-05T10:26:39Z</time>
      </trkpt>
      <trkpt lat="44.04908" lon="1.9589">
        <ele>300.8</ele>
        <time>2021-09-05T10:26:40Z</time>
      </trkpt>
      <trkpt lat="44.0491" lon="1.95889">
        <ele>301.2</ele>
        <time>2021-09-05T10:26:41Z</time>
      </trkpt>
      <trkpt lat="44.04912" lon="1.95889">
        <ele>301.2</ele>
        <time>2021-09-05T10:26:42Z</time>
      </trkpt>
      <trkpt lat="44.04914" lon="1.95889">
        <ele>301.6</ele>
        <time>2021-09-05T10:26:43Z</time>
      </trkpt>
      <trkpt lat="44.04916" lon="1.95889">
        <ele>301.6</ele>
        <time>2021-09-05T10:26:44Z</time>
      </trkpt>
      <trkpt lat="44.04918" lon="1.9589">
        <ele>301.8</ele>
        <time>2021-09-05T10:26:45Z</time>
      </trkpt>
      <trkpt lat="44.0492" lon="1.9589">
        <ele>301.8</ele>
        <time>2021-09-05T10:26:46Z</time>
      </trkpt>
      <trkpt lat="44.04921" lon="1.9589">
        <ele>302</ele>
        <time>2021-09-05T10:26:47Z</time>
      </trkpt>
      <trkpt lat="44.04924" lon="1.9589">
        <ele>302.4</ele>
        <time>2021-09-05T10:26:48Z</time>
      </trkpt>
      <trkpt lat="44.04926" lon="1.95891">
        <ele>302.6</ele>
        <time>2021-09-05T10:26:49Z</time>
      </trkpt>
      <trkpt lat="44.04928" lon="1.95891">
        <ele>302.8</ele>
        <time>2021-09-05T10:26:50Z</time>
      </trkpt>
      <trkpt lat="44.0493" lon="1.95891">
        <ele>303.2</ele>
        <time>2021-09-05T10:26:51Z</time>
      </trkpt>
      <trkpt lat="44.04932" lon="1.95892">
        <ele>304</ele>
        <time>2021-09-05T10:26:52Z</time>
      </trkpt>
      <trkpt lat="44.04934" lon="1.95893">
        <ele>304.2</ele>
        <time>2021-09-05T10:26:53Z</time>
      </trkpt>
      <trkpt lat="44.04936" lon="1.95894">
        <ele>304.8</ele>
        <time>2021-09-05T10:26:54Z</time>
      </trkpt>
      <trkpt lat="44.04938" lon="1.95896">
        <ele>304.8</ele>
        <time>2021-09-05T10:26:55Z</time>
      </trkpt>
      <trkpt lat="44.04939" lon="1.95897">
        <ele>305</ele>
        <time>2021-09-05T10:26:56Z</time>
      </trkpt>
      <trkpt lat="44.0494" lon="1.95899">
        <ele>305.2</ele>
        <time>2021-09-05T10:26:57Z</time>
      </trkpt>
      <trkpt lat="44.0494" lon="1.95901">
        <ele>305.4</ele>
        <time>2021-09-05T10:26:58Z</time>
      </trkpt>
      <trkpt lat="44.0494" lon="1.95903">
        <ele>305.4</ele>
        <time>2021-09-05T10:26:59Z</time>
      </trkpt>
      <trkpt lat="44.0494" lon="1.95905">
        <ele>305.6</ele>
        <time>2021-09-05T10:27:00Z</time>
      </trkpt>
      <trkpt lat="44.0494" lon="1.95907">
        <ele>305.6</ele>
        <time>2021-09-05T10:27:01Z</time>
      </trkpt>
      <trkpt lat="44.04939" lon="1.9591">
        <ele>305.6</ele>
        <time>2021-09-05T10:27:02Z</time>
      </trkpt>
      <trkpt lat="44.04939" lon="1.95912">
        <ele>305.6</ele>
        <time>2021-09-05T10:27:03Z</time>
      </trkpt>
      <trkpt lat="44.04939" lon="1.95915">
        <ele>305.6</ele>
        <time>2021-09-05T10:27:04Z</time>
      </trkpt>
      <trkpt lat="44.04938" lon="1.95918">
        <ele>305.6</ele>
        <time>2021-09-05T10:27:05Z</time>
      </trkpt>
      <trkpt lat="44.04938" lon="1.9592">
        <ele>305.8</ele>
        <time>2021-09-05T10:27:06Z</time>
      </trkpt>
      <trkpt lat="44.04937" lon="1.95924">
        <ele>305.8</ele>
        <time>2021-09-05T10:27:07Z</time>
      </trkpt>
      <trkpt lat="44.04936" lon="1.95927">
        <ele>306</ele>
        <time>2021-09-05T10:27:08Z</time>
      </trkpt>
      <trkpt lat="44.04935" lon="1.9593">
        <ele>306</ele>
        <time>2021-09-05T10:27:09Z</time>
      </trkpt>
      <trkpt lat="44.04934" lon="1.95933">
        <ele>306</ele>
        <time>2021-09-05T10:27:10Z</time>
      </trkpt>
      <trkpt lat="44.04933" lon="1.95938">
        <ele>306</ele>
        <time>2021-09-05T10:27:11Z</time>
      </trkpt>
      <trkpt lat="44.04931" lon="1.95942">
        <ele>306</ele>
        <time>2021-09-05T10:27:12Z</time>
      </trkpt>
      <trkpt lat="44.04931" lon="1.95945">
        <ele>305.8</ele>
        <time>2021-09-05T10:27:13Z</time>
      </trkpt>
      <trkpt lat="44.0493" lon="1.9595">
        <ele>305.8</ele>
        <time>2021-09-05T10:27:14Z</time>
      </trkpt>
      <trkpt lat="44.04928" lon="1.95954">
        <ele>305.8</ele>
        <time>2021-09-05T10:27:15Z</time>
      </trkpt>
      <trkpt lat="44.04927" lon="1.95958">
        <ele>305.8</ele>
        <time>2021-09-05T10:27:16Z</time>
      </trkpt>
      <trkpt lat="44.04926" lon="1.95962">
        <ele>305.8</ele>
        <time>2021-09-05T10:27:17Z</time>
      </trkpt>
      <trkpt lat="44.04924" lon="1.95966">
        <ele>305.8</ele>
        <time>2021-09-05T10:27:18Z</time>
      </trkpt>
      <trkpt lat="44.04922" lon="1.95969">
        <ele>305.8</ele>
        <time>2021-09-05T10:27:19Z</time>
      </trkpt>
      <trkpt lat="44.0492" lon="1.95975">
        <ele>305.8</ele>
        <time>2021-09-05T10:27:20Z</time>
      </trkpt>
      <trkpt lat="44.04909" lon="1.96002">
        <ele>305.6</ele>
        <time>2021-09-05T10:27:25Z</time>
      </trkpt>
      <trkpt lat="44.04907" lon="1.96007">
        <ele>305.6</ele>
        <time>2021-09-05T10:27:26Z</time>
      </trkpt>
      <trkpt lat="44.04906" lon="1.96013">
        <ele>305.6</ele>
        <time>2021-09-05T10:27:27Z</time>
      </trkpt>
      <trkpt lat="44.04904" lon="1.96017">
        <ele>305.4</ele>
        <time>2021-09-05T10:27:28Z</time>
      </trkpt>
      <trkpt lat="44.04895" lon="1.96044">
        <ele>305.2</ele>
        <time>2021-09-05T10:27:33Z</time>
      </trkpt>
      <trkpt lat="44.04889" lon="1.96059">
        <ele>305.2</ele>
        <time>2021-09-05T10:27:36Z</time>
      </trkpt>
      <trkpt lat="44.04875" lon="1.96089">
        <ele>305</ele>
        <time>2021-09-05T10:27:42Z</time>
      </trkpt>
      <trkpt lat="44.04872" lon="1.96096">
        <ele>305</ele>
        <time>2021-09-05T10:27:43Z</time>
      </trkpt>
      <trkpt lat="44.04864" lon="1.96111">
        <ele>305</ele>
        <time>2021-09-05T10:27:46Z</time>
      </trkpt>
      <trkpt lat="44.04854" lon="1.9614">
        <ele>304.6</ele>
        <time>2021-09-05T10:27:51Z</time>
      </trkpt>
      <trkpt lat="44.04853" lon="1.96148">
        <ele>304.6</ele>
        <time>2021-09-05T10:27:52Z</time>
      </trkpt>
      <trkpt lat="44.04852" lon="1.96155">
        <ele>304.6</ele>
        <time>2021-09-05T10:27:53Z</time>
      </trkpt>
      <trkpt lat="44.04851" lon="1.96162">
        <ele>304.4</ele>
        <time>2021-09-05T10:27:54Z</time>
      </trkpt>
      <trkpt lat="44.04851" lon="1.96168">
        <ele>304.4</ele>
        <time>2021-09-05T10:27:55Z</time>
      </trkpt>
      <trkpt lat="44.04851" lon="1.96176">
        <ele>304.4</ele>
        <time>2021-09-05T10:27:56Z</time>
      </trkpt>
      <trkpt lat="44.04851" lon="1.96182">
        <ele>304.4</ele>
        <time>2021-09-05T10:27:57Z</time>
      </trkpt>
      <trkpt lat="44.04851" lon="1.96189">
        <ele>304.6</ele>
        <time>2021-09-05T10:27:58Z</time>
      </trkpt>
      <trkpt lat="44.0485" lon="1.96194">
        <ele>304.6</ele>
        <time>2021-09-05T10:27:59Z</time>
      </trkpt>
      <trkpt lat="44.0485" lon="1.962">
        <ele>304.6</ele>
        <time>2021-09-05T10:28:00Z</time>
      </trkpt>
      <trkpt lat="44.04848" lon="1.96211">
        <ele>304.6</ele>
        <time>2021-09-05T10:28:02Z</time>
      </trkpt>
      <trkpt lat="44.04847" lon="1.96217">
        <ele>305</ele>
        <time>2021-09-05T10:28:03Z</time>
      </trkpt>
      <trkpt lat="44.04842" lon="1.96233">
        <ele>305</ele>
        <time>2021-09-05T10:28:06Z</time>
      </trkpt>
      <trkpt lat="44.04839" lon="1.96238">
        <ele>305</ele>
        <time>2021-09-05T10:28:07Z</time>
      </trkpt>
      <trkpt lat="44.04828" lon="1.96263">
        <ele>304.8</ele>
        <time>2021-09-05T10:28:11Z</time>
      </trkpt>
      <trkpt lat="44.04825" lon="1.9627">
        <ele>304.8</ele>
        <time>2021-09-05T10:28:12Z</time>
      </trkpt>
      <trkpt lat="44.04821" lon="1.96283">
        <ele>304.6</ele>
        <time>2021-09-05T10:28:14Z</time>
      </trkpt>
      <trkpt lat="44.04819" lon="1.9629">
        <ele>304.6</ele>
        <time>2021-09-05T10:28:15Z</time>
      </trkpt>
      <trkpt lat="44.04818" lon="1.96298">
        <ele>304.4</ele>
        <time>2021-09-05T10:28:16Z</time>
      </trkpt>
      <trkpt lat="44.04818" lon="1.96305">
        <ele>304.4</ele>
        <time>2021-09-05T10:28:17Z</time>
      </trkpt>
      <trkpt lat="44.04817" lon="1.96312">
        <ele>304.4</ele>
        <time>2021-09-05T10:28:18Z</time>
      </trkpt>
      <trkpt lat="44.04817" lon="1.9632">
        <ele>304.4</ele>
        <time>2021-09-05T10:28:19Z</time>
      </trkpt>
      <trkpt lat="44.04817" lon="1.96326">
        <ele>304.4</ele>
        <time>2021-09-05T10:28:20Z</time>
      </trkpt>
      <trkpt lat="44.04816" lon="1.96333">
        <ele>304.2</ele>
        <time>2021-09-05T10:28:21Z</time>
      </trkpt>
      <trkpt lat="44.04816" lon="1.96339">
        <ele>304.4</ele>
        <time>2021-09-05T10:28:22Z</time>
      </trkpt>
      <trkpt lat="44.04815" lon="1.96347">
        <ele>304.2</ele>
        <time>2021-09-05T10:28:23Z</time>
      </trkpt>
      <trkpt lat="44.04814" lon="1.96353">
        <ele>304.2</ele>
        <time>2021-09-05T10:28:24Z</time>
      </trkpt>
      <trkpt lat="44.04813" lon="1.9636">
        <ele>304.2</ele>
        <time>2021-09-05T10:28:25Z</time>
      </trkpt>
      <trkpt lat="44.04813" lon="1.96366">
        <ele>304.2</ele>
        <time>2021-09-05T10:28:26Z</time>
      </trkpt>
      <trkpt lat="44.04812" lon="1.96372">
        <ele>304.2</ele>
        <time>2021-09-05T10:28:27Z</time>
      </trkpt>
      <trkpt lat="44.04812" lon="1.96378">
        <ele>304.2</ele>
        <time>2021-09-05T10:28:28Z</time>
      </trkpt>
      <trkpt lat="44.04812" lon="1.96383">
        <ele>304.2</ele>
        <time>2021-09-05T10:28:29Z</time>
      </trkpt>
      <trkpt lat="44.04812" lon="1.96388">
        <ele>304.4</ele>
        <time>2021-09-05T10:28:30Z</time>
      </trkpt>
      <trkpt lat="44.04812" lon="1.96392">
        <ele>304.6</ele>
        <time>2021-09-05T10:28:31Z</time>
      </trkpt>
      <trkpt lat="44.04811" lon="1.96397">
        <ele>304.6</ele>
        <time>2021-09-05T10:28:32Z</time>
      </trkpt>
      <trkpt lat="44.04811" lon="1.96401">
        <ele>304.8</ele>
        <time>2021-09-05T10:28:33Z</time>
      </trkpt>
      <trkpt lat="44.0481" lon="1.96406">
        <ele>304.8</ele>
        <time>2021-09-05T10:28:34Z</time>
      </trkpt>
      <trkpt lat="44.04809" lon="1.9641">
        <ele>305</ele>
        <time>2021-09-05T10:28:35Z</time>
      </trkpt>
      <trkpt lat="44.04809" lon="1.96413">
        <ele>305.2</ele>
        <time>2021-09-05T10:28:36Z</time>
      </trkpt>
      <trkpt lat="44.04809" lon="1.96417">
        <ele>305.4</ele>
        <time>2021-09-05T10:28:37Z</time>
      </trkpt>
      <trkpt lat="44.04808" lon="1.9642">
        <ele>305.6</ele>
        <time>2021-09-05T10:28:38Z</time>
      </trkpt>
      <trkpt lat="44.04807" lon="1.96423">
        <ele>306</ele>
        <time>2021-09-05T10:28:39Z</time>
      </trkpt>
      <trkpt lat="44.04807" lon="1.96425">
        <ele>306</ele>
        <time>2021-09-05T10:28:40Z</time>
      </trkpt>
      <trkpt lat="44.04807" lon="1.96429">
        <ele>306.4</ele>
        <time>2021-09-05T10:28:41Z</time>
      </trkpt>
      <trkpt lat="44.04807" lon="1.96433">
        <ele>306.8</ele>
        <time>2021-09-05T10:28:42Z</time>
      </trkpt>
      <trkpt lat="44.04805" lon="1.9646">
        <ele>307.6</ele>
        <time>2021-09-05T10:28:48Z</time>
      </trkpt>
      <trkpt lat="44.04805" lon="1.96465">
        <ele>307.6</ele>
        <time>2021-09-05T10:28:49Z</time>
      </trkpt>
      <trkpt lat="44.04804" lon="1.96471">
        <ele>307.8</ele>
        <time>2021-09-05T10:28:50Z</time>
      </trkpt>
      <trkpt lat="44.04804" lon="1.96476">
        <ele>307.8</ele>
        <time>2021-09-05T10:28:51Z</time>
      </trkpt>
      <trkpt lat="44.04803" lon="1.96481">
        <ele>307.8</ele>
        <time>2021-09-05T10:28:52Z</time>
      </trkpt>
      <trkpt lat="44.04802" lon="1.96485">
        <ele>308</ele>
        <time>2021-09-05T10:28:53Z</time>
      </trkpt>
      <trkpt lat="44.04801" lon="1.96489">
        <ele>308</ele>
        <time>2021-09-05T10:28:54Z</time>
      </trkpt>
      <trkpt lat="44.048" lon="1.96493">
        <ele>308.2</ele>
        <time>2021-09-05T10:28:55Z</time>
      </trkpt>
      <trkpt lat="44.04798" lon="1.96497">
        <ele>308.2</ele>
        <time>2021-09-05T10:28:56Z</time>
      </trkpt>
      <trkpt lat="44.04796" lon="1.96501">
        <ele>308.2</ele>
        <time>2021-09-05T10:28:57Z</time>
      </trkpt>
      <trkpt lat="44.04794" lon="1.96504">
        <ele>308.4</ele>
        <time>2021-09-05T10:28:58Z</time>
      </trkpt>
      <trkpt lat="44.04791" lon="1.9651">
        <ele>308.4</ele>
        <time>2021-09-05T10:28:59Z</time>
      </trkpt>
      <trkpt lat="44.04789" lon="1.96514">
        <ele>308.6</ele>
        <time>2021-09-05T10:29:00Z</time>
      </trkpt>
      <trkpt lat="44.04786" lon="1.96518">
        <ele>308.6</ele>
        <time>2021-09-05T10:29:01Z</time>
      </trkpt>
      <trkpt lat="44.04783" lon="1.96521">
        <ele>308.6</ele>
        <time>2021-09-05T10:29:02Z</time>
      </trkpt>
      <trkpt lat="44.0478" lon="1.96524">
        <ele>308.6</ele>
        <time>2021-09-05T10:29:03Z</time>
      </trkpt>
      <trkpt lat="44.04778" lon="1.96526">
        <ele>308.8</ele>
        <time>2021-09-05T10:29:04Z</time>
      </trkpt>
      <trkpt lat="44.04775" lon="1.96529">
        <ele>308.8</ele>
        <time>2021-09-05T10:29:05Z</time>
      </trkpt>
      <trkpt lat="44.04772" lon="1.96531">
        <ele>308.8</ele>
        <time>2021-09-05T10:29:06Z</time>
      </trkpt>
      <trkpt lat="44.0477" lon="1.96534">
        <ele>308.8</ele>
        <time>2021-09-05T10:29:07Z</time>
      </trkpt>
      <trkpt lat="44.04768" lon="1.96538">
        <ele>308.8</ele>
        <time>2021-09-05T10:29:08Z</time>
      </trkpt>
      <trkpt lat="44.04768" lon="1.96541">
        <ele>309</ele>
        <time>2021-09-05T10:29:09Z</time>
      </trkpt>
      <trkpt lat="44.04769" lon="1.96544">
        <ele>309</ele>
        <time>2021-09-05T10:29:10Z</time>
      </trkpt>
      <trkpt lat="44.04771" lon="1.96546">
        <ele>309</ele>
        <time>2021-09-05T10:29:11Z</time>
      </trkpt>
      <trkpt lat="44.04787" lon="1.96554">
        <ele>309.2</ele>
        <time>2021-09-05T10:29:17Z</time>
      </trkpt>
      <trkpt lat="44.0481" lon="1.96556">
        <ele>309.2</ele>
        <time>2021-09-05T10:29:23Z</time>
      </trkpt>
      <trkpt lat="44.04838" lon="1.96553">
        <ele>308.6</ele>
        <time>2021-09-05T10:29:29Z</time>
      </trkpt>
      <trkpt lat="44.0486" lon="1.96552">
        <ele>308.2</ele>
        <time>2021-09-05T10:29:33Z</time>
      </trkpt>
      <trkpt lat="44.04872" lon="1.9655">
        <ele>307.8</ele>
        <time>2021-09-05T10:29:35Z</time>
      </trkpt>
      <trkpt lat="44.04878" lon="1.96549">
        <ele>307.4</ele>
        <time>2021-09-05T10:29:36Z</time>
      </trkpt>
      <trkpt lat="44.04884" lon="1.96549">
        <ele>307.2</ele>
        <time>2021-09-05T10:29:37Z</time>
      </trkpt>
      <trkpt lat="44.04889" lon="1.96549">
        <ele>307</ele>
        <time>2021-09-05T10:29:38Z</time>
      </trkpt>
      <trkpt lat="44.04894" lon="1.96549">
        <ele>306.8</ele>
        <time>2021-09-05T10:29:39Z</time>
      </trkpt>
      <trkpt lat="44.04898" lon="1.96549">
        <ele>306.6</ele>
        <time>2021-09-05T10:29:40Z</time>
      </trkpt>
      <trkpt lat="44.04902" lon="1.96549">
        <ele>306.6</ele>
        <time>2021-09-05T10:29:41Z</time>
      </trkpt>
      <trkpt lat="44.04905" lon="1.9655">
        <ele>306.2</ele>
        <time>2021-09-05T10:29:42Z</time>
      </trkpt>
      <trkpt lat="44.0491" lon="1.96555">
        <ele>305.8</ele>
        <time>2021-09-05T10:29:44Z</time>
      </trkpt>
      <trkpt lat="44.04912" lon="1.96559">
        <ele>305.8</ele>
        <time>2021-09-05T10:29:45Z</time>
      </trkpt>
      <trkpt lat="44.04913" lon="1.96563">
        <ele>305.4</ele>
        <time>2021-09-05T10:29:46Z</time>
      </trkpt>
      <trkpt lat="44.04914" lon="1.96567">
        <ele>305.2</ele>
        <time>2021-09-05T10:29:47Z</time>
      </trkpt>
      <trkpt lat="44.04916" lon="1.96572">
        <ele>305.2</ele>
        <time>2021-09-05T10:29:48Z</time>
      </trkpt>
      <trkpt lat="44.04923" lon="1.9659">
        <ele>304.2</ele>
        <time>2021-09-05T10:29:52Z</time>
      </trkpt>
      <trkpt lat="44.04929" lon="1.96607">
        <ele>304</ele>
        <time>2021-09-05T10:29:55Z</time>
      </trkpt>
      <trkpt lat="44.04931" lon="1.96613">
        <ele>304</ele>
        <time>2021-09-05T10:29:56Z</time>
      </trkpt>
      <trkpt lat="44.04932" lon="1.96618">
        <ele>304</ele>
        <time>2021-09-05T10:29:57Z</time>
      </trkpt>
      <trkpt lat="44.04935" lon="1.96623">
        <ele>304</ele>
        <time>2021-09-05T10:29:58Z</time>
      </trkpt>
      <trkpt lat="44.04936" lon="1.96628">
        <ele>304</ele>
        <time>2021-09-05T10:29:59Z</time>
      </trkpt>
      <trkpt lat="44.04938" lon="1.96633">
        <ele>304</ele>
        <time>2021-09-05T10:30:00Z</time>
      </trkpt>
      <trkpt lat="44.04939" lon="1.96636">
        <ele>304</ele>
        <time>2021-09-05T10:30:01Z</time>
      </trkpt>
      <trkpt lat="44.0494" lon="1.96639">
        <ele>304</ele>
        <time>2021-09-05T10:30:02Z</time>
      </trkpt>
      <trkpt lat="44.04941" lon="1.9664">
        <ele>303.8</ele>
        <time>2021-09-05T10:30:03Z</time>
      </trkpt>
      <trkpt lat="44.04941" lon="1.9664">
        <ele>303.4</ele>
        <time>2021-09-05T10:30:08Z</time>
      </trkpt>
      <trkpt lat="44.04941" lon="1.9664">
        <ele>303.4</ele>
        <time>2021-09-05T10:30:09Z</time>
      </trkpt>
      <trkpt lat="44.04941" lon="1.96642">
        <ele>303.4</ele>
        <time>2021-09-05T10:30:11Z</time>
      </trkpt>
      <trkpt lat="44.04941" lon="1.96643">
        <ele>303.2</ele>
        <time>2021-09-05T10:30:12Z</time>
      </trkpt>
      <trkpt lat="44.04941" lon="1.96643">
        <ele>303.2</ele>
        <time>2021-09-05T10:30:13Z</time>
      </trkpt>
      <trkpt lat="44.04941" lon="1.96643">
        <ele>303.2</ele>
        <time>2021-09-05T10:36:14Z</time>
      </trkpt>
      <trkpt lat="44.04941" lon="1.96645">
        <ele>303.2</ele>
        <time>2021-09-05T10:36:16Z</time>
      </trkpt>
      <trkpt lat="44.04941" lon="1.96647">
        <ele>303.2</ele>
        <time>2021-09-05T10:36:17Z</time>
      </trkpt>
      <trkpt lat="44.04942" lon="1.96649">
        <ele>303.2</ele>
        <time>2021-09-05T10:36:18Z</time>
      </trkpt>
      <trkpt lat="44.04943" lon="1.96653">
        <ele>303.2</ele>
        <time>2021-09-05T10:36:20Z</time>
      </trkpt>
      <trkpt lat="44.04944" lon="1.96656">
        <ele>303.2</ele>
        <time>2021-09-05T10:36:21Z</time>
      </trkpt>
      <trkpt lat="44.04946" lon="1.96665">
        <ele>303</ele>
        <time>2021-09-05T10:36:24Z</time>
      </trkpt>
      <trkpt lat="44.04956" lon="1.9669">
        <ele>303</ele>
        <time>2021-09-05T10:36:30Z</time>
      </trkpt>
      <trkpt lat="44.04957" lon="1.96695">
        <ele>303</ele>
        <time>2021-09-05T10:36:31Z</time>
      </trkpt>
      <trkpt lat="44.04959" lon="1.96703">
        <ele>303</ele>
        <time>2021-09-05T10:36:33Z</time>
      </trkpt>
      <trkpt lat="44.04966" lon="1.96723">
        <ele>303.2</ele>
        <time>2021-09-05T10:36:37Z</time>
      </trkpt>
      <trkpt lat="44.04967" lon="1.96729">
        <ele>303.2</ele>
        <time>2021-09-05T10:36:38Z</time>
      </trkpt>
      <trkpt lat="44.0497" lon="1.96743">
        <ele>303.2</ele>
        <time>2021-09-05T10:36:40Z</time>
      </trkpt>
      <trkpt lat="44.04972" lon="1.96748">
        <ele>303.4</ele>
        <time>2021-09-05T10:36:41Z</time>
      </trkpt>
      <trkpt lat="44.04976" lon="1.96766">
        <ele>303.2</ele>
        <time>2021-09-05T10:36:44Z</time>
      </trkpt>
      <trkpt lat="44.04979" lon="1.96778">
        <ele>303.2</ele>
        <time>2021-09-05T10:36:46Z</time>
      </trkpt>
      <trkpt lat="44.0498" lon="1.96781">
        <ele>303</ele>
        <time>2021-09-05T10:36:47Z</time>
      </trkpt>
      <trkpt lat="44.04981" lon="1.96785">
        <ele>302.8</ele>
        <time>2021-09-05T10:36:48Z</time>
      </trkpt>
      <trkpt lat="44.04982" lon="1.96788">
        <ele>302.8</ele>
        <time>2021-09-05T10:36:49Z</time>
      </trkpt>
      <trkpt lat="44.04987" lon="1.968">
        <ele>302.8</ele>
        <time>2021-09-05T10:36:52Z</time>
      </trkpt>
      <trkpt lat="44.04989" lon="1.96804">
        <ele>302.8</ele>
        <time>2021-09-05T10:36:53Z</time>
      </trkpt>
      <trkpt lat="44.04991" lon="1.96806">
        <ele>302.8</ele>
        <time>2021-09-05T10:36:54Z</time>
      </trkpt>
      <trkpt lat="44.04991" lon="1.96809">
        <ele>302.4</ele>
        <time>2021-09-05T10:36:55Z</time>
      </trkpt>
      <trkpt lat="44.04991" lon="1.96811">
        <ele>302.2</ele>
        <time>2021-09-05T10:36:56Z</time>
      </trkpt>
      <trkpt lat="44.04993" lon="1.96815">
        <ele>302</ele>
        <time>2021-09-05T10:36:57Z</time>
      </trkpt>
      <trkpt lat="44.04996" lon="1.96828">
        <ele>301.8</ele>
        <time>2021-09-05T10:37:00Z</time>
      </trkpt>
      <trkpt lat="44.04997" lon="1.96831">
        <ele>301.8</ele>
        <time>2021-09-05T10:37:01Z</time>
      </trkpt>
      <trkpt lat="44.04997" lon="1.96839">
        <ele>301.4</ele>
        <time>2021-09-05T10:37:03Z</time>
      </trkpt>
      <trkpt lat="44.04999" lon="1.96846">
        <ele>301.2</ele>
        <time>2021-09-05T10:37:04Z</time>
      </trkpt>
      <trkpt lat="44.05" lon="1.96852">
        <ele>301</ele>
        <time>2021-09-05T10:37:05Z</time>
      </trkpt>
      <trkpt lat="44.05001" lon="1.96855">
        <ele>301</ele>
        <time>2021-09-05T10:37:06Z</time>
      </trkpt>
      <trkpt lat="44.05002" lon="1.96859">
        <ele>300.8</ele>
        <time>2021-09-05T10:37:07Z</time>
      </trkpt>
      <trkpt lat="44.05003" lon="1.96864">
        <ele>300.4</ele>
        <time>2021-09-05T10:37:08Z</time>
      </trkpt>
      <trkpt lat="44.05006" lon="1.96875">
        <ele>300.2</ele>
        <time>2021-09-05T10:37:10Z</time>
      </trkpt>
      <trkpt lat="44.05007" lon="1.9688">
        <ele>299.8</ele>
        <time>2021-09-05T10:37:11Z</time>
      </trkpt>
      <trkpt lat="44.05009" lon="1.96884">
        <ele>299.8</ele>
        <time>2021-09-05T10:37:12Z</time>
      </trkpt>
      <trkpt lat="44.0501" lon="1.96889">
        <ele>299.4</ele>
        <time>2021-09-05T10:37:13Z</time>
      </trkpt>
      <trkpt lat="44.05014" lon="1.96897">
        <ele>299</ele>
        <time>2021-09-05T10:37:15Z</time>
      </trkpt>
      <trkpt lat="44.05016" lon="1.96904">
        <ele>298.8</ele>
        <time>2021-09-05T10:37:16Z</time>
      </trkpt>
      <trkpt lat="44.05018" lon="1.96908">
        <ele>298.2</ele>
        <time>2021-09-05T10:37:17Z</time>
      </trkpt>
      <trkpt lat="44.0502" lon="1.96913">
        <ele>297.8</ele>
        <time>2021-09-05T10:37:18Z</time>
      </trkpt>
      <trkpt lat="44.05021" lon="1.96916">
        <ele>297</ele>
        <time>2021-09-05T10:37:19Z</time>
      </trkpt>
      <trkpt lat="44.05023" lon="1.96921">
        <ele>296.4</ele>
        <time>2021-09-05T10:37:20Z</time>
      </trkpt>
      <trkpt lat="44.05028" lon="1.96934">
        <ele>295.2</ele>
        <time>2021-09-05T10:37:22Z</time>
      </trkpt>
      <trkpt lat="44.05031" lon="1.96941">
        <ele>295</ele>
        <time>2021-09-05T10:37:23Z</time>
      </trkpt>
      <trkpt lat="44.05033" lon="1.96945">
        <ele>294</ele>
        <time>2021-09-05T10:37:24Z</time>
      </trkpt>
      <trkpt lat="44.05035" lon="1.96952">
        <ele>293.4</ele>
        <time>2021-09-05T10:37:25Z</time>
      </trkpt>
      <trkpt lat="44.05038" lon="1.96957">
        <ele>292.4</ele>
        <time>2021-09-05T10:37:26Z</time>
      </trkpt>
      <trkpt lat="44.05046" lon="1.96974">
        <ele>290.8</ele>
        <time>2021-09-05T10:37:29Z</time>
      </trkpt>
      <trkpt lat="44.0505" lon="1.96979">
        <ele>290.2</ele>
        <time>2021-09-05T10:37:30Z</time>
      </trkpt>
      <trkpt lat="44.05052" lon="1.96983">
        <ele>289</ele>
        <time>2021-09-05T10:37:31Z</time>
      </trkpt>
      <trkpt lat="44.05054" lon="1.96985">
        <ele>288.4</ele>
        <time>2021-09-05T10:37:32Z</time>
      </trkpt>
      <trkpt lat="44.05056" lon="1.96987">
        <ele>286.2</ele>
        <time>2021-09-05T10:37:33Z</time>
      </trkpt>
      <trkpt lat="44.05059" lon="1.96996">
        <ele>284</ele>
        <time>2021-09-05T10:37:35Z</time>
      </trkpt>
      <trkpt lat="44.0506" lon="1.97001">
        <ele>282.4</ele>
        <time>2021-09-05T10:37:36Z</time>
      </trkpt>
      <trkpt lat="44.05063" lon="1.97006">
        <ele>282</ele>
        <time>2021-09-05T10:37:37Z</time>
      </trkpt>
      <trkpt lat="44.05065" lon="1.9701">
        <ele>281.2</ele>
        <time>2021-09-05T10:37:38Z</time>
      </trkpt>
      <trkpt lat="44.05069" lon="1.97014">
        <ele>280.8</ele>
        <time>2021-09-05T10:37:39Z</time>
      </trkpt>
      <trkpt lat="44.05074" lon="1.97024">
        <ele>280.2</ele>
        <time>2021-09-05T10:37:41Z</time>
      </trkpt>
      <trkpt lat="44.05076" lon="1.9703">
        <ele>278.8</ele>
        <time>2021-09-05T10:37:42Z</time>
      </trkpt>
      <trkpt lat="44.05078" lon="1.97035">
        <ele>277.6</ele>
        <time>2021-09-05T10:37:43Z</time>
      </trkpt>
      <trkpt lat="44.0508" lon="1.97041">
        <ele>277</ele>
        <time>2021-09-05T10:37:44Z</time>
      </trkpt>
      <trkpt lat="44.05082" lon="1.97045">
        <ele>274.8</ele>
        <time>2021-09-05T10:37:45Z</time>
      </trkpt>
      <trkpt lat="44.05084" lon="1.9705">
        <ele>273.8</ele>
        <time>2021-09-05T10:37:46Z</time>
      </trkpt>
      <trkpt lat="44.05086" lon="1.97054">
        <ele>272.4</ele>
        <time>2021-09-05T10:37:47Z</time>
      </trkpt>
      <trkpt lat="44.0509" lon="1.97059">
        <ele>272</ele>
        <time>2021-09-05T10:37:48Z</time>
      </trkpt>
      <trkpt lat="44.05093" lon="1.97065">
        <ele>270.8</ele>
        <time>2021-09-05T10:37:49Z</time>
      </trkpt>
      <trkpt lat="44.05095" lon="1.97067">
        <ele>270</ele>
        <time>2021-09-05T10:37:50Z</time>
      </trkpt>
      <trkpt lat="44.05097" lon="1.97069">
        <ele>268.6</ele>
        <time>2021-09-05T10:37:51Z</time>
      </trkpt>
      <trkpt lat="44.05099" lon="1.97072">
        <ele>266.8</ele>
        <time>2021-09-05T10:37:52Z</time>
      </trkpt>
      <trkpt lat="44.05103" lon="1.97077">
        <ele>265.6</ele>
        <time>2021-09-05T10:37:54Z</time>
      </trkpt>
      <trkpt lat="44.05103" lon="1.97081">
        <ele>265</ele>
        <time>2021-09-05T10:37:55Z</time>
      </trkpt>
      <trkpt lat="44.05102" lon="1.97082">
        <ele>263.6</ele>
        <time>2021-09-05T10:37:56Z</time>
      </trkpt>
      <trkpt lat="44.05097" lon="1.97082">
        <ele>261.4</ele>
        <time>2021-09-05T10:37:58Z</time>
      </trkpt>
      <trkpt lat="44.0509" lon="1.9708">
        <ele>260</ele>
        <time>2021-09-05T10:38:00Z</time>
      </trkpt>
      <trkpt lat="44.05085" lon="1.97079">
        <ele>259.6</ele>
        <time>2021-09-05T10:38:01Z</time>
      </trkpt>
      <trkpt lat="44.05079" lon="1.97077">
        <ele>259.4</ele>
        <time>2021-09-05T10:38:02Z</time>
      </trkpt>
      <trkpt lat="44.05066" lon="1.97073">
        <ele>259</ele>
        <time>2021-09-05T10:38:04Z</time>
      </trkpt>
      <trkpt lat="44.05061" lon="1.9707">
        <ele>258.6</ele>
        <time>2021-09-05T10:38:05Z</time>
      </trkpt>
      <trkpt lat="44.05056" lon="1.97068">
        <ele>258</ele>
        <time>2021-09-05T10:38:06Z</time>
      </trkpt>
      <trkpt lat="44.05051" lon="1.97065">
        <ele>257.2</ele>
        <time>2021-09-05T10:38:07Z</time>
      </trkpt>
      <trkpt lat="44.05048" lon="1.97065">
        <ele>255.8</ele>
        <time>2021-09-05T10:38:08Z</time>
      </trkpt>
      <trkpt lat="44.05046" lon="1.97066">
        <ele>255.4</ele>
        <time>2021-09-05T10:38:09Z</time>
      </trkpt>
      <trkpt lat="44.05045" lon="1.97069">
        <ele>254.8</ele>
        <time>2021-09-05T10:38:10Z</time>
      </trkpt>
      <trkpt lat="44.05046" lon="1.97074">
        <ele>254.6</ele>
        <time>2021-09-05T10:38:11Z</time>
      </trkpt>
      <trkpt lat="44.05048" lon="1.97077">
        <ele>254</ele>
        <time>2021-09-05T10:38:12Z</time>
      </trkpt>
      <trkpt lat="44.05051" lon="1.97079">
        <ele>253.8</ele>
        <time>2021-09-05T10:38:13Z</time>
      </trkpt>
      <trkpt lat="44.05052" lon="1.97081">
        <ele>252.8</ele>
        <time>2021-09-05T10:38:14Z</time>
      </trkpt>
      <trkpt lat="44.05053" lon="1.97084">
        <ele>252.4</ele>
        <time>2021-09-05T10:38:15Z</time>
      </trkpt>
      <trkpt lat="44.05051" lon="1.97086">
        <ele>252</ele>
        <time>2021-09-05T10:38:16Z</time>
      </trkpt>
      <trkpt lat="44.05048" lon="1.97085">
        <ele>251.2</ele>
        <time>2021-09-05T10:38:18Z</time>
      </trkpt>
      <trkpt lat="44.05046" lon="1.97083">
        <ele>250.4</ele>
        <time>2021-09-05T10:38:19Z</time>
      </trkpt>
      <trkpt lat="44.05043" lon="1.97081">
        <ele>250</ele>
        <time>2021-09-05T10:38:20Z</time>
      </trkpt>
      <trkpt lat="44.05034" lon="1.97076">
        <ele>249</ele>
        <time>2021-09-05T10:38:23Z</time>
      </trkpt>
      <trkpt lat="44.05031" lon="1.97074">
        <ele>248.8</ele>
        <time>2021-09-05T10:38:24Z</time>
      </trkpt>
      <trkpt lat="44.05021" lon="1.97072">
        <ele>248.6</ele>
        <time>2021-09-05T10:38:26Z</time>
      </trkpt>
      <trkpt lat="44.05017" lon="1.97071">
        <ele>248.4</ele>
        <time>2021-09-05T10:38:27Z</time>
      </trkpt>
      <trkpt lat="44.05014" lon="1.97069">
        <ele>248.4</ele>
        <time>2021-09-05T10:38:28Z</time>
      </trkpt>
      <trkpt lat="44.0501" lon="1.97066">
        <ele>248.4</ele>
        <time>2021-09-05T10:38:29Z</time>
      </trkpt>
      <trkpt lat="44.05009" lon="1.97064">
        <ele>248.2</ele>
        <time>2021-09-05T10:38:30Z</time>
      </trkpt>
      <trkpt lat="44.05006" lon="1.97062">
        <ele>248.2</ele>
        <time>2021-09-05T10:38:31Z</time>
      </trkpt>
      <trkpt lat="44.05005" lon="1.97063">
        <ele>248</ele>
        <time>2021-09-05T10:38:32Z</time>
      </trkpt>
      <trkpt lat="44.05004" lon="1.97067">
        <ele>247.8</ele>
        <time>2021-09-05T10:38:33Z</time>
      </trkpt>
      <trkpt lat="44.05006" lon="1.9707">
        <ele>247.6</ele>
        <time>2021-09-05T10:38:34Z</time>
      </trkpt>
      <trkpt lat="44.05016" lon="1.97082">
        <ele>246.8</ele>
        <time>2021-09-05T10:38:38Z</time>
      </trkpt>
      <trkpt lat="44.0502" lon="1.97087">
        <ele>246.6</ele>
        <time>2021-09-05T10:38:39Z</time>
      </trkpt>
      <trkpt lat="44.05031" lon="1.97102">
        <ele>245.4</ele>
        <time>2021-09-05T10:38:42Z</time>
      </trkpt>
      <trkpt lat="44.05036" lon="1.97108">
        <ele>245.2</ele>
        <time>2021-09-05T10:38:43Z</time>
      </trkpt>
      <trkpt lat="44.0504" lon="1.97114">
        <ele>245</ele>
        <time>2021-09-05T10:38:44Z</time>
      </trkpt>
      <trkpt lat="44.05043" lon="1.97118">
        <ele>244.8</ele>
        <time>2021-09-05T10:38:45Z</time>
      </trkpt>
      <trkpt lat="44.05045" lon="1.97122">
        <ele>244.6</ele>
        <time>2021-09-05T10:38:46Z</time>
      </trkpt>
      <trkpt lat="44.05051" lon="1.97136">
        <ele>244.2</ele>
        <time>2021-09-05T10:38:48Z</time>
      </trkpt>
      <trkpt lat="44.05055" lon="1.97146">
        <ele>244</ele>
        <time>2021-09-05T10:38:49Z</time>
      </trkpt>
      <trkpt lat="44.05065" lon="1.97163">
        <ele>243.4</ele>
        <time>2021-09-05T10:38:51Z</time>
      </trkpt>
      <trkpt lat="44.0508" lon="1.97185">
        <ele>242.4</ele>
        <time>2021-09-05T10:38:53Z</time>
      </trkpt>
      <trkpt lat="44.05093" lon="1.97202">
        <ele>240.6</ele>
        <time>2021-09-05T10:38:55Z</time>
      </trkpt>
      <trkpt lat="44.051" lon="1.97211">
        <ele>239.6</ele>
        <time>2021-09-05T10:38:56Z</time>
      </trkpt>
      <trkpt lat="44.05108" lon="1.9722">
        <ele>238.8</ele>
        <time>2021-09-05T10:38:57Z</time>
      </trkpt>
      <trkpt lat="44.05112" lon="1.97226">
        <ele>237.6</ele>
        <time>2021-09-05T10:38:58Z</time>
      </trkpt>
      <trkpt lat="44.05116" lon="1.97229">
        <ele>236.8</ele>
        <time>2021-09-05T10:38:59Z</time>
      </trkpt>
      <trkpt lat="44.05119" lon="1.97233">
        <ele>235.8</ele>
        <time>2021-09-05T10:39:00Z</time>
      </trkpt>
      <trkpt lat="44.0512" lon="1.97239">
        <ele>235.6</ele>
        <time>2021-09-05T10:39:01Z</time>
      </trkpt>
      <trkpt lat="44.05119" lon="1.97248">
        <ele>235.2</ele>
        <time>2021-09-05T10:39:02Z</time>
      </trkpt>
      <trkpt lat="44.05117" lon="1.97258">
        <ele>234.6</ele>
        <time>2021-09-05T10:39:03Z</time>
      </trkpt>
      <trkpt lat="44.05116" lon="1.97267">
        <ele>233.4</ele>
        <time>2021-09-05T10:39:04Z</time>
      </trkpt>
      <trkpt lat="44.05112" lon="1.9728">
        <ele>232.2</ele>
        <time>2021-09-05T10:39:05Z</time>
      </trkpt>
      <trkpt lat="44.05108" lon="1.97295">
        <ele>231</ele>
        <time>2021-09-05T10:39:06Z</time>
      </trkpt>
      <trkpt lat="44.05104" lon="1.97308">
        <ele>229.4</ele>
        <time>2021-09-05T10:39:07Z</time>
      </trkpt>
      <trkpt lat="44.051" lon="1.97321">
        <ele>229</ele>
        <time>2021-09-05T10:39:08Z</time>
      </trkpt>
      <trkpt lat="44.05098" lon="1.97331">
        <ele>227.6</ele>
        <time>2021-09-05T10:39:09Z</time>
      </trkpt>
      <trkpt lat="44.05093" lon="1.97345">
        <ele>226.6</ele>
        <time>2021-09-05T10:39:10Z</time>
      </trkpt>
      <trkpt lat="44.0509" lon="1.97357">
        <ele>225</ele>
        <time>2021-09-05T10:39:11Z</time>
      </trkpt>
      <trkpt lat="44.05088" lon="1.97369">
        <ele>223.4</ele>
        <time>2021-09-05T10:39:12Z</time>
      </trkpt>
      <trkpt lat="44.05088" lon="1.97377">
        <ele>222.6</ele>
        <time>2021-09-05T10:39:13Z</time>
      </trkpt>
      <trkpt lat="44.0509" lon="1.97386">
        <ele>221.6</ele>
        <time>2021-09-05T10:39:14Z</time>
      </trkpt>
      <trkpt lat="44.05094" lon="1.97392">
        <ele>221.2</ele>
        <time>2021-09-05T10:39:15Z</time>
      </trkpt>
      <trkpt lat="44.05099" lon="1.974">
        <ele>220.2</ele>
        <time>2021-09-05T10:39:16Z</time>
      </trkpt>
      <trkpt lat="44.05105" lon="1.97406">
        <ele>220.2</ele>
        <time>2021-09-05T10:39:17Z</time>
      </trkpt>
      <trkpt lat="44.05109" lon="1.97412">
        <ele>219.4</ele>
        <time>2021-09-05T10:39:18Z</time>
      </trkpt>
      <trkpt lat="44.0512" lon="1.97425">
        <ele>219</ele>
        <time>2021-09-05T10:39:20Z</time>
      </trkpt>
      <trkpt lat="44.05135" lon="1.97444">
        <ele>218.2</ele>
        <time>2021-09-05T10:39:23Z</time>
      </trkpt>
      <trkpt lat="44.0514" lon="1.97451">
        <ele>218</ele>
        <time>2021-09-05T10:39:24Z</time>
      </trkpt>
      <trkpt lat="44.05144" lon="1.97456">
        <ele>217.2</ele>
        <time>2021-09-05T10:39:25Z</time>
      </trkpt>
      <trkpt lat="44.05153" lon="1.97468">
        <ele>216.2</ele>
        <time>2021-09-05T10:39:27Z</time>
      </trkpt>
      <trkpt lat="44.05158" lon="1.97474">
        <ele>215.8</ele>
        <time>2021-09-05T10:39:28Z</time>
      </trkpt>
      <trkpt lat="44.05163" lon="1.97481">
        <ele>215.2</ele>
        <time>2021-09-05T10:39:29Z</time>
      </trkpt>
      <trkpt lat="44.05167" lon="1.97487">
        <ele>213.6</ele>
        <time>2021-09-05T10:39:30Z</time>
      </trkpt>
      <trkpt lat="44.05168" lon="1.97492">
        <ele>212.8</ele>
        <time>2021-09-05T10:39:31Z</time>
      </trkpt>
      <trkpt lat="44.05168" lon="1.97497">
        <ele>211.8</ele>
        <time>2021-09-05T10:39:32Z</time>
      </trkpt>
      <trkpt lat="44.05167" lon="1.97504">
        <ele>211.6</ele>
        <time>2021-09-05T10:39:33Z</time>
      </trkpt>
      <trkpt lat="44.05166" lon="1.97509">
        <ele>211.4</ele>
        <time>2021-09-05T10:39:34Z</time>
      </trkpt>
      <trkpt lat="44.05165" lon="1.97516">
        <ele>211.2</ele>
        <time>2021-09-05T10:39:35Z</time>
      </trkpt>
      <trkpt lat="44.05165" lon="1.97523">
        <ele>211.2</ele>
        <time>2021-09-05T10:39:36Z</time>
      </trkpt>
      <trkpt lat="44.05166" lon="1.97531">
        <ele>211.2</ele>
        <time>2021-09-05T10:39:37Z</time>
      </trkpt>
      <trkpt lat="44.0517" lon="1.9754">
        <ele>211.2</ele>
        <time>2021-09-05T10:39:38Z</time>
      </trkpt>
      <trkpt lat="44.05173" lon="1.97546">
        <ele>211.2</ele>
        <time>2021-09-05T10:39:39Z</time>
      </trkpt>
      <trkpt lat="44.05176" lon="1.9755">
        <ele>211.2</ele>
        <time>2021-09-05T10:39:40Z</time>
      </trkpt>
      <trkpt lat="44.05178" lon="1.97554">
        <ele>211.6</ele>
        <time>2021-09-05T10:39:41Z</time>
      </trkpt>
      <trkpt lat="44.0518" lon="1.97557">
        <ele>211.8</ele>
        <time>2021-09-05T10:39:42Z</time>
      </trkpt>
      <trkpt lat="44.05181" lon="1.97559">
        <ele>212.4</ele>
        <time>2021-09-05T10:39:43Z</time>
      </trkpt>
      <trkpt lat="44.05181" lon="1.97561">
        <ele>213</ele>
        <time>2021-09-05T10:39:44Z</time>
      </trkpt>
      <trkpt lat="44.0518" lon="1.97564">
        <ele>213.2</ele>
        <time>2021-09-05T10:39:45Z</time>
      </trkpt>
      <trkpt lat="44.05178" lon="1.97568">
        <ele>213.8</ele>
        <time>2021-09-05T10:39:47Z</time>
      </trkpt>
      <trkpt lat="44.05176" lon="1.97572">
        <ele>214</ele>
        <time>2021-09-05T10:39:48Z</time>
      </trkpt>
      <trkpt lat="44.05174" lon="1.97575">
        <ele>214</ele>
        <time>2021-09-05T10:39:49Z</time>
      </trkpt>
      <trkpt lat="44.0517" lon="1.97583">
        <ele>214.4</ele>
        <time>2021-09-05T10:39:51Z</time>
      </trkpt>
      <trkpt lat="44.05164" lon="1.97596">
        <ele>215</ele>
        <time>2021-09-05T10:39:54Z</time>
      </trkpt>
      <trkpt lat="44.05155" lon="1.97612">
        <ele>215.2</ele>
        <time>2021-09-05T10:39:58Z</time>
      </trkpt>
      <trkpt lat="44.05148" lon="1.97622">
        <ele>215.4</ele>
        <time>2021-09-05T10:40:01Z</time>
      </trkpt>
      <trkpt lat="44.05145" lon="1.97626">
        <ele>215.2</ele>
        <time>2021-09-05T10:40:02Z</time>
      </trkpt>
      <trkpt lat="44.05142" lon="1.97629">
        <ele>215.2</ele>
        <time>2021-09-05T10:40:03Z</time>
      </trkpt>
      <trkpt lat="44.05139" lon="1.97633">
        <ele>215.2</ele>
        <time>2021-09-05T10:40:04Z</time>
      </trkpt>
      <trkpt lat="44.05136" lon="1.97636">
        <ele>215</ele>
        <time>2021-09-05T10:40:05Z</time>
      </trkpt>
      <trkpt lat="44.05132" lon="1.9764">
        <ele>214.8</ele>
        <time>2021-09-05T10:40:06Z</time>
      </trkpt>
      <trkpt lat="44.05129" lon="1.97642">
        <ele>214.6</ele>
        <time>2021-09-05T10:40:07Z</time>
      </trkpt>
      <trkpt lat="44.05122" lon="1.97644">
        <ele>214.6</ele>
        <time>2021-09-05T10:40:09Z</time>
      </trkpt>
      <trkpt lat="44.05117" lon="1.97644">
        <ele>214.4</ele>
        <time>2021-09-05T10:40:10Z</time>
      </trkpt>
      <trkpt lat="44.05113" lon="1.97643">
        <ele>214.2</ele>
        <time>2021-09-05T10:40:11Z</time>
      </trkpt>
      <trkpt lat="44.05109" lon="1.9764">
        <ele>214</ele>
        <time>2021-09-05T10:40:12Z</time>
      </trkpt>
      <trkpt lat="44.05105" lon="1.97639">
        <ele>214</ele>
        <time>2021-09-05T10:40:13Z</time>
      </trkpt>
      <trkpt lat="44.05101" lon="1.97636">
        <ele>213.8</ele>
        <time>2021-09-05T10:40:14Z</time>
      </trkpt>
      <trkpt lat="44.05097" lon="1.97634">
        <ele>213.8</ele>
        <time>2021-09-05T10:40:15Z</time>
      </trkpt>
      <trkpt lat="44.05092" lon="1.97634">
        <ele>213.8</ele>
        <time>2021-09-05T10:40:16Z</time>
      </trkpt>
      <trkpt lat="44.05086" lon="1.97634">
        <ele>213.6</ele>
        <time>2021-09-05T10:40:17Z</time>
      </trkpt>
      <trkpt lat="44.05082" lon="1.97634">
        <ele>213.4</ele>
        <time>2021-09-05T10:40:18Z</time>
      </trkpt>
      <trkpt lat="44.05076" lon="1.97637">
        <ele>213.4</ele>
        <time>2021-09-05T10:40:19Z</time>
      </trkpt>
      <trkpt lat="44.05072" lon="1.97641">
        <ele>213.4</ele>
        <time>2021-09-05T10:40:20Z</time>
      </trkpt>
      <trkpt lat="44.05067" lon="1.97645">
        <ele>213.4</ele>
        <time>2021-09-05T10:40:21Z</time>
      </trkpt>
      <trkpt lat="44.05064" lon="1.97647">
        <ele>213.4</ele>
        <time>2021-09-05T10:40:22Z</time>
      </trkpt>
      <trkpt lat="44.0506" lon="1.97649">
        <ele>213.4</ele>
        <time>2021-09-05T10:40:23Z</time>
      </trkpt>
      <trkpt lat="44.05055" lon="1.97651">
        <ele>213.8</ele>
        <time>2021-09-05T10:40:24Z</time>
      </trkpt>
      <trkpt lat="44.05047" lon="1.97657">
        <ele>214</ele>
        <time>2021-09-05T10:40:26Z</time>
      </trkpt>
      <trkpt lat="44.05043" lon="1.97659">
        <ele>214</ele>
        <time>2021-09-05T10:40:27Z</time>
      </trkpt>
      <trkpt lat="44.05034" lon="1.97664">
        <ele>214</ele>
        <time>2021-09-05T10:40:29Z</time>
      </trkpt>
      <trkpt lat="44.05022" lon="1.97665">
        <ele>214</ele>
        <time>2021-09-05T10:40:32Z</time>
      </trkpt>
      <trkpt lat="44.05007" lon="1.97663">
        <ele>214</ele>
        <time>2021-09-05T10:40:35Z</time>
      </trkpt>
      <trkpt lat="44.05003" lon="1.97663">
        <ele>214</ele>
        <time>2021-09-05T10:40:36Z</time>
      </trkpt>
      <trkpt lat="44.04998" lon="1.97663">
        <ele>214.2</ele>
        <time>2021-09-05T10:40:37Z</time>
      </trkpt>
      <trkpt lat="44.04994" lon="1.97663">
        <ele>214.6</ele>
        <time>2021-09-05T10:40:38Z</time>
      </trkpt>
      <trkpt lat="44.04989" lon="1.97664">
        <ele>214.8</ele>
        <time>2021-09-05T10:40:39Z</time>
      </trkpt>
      <trkpt lat="44.04985" lon="1.97665">
        <ele>214.8</ele>
        <time>2021-09-05T10:40:40Z</time>
      </trkpt>
      <trkpt lat="44.04982" lon="1.97665">
        <ele>214.8</ele>
        <time>2021-09-05T10:40:41Z</time>
      </trkpt>
      <trkpt lat="44.04978" lon="1.97666">
        <ele>215.2</ele>
        <time>2021-09-05T10:40:42Z</time>
      </trkpt>
      <trkpt lat="44.04973" lon="1.97666">
        <ele>215.4</ele>
        <time>2021-09-05T10:40:43Z</time>
      </trkpt>
      <trkpt lat="44.04969" lon="1.97666">
        <ele>215.4</ele>
        <time>2021-09-05T10:40:44Z</time>
      </trkpt>
      <trkpt lat="44.04961" lon="1.97664">
        <ele>215.4</ele>
        <time>2021-09-05T10:40:46Z</time>
      </trkpt>
      <trkpt lat="44.04957" lon="1.97663">
        <ele>215.4</ele>
        <time>2021-09-05T10:40:47Z</time>
      </trkpt>
      <trkpt lat="44.04953" lon="1.97661">
        <ele>215.4</ele>
        <time>2021-09-05T10:40:48Z</time>
      </trkpt>
      <trkpt lat="44.0495" lon="1.97659">
        <ele>215.8</ele>
        <time>2021-09-05T10:40:49Z</time>
      </trkpt>
      <trkpt lat="44.04945" lon="1.97655">
        <ele>215.8</ele>
        <time>2021-09-05T10:40:51Z</time>
      </trkpt>
      <trkpt lat="44.04941" lon="1.97653">
        <ele>216</ele>
        <time>2021-09-05T10:40:52Z</time>
      </trkpt>
      <trkpt lat="44.04939" lon="1.97651">
        <ele>216</ele>
        <time>2021-09-05T10:40:53Z</time>
      </trkpt>
      <trkpt lat="44.04936" lon="1.97649">
        <ele>216</ele>
        <time>2021-09-05T10:40:54Z</time>
      </trkpt>
      <trkpt lat="44.04931" lon="1.97645">
        <ele>216.6</ele>
        <time>2021-09-05T10:40:56Z</time>
      </trkpt>
      <trkpt lat="44.04927" lon="1.97642">
        <ele>217.2</ele>
        <time>2021-09-05T10:40:57Z</time>
      </trkpt>
      <trkpt lat="44.04925" lon="1.9764">
        <ele>217.2</ele>
        <time>2021-09-05T10:40:58Z</time>
      </trkpt>
      <trkpt lat="44.04923" lon="1.97638">
        <ele>217.4</ele>
        <time>2021-09-05T10:40:59Z</time>
      </trkpt>
      <trkpt lat="44.04921" lon="1.97637">
        <ele>217.4</ele>
        <time>2021-09-05T10:41:00Z</time>
      </trkpt>
      <trkpt lat="44.04918" lon="1.97634">
        <ele>217.8</ele>
        <time>2021-09-05T10:41:01Z</time>
      </trkpt>
      <trkpt lat="44.04915" lon="1.97632">
        <ele>218</ele>
        <time>2021-09-05T10:41:02Z</time>
      </trkpt>
      <trkpt lat="44.04913" lon="1.9763">
        <ele>218</ele>
        <time>2021-09-05T10:41:03Z</time>
      </trkpt>
      <trkpt lat="44.04911" lon="1.97629">
        <ele>218</ele>
        <time>2021-09-05T10:41:04Z</time>
      </trkpt>
      <trkpt lat="44.04909" lon="1.97627">
        <ele>218.4</ele>
        <time>2021-09-05T10:41:05Z</time>
      </trkpt>
      <trkpt lat="44.04906" lon="1.97625">
        <ele>218.4</ele>
        <time>2021-09-05T10:41:06Z</time>
      </trkpt>
      <trkpt lat="44.04904" lon="1.97624">
        <ele>218.4</ele>
        <time>2021-09-05T10:41:07Z</time>
      </trkpt>
      <trkpt lat="44.04901" lon="1.97623">
        <ele>218.6</ele>
        <time>2021-09-05T10:41:08Z</time>
      </trkpt>
      <trkpt lat="44.04899" lon="1.97622">
        <ele>218.6</ele>
        <time>2021-09-05T10:41:09Z</time>
      </trkpt>
      <trkpt lat="44.04897" lon="1.97621">
        <ele>219</ele>
        <time>2021-09-05T10:41:10Z</time>
      </trkpt>
      <trkpt lat="44.04894" lon="1.9762">
        <ele>219.2</ele>
        <time>2021-09-05T10:41:11Z</time>
      </trkpt>
      <trkpt lat="44.04892" lon="1.97619">
        <ele>219.2</ele>
        <time>2021-09-05T10:41:12Z</time>
      </trkpt>
      <trkpt lat="44.0489" lon="1.97618">
        <ele>219.6</ele>
        <time>2021-09-05T10:41:13Z</time>
      </trkpt>
      <trkpt lat="44.04888" lon="1.97617">
        <ele>219.8</ele>
        <time>2021-09-05T10:41:14Z</time>
      </trkpt>
      <trkpt lat="44.04885" lon="1.97617">
        <ele>220</ele>
        <time>2021-09-05T10:41:15Z</time>
      </trkpt>
      <trkpt lat="44.04883" lon="1.97616">
        <ele>220.2</ele>
        <time>2021-09-05T10:41:16Z</time>
      </trkpt>
      <trkpt lat="44.04881" lon="1.97616">
        <ele>220.4</ele>
        <time>2021-09-05T10:41:17Z</time>
      </trkpt>
      <trkpt lat="44.04879" lon="1.97616">
        <ele>220.6</ele>
        <time>2021-09-05T10:41:18Z</time>
      </trkpt>
      <trkpt lat="44.04876" lon="1.97615">
        <ele>220.8</ele>
        <time>2021-09-05T10:41:19Z</time>
      </trkpt>
      <trkpt lat="44.04873" lon="1.97615">
        <ele>220.8</ele>
        <time>2021-09-05T10:41:20Z</time>
      </trkpt>
      <trkpt lat="44.0487" lon="1.97615">
        <ele>221</ele>
        <time>2021-09-05T10:41:21Z</time>
      </trkpt>
      <trkpt lat="44.04867" lon="1.97615">
        <ele>221</ele>
        <time>2021-09-05T10:41:22Z</time>
      </trkpt>
      <trkpt lat="44.04865" lon="1.97615">
        <ele>221</ele>
        <time>2021-09-05T10:41:23Z</time>
      </trkpt>
      <trkpt lat="44.04862" lon="1.97615">
        <ele>221.2</ele>
        <time>2021-09-05T10:41:24Z</time>
      </trkpt>
      <trkpt lat="44.04859" lon="1.97615">
        <ele>221.2</ele>
        <time>2021-09-05T10:41:25Z</time>
      </trkpt>
      <trkpt lat="44.04856" lon="1.97615">
        <ele>221.4</ele>
        <time>2021-09-05T10:41:26Z</time>
      </trkpt>
      <trkpt lat="44.04853" lon="1.97615">
        <ele>221.6</ele>
        <time>2021-09-05T10:41:27Z</time>
      </trkpt>
      <trkpt lat="44.04851" lon="1.97615">
        <ele>221.8</ele>
        <time>2021-09-05T10:41:28Z</time>
      </trkpt>
      <trkpt lat="44.04847" lon="1.97615">
        <ele>221.8</ele>
        <time>2021-09-05T10:41:29Z</time>
      </trkpt>
      <trkpt lat="44.04844" lon="1.97615">
        <ele>221.8</ele>
        <time>2021-09-05T10:41:30Z</time>
      </trkpt>
      <trkpt lat="44.0484" lon="1.97615">
        <ele>222</ele>
        <time>2021-09-05T10:41:31Z</time>
      </trkpt>
      <trkpt lat="44.04838" lon="1.97615">
        <ele>222</ele>
        <time>2021-09-05T10:41:32Z</time>
      </trkpt>
      <trkpt lat="44.04835" lon="1.97615">
        <ele>222</ele>
        <time>2021-09-05T10:41:33Z</time>
      </trkpt>
      <trkpt lat="44.04831" lon="1.97615">
        <ele>222.2</ele>
        <time>2021-09-05T10:41:34Z</time>
      </trkpt>
      <trkpt lat="44.04827" lon="1.97615">
        <ele>222.2</ele>
        <time>2021-09-05T10:41:35Z</time>
      </trkpt>
      <trkpt lat="44.04824" lon="1.97615">
        <ele>222.2</ele>
        <time>2021-09-05T10:41:36Z</time>
      </trkpt>
      <trkpt lat="44.04821" lon="1.97615">
        <ele>222.4</ele>
        <time>2021-09-05T10:41:37Z</time>
      </trkpt>
      <trkpt lat="44.04817" lon="1.97615">
        <ele>222.6</ele>
        <time>2021-09-05T10:41:38Z</time>
      </trkpt>
      <trkpt lat="44.04814" lon="1.97615">
        <ele>222.6</ele>
        <time>2021-09-05T10:41:39Z</time>
      </trkpt>
      <trkpt lat="44.04811" lon="1.97615">
        <ele>222.8</ele>
        <time>2021-09-05T10:41:40Z</time>
      </trkpt>
      <trkpt lat="44.04808" lon="1.97616">
        <ele>222.8</ele>
        <time>2021-09-05T10:41:41Z</time>
      </trkpt>
      <trkpt lat="44.04805" lon="1.97616">
        <ele>223</ele>
        <time>2021-09-05T10:41:42Z</time>
      </trkpt>
      <trkpt lat="44.04801" lon="1.97617">
        <ele>223</ele>
        <time>2021-09-05T10:41:43Z</time>
      </trkpt>
      <trkpt lat="44.04798" lon="1.97617">
        <ele>223.2</ele>
        <time>2021-09-05T10:41:44Z</time>
      </trkpt>
      <trkpt lat="44.04795" lon="1.97617">
        <ele>223.2</ele>
        <time>2021-09-05T10:41:45Z</time>
      </trkpt>
      <trkpt lat="44.04791" lon="1.97618">
        <ele>223.2</ele>
        <time>2021-09-05T10:41:46Z</time>
      </trkpt>
      <trkpt lat="44.04788" lon="1.97619">
        <ele>223.2</ele>
        <time>2021-09-05T10:41:47Z</time>
      </trkpt>
      <trkpt lat="44.04784" lon="1.9762">
        <ele>223.2</ele>
        <time>2021-09-05T10:41:48Z</time>
      </trkpt>
      <trkpt lat="44.0478" lon="1.9762">
        <ele>223.2</ele>
        <time>2021-09-05T10:41:49Z</time>
      </trkpt>
      <trkpt lat="44.04776" lon="1.97621">
        <ele>223.2</ele>
        <time>2021-09-05T10:41:50Z</time>
      </trkpt>
      <trkpt lat="44.04767" lon="1.97622">
        <ele>223.2</ele>
        <time>2021-09-05T10:41:52Z</time>
      </trkpt>
      <trkpt lat="44.04743" lon="1.97628">
        <ele>223.2</ele>
        <time>2021-09-05T10:41:57Z</time>
      </trkpt>
      <trkpt lat="44.04727" lon="1.97632">
        <ele>223.2</ele>
        <time>2021-09-05T10:42:00Z</time>
      </trkpt>
      <trkpt lat="44.04722" lon="1.97634">
        <ele>223</ele>
        <time>2021-09-05T10:42:01Z</time>
      </trkpt>
      <trkpt lat="44.04717" lon="1.97635">
        <ele>223</ele>
        <time>2021-09-05T10:42:02Z</time>
      </trkpt>
      <trkpt lat="44.04712" lon="1.97636">
        <ele>223</ele>
        <time>2021-09-05T10:42:03Z</time>
      </trkpt>
      <trkpt lat="44.04707" lon="1.97638">
        <ele>223</ele>
        <time>2021-09-05T10:42:04Z</time>
      </trkpt>
      <trkpt lat="44.04703" lon="1.9764">
        <ele>223</ele>
        <time>2021-09-05T10:42:05Z</time>
      </trkpt>
      <trkpt lat="44.04698" lon="1.97642">
        <ele>222.8</ele>
        <time>2021-09-05T10:42:06Z</time>
      </trkpt>
      <trkpt lat="44.04693" lon="1.97644">
        <ele>222.8</ele>
        <time>2021-09-05T10:42:07Z</time>
      </trkpt>
      <trkpt lat="44.04689" lon="1.97646">
        <ele>222.8</ele>
        <time>2021-09-05T10:42:08Z</time>
      </trkpt>
      <trkpt lat="44.0467" lon="1.97657">
        <ele>222.8</ele>
        <time>2021-09-05T10:42:12Z</time>
      </trkpt>
      <trkpt lat="44.04662" lon="1.97664">
        <ele>222.8</ele>
        <time>2021-09-05T10:42:14Z</time>
      </trkpt>
      <trkpt lat="44.04653" lon="1.97671">
        <ele>222.8</ele>
        <time>2021-09-05T10:42:16Z</time>
      </trkpt>
      <trkpt lat="44.04649" lon="1.97674">
        <ele>222.8</ele>
        <time>2021-09-05T10:42:17Z</time>
      </trkpt>
      <trkpt lat="44.04645" lon="1.97678">
        <ele>222.8</ele>
        <time>2021-09-05T10:42:18Z</time>
      </trkpt>
      <trkpt lat="44.04641" lon="1.9768">
        <ele>222.8</ele>
        <time>2021-09-05T10:42:19Z</time>
      </trkpt>
      <trkpt lat="44.04637" lon="1.97683">
        <ele>222.8</ele>
        <time>2021-09-05T10:42:20Z</time>
      </trkpt>
      <trkpt lat="44.04633" lon="1.97685">
        <ele>222.8</ele>
        <time>2021-09-05T10:42:21Z</time>
      </trkpt>
      <trkpt lat="44.04623" lon="1.9769">
        <ele>223</ele>
        <time>2021-09-05T10:42:23Z</time>
      </trkpt>
      <trkpt lat="44.0461" lon="1.97695">
        <ele>223.4</ele>
        <time>2021-09-05T10:42:26Z</time>
      </trkpt>
      <trkpt lat="44.04601" lon="1.97698">
        <ele>223.6</ele>
        <time>2021-09-05T10:42:28Z</time>
      </trkpt>
      <trkpt lat="44.04593" lon="1.977">
        <ele>223.8</ele>
        <time>2021-09-05T10:42:30Z</time>
      </trkpt>
      <trkpt lat="44.04587" lon="1.97701">
        <ele>223.8</ele>
        <time>2021-09-05T10:42:31Z</time>
      </trkpt>
      <trkpt lat="44.04583" lon="1.97702">
        <ele>224</ele>
        <time>2021-09-05T10:42:32Z</time>
      </trkpt>
      <trkpt lat="44.0458" lon="1.97703">
        <ele>224.2</ele>
        <time>2021-09-05T10:42:33Z</time>
      </trkpt>
      <trkpt lat="44.04577" lon="1.97705">
        <ele>224.4</ele>
        <time>2021-09-05T10:42:34Z</time>
      </trkpt>
      <trkpt lat="44.04573" lon="1.97706">
        <ele>224.6</ele>
        <time>2021-09-05T10:42:35Z</time>
      </trkpt>
      <trkpt lat="44.0457" lon="1.97707">
        <ele>224.6</ele>
        <time>2021-09-05T10:42:36Z</time>
      </trkpt>
      <trkpt lat="44.04567" lon="1.97708">
        <ele>224.8</ele>
        <time>2021-09-05T10:42:37Z</time>
      </trkpt>
      <trkpt lat="44.04565" lon="1.97708">
        <ele>224.8</ele>
        <time>2021-09-05T10:42:38Z</time>
      </trkpt>
      <trkpt lat="44.04562" lon="1.97709">
        <ele>224.8</ele>
        <time>2021-09-05T10:42:39Z</time>
      </trkpt>
      <trkpt lat="44.0456" lon="1.97709">
        <ele>225</ele>
        <time>2021-09-05T10:42:40Z</time>
      </trkpt>
      <trkpt lat="44.04557" lon="1.97709">
        <ele>225.2</ele>
        <time>2021-09-05T10:42:41Z</time>
      </trkpt>
      <trkpt lat="44.04555" lon="1.97709">
        <ele>225.4</ele>
        <time>2021-09-05T10:42:42Z</time>
      </trkpt>
      <trkpt lat="44.04554" lon="1.97709">
        <ele>225.4</ele>
        <time>2021-09-05T10:42:43Z</time>
      </trkpt>
      <trkpt lat="44.04548" lon="1.97708">
        <ele>225.8</ele>
        <time>2021-09-05T10:42:46Z</time>
      </trkpt>
      <trkpt lat="44.04546" lon="1.97707">
        <ele>225.8</ele>
        <time>2021-09-05T10:42:47Z</time>
      </trkpt>
      <trkpt lat="44.04544" lon="1.97706">
        <ele>226</ele>
        <time>2021-09-05T10:42:48Z</time>
      </trkpt>
      <trkpt lat="44.04542" lon="1.97705">
        <ele>226.4</ele>
        <time>2021-09-05T10:42:49Z</time>
      </trkpt>
      <trkpt lat="44.04541" lon="1.97704">
        <ele>226.4</ele>
        <time>2021-09-05T10:42:50Z</time>
      </trkpt>
      <trkpt lat="44.04539" lon="1.97703">
        <ele>226.6</ele>
        <time>2021-09-05T10:42:51Z</time>
      </trkpt>
      <trkpt lat="44.04539" lon="1.97702">
        <ele>226.8</ele>
        <time>2021-09-05T10:42:52Z</time>
      </trkpt>
      <trkpt lat="44.04537" lon="1.97702">
        <ele>226.8</ele>
        <time>2021-09-05T10:42:53Z</time>
      </trkpt>
      <trkpt lat="44.04535" lon="1.97701">
        <ele>227</ele>
        <time>2021-09-05T10:42:54Z</time>
      </trkpt>
      <trkpt lat="44.04534" lon="1.977">
        <ele>227.2</ele>
        <time>2021-09-05T10:42:55Z</time>
      </trkpt>
      <trkpt lat="44.04533" lon="1.97699">
        <ele>227.4</ele>
        <time>2021-09-05T10:42:56Z</time>
      </trkpt>
      <trkpt lat="44.04531" lon="1.977">
        <ele>227.8</ele>
        <time>2021-09-05T10:42:57Z</time>
      </trkpt>
      <trkpt lat="44.0453" lon="1.97702">
        <ele>228.2</ele>
        <time>2021-09-05T10:42:58Z</time>
      </trkpt>
      <trkpt lat="44.0453" lon="1.97704">
        <ele>228.4</ele>
        <time>2021-09-05T10:42:59Z</time>
      </trkpt>
      <trkpt lat="44.0453" lon="1.97706">
        <ele>228.6</ele>
        <time>2021-09-05T10:43:00Z</time>
      </trkpt>
      <trkpt lat="44.04529" lon="1.97708">
        <ele>228.8</ele>
        <time>2021-09-05T10:43:01Z</time>
      </trkpt>
      <trkpt lat="44.04529" lon="1.97709">
        <ele>229</ele>
        <time>2021-09-05T10:43:02Z</time>
      </trkpt>
      <trkpt lat="44.04528" lon="1.9771">
        <ele>229</ele>
        <time>2021-09-05T10:43:03Z</time>
      </trkpt>
      <trkpt lat="44.04527" lon="1.97712">
        <ele>229.2</ele>
        <time>2021-09-05T10:43:04Z</time>
      </trkpt>
      <trkpt lat="44.04527" lon="1.97714">
        <ele>229.4</ele>
        <time>2021-09-05T10:43:05Z</time>
      </trkpt>
      <trkpt lat="44.04526" lon="1.97716">
        <ele>229.4</ele>
        <time>2021-09-05T10:43:06Z</time>
      </trkpt>
      <trkpt lat="44.04525" lon="1.97717">
        <ele>229.8</ele>
        <time>2021-09-05T10:43:07Z</time>
      </trkpt>
      <trkpt lat="44.04524" lon="1.9772">
        <ele>230</ele>
        <time>2021-09-05T10:43:08Z</time>
      </trkpt>
      <trkpt lat="44.04523" lon="1.97721">
        <ele>230.4</ele>
        <time>2021-09-05T10:43:09Z</time>
      </trkpt>
      <trkpt lat="44.04523" lon="1.97723">
        <ele>230.4</ele>
        <time>2021-09-05T10:43:10Z</time>
      </trkpt>
      <trkpt lat="44.04522" lon="1.97725">
        <ele>230.8</ele>
        <time>2021-09-05T10:43:11Z</time>
      </trkpt>
      <trkpt lat="44.04521" lon="1.97727">
        <ele>230.8</ele>
        <time>2021-09-05T10:43:12Z</time>
      </trkpt>
      <trkpt lat="44.0452" lon="1.97729">
        <ele>231</ele>
        <time>2021-09-05T10:43:13Z</time>
      </trkpt>
      <trkpt lat="44.04519" lon="1.97731">
        <ele>231</ele>
        <time>2021-09-05T10:43:14Z</time>
      </trkpt>
      <trkpt lat="44.04518" lon="1.97732">
        <ele>231.2</ele>
        <time>2021-09-05T10:43:15Z</time>
      </trkpt>
      <trkpt lat="44.04517" lon="1.97733">
        <ele>231.4</ele>
        <time>2021-09-05T10:43:16Z</time>
      </trkpt>
      <trkpt lat="44.04516" lon="1.97735">
        <ele>231.6</ele>
        <time>2021-09-05T10:43:17Z</time>
      </trkpt>
      <trkpt lat="44.04515" lon="1.97737">
        <ele>231.6</ele>
        <time>2021-09-05T10:43:18Z</time>
      </trkpt>
      <trkpt lat="44.04514" lon="1.97739">
        <ele>231.8</ele>
        <time>2021-09-05T10:43:19Z</time>
      </trkpt>
      <trkpt lat="44.04512" lon="1.97741">
        <ele>232</ele>
        <time>2021-09-05T10:43:20Z</time>
      </trkpt>
      <trkpt lat="44.04511" lon="1.97743">
        <ele>232</ele>
        <time>2021-09-05T10:43:21Z</time>
      </trkpt>
      <trkpt lat="44.0451" lon="1.97744">
        <ele>232.2</ele>
        <time>2021-09-05T10:43:22Z</time>
      </trkpt>
      <trkpt lat="44.04509" lon="1.97746">
        <ele>232.6</ele>
        <time>2021-09-05T10:43:23Z</time>
      </trkpt>
      <trkpt lat="44.04507" lon="1.97748">
        <ele>232.6</ele>
        <time>2021-09-05T10:43:24Z</time>
      </trkpt>
      <trkpt lat="44.04506" lon="1.97749">
        <ele>232.8</ele>
        <time>2021-09-05T10:43:25Z</time>
      </trkpt>
      <trkpt lat="44.04504" lon="1.97751">
        <ele>232.8</ele>
        <time>2021-09-05T10:43:26Z</time>
      </trkpt>
      <trkpt lat="44.04503" lon="1.97752">
        <ele>232.8</ele>
        <time>2021-09-05T10:43:27Z</time>
      </trkpt>
      <trkpt lat="44.04501" lon="1.97754">
        <ele>233</ele>
        <time>2021-09-05T10:43:28Z</time>
      </trkpt>
      <trkpt lat="44.045" lon="1.97756">
        <ele>233.2</ele>
        <time>2021-09-05T10:43:29Z</time>
      </trkpt>
      <trkpt lat="44.04499" lon="1.97757">
        <ele>233.4</ele>
        <time>2021-09-05T10:43:30Z</time>
      </trkpt>
      <trkpt lat="44.04497" lon="1.97759">
        <ele>233.6</ele>
        <time>2021-09-05T10:43:31Z</time>
      </trkpt>
      <trkpt lat="44.04496" lon="1.97761">
        <ele>233.8</ele>
        <time>2021-09-05T10:43:32Z</time>
      </trkpt>
      <trkpt lat="44.04494" lon="1.97763">
        <ele>233.8</ele>
        <time>2021-09-05T10:43:33Z</time>
      </trkpt>
      <trkpt lat="44.04492" lon="1.97765">
        <ele>234</ele>
        <time>2021-09-05T10:43:34Z</time>
      </trkpt>
      <trkpt lat="44.04491" lon="1.97766">
        <ele>234.2</ele>
        <time>2021-09-05T10:43:35Z</time>
      </trkpt>
      <trkpt lat="44.04489" lon="1.97769">
        <ele>234.4</ele>
        <time>2021-09-05T10:43:36Z</time>
      </trkpt>
      <trkpt lat="44.04487" lon="1.97771">
        <ele>234.4</ele>
        <time>2021-09-05T10:43:37Z</time>
      </trkpt>
      <trkpt lat="44.04485" lon="1.97773">
        <ele>234.6</ele>
        <time>2021-09-05T10:43:38Z</time>
      </trkpt>
      <trkpt lat="44.04483" lon="1.97775">
        <ele>234.8</ele>
        <time>2021-09-05T10:43:39Z</time>
      </trkpt>
      <trkpt lat="44.04482" lon="1.97778">
        <ele>234.8</ele>
        <time>2021-09-05T10:43:40Z</time>
      </trkpt>
      <trkpt lat="44.04479" lon="1.97781">
        <ele>235</ele>
        <time>2021-09-05T10:43:41Z</time>
      </trkpt>
      <trkpt lat="44.04477" lon="1.97783">
        <ele>235</ele>
        <time>2021-09-05T10:43:42Z</time>
      </trkpt>
      <trkpt lat="44.04476" lon="1.97785">
        <ele>235.4</ele>
        <time>2021-09-05T10:43:43Z</time>
      </trkpt>
      <trkpt lat="44.04474" lon="1.97787">
        <ele>235.4</ele>
        <time>2021-09-05T10:43:44Z</time>
      </trkpt>
      <trkpt lat="44.04473" lon="1.97789">
        <ele>235.4</ele>
        <time>2021-09-05T10:43:45Z</time>
      </trkpt>
      <trkpt lat="44.0447" lon="1.97793">
        <ele>235.6</ele>
        <time>2021-09-05T10:43:46Z</time>
      </trkpt>
      <trkpt lat="44.04468" lon="1.97797">
        <ele>235.6</ele>
        <time>2021-09-05T10:43:47Z</time>
      </trkpt>
      <trkpt lat="44.04465" lon="1.978">
        <ele>235.8</ele>
        <time>2021-09-05T10:43:48Z</time>
      </trkpt>
      <trkpt lat="44.04462" lon="1.97804">
        <ele>235.8</ele>
        <time>2021-09-05T10:43:49Z</time>
      </trkpt>
      <trkpt lat="44.0446" lon="1.97808">
        <ele>236</ele>
        <time>2021-09-05T10:43:50Z</time>
      </trkpt>
      <trkpt lat="44.04458" lon="1.97813">
        <ele>236</ele>
        <time>2021-09-05T10:43:51Z</time>
      </trkpt>
      <trkpt lat="44.04456" lon="1.97818">
        <ele>236.2</ele>
        <time>2021-09-05T10:43:52Z</time>
      </trkpt>
      <trkpt lat="44.04454" lon="1.97823">
        <ele>236.2</ele>
        <time>2021-09-05T10:43:53Z</time>
      </trkpt>
      <trkpt lat="44.04452" lon="1.97829">
        <ele>236.2</ele>
        <time>2021-09-05T10:43:54Z</time>
      </trkpt>
      <trkpt lat="44.04451" lon="1.97833">
        <ele>236.2</ele>
        <time>2021-09-05T10:43:55Z</time>
      </trkpt>
      <trkpt lat="44.04449" lon="1.97839">
        <ele>236.2</ele>
        <time>2021-09-05T10:43:56Z</time>
      </trkpt>
      <trkpt lat="44.04448" lon="1.97844">
        <ele>236</ele>
        <time>2021-09-05T10:43:57Z</time>
      </trkpt>
      <trkpt lat="44.04446" lon="1.9785">
        <ele>236</ele>
        <time>2021-09-05T10:43:58Z</time>
      </trkpt>
      <trkpt lat="44.04445" lon="1.97857">
        <ele>235.8</ele>
        <time>2021-09-05T10:43:59Z</time>
      </trkpt>
      <trkpt lat="44.04443" lon="1.97865">
        <ele>235.8</ele>
        <time>2021-09-05T10:44:00Z</time>
      </trkpt>
      <trkpt lat="44.04442" lon="1.97872">
        <ele>235.6</ele>
        <time>2021-09-05T10:44:01Z</time>
      </trkpt>
      <trkpt lat="44.0444" lon="1.9788">
        <ele>235.6</ele>
        <time>2021-09-05T10:44:02Z</time>
      </trkpt>
      <trkpt lat="44.04438" lon="1.97885">
        <ele>235.4</ele>
        <time>2021-09-05T10:44:03Z</time>
      </trkpt>
      <trkpt lat="44.04437" lon="1.9789">
        <ele>235.4</ele>
        <time>2021-09-05T10:44:04Z</time>
      </trkpt>
      <trkpt lat="44.04436" lon="1.97894">
        <ele>235.4</ele>
        <time>2021-09-05T10:44:05Z</time>
      </trkpt>
      <trkpt lat="44.04434" lon="1.97897">
        <ele>235.4</ele>
        <time>2021-09-05T10:44:06Z</time>
      </trkpt>
      <trkpt lat="44.04432" lon="1.97901">
        <ele>235.4</ele>
        <time>2021-09-05T10:44:07Z</time>
      </trkpt>
      <trkpt lat="44.04429" lon="1.97907">
        <ele>235.6</ele>
        <time>2021-09-05T10:44:08Z</time>
      </trkpt>
      <trkpt lat="44.04428" lon="1.97918">
        <ele>235.8</ele>
        <time>2021-09-05T10:44:10Z</time>
      </trkpt>
      <trkpt lat="44.04428" lon="1.97924">
        <ele>236</ele>
        <time>2021-09-05T10:44:11Z</time>
      </trkpt>
      <trkpt lat="44.04427" lon="1.97928">
        <ele>236.2</ele>
        <time>2021-09-05T10:44:12Z</time>
      </trkpt>
      <trkpt lat="44.04426" lon="1.97944">
        <ele>236.6</ele>
        <time>2021-09-05T10:44:15Z</time>
      </trkpt>
      <trkpt lat="44.04425" lon="1.97949">
        <ele>236.6</ele>
        <time>2021-09-05T10:44:16Z</time>
      </trkpt>
      <trkpt lat="44.04424" lon="1.97953">
        <ele>236.8</ele>
        <time>2021-09-05T10:44:17Z</time>
      </trkpt>
      <trkpt lat="44.04424" lon="1.97959">
        <ele>236.8</ele>
        <time>2021-09-05T10:44:18Z</time>
      </trkpt>
      <trkpt lat="44.04423" lon="1.97966">
        <ele>236.8</ele>
        <time>2021-09-05T10:44:19Z</time>
      </trkpt>
      <trkpt lat="44.04421" lon="1.97977">
        <ele>237</ele>
        <time>2021-09-05T10:44:21Z</time>
      </trkpt>
      <trkpt lat="44.0442" lon="1.97982">
        <ele>237.4</ele>
        <time>2021-09-05T10:44:22Z</time>
      </trkpt>
      <trkpt lat="44.0442" lon="1.97985">
        <ele>237.4</ele>
        <time>2021-09-05T10:44:23Z</time>
      </trkpt>
      <trkpt lat="44.0442" lon="1.97987">
        <ele>237.8</ele>
        <time>2021-09-05T10:44:24Z</time>
      </trkpt>
      <trkpt lat="44.04419" lon="1.9799">
        <ele>237.8</ele>
        <time>2021-09-05T10:44:25Z</time>
      </trkpt>
      <trkpt lat="44.04418" lon="1.97993">
        <ele>238</ele>
        <time>2021-09-05T10:44:26Z</time>
      </trkpt>
      <trkpt lat="44.04418" lon="1.97997">
        <ele>238.2</ele>
        <time>2021-09-05T10:44:27Z</time>
      </trkpt>
      <trkpt lat="44.04415" lon="1.98001">
        <ele>238.4</ele>
        <time>2021-09-05T10:44:29Z</time>
      </trkpt>
      <trkpt lat="44.04414" lon="1.98005">
        <ele>238.4</ele>
        <time>2021-09-05T10:44:30Z</time>
      </trkpt>
      <trkpt lat="44.04414" lon="1.98009">
        <ele>238.4</ele>
        <time>2021-09-05T10:44:31Z</time>
      </trkpt>
      <trkpt lat="44.04414" lon="1.98011">
        <ele>238.6</ele>
        <time>2021-09-05T10:44:32Z</time>
      </trkpt>
      <trkpt lat="44.04412" lon="1.98014">
        <ele>238.6</ele>
        <time>2021-09-05T10:44:33Z</time>
      </trkpt>
      <trkpt lat="44.04411" lon="1.98019">
        <ele>238.8</ele>
        <time>2021-09-05T10:44:34Z</time>
      </trkpt>
      <trkpt lat="44.0441" lon="1.98023">
        <ele>238.8</ele>
        <time>2021-09-05T10:44:35Z</time>
      </trkpt>
      <trkpt lat="44.04409" lon="1.98027">
        <ele>239</ele>
        <time>2021-09-05T10:44:36Z</time>
      </trkpt>
      <trkpt lat="44.04406" lon="1.9803">
        <ele>239.2</ele>
        <time>2021-09-05T10:44:37Z</time>
      </trkpt>
      <trkpt lat="44.04402" lon="1.98033">
        <ele>239.4</ele>
        <time>2021-09-05T10:44:38Z</time>
      </trkpt>
      <trkpt lat="44.044" lon="1.98036">
        <ele>239.6</ele>
        <time>2021-09-05T10:44:39Z</time>
      </trkpt>
      <trkpt lat="44.04399" lon="1.9804">
        <ele>240</ele>
        <time>2021-09-05T10:44:40Z</time>
      </trkpt>
      <trkpt lat="44.04399" lon="1.98042">
        <ele>240</ele>
        <time>2021-09-05T10:44:41Z</time>
      </trkpt>
      <trkpt lat="44.04399" lon="1.98045">
        <ele>240.4</ele>
        <time>2021-09-05T10:44:42Z</time>
      </trkpt>
      <trkpt lat="44.04399" lon="1.98047">
        <ele>240.6</ele>
        <time>2021-09-05T10:44:43Z</time>
      </trkpt>
      <trkpt lat="44.04398" lon="1.98049">
        <ele>240.8</ele>
        <time>2021-09-05T10:44:44Z</time>
      </trkpt>
      <trkpt lat="44.04397" lon="1.9805">
        <ele>240.8</ele>
        <time>2021-09-05T10:44:45Z</time>
      </trkpt>
      <trkpt lat="44.04396" lon="1.98052">
        <ele>241</ele>
        <time>2021-09-05T10:44:46Z</time>
      </trkpt>
      <trkpt lat="44.04395" lon="1.98054">
        <ele>241</ele>
        <time>2021-09-05T10:44:47Z</time>
      </trkpt>
      <trkpt lat="44.04395" lon="1.98056">
        <ele>241.2</ele>
        <time>2021-09-05T10:44:48Z</time>
      </trkpt>
      <trkpt lat="44.04394" lon="1.98057">
        <ele>241.4</ele>
        <time>2021-09-05T10:44:49Z</time>
      </trkpt>
      <trkpt lat="44.04393" lon="1.98059">
        <ele>241.4</ele>
        <time>2021-09-05T10:44:50Z</time>
      </trkpt>
      <trkpt lat="44.04392" lon="1.98061">
        <ele>241.8</ele>
        <time>2021-09-05T10:44:51Z</time>
      </trkpt>
      <trkpt lat="44.04391" lon="1.98061">
        <ele>242</ele>
        <time>2021-09-05T10:44:52Z</time>
      </trkpt>
      <trkpt lat="44.04391" lon="1.98063">
        <ele>242.2</ele>
        <time>2021-09-05T10:44:53Z</time>
      </trkpt>
      <trkpt lat="44.0439" lon="1.98065">
        <ele>242.4</ele>
        <time>2021-09-05T10:44:54Z</time>
      </trkpt>
      <trkpt lat="44.04389" lon="1.98066">
        <ele>242.6</ele>
        <time>2021-09-05T10:44:55Z</time>
      </trkpt>
      <trkpt lat="44.04388" lon="1.98068">
        <ele>243</ele>
        <time>2021-09-05T10:44:56Z</time>
      </trkpt>
      <trkpt lat="44.04386" lon="1.9807">
        <ele>243</ele>
        <time>2021-09-05T10:44:57Z</time>
      </trkpt>
      <trkpt lat="44.04385" lon="1.98072">
        <ele>243.2</ele>
        <time>2021-09-05T10:44:58Z</time>
      </trkpt>
      <trkpt lat="44.04384" lon="1.98073">
        <ele>243.2</ele>
        <time>2021-09-05T10:44:59Z</time>
      </trkpt>
      <trkpt lat="44.04383" lon="1.98075">
        <ele>243.4</ele>
        <time>2021-09-05T10:45:00Z</time>
      </trkpt>
      <trkpt lat="44.04381" lon="1.98076">
        <ele>243.6</ele>
        <time>2021-09-05T10:45:01Z</time>
      </trkpt>
      <trkpt lat="44.04379" lon="1.98079">
        <ele>243.6</ele>
        <time>2021-09-05T10:45:02Z</time>
      </trkpt>
      <trkpt lat="44.04378" lon="1.98081">
        <ele>243.8</ele>
        <time>2021-09-05T10:45:03Z</time>
      </trkpt>
      <trkpt lat="44.04377" lon="1.98083">
        <ele>243.8</ele>
        <time>2021-09-05T10:45:04Z</time>
      </trkpt>
      <trkpt lat="44.04375" lon="1.98085">
        <ele>243.8</ele>
        <time>2021-09-05T10:45:05Z</time>
      </trkpt>
      <trkpt lat="44.04373" lon="1.98088">
        <ele>243.8</ele>
        <time>2021-09-05T10:45:06Z</time>
      </trkpt>
      <trkpt lat="44.04372" lon="1.9809">
        <ele>244</ele>
        <time>2021-09-05T10:45:07Z</time>
      </trkpt>
      <trkpt lat="44.04371" lon="1.98092">
        <ele>244</ele>
        <time>2021-09-05T10:45:08Z</time>
      </trkpt>
      <trkpt lat="44.04369" lon="1.98094">
        <ele>244</ele>
        <time>2021-09-05T10:45:09Z</time>
      </trkpt>
      <trkpt lat="44.04367" lon="1.98095">
        <ele>244.2</ele>
        <time>2021-09-05T10:45:10Z</time>
      </trkpt>
      <trkpt lat="44.04365" lon="1.98097">
        <ele>244.2</ele>
        <time>2021-09-05T10:45:11Z</time>
      </trkpt>
      <trkpt lat="44.04364" lon="1.98099">
        <ele>244.4</ele>
        <time>2021-09-05T10:45:12Z</time>
      </trkpt>
      <trkpt lat="44.04362" lon="1.98101">
        <ele>244.4</ele>
        <time>2021-09-05T10:45:13Z</time>
      </trkpt>
      <trkpt lat="44.0436" lon="1.98103">
        <ele>244.4</ele>
        <time>2021-09-05T10:45:14Z</time>
      </trkpt>
      <trkpt lat="44.04357" lon="1.98106">
        <ele>244.4</ele>
        <time>2021-09-05T10:45:15Z</time>
      </trkpt>
      <trkpt lat="44.04354" lon="1.9811">
        <ele>244.6</ele>
        <time>2021-09-05T10:45:16Z</time>
      </trkpt>
      <trkpt lat="44.04353" lon="1.98115">
        <ele>244.8</ele>
        <time>2021-09-05T10:45:17Z</time>
      </trkpt>
      <trkpt lat="44.04351" lon="1.9812">
        <ele>244.8</ele>
        <time>2021-09-05T10:45:18Z</time>
      </trkpt>
      <trkpt lat="44.04349" lon="1.98128">
        <ele>244.8</ele>
        <time>2021-09-05T10:45:19Z</time>
      </trkpt>
      <trkpt lat="44.04349" lon="1.98132">
        <ele>244.8</ele>
        <time>2021-09-05T10:45:20Z</time>
      </trkpt>
      <trkpt lat="44.04349" lon="1.98136">
        <ele>245</ele>
        <time>2021-09-05T10:45:21Z</time>
      </trkpt>
      <trkpt lat="44.04348" lon="1.98141">
        <ele>245.2</ele>
        <time>2021-09-05T10:45:22Z</time>
      </trkpt>
      <trkpt lat="44.04346" lon="1.98145">
        <ele>245.4</ele>
        <time>2021-09-05T10:45:23Z</time>
      </trkpt>
      <trkpt lat="44.04344" lon="1.98147">
        <ele>245.6</ele>
        <time>2021-09-05T10:45:24Z</time>
      </trkpt>
      <trkpt lat="44.04343" lon="1.98147">
        <ele>245.8</ele>
        <time>2021-09-05T10:45:25Z</time>
      </trkpt>
      <trkpt lat="44.04342" lon="1.98149">
        <ele>246</ele>
        <time>2021-09-05T10:45:26Z</time>
      </trkpt>
      <trkpt lat="44.04342" lon="1.98151">
        <ele>246</ele>
        <time>2021-09-05T10:45:27Z</time>
      </trkpt>
      <trkpt lat="44.04342" lon="1.98153">
        <ele>246.2</ele>
        <time>2021-09-05T10:45:28Z</time>
      </trkpt>
      <trkpt lat="44.04339" lon="1.98155">
        <ele>246.2</ele>
        <time>2021-09-05T10:45:29Z</time>
      </trkpt>
      <trkpt lat="44.04337" lon="1.98159">
        <ele>246.4</ele>
        <time>2021-09-05T10:45:30Z</time>
      </trkpt>
      <trkpt lat="44.04336" lon="1.9816">
        <ele>246.6</ele>
        <time>2021-09-05T10:45:31Z</time>
      </trkpt>
      <trkpt lat="44.04336" lon="1.98163">
        <ele>246.6</ele>
        <time>2021-09-05T10:45:32Z</time>
      </trkpt>
      <trkpt lat="44.04336" lon="1.98165">
        <ele>246.8</ele>
        <time>2021-09-05T10:45:33Z</time>
      </trkpt>
      <trkpt lat="44.04336" lon="1.98168">
        <ele>246.8</ele>
        <time>2021-09-05T10:45:34Z</time>
      </trkpt>
      <trkpt lat="44.04336" lon="1.9817">
        <ele>246.8</ele>
        <time>2021-09-05T10:45:35Z</time>
      </trkpt>
      <trkpt lat="44.04335" lon="1.98175">
        <ele>247</ele>
        <time>2021-09-05T10:45:36Z</time>
      </trkpt>
      <trkpt lat="44.04334" lon="1.98179">
        <ele>247</ele>
        <time>2021-09-05T10:45:37Z</time>
      </trkpt>
      <trkpt lat="44.04332" lon="1.98181">
        <ele>247.2</ele>
        <time>2021-09-05T10:45:38Z</time>
      </trkpt>
      <trkpt lat="44.04331" lon="1.98184">
        <ele>247.4</ele>
        <time>2021-09-05T10:45:39Z</time>
      </trkpt>
      <trkpt lat="44.04331" lon="1.98186">
        <ele>247.6</ele>
        <time>2021-09-05T10:45:40Z</time>
      </trkpt>
      <trkpt lat="44.0433" lon="1.98188">
        <ele>247.8</ele>
        <time>2021-09-05T10:45:41Z</time>
      </trkpt>
      <trkpt lat="44.04328" lon="1.9819">
        <ele>248</ele>
        <time>2021-09-05T10:45:42Z</time>
      </trkpt>
      <trkpt lat="44.04326" lon="1.98193">
        <ele>248</ele>
        <time>2021-09-05T10:45:43Z</time>
      </trkpt>
      <trkpt lat="44.04324" lon="1.98196">
        <ele>248.2</ele>
        <time>2021-09-05T10:45:44Z</time>
      </trkpt>
      <trkpt lat="44.04321" lon="1.98197">
        <ele>248.2</ele>
        <time>2021-09-05T10:45:45Z</time>
      </trkpt>
      <trkpt lat="44.04319" lon="1.98199">
        <ele>248.2</ele>
        <time>2021-09-05T10:45:46Z</time>
      </trkpt>
      <trkpt lat="44.04317" lon="1.98202">
        <ele>248.4</ele>
        <time>2021-09-05T10:45:47Z</time>
      </trkpt>
      <trkpt lat="44.04315" lon="1.98203">
        <ele>248.4</ele>
        <time>2021-09-05T10:45:48Z</time>
      </trkpt>
      <trkpt lat="44.04312" lon="1.98207">
        <ele>248.6</ele>
        <time>2021-09-05T10:45:49Z</time>
      </trkpt>
      <trkpt lat="44.04309" lon="1.9821">
        <ele>248.8</ele>
        <time>2021-09-05T10:45:50Z</time>
      </trkpt>
      <trkpt lat="44.04306" lon="1.98213">
        <ele>248.8</ele>
        <time>2021-09-05T10:45:51Z</time>
      </trkpt>
      <trkpt lat="44.04303" lon="1.98216">
        <ele>249</ele>
        <time>2021-09-05T10:45:52Z</time>
      </trkpt>
      <trkpt lat="44.04299" lon="1.98219">
        <ele>249.2</ele>
        <time>2021-09-05T10:45:53Z</time>
      </trkpt>
      <trkpt lat="44.04298" lon="1.98222">
        <ele>249.4</ele>
        <time>2021-09-05T10:45:54Z</time>
      </trkpt>
      <trkpt lat="44.04298" lon="1.98224">
        <ele>249.6</ele>
        <time>2021-09-05T10:45:55Z</time>
      </trkpt>
      <trkpt lat="44.04296" lon="1.98226">
        <ele>249.8</ele>
        <time>2021-09-05T10:45:56Z</time>
      </trkpt>
      <trkpt lat="44.04295" lon="1.98229">
        <ele>250</ele>
        <time>2021-09-05T10:45:57Z</time>
      </trkpt>
      <trkpt lat="44.04293" lon="1.98231">
        <ele>250</ele>
        <time>2021-09-05T10:45:58Z</time>
      </trkpt>
      <trkpt lat="44.04291" lon="1.98233">
        <ele>250.2</ele>
        <time>2021-09-05T10:45:59Z</time>
      </trkpt>
      <trkpt lat="44.04289" lon="1.98235">
        <ele>250.2</ele>
        <time>2021-09-05T10:46:00Z</time>
      </trkpt>
      <trkpt lat="44.04288" lon="1.98237">
        <ele>250.4</ele>
        <time>2021-09-05T10:46:01Z</time>
      </trkpt>
      <trkpt lat="44.04287" lon="1.9824">
        <ele>250.4</ele>
        <time>2021-09-05T10:46:02Z</time>
      </trkpt>
      <trkpt lat="44.04287" lon="1.98241">
        <ele>250.6</ele>
        <time>2021-09-05T10:46:03Z</time>
      </trkpt>
      <trkpt lat="44.04287" lon="1.98241">
        <ele>251</ele>
        <time>2021-09-05T10:46:04Z</time>
      </trkpt>
      <trkpt lat="44.04286" lon="1.98244">
        <ele>251.2</ele>
        <time>2021-09-05T10:46:05Z</time>
      </trkpt>
      <trkpt lat="44.04284" lon="1.98246">
        <ele>251.4</ele>
        <time>2021-09-05T10:46:06Z</time>
      </trkpt>
      <trkpt lat="44.04283" lon="1.98248">
        <ele>251.6</ele>
        <time>2021-09-05T10:46:07Z</time>
      </trkpt>
      <trkpt lat="44.04281" lon="1.98253">
        <ele>251.8</ele>
        <time>2021-09-05T10:46:08Z</time>
      </trkpt>
      <trkpt lat="44.0428" lon="1.98258">
        <ele>252.4</ele>
        <time>2021-09-05T10:46:09Z</time>
      </trkpt>
      <trkpt lat="44.04278" lon="1.98262">
        <ele>252.6</ele>
        <time>2021-09-05T10:46:10Z</time>
      </trkpt>
      <trkpt lat="44.04275" lon="1.98266">
        <ele>252.8</ele>
        <time>2021-09-05T10:46:11Z</time>
      </trkpt>
      <trkpt lat="44.04272" lon="1.9827">
        <ele>253</ele>
        <time>2021-09-05T10:46:12Z</time>
      </trkpt>
      <trkpt lat="44.0427" lon="1.98274">
        <ele>253.2</ele>
        <time>2021-09-05T10:46:13Z</time>
      </trkpt>
      <trkpt lat="44.04269" lon="1.98278">
        <ele>253.4</ele>
        <time>2021-09-05T10:46:14Z</time>
      </trkpt>
      <trkpt lat="44.04268" lon="1.98282">
        <ele>253.6</ele>
        <time>2021-09-05T10:46:15Z</time>
      </trkpt>
      <trkpt lat="44.04267" lon="1.98285">
        <ele>253.8</ele>
        <time>2021-09-05T10:46:16Z</time>
      </trkpt>
      <trkpt lat="44.04264" lon="1.98289">
        <ele>253.8</ele>
        <time>2021-09-05T10:46:17Z</time>
      </trkpt>
      <trkpt lat="44.04263" lon="1.98291">
        <ele>254</ele>
        <time>2021-09-05T10:46:18Z</time>
      </trkpt>
      <trkpt lat="44.04263" lon="1.98293">
        <ele>254</ele>
        <time>2021-09-05T10:46:19Z</time>
      </trkpt>
      <trkpt lat="44.0426" lon="1.98296">
        <ele>254.2</ele>
        <time>2021-09-05T10:46:20Z</time>
      </trkpt>
      <trkpt lat="44.04259" lon="1.98298">
        <ele>254.4</ele>
        <time>2021-09-05T10:46:21Z</time>
      </trkpt>
      <trkpt lat="44.04258" lon="1.98302">
        <ele>254.4</ele>
        <time>2021-09-05T10:46:22Z</time>
      </trkpt>
      <trkpt lat="44.04258" lon="1.98304">
        <ele>254.6</ele>
        <time>2021-09-05T10:46:23Z</time>
      </trkpt>
      <trkpt lat="44.04257" lon="1.98306">
        <ele>254.8</ele>
        <time>2021-09-05T10:46:24Z</time>
      </trkpt>
      <trkpt lat="44.04256" lon="1.98309">
        <ele>254.8</ele>
        <time>2021-09-05T10:46:25Z</time>
      </trkpt>
      <trkpt lat="44.04254" lon="1.9831">
        <ele>254.8</ele>
        <time>2021-09-05T10:46:26Z</time>
      </trkpt>
      <trkpt lat="44.04252" lon="1.98313">
        <ele>255</ele>
        <time>2021-09-05T10:46:27Z</time>
      </trkpt>
      <trkpt lat="44.04251" lon="1.98315">
        <ele>255</ele>
        <time>2021-09-05T10:46:28Z</time>
      </trkpt>
      <trkpt lat="44.04249" lon="1.98317">
        <ele>255.4</ele>
        <time>2021-09-05T10:46:29Z</time>
      </trkpt>
      <trkpt lat="44.04248" lon="1.98318">
        <ele>255.4</ele>
        <time>2021-09-05T10:46:30Z</time>
      </trkpt>
      <trkpt lat="44.04247" lon="1.98319">
        <ele>255.4</ele>
        <time>2021-09-05T10:46:31Z</time>
      </trkpt>
      <trkpt lat="44.04245" lon="1.98321">
        <ele>255.6</ele>
        <time>2021-09-05T10:46:32Z</time>
      </trkpt>
      <trkpt lat="44.04244" lon="1.98323">
        <ele>255.8</ele>
        <time>2021-09-05T10:46:33Z</time>
      </trkpt>
      <trkpt lat="44.04242" lon="1.98325">
        <ele>256</ele>
        <time>2021-09-05T10:46:34Z</time>
      </trkpt>
      <trkpt lat="44.04241" lon="1.98327">
        <ele>256</ele>
        <time>2021-09-05T10:46:35Z</time>
      </trkpt>
      <trkpt lat="44.0424" lon="1.9833">
        <ele>256.2</ele>
        <time>2021-09-05T10:46:36Z</time>
      </trkpt>
      <trkpt lat="44.04238" lon="1.98333">
        <ele>256.4</ele>
        <time>2021-09-05T10:46:37Z</time>
      </trkpt>
      <trkpt lat="44.04236" lon="1.98335">
        <ele>256.4</ele>
        <time>2021-09-05T10:46:38Z</time>
      </trkpt>
      <trkpt lat="44.04234" lon="1.98338">
        <ele>256.6</ele>
        <time>2021-09-05T10:46:39Z</time>
      </trkpt>
      <trkpt lat="44.04233" lon="1.9834">
        <ele>256.8</ele>
        <time>2021-09-05T10:46:40Z</time>
      </trkpt>
      <trkpt lat="44.04232" lon="1.98341">
        <ele>257</ele>
        <time>2021-09-05T10:46:41Z</time>
      </trkpt>
      <trkpt lat="44.0423" lon="1.98343">
        <ele>257</ele>
        <time>2021-09-05T10:46:42Z</time>
      </trkpt>
      <trkpt lat="44.04228" lon="1.98345">
        <ele>257.2</ele>
        <time>2021-09-05T10:46:43Z</time>
      </trkpt>
      <trkpt lat="44.04226" lon="1.98348">
        <ele>257.4</ele>
        <time>2021-09-05T10:46:44Z</time>
      </trkpt>
      <trkpt lat="44.04224" lon="1.98351">
        <ele>257.6</ele>
        <time>2021-09-05T10:46:45Z</time>
      </trkpt>
      <trkpt lat="44.04222" lon="1.98353">
        <ele>257.8</ele>
        <time>2021-09-05T10:46:46Z</time>
      </trkpt>
      <trkpt lat="44.04221" lon="1.98354">
        <ele>257.8</ele>
        <time>2021-09-05T10:46:47Z</time>
      </trkpt>
      <trkpt lat="44.04219" lon="1.98356">
        <ele>258</ele>
        <time>2021-09-05T10:46:48Z</time>
      </trkpt>
      <trkpt lat="44.04217" lon="1.98358">
        <ele>258</ele>
        <time>2021-09-05T10:46:49Z</time>
      </trkpt>
      <trkpt lat="44.04216" lon="1.98361">
        <ele>258.2</ele>
        <time>2021-09-05T10:46:50Z</time>
      </trkpt>
      <trkpt lat="44.04214" lon="1.98364">
        <ele>258.4</ele>
        <time>2021-09-05T10:46:51Z</time>
      </trkpt>
      <trkpt lat="44.04212" lon="1.98367">
        <ele>258.4</ele>
        <time>2021-09-05T10:46:52Z</time>
      </trkpt>
      <trkpt lat="44.04211" lon="1.98369">
        <ele>258.6</ele>
        <time>2021-09-05T10:46:53Z</time>
      </trkpt>
      <trkpt lat="44.04211" lon="1.98373">
        <ele>258.6</ele>
        <time>2021-09-05T10:46:54Z</time>
      </trkpt>
      <trkpt lat="44.04209" lon="1.98377">
        <ele>258.8</ele>
        <time>2021-09-05T10:46:55Z</time>
      </trkpt>
      <trkpt lat="44.04208" lon="1.9838">
        <ele>258.8</ele>
        <time>2021-09-05T10:46:56Z</time>
      </trkpt>
      <trkpt lat="44.04208" lon="1.98382">
        <ele>259</ele>
        <time>2021-09-05T10:46:57Z</time>
      </trkpt>
      <trkpt lat="44.04207" lon="1.98385">
        <ele>259.2</ele>
        <time>2021-09-05T10:46:58Z</time>
      </trkpt>
      <trkpt lat="44.04205" lon="1.98388">
        <ele>259.6</ele>
        <time>2021-09-05T10:46:59Z</time>
      </trkpt>
      <trkpt lat="44.04204" lon="1.98393">
        <ele>259.6</ele>
        <time>2021-09-05T10:47:00Z</time>
      </trkpt>
      <trkpt lat="44.04204" lon="1.98398">
        <ele>259.8</ele>
        <time>2021-09-05T10:47:01Z</time>
      </trkpt>
      <trkpt lat="44.04203" lon="1.98401">
        <ele>260</ele>
        <time>2021-09-05T10:47:02Z</time>
      </trkpt>
      <trkpt lat="44.04203" lon="1.98404">
        <ele>260</ele>
        <time>2021-09-05T10:47:03Z</time>
      </trkpt>
      <trkpt lat="44.04201" lon="1.98408">
        <ele>260.4</ele>
        <time>2021-09-05T10:47:04Z</time>
      </trkpt>
      <trkpt lat="44.042" lon="1.98408">
        <ele>260.4</ele>
        <time>2021-09-05T10:47:05Z</time>
      </trkpt>
      <trkpt lat="44.04197" lon="1.9841">
        <ele>260.6</ele>
        <time>2021-09-05T10:47:06Z</time>
      </trkpt>
      <trkpt lat="44.04195" lon="1.98412">
        <ele>260.8</ele>
        <time>2021-09-05T10:47:07Z</time>
      </trkpt>
      <trkpt lat="44.04193" lon="1.98414">
        <ele>261</ele>
        <time>2021-09-05T10:47:08Z</time>
      </trkpt>
      <trkpt lat="44.04192" lon="1.98413">
        <ele>261</ele>
        <time>2021-09-05T10:47:09Z</time>
      </trkpt>
      <trkpt lat="44.0419" lon="1.98414">
        <ele>261.4</ele>
        <time>2021-09-05T10:47:10Z</time>
      </trkpt>
      <trkpt lat="44.04188" lon="1.98416">
        <ele>261.6</ele>
        <time>2021-09-05T10:47:11Z</time>
      </trkpt>
      <trkpt lat="44.04186" lon="1.98417">
        <ele>261.6</ele>
        <time>2021-09-05T10:47:12Z</time>
      </trkpt>
      <trkpt lat="44.04184" lon="1.98418">
        <ele>261.8</ele>
        <time>2021-09-05T10:47:13Z</time>
      </trkpt>
      <trkpt lat="44.04183" lon="1.98419">
        <ele>262</ele>
        <time>2021-09-05T10:47:14Z</time>
      </trkpt>
      <trkpt lat="44.04181" lon="1.9842">
        <ele>262.2</ele>
        <time>2021-09-05T10:47:15Z</time>
      </trkpt>
      <trkpt lat="44.04178" lon="1.98422">
        <ele>262.4</ele>
        <time>2021-09-05T10:47:16Z</time>
      </trkpt>
      <trkpt lat="44.04177" lon="1.98425">
        <ele>262.6</ele>
        <time>2021-09-05T10:47:17Z</time>
      </trkpt>
      <trkpt lat="44.04175" lon="1.98426">
        <ele>262.8</ele>
        <time>2021-09-05T10:47:18Z</time>
      </trkpt>
      <trkpt lat="44.04173" lon="1.98426">
        <ele>262.8</ele>
        <time>2021-09-05T10:47:19Z</time>
      </trkpt>
      <trkpt lat="44.04172" lon="1.98426">
        <ele>263</ele>
        <time>2021-09-05T10:47:20Z</time>
      </trkpt>
      <trkpt lat="44.0417" lon="1.98426">
        <ele>263</ele>
        <time>2021-09-05T10:47:21Z</time>
      </trkpt>
      <trkpt lat="44.04168" lon="1.98427">
        <ele>263.2</ele>
        <time>2021-09-05T10:47:22Z</time>
      </trkpt>
      <trkpt lat="44.04166" lon="1.98428">
        <ele>263.4</ele>
        <time>2021-09-05T10:47:23Z</time>
      </trkpt>
      <trkpt lat="44.04165" lon="1.98429">
        <ele>263.6</ele>
        <time>2021-09-05T10:47:24Z</time>
      </trkpt>
      <trkpt lat="44.04164" lon="1.98429">
        <ele>263.6</ele>
        <time>2021-09-05T10:47:25Z</time>
      </trkpt>
      <trkpt lat="44.04163" lon="1.9843">
        <ele>263.6</ele>
        <time>2021-09-05T10:47:26Z</time>
      </trkpt>
      <trkpt lat="44.04161" lon="1.98431">
        <ele>264</ele>
        <time>2021-09-05T10:47:27Z</time>
      </trkpt>
      <trkpt lat="44.0416" lon="1.98432">
        <ele>264</ele>
        <time>2021-09-05T10:47:28Z</time>
      </trkpt>
      <trkpt lat="44.04158" lon="1.98432">
        <ele>264.2</ele>
        <time>2021-09-05T10:47:29Z</time>
      </trkpt>
      <trkpt lat="44.04157" lon="1.98433">
        <ele>264.4</ele>
        <time>2021-09-05T10:47:30Z</time>
      </trkpt>
      <trkpt lat="44.04156" lon="1.98433">
        <ele>264.6</ele>
        <time>2021-09-05T10:47:31Z</time>
      </trkpt>
      <trkpt lat="44.04154" lon="1.98433">
        <ele>264.6</ele>
        <time>2021-09-05T10:47:32Z</time>
      </trkpt>
      <trkpt lat="44.04153" lon="1.98434">
        <ele>264.8</ele>
        <time>2021-09-05T10:47:33Z</time>
      </trkpt>
      <trkpt lat="44.04152" lon="1.98434">
        <ele>264.8</ele>
        <time>2021-09-05T10:47:34Z</time>
      </trkpt>
      <trkpt lat="44.0415" lon="1.98435">
        <ele>264.8</ele>
        <time>2021-09-05T10:47:35Z</time>
      </trkpt>
      <trkpt lat="44.04148" lon="1.98436">
        <ele>265</ele>
        <time>2021-09-05T10:47:36Z</time>
      </trkpt>
      <trkpt lat="44.04146" lon="1.98437">
        <ele>265</ele>
        <time>2021-09-05T10:47:37Z</time>
      </trkpt>
      <trkpt lat="44.04145" lon="1.98439">
        <ele>265.2</ele>
        <time>2021-09-05T10:47:38Z</time>
      </trkpt>
      <trkpt lat="44.04143" lon="1.9844">
        <ele>265.2</ele>
        <time>2021-09-05T10:47:39Z</time>
      </trkpt>
      <trkpt lat="44.04142" lon="1.9844">
        <ele>265.6</ele>
        <time>2021-09-05T10:47:40Z</time>
      </trkpt>
      <trkpt lat="44.0414" lon="1.98441">
        <ele>265.6</ele>
        <time>2021-09-05T10:47:41Z</time>
      </trkpt>
      <trkpt lat="44.04139" lon="1.98441">
        <ele>265.8</ele>
        <time>2021-09-05T10:47:42Z</time>
      </trkpt>
      <trkpt lat="44.04138" lon="1.98441">
        <ele>266</ele>
        <time>2021-09-05T10:47:43Z</time>
      </trkpt>
      <trkpt lat="44.04137" lon="1.98441">
        <ele>266</ele>
        <time>2021-09-05T10:47:44Z</time>
      </trkpt>
      <trkpt lat="44.04135" lon="1.98441">
        <ele>266.2</ele>
        <time>2021-09-05T10:47:45Z</time>
      </trkpt>
      <trkpt lat="44.04133" lon="1.98441">
        <ele>266.4</ele>
        <time>2021-09-05T10:47:46Z</time>
      </trkpt>
      <trkpt lat="44.0413" lon="1.98442">
        <ele>266.6</ele>
        <time>2021-09-05T10:47:47Z</time>
      </trkpt>
      <trkpt lat="44.04128" lon="1.98442">
        <ele>266.6</ele>
        <time>2021-09-05T10:47:48Z</time>
      </trkpt>
      <trkpt lat="44.04126" lon="1.98443">
        <ele>266.8</ele>
        <time>2021-09-05T10:47:49Z</time>
      </trkpt>
      <trkpt lat="44.04124" lon="1.98443">
        <ele>266.8</ele>
        <time>2021-09-05T10:47:50Z</time>
      </trkpt>
      <trkpt lat="44.04123" lon="1.98443">
        <ele>267</ele>
        <time>2021-09-05T10:47:51Z</time>
      </trkpt>
      <trkpt lat="44.04121" lon="1.98443">
        <ele>267.2</ele>
        <time>2021-09-05T10:47:52Z</time>
      </trkpt>
      <trkpt lat="44.04119" lon="1.98443">
        <ele>267.4</ele>
        <time>2021-09-05T10:47:53Z</time>
      </trkpt>
      <trkpt lat="44.04118" lon="1.98442">
        <ele>267.6</ele>
        <time>2021-09-05T10:47:54Z</time>
      </trkpt>
      <trkpt lat="44.04116" lon="1.98441">
        <ele>267.8</ele>
        <time>2021-09-05T10:47:55Z</time>
      </trkpt>
      <trkpt lat="44.04114" lon="1.98441">
        <ele>268.2</ele>
        <time>2021-09-05T10:47:56Z</time>
      </trkpt>
      <trkpt lat="44.04113" lon="1.9844">
        <ele>268.2</ele>
        <time>2021-09-05T10:47:57Z</time>
      </trkpt>
      <trkpt lat="44.0411" lon="1.98439">
        <ele>268.6</ele>
        <time>2021-09-05T10:47:58Z</time>
      </trkpt>
      <trkpt lat="44.04107" lon="1.98438">
        <ele>269</ele>
        <time>2021-09-05T10:47:59Z</time>
      </trkpt>
      <trkpt lat="44.04105" lon="1.98437">
        <ele>269</ele>
        <time>2021-09-05T10:48:00Z</time>
      </trkpt>
      <trkpt lat="44.04102" lon="1.98436">
        <ele>269.4</ele>
        <time>2021-09-05T10:48:01Z</time>
      </trkpt>
      <trkpt lat="44.04099" lon="1.98436">
        <ele>269.6</ele>
        <time>2021-09-05T10:48:02Z</time>
      </trkpt>
      <trkpt lat="44.04096" lon="1.98435">
        <ele>269.8</ele>
        <time>2021-09-05T10:48:03Z</time>
      </trkpt>
      <trkpt lat="44.04093" lon="1.98433">
        <ele>270</ele>
        <time>2021-09-05T10:48:04Z</time>
      </trkpt>
      <trkpt lat="44.04091" lon="1.98432">
        <ele>270.4</ele>
        <time>2021-09-05T10:48:05Z</time>
      </trkpt>
      <trkpt lat="44.04089" lon="1.98433">
        <ele>270.4</ele>
        <time>2021-09-05T10:48:06Z</time>
      </trkpt>
      <trkpt lat="44.04087" lon="1.98434">
        <ele>270.6</ele>
        <time>2021-09-05T10:48:07Z</time>
      </trkpt>
      <trkpt lat="44.04086" lon="1.98435">
        <ele>270.8</ele>
        <time>2021-09-05T10:48:08Z</time>
      </trkpt>
      <trkpt lat="44.04083" lon="1.98436">
        <ele>271</ele>
        <time>2021-09-05T10:48:09Z</time>
      </trkpt>
      <trkpt lat="44.04081" lon="1.98436">
        <ele>271.4</ele>
        <time>2021-09-05T10:48:10Z</time>
      </trkpt>
      <trkpt lat="44.04078" lon="1.98436">
        <ele>271.6</ele>
        <time>2021-09-05T10:48:11Z</time>
      </trkpt>
      <trkpt lat="44.04076" lon="1.98437">
        <ele>271.8</ele>
        <time>2021-09-05T10:48:12Z</time>
      </trkpt>
      <trkpt lat="44.04073" lon="1.98435">
        <ele>272</ele>
        <time>2021-09-05T10:48:13Z</time>
      </trkpt>
      <trkpt lat="44.04072" lon="1.98435">
        <ele>272.2</ele>
        <time>2021-09-05T10:48:14Z</time>
      </trkpt>
      <trkpt lat="44.0407" lon="1.98436">
        <ele>272.4</ele>
        <time>2021-09-05T10:48:15Z</time>
      </trkpt>
      <trkpt lat="44.04069" lon="1.98436">
        <ele>272.4</ele>
        <time>2021-09-05T10:48:16Z</time>
      </trkpt>
      <trkpt lat="44.04068" lon="1.98437">
        <ele>272.6</ele>
        <time>2021-09-05T10:48:17Z</time>
      </trkpt>
      <trkpt lat="44.04068" lon="1.98441">
        <ele>272.6</ele>
        <time>2021-09-05T10:48:18Z</time>
      </trkpt>
      <trkpt lat="44.04067" lon="1.98442">
        <ele>272.8</ele>
        <time>2021-09-05T10:48:19Z</time>
      </trkpt>
      <trkpt lat="44.04066" lon="1.98441">
        <ele>272.8</ele>
        <time>2021-09-05T10:48:20Z</time>
      </trkpt>
      <trkpt lat="44.04066" lon="1.9844">
        <ele>273</ele>
        <time>2021-09-05T10:48:21Z</time>
      </trkpt>
      <trkpt lat="44.04064" lon="1.98439">
        <ele>273.2</ele>
        <time>2021-09-05T10:48:22Z</time>
      </trkpt>
      <trkpt lat="44.04063" lon="1.98438">
        <ele>273.4</ele>
        <time>2021-09-05T10:48:23Z</time>
      </trkpt>
      <trkpt lat="44.04062" lon="1.98437">
        <ele>273.6</ele>
        <time>2021-09-05T10:48:24Z</time>
      </trkpt>
      <trkpt lat="44.04061" lon="1.98437">
        <ele>273.8</ele>
        <time>2021-09-05T10:48:25Z</time>
      </trkpt>
      <trkpt lat="44.0406" lon="1.98437">
        <ele>274</ele>
        <time>2021-09-05T10:48:26Z</time>
      </trkpt>
      <trkpt lat="44.04058" lon="1.98437">
        <ele>274.2</ele>
        <time>2021-09-05T10:48:27Z</time>
      </trkpt>
      <trkpt lat="44.04057" lon="1.98437">
        <ele>274.4</ele>
        <time>2021-09-05T10:48:28Z</time>
      </trkpt>
      <trkpt lat="44.04056" lon="1.98437">
        <ele>274.4</ele>
        <time>2021-09-05T10:48:29Z</time>
      </trkpt>
      <trkpt lat="44.04054" lon="1.98438">
        <ele>274.6</ele>
        <time>2021-09-05T10:48:30Z</time>
      </trkpt>
      <trkpt lat="44.04053" lon="1.98438">
        <ele>274.8</ele>
        <time>2021-09-05T10:48:31Z</time>
      </trkpt>
      <trkpt lat="44.04052" lon="1.98438">
        <ele>274.8</ele>
        <time>2021-09-05T10:48:32Z</time>
      </trkpt>
      <trkpt lat="44.0405" lon="1.98438">
        <ele>275</ele>
        <time>2021-09-05T10:48:33Z</time>
      </trkpt>
      <trkpt lat="44.04049" lon="1.98437">
        <ele>275</ele>
        <time>2021-09-05T10:48:34Z</time>
      </trkpt>
      <trkpt lat="44.04048" lon="1.98437">
        <ele>275.2</ele>
        <time>2021-09-05T10:48:35Z</time>
      </trkpt>
      <trkpt lat="44.04046" lon="1.98436">
        <ele>275.2</ele>
        <time>2021-09-05T10:48:36Z</time>
      </trkpt>
      <trkpt lat="44.04045" lon="1.98435">
        <ele>275.4</ele>
        <time>2021-09-05T10:48:37Z</time>
      </trkpt>
      <trkpt lat="44.04044" lon="1.98435">
        <ele>275.6</ele>
        <time>2021-09-05T10:48:38Z</time>
      </trkpt>
      <trkpt lat="44.04043" lon="1.98434">
        <ele>275.8</ele>
        <time>2021-09-05T10:48:39Z</time>
      </trkpt>
      <trkpt lat="44.04041" lon="1.98434">
        <ele>276.2</ele>
        <time>2021-09-05T10:48:40Z</time>
      </trkpt>
      <trkpt lat="44.0404" lon="1.98434">
        <ele>276.2</ele>
        <time>2021-09-05T10:48:41Z</time>
      </trkpt>
      <trkpt lat="44.04039" lon="1.98434">
        <ele>276.4</ele>
        <time>2021-09-05T10:48:42Z</time>
      </trkpt>
      <trkpt lat="44.04038" lon="1.98434">
        <ele>276.6</ele>
        <time>2021-09-05T10:48:43Z</time>
      </trkpt>
      <trkpt lat="44.04037" lon="1.98434">
        <ele>276.6</ele>
        <time>2021-09-05T10:48:44Z</time>
      </trkpt>
      <trkpt lat="44.04036" lon="1.98433">
        <ele>276.8</ele>
        <time>2021-09-05T10:48:45Z</time>
      </trkpt>
      <trkpt lat="44.04034" lon="1.98432">
        <ele>276.8</ele>
        <time>2021-09-05T10:48:46Z</time>
      </trkpt>
      <trkpt lat="44.04032" lon="1.98431">
        <ele>277</ele>
        <time>2021-09-05T10:48:47Z</time>
      </trkpt>
      <trkpt lat="44.04031" lon="1.9843">
        <ele>277.2</ele>
        <time>2021-09-05T10:48:48Z</time>
      </trkpt>
      <trkpt lat="44.04029" lon="1.98429">
        <ele>277.4</ele>
        <time>2021-09-05T10:48:49Z</time>
      </trkpt>
      <trkpt lat="44.04028" lon="1.98429">
        <ele>277.6</ele>
        <time>2021-09-05T10:48:50Z</time>
      </trkpt>
      <trkpt lat="44.04027" lon="1.98429">
        <ele>278</ele>
        <time>2021-09-05T10:48:51Z</time>
      </trkpt>
      <trkpt lat="44.04025" lon="1.98429">
        <ele>278.2</ele>
        <time>2021-09-05T10:48:52Z</time>
      </trkpt>
      <trkpt lat="44.04024" lon="1.98428">
        <ele>278.4</ele>
        <time>2021-09-05T10:48:53Z</time>
      </trkpt>
      <trkpt lat="44.04023" lon="1.98428">
        <ele>278.6</ele>
        <time>2021-09-05T10:48:54Z</time>
      </trkpt>
      <trkpt lat="44.04021" lon="1.98427">
        <ele>279</ele>
        <time>2021-09-05T10:48:55Z</time>
      </trkpt>
      <trkpt lat="44.04019" lon="1.98428">
        <ele>279.2</ele>
        <time>2021-09-05T10:48:56Z</time>
      </trkpt>
      <trkpt lat="44.04018" lon="1.98427">
        <ele>279.4</ele>
        <time>2021-09-05T10:48:57Z</time>
      </trkpt>
      <trkpt lat="44.04017" lon="1.98427">
        <ele>279.8</ele>
        <time>2021-09-05T10:48:58Z</time>
      </trkpt>
      <trkpt lat="44.04015" lon="1.98426">
        <ele>279.8</ele>
        <time>2021-09-05T10:48:59Z</time>
      </trkpt>
      <trkpt lat="44.04014" lon="1.98426">
        <ele>280.4</ele>
        <time>2021-09-05T10:49:00Z</time>
      </trkpt>
      <trkpt lat="44.04012" lon="1.98425">
        <ele>280.6</ele>
        <time>2021-09-05T10:49:01Z</time>
      </trkpt>
      <trkpt lat="44.0401" lon="1.98425">
        <ele>281</ele>
        <time>2021-09-05T10:49:02Z</time>
      </trkpt>
      <trkpt lat="44.04009" lon="1.98425">
        <ele>281.2</ele>
        <time>2021-09-05T10:49:03Z</time>
      </trkpt>
      <trkpt lat="44.04007" lon="1.98424">
        <ele>281.2</ele>
        <time>2021-09-05T10:49:04Z</time>
      </trkpt>
      <trkpt lat="44.04006" lon="1.98424">
        <ele>281.6</ele>
        <time>2021-09-05T10:49:05Z</time>
      </trkpt>
      <trkpt lat="44.04004" lon="1.98425">
        <ele>281.8</ele>
        <time>2021-09-05T10:49:06Z</time>
      </trkpt>
      <trkpt lat="44.04003" lon="1.98425">
        <ele>282</ele>
        <time>2021-09-05T10:49:07Z</time>
      </trkpt>
      <trkpt lat="44.04001" lon="1.98425">
        <ele>282.2</ele>
        <time>2021-09-05T10:49:08Z</time>
      </trkpt>
      <trkpt lat="44.03999" lon="1.98426">
        <ele>282.6</ele>
        <time>2021-09-05T10:49:09Z</time>
      </trkpt>
      <trkpt lat="44.03998" lon="1.98426">
        <ele>282.6</ele>
        <time>2021-09-05T10:49:10Z</time>
      </trkpt>
      <trkpt lat="44.03996" lon="1.98426">
        <ele>282.8</ele>
        <time>2021-09-05T10:49:11Z</time>
      </trkpt>
      <trkpt lat="44.03994" lon="1.98426">
        <ele>282.8</ele>
        <time>2021-09-05T10:49:12Z</time>
      </trkpt>
      <trkpt lat="44.03993" lon="1.98427">
        <ele>283</ele>
        <time>2021-09-05T10:49:13Z</time>
      </trkpt>
      <trkpt lat="44.03991" lon="1.98427">
        <ele>283.2</ele>
        <time>2021-09-05T10:49:14Z</time>
      </trkpt>
      <trkpt lat="44.0399" lon="1.98427">
        <ele>283.4</ele>
        <time>2021-09-05T10:49:15Z</time>
      </trkpt>
      <trkpt lat="44.03988" lon="1.98428">
        <ele>283.6</ele>
        <time>2021-09-05T10:49:16Z</time>
      </trkpt>
      <trkpt lat="44.03987" lon="1.98428">
        <ele>283.6</ele>
        <time>2021-09-05T10:49:17Z</time>
      </trkpt>
      <trkpt lat="44.03986" lon="1.98429">
        <ele>283.8</ele>
        <time>2021-09-05T10:49:18Z</time>
      </trkpt>
      <trkpt lat="44.03985" lon="1.98429">
        <ele>284</ele>
        <time>2021-09-05T10:49:19Z</time>
      </trkpt>
      <trkpt lat="44.03983" lon="1.98429">
        <ele>284</ele>
        <time>2021-09-05T10:49:20Z</time>
      </trkpt>
      <trkpt lat="44.03982" lon="1.98429">
        <ele>284.2</ele>
        <time>2021-09-05T10:49:21Z</time>
      </trkpt>
      <trkpt lat="44.0398" lon="1.9843">
        <ele>284.4</ele>
        <time>2021-09-05T10:49:22Z</time>
      </trkpt>
      <trkpt lat="44.03979" lon="1.9843">
        <ele>284.6</ele>
        <time>2021-09-05T10:49:23Z</time>
      </trkpt>
      <trkpt lat="44.03978" lon="1.98431">
        <ele>284.6</ele>
        <time>2021-09-05T10:49:24Z</time>
      </trkpt>
      <trkpt lat="44.03976" lon="1.98431">
        <ele>284.8</ele>
        <time>2021-09-05T10:49:25Z</time>
      </trkpt>
      <trkpt lat="44.03975" lon="1.98431">
        <ele>284.8</ele>
        <time>2021-09-05T10:49:26Z</time>
      </trkpt>
      <trkpt lat="44.03974" lon="1.98431">
        <ele>285.2</ele>
        <time>2021-09-05T10:49:27Z</time>
      </trkpt>
      <trkpt lat="44.03972" lon="1.98432">
        <ele>285.4</ele>
        <time>2021-09-05T10:49:28Z</time>
      </trkpt>
      <trkpt lat="44.03971" lon="1.98432">
        <ele>285.6</ele>
        <time>2021-09-05T10:49:29Z</time>
      </trkpt>
      <trkpt lat="44.03969" lon="1.98432">
        <ele>285.8</ele>
        <time>2021-09-05T10:49:30Z</time>
      </trkpt>
      <trkpt lat="44.03968" lon="1.98432">
        <ele>286</ele>
        <time>2021-09-05T10:49:31Z</time>
      </trkpt>
      <trkpt lat="44.03967" lon="1.98432">
        <ele>286.2</ele>
        <time>2021-09-05T10:49:32Z</time>
      </trkpt>
      <trkpt lat="44.03966" lon="1.98432">
        <ele>286.2</ele>
        <time>2021-09-05T10:49:33Z</time>
      </trkpt>
      <trkpt lat="44.03964" lon="1.98432">
        <ele>286.6</ele>
        <time>2021-09-05T10:49:34Z</time>
      </trkpt>
      <trkpt lat="44.03963" lon="1.98432">
        <ele>286.8</ele>
        <time>2021-09-05T10:49:35Z</time>
      </trkpt>
      <trkpt lat="44.03962" lon="1.98433">
        <ele>286.8</ele>
        <time>2021-09-05T10:49:36Z</time>
      </trkpt>
      <trkpt lat="44.03961" lon="1.98433">
        <ele>287</ele>
        <time>2021-09-05T10:49:37Z</time>
      </trkpt>
      <trkpt lat="44.0396" lon="1.98434">
        <ele>287.2</ele>
        <time>2021-09-05T10:49:38Z</time>
      </trkpt>
      <trkpt lat="44.03959" lon="1.98434">
        <ele>287.4</ele>
        <time>2021-09-05T10:49:39Z</time>
      </trkpt>
      <trkpt lat="44.03957" lon="1.98434">
        <ele>287.6</ele>
        <time>2021-09-05T10:49:40Z</time>
      </trkpt>
      <trkpt lat="44.03956" lon="1.98435">
        <ele>288</ele>
        <time>2021-09-05T10:49:41Z</time>
      </trkpt>
      <trkpt lat="44.03955" lon="1.98435">
        <ele>288</ele>
        <time>2021-09-05T10:49:42Z</time>
      </trkpt>
      <trkpt lat="44.03954" lon="1.98436">
        <ele>288.2</ele>
        <time>2021-09-05T10:49:43Z</time>
      </trkpt>
      <trkpt lat="44.03953" lon="1.98437">
        <ele>288.4</ele>
        <time>2021-09-05T10:49:44Z</time>
      </trkpt>
      <trkpt lat="44.03952" lon="1.98438">
        <ele>288.4</ele>
        <time>2021-09-05T10:49:45Z</time>
      </trkpt>
      <trkpt lat="44.03951" lon="1.98439">
        <ele>288.8</ele>
        <time>2021-09-05T10:49:46Z</time>
      </trkpt>
      <trkpt lat="44.03949" lon="1.9844">
        <ele>289</ele>
        <time>2021-09-05T10:49:47Z</time>
      </trkpt>
      <trkpt lat="44.03947" lon="1.98441">
        <ele>289.2</ele>
        <time>2021-09-05T10:49:48Z</time>
      </trkpt>
      <trkpt lat="44.03946" lon="1.98443">
        <ele>289.4</ele>
        <time>2021-09-05T10:49:49Z</time>
      </trkpt>
      <trkpt lat="44.03945" lon="1.98445">
        <ele>289.8</ele>
        <time>2021-09-05T10:49:50Z</time>
      </trkpt>
      <trkpt lat="44.03943" lon="1.98447">
        <ele>289.8</ele>
        <time>2021-09-05T10:49:51Z</time>
      </trkpt>
      <trkpt lat="44.03942" lon="1.98449">
        <ele>290.2</ele>
        <time>2021-09-05T10:49:52Z</time>
      </trkpt>
      <trkpt lat="44.03941" lon="1.98452">
        <ele>290.6</ele>
        <time>2021-09-05T10:49:53Z</time>
      </trkpt>
      <trkpt lat="44.0394" lon="1.98455">
        <ele>290.6</ele>
        <time>2021-09-05T10:49:54Z</time>
      </trkpt>
      <trkpt lat="44.0394" lon="1.98458">
        <ele>291.2</ele>
        <time>2021-09-05T10:49:55Z</time>
      </trkpt>
      <trkpt lat="44.03939" lon="1.98461">
        <ele>291.4</ele>
        <time>2021-09-05T10:49:56Z</time>
      </trkpt>
      <trkpt lat="44.0394" lon="1.98464">
        <ele>292</ele>
        <time>2021-09-05T10:49:57Z</time>
      </trkpt>
      <trkpt lat="44.0394" lon="1.98468">
        <ele>292.2</ele>
        <time>2021-09-05T10:49:58Z</time>
      </trkpt>
      <trkpt lat="44.03941" lon="1.9847">
        <ele>292.6</ele>
        <time>2021-09-05T10:49:59Z</time>
      </trkpt>
      <trkpt lat="44.03941" lon="1.98472">
        <ele>293</ele>
        <time>2021-09-05T10:50:00Z</time>
      </trkpt>
      <trkpt lat="44.03942" lon="1.98476">
        <ele>293.2</ele>
        <time>2021-09-05T10:50:01Z</time>
      </trkpt>
      <trkpt lat="44.03942" lon="1.98479">
        <ele>293.6</ele>
        <time>2021-09-05T10:50:02Z</time>
      </trkpt>
      <trkpt lat="44.03944" lon="1.98482">
        <ele>294</ele>
        <time>2021-09-05T10:50:03Z</time>
      </trkpt>
      <trkpt lat="44.03944" lon="1.98485">
        <ele>294.6</ele>
        <time>2021-09-05T10:50:04Z</time>
      </trkpt>
      <trkpt lat="44.03945" lon="1.98487">
        <ele>294.8</ele>
        <time>2021-09-05T10:50:05Z</time>
      </trkpt>
      <trkpt lat="44.03945" lon="1.98489">
        <ele>295.2</ele>
        <time>2021-09-05T10:50:06Z</time>
      </trkpt>
      <trkpt lat="44.03946" lon="1.98491">
        <ele>295.6</ele>
        <time>2021-09-05T10:50:07Z</time>
      </trkpt>
      <trkpt lat="44.03945" lon="1.98493">
        <ele>295.8</ele>
        <time>2021-09-05T10:50:08Z</time>
      </trkpt>
      <trkpt lat="44.03945" lon="1.98493">
        <ele>296</ele>
        <time>2021-09-05T10:50:09Z</time>
      </trkpt>
      <trkpt lat="44.03946" lon="1.98494">
        <ele>296</ele>
        <time>2021-09-05T10:50:10Z</time>
      </trkpt>
      <trkpt lat="44.03946" lon="1.98495">
        <ele>297</ele>
        <time>2021-09-05T10:52:42Z</time>
      </trkpt>
      <trkpt lat="44.03946" lon="1.98495">
        <ele>297</ele>
        <time>2021-09-05T10:52:43Z</time>
      </trkpt>
      <trkpt lat="44.03948" lon="1.98499">
        <ele>297</ele>
        <time>2021-09-05T10:52:45Z</time>
      </trkpt>
      <trkpt lat="44.03951" lon="1.98505">
        <ele>297</ele>
        <time>2021-09-05T10:52:46Z</time>
      </trkpt>
      <trkpt lat="44.03953" lon="1.9851">
        <ele>297</ele>
        <time>2021-09-05T10:52:47Z</time>
      </trkpt>
      <trkpt lat="44.03956" lon="1.98514">
        <ele>297</ele>
        <time>2021-09-05T10:52:48Z</time>
      </trkpt>
      <trkpt lat="44.03957" lon="1.98517">
        <ele>297</ele>
        <time>2021-09-05T10:52:49Z</time>
      </trkpt>
      <trkpt lat="44.03969" lon="1.98534">
        <ele>297</ele>
        <time>2021-09-05T10:52:54Z</time>
      </trkpt>
      <trkpt lat="44.03972" lon="1.98537">
        <ele>297</ele>
        <time>2021-09-05T10:52:55Z</time>
      </trkpt>
      <trkpt lat="44.03988" lon="1.98551">
        <ele>296.4</ele>
        <time>2021-09-05T10:52:59Z</time>
      </trkpt>
      <trkpt lat="44.04012" lon="1.98577">
        <ele>295.6</ele>
        <time>2021-09-05T10:53:04Z</time>
      </trkpt>
      <trkpt lat="44.04017" lon="1.98583">
        <ele>295.2</ele>
        <time>2021-09-05T10:53:05Z</time>
      </trkpt>
      <trkpt lat="44.04023" lon="1.98587">
        <ele>295</ele>
        <time>2021-09-05T10:53:06Z</time>
      </trkpt>
      <trkpt lat="44.04031" lon="1.98591">
        <ele>294.4</ele>
        <time>2021-09-05T10:53:07Z</time>
      </trkpt>
      <trkpt lat="44.04038" lon="1.98593">
        <ele>294.2</ele>
        <time>2021-09-05T10:53:08Z</time>
      </trkpt>
      <trkpt lat="44.04045" lon="1.98593">
        <ele>293.6</ele>
        <time>2021-09-05T10:53:09Z</time>
      </trkpt>
      <trkpt lat="44.04051" lon="1.98592">
        <ele>293.2</ele>
        <time>2021-09-05T10:53:10Z</time>
      </trkpt>
      <trkpt lat="44.04058" lon="1.9859">
        <ele>293</ele>
        <time>2021-09-05T10:53:11Z</time>
      </trkpt>
      <trkpt lat="44.04066" lon="1.98588">
        <ele>292.8</ele>
        <time>2021-09-05T10:53:12Z</time>
      </trkpt>
      <trkpt lat="44.04073" lon="1.98587">
        <ele>292.6</ele>
        <time>2021-09-05T10:53:13Z</time>
      </trkpt>
      <trkpt lat="44.04078" lon="1.98586">
        <ele>292.4</ele>
        <time>2021-09-05T10:53:14Z</time>
      </trkpt>
      <trkpt lat="44.04085" lon="1.98586">
        <ele>292.4</ele>
        <time>2021-09-05T10:53:15Z</time>
      </trkpt>
      <trkpt lat="44.04091" lon="1.98585">
        <ele>292.2</ele>
        <time>2021-09-05T10:53:16Z</time>
      </trkpt>
      <trkpt lat="44.04096" lon="1.98584">
        <ele>292.2</ele>
        <time>2021-09-05T10:53:17Z</time>
      </trkpt>
      <trkpt lat="44.04102" lon="1.98584">
        <ele>292.2</ele>
        <time>2021-09-05T10:53:18Z</time>
      </trkpt>
      <trkpt lat="44.04107" lon="1.98584">
        <ele>292.2</ele>
        <time>2021-09-05T10:53:19Z</time>
      </trkpt>
      <trkpt lat="44.04111" lon="1.98583">
        <ele>292.2</ele>
        <time>2021-09-05T10:53:20Z</time>
      </trkpt>
      <trkpt lat="44.04115" lon="1.98582">
        <ele>292.2</ele>
        <time>2021-09-05T10:53:21Z</time>
      </trkpt>
      <trkpt lat="44.0412" lon="1.9858">
        <ele>292.2</ele>
        <time>2021-09-05T10:53:22Z</time>
      </trkpt>
      <trkpt lat="44.04124" lon="1.98579">
        <ele>292.4</ele>
        <time>2021-09-05T10:53:23Z</time>
      </trkpt>
      <trkpt lat="44.04128" lon="1.98578">
        <ele>292.4</ele>
        <time>2021-09-05T10:53:24Z</time>
      </trkpt>
      <trkpt lat="44.04132" lon="1.98577">
        <ele>292.4</ele>
        <time>2021-09-05T10:53:25Z</time>
      </trkpt>
      <trkpt lat="44.04136" lon="1.98576">
        <ele>292.6</ele>
        <time>2021-09-05T10:53:26Z</time>
      </trkpt>
      <trkpt lat="44.04139" lon="1.98575">
        <ele>292.8</ele>
        <time>2021-09-05T10:53:27Z</time>
      </trkpt>
      <trkpt lat="44.04143" lon="1.98574">
        <ele>292.8</ele>
        <time>2021-09-05T10:53:28Z</time>
      </trkpt>
      <trkpt lat="44.04147" lon="1.98573">
        <ele>293</ele>
        <time>2021-09-05T10:53:29Z</time>
      </trkpt>
      <trkpt lat="44.0415" lon="1.98572">
        <ele>293.2</ele>
        <time>2021-09-05T10:53:30Z</time>
      </trkpt>
      <trkpt lat="44.04153" lon="1.9857">
        <ele>293.4</ele>
        <time>2021-09-05T10:53:31Z</time>
      </trkpt>
      <trkpt lat="44.04156" lon="1.98569">
        <ele>294</ele>
        <time>2021-09-05T10:53:32Z</time>
      </trkpt>
      <trkpt lat="44.0416" lon="1.98568">
        <ele>294.2</ele>
        <time>2021-09-05T10:53:33Z</time>
      </trkpt>
      <trkpt lat="44.04163" lon="1.98567">
        <ele>294.6</ele>
        <time>2021-09-05T10:53:34Z</time>
      </trkpt>
      <trkpt lat="44.04166" lon="1.98566">
        <ele>294.8</ele>
        <time>2021-09-05T10:53:35Z</time>
      </trkpt>
      <trkpt lat="44.04174" lon="1.98565">
        <ele>295.4</ele>
        <time>2021-09-05T10:53:37Z</time>
      </trkpt>
      <trkpt lat="44.04177" lon="1.98564">
        <ele>295.6</ele>
        <time>2021-09-05T10:53:38Z</time>
      </trkpt>
      <trkpt lat="44.04186" lon="1.98564">
        <ele>296.2</ele>
        <time>2021-09-05T10:53:40Z</time>
      </trkpt>
      <trkpt lat="44.0419" lon="1.98563">
        <ele>296.8</ele>
        <time>2021-09-05T10:53:41Z</time>
      </trkpt>
      <trkpt lat="44.04198" lon="1.98563">
        <ele>297.6</ele>
        <time>2021-09-05T10:53:43Z</time>
      </trkpt>
      <trkpt lat="44.04202" lon="1.98563">
        <ele>297.8</ele>
        <time>2021-09-05T10:53:44Z</time>
      </trkpt>
      <trkpt lat="44.04205" lon="1.98563">
        <ele>298</ele>
        <time>2021-09-05T10:53:45Z</time>
      </trkpt>
      <trkpt lat="44.04209" lon="1.98562">
        <ele>298.4</ele>
        <time>2021-09-05T10:53:46Z</time>
      </trkpt>
      <trkpt lat="44.04212" lon="1.98562">
        <ele>298.6</ele>
        <time>2021-09-05T10:53:47Z</time>
      </trkpt>
      <trkpt lat="44.04216" lon="1.98561">
        <ele>299</ele>
        <time>2021-09-05T10:53:48Z</time>
      </trkpt>
      <trkpt lat="44.04219" lon="1.98563">
        <ele>299.2</ele>
        <time>2021-09-05T10:53:49Z</time>
      </trkpt>
      <trkpt lat="44.04222" lon="1.98564">
        <ele>299.6</ele>
        <time>2021-09-05T10:53:50Z</time>
      </trkpt>
      <trkpt lat="44.04224" lon="1.98567">
        <ele>299.8</ele>
        <time>2021-09-05T10:53:51Z</time>
      </trkpt>
      <trkpt lat="44.04226" lon="1.98569">
        <ele>300.4</ele>
        <time>2021-09-05T10:53:52Z</time>
      </trkpt>
      <trkpt lat="44.04229" lon="1.98572">
        <ele>300.6</ele>
        <time>2021-09-05T10:53:53Z</time>
      </trkpt>
      <trkpt lat="44.04231" lon="1.98574">
        <ele>301</ele>
        <time>2021-09-05T10:53:54Z</time>
      </trkpt>
      <trkpt lat="44.04233" lon="1.98576">
        <ele>301.4</ele>
        <time>2021-09-05T10:53:55Z</time>
      </trkpt>
      <trkpt lat="44.04235" lon="1.98578">
        <ele>301.6</ele>
        <time>2021-09-05T10:53:56Z</time>
      </trkpt>
      <trkpt lat="44.04237" lon="1.98581">
        <ele>302</ele>
        <time>2021-09-05T10:53:57Z</time>
      </trkpt>
      <trkpt lat="44.04238" lon="1.98582">
        <ele>302</ele>
        <time>2021-09-05T10:53:58Z</time>
      </trkpt>
      <trkpt lat="44.0424" lon="1.98584">
        <ele>302.2</ele>
        <time>2021-09-05T10:53:59Z</time>
      </trkpt>
      <trkpt lat="44.04242" lon="1.98585">
        <ele>302.4</ele>
        <time>2021-09-05T10:54:00Z</time>
      </trkpt>
      <trkpt lat="44.04245" lon="1.98588">
        <ele>302.8</ele>
        <time>2021-09-05T10:54:01Z</time>
      </trkpt>
      <trkpt lat="44.04247" lon="1.98589">
        <ele>303</ele>
        <time>2021-09-05T10:54:02Z</time>
      </trkpt>
      <trkpt lat="44.04248" lon="1.9859">
        <ele>303</ele>
        <time>2021-09-05T10:54:03Z</time>
      </trkpt>
      <trkpt lat="44.04251" lon="1.98592">
        <ele>303.4</ele>
        <time>2021-09-05T10:54:04Z</time>
      </trkpt>
      <trkpt lat="44.04253" lon="1.98594">
        <ele>303.6</ele>
        <time>2021-09-05T10:54:05Z</time>
      </trkpt>
      <trkpt lat="44.04255" lon="1.98596">
        <ele>304</ele>
        <time>2021-09-05T10:54:06Z</time>
      </trkpt>
      <trkpt lat="44.04256" lon="1.98598">
        <ele>304.2</ele>
        <time>2021-09-05T10:54:07Z</time>
      </trkpt>
      <trkpt lat="44.04258" lon="1.98601">
        <ele>304.4</ele>
        <time>2021-09-05T10:54:08Z</time>
      </trkpt>
      <trkpt lat="44.0426" lon="1.98603">
        <ele>304.6</ele>
        <time>2021-09-05T10:54:09Z</time>
      </trkpt>
      <trkpt lat="44.04262" lon="1.98605">
        <ele>305</ele>
        <time>2021-09-05T10:54:10Z</time>
      </trkpt>
      <trkpt lat="44.04264" lon="1.98607">
        <ele>305.2</ele>
        <time>2021-09-05T10:54:11Z</time>
      </trkpt>
      <trkpt lat="44.04266" lon="1.98609">
        <ele>305.2</ele>
        <time>2021-09-05T10:54:12Z</time>
      </trkpt>
      <trkpt lat="44.04268" lon="1.98611">
        <ele>305.8</ele>
        <time>2021-09-05T10:54:13Z</time>
      </trkpt>
      <trkpt lat="44.0427" lon="1.98613">
        <ele>306</ele>
        <time>2021-09-05T10:54:14Z</time>
      </trkpt>
      <trkpt lat="44.04273" lon="1.98615">
        <ele>306.2</ele>
        <time>2021-09-05T10:54:15Z</time>
      </trkpt>
      <trkpt lat="44.04275" lon="1.98618">
        <ele>306.2</ele>
        <time>2021-09-05T10:54:16Z</time>
      </trkpt>
      <trkpt lat="44.04277" lon="1.9862">
        <ele>306.4</ele>
        <time>2021-09-05T10:54:17Z</time>
      </trkpt>
      <trkpt lat="44.04279" lon="1.98622">
        <ele>306.4</ele>
        <time>2021-09-05T10:54:18Z</time>
      </trkpt>
      <trkpt lat="44.04281" lon="1.98624">
        <ele>306.4</ele>
        <time>2021-09-05T10:54:19Z</time>
      </trkpt>
      <trkpt lat="44.04283" lon="1.98626">
        <ele>306.6</ele>
        <time>2021-09-05T10:54:20Z</time>
      </trkpt>
      <trkpt lat="44.04286" lon="1.98628">
        <ele>306.6</ele>
        <time>2021-09-05T10:54:21Z</time>
      </trkpt>
      <trkpt lat="44.04288" lon="1.9863">
        <ele>307</ele>
        <time>2021-09-05T10:54:22Z</time>
      </trkpt>
      <trkpt lat="44.0429" lon="1.98632">
        <ele>307.2</ele>
        <time>2021-09-05T10:54:23Z</time>
      </trkpt>
      <trkpt lat="44.04292" lon="1.98634">
        <ele>307.4</ele>
        <time>2021-09-05T10:54:24Z</time>
      </trkpt>
      <trkpt lat="44.04294" lon="1.98637">
        <ele>307.4</ele>
        <time>2021-09-05T10:54:25Z</time>
      </trkpt>
      <trkpt lat="44.04296" lon="1.98639">
        <ele>307.6</ele>
        <time>2021-09-05T10:54:26Z</time>
      </trkpt>
      <trkpt lat="44.04298" lon="1.98641">
        <ele>307.8</ele>
        <time>2021-09-05T10:54:27Z</time>
      </trkpt>
      <trkpt lat="44.043" lon="1.98643">
        <ele>307.8</ele>
        <time>2021-09-05T10:54:28Z</time>
      </trkpt>
      <trkpt lat="44.04302" lon="1.98646">
        <ele>308</ele>
        <time>2021-09-05T10:54:29Z</time>
      </trkpt>
      <trkpt lat="44.04304" lon="1.98648">
        <ele>308</ele>
        <time>2021-09-05T10:54:30Z</time>
      </trkpt>
      <trkpt lat="44.04306" lon="1.98651">
        <ele>308</ele>
        <time>2021-09-05T10:54:31Z</time>
      </trkpt>
      <trkpt lat="44.04308" lon="1.98653">
        <ele>308</ele>
        <time>2021-09-05T10:54:32Z</time>
      </trkpt>
      <trkpt lat="44.04311" lon="1.98656">
        <ele>308.2</ele>
        <time>2021-09-05T10:54:33Z</time>
      </trkpt>
      <trkpt lat="44.04313" lon="1.98659">
        <ele>308.2</ele>
        <time>2021-09-05T10:54:34Z</time>
      </trkpt>
      <trkpt lat="44.04316" lon="1.98662">
        <ele>308.2</ele>
        <time>2021-09-05T10:54:35Z</time>
      </trkpt>
      <trkpt lat="44.04318" lon="1.98666">
        <ele>308.2</ele>
        <time>2021-09-05T10:54:36Z</time>
      </trkpt>
      <trkpt lat="44.0432" lon="1.98669">
        <ele>308.2</ele>
        <time>2021-09-05T10:54:37Z</time>
      </trkpt>
      <trkpt lat="44.04322" lon="1.98673">
        <ele>308.2</ele>
        <time>2021-09-05T10:54:38Z</time>
      </trkpt>
      <trkpt lat="44.04324" lon="1.98677">
        <ele>308.2</ele>
        <time>2021-09-05T10:54:39Z</time>
      </trkpt>
      <trkpt lat="44.04327" lon="1.98682">
        <ele>308.2</ele>
        <time>2021-09-05T10:54:40Z</time>
      </trkpt>
      <trkpt lat="44.04329" lon="1.98687">
        <ele>308.2</ele>
        <time>2021-09-05T10:54:41Z</time>
      </trkpt>
      <trkpt lat="44.04331" lon="1.98694">
        <ele>308.2</ele>
        <time>2021-09-05T10:54:42Z</time>
      </trkpt>
      <trkpt lat="44.04333" lon="1.98702">
        <ele>308</ele>
        <time>2021-09-05T10:54:43Z</time>
      </trkpt>
      <trkpt lat="44.04335" lon="1.98711">
        <ele>308</ele>
        <time>2021-09-05T10:54:44Z</time>
      </trkpt>
      <trkpt lat="44.04338" lon="1.98731">
        <ele>307.6</ele>
        <time>2021-09-05T10:54:46Z</time>
      </trkpt>
      <trkpt lat="44.04338" lon="1.98741">
        <ele>307.4</ele>
        <time>2021-09-05T10:54:47Z</time>
      </trkpt>
      <trkpt lat="44.04336" lon="1.98751">
        <ele>307.2</ele>
        <time>2021-09-05T10:54:48Z</time>
      </trkpt>
      <trkpt lat="44.04334" lon="1.98759">
        <ele>306.6</ele>
        <time>2021-09-05T10:54:49Z</time>
      </trkpt>
      <trkpt lat="44.04331" lon="1.98768">
        <ele>306.4</ele>
        <time>2021-09-05T10:54:50Z</time>
      </trkpt>
      <trkpt lat="44.04328" lon="1.98777">
        <ele>305.6</ele>
        <time>2021-09-05T10:54:51Z</time>
      </trkpt>
      <trkpt lat="44.04324" lon="1.98785">
        <ele>305.2</ele>
        <time>2021-09-05T10:54:52Z</time>
      </trkpt>
      <trkpt lat="44.0431" lon="1.98829">
        <ele>304.2</ele>
        <time>2021-09-05T10:54:57Z</time>
      </trkpt>
      <trkpt lat="44.04307" lon="1.98837">
        <ele>303.8</ele>
        <time>2021-09-05T10:54:58Z</time>
      </trkpt>
      <trkpt lat="44.04299" lon="1.98863">
        <ele>303</ele>
        <time>2021-09-05T10:55:01Z</time>
      </trkpt>
      <trkpt lat="44.0429" lon="1.9889">
        <ele>301.8</ele>
        <time>2021-09-05T10:55:04Z</time>
      </trkpt>
      <trkpt lat="44.04286" lon="1.98901">
        <ele>301.4</ele>
        <time>2021-09-05T10:55:05Z</time>
      </trkpt>
      <trkpt lat="44.04282" lon="1.98911">
        <ele>301.2</ele>
        <time>2021-09-05T10:55:06Z</time>
      </trkpt>
      <trkpt lat="44.04278" lon="1.98922">
        <ele>300.6</ele>
        <time>2021-09-05T10:55:07Z</time>
      </trkpt>
      <trkpt lat="44.04273" lon="1.98934">
        <ele>299.6</ele>
        <time>2021-09-05T10:55:08Z</time>
      </trkpt>
      <trkpt lat="44.04265" lon="1.98949">
        <ele>298.6</ele>
        <time>2021-09-05T10:55:09Z</time>
      </trkpt>
      <trkpt lat="44.0426" lon="1.98959">
        <ele>297.4</ele>
        <time>2021-09-05T10:55:10Z</time>
      </trkpt>
      <trkpt lat="44.04254" lon="1.98973">
        <ele>297</ele>
        <time>2021-09-05T10:55:11Z</time>
      </trkpt>
      <trkpt lat="44.04246" lon="1.98986">
        <ele>296</ele>
        <time>2021-09-05T10:55:12Z</time>
      </trkpt>
      <trkpt lat="44.04239" lon="1.98999">
        <ele>295.6</ele>
        <time>2021-09-05T10:55:13Z</time>
      </trkpt>
      <trkpt lat="44.04233" lon="1.99009">
        <ele>294.6</ele>
        <time>2021-09-05T10:55:14Z</time>
      </trkpt>
      <trkpt lat="44.04228" lon="1.99019">
        <ele>293.8</ele>
        <time>2021-09-05T10:55:15Z</time>
      </trkpt>
      <trkpt lat="44.04224" lon="1.99028">
        <ele>293.4</ele>
        <time>2021-09-05T10:55:16Z</time>
      </trkpt>
      <trkpt lat="44.04223" lon="1.99038">
        <ele>292.6</ele>
        <time>2021-09-05T10:55:17Z</time>
      </trkpt>
      <trkpt lat="44.04225" lon="1.99048">
        <ele>292.2</ele>
        <time>2021-09-05T10:55:18Z</time>
      </trkpt>
      <trkpt lat="44.04229" lon="1.99052">
        <ele>291.2</ele>
        <time>2021-09-05T10:55:19Z</time>
      </trkpt>
      <trkpt lat="44.04234" lon="1.99053">
        <ele>291</ele>
        <time>2021-09-05T10:55:20Z</time>
      </trkpt>
      <trkpt lat="44.04239" lon="1.99049">
        <ele>290.6</ele>
        <time>2021-09-05T10:55:21Z</time>
      </trkpt>
      <trkpt lat="44.04245" lon="1.99044">
        <ele>290.2</ele>
        <time>2021-09-05T10:55:22Z</time>
      </trkpt>
      <trkpt lat="44.0425" lon="1.99036">
        <ele>289.4</ele>
        <time>2021-09-05T10:55:23Z</time>
      </trkpt>
      <trkpt lat="44.04256" lon="1.99028">
        <ele>288.8</ele>
        <time>2021-09-05T10:55:24Z</time>
      </trkpt>
      <trkpt lat="44.04262" lon="1.99019">
        <ele>288.4</ele>
        <time>2021-09-05T10:55:25Z</time>
      </trkpt>
      <trkpt lat="44.04268" lon="1.99011">
        <ele>287.4</ele>
        <time>2021-09-05T10:55:26Z</time>
      </trkpt>
      <trkpt lat="44.04275" lon="1.99003">
        <ele>286.8</ele>
        <time>2021-09-05T10:55:27Z</time>
      </trkpt>
      <trkpt lat="44.04282" lon="1.98995">
        <ele>285.6</ele>
        <time>2021-09-05T10:55:28Z</time>
      </trkpt>
      <trkpt lat="44.043" lon="1.98979">
        <ele>284.6</ele>
        <time>2021-09-05T10:55:30Z</time>
      </trkpt>
      <trkpt lat="44.0431" lon="1.98972">
        <ele>283.6</ele>
        <time>2021-09-05T10:55:31Z</time>
      </trkpt>
      <trkpt lat="44.04318" lon="1.98967">
        <ele>283</ele>
        <time>2021-09-05T10:55:32Z</time>
      </trkpt>
      <trkpt lat="44.04324" lon="1.98963">
        <ele>281.8</ele>
        <time>2021-09-05T10:55:33Z</time>
      </trkpt>
      <trkpt lat="44.04327" lon="1.98962">
        <ele>281</ele>
        <time>2021-09-05T10:55:34Z</time>
      </trkpt>
      <trkpt lat="44.04329" lon="1.98963">
        <ele>280.2</ele>
        <time>2021-09-05T10:55:35Z</time>
      </trkpt>
      <trkpt lat="44.0433" lon="1.98967">
        <ele>279.8</ele>
        <time>2021-09-05T10:55:36Z</time>
      </trkpt>
      <trkpt lat="44.04328" lon="1.98971">
        <ele>278.6</ele>
        <time>2021-09-05T10:55:37Z</time>
      </trkpt>
      <trkpt lat="44.04327" lon="1.98975">
        <ele>278.2</ele>
        <time>2021-09-05T10:55:38Z</time>
      </trkpt>
      <trkpt lat="44.04325" lon="1.9898">
        <ele>277.4</ele>
        <time>2021-09-05T10:55:39Z</time>
      </trkpt>
      <trkpt lat="44.0432" lon="1.98993">
        <ele>276</ele>
        <time>2021-09-05T10:55:41Z</time>
      </trkpt>
      <trkpt lat="44.04311" lon="1.99016">
        <ele>274.8</ele>
        <time>2021-09-05T10:55:43Z</time>
      </trkpt>
      <trkpt lat="44.04298" lon="1.9904">
        <ele>273.8</ele>
        <time>2021-09-05T10:55:45Z</time>
      </trkpt>
      <trkpt lat="44.04287" lon="1.99067">
        <ele>271.4</ele>
        <time>2021-09-05T10:55:47Z</time>
      </trkpt>
      <trkpt lat="44.04285" lon="1.99083">
        <ele>271</ele>
        <time>2021-09-05T10:55:48Z</time>
      </trkpt>
      <trkpt lat="44.04284" lon="1.99099">
        <ele>270</ele>
        <time>2021-09-05T10:55:49Z</time>
      </trkpt>
      <trkpt lat="44.04282" lon="1.99114">
        <ele>269.6</ele>
        <time>2021-09-05T10:55:50Z</time>
      </trkpt>
      <trkpt lat="44.04281" lon="1.99129">
        <ele>268.8</ele>
        <time>2021-09-05T10:55:51Z</time>
      </trkpt>
      <trkpt lat="44.04279" lon="1.99144">
        <ele>268.4</ele>
        <time>2021-09-05T10:55:52Z</time>
      </trkpt>
      <trkpt lat="44.04277" lon="1.9916">
        <ele>268</ele>
        <time>2021-09-05T10:55:53Z</time>
      </trkpt>
      <trkpt lat="44.04276" lon="1.99173">
        <ele>267.4</ele>
        <time>2021-09-05T10:55:54Z</time>
      </trkpt>
      <trkpt lat="44.04276" lon="1.99185">
        <ele>264.4</ele>
        <time>2021-09-05T10:55:55Z</time>
      </trkpt>
      <trkpt lat="44.04275" lon="1.99197">
        <ele>262.8</ele>
        <time>2021-09-05T10:55:56Z</time>
      </trkpt>
      <trkpt lat="44.04272" lon="1.99208">
        <ele>262</ele>
        <time>2021-09-05T10:55:57Z</time>
      </trkpt>
      <trkpt lat="44.04271" lon="1.99219">
        <ele>260.2</ele>
        <time>2021-09-05T10:55:58Z</time>
      </trkpt>
      <trkpt lat="44.04271" lon="1.99228">
        <ele>259.6</ele>
        <time>2021-09-05T10:55:59Z</time>
      </trkpt>
      <trkpt lat="44.04274" lon="1.99236">
        <ele>258.2</ele>
        <time>2021-09-05T10:56:00Z</time>
      </trkpt>
      <trkpt lat="44.04277" lon="1.99244">
        <ele>257.8</ele>
        <time>2021-09-05T10:56:01Z</time>
      </trkpt>
      <trkpt lat="44.0428" lon="1.99252">
        <ele>256.8</ele>
        <time>2021-09-05T10:56:02Z</time>
      </trkpt>
      <trkpt lat="44.04284" lon="1.9926">
        <ele>256</ele>
        <time>2021-09-05T10:56:03Z</time>
      </trkpt>
      <trkpt lat="44.04288" lon="1.99268">
        <ele>255.8</ele>
        <time>2021-09-05T10:56:04Z</time>
      </trkpt>
      <trkpt lat="44.04292" lon="1.99276">
        <ele>254.8</ele>
        <time>2021-09-05T10:56:05Z</time>
      </trkpt>
      <trkpt lat="44.04296" lon="1.99284">
        <ele>254.2</ele>
        <time>2021-09-05T10:56:06Z</time>
      </trkpt>
      <trkpt lat="44.043" lon="1.9929">
        <ele>253.2</ele>
        <time>2021-09-05T10:56:07Z</time>
      </trkpt>
      <trkpt lat="44.04301" lon="1.99296">
        <ele>252.8</ele>
        <time>2021-09-05T10:56:08Z</time>
      </trkpt>
      <trkpt lat="44.04301" lon="1.99301">
        <ele>252.2</ele>
        <time>2021-09-05T10:56:09Z</time>
      </trkpt>
      <trkpt lat="44.04299" lon="1.99304">
        <ele>251.8</ele>
        <time>2021-09-05T10:56:10Z</time>
      </trkpt>
      <trkpt lat="44.04297" lon="1.99305">
        <ele>251.6</ele>
        <time>2021-09-05T10:56:11Z</time>
      </trkpt>
      <trkpt lat="44.04296" lon="1.99306">
        <ele>251.4</ele>
        <time>2021-09-05T10:56:12Z</time>
      </trkpt>
      <trkpt lat="44.04294" lon="1.99308">
        <ele>251.2</ele>
        <time>2021-09-05T10:56:13Z</time>
      </trkpt>
      <trkpt lat="44.04291" lon="1.9931">
        <ele>251</ele>
        <time>2021-09-05T10:56:14Z</time>
      </trkpt>
      <trkpt lat="44.04279" lon="1.99318">
        <ele>251</ele>
        <time>2021-09-05T10:56:19Z</time>
      </trkpt>
      <trkpt lat="44.04277" lon="1.9932">
        <ele>251</ele>
        <time>2021-09-05T10:56:20Z</time>
      </trkpt>
      <trkpt lat="44.04274" lon="1.99322">
        <ele>251</ele>
        <time>2021-09-05T10:56:21Z</time>
      </trkpt>
      <trkpt lat="44.04269" lon="1.99326">
        <ele>251</ele>
        <time>2021-09-05T10:56:23Z</time>
      </trkpt>
      <trkpt lat="44.04266" lon="1.99328">
        <ele>251.2</ele>
        <time>2021-09-05T10:56:24Z</time>
      </trkpt>
      <trkpt lat="44.0426" lon="1.99331">
        <ele>251.4</ele>
        <time>2021-09-05T10:56:26Z</time>
      </trkpt>
      <trkpt lat="44.04258" lon="1.99333">
        <ele>251.4</ele>
        <time>2021-09-05T10:56:27Z</time>
      </trkpt>
      <trkpt lat="44.04254" lon="1.99337">
        <ele>251.6</ele>
        <time>2021-09-05T10:56:29Z</time>
      </trkpt>
      <trkpt lat="44.04251" lon="1.99339">
        <ele>251.6</ele>
        <time>2021-09-05T10:56:30Z</time>
      </trkpt>
      <trkpt lat="44.04249" lon="1.99341">
        <ele>251.6</ele>
        <time>2021-09-05T10:56:31Z</time>
      </trkpt>
      <trkpt lat="44.04244" lon="1.99346">
        <ele>251.8</ele>
        <time>2021-09-05T10:56:33Z</time>
      </trkpt>
      <trkpt lat="44.04241" lon="1.99348">
        <ele>251.8</ele>
        <time>2021-09-05T10:56:34Z</time>
      </trkpt>
      <trkpt lat="44.04237" lon="1.99351">
        <ele>251.8</ele>
        <time>2021-09-05T10:56:36Z</time>
      </trkpt>
      <trkpt lat="44.04229" lon="1.99357">
        <ele>252.2</ele>
        <time>2021-09-05T10:56:39Z</time>
      </trkpt>
      <trkpt lat="44.04224" lon="1.99364">
        <ele>252.6</ele>
        <time>2021-09-05T10:56:42Z</time>
      </trkpt>
      <trkpt lat="44.04215" lon="1.99372">
        <ele>252.4</ele>
        <time>2021-09-05T10:56:45Z</time>
      </trkpt>
      <trkpt lat="44.04212" lon="1.99374">
        <ele>252.6</ele>
        <time>2021-09-05T10:56:46Z</time>
      </trkpt>
      <trkpt lat="44.04209" lon="1.99377">
        <ele>252.4</ele>
        <time>2021-09-05T10:56:47Z</time>
      </trkpt>
      <trkpt lat="44.04206" lon="1.99379">
        <ele>252.6</ele>
        <time>2021-09-05T10:56:48Z</time>
      </trkpt>
      <trkpt lat="44.04197" lon="1.99391">
        <ele>253.2</ele>
        <time>2021-09-05T10:56:52Z</time>
      </trkpt>
      <trkpt lat="44.04194" lon="1.99394">
        <ele>253.2</ele>
        <time>2021-09-05T10:56:53Z</time>
      </trkpt>
      <trkpt lat="44.04191" lon="1.99397">
        <ele>253.2</ele>
        <time>2021-09-05T10:56:54Z</time>
      </trkpt>
      <trkpt lat="44.04188" lon="1.994">
        <ele>253.2</ele>
        <time>2021-09-05T10:56:55Z</time>
      </trkpt>
      <trkpt lat="44.04184" lon="1.99402">
        <ele>253.4</ele>
        <time>2021-09-05T10:56:56Z</time>
      </trkpt>
      <trkpt lat="44.04182" lon="1.99404">
        <ele>253.4</ele>
        <time>2021-09-05T10:56:57Z</time>
      </trkpt>
      <trkpt lat="44.04182" lon="1.99406">
        <ele>253.6</ele>
        <time>2021-09-05T10:56:58Z</time>
      </trkpt>
      <trkpt lat="44.0418" lon="1.99408">
        <ele>253.6</ele>
        <time>2021-09-05T10:56:59Z</time>
      </trkpt>
      <trkpt lat="44.04178" lon="1.9941">
        <ele>253.8</ele>
        <time>2021-09-05T10:57:00Z</time>
      </trkpt>
      <trkpt lat="44.04174" lon="1.99416">
        <ele>254</ele>
        <time>2021-09-05T10:57:02Z</time>
      </trkpt>
      <trkpt lat="44.04172" lon="1.99419">
        <ele>254</ele>
        <time>2021-09-05T10:57:03Z</time>
      </trkpt>
      <trkpt lat="44.04167" lon="1.99424">
        <ele>254.2</ele>
        <time>2021-09-05T10:57:05Z</time>
      </trkpt>
      <trkpt lat="44.04166" lon="1.99427">
        <ele>254.2</ele>
        <time>2021-09-05T10:57:06Z</time>
      </trkpt>
      <trkpt lat="44.04153" lon="1.99442">
        <ele>254.8</ele>
        <time>2021-09-05T10:57:12Z</time>
      </trkpt>
      <trkpt lat="44.04145" lon="1.9945">
        <ele>255.2</ele>
        <time>2021-09-05T10:57:15Z</time>
      </trkpt>
      <trkpt lat="44.04143" lon="1.99452">
        <ele>255.4</ele>
        <time>2021-09-05T10:57:16Z</time>
      </trkpt>
      <trkpt lat="44.0414" lon="1.99455">
        <ele>255.4</ele>
        <time>2021-09-05T10:57:17Z</time>
      </trkpt>
      <trkpt lat="44.04136" lon="1.99459">
        <ele>255.6</ele>
        <time>2021-09-05T10:57:19Z</time>
      </trkpt>
      <trkpt lat="44.04126" lon="1.99469">
        <ele>256</ele>
        <time>2021-09-05T10:57:23Z</time>
      </trkpt>
      <trkpt lat="44.04121" lon="1.99474">
        <ele>256.4</ele>
        <time>2021-09-05T10:57:25Z</time>
      </trkpt>
      <trkpt lat="44.04118" lon="1.99477">
        <ele>256.4</ele>
        <time>2021-09-05T10:57:26Z</time>
      </trkpt>
      <trkpt lat="44.04113" lon="1.99483">
        <ele>256.4</ele>
        <time>2021-09-05T10:57:28Z</time>
      </trkpt>
      <trkpt lat="44.04109" lon="1.99488">
        <ele>257</ele>
        <time>2021-09-05T10:57:30Z</time>
      </trkpt>
      <trkpt lat="44.04106" lon="1.99491">
        <ele>257</ele>
        <time>2021-09-05T10:57:31Z</time>
      </trkpt>
      <trkpt lat="44.04102" lon="1.99495">
        <ele>257.2</ele>
        <time>2021-09-05T10:57:32Z</time>
      </trkpt>
      <trkpt lat="44.041" lon="1.995">
        <ele>257.4</ele>
        <time>2021-09-05T10:57:33Z</time>
      </trkpt>
      <trkpt lat="44.04098" lon="1.99503">
        <ele>257.6</ele>
        <time>2021-09-05T10:57:34Z</time>
      </trkpt>
      <trkpt lat="44.04096" lon="1.99507">
        <ele>257.6</ele>
        <time>2021-09-05T10:57:35Z</time>
      </trkpt>
      <trkpt lat="44.04093" lon="1.99511">
        <ele>257.6</ele>
        <time>2021-09-05T10:57:36Z</time>
      </trkpt>
      <trkpt lat="44.04091" lon="1.99514">
        <ele>257.6</ele>
        <time>2021-09-05T10:57:37Z</time>
      </trkpt>
      <trkpt lat="44.04089" lon="1.99518">
        <ele>257.8</ele>
        <time>2021-09-05T10:57:38Z</time>
      </trkpt>
      <trkpt lat="44.04088" lon="1.99521">
        <ele>257.8</ele>
        <time>2021-09-05T10:57:39Z</time>
      </trkpt>
      <trkpt lat="44.04086" lon="1.99522">
        <ele>257.8</ele>
        <time>2021-09-05T10:57:40Z</time>
      </trkpt>
      <trkpt lat="44.04085" lon="1.99526">
        <ele>257.8</ele>
        <time>2021-09-05T10:57:41Z</time>
      </trkpt>
      <trkpt lat="44.04084" lon="1.9953">
        <ele>258</ele>
        <time>2021-09-05T10:57:42Z</time>
      </trkpt>
      <trkpt lat="44.04083" lon="1.99533">
        <ele>258</ele>
        <time>2021-09-05T10:57:43Z</time>
      </trkpt>
      <trkpt lat="44.04082" lon="1.99536">
        <ele>258.2</ele>
        <time>2021-09-05T10:57:44Z</time>
      </trkpt>
      <trkpt lat="44.04081" lon="1.99539">
        <ele>258.4</ele>
        <time>2021-09-05T10:57:45Z</time>
      </trkpt>
      <trkpt lat="44.04081" lon="1.99542">
        <ele>258.4</ele>
        <time>2021-09-05T10:57:46Z</time>
      </trkpt>
      <trkpt lat="44.04081" lon="1.99545">
        <ele>258.6</ele>
        <time>2021-09-05T10:57:47Z</time>
      </trkpt>
      <trkpt lat="44.04081" lon="1.99547">
        <ele>258.8</ele>
        <time>2021-09-05T10:57:48Z</time>
      </trkpt>
      <trkpt lat="44.04081" lon="1.99549">
        <ele>258.8</ele>
        <time>2021-09-05T10:57:49Z</time>
      </trkpt>
      <trkpt lat="44.04081" lon="1.99551">
        <ele>259</ele>
        <time>2021-09-05T10:57:50Z</time>
      </trkpt>
      <trkpt lat="44.04082" lon="1.99554">
        <ele>259</ele>
        <time>2021-09-05T10:57:51Z</time>
      </trkpt>
      <trkpt lat="44.04082" lon="1.99556">
        <ele>259.2</ele>
        <time>2021-09-05T10:57:52Z</time>
      </trkpt>
      <trkpt lat="44.04082" lon="1.99559">
        <ele>259.2</ele>
        <time>2021-09-05T10:57:53Z</time>
      </trkpt>
      <trkpt lat="44.04082" lon="1.9956">
        <ele>259.2</ele>
        <time>2021-09-05T10:57:54Z</time>
      </trkpt>
      <trkpt lat="44.04082" lon="1.99562">
        <ele>259.4</ele>
        <time>2021-09-05T10:57:55Z</time>
      </trkpt>
      <trkpt lat="44.04082" lon="1.99564">
        <ele>259.4</ele>
        <time>2021-09-05T10:57:56Z</time>
      </trkpt>
      <trkpt lat="44.04082" lon="1.99567">
        <ele>259.6</ele>
        <time>2021-09-05T10:57:57Z</time>
      </trkpt>
      <trkpt lat="44.04082" lon="1.99569">
        <ele>259.8</ele>
        <time>2021-09-05T10:57:58Z</time>
      </trkpt>
      <trkpt lat="44.04083" lon="1.99572">
        <ele>259.8</ele>
        <time>2021-09-05T10:57:59Z</time>
      </trkpt>
      <trkpt lat="44.04083" lon="1.99574">
        <ele>260</ele>
        <time>2021-09-05T10:58:00Z</time>
      </trkpt>
      <trkpt lat="44.04083" lon="1.99577">
        <ele>260</ele>
        <time>2021-09-05T10:58:01Z</time>
      </trkpt>
      <trkpt lat="44.04084" lon="1.99578">
        <ele>260</ele>
        <time>2021-09-05T10:58:02Z</time>
      </trkpt>
      <trkpt lat="44.04085" lon="1.99581">
        <ele>260.2</ele>
        <time>2021-09-05T10:58:03Z</time>
      </trkpt>
      <trkpt lat="44.04085" lon="1.99583">
        <ele>260.4</ele>
        <time>2021-09-05T10:58:04Z</time>
      </trkpt>
      <trkpt lat="44.04085" lon="1.99585">
        <ele>260.6</ele>
        <time>2021-09-05T10:58:05Z</time>
      </trkpt>
      <trkpt lat="44.04086" lon="1.99587">
        <ele>260.8</ele>
        <time>2021-09-05T10:58:06Z</time>
      </trkpt>
      <trkpt lat="44.04087" lon="1.99589">
        <ele>260.8</ele>
        <time>2021-09-05T10:58:07Z</time>
      </trkpt>
      <trkpt lat="44.04088" lon="1.99592">
        <ele>261</ele>
        <time>2021-09-05T10:58:08Z</time>
      </trkpt>
      <trkpt lat="44.04088" lon="1.99594">
        <ele>261</ele>
        <time>2021-09-05T10:58:09Z</time>
      </trkpt>
      <trkpt lat="44.04089" lon="1.99596">
        <ele>261.2</ele>
        <time>2021-09-05T10:58:10Z</time>
      </trkpt>
      <trkpt lat="44.0409" lon="1.99598">
        <ele>261.6</ele>
        <time>2021-09-05T10:58:11Z</time>
      </trkpt>
      <trkpt lat="44.0409" lon="1.996">
        <ele>261.6</ele>
        <time>2021-09-05T10:58:12Z</time>
      </trkpt>
      <trkpt lat="44.04091" lon="1.99602">
        <ele>261.8</ele>
        <time>2021-09-05T10:58:13Z</time>
      </trkpt>
      <trkpt lat="44.04092" lon="1.99604">
        <ele>261.8</ele>
        <time>2021-09-05T10:58:14Z</time>
      </trkpt>
      <trkpt lat="44.04092" lon="1.99606">
        <ele>262</ele>
        <time>2021-09-05T10:58:15Z</time>
      </trkpt>
      <trkpt lat="44.04093" lon="1.99607">
        <ele>262</ele>
        <time>2021-09-05T10:58:16Z</time>
      </trkpt>
      <trkpt lat="44.04093" lon="1.99608">
        <ele>262.2</ele>
        <time>2021-09-05T10:58:17Z</time>
      </trkpt>
      <trkpt lat="44.04094" lon="1.9961">
        <ele>262.4</ele>
        <time>2021-09-05T10:58:18Z</time>
      </trkpt>
      <trkpt lat="44.04094" lon="1.99612">
        <ele>262.8</ele>
        <time>2021-09-05T10:58:19Z</time>
      </trkpt>
      <trkpt lat="44.04095" lon="1.99615">
        <ele>262.8</ele>
        <time>2021-09-05T10:58:20Z</time>
      </trkpt>
      <trkpt lat="44.04095" lon="1.99617">
        <ele>262.8</ele>
        <time>2021-09-05T10:58:21Z</time>
      </trkpt>
      <trkpt lat="44.04096" lon="1.99618">
        <ele>263</ele>
        <time>2021-09-05T10:58:22Z</time>
      </trkpt>
      <trkpt lat="44.04096" lon="1.9962">
        <ele>263.2</ele>
        <time>2021-09-05T10:58:23Z</time>
      </trkpt>
      <trkpt lat="44.04097" lon="1.99622">
        <ele>263.4</ele>
        <time>2021-09-05T10:58:24Z</time>
      </trkpt>
      <trkpt lat="44.04098" lon="1.99624">
        <ele>263.6</ele>
        <time>2021-09-05T10:58:25Z</time>
      </trkpt>
      <trkpt lat="44.04098" lon="1.99626">
        <ele>263.8</ele>
        <time>2021-09-05T10:58:26Z</time>
      </trkpt>
      <trkpt lat="44.04099" lon="1.99628">
        <ele>264</ele>
        <time>2021-09-05T10:58:27Z</time>
      </trkpt>
      <trkpt lat="44.041" lon="1.9963">
        <ele>264.2</ele>
        <time>2021-09-05T10:58:28Z</time>
      </trkpt>
      <trkpt lat="44.04101" lon="1.99632">
        <ele>264.4</ele>
        <time>2021-09-05T10:58:29Z</time>
      </trkpt>
      <trkpt lat="44.04102" lon="1.99634">
        <ele>264.4</ele>
        <time>2021-09-05T10:58:30Z</time>
      </trkpt>
      <trkpt lat="44.04103" lon="1.99637">
        <ele>264.6</ele>
        <time>2021-09-05T10:58:31Z</time>
      </trkpt>
      <trkpt lat="44.04104" lon="1.99639">
        <ele>264.6</ele>
        <time>2021-09-05T10:58:32Z</time>
      </trkpt>
      <trkpt lat="44.04104" lon="1.99641">
        <ele>264.8</ele>
        <time>2021-09-05T10:58:33Z</time>
      </trkpt>
      <trkpt lat="44.04105" lon="1.99643">
        <ele>265</ele>
        <time>2021-09-05T10:58:34Z</time>
      </trkpt>
      <trkpt lat="44.04105" lon="1.99645">
        <ele>265</ele>
        <time>2021-09-05T10:58:35Z</time>
      </trkpt>
      <trkpt lat="44.04106" lon="1.99647">
        <ele>265.2</ele>
        <time>2021-09-05T10:58:36Z</time>
      </trkpt>
      <trkpt lat="44.04107" lon="1.99649">
        <ele>265.2</ele>
        <time>2021-09-05T10:58:37Z</time>
      </trkpt>
      <trkpt lat="44.04107" lon="1.99651">
        <ele>265.6</ele>
        <time>2021-09-05T10:58:38Z</time>
      </trkpt>
      <trkpt lat="44.04108" lon="1.99653">
        <ele>265.6</ele>
        <time>2021-09-05T10:58:39Z</time>
      </trkpt>
      <trkpt lat="44.04109" lon="1.99655">
        <ele>265.8</ele>
        <time>2021-09-05T10:58:40Z</time>
      </trkpt>
      <trkpt lat="44.04109" lon="1.99656">
        <ele>266</ele>
        <time>2021-09-05T10:58:41Z</time>
      </trkpt>
      <trkpt lat="44.04109" lon="1.99657">
        <ele>266.2</ele>
        <time>2021-09-05T10:58:42Z</time>
      </trkpt>
      <trkpt lat="44.0411" lon="1.99659">
        <ele>266.2</ele>
        <time>2021-09-05T10:58:43Z</time>
      </trkpt>
      <trkpt lat="44.04111" lon="1.9966">
        <ele>266.2</ele>
        <time>2021-09-05T10:58:44Z</time>
      </trkpt>
      <trkpt lat="44.04111" lon="1.99662">
        <ele>266.6</ele>
        <time>2021-09-05T10:58:45Z</time>
      </trkpt>
      <trkpt lat="44.04112" lon="1.99664">
        <ele>266.8</ele>
        <time>2021-09-05T10:58:46Z</time>
      </trkpt>
      <trkpt lat="44.04113" lon="1.99666">
        <ele>267</ele>
        <time>2021-09-05T10:58:47Z</time>
      </trkpt>
      <trkpt lat="44.04113" lon="1.99667">
        <ele>267</ele>
        <time>2021-09-05T10:58:48Z</time>
      </trkpt>
      <trkpt lat="44.04114" lon="1.99669">
        <ele>267.2</ele>
        <time>2021-09-05T10:58:49Z</time>
      </trkpt>
      <trkpt lat="44.04114" lon="1.9967">
        <ele>267.4</ele>
        <time>2021-09-05T10:58:50Z</time>
      </trkpt>
      <trkpt lat="44.04115" lon="1.99672">
        <ele>267.4</ele>
        <time>2021-09-05T10:58:51Z</time>
      </trkpt>
      <trkpt lat="44.04115" lon="1.99673">
        <ele>267.6</ele>
        <time>2021-09-05T10:58:52Z</time>
      </trkpt>
      <trkpt lat="44.04115" lon="1.99674">
        <ele>267.8</ele>
        <time>2021-09-05T10:58:53Z</time>
      </trkpt>
      <trkpt lat="44.04116" lon="1.99676">
        <ele>268</ele>
        <time>2021-09-05T10:58:54Z</time>
      </trkpt>
      <trkpt lat="44.04117" lon="1.99678">
        <ele>268.2</ele>
        <time>2021-09-05T10:58:55Z</time>
      </trkpt>
      <trkpt lat="44.04117" lon="1.9968">
        <ele>268.4</ele>
        <time>2021-09-05T10:58:56Z</time>
      </trkpt>
      <trkpt lat="44.04118" lon="1.99682">
        <ele>268.4</ele>
        <time>2021-09-05T10:58:57Z</time>
      </trkpt>
      <trkpt lat="44.04119" lon="1.99684">
        <ele>268.6</ele>
        <time>2021-09-05T10:58:58Z</time>
      </trkpt>
      <trkpt lat="44.04119" lon="1.99686">
        <ele>268.8</ele>
        <time>2021-09-05T10:58:59Z</time>
      </trkpt>
      <trkpt lat="44.0412" lon="1.99688">
        <ele>268.8</ele>
        <time>2021-09-05T10:59:00Z</time>
      </trkpt>
      <trkpt lat="44.0412" lon="1.99689">
        <ele>269</ele>
        <time>2021-09-05T10:59:01Z</time>
      </trkpt>
      <trkpt lat="44.0412" lon="1.99691">
        <ele>269.2</ele>
        <time>2021-09-05T10:59:02Z</time>
      </trkpt>
      <trkpt lat="44.0412" lon="1.99693">
        <ele>269.2</ele>
        <time>2021-09-05T10:59:03Z</time>
      </trkpt>
      <trkpt lat="44.04121" lon="1.99695">
        <ele>269.2</ele>
        <time>2021-09-05T10:59:04Z</time>
      </trkpt>
      <trkpt lat="44.04121" lon="1.99698">
        <ele>269.4</ele>
        <time>2021-09-05T10:59:05Z</time>
      </trkpt>
      <trkpt lat="44.04121" lon="1.997">
        <ele>269.4</ele>
        <time>2021-09-05T10:59:06Z</time>
      </trkpt>
      <trkpt lat="44.04121" lon="1.99701">
        <ele>269.6</ele>
        <time>2021-09-05T10:59:07Z</time>
      </trkpt>
      <trkpt lat="44.04121" lon="1.99703">
        <ele>269.8</ele>
        <time>2021-09-05T10:59:08Z</time>
      </trkpt>
      <trkpt lat="44.04121" lon="1.99705">
        <ele>269.8</ele>
        <time>2021-09-05T10:59:09Z</time>
      </trkpt>
      <trkpt lat="44.0412" lon="1.99706">
        <ele>270</ele>
        <time>2021-09-05T10:59:10Z</time>
      </trkpt>
      <trkpt lat="44.0412" lon="1.99708">
        <ele>270.2</ele>
        <time>2021-09-05T10:59:11Z</time>
      </trkpt>
      <trkpt lat="44.04119" lon="1.99709">
        <ele>270.4</ele>
        <time>2021-09-05T10:59:12Z</time>
      </trkpt>
      <trkpt lat="44.04118" lon="1.9971">
        <ele>270.4</ele>
        <time>2021-09-05T10:59:13Z</time>
      </trkpt>
      <trkpt lat="44.04117" lon="1.99712">
        <ele>270.6</ele>
        <time>2021-09-05T10:59:14Z</time>
      </trkpt>
      <trkpt lat="44.04115" lon="1.99714">
        <ele>270.8</ele>
        <time>2021-09-05T10:59:15Z</time>
      </trkpt>
      <trkpt lat="44.04114" lon="1.99716">
        <ele>270.8</ele>
        <time>2021-09-05T10:59:16Z</time>
      </trkpt>
      <trkpt lat="44.04113" lon="1.99718">
        <ele>271</ele>
        <time>2021-09-05T10:59:17Z</time>
      </trkpt>
      <trkpt lat="44.04112" lon="1.9972">
        <ele>271.2</ele>
        <time>2021-09-05T10:59:18Z</time>
      </trkpt>
      <trkpt lat="44.04111" lon="1.99722">
        <ele>271.2</ele>
        <time>2021-09-05T10:59:19Z</time>
      </trkpt>
      <trkpt lat="44.0411" lon="1.99724">
        <ele>271.4</ele>
        <time>2021-09-05T10:59:20Z</time>
      </trkpt>
      <trkpt lat="44.04109" lon="1.99726">
        <ele>271.4</ele>
        <time>2021-09-05T10:59:21Z</time>
      </trkpt>
      <trkpt lat="44.04109" lon="1.99728">
        <ele>271.4</ele>
        <time>2021-09-05T10:59:22Z</time>
      </trkpt>
      <trkpt lat="44.04108" lon="1.99728">
        <ele>271.6</ele>
        <time>2021-09-05T10:59:23Z</time>
      </trkpt>
      <trkpt lat="44.04108" lon="1.99729">
        <ele>271.8</ele>
        <time>2021-09-05T10:59:24Z</time>
      </trkpt>
      <trkpt lat="44.04107" lon="1.99731">
        <ele>271.8</ele>
        <time>2021-09-05T10:59:25Z</time>
      </trkpt>
      <trkpt lat="44.04106" lon="1.99733">
        <ele>272</ele>
        <time>2021-09-05T10:59:26Z</time>
      </trkpt>
      <trkpt lat="44.04103" lon="1.99735">
        <ele>272</ele>
        <time>2021-09-05T10:59:27Z</time>
      </trkpt>
      <trkpt lat="44.04102" lon="1.99736">
        <ele>272.2</ele>
        <time>2021-09-05T10:59:28Z</time>
      </trkpt>
      <trkpt lat="44.04101" lon="1.99738">
        <ele>272.4</ele>
        <time>2021-09-05T10:59:29Z</time>
      </trkpt>
      <trkpt lat="44.041" lon="1.99739">
        <ele>272.6</ele>
        <time>2021-09-05T10:59:30Z</time>
      </trkpt>
      <trkpt lat="44.04099" lon="1.9974">
        <ele>272.6</ele>
        <time>2021-09-05T10:59:31Z</time>
      </trkpt>
      <trkpt lat="44.04099" lon="1.99742">
        <ele>273</ele>
        <time>2021-09-05T10:59:32Z</time>
      </trkpt>
      <trkpt lat="44.04098" lon="1.99745">
        <ele>273.2</ele>
        <time>2021-09-05T10:59:33Z</time>
      </trkpt>
      <trkpt lat="44.04097" lon="1.99747">
        <ele>273.2</ele>
        <time>2021-09-05T10:59:34Z</time>
      </trkpt>
      <trkpt lat="44.04096" lon="1.9975">
        <ele>273.6</ele>
        <time>2021-09-05T10:59:35Z</time>
      </trkpt>
      <trkpt lat="44.04096" lon="1.99752">
        <ele>273.6</ele>
        <time>2021-09-05T10:59:36Z</time>
      </trkpt>
      <trkpt lat="44.04096" lon="1.99754">
        <ele>273.8</ele>
        <time>2021-09-05T10:59:37Z</time>
      </trkpt>
      <trkpt lat="44.04096" lon="1.99758">
        <ele>274</ele>
        <time>2021-09-05T10:59:38Z</time>
      </trkpt>
      <trkpt lat="44.04096" lon="1.99761">
        <ele>274.2</ele>
        <time>2021-09-05T10:59:39Z</time>
      </trkpt>
      <trkpt lat="44.04095" lon="1.99762">
        <ele>274.2</ele>
        <time>2021-09-05T10:59:40Z</time>
      </trkpt>
      <trkpt lat="44.04095" lon="1.99762">
        <ele>274.6</ele>
        <time>2021-09-05T10:59:41Z</time>
      </trkpt>
      <trkpt lat="44.04095" lon="1.99764">
        <ele>275.2</ele>
        <time>2021-09-05T10:59:42Z</time>
      </trkpt>
      <trkpt lat="44.04095" lon="1.99766">
        <ele>275.4</ele>
        <time>2021-09-05T10:59:43Z</time>
      </trkpt>
      <trkpt lat="44.04096" lon="1.99767">
        <ele>275.8</ele>
        <time>2021-09-05T10:59:44Z</time>
      </trkpt>
      <trkpt lat="44.04096" lon="1.99769">
        <ele>275.8</ele>
        <time>2021-09-05T10:59:45Z</time>
      </trkpt>
      <trkpt lat="44.04096" lon="1.99771">
        <ele>276</ele>
        <time>2021-09-05T10:59:46Z</time>
      </trkpt>
      <trkpt lat="44.04096" lon="1.99773">
        <ele>276.2</ele>
        <time>2021-09-05T10:59:47Z</time>
      </trkpt>
      <trkpt lat="44.04096" lon="1.99776">
        <ele>276.4</ele>
        <time>2021-09-05T10:59:48Z</time>
      </trkpt>
      <trkpt lat="44.04096" lon="1.99778">
        <ele>276.4</ele>
        <time>2021-09-05T10:59:49Z</time>
      </trkpt>
      <trkpt lat="44.04096" lon="1.9978">
        <ele>276.6</ele>
        <time>2021-09-05T10:59:50Z</time>
      </trkpt>
      <trkpt lat="44.04096" lon="1.99782">
        <ele>276.8</ele>
        <time>2021-09-05T10:59:51Z</time>
      </trkpt>
      <trkpt lat="44.04096" lon="1.99784">
        <ele>277</ele>
        <time>2021-09-05T10:59:52Z</time>
      </trkpt>
      <trkpt lat="44.04096" lon="1.99786">
        <ele>277.2</ele>
        <time>2021-09-05T10:59:53Z</time>
      </trkpt>
      <trkpt lat="44.04096" lon="1.99787">
        <ele>277.4</ele>
        <time>2021-09-05T10:59:54Z</time>
      </trkpt>
      <trkpt lat="44.04096" lon="1.99789">
        <ele>277.6</ele>
        <time>2021-09-05T10:59:55Z</time>
      </trkpt>
      <trkpt lat="44.04096" lon="1.9979">
        <ele>278</ele>
        <time>2021-09-05T10:59:56Z</time>
      </trkpt>
      <trkpt lat="44.04096" lon="1.99792">
        <ele>278.4</ele>
        <time>2021-09-05T10:59:57Z</time>
      </trkpt>
      <trkpt lat="44.04096" lon="1.99794">
        <ele>278.8</ele>
        <time>2021-09-05T10:59:58Z</time>
      </trkpt>
      <trkpt lat="44.04096" lon="1.99796">
        <ele>279.2</ele>
        <time>2021-09-05T10:59:59Z</time>
      </trkpt>
      <trkpt lat="44.04095" lon="1.99797">
        <ele>279.6</ele>
        <time>2021-09-05T11:00:00Z</time>
      </trkpt>
      <trkpt lat="44.04095" lon="1.998">
        <ele>279.8</ele>
        <time>2021-09-05T11:00:01Z</time>
      </trkpt>
      <trkpt lat="44.04094" lon="1.99802">
        <ele>280</ele>
        <time>2021-09-05T11:00:02Z</time>
      </trkpt>
      <trkpt lat="44.04093" lon="1.99804">
        <ele>280</ele>
        <time>2021-09-05T11:00:03Z</time>
      </trkpt>
      <trkpt lat="44.04092" lon="1.99805">
        <ele>280.4</ele>
        <time>2021-09-05T11:00:04Z</time>
      </trkpt>
      <trkpt lat="44.04091" lon="1.99808">
        <ele>280.8</ele>
        <time>2021-09-05T11:00:05Z</time>
      </trkpt>
      <trkpt lat="44.04091" lon="1.9981">
        <ele>281</ele>
        <time>2021-09-05T11:00:06Z</time>
      </trkpt>
      <trkpt lat="44.04091" lon="1.99812">
        <ele>281.4</ele>
        <time>2021-09-05T11:00:07Z</time>
      </trkpt>
      <trkpt lat="44.0409" lon="1.99815">
        <ele>281.6</ele>
        <time>2021-09-05T11:00:08Z</time>
      </trkpt>
      <trkpt lat="44.04088" lon="1.99817">
        <ele>281.8</ele>
        <time>2021-09-05T11:00:09Z</time>
      </trkpt>
      <trkpt lat="44.04087" lon="1.99819">
        <ele>282</ele>
        <time>2021-09-05T11:00:10Z</time>
      </trkpt>
      <trkpt lat="44.04087" lon="1.99821">
        <ele>282.4</ele>
        <time>2021-09-05T11:00:11Z</time>
      </trkpt>
      <trkpt lat="44.04087" lon="1.99822">
        <ele>282.4</ele>
        <time>2021-09-05T11:00:12Z</time>
      </trkpt>
      <trkpt lat="44.04087" lon="1.99824">
        <ele>282.8</ele>
        <time>2021-09-05T11:00:13Z</time>
      </trkpt>
      <trkpt lat="44.04085" lon="1.99826">
        <ele>283</ele>
        <time>2021-09-05T11:00:14Z</time>
      </trkpt>
      <trkpt lat="44.04084" lon="1.99828">
        <ele>283</ele>
        <time>2021-09-05T11:00:15Z</time>
      </trkpt>
      <trkpt lat="44.04084" lon="1.99829">
        <ele>283.4</ele>
        <time>2021-09-05T11:00:16Z</time>
      </trkpt>
      <trkpt lat="44.04084" lon="1.99832">
        <ele>283.6</ele>
        <time>2021-09-05T11:00:17Z</time>
      </trkpt>
      <trkpt lat="44.04084" lon="1.99833">
        <ele>284</ele>
        <time>2021-09-05T11:00:18Z</time>
      </trkpt>
      <trkpt lat="44.04083" lon="1.99835">
        <ele>284.2</ele>
        <time>2021-09-05T11:00:19Z</time>
      </trkpt>
      <trkpt lat="44.04083" lon="1.99836">
        <ele>284.4</ele>
        <time>2021-09-05T11:00:20Z</time>
      </trkpt>
      <trkpt lat="44.04082" lon="1.99838">
        <ele>284.6</ele>
        <time>2021-09-05T11:00:21Z</time>
      </trkpt>
      <trkpt lat="44.04081" lon="1.99839">
        <ele>284.8</ele>
        <time>2021-09-05T11:00:22Z</time>
      </trkpt>
      <trkpt lat="44.04081" lon="1.99841">
        <ele>285.2</ele>
        <time>2021-09-05T11:00:23Z</time>
      </trkpt>
      <trkpt lat="44.0408" lon="1.99843">
        <ele>285.4</ele>
        <time>2021-09-05T11:00:24Z</time>
      </trkpt>
      <trkpt lat="44.04079" lon="1.99845">
        <ele>285.6</ele>
        <time>2021-09-05T11:00:25Z</time>
      </trkpt>
      <trkpt lat="44.04079" lon="1.99846">
        <ele>285.8</ele>
        <time>2021-09-05T11:00:26Z</time>
      </trkpt>
      <trkpt lat="44.04078" lon="1.99848">
        <ele>286</ele>
        <time>2021-09-05T11:00:27Z</time>
      </trkpt>
      <trkpt lat="44.04078" lon="1.9985">
        <ele>286</ele>
        <time>2021-09-05T11:00:28Z</time>
      </trkpt>
      <trkpt lat="44.04077" lon="1.99851">
        <ele>286.2</ele>
        <time>2021-09-05T11:00:29Z</time>
      </trkpt>
      <trkpt lat="44.04077" lon="1.99852">
        <ele>286.4</ele>
        <time>2021-09-05T11:00:30Z</time>
      </trkpt>
      <trkpt lat="44.04076" lon="1.99854">
        <ele>286.4</ele>
        <time>2021-09-05T11:00:31Z</time>
      </trkpt>
      <trkpt lat="44.04076" lon="1.99856">
        <ele>286.6</ele>
        <time>2021-09-05T11:00:32Z</time>
      </trkpt>
      <trkpt lat="44.04075" lon="1.99857">
        <ele>286.8</ele>
        <time>2021-09-05T11:00:33Z</time>
      </trkpt>
      <trkpt lat="44.04075" lon="1.99859">
        <ele>287</ele>
        <time>2021-09-05T11:00:34Z</time>
      </trkpt>
      <trkpt lat="44.04074" lon="1.9986">
        <ele>287</ele>
        <time>2021-09-05T11:00:35Z</time>
      </trkpt>
      <trkpt lat="44.04074" lon="1.99861">
        <ele>287.2</ele>
        <time>2021-09-05T11:00:36Z</time>
      </trkpt>
      <trkpt lat="44.04074" lon="1.99863">
        <ele>287.4</ele>
        <time>2021-09-05T11:00:37Z</time>
      </trkpt>
      <trkpt lat="44.04073" lon="1.99864">
        <ele>287.6</ele>
        <time>2021-09-05T11:00:38Z</time>
      </trkpt>
      <trkpt lat="44.04073" lon="1.99866">
        <ele>287.8</ele>
        <time>2021-09-05T11:00:39Z</time>
      </trkpt>
      <trkpt lat="44.04072" lon="1.99868">
        <ele>288</ele>
        <time>2021-09-05T11:00:40Z</time>
      </trkpt>
      <trkpt lat="44.04072" lon="1.99869">
        <ele>288.4</ele>
        <time>2021-09-05T11:00:41Z</time>
      </trkpt>
      <trkpt lat="44.0407" lon="1.99871">
        <ele>288.6</ele>
        <time>2021-09-05T11:00:42Z</time>
      </trkpt>
      <trkpt lat="44.04068" lon="1.99873">
        <ele>289</ele>
        <time>2021-09-05T11:00:43Z</time>
      </trkpt>
      <trkpt lat="44.04067" lon="1.99874">
        <ele>289.2</ele>
        <time>2021-09-05T11:00:44Z</time>
      </trkpt>
      <trkpt lat="44.04065" lon="1.99877">
        <ele>289.4</ele>
        <time>2021-09-05T11:00:45Z</time>
      </trkpt>
      <trkpt lat="44.04064" lon="1.9988">
        <ele>289.6</ele>
        <time>2021-09-05T11:00:46Z</time>
      </trkpt>
      <trkpt lat="44.04063" lon="1.99882">
        <ele>289.8</ele>
        <time>2021-09-05T11:00:47Z</time>
      </trkpt>
      <trkpt lat="44.04063" lon="1.99884">
        <ele>290</ele>
        <time>2021-09-05T11:00:48Z</time>
      </trkpt>
      <trkpt lat="44.04062" lon="1.99886">
        <ele>290.2</ele>
        <time>2021-09-05T11:00:49Z</time>
      </trkpt>
      <trkpt lat="44.04061" lon="1.99888">
        <ele>290.6</ele>
        <time>2021-09-05T11:00:50Z</time>
      </trkpt>
      <trkpt lat="44.04061" lon="1.9989">
        <ele>290.6</ele>
        <time>2021-09-05T11:00:51Z</time>
      </trkpt>
      <trkpt lat="44.0406" lon="1.99892">
        <ele>290.8</ele>
        <time>2021-09-05T11:00:52Z</time>
      </trkpt>
      <trkpt lat="44.04059" lon="1.99893">
        <ele>291</ele>
        <time>2021-09-05T11:00:53Z</time>
      </trkpt>
      <trkpt lat="44.04058" lon="1.99894">
        <ele>291.2</ele>
        <time>2021-09-05T11:00:54Z</time>
      </trkpt>
      <trkpt lat="44.04058" lon="1.99896">
        <ele>291.4</ele>
        <time>2021-09-05T11:00:55Z</time>
      </trkpt>
      <trkpt lat="44.04057" lon="1.99898">
        <ele>291.6</ele>
        <time>2021-09-05T11:00:56Z</time>
      </trkpt>
      <trkpt lat="44.04057" lon="1.999">
        <ele>291.8</ele>
        <time>2021-09-05T11:00:57Z</time>
      </trkpt>
      <trkpt lat="44.04056" lon="1.99902">
        <ele>291.8</ele>
        <time>2021-09-05T11:00:58Z</time>
      </trkpt>
      <trkpt lat="44.04056" lon="1.99904">
        <ele>292.2</ele>
        <time>2021-09-05T11:00:59Z</time>
      </trkpt>
      <trkpt lat="44.04055" lon="1.99906">
        <ele>292.2</ele>
        <time>2021-09-05T11:01:00Z</time>
      </trkpt>
      <trkpt lat="44.04054" lon="1.99907">
        <ele>292.4</ele>
        <time>2021-09-05T11:01:01Z</time>
      </trkpt>
      <trkpt lat="44.04052" lon="1.9991">
        <ele>292.8</ele>
        <time>2021-09-05T11:01:02Z</time>
      </trkpt>
      <trkpt lat="44.04052" lon="1.99911">
        <ele>292.8</ele>
        <time>2021-09-05T11:01:03Z</time>
      </trkpt>
      <trkpt lat="44.04052" lon="1.99913">
        <ele>293.2</ele>
        <time>2021-09-05T11:01:04Z</time>
      </trkpt>
      <trkpt lat="44.04051" lon="1.99915">
        <ele>293.2</ele>
        <time>2021-09-05T11:01:05Z</time>
      </trkpt>
      <trkpt lat="44.04051" lon="1.99916">
        <ele>293.4</ele>
        <time>2021-09-05T11:01:06Z</time>
      </trkpt>
      <trkpt lat="44.0405" lon="1.99917">
        <ele>293.6</ele>
        <time>2021-09-05T11:01:07Z</time>
      </trkpt>
      <trkpt lat="44.04049" lon="1.99918">
        <ele>293.8</ele>
        <time>2021-09-05T11:01:08Z</time>
      </trkpt>
      <trkpt lat="44.04049" lon="1.99921">
        <ele>293.8</ele>
        <time>2021-09-05T11:01:09Z</time>
      </trkpt>
      <trkpt lat="44.04049" lon="1.99923">
        <ele>294.2</ele>
        <time>2021-09-05T11:01:10Z</time>
      </trkpt>
      <trkpt lat="44.04049" lon="1.99924">
        <ele>294.6</ele>
        <time>2021-09-05T11:01:11Z</time>
      </trkpt>
      <trkpt lat="44.04048" lon="1.99926">
        <ele>294.6</ele>
        <time>2021-09-05T11:01:12Z</time>
      </trkpt>
      <trkpt lat="44.04048" lon="1.99928">
        <ele>295</ele>
        <time>2021-09-05T11:01:13Z</time>
      </trkpt>
      <trkpt lat="44.04047" lon="1.9993">
        <ele>295</ele>
        <time>2021-09-05T11:01:14Z</time>
      </trkpt>
      <trkpt lat="44.04046" lon="1.99932">
        <ele>295.4</ele>
        <time>2021-09-05T11:01:15Z</time>
      </trkpt>
      <trkpt lat="44.04046" lon="1.99934">
        <ele>295.4</ele>
        <time>2021-09-05T11:01:16Z</time>
      </trkpt>
      <trkpt lat="44.04045" lon="1.99936">
        <ele>295.6</ele>
        <time>2021-09-05T11:01:17Z</time>
      </trkpt>
      <trkpt lat="44.04045" lon="1.99938">
        <ele>296</ele>
        <time>2021-09-05T11:01:18Z</time>
      </trkpt>
      <trkpt lat="44.04044" lon="1.9994">
        <ele>296.2</ele>
        <time>2021-09-05T11:01:19Z</time>
      </trkpt>
      <trkpt lat="44.04044" lon="1.99942">
        <ele>296.4</ele>
        <time>2021-09-05T11:01:20Z</time>
      </trkpt>
      <trkpt lat="44.04043" lon="1.99944">
        <ele>296.4</ele>
        <time>2021-09-05T11:01:21Z</time>
      </trkpt>
      <trkpt lat="44.04042" lon="1.99946">
        <ele>296.8</ele>
        <time>2021-09-05T11:01:22Z</time>
      </trkpt>
      <trkpt lat="44.04042" lon="1.99948">
        <ele>296.8</ele>
        <time>2021-09-05T11:01:23Z</time>
      </trkpt>
      <trkpt lat="44.04041" lon="1.9995">
        <ele>297</ele>
        <time>2021-09-05T11:01:24Z</time>
      </trkpt>
      <trkpt lat="44.0404" lon="1.99952">
        <ele>297.2</ele>
        <time>2021-09-05T11:01:25Z</time>
      </trkpt>
      <trkpt lat="44.0404" lon="1.99954">
        <ele>297.4</ele>
        <time>2021-09-05T11:01:26Z</time>
      </trkpt>
      <trkpt lat="44.0404" lon="1.99956">
        <ele>297.8</ele>
        <time>2021-09-05T11:01:27Z</time>
      </trkpt>
      <trkpt lat="44.04039" lon="1.99958">
        <ele>297.8</ele>
        <time>2021-09-05T11:01:28Z</time>
      </trkpt>
      <trkpt lat="44.04039" lon="1.99959">
        <ele>298.2</ele>
        <time>2021-09-05T11:01:29Z</time>
      </trkpt>
      <trkpt lat="44.04038" lon="1.99961">
        <ele>298.4</ele>
        <time>2021-09-05T11:01:30Z</time>
      </trkpt>
      <trkpt lat="44.04038" lon="1.99963">
        <ele>298.6</ele>
        <time>2021-09-05T11:01:31Z</time>
      </trkpt>
      <trkpt lat="44.04037" lon="1.99965">
        <ele>298.8</ele>
        <time>2021-09-05T11:01:32Z</time>
      </trkpt>
      <trkpt lat="44.04037" lon="1.99967">
        <ele>299</ele>
        <time>2021-09-05T11:01:33Z</time>
      </trkpt>
      <trkpt lat="44.04036" lon="1.99969">
        <ele>299.4</ele>
        <time>2021-09-05T11:01:34Z</time>
      </trkpt>
      <trkpt lat="44.04036" lon="1.99971">
        <ele>299.6</ele>
        <time>2021-09-05T11:01:35Z</time>
      </trkpt>
      <trkpt lat="44.04036" lon="1.99972">
        <ele>300</ele>
        <time>2021-09-05T11:01:36Z</time>
      </trkpt>
      <trkpt lat="44.04035" lon="1.99974">
        <ele>300</ele>
        <time>2021-09-05T11:01:37Z</time>
      </trkpt>
      <trkpt lat="44.04034" lon="1.99976">
        <ele>300.2</ele>
        <time>2021-09-05T11:01:38Z</time>
      </trkpt>
      <trkpt lat="44.04034" lon="1.99977">
        <ele>300.4</ele>
        <time>2021-09-05T11:01:39Z</time>
      </trkpt>
      <trkpt lat="44.04033" lon="1.99979">
        <ele>300.4</ele>
        <time>2021-09-05T11:01:40Z</time>
      </trkpt>
      <trkpt lat="44.04033" lon="1.99981">
        <ele>300.6</ele>
        <time>2021-09-05T11:01:41Z</time>
      </trkpt>
      <trkpt lat="44.04033" lon="1.99982">
        <ele>300.8</ele>
        <time>2021-09-05T11:01:42Z</time>
      </trkpt>
      <trkpt lat="44.04033" lon="1.99984">
        <ele>300.8</ele>
        <time>2021-09-05T11:01:43Z</time>
      </trkpt>
      <trkpt lat="44.04033" lon="1.99986">
        <ele>301</ele>
        <time>2021-09-05T11:01:44Z</time>
      </trkpt>
      <trkpt lat="44.04032" lon="1.99988">
        <ele>301.2</ele>
        <time>2021-09-05T11:01:45Z</time>
      </trkpt>
      <trkpt lat="44.04031" lon="1.99989">
        <ele>301.4</ele>
        <time>2021-09-05T11:01:46Z</time>
      </trkpt>
      <trkpt lat="44.04031" lon="1.99991">
        <ele>301.6</ele>
        <time>2021-09-05T11:01:47Z</time>
      </trkpt>
      <trkpt lat="44.0403" lon="1.99994">
        <ele>301.6</ele>
        <time>2021-09-05T11:01:48Z</time>
      </trkpt>
      <trkpt lat="44.0403" lon="1.99996">
        <ele>301.8</ele>
        <time>2021-09-05T11:01:49Z</time>
      </trkpt>
      <trkpt lat="44.0403" lon="1.99998">
        <ele>302.2</ele>
        <time>2021-09-05T11:01:50Z</time>
      </trkpt>
      <trkpt lat="44.0403" lon="1.99999">
        <ele>302.4</ele>
        <time>2021-09-05T11:01:51Z</time>
      </trkpt>
      <trkpt lat="44.04029" lon="2.00001">
        <ele>302.6</ele>
        <time>2021-09-05T11:01:52Z</time>
      </trkpt>
      <trkpt lat="44.04028" lon="2.00003">
        <ele>302.8</ele>
        <time>2021-09-05T11:01:53Z</time>
      </trkpt>
      <trkpt lat="44.04027" lon="2.00006">
        <ele>303</ele>
        <time>2021-09-05T11:01:54Z</time>
      </trkpt>
      <trkpt lat="44.04027" lon="2.00008">
        <ele>303</ele>
        <time>2021-09-05T11:01:55Z</time>
      </trkpt>
      <trkpt lat="44.04026" lon="2.0001">
        <ele>303.2</ele>
        <time>2021-09-05T11:01:56Z</time>
      </trkpt>
      <trkpt lat="44.04026" lon="2.00011">
        <ele>303.4</ele>
        <time>2021-09-05T11:01:57Z</time>
      </trkpt>
      <trkpt lat="44.04025" lon="2.00013">
        <ele>303.6</ele>
        <time>2021-09-05T11:01:58Z</time>
      </trkpt>
      <trkpt lat="44.04025" lon="2.00015">
        <ele>303.8</ele>
        <time>2021-09-05T11:01:59Z</time>
      </trkpt>
      <trkpt lat="44.04024" lon="2.00017">
        <ele>304</ele>
        <time>2021-09-05T11:02:00Z</time>
      </trkpt>
      <trkpt lat="44.04024" lon="2.0002">
        <ele>304.4</ele>
        <time>2021-09-05T11:02:01Z</time>
      </trkpt>
      <trkpt lat="44.04023" lon="2.00021">
        <ele>304.4</ele>
        <time>2021-09-05T11:02:02Z</time>
      </trkpt>
      <trkpt lat="44.04022" lon="2.00023">
        <ele>304.6</ele>
        <time>2021-09-05T11:02:03Z</time>
      </trkpt>
      <trkpt lat="44.04022" lon="2.00024">
        <ele>304.8</ele>
        <time>2021-09-05T11:02:04Z</time>
      </trkpt>
      <trkpt lat="44.04021" lon="2.00027">
        <ele>305</ele>
        <time>2021-09-05T11:02:05Z</time>
      </trkpt>
      <trkpt lat="44.04021" lon="2.00029">
        <ele>305.2</ele>
        <time>2021-09-05T11:02:06Z</time>
      </trkpt>
      <trkpt lat="44.0402" lon="2.00031">
        <ele>305.4</ele>
        <time>2021-09-05T11:02:07Z</time>
      </trkpt>
      <trkpt lat="44.04018" lon="2.00033">
        <ele>305.6</ele>
        <time>2021-09-05T11:02:08Z</time>
      </trkpt>
      <trkpt lat="44.04018" lon="2.00037">
        <ele>305.8</ele>
        <time>2021-09-05T11:02:09Z</time>
      </trkpt>
      <trkpt lat="44.04017" lon="2.0004">
        <ele>306.2</ele>
        <time>2021-09-05T11:02:10Z</time>
      </trkpt>
      <trkpt lat="44.04015" lon="2.00041">
        <ele>306.4</ele>
        <time>2021-09-05T11:02:11Z</time>
      </trkpt>
      <trkpt lat="44.04014" lon="2.00043">
        <ele>306.4</ele>
        <time>2021-09-05T11:02:12Z</time>
      </trkpt>
      <trkpt lat="44.04014" lon="2.00044">
        <ele>306.6</ele>
        <time>2021-09-05T11:02:13Z</time>
      </trkpt>
      <trkpt lat="44.04013" lon="2.00046">
        <ele>307</ele>
        <time>2021-09-05T11:02:14Z</time>
      </trkpt>
      <trkpt lat="44.04013" lon="2.00047">
        <ele>307.2</ele>
        <time>2021-09-05T11:02:15Z</time>
      </trkpt>
      <trkpt lat="44.04012" lon="2.00047">
        <ele>307.4</ele>
        <time>2021-09-05T11:02:16Z</time>
      </trkpt>
      <trkpt lat="44.04013" lon="2.0005">
        <ele>307.8</ele>
        <time>2021-09-05T11:02:17Z</time>
      </trkpt>
      <trkpt lat="44.04014" lon="2.00051">
        <ele>307.8</ele>
        <time>2021-09-05T11:02:18Z</time>
      </trkpt>
      <trkpt lat="44.04014" lon="2.00053">
        <ele>308.2</ele>
        <time>2021-09-05T11:02:19Z</time>
      </trkpt>
      <trkpt lat="44.04013" lon="2.00055">
        <ele>308.4</ele>
        <time>2021-09-05T11:02:20Z</time>
      </trkpt>
      <trkpt lat="44.04013" lon="2.00056">
        <ele>308.6</ele>
        <time>2021-09-05T11:02:21Z</time>
      </trkpt>
      <trkpt lat="44.04013" lon="2.00058">
        <ele>309</ele>
        <time>2021-09-05T11:02:22Z</time>
      </trkpt>
      <trkpt lat="44.04012" lon="2.0006">
        <ele>309.2</ele>
        <time>2021-09-05T11:02:23Z</time>
      </trkpt>
      <trkpt lat="44.04012" lon="2.00062">
        <ele>309.6</ele>
        <time>2021-09-05T11:02:24Z</time>
      </trkpt>
      <trkpt lat="44.04012" lon="2.00065">
        <ele>309.6</ele>
        <time>2021-09-05T11:02:25Z</time>
      </trkpt>
      <trkpt lat="44.04011" lon="2.00067">
        <ele>309.8</ele>
        <time>2021-09-05T11:02:26Z</time>
      </trkpt>
      <trkpt lat="44.04011" lon="2.00069">
        <ele>309.8</ele>
        <time>2021-09-05T11:02:27Z</time>
      </trkpt>
      <trkpt lat="44.04011" lon="2.00071">
        <ele>310.2</ele>
        <time>2021-09-05T11:02:28Z</time>
      </trkpt>
      <trkpt lat="44.04011" lon="2.00073">
        <ele>310.4</ele>
        <time>2021-09-05T11:02:29Z</time>
      </trkpt>
      <trkpt lat="44.0401" lon="2.00075">
        <ele>310.8</ele>
        <time>2021-09-05T11:02:30Z</time>
      </trkpt>
      <trkpt lat="44.04009" lon="2.00075">
        <ele>311</ele>
        <time>2021-09-05T11:02:31Z</time>
      </trkpt>
      <trkpt lat="44.04008" lon="2.00077">
        <ele>311</ele>
        <time>2021-09-05T11:02:32Z</time>
      </trkpt>
      <trkpt lat="44.04006" lon="2.00078">
        <ele>311.4</ele>
        <time>2021-09-05T11:02:33Z</time>
      </trkpt>
      <trkpt lat="44.04005" lon="2.00079">
        <ele>311.6</ele>
        <time>2021-09-05T11:02:34Z</time>
      </trkpt>
      <trkpt lat="44.04004" lon="2.00082">
        <ele>311.8</ele>
        <time>2021-09-05T11:02:35Z</time>
      </trkpt>
      <trkpt lat="44.04002" lon="2.00084">
        <ele>312</ele>
        <time>2021-09-05T11:02:36Z</time>
      </trkpt>
      <trkpt lat="44.04001" lon="2.00086">
        <ele>312.2</ele>
        <time>2021-09-05T11:02:37Z</time>
      </trkpt>
      <trkpt lat="44.04" lon="2.00088">
        <ele>312.4</ele>
        <time>2021-09-05T11:02:38Z</time>
      </trkpt>
      <trkpt lat="44.03999" lon="2.0009">
        <ele>312.6</ele>
        <time>2021-09-05T11:02:39Z</time>
      </trkpt>
      <trkpt lat="44.03998" lon="2.00092">
        <ele>312.8</ele>
        <time>2021-09-05T11:02:40Z</time>
      </trkpt>
      <trkpt lat="44.03998" lon="2.00092">
        <ele>313</ele>
        <time>2021-09-05T11:02:41Z</time>
      </trkpt>
      <trkpt lat="44.03997" lon="2.00093">
        <ele>313.2</ele>
        <time>2021-09-05T11:02:42Z</time>
      </trkpt>
      <trkpt lat="44.03996" lon="2.00095">
        <ele>313.4</ele>
        <time>2021-09-05T11:02:43Z</time>
      </trkpt>
      <trkpt lat="44.03995" lon="2.00096">
        <ele>313.6</ele>
        <time>2021-09-05T11:02:44Z</time>
      </trkpt>
      <trkpt lat="44.03993" lon="2.00097">
        <ele>313.8</ele>
        <time>2021-09-05T11:02:45Z</time>
      </trkpt>
      <trkpt lat="44.0399" lon="2.00098">
        <ele>314</ele>
        <time>2021-09-05T11:02:46Z</time>
      </trkpt>
      <trkpt lat="44.03989" lon="2.00098">
        <ele>314.2</ele>
        <time>2021-09-05T11:02:47Z</time>
      </trkpt>
      <trkpt lat="44.03989" lon="2.001">
        <ele>314.2</ele>
        <time>2021-09-05T11:02:48Z</time>
      </trkpt>
      <trkpt lat="44.03988" lon="2.00103">
        <ele>314.4</ele>
        <time>2021-09-05T11:02:49Z</time>
      </trkpt>
      <trkpt lat="44.03988" lon="2.00105">
        <ele>314.6</ele>
        <time>2021-09-05T11:02:50Z</time>
      </trkpt>
      <trkpt lat="44.03988" lon="2.00108">
        <ele>314.6</ele>
        <time>2021-09-05T11:02:51Z</time>
      </trkpt>
      <trkpt lat="44.03988" lon="2.0011">
        <ele>314.8</ele>
        <time>2021-09-05T11:02:52Z</time>
      </trkpt>
      <trkpt lat="44.03987" lon="2.00112">
        <ele>315</ele>
        <time>2021-09-05T11:02:53Z</time>
      </trkpt>
      <trkpt lat="44.03986" lon="2.00113">
        <ele>315</ele>
        <time>2021-09-05T11:02:54Z</time>
      </trkpt>
      <trkpt lat="44.03985" lon="2.00115">
        <ele>315.2</ele>
        <time>2021-09-05T11:02:55Z</time>
      </trkpt>
      <trkpt lat="44.03985" lon="2.00118">
        <ele>315.2</ele>
        <time>2021-09-05T11:02:56Z</time>
      </trkpt>
      <trkpt lat="44.03985" lon="2.00121">
        <ele>315.4</ele>
        <time>2021-09-05T11:02:57Z</time>
      </trkpt>
      <trkpt lat="44.03985" lon="2.00124">
        <ele>315.4</ele>
        <time>2021-09-05T11:02:58Z</time>
      </trkpt>
      <trkpt lat="44.03984" lon="2.00125">
        <ele>315.6</ele>
        <time>2021-09-05T11:02:59Z</time>
      </trkpt>
      <trkpt lat="44.03984" lon="2.00127">
        <ele>315.8</ele>
        <time>2021-09-05T11:03:00Z</time>
      </trkpt>
      <trkpt lat="44.03983" lon="2.00129">
        <ele>315.8</ele>
        <time>2021-09-05T11:03:01Z</time>
      </trkpt>
      <trkpt lat="44.03983" lon="2.00131">
        <ele>316</ele>
        <time>2021-09-05T11:03:02Z</time>
      </trkpt>
      <trkpt lat="44.03983" lon="2.00134">
        <ele>316.2</ele>
        <time>2021-09-05T11:03:03Z</time>
      </trkpt>
      <trkpt lat="44.03982" lon="2.00137">
        <ele>316.2</ele>
        <time>2021-09-05T11:03:04Z</time>
      </trkpt>
      <trkpt lat="44.03981" lon="2.00138">
        <ele>316.4</ele>
        <time>2021-09-05T11:03:05Z</time>
      </trkpt>
      <trkpt lat="44.0398" lon="2.0014">
        <ele>316.4</ele>
        <time>2021-09-05T11:03:06Z</time>
      </trkpt>
      <trkpt lat="44.03979" lon="2.00142">
        <ele>316.4</ele>
        <time>2021-09-05T11:03:07Z</time>
      </trkpt>
      <trkpt lat="44.03978" lon="2.00144">
        <ele>316.6</ele>
        <time>2021-09-05T11:03:08Z</time>
      </trkpt>
      <trkpt lat="44.03977" lon="2.00146">
        <ele>316.8</ele>
        <time>2021-09-05T11:03:09Z</time>
      </trkpt>
      <trkpt lat="44.03976" lon="2.00148">
        <ele>316.8</ele>
        <time>2021-09-05T11:03:10Z</time>
      </trkpt>
      <trkpt lat="44.03976" lon="2.00151">
        <ele>317</ele>
        <time>2021-09-05T11:03:11Z</time>
      </trkpt>
      <trkpt lat="44.03975" lon="2.00153">
        <ele>317.2</ele>
        <time>2021-09-05T11:03:12Z</time>
      </trkpt>
      <trkpt lat="44.03974" lon="2.00156">
        <ele>317.2</ele>
        <time>2021-09-05T11:03:13Z</time>
      </trkpt>
      <trkpt lat="44.03973" lon="2.00158">
        <ele>317.2</ele>
        <time>2021-09-05T11:03:14Z</time>
      </trkpt>
      <trkpt lat="44.03973" lon="2.0016">
        <ele>317.4</ele>
        <time>2021-09-05T11:03:15Z</time>
      </trkpt>
      <trkpt lat="44.03972" lon="2.00162">
        <ele>317.4</ele>
        <time>2021-09-05T11:03:16Z</time>
      </trkpt>
      <trkpt lat="44.03972" lon="2.00164">
        <ele>317.6</ele>
        <time>2021-09-05T11:03:17Z</time>
      </trkpt>
      <trkpt lat="44.03972" lon="2.00166">
        <ele>317.8</ele>
        <time>2021-09-05T11:03:18Z</time>
      </trkpt>
      <trkpt lat="44.03972" lon="2.00168">
        <ele>317.8</ele>
        <time>2021-09-05T11:03:19Z</time>
      </trkpt>
      <trkpt lat="44.03973" lon="2.00171">
        <ele>318</ele>
        <time>2021-09-05T11:03:20Z</time>
      </trkpt>
      <trkpt lat="44.03974" lon="2.00174">
        <ele>318</ele>
        <time>2021-09-05T11:03:21Z</time>
      </trkpt>
      <trkpt lat="44.03975" lon="2.00177">
        <ele>318.2</ele>
        <time>2021-09-05T11:03:22Z</time>
      </trkpt>
      <trkpt lat="44.03976" lon="2.0018">
        <ele>318.4</ele>
        <time>2021-09-05T11:03:23Z</time>
      </trkpt>
      <trkpt lat="44.03977" lon="2.00182">
        <ele>318.4</ele>
        <time>2021-09-05T11:03:24Z</time>
      </trkpt>
      <trkpt lat="44.03978" lon="2.00184">
        <ele>318.4</ele>
        <time>2021-09-05T11:03:25Z</time>
      </trkpt>
      <trkpt lat="44.03979" lon="2.00187">
        <ele>318.6</ele>
        <time>2021-09-05T11:03:26Z</time>
      </trkpt>
      <trkpt lat="44.03979" lon="2.00189">
        <ele>318.6</ele>
        <time>2021-09-05T11:03:27Z</time>
      </trkpt>
      <trkpt lat="44.03979" lon="2.00192">
        <ele>318.6</ele>
        <time>2021-09-05T11:03:28Z</time>
      </trkpt>
      <trkpt lat="44.0398" lon="2.00195">
        <ele>318.6</ele>
        <time>2021-09-05T11:03:29Z</time>
      </trkpt>
      <trkpt lat="44.03981" lon="2.00198">
        <ele>318.6</ele>
        <time>2021-09-05T11:03:30Z</time>
      </trkpt>
      <trkpt lat="44.03982" lon="2.00201">
        <ele>318.8</ele>
        <time>2021-09-05T11:03:31Z</time>
      </trkpt>
      <trkpt lat="44.0399" lon="2.0022">
        <ele>319</ele>
        <time>2021-09-05T11:03:37Z</time>
      </trkpt>
      <trkpt lat="44.03992" lon="2.00227">
        <ele>319</ele>
        <time>2021-09-05T11:03:39Z</time>
      </trkpt>
      <trkpt lat="44.03993" lon="2.0023">
        <ele>319.2</ele>
        <time>2021-09-05T11:03:40Z</time>
      </trkpt>
      <trkpt lat="44.03994" lon="2.00233">
        <ele>319.2</ele>
        <time>2021-09-05T11:03:41Z</time>
      </trkpt>
      <trkpt lat="44.03996" lon="2.00235">
        <ele>319.2</ele>
        <time>2021-09-05T11:03:42Z</time>
      </trkpt>
      <trkpt lat="44.03997" lon="2.00237">
        <ele>319.2</ele>
        <time>2021-09-05T11:03:43Z</time>
      </trkpt>
      <trkpt lat="44.03999" lon="2.0024">
        <ele>319.2</ele>
        <time>2021-09-05T11:03:44Z</time>
      </trkpt>
      <trkpt lat="44.04" lon="2.00242">
        <ele>319.2</ele>
        <time>2021-09-05T11:03:45Z</time>
      </trkpt>
      <trkpt lat="44.04" lon="2.00243">
        <ele>319.2</ele>
        <time>2021-09-05T11:03:46Z</time>
      </trkpt>
      <trkpt lat="44.04" lon="2.00244">
        <ele>319.2</ele>
        <time>2021-09-05T11:03:47Z</time>
      </trkpt>
      <trkpt lat="44.04" lon="2.00244">
        <ele>319.8</ele>
        <time>2021-09-05T11:05:37Z</time>
      </trkpt>
      <trkpt lat="44.04" lon="2.00244">
        <ele>319.8</ele>
        <time>2021-09-05T11:05:38Z</time>
      </trkpt>
      <trkpt lat="44.04001" lon="2.00246">
        <ele>319.8</ele>
        <time>2021-09-05T11:05:39Z</time>
      </trkpt>
      <trkpt lat="44.04002" lon="2.00247">
        <ele>319.6</ele>
        <time>2021-09-05T11:05:40Z</time>
      </trkpt>
      <trkpt lat="44.04004" lon="2.00249">
        <ele>319.6</ele>
        <time>2021-09-05T11:05:42Z</time>
      </trkpt>
      <trkpt lat="44.04007" lon="2.00255">
        <ele>319.4</ele>
        <time>2021-09-05T11:05:44Z</time>
      </trkpt>
      <trkpt lat="44.04018" lon="2.00282">
        <ele>318.6</ele>
        <time>2021-09-05T11:05:51Z</time>
      </trkpt>
      <trkpt lat="44.04021" lon="2.00292">
        <ele>318.4</ele>
        <time>2021-09-05T11:05:53Z</time>
      </trkpt>
      <trkpt lat="44.04025" lon="2.00302">
        <ele>318.2</ele>
        <time>2021-09-05T11:05:55Z</time>
      </trkpt>
      <trkpt lat="44.04027" lon="2.00306">
        <ele>318</ele>
        <time>2021-09-05T11:05:56Z</time>
      </trkpt>
      <trkpt lat="44.04029" lon="2.00311">
        <ele>318</ele>
        <time>2021-09-05T11:05:57Z</time>
      </trkpt>
      <trkpt lat="44.0403" lon="2.00315">
        <ele>318</ele>
        <time>2021-09-05T11:05:58Z</time>
      </trkpt>
      <trkpt lat="44.04035" lon="2.00328">
        <ele>318</ele>
        <time>2021-09-05T11:06:01Z</time>
      </trkpt>
      <trkpt lat="44.04036" lon="2.00333">
        <ele>318</ele>
        <time>2021-09-05T11:06:02Z</time>
      </trkpt>
      <trkpt lat="44.04048" lon="2.00371">
        <ele>318.2</ele>
        <time>2021-09-05T11:06:10Z</time>
      </trkpt>
      <trkpt lat="44.04063" lon="2.00413">
        <ele>318.8</ele>
        <time>2021-09-05T11:06:18Z</time>
      </trkpt>
      <trkpt lat="44.04065" lon="2.00418">
        <ele>319</ele>
        <time>2021-09-05T11:06:19Z</time>
      </trkpt>
      <trkpt lat="44.04066" lon="2.00423">
        <ele>319</ele>
        <time>2021-09-05T11:06:20Z</time>
      </trkpt>
      <trkpt lat="44.04068" lon="2.00428">
        <ele>319.2</ele>
        <time>2021-09-05T11:06:21Z</time>
      </trkpt>
      <trkpt lat="44.04076" lon="2.00448">
        <ele>319.4</ele>
        <time>2021-09-05T11:06:25Z</time>
      </trkpt>
      <trkpt lat="44.04078" lon="2.00454">
        <ele>319.4</ele>
        <time>2021-09-05T11:06:26Z</time>
      </trkpt>
      <trkpt lat="44.0408" lon="2.00459">
        <ele>319.6</ele>
        <time>2021-09-05T11:06:27Z</time>
      </trkpt>
      <trkpt lat="44.04082" lon="2.00464">
        <ele>319.6</ele>
        <time>2021-09-05T11:06:28Z</time>
      </trkpt>
      <trkpt lat="44.04084" lon="2.00469">
        <ele>319.8</ele>
        <time>2021-09-05T11:06:29Z</time>
      </trkpt>
      <trkpt lat="44.04086" lon="2.00474">
        <ele>320</ele>
        <time>2021-09-05T11:06:30Z</time>
      </trkpt>
      <trkpt lat="44.04088" lon="2.00478">
        <ele>320.2</ele>
        <time>2021-09-05T11:06:31Z</time>
      </trkpt>
      <trkpt lat="44.04089" lon="2.00483">
        <ele>320.2</ele>
        <time>2021-09-05T11:06:32Z</time>
      </trkpt>
      <trkpt lat="44.04091" lon="2.00488">
        <ele>320.4</ele>
        <time>2021-09-05T11:06:33Z</time>
      </trkpt>
      <trkpt lat="44.04093" lon="2.00493">
        <ele>320.6</ele>
        <time>2021-09-05T11:06:34Z</time>
      </trkpt>
      <trkpt lat="44.04097" lon="2.00505">
        <ele>321</ele>
        <time>2021-09-05T11:06:37Z</time>
      </trkpt>
      <trkpt lat="44.04099" lon="2.0051">
        <ele>321.2</ele>
        <time>2021-09-05T11:06:38Z</time>
      </trkpt>
      <trkpt lat="44.04101" lon="2.00514">
        <ele>321.2</ele>
        <time>2021-09-05T11:06:39Z</time>
      </trkpt>
      <trkpt lat="44.04102" lon="2.00518">
        <ele>321.2</ele>
        <time>2021-09-05T11:06:40Z</time>
      </trkpt>
      <trkpt lat="44.04104" lon="2.00523">
        <ele>321.2</ele>
        <time>2021-09-05T11:06:41Z</time>
      </trkpt>
      <trkpt lat="44.04106" lon="2.00527">
        <ele>321.4</ele>
        <time>2021-09-05T11:06:42Z</time>
      </trkpt>
      <trkpt lat="44.04109" lon="2.00536">
        <ele>321.6</ele>
        <time>2021-09-05T11:06:44Z</time>
      </trkpt>
      <trkpt lat="44.0411" lon="2.0054">
        <ele>321.6</ele>
        <time>2021-09-05T11:06:45Z</time>
      </trkpt>
      <trkpt lat="44.04112" lon="2.00544">
        <ele>321.6</ele>
        <time>2021-09-05T11:06:46Z</time>
      </trkpt>
      <trkpt lat="44.04113" lon="2.00549">
        <ele>321.8</ele>
        <time>2021-09-05T11:06:47Z</time>
      </trkpt>
      <trkpt lat="44.04114" lon="2.00553">
        <ele>321.8</ele>
        <time>2021-09-05T11:06:48Z</time>
      </trkpt>
      <trkpt lat="44.04116" lon="2.00558">
        <ele>321.8</ele>
        <time>2021-09-05T11:06:49Z</time>
      </trkpt>
      <trkpt lat="44.04117" lon="2.00562">
        <ele>322</ele>
        <time>2021-09-05T11:06:50Z</time>
      </trkpt>
      <trkpt lat="44.04118" lon="2.00566">
        <ele>322</ele>
        <time>2021-09-05T11:06:51Z</time>
      </trkpt>
      <trkpt lat="44.0412" lon="2.0057">
        <ele>322.2</ele>
        <time>2021-09-05T11:06:52Z</time>
      </trkpt>
      <trkpt lat="44.04121" lon="2.00573">
        <ele>322.2</ele>
        <time>2021-09-05T11:06:53Z</time>
      </trkpt>
      <trkpt lat="44.04123" lon="2.00576">
        <ele>322.2</ele>
        <time>2021-09-05T11:06:54Z</time>
      </trkpt>
      <trkpt lat="44.04125" lon="2.00578">
        <ele>322.4</ele>
        <time>2021-09-05T11:06:55Z</time>
      </trkpt>
      <trkpt lat="44.04127" lon="2.00579">
        <ele>322.4</ele>
        <time>2021-09-05T11:06:56Z</time>
      </trkpt>
      <trkpt lat="44.04129" lon="2.00581">
        <ele>322.6</ele>
        <time>2021-09-05T11:06:57Z</time>
      </trkpt>
      <trkpt lat="44.04132" lon="2.00582">
        <ele>322.6</ele>
        <time>2021-09-05T11:06:58Z</time>
      </trkpt>
      <trkpt lat="44.04134" lon="2.00583">
        <ele>322.8</ele>
        <time>2021-09-05T11:06:59Z</time>
      </trkpt>
      <trkpt lat="44.04143" lon="2.00593">
        <ele>323.2</ele>
        <time>2021-09-05T11:07:03Z</time>
      </trkpt>
      <trkpt lat="44.0416" lon="2.00615">
        <ele>323.2</ele>
        <time>2021-09-05T11:07:07Z</time>
      </trkpt>
      <trkpt lat="44.04172" lon="2.0063">
        <ele>323</ele>
        <time>2021-09-05T11:07:09Z</time>
      </trkpt>
      <trkpt lat="44.04184" lon="2.00648">
        <ele>321.6</ele>
        <time>2021-09-05T11:07:11Z</time>
      </trkpt>
      <trkpt lat="44.04191" lon="2.00658">
        <ele>320.8</ele>
        <time>2021-09-05T11:07:12Z</time>
      </trkpt>
      <trkpt lat="44.04204" lon="2.00677">
        <ele>319.4</ele>
        <time>2021-09-05T11:07:14Z</time>
      </trkpt>
      <trkpt lat="44.04211" lon="2.00686">
        <ele>319.2</ele>
        <time>2021-09-05T11:07:15Z</time>
      </trkpt>
      <trkpt lat="44.04218" lon="2.00695">
        <ele>318.2</ele>
        <time>2021-09-05T11:07:16Z</time>
      </trkpt>
      <trkpt lat="44.04224" lon="2.00703">
        <ele>317.2</ele>
        <time>2021-09-05T11:07:17Z</time>
      </trkpt>
      <trkpt lat="44.0423" lon="2.00708">
        <ele>316.6</ele>
        <time>2021-09-05T11:07:18Z</time>
      </trkpt>
      <trkpt lat="44.04236" lon="2.00712">
        <ele>315.2</ele>
        <time>2021-09-05T11:07:19Z</time>
      </trkpt>
      <trkpt lat="44.04244" lon="2.00714">
        <ele>314.8</ele>
        <time>2021-09-05T11:07:20Z</time>
      </trkpt>
      <trkpt lat="44.04251" lon="2.00714">
        <ele>313.8</ele>
        <time>2021-09-05T11:07:21Z</time>
      </trkpt>
      <trkpt lat="44.0426" lon="2.00713">
        <ele>313.4</ele>
        <time>2021-09-05T11:07:22Z</time>
      </trkpt>
      <trkpt lat="44.04268" lon="2.00711">
        <ele>312.6</ele>
        <time>2021-09-05T11:07:23Z</time>
      </trkpt>
      <trkpt lat="44.04294" lon="2.0071">
        <ele>311</ele>
        <time>2021-09-05T11:07:26Z</time>
      </trkpt>
      <trkpt lat="44.04302" lon="2.0071">
        <ele>310.8</ele>
        <time>2021-09-05T11:07:27Z</time>
      </trkpt>
      <trkpt lat="44.0431" lon="2.0071">
        <ele>310</ele>
        <time>2021-09-05T11:07:28Z</time>
      </trkpt>
      <trkpt lat="44.04319" lon="2.0071">
        <ele>309.8</ele>
        <time>2021-09-05T11:07:29Z</time>
      </trkpt>
      <trkpt lat="44.04344" lon="2.00712">
        <ele>308.6</ele>
        <time>2021-09-05T11:07:32Z</time>
      </trkpt>
      <trkpt lat="44.04361" lon="2.00713">
        <ele>308.2</ele>
        <time>2021-09-05T11:07:34Z</time>
      </trkpt>
      <trkpt lat="44.04396" lon="2.00712">
        <ele>307.6</ele>
        <time>2021-09-05T11:07:38Z</time>
      </trkpt>
      <trkpt lat="44.04414" lon="2.00711">
        <ele>306.2</ele>
        <time>2021-09-05T11:07:40Z</time>
      </trkpt>
      <trkpt lat="44.04423" lon="2.00711">
        <ele>305.4</ele>
        <time>2021-09-05T11:07:41Z</time>
      </trkpt>
      <trkpt lat="44.04432" lon="2.0071">
        <ele>304.8</ele>
        <time>2021-09-05T11:07:42Z</time>
      </trkpt>
      <trkpt lat="44.04442" lon="2.00709">
        <ele>304.6</ele>
        <time>2021-09-05T11:07:43Z</time>
      </trkpt>
      <trkpt lat="44.0445" lon="2.00707">
        <ele>304</ele>
        <time>2021-09-05T11:07:44Z</time>
      </trkpt>
      <trkpt lat="44.04459" lon="2.00705">
        <ele>303.6</ele>
        <time>2021-09-05T11:07:45Z</time>
      </trkpt>
      <trkpt lat="44.04468" lon="2.00703">
        <ele>302.8</ele>
        <time>2021-09-05T11:07:46Z</time>
      </trkpt>
      <trkpt lat="44.04477" lon="2.00701">
        <ele>302.2</ele>
        <time>2021-09-05T11:07:47Z</time>
      </trkpt>
      <trkpt lat="44.04494" lon="2.00698">
        <ele>300.2</ele>
        <time>2021-09-05T11:07:49Z</time>
      </trkpt>
      <trkpt lat="44.04512" lon="2.00696">
        <ele>299.2</ele>
        <time>2021-09-05T11:07:51Z</time>
      </trkpt>
      <trkpt lat="44.04521" lon="2.00695">
        <ele>299</ele>
        <time>2021-09-05T11:07:52Z</time>
      </trkpt>
      <trkpt lat="44.0454" lon="2.00692">
        <ele>297.4</ele>
        <time>2021-09-05T11:07:54Z</time>
      </trkpt>
      <trkpt lat="44.0455" lon="2.00691">
        <ele>296.6</ele>
        <time>2021-09-05T11:07:55Z</time>
      </trkpt>
      <trkpt lat="44.04559" lon="2.0069">
        <ele>296.4</ele>
        <time>2021-09-05T11:07:56Z</time>
      </trkpt>
      <trkpt lat="44.04568" lon="2.0069">
        <ele>295.6</ele>
        <time>2021-09-05T11:07:57Z</time>
      </trkpt>
      <trkpt lat="44.04586" lon="2.0069">
        <ele>294.4</ele>
        <time>2021-09-05T11:07:59Z</time>
      </trkpt>
      <trkpt lat="44.04595" lon="2.00691">
        <ele>294</ele>
        <time>2021-09-05T11:08:00Z</time>
      </trkpt>
      <trkpt lat="44.04603" lon="2.00693">
        <ele>293.6</ele>
        <time>2021-09-05T11:08:01Z</time>
      </trkpt>
      <trkpt lat="44.0461" lon="2.00696">
        <ele>293.2</ele>
        <time>2021-09-05T11:08:02Z</time>
      </trkpt>
      <trkpt lat="44.04624" lon="2.00702">
        <ele>292.4</ele>
        <time>2021-09-05T11:08:04Z</time>
      </trkpt>
      <trkpt lat="44.04632" lon="2.00704">
        <ele>291.8</ele>
        <time>2021-09-05T11:08:05Z</time>
      </trkpt>
      <trkpt lat="44.0464" lon="2.00703">
        <ele>291.2</ele>
        <time>2021-09-05T11:08:06Z</time>
      </trkpt>
      <trkpt lat="44.04647" lon="2.007">
        <ele>289.8</ele>
        <time>2021-09-05T11:08:07Z</time>
      </trkpt>
      <trkpt lat="44.04655" lon="2.00696">
        <ele>288.8</ele>
        <time>2021-09-05T11:08:08Z</time>
      </trkpt>
      <trkpt lat="44.04664" lon="2.00691">
        <ele>287.8</ele>
        <time>2021-09-05T11:08:09Z</time>
      </trkpt>
      <trkpt lat="44.0468" lon="2.00681">
        <ele>287</ele>
        <time>2021-09-05T11:08:11Z</time>
      </trkpt>
      <trkpt lat="44.04687" lon="2.00675">
        <ele>286.8</ele>
        <time>2021-09-05T11:08:12Z</time>
      </trkpt>
      <trkpt lat="44.04701" lon="2.00661">
        <ele>286.2</ele>
        <time>2021-09-05T11:08:14Z</time>
      </trkpt>
      <trkpt lat="44.04708" lon="2.00654">
        <ele>285.6</ele>
        <time>2021-09-05T11:08:15Z</time>
      </trkpt>
      <trkpt lat="44.04716" lon="2.00648">
        <ele>284.8</ele>
        <time>2021-09-05T11:08:16Z</time>
      </trkpt>
      <trkpt lat="44.04724" lon="2.00642">
        <ele>284.2</ele>
        <time>2021-09-05T11:08:17Z</time>
      </trkpt>
      <trkpt lat="44.04731" lon="2.00638">
        <ele>283.6</ele>
        <time>2021-09-05T11:08:18Z</time>
      </trkpt>
      <trkpt lat="44.04739" lon="2.00636">
        <ele>283.4</ele>
        <time>2021-09-05T11:08:19Z</time>
      </trkpt>
      <trkpt lat="44.04748" lon="2.00635">
        <ele>283</ele>
        <time>2021-09-05T11:08:20Z</time>
      </trkpt>
      <trkpt lat="44.04757" lon="2.00634">
        <ele>282.8</ele>
        <time>2021-09-05T11:08:21Z</time>
      </trkpt>
      <trkpt lat="44.0478" lon="2.00629">
        <ele>282.2</ele>
        <time>2021-09-05T11:08:24Z</time>
      </trkpt>
      <trkpt lat="44.04788" lon="2.00629">
        <ele>282</ele>
        <time>2021-09-05T11:08:25Z</time>
      </trkpt>
      <trkpt lat="44.04795" lon="2.00631">
        <ele>281.8</ele>
        <time>2021-09-05T11:08:26Z</time>
      </trkpt>
      <trkpt lat="44.04802" lon="2.00634">
        <ele>281.6</ele>
        <time>2021-09-05T11:08:27Z</time>
      </trkpt>
      <trkpt lat="44.04808" lon="2.0064">
        <ele>281.2</ele>
        <time>2021-09-05T11:08:28Z</time>
      </trkpt>
      <trkpt lat="44.04816" lon="2.00647">
        <ele>280.4</ele>
        <time>2021-09-05T11:08:29Z</time>
      </trkpt>
      <trkpt lat="44.04824" lon="2.00654">
        <ele>279.8</ele>
        <time>2021-09-05T11:08:30Z</time>
      </trkpt>
      <trkpt lat="44.0484" lon="2.00666">
        <ele>279.2</ele>
        <time>2021-09-05T11:08:32Z</time>
      </trkpt>
      <trkpt lat="44.04874" lon="2.0068">
        <ele>278</ele>
        <time>2021-09-05T11:08:36Z</time>
      </trkpt>
      <trkpt lat="44.04893" lon="2.00685">
        <ele>276.8</ele>
        <time>2021-09-05T11:08:38Z</time>
      </trkpt>
      <trkpt lat="44.04921" lon="2.0069">
        <ele>275.8</ele>
        <time>2021-09-05T11:08:41Z</time>
      </trkpt>
      <trkpt lat="44.04929" lon="2.0069">
        <ele>275.6</ele>
        <time>2021-09-05T11:08:42Z</time>
      </trkpt>
      <trkpt lat="44.04938" lon="2.00689">
        <ele>275.2</ele>
        <time>2021-09-05T11:08:43Z</time>
      </trkpt>
      <trkpt lat="44.04947" lon="2.00687">
        <ele>275.2</ele>
        <time>2021-09-05T11:08:44Z</time>
      </trkpt>
      <trkpt lat="44.04955" lon="2.00685">
        <ele>274.6</ele>
        <time>2021-09-05T11:08:45Z</time>
      </trkpt>
      <trkpt lat="44.04962" lon="2.00683">
        <ele>273.8</ele>
        <time>2021-09-05T11:08:46Z</time>
      </trkpt>
      <trkpt lat="44.0497" lon="2.00678">
        <ele>273.6</ele>
        <time>2021-09-05T11:08:47Z</time>
      </trkpt>
      <trkpt lat="44.04977" lon="2.00673">
        <ele>272.6</ele>
        <time>2021-09-05T11:08:48Z</time>
      </trkpt>
      <trkpt lat="44.04984" lon="2.00669">
        <ele>272.4</ele>
        <time>2021-09-05T11:08:49Z</time>
      </trkpt>
      <trkpt lat="44.04991" lon="2.00663">
        <ele>272</ele>
        <time>2021-09-05T11:08:50Z</time>
      </trkpt>
      <trkpt lat="44.04998" lon="2.00659">
        <ele>271.8</ele>
        <time>2021-09-05T11:08:51Z</time>
      </trkpt>
      <trkpt lat="44.05003" lon="2.00654">
        <ele>271</ele>
        <time>2021-09-05T11:08:52Z</time>
      </trkpt>
      <trkpt lat="44.05007" lon="2.00649">
        <ele>270.6</ele>
        <time>2021-09-05T11:08:53Z</time>
      </trkpt>
      <trkpt lat="44.05009" lon="2.00645">
        <ele>270.6</ele>
        <time>2021-09-05T11:08:54Z</time>
      </trkpt>
      <trkpt lat="44.05011" lon="2.00642">
        <ele>270.4</ele>
        <time>2021-09-05T11:08:55Z</time>
      </trkpt>
      <trkpt lat="44.05013" lon="2.00643">
        <ele>270</ele>
        <time>2021-09-05T11:08:56Z</time>
      </trkpt>
      <trkpt lat="44.05015" lon="2.00647">
        <ele>269.6</ele>
        <time>2021-09-05T11:08:57Z</time>
      </trkpt>
      <trkpt lat="44.05017" lon="2.00652">
        <ele>269.4</ele>
        <time>2021-09-05T11:08:58Z</time>
      </trkpt>
      <trkpt lat="44.05019" lon="2.00656">
        <ele>269.2</ele>
        <time>2021-09-05T11:08:59Z</time>
      </trkpt>
      <trkpt lat="44.0502" lon="2.0066">
        <ele>268.8</ele>
        <time>2021-09-05T11:09:00Z</time>
      </trkpt>
      <trkpt lat="44.05023" lon="2.00663">
        <ele>268.4</ele>
        <time>2021-09-05T11:09:01Z</time>
      </trkpt>
      <trkpt lat="44.05024" lon="2.00667">
        <ele>268.2</ele>
        <time>2021-09-05T11:09:02Z</time>
      </trkpt>
      <trkpt lat="44.05027" lon="2.00671">
        <ele>268</ele>
        <time>2021-09-05T11:09:04Z</time>
      </trkpt>
      <trkpt lat="44.05029" lon="2.00674">
        <ele>268</ele>
        <time>2021-09-05T11:09:05Z</time>
      </trkpt>
      <trkpt lat="44.0503" lon="2.00678">
        <ele>268</ele>
        <time>2021-09-05T11:09:06Z</time>
      </trkpt>
      <trkpt lat="44.05032" lon="2.00682">
        <ele>268</ele>
        <time>2021-09-05T11:09:07Z</time>
      </trkpt>
      <trkpt lat="44.05033" lon="2.00685">
        <ele>268</ele>
        <time>2021-09-05T11:09:08Z</time>
      </trkpt>
      <trkpt lat="44.05035" lon="2.00687">
        <ele>268.2</ele>
        <time>2021-09-05T11:09:09Z</time>
      </trkpt>
      <trkpt lat="44.05036" lon="2.00688">
        <ele>268.4</ele>
        <time>2021-09-05T11:09:10Z</time>
      </trkpt>
      <trkpt lat="44.05037" lon="2.00691">
        <ele>268.6</ele>
        <time>2021-09-05T11:09:11Z</time>
      </trkpt>
      <trkpt lat="44.05038" lon="2.00693">
        <ele>268.8</ele>
        <time>2021-09-05T11:09:12Z</time>
      </trkpt>
      <trkpt lat="44.05039" lon="2.00696">
        <ele>269.2</ele>
        <time>2021-09-05T11:09:13Z</time>
      </trkpt>
      <trkpt lat="44.0504" lon="2.00699">
        <ele>269.2</ele>
        <time>2021-09-05T11:09:14Z</time>
      </trkpt>
      <trkpt lat="44.0504" lon="2.00701">
        <ele>269.6</ele>
        <time>2021-09-05T11:09:15Z</time>
      </trkpt>
      <trkpt lat="44.0504" lon="2.00703">
        <ele>269.8</ele>
        <time>2021-09-05T11:09:16Z</time>
      </trkpt>
      <trkpt lat="44.0504" lon="2.00712">
        <ele>270.4</ele>
        <time>2021-09-05T11:09:19Z</time>
      </trkpt>
      <trkpt lat="44.0504" lon="2.00715">
        <ele>270.6</ele>
        <time>2021-09-05T11:09:20Z</time>
      </trkpt>
      <trkpt lat="44.05038" lon="2.00719">
        <ele>271.2</ele>
        <time>2021-09-05T11:09:22Z</time>
      </trkpt>
      <trkpt lat="44.05037" lon="2.00721">
        <ele>271.4</ele>
        <time>2021-09-05T11:09:23Z</time>
      </trkpt>
      <trkpt lat="44.05036" lon="2.00724">
        <ele>271.6</ele>
        <time>2021-09-05T11:09:24Z</time>
      </trkpt>
      <trkpt lat="44.05036" lon="2.00726">
        <ele>271.6</ele>
        <time>2021-09-05T11:09:25Z</time>
      </trkpt>
      <trkpt lat="44.05035" lon="2.00729">
        <ele>272</ele>
        <time>2021-09-05T11:09:26Z</time>
      </trkpt>
      <trkpt lat="44.05032" lon="2.00736">
        <ele>272.4</ele>
        <time>2021-09-05T11:09:29Z</time>
      </trkpt>
      <trkpt lat="44.05031" lon="2.00738">
        <ele>272.6</ele>
        <time>2021-09-05T11:09:30Z</time>
      </trkpt>
      <trkpt lat="44.0503" lon="2.00741">
        <ele>273</ele>
        <time>2021-09-05T11:09:31Z</time>
      </trkpt>
      <trkpt lat="44.05029" lon="2.00743">
        <ele>273</ele>
        <time>2021-09-05T11:09:32Z</time>
      </trkpt>
      <trkpt lat="44.05029" lon="2.00746">
        <ele>273.2</ele>
        <time>2021-09-05T11:09:33Z</time>
      </trkpt>
      <trkpt lat="44.05028" lon="2.00748">
        <ele>273.4</ele>
        <time>2021-09-05T11:09:34Z</time>
      </trkpt>
      <trkpt lat="44.05028" lon="2.00751">
        <ele>273.4</ele>
        <time>2021-09-05T11:09:35Z</time>
      </trkpt>
      <trkpt lat="44.05027" lon="2.00754">
        <ele>273.6</ele>
        <time>2021-09-05T11:09:36Z</time>
      </trkpt>
      <trkpt lat="44.05026" lon="2.00756">
        <ele>273.8</ele>
        <time>2021-09-05T11:09:37Z</time>
      </trkpt>
      <trkpt lat="44.05025" lon="2.00759">
        <ele>274.2</ele>
        <time>2021-09-05T11:09:38Z</time>
      </trkpt>
      <trkpt lat="44.05024" lon="2.00762">
        <ele>274.2</ele>
        <time>2021-09-05T11:09:39Z</time>
      </trkpt>
      <trkpt lat="44.05023" lon="2.00764">
        <ele>274.2</ele>
        <time>2021-09-05T11:09:40Z</time>
      </trkpt>
      <trkpt lat="44.05022" lon="2.00766">
        <ele>274.4</ele>
        <time>2021-09-05T11:09:41Z</time>
      </trkpt>
      <trkpt lat="44.05021" lon="2.00769">
        <ele>274.4</ele>
        <time>2021-09-05T11:09:42Z</time>
      </trkpt>
      <trkpt lat="44.05021" lon="2.00772">
        <ele>274.6</ele>
        <time>2021-09-05T11:09:43Z</time>
      </trkpt>
      <trkpt lat="44.05021" lon="2.00776">
        <ele>274.6</ele>
        <time>2021-09-05T11:09:44Z</time>
      </trkpt>
      <trkpt lat="44.0502" lon="2.00779">
        <ele>274.8</ele>
        <time>2021-09-05T11:09:45Z</time>
      </trkpt>
      <trkpt lat="44.0502" lon="2.00781">
        <ele>274.8</ele>
        <time>2021-09-05T11:09:46Z</time>
      </trkpt>
      <trkpt lat="44.05019" lon="2.00785">
        <ele>275</ele>
        <time>2021-09-05T11:09:47Z</time>
      </trkpt>
      <trkpt lat="44.05019" lon="2.00788">
        <ele>275.2</ele>
        <time>2021-09-05T11:09:48Z</time>
      </trkpt>
      <trkpt lat="44.05019" lon="2.00792">
        <ele>275.4</ele>
        <time>2021-09-05T11:09:49Z</time>
      </trkpt>
      <trkpt lat="44.05019" lon="2.00795">
        <ele>275.6</ele>
        <time>2021-09-05T11:09:50Z</time>
      </trkpt>
      <trkpt lat="44.05018" lon="2.00798">
        <ele>275.6</ele>
        <time>2021-09-05T11:09:51Z</time>
      </trkpt>
      <trkpt lat="44.05018" lon="2.008">
        <ele>275.8</ele>
        <time>2021-09-05T11:09:52Z</time>
      </trkpt>
      <trkpt lat="44.05017" lon="2.00804">
        <ele>275.8</ele>
        <time>2021-09-05T11:09:53Z</time>
      </trkpt>
      <trkpt lat="44.05017" lon="2.00807">
        <ele>275.8</ele>
        <time>2021-09-05T11:09:54Z</time>
      </trkpt>
      <trkpt lat="44.05017" lon="2.00809">
        <ele>276</ele>
        <time>2021-09-05T11:09:55Z</time>
      </trkpt>
      <trkpt lat="44.05018" lon="2.00812">
        <ele>276</ele>
        <time>2021-09-05T11:09:56Z</time>
      </trkpt>
      <trkpt lat="44.05018" lon="2.00816">
        <ele>276</ele>
        <time>2021-09-05T11:09:57Z</time>
      </trkpt>
      <trkpt lat="44.05019" lon="2.00821">
        <ele>276.2</ele>
        <time>2021-09-05T11:09:58Z</time>
      </trkpt>
      <trkpt lat="44.05019" lon="2.00825">
        <ele>276.4</ele>
        <time>2021-09-05T11:09:59Z</time>
      </trkpt>
      <trkpt lat="44.05019" lon="2.00829">
        <ele>276.4</ele>
        <time>2021-09-05T11:10:00Z</time>
      </trkpt>
      <trkpt lat="44.05019" lon="2.00833">
        <ele>276.6</ele>
        <time>2021-09-05T11:10:01Z</time>
      </trkpt>
      <trkpt lat="44.05018" lon="2.00836">
        <ele>276.6</ele>
        <time>2021-09-05T11:10:02Z</time>
      </trkpt>
      <trkpt lat="44.05018" lon="2.0084">
        <ele>276.6</ele>
        <time>2021-09-05T11:10:03Z</time>
      </trkpt>
      <trkpt lat="44.05018" lon="2.00845">
        <ele>276.6</ele>
        <time>2021-09-05T11:10:04Z</time>
      </trkpt>
      <trkpt lat="44.05018" lon="2.00849">
        <ele>276.6</ele>
        <time>2021-09-05T11:10:05Z</time>
      </trkpt>
      <trkpt lat="44.05017" lon="2.00854">
        <ele>276.6</ele>
        <time>2021-09-05T11:10:06Z</time>
      </trkpt>
      <trkpt lat="44.05017" lon="2.0086">
        <ele>276.8</ele>
        <time>2021-09-05T11:10:07Z</time>
      </trkpt>
      <trkpt lat="44.05017" lon="2.00865">
        <ele>276.8</ele>
        <time>2021-09-05T11:10:08Z</time>
      </trkpt>
      <trkpt lat="44.05016" lon="2.00872">
        <ele>276.8</ele>
        <time>2021-09-05T11:10:09Z</time>
      </trkpt>
      <trkpt lat="44.05016" lon="2.00878">
        <ele>277</ele>
        <time>2021-09-05T11:10:10Z</time>
      </trkpt>
      <trkpt lat="44.05011" lon="2.00907">
        <ele>277.4</ele>
        <time>2021-09-05T11:10:17Z</time>
      </trkpt>
      <trkpt lat="44.0501" lon="2.00911">
        <ele>277.4</ele>
        <time>2021-09-05T11:10:18Z</time>
      </trkpt>
      <trkpt lat="44.05009" lon="2.00916">
        <ele>277.6</ele>
        <time>2021-09-05T11:10:19Z</time>
      </trkpt>
      <trkpt lat="44.05008" lon="2.00919">
        <ele>277.8</ele>
        <time>2021-09-05T11:10:20Z</time>
      </trkpt>
      <trkpt lat="44.05007" lon="2.00922">
        <ele>278</ele>
        <time>2021-09-05T11:10:21Z</time>
      </trkpt>
      <trkpt lat="44.05005" lon="2.00929">
        <ele>278.2</ele>
        <time>2021-09-05T11:10:23Z</time>
      </trkpt>
      <trkpt lat="44.05004" lon="2.00932">
        <ele>278.8</ele>
        <time>2021-09-05T11:10:24Z</time>
      </trkpt>
      <trkpt lat="44.05001" lon="2.00939">
        <ele>279.4</ele>
        <time>2021-09-05T11:10:26Z</time>
      </trkpt>
      <trkpt lat="44.04999" lon="2.00944">
        <ele>279.6</ele>
        <time>2021-09-05T11:10:27Z</time>
      </trkpt>
      <trkpt lat="44.04998" lon="2.00947">
        <ele>280</ele>
        <time>2021-09-05T11:10:28Z</time>
      </trkpt>
      <trkpt lat="44.04997" lon="2.00951">
        <ele>280.2</ele>
        <time>2021-09-05T11:10:29Z</time>
      </trkpt>
      <trkpt lat="44.04996" lon="2.00954">
        <ele>280.4</ele>
        <time>2021-09-05T11:10:30Z</time>
      </trkpt>
      <trkpt lat="44.04994" lon="2.00957">
        <ele>280.6</ele>
        <time>2021-09-05T11:10:31Z</time>
      </trkpt>
      <trkpt lat="44.04992" lon="2.0096">
        <ele>280.8</ele>
        <time>2021-09-05T11:10:32Z</time>
      </trkpt>
      <trkpt lat="44.0499" lon="2.00964">
        <ele>281.2</ele>
        <time>2021-09-05T11:10:33Z</time>
      </trkpt>
      <trkpt lat="44.04989" lon="2.00966">
        <ele>281.2</ele>
        <time>2021-09-05T11:10:34Z</time>
      </trkpt>
      <trkpt lat="44.04988" lon="2.00969">
        <ele>281.6</ele>
        <time>2021-09-05T11:10:35Z</time>
      </trkpt>
      <trkpt lat="44.04986" lon="2.00972">
        <ele>281.8</ele>
        <time>2021-09-05T11:10:36Z</time>
      </trkpt>
      <trkpt lat="44.04984" lon="2.00976">
        <ele>282.2</ele>
        <time>2021-09-05T11:10:37Z</time>
      </trkpt>
      <trkpt lat="44.04982" lon="2.00979">
        <ele>282.2</ele>
        <time>2021-09-05T11:10:38Z</time>
      </trkpt>
      <trkpt lat="44.0498" lon="2.00982">
        <ele>282.4</ele>
        <time>2021-09-05T11:10:39Z</time>
      </trkpt>
      <trkpt lat="44.04978" lon="2.00985">
        <ele>282.6</ele>
        <time>2021-09-05T11:10:40Z</time>
      </trkpt>
      <trkpt lat="44.04976" lon="2.00987">
        <ele>282.6</ele>
        <time>2021-09-05T11:10:41Z</time>
      </trkpt>
      <trkpt lat="44.04974" lon="2.0099">
        <ele>282.8</ele>
        <time>2021-09-05T11:10:42Z</time>
      </trkpt>
      <trkpt lat="44.04971" lon="2.00992">
        <ele>283</ele>
        <time>2021-09-05T11:10:43Z</time>
      </trkpt>
      <trkpt lat="44.04969" lon="2.00995">
        <ele>283.4</ele>
        <time>2021-09-05T11:10:44Z</time>
      </trkpt>
      <trkpt lat="44.04967" lon="2.00998">
        <ele>283.4</ele>
        <time>2021-09-05T11:10:45Z</time>
      </trkpt>
      <trkpt lat="44.04964" lon="2.01001">
        <ele>283.6</ele>
        <time>2021-09-05T11:10:46Z</time>
      </trkpt>
      <trkpt lat="44.04961" lon="2.01003">
        <ele>283.8</ele>
        <time>2021-09-05T11:10:47Z</time>
      </trkpt>
      <trkpt lat="44.04959" lon="2.01007">
        <ele>283.8</ele>
        <time>2021-09-05T11:10:48Z</time>
      </trkpt>
      <trkpt lat="44.04956" lon="2.0101">
        <ele>283.8</ele>
        <time>2021-09-05T11:10:49Z</time>
      </trkpt>
      <trkpt lat="44.04953" lon="2.01013">
        <ele>283.8</ele>
        <time>2021-09-05T11:10:50Z</time>
      </trkpt>
      <trkpt lat="44.04949" lon="2.01015">
        <ele>284</ele>
        <time>2021-09-05T11:10:51Z</time>
      </trkpt>
      <trkpt lat="44.04946" lon="2.01018">
        <ele>284</ele>
        <time>2021-09-05T11:10:52Z</time>
      </trkpt>
      <trkpt lat="44.04942" lon="2.01019">
        <ele>284</ele>
        <time>2021-09-05T11:10:53Z</time>
      </trkpt>
      <trkpt lat="44.04939" lon="2.01021">
        <ele>284</ele>
        <time>2021-09-05T11:10:54Z</time>
      </trkpt>
      <trkpt lat="44.04935" lon="2.01022">
        <ele>284</ele>
        <time>2021-09-05T11:10:55Z</time>
      </trkpt>
      <trkpt lat="44.04932" lon="2.01023">
        <ele>284</ele>
        <time>2021-09-05T11:10:56Z</time>
      </trkpt>
      <trkpt lat="44.04928" lon="2.01023">
        <ele>284.2</ele>
        <time>2021-09-05T11:10:57Z</time>
      </trkpt>
      <trkpt lat="44.04925" lon="2.01023">
        <ele>284.2</ele>
        <time>2021-09-05T11:10:58Z</time>
      </trkpt>
      <trkpt lat="44.04922" lon="2.01023">
        <ele>284.4</ele>
        <time>2021-09-05T11:10:59Z</time>
      </trkpt>
      <trkpt lat="44.0492" lon="2.01024">
        <ele>284.8</ele>
        <time>2021-09-05T11:11:00Z</time>
      </trkpt>
      <trkpt lat="44.04918" lon="2.01025">
        <ele>285</ele>
        <time>2021-09-05T11:11:01Z</time>
      </trkpt>
      <trkpt lat="44.04916" lon="2.01027">
        <ele>285.2</ele>
        <time>2021-09-05T11:11:02Z</time>
      </trkpt>
      <trkpt lat="44.04915" lon="2.01029">
        <ele>285.4</ele>
        <time>2021-09-05T11:11:03Z</time>
      </trkpt>
      <trkpt lat="44.04913" lon="2.01032">
        <ele>285.6</ele>
        <time>2021-09-05T11:11:04Z</time>
      </trkpt>
      <trkpt lat="44.04911" lon="2.01033">
        <ele>285.8</ele>
        <time>2021-09-05T11:11:05Z</time>
      </trkpt>
      <trkpt lat="44.04908" lon="2.01035">
        <ele>285.8</ele>
        <time>2021-09-05T11:11:06Z</time>
      </trkpt>
      <trkpt lat="44.04906" lon="2.01037">
        <ele>286</ele>
        <time>2021-09-05T11:11:07Z</time>
      </trkpt>
      <trkpt lat="44.04904" lon="2.0104">
        <ele>286</ele>
        <time>2021-09-05T11:11:08Z</time>
      </trkpt>
      <trkpt lat="44.04901" lon="2.01042">
        <ele>286.2</ele>
        <time>2021-09-05T11:11:09Z</time>
      </trkpt>
      <trkpt lat="44.04898" lon="2.01048">
        <ele>286.4</ele>
        <time>2021-09-05T11:11:10Z</time>
      </trkpt>
      <trkpt lat="44.04896" lon="2.01051">
        <ele>286.6</ele>
        <time>2021-09-05T11:11:11Z</time>
      </trkpt>
      <trkpt lat="44.04894" lon="2.01054">
        <ele>287.2</ele>
        <time>2021-09-05T11:11:12Z</time>
      </trkpt>
      <trkpt lat="44.04892" lon="2.01057">
        <ele>287.4</ele>
        <time>2021-09-05T11:11:13Z</time>
      </trkpt>
      <trkpt lat="44.04892" lon="2.0106">
        <ele>287.8</ele>
        <time>2021-09-05T11:11:14Z</time>
      </trkpt>
      <trkpt lat="44.04891" lon="2.01063">
        <ele>288.2</ele>
        <time>2021-09-05T11:11:15Z</time>
      </trkpt>
      <trkpt lat="44.04891" lon="2.01067">
        <ele>288.4</ele>
        <time>2021-09-05T11:11:16Z</time>
      </trkpt>
      <trkpt lat="44.0489" lon="2.01071">
        <ele>288.6</ele>
        <time>2021-09-05T11:11:17Z</time>
      </trkpt>
      <trkpt lat="44.04888" lon="2.01075">
        <ele>288.8</ele>
        <time>2021-09-05T11:11:18Z</time>
      </trkpt>
      <trkpt lat="44.04887" lon="2.01076">
        <ele>288.8</ele>
        <time>2021-09-05T11:11:19Z</time>
      </trkpt>
      <trkpt lat="44.04885" lon="2.01078">
        <ele>289</ele>
        <time>2021-09-05T11:11:20Z</time>
      </trkpt>
      <trkpt lat="44.04884" lon="2.01079">
        <ele>289.2</ele>
        <time>2021-09-05T11:11:21Z</time>
      </trkpt>
      <trkpt lat="44.04884" lon="2.01084">
        <ele>289.4</ele>
        <time>2021-09-05T11:11:22Z</time>
      </trkpt>
      <trkpt lat="44.04883" lon="2.01088">
        <ele>289.4</ele>
        <time>2021-09-05T11:11:23Z</time>
      </trkpt>
      <trkpt lat="44.04882" lon="2.01091">
        <ele>289.6</ele>
        <time>2021-09-05T11:11:24Z</time>
      </trkpt>
      <trkpt lat="44.04882" lon="2.01094">
        <ele>289.6</ele>
        <time>2021-09-05T11:11:25Z</time>
      </trkpt>
      <trkpt lat="44.04882" lon="2.01097">
        <ele>289.6</ele>
        <time>2021-09-05T11:11:26Z</time>
      </trkpt>
      <trkpt lat="44.04882" lon="2.01099">
        <ele>290</ele>
        <time>2021-09-05T11:11:27Z</time>
      </trkpt>
      <trkpt lat="44.04881" lon="2.01101">
        <ele>290.2</ele>
        <time>2021-09-05T11:11:28Z</time>
      </trkpt>
      <trkpt lat="44.0488" lon="2.01104">
        <ele>290.4</ele>
        <time>2021-09-05T11:11:29Z</time>
      </trkpt>
      <trkpt lat="44.04879" lon="2.01107">
        <ele>290.6</ele>
        <time>2021-09-05T11:11:30Z</time>
      </trkpt>
      <trkpt lat="44.0488" lon="2.0111">
        <ele>290.8</ele>
        <time>2021-09-05T11:11:31Z</time>
      </trkpt>
      <trkpt lat="44.0488" lon="2.01112">
        <ele>291</ele>
        <time>2021-09-05T11:11:32Z</time>
      </trkpt>
      <trkpt lat="44.0488" lon="2.01115">
        <ele>291.2</ele>
        <time>2021-09-05T11:11:33Z</time>
      </trkpt>
      <trkpt lat="44.0488" lon="2.01117">
        <ele>291.6</ele>
        <time>2021-09-05T11:11:34Z</time>
      </trkpt>
      <trkpt lat="44.0488" lon="2.01118">
        <ele>291.8</ele>
        <time>2021-09-05T11:11:35Z</time>
      </trkpt>
      <trkpt lat="44.0488" lon="2.01119">
        <ele>292.2</ele>
        <time>2021-09-05T11:11:36Z</time>
      </trkpt>
      <trkpt lat="44.0488" lon="2.01121">
        <ele>292.2</ele>
        <time>2021-09-05T11:11:37Z</time>
      </trkpt>
      <trkpt lat="44.0488" lon="2.01122">
        <ele>292.2</ele>
        <time>2021-09-05T11:11:38Z</time>
      </trkpt>
      <trkpt lat="44.0488" lon="2.01125">
        <ele>292.4</ele>
        <time>2021-09-05T11:11:39Z</time>
      </trkpt>
      <trkpt lat="44.0488" lon="2.01126">
        <ele>292.6</ele>
        <time>2021-09-05T11:11:40Z</time>
      </trkpt>
      <trkpt lat="44.0488" lon="2.01128">
        <ele>292.6</ele>
        <time>2021-09-05T11:11:41Z</time>
      </trkpt>
      <trkpt lat="44.0488" lon="2.0113">
        <ele>292.8</ele>
        <time>2021-09-05T11:11:42Z</time>
      </trkpt>
      <trkpt lat="44.04879" lon="2.01131">
        <ele>293</ele>
        <time>2021-09-05T11:11:43Z</time>
      </trkpt>
      <trkpt lat="44.04879" lon="2.01133">
        <ele>293.2</ele>
        <time>2021-09-05T11:11:44Z</time>
      </trkpt>
      <trkpt lat="44.04879" lon="2.01135">
        <ele>293.2</ele>
        <time>2021-09-05T11:11:45Z</time>
      </trkpt>
      <trkpt lat="44.04879" lon="2.01137">
        <ele>293.6</ele>
        <time>2021-09-05T11:11:46Z</time>
      </trkpt>
      <trkpt lat="44.04879" lon="2.01139">
        <ele>293.6</ele>
        <time>2021-09-05T11:11:47Z</time>
      </trkpt>
      <trkpt lat="44.04879" lon="2.01141">
        <ele>294</ele>
        <time>2021-09-05T11:11:48Z</time>
      </trkpt>
      <trkpt lat="44.04879" lon="2.01142">
        <ele>294</ele>
        <time>2021-09-05T11:11:49Z</time>
      </trkpt>
      <trkpt lat="44.04879" lon="2.01144">
        <ele>294.2</ele>
        <time>2021-09-05T11:11:50Z</time>
      </trkpt>
      <trkpt lat="44.04879" lon="2.01146">
        <ele>294.4</ele>
        <time>2021-09-05T11:11:51Z</time>
      </trkpt>
      <trkpt lat="44.04879" lon="2.01147">
        <ele>294.4</ele>
        <time>2021-09-05T11:11:52Z</time>
      </trkpt>
      <trkpt lat="44.04879" lon="2.01149">
        <ele>294.8</ele>
        <time>2021-09-05T11:11:53Z</time>
      </trkpt>
      <trkpt lat="44.0488" lon="2.01151">
        <ele>294.8</ele>
        <time>2021-09-05T11:11:54Z</time>
      </trkpt>
      <trkpt lat="44.0488" lon="2.01153">
        <ele>295.2</ele>
        <time>2021-09-05T11:11:55Z</time>
      </trkpt>
      <trkpt lat="44.0488" lon="2.01155">
        <ele>295.2</ele>
        <time>2021-09-05T11:11:56Z</time>
      </trkpt>
      <trkpt lat="44.0488" lon="2.01156">
        <ele>295.4</ele>
        <time>2021-09-05T11:11:57Z</time>
      </trkpt>
      <trkpt lat="44.0488" lon="2.01158">
        <ele>295.4</ele>
        <time>2021-09-05T11:11:58Z</time>
      </trkpt>
      <trkpt lat="44.0488" lon="2.0116">
        <ele>295.8</ele>
        <time>2021-09-05T11:11:59Z</time>
      </trkpt>
      <trkpt lat="44.04881" lon="2.01162">
        <ele>295.8</ele>
        <time>2021-09-05T11:12:00Z</time>
      </trkpt>
      <trkpt lat="44.04881" lon="2.01165">
        <ele>296</ele>
        <time>2021-09-05T11:12:01Z</time>
      </trkpt>
      <trkpt lat="44.04881" lon="2.01167">
        <ele>296.2</ele>
        <time>2021-09-05T11:12:02Z</time>
      </trkpt>
      <trkpt lat="44.04881" lon="2.01169">
        <ele>296.4</ele>
        <time>2021-09-05T11:12:03Z</time>
      </trkpt>
      <trkpt lat="44.04881" lon="2.01171">
        <ele>296.4</ele>
        <time>2021-09-05T11:12:04Z</time>
      </trkpt>
      <trkpt lat="44.04881" lon="2.01172">
        <ele>296.6</ele>
        <time>2021-09-05T11:12:05Z</time>
      </trkpt>
      <trkpt lat="44.04881" lon="2.01174">
        <ele>296.8</ele>
        <time>2021-09-05T11:12:06Z</time>
      </trkpt>
      <trkpt lat="44.04881" lon="2.01177">
        <ele>296.8</ele>
        <time>2021-09-05T11:12:07Z</time>
      </trkpt>
      <trkpt lat="44.04882" lon="2.01179">
        <ele>297</ele>
        <time>2021-09-05T11:12:08Z</time>
      </trkpt>
      <trkpt lat="44.04882" lon="2.01181">
        <ele>297.2</ele>
        <time>2021-09-05T11:12:09Z</time>
      </trkpt>
      <trkpt lat="44.04882" lon="2.01183">
        <ele>297.4</ele>
        <time>2021-09-05T11:12:10Z</time>
      </trkpt>
      <trkpt lat="44.04882" lon="2.01185">
        <ele>297.6</ele>
        <time>2021-09-05T11:12:11Z</time>
      </trkpt>
      <trkpt lat="44.04882" lon="2.01187">
        <ele>297.6</ele>
        <time>2021-09-05T11:12:12Z</time>
      </trkpt>
      <trkpt lat="44.04882" lon="2.01189">
        <ele>297.8</ele>
        <time>2021-09-05T11:12:13Z</time>
      </trkpt>
      <trkpt lat="44.04882" lon="2.01192">
        <ele>297.8</ele>
        <time>2021-09-05T11:12:14Z</time>
      </trkpt>
      <trkpt lat="44.04882" lon="2.01194">
        <ele>298</ele>
        <time>2021-09-05T11:12:15Z</time>
      </trkpt>
      <trkpt lat="44.04882" lon="2.01196">
        <ele>298</ele>
        <time>2021-09-05T11:12:16Z</time>
      </trkpt>
      <trkpt lat="44.04882" lon="2.01198">
        <ele>298.2</ele>
        <time>2021-09-05T11:12:17Z</time>
      </trkpt>
      <trkpt lat="44.04883" lon="2.01201">
        <ele>298.4</ele>
        <time>2021-09-05T11:12:18Z</time>
      </trkpt>
      <trkpt lat="44.04883" lon="2.01203">
        <ele>298.6</ele>
        <time>2021-09-05T11:12:19Z</time>
      </trkpt>
      <trkpt lat="44.04883" lon="2.01205">
        <ele>298.8</ele>
        <time>2021-09-05T11:12:20Z</time>
      </trkpt>
      <trkpt lat="44.04883" lon="2.01207">
        <ele>298.8</ele>
        <time>2021-09-05T11:12:21Z</time>
      </trkpt>
      <trkpt lat="44.04883" lon="2.01209">
        <ele>299</ele>
        <time>2021-09-05T11:12:22Z</time>
      </trkpt>
      <trkpt lat="44.04883" lon="2.01211">
        <ele>299</ele>
        <time>2021-09-05T11:12:23Z</time>
      </trkpt>
      <trkpt lat="44.04883" lon="2.01213">
        <ele>299.2</ele>
        <time>2021-09-05T11:12:24Z</time>
      </trkpt>
      <trkpt lat="44.04883" lon="2.01215">
        <ele>299.4</ele>
        <time>2021-09-05T11:12:25Z</time>
      </trkpt>
      <trkpt lat="44.04883" lon="2.01219">
        <ele>299.6</ele>
        <time>2021-09-05T11:12:26Z</time>
      </trkpt>
      <trkpt lat="44.04883" lon="2.01221">
        <ele>299.6</ele>
        <time>2021-09-05T11:12:27Z</time>
      </trkpt>
      <trkpt lat="44.04883" lon="2.01223">
        <ele>299.8</ele>
        <time>2021-09-05T11:12:28Z</time>
      </trkpt>
      <trkpt lat="44.04883" lon="2.01225">
        <ele>300</ele>
        <time>2021-09-05T11:12:29Z</time>
      </trkpt>
      <trkpt lat="44.04884" lon="2.01227">
        <ele>300</ele>
        <time>2021-09-05T11:12:30Z</time>
      </trkpt>
      <trkpt lat="44.04885" lon="2.0123">
        <ele>300.2</ele>
        <time>2021-09-05T11:12:31Z</time>
      </trkpt>
      <trkpt lat="44.04886" lon="2.01232">
        <ele>300.4</ele>
        <time>2021-09-05T11:12:32Z</time>
      </trkpt>
      <trkpt lat="44.04887" lon="2.01234">
        <ele>300.6</ele>
        <time>2021-09-05T11:12:33Z</time>
      </trkpt>
      <trkpt lat="44.04888" lon="2.01235">
        <ele>301</ele>
        <time>2021-09-05T11:12:34Z</time>
      </trkpt>
      <trkpt lat="44.04889" lon="2.01236">
        <ele>301.2</ele>
        <time>2021-09-05T11:12:35Z</time>
      </trkpt>
      <trkpt lat="44.0489" lon="2.01236">
        <ele>301.2</ele>
        <time>2021-09-05T11:12:36Z</time>
      </trkpt>
      <trkpt lat="44.04892" lon="2.01236">
        <ele>301.4</ele>
        <time>2021-09-05T11:12:37Z</time>
      </trkpt>
      <trkpt lat="44.04893" lon="2.01236">
        <ele>302</ele>
        <time>2021-09-05T11:12:38Z</time>
      </trkpt>
      <trkpt lat="44.04894" lon="2.01234">
        <ele>302</ele>
        <time>2021-09-05T11:12:39Z</time>
      </trkpt>
      <trkpt lat="44.04895" lon="2.01232">
        <ele>302.2</ele>
        <time>2021-09-05T11:12:40Z</time>
      </trkpt>
      <trkpt lat="44.04896" lon="2.0123">
        <ele>302.6</ele>
        <time>2021-09-05T11:12:41Z</time>
      </trkpt>
      <trkpt lat="44.04897" lon="2.01228">
        <ele>302.8</ele>
        <time>2021-09-05T11:12:42Z</time>
      </trkpt>
      <trkpt lat="44.04897" lon="2.01226">
        <ele>303</ele>
        <time>2021-09-05T11:12:43Z</time>
      </trkpt>
      <trkpt lat="44.04898" lon="2.01224">
        <ele>303</ele>
        <time>2021-09-05T11:12:44Z</time>
      </trkpt>
      <trkpt lat="44.04898" lon="2.01222">
        <ele>303.2</ele>
        <time>2021-09-05T11:12:45Z</time>
      </trkpt>
      <trkpt lat="44.04899" lon="2.0122">
        <ele>303.4</ele>
        <time>2021-09-05T11:12:46Z</time>
      </trkpt>
      <trkpt lat="44.049" lon="2.01218">
        <ele>303.4</ele>
        <time>2021-09-05T11:12:47Z</time>
      </trkpt>
      <trkpt lat="44.04901" lon="2.01216">
        <ele>303.6</ele>
        <time>2021-09-05T11:12:48Z</time>
      </trkpt>
      <trkpt lat="44.04902" lon="2.01215">
        <ele>303.8</ele>
        <time>2021-09-05T11:12:49Z</time>
      </trkpt>
      <trkpt lat="44.04904" lon="2.01214">
        <ele>303.8</ele>
        <time>2021-09-05T11:12:50Z</time>
      </trkpt>
      <trkpt lat="44.04905" lon="2.01211">
        <ele>304</ele>
        <time>2021-09-05T11:12:51Z</time>
      </trkpt>
      <trkpt lat="44.04906" lon="2.0121">
        <ele>304.2</ele>
        <time>2021-09-05T11:12:52Z</time>
      </trkpt>
      <trkpt lat="44.04907" lon="2.01209">
        <ele>304.4</ele>
        <time>2021-09-05T11:12:53Z</time>
      </trkpt>
      <trkpt lat="44.04908" lon="2.01208">
        <ele>304.6</ele>
        <time>2021-09-05T11:12:54Z</time>
      </trkpt>
      <trkpt lat="44.0491" lon="2.01207">
        <ele>304.6</ele>
        <time>2021-09-05T11:12:55Z</time>
      </trkpt>
      <trkpt lat="44.04911" lon="2.01206">
        <ele>304.8</ele>
        <time>2021-09-05T11:12:56Z</time>
      </trkpt>
      <trkpt lat="44.04912" lon="2.01205">
        <ele>304.8</ele>
        <time>2021-09-05T11:12:57Z</time>
      </trkpt>
      <trkpt lat="44.04914" lon="2.01203">
        <ele>305.2</ele>
        <time>2021-09-05T11:12:58Z</time>
      </trkpt>
      <trkpt lat="44.04915" lon="2.01201">
        <ele>305.4</ele>
        <time>2021-09-05T11:12:59Z</time>
      </trkpt>
      <trkpt lat="44.04916" lon="2.012">
        <ele>305.6</ele>
        <time>2021-09-05T11:13:00Z</time>
      </trkpt>
      <trkpt lat="44.04917" lon="2.01199">
        <ele>305.8</ele>
        <time>2021-09-05T11:13:01Z</time>
      </trkpt>
      <trkpt lat="44.04919" lon="2.01198">
        <ele>306.2</ele>
        <time>2021-09-05T11:13:02Z</time>
      </trkpt>
      <trkpt lat="44.0492" lon="2.01196">
        <ele>306.4</ele>
        <time>2021-09-05T11:13:03Z</time>
      </trkpt>
      <trkpt lat="44.04921" lon="2.01195">
        <ele>306.6</ele>
        <time>2021-09-05T11:13:04Z</time>
      </trkpt>
      <trkpt lat="44.04922" lon="2.01193">
        <ele>307</ele>
        <time>2021-09-05T11:13:05Z</time>
      </trkpt>
      <trkpt lat="44.04923" lon="2.01192">
        <ele>307.2</ele>
        <time>2021-09-05T11:13:06Z</time>
      </trkpt>
      <trkpt lat="44.04924" lon="2.01189">
        <ele>307.2</ele>
        <time>2021-09-05T11:13:07Z</time>
      </trkpt>
      <trkpt lat="44.04925" lon="2.01188">
        <ele>307.4</ele>
        <time>2021-09-05T11:13:08Z</time>
      </trkpt>
      <trkpt lat="44.04926" lon="2.01187">
        <ele>307.4</ele>
        <time>2021-09-05T11:13:09Z</time>
      </trkpt>
      <trkpt lat="44.04927" lon="2.01185">
        <ele>307.6</ele>
        <time>2021-09-05T11:13:10Z</time>
      </trkpt>
      <trkpt lat="44.04929" lon="2.01184">
        <ele>307.8</ele>
        <time>2021-09-05T11:13:11Z</time>
      </trkpt>
      <trkpt lat="44.04931" lon="2.01184">
        <ele>308</ele>
        <time>2021-09-05T11:13:12Z</time>
      </trkpt>
      <trkpt lat="44.04932" lon="2.01183">
        <ele>308.2</ele>
        <time>2021-09-05T11:13:13Z</time>
      </trkpt>
      <trkpt lat="44.04933" lon="2.01181">
        <ele>308.6</ele>
        <time>2021-09-05T11:13:14Z</time>
      </trkpt>
      <trkpt lat="44.04934" lon="2.01181">
        <ele>309</ele>
        <time>2021-09-05T11:13:15Z</time>
      </trkpt>
      <trkpt lat="44.04936" lon="2.01181">
        <ele>309.2</ele>
        <time>2021-09-05T11:13:16Z</time>
      </trkpt>
      <trkpt lat="44.04937" lon="2.0118">
        <ele>309.6</ele>
        <time>2021-09-05T11:13:17Z</time>
      </trkpt>
      <trkpt lat="44.04938" lon="2.01181">
        <ele>310</ele>
        <time>2021-09-05T11:13:18Z</time>
      </trkpt>
      <trkpt lat="44.04939" lon="2.01181">
        <ele>310.2</ele>
        <time>2021-09-05T11:13:19Z</time>
      </trkpt>
      <trkpt lat="44.0494" lon="2.01181">
        <ele>310.4</ele>
        <time>2021-09-05T11:13:20Z</time>
      </trkpt>
      <trkpt lat="44.04941" lon="2.01182">
        <ele>310.6</ele>
        <time>2021-09-05T11:13:21Z</time>
      </trkpt>
      <trkpt lat="44.04943" lon="2.01181">
        <ele>310.8</ele>
        <time>2021-09-05T11:13:22Z</time>
      </trkpt>
      <trkpt lat="44.04944" lon="2.01181">
        <ele>310.8</ele>
        <time>2021-09-05T11:13:23Z</time>
      </trkpt>
      <trkpt lat="44.04946" lon="2.01181">
        <ele>311</ele>
        <time>2021-09-05T11:13:24Z</time>
      </trkpt>
      <trkpt lat="44.04947" lon="2.01181">
        <ele>311.2</ele>
        <time>2021-09-05T11:13:25Z</time>
      </trkpt>
      <trkpt lat="44.04948" lon="2.01182">
        <ele>311.6</ele>
        <time>2021-09-05T11:13:26Z</time>
      </trkpt>
      <trkpt lat="44.0495" lon="2.01182">
        <ele>311.6</ele>
        <time>2021-09-05T11:13:27Z</time>
      </trkpt>
      <trkpt lat="44.04951" lon="2.01183">
        <ele>312</ele>
        <time>2021-09-05T11:13:28Z</time>
      </trkpt>
      <trkpt lat="44.04952" lon="2.01184">
        <ele>312.2</ele>
        <time>2021-09-05T11:13:29Z</time>
      </trkpt>
      <trkpt lat="44.04953" lon="2.01186">
        <ele>312.4</ele>
        <time>2021-09-05T11:13:30Z</time>
      </trkpt>
      <trkpt lat="44.04954" lon="2.01187">
        <ele>312.6</ele>
        <time>2021-09-05T11:13:31Z</time>
      </trkpt>
      <trkpt lat="44.04955" lon="2.0119">
        <ele>312.6</ele>
        <time>2021-09-05T11:13:32Z</time>
      </trkpt>
      <trkpt lat="44.04955" lon="2.01192">
        <ele>312.6</ele>
        <time>2021-09-05T11:13:33Z</time>
      </trkpt>
      <trkpt lat="44.04955" lon="2.01194">
        <ele>312.8</ele>
        <time>2021-09-05T11:13:34Z</time>
      </trkpt>
      <trkpt lat="44.04956" lon="2.01196">
        <ele>312.8</ele>
        <time>2021-09-05T11:13:35Z</time>
      </trkpt>
      <trkpt lat="44.04957" lon="2.01197">
        <ele>313</ele>
        <time>2021-09-05T11:13:36Z</time>
      </trkpt>
      <trkpt lat="44.04957" lon="2.01199">
        <ele>313.2</ele>
        <time>2021-09-05T11:13:37Z</time>
      </trkpt>
      <trkpt lat="44.04958" lon="2.01201">
        <ele>313.4</ele>
        <time>2021-09-05T11:13:38Z</time>
      </trkpt>
      <trkpt lat="44.04958" lon="2.01203">
        <ele>313.8</ele>
        <time>2021-09-05T11:13:39Z</time>
      </trkpt>
      <trkpt lat="44.04959" lon="2.01205">
        <ele>314.2</ele>
        <time>2021-09-05T11:13:40Z</time>
      </trkpt>
      <trkpt lat="44.04959" lon="2.01207">
        <ele>314.4</ele>
        <time>2021-09-05T11:13:41Z</time>
      </trkpt>
      <trkpt lat="44.0496" lon="2.01209">
        <ele>314.6</ele>
        <time>2021-09-05T11:13:42Z</time>
      </trkpt>
      <trkpt lat="44.0496" lon="2.01211">
        <ele>314.8</ele>
        <time>2021-09-05T11:13:43Z</time>
      </trkpt>
      <trkpt lat="44.0496" lon="2.01213">
        <ele>315.4</ele>
        <time>2021-09-05T11:13:44Z</time>
      </trkpt>
      <trkpt lat="44.0496" lon="2.01216">
        <ele>315.4</ele>
        <time>2021-09-05T11:13:45Z</time>
      </trkpt>
      <trkpt lat="44.04961" lon="2.01218">
        <ele>315.6</ele>
        <time>2021-09-05T11:13:46Z</time>
      </trkpt>
      <trkpt lat="44.04961" lon="2.0122">
        <ele>315.8</ele>
        <time>2021-09-05T11:13:47Z</time>
      </trkpt>
      <trkpt lat="44.04962" lon="2.01222">
        <ele>315.8</ele>
        <time>2021-09-05T11:13:48Z</time>
      </trkpt>
      <trkpt lat="44.04962" lon="2.01224">
        <ele>316</ele>
        <time>2021-09-05T11:13:49Z</time>
      </trkpt>
      <trkpt lat="44.04963" lon="2.01226">
        <ele>316.2</ele>
        <time>2021-09-05T11:13:50Z</time>
      </trkpt>
      <trkpt lat="44.04964" lon="2.01228">
        <ele>316.4</ele>
        <time>2021-09-05T11:13:51Z</time>
      </trkpt>
      <trkpt lat="44.04965" lon="2.01231">
        <ele>316.6</ele>
        <time>2021-09-05T11:13:52Z</time>
      </trkpt>
      <trkpt lat="44.04965" lon="2.01232">
        <ele>316.8</ele>
        <time>2021-09-05T11:13:53Z</time>
      </trkpt>
      <trkpt lat="44.04966" lon="2.01234">
        <ele>317</ele>
        <time>2021-09-05T11:13:54Z</time>
      </trkpt>
      <trkpt lat="44.04966" lon="2.01235">
        <ele>317.2</ele>
        <time>2021-09-05T11:13:55Z</time>
      </trkpt>
      <trkpt lat="44.04966" lon="2.01237">
        <ele>317.4</ele>
        <time>2021-09-05T11:13:56Z</time>
      </trkpt>
      <trkpt lat="44.04967" lon="2.01238">
        <ele>317.6</ele>
        <time>2021-09-05T11:13:57Z</time>
      </trkpt>
      <trkpt lat="44.04968" lon="2.0124">
        <ele>317.8</ele>
        <time>2021-09-05T11:13:58Z</time>
      </trkpt>
      <trkpt lat="44.04968" lon="2.01242">
        <ele>317.8</ele>
        <time>2021-09-05T11:13:59Z</time>
      </trkpt>
      <trkpt lat="44.04969" lon="2.01243">
        <ele>318</ele>
        <time>2021-09-05T11:14:00Z</time>
      </trkpt>
      <trkpt lat="44.0497" lon="2.01247">
        <ele>318</ele>
        <time>2021-09-05T11:14:01Z</time>
      </trkpt>
      <trkpt lat="44.0497" lon="2.01249">
        <ele>318.2</ele>
        <time>2021-09-05T11:14:02Z</time>
      </trkpt>
      <trkpt lat="44.0497" lon="2.01249">
        <ele>318.2</ele>
        <time>2021-09-05T11:14:03Z</time>
      </trkpt>
      <trkpt lat="44.04971" lon="2.01252">
        <ele>318.4</ele>
        <time>2021-09-05T11:14:04Z</time>
      </trkpt>
      <trkpt lat="44.04972" lon="2.01254">
        <ele>318.4</ele>
        <time>2021-09-05T11:14:05Z</time>
      </trkpt>
      <trkpt lat="44.04973" lon="2.01257">
        <ele>318.4</ele>
        <time>2021-09-05T11:14:06Z</time>
      </trkpt>
      <trkpt lat="44.04974" lon="2.01259">
        <ele>318.6</ele>
        <time>2021-09-05T11:14:07Z</time>
      </trkpt>
      <trkpt lat="44.04974" lon="2.01262">
        <ele>318.6</ele>
        <time>2021-09-05T11:14:08Z</time>
      </trkpt>
      <trkpt lat="44.04976" lon="2.01264">
        <ele>318.8</ele>
        <time>2021-09-05T11:14:09Z</time>
      </trkpt>
      <trkpt lat="44.04977" lon="2.01267">
        <ele>318.8</ele>
        <time>2021-09-05T11:14:10Z</time>
      </trkpt>
      <trkpt lat="44.04978" lon="2.01272">
        <ele>318.8</ele>
        <time>2021-09-05T11:14:11Z</time>
      </trkpt>
      <trkpt lat="44.04978" lon="2.01272">
        <ele>319</ele>
        <time>2021-09-05T11:14:12Z</time>
      </trkpt>
      <trkpt lat="44.04978" lon="2.01275">
        <ele>319</ele>
        <time>2021-09-05T11:14:13Z</time>
      </trkpt>
      <trkpt lat="44.04978" lon="2.01277">
        <ele>319</ele>
        <time>2021-09-05T11:14:14Z</time>
      </trkpt>
      <trkpt lat="44.04979" lon="2.0128">
        <ele>319</ele>
        <time>2021-09-05T11:14:15Z</time>
      </trkpt>
      <trkpt lat="44.04981" lon="2.01285">
        <ele>319</ele>
        <time>2021-09-05T11:14:16Z</time>
      </trkpt>
      <trkpt lat="44.04981" lon="2.01285">
        <ele>319.2</ele>
        <time>2021-09-05T11:14:17Z</time>
      </trkpt>
      <trkpt lat="44.04982" lon="2.01288">
        <ele>319.2</ele>
        <time>2021-09-05T11:14:18Z</time>
      </trkpt>
      <trkpt lat="44.04983" lon="2.0129">
        <ele>319.2</ele>
        <time>2021-09-05T11:14:19Z</time>
      </trkpt>
      <trkpt lat="44.04984" lon="2.01292">
        <ele>319.4</ele>
        <time>2021-09-05T11:14:20Z</time>
      </trkpt>
      <trkpt lat="44.04985" lon="2.01295">
        <ele>319.4</ele>
        <time>2021-09-05T11:14:21Z</time>
      </trkpt>
      <trkpt lat="44.04987" lon="2.013">
        <ele>319.4</ele>
        <time>2021-09-05T11:14:22Z</time>
      </trkpt>
      <trkpt lat="44.04989" lon="2.01303">
        <ele>319.4</ele>
        <time>2021-09-05T11:14:23Z</time>
      </trkpt>
      <trkpt lat="44.04991" lon="2.01308">
        <ele>319.6</ele>
        <time>2021-09-05T11:14:25Z</time>
      </trkpt>
      <trkpt lat="44.05" lon="2.01327">
        <ele>320</ele>
        <time>2021-09-05T11:14:33Z</time>
      </trkpt>
      <trkpt lat="44.05006" lon="2.01339">
        <ele>320.2</ele>
        <time>2021-09-05T11:14:36Z</time>
      </trkpt>
      <trkpt lat="44.05015" lon="2.01361">
        <ele>320.4</ele>
        <time>2021-09-05T11:14:44Z</time>
      </trkpt>
      <trkpt lat="44.05019" lon="2.01369">
        <ele>320.6</ele>
        <time>2021-09-05T11:14:47Z</time>
      </trkpt>
      <trkpt lat="44.05028" lon="2.01389">
        <ele>321.2</ele>
        <time>2021-09-05T11:14:54Z</time>
      </trkpt>
      <trkpt lat="44.0503" lon="2.01395">
        <ele>321.4</ele>
        <time>2021-09-05T11:14:56Z</time>
      </trkpt>
      <trkpt lat="44.05033" lon="2.014">
        <ele>321.6</ele>
        <time>2021-09-05T11:14:58Z</time>
      </trkpt>
      <trkpt lat="44.05042" lon="2.01421">
        <ele>322.2</ele>
        <time>2021-09-05T11:15:05Z</time>
      </trkpt>
      <trkpt lat="44.05044" lon="2.01424">
        <ele>322.4</ele>
        <time>2021-09-05T11:15:06Z</time>
      </trkpt>
      <trkpt lat="44.05047" lon="2.01433">
        <ele>322.6</ele>
        <time>2021-09-05T11:15:09Z</time>
      </trkpt>
      <trkpt lat="44.05049" lon="2.01436">
        <ele>322.6</ele>
        <time>2021-09-05T11:15:10Z</time>
      </trkpt>
      <trkpt lat="44.05054" lon="2.01449">
        <ele>323</ele>
        <time>2021-09-05T11:15:14Z</time>
      </trkpt>
      <trkpt lat="44.05058" lon="2.01463">
        <ele>323.2</ele>
        <time>2021-09-05T11:15:18Z</time>
      </trkpt>
      <trkpt lat="44.0506" lon="2.0147">
        <ele>323.2</ele>
        <time>2021-09-05T11:15:20Z</time>
      </trkpt>
      <trkpt lat="44.05061" lon="2.01474">
        <ele>323.4</ele>
        <time>2021-09-05T11:15:21Z</time>
      </trkpt>
      <trkpt lat="44.05062" lon="2.01481">
        <ele>323.4</ele>
        <time>2021-09-05T11:15:23Z</time>
      </trkpt>
      <trkpt lat="44.05063" lon="2.01516">
        <ele>324.2</ele>
        <time>2021-09-05T11:15:31Z</time>
      </trkpt>
      <trkpt lat="44.05063" lon="2.01532">
        <ele>324.2</ele>
        <time>2021-09-05T11:15:35Z</time>
      </trkpt>
      <trkpt lat="44.05063" lon="2.01532">
        <ele>324.2</ele>
        <time>2021-09-05T11:15:36Z</time>
      </trkpt>
      <trkpt lat="44.05064" lon="2.01555">
        <ele>324.4</ele>
        <time>2021-09-05T11:15:40Z</time>
      </trkpt>
      <trkpt lat="44.05064" lon="2.0156">
        <ele>324.4</ele>
        <time>2021-09-05T11:15:42Z</time>
      </trkpt>
      <trkpt lat="44.05066" lon="2.01573">
        <ele>324.4</ele>
        <time>2021-09-05T11:15:44Z</time>
      </trkpt>
      <trkpt lat="44.05066" lon="2.01578">
        <ele>324.6</ele>
        <time>2021-09-05T11:15:45Z</time>
      </trkpt>
      <trkpt lat="44.05068" lon="2.016">
        <ele>325</ele>
        <time>2021-09-05T11:15:51Z</time>
      </trkpt>
      <trkpt lat="44.0507" lon="2.01613">
        <ele>325.2</ele>
        <time>2021-09-05T11:15:53Z</time>
      </trkpt>
      <trkpt lat="44.0507" lon="2.01617">
        <ele>325.4</ele>
        <time>2021-09-05T11:15:54Z</time>
      </trkpt>
      <trkpt lat="44.0507" lon="2.01622">
        <ele>325.6</ele>
        <time>2021-09-05T11:15:55Z</time>
      </trkpt>
      <trkpt lat="44.05071" lon="2.01626">
        <ele>325.6</ele>
        <time>2021-09-05T11:15:57Z</time>
      </trkpt>
      <trkpt lat="44.05071" lon="2.01638">
        <ele>325.8</ele>
        <time>2021-09-05T11:15:59Z</time>
      </trkpt>
      <trkpt lat="44.05073" lon="2.01665">
        <ele>326</ele>
        <time>2021-09-05T11:16:05Z</time>
      </trkpt>
      <trkpt lat="44.05073" lon="2.01669">
        <ele>326</ele>
        <time>2021-09-05T11:16:06Z</time>
      </trkpt>
      <trkpt lat="44.05073" lon="2.01674">
        <ele>326</ele>
        <time>2021-09-05T11:16:07Z</time>
      </trkpt>
      <trkpt lat="44.05072" lon="2.01692">
        <ele>326.2</ele>
        <time>2021-09-05T11:16:11Z</time>
      </trkpt>
      <trkpt lat="44.0507" lon="2.01712">
        <ele>326.4</ele>
        <time>2021-09-05T11:16:15Z</time>
      </trkpt>
      <trkpt lat="44.05067" lon="2.01738">
        <ele>326.8</ele>
        <time>2021-09-05T11:16:20Z</time>
      </trkpt>
      <trkpt lat="44.05064" lon="2.01765">
        <ele>326.8</ele>
        <time>2021-09-05T11:16:26Z</time>
      </trkpt>
      <trkpt lat="44.0506" lon="2.01793">
        <ele>326.6</ele>
        <time>2021-09-05T11:16:30Z</time>
      </trkpt>
      <trkpt lat="44.05057" lon="2.0181">
        <ele>326.8</ele>
        <time>2021-09-05T11:16:33Z</time>
      </trkpt>
      <trkpt lat="44.05057" lon="2.0181">
        <ele>326.8</ele>
        <time>2021-09-05T11:16:34Z</time>
      </trkpt>
      <trkpt lat="44.05056" lon="2.01821">
        <ele>326.6</ele>
        <time>2021-09-05T11:16:35Z</time>
      </trkpt>
      <trkpt lat="44.05054" lon="2.01826">
        <ele>326.8</ele>
        <time>2021-09-05T11:16:36Z</time>
      </trkpt>
      <trkpt lat="44.05054" lon="2.0183">
        <ele>326.8</ele>
        <time>2021-09-05T11:16:37Z</time>
      </trkpt>
      <trkpt lat="44.05053" lon="2.01835">
        <ele>326.8</ele>
        <time>2021-09-05T11:16:38Z</time>
      </trkpt>
      <trkpt lat="44.05052" lon="2.01839">
        <ele>326.8</ele>
        <time>2021-09-05T11:16:39Z</time>
      </trkpt>
      <trkpt lat="44.05052" lon="2.01843">
        <ele>326.8</ele>
        <time>2021-09-05T11:16:40Z</time>
      </trkpt>
      <trkpt lat="44.05052" lon="2.01846">
        <ele>326.8</ele>
        <time>2021-09-05T11:16:41Z</time>
      </trkpt>
      <trkpt lat="44.05054" lon="2.0185">
        <ele>326.8</ele>
        <time>2021-09-05T11:16:42Z</time>
      </trkpt>
      <trkpt lat="44.05055" lon="2.01852">
        <ele>326.8</ele>
        <time>2021-09-05T11:16:43Z</time>
      </trkpt>
      <trkpt lat="44.05058" lon="2.01853">
        <ele>327</ele>
        <time>2021-09-05T11:16:44Z</time>
      </trkpt>
      <trkpt lat="44.05063" lon="2.0185">
        <ele>327.2</ele>
        <time>2021-09-05T11:16:46Z</time>
      </trkpt>
      <trkpt lat="44.05066" lon="2.01847">
        <ele>327.6</ele>
        <time>2021-09-05T11:16:47Z</time>
      </trkpt>
      <trkpt lat="44.05078" lon="2.01837">
        <ele>328</ele>
        <time>2021-09-05T11:16:51Z</time>
      </trkpt>
      <trkpt lat="44.05081" lon="2.01834">
        <ele>328</ele>
        <time>2021-09-05T11:16:52Z</time>
      </trkpt>
      <trkpt lat="44.05098" lon="2.01821">
        <ele>328.2</ele>
        <time>2021-09-05T11:16:57Z</time>
      </trkpt>
      <trkpt lat="44.05113" lon="2.0181">
        <ele>328.6</ele>
        <time>2021-09-05T11:17:01Z</time>
      </trkpt>
      <trkpt lat="44.05116" lon="2.01808">
        <ele>328.6</ele>
        <time>2021-09-05T11:17:02Z</time>
      </trkpt>
      <trkpt lat="44.05128" lon="2.01803">
        <ele>328.8</ele>
        <time>2021-09-05T11:17:05Z</time>
      </trkpt>
      <trkpt lat="44.05136" lon="2.018">
        <ele>328.8</ele>
        <time>2021-09-05T11:17:07Z</time>
      </trkpt>
      <trkpt lat="44.05139" lon="2.01798">
        <ele>328.8</ele>
        <time>2021-09-05T11:17:08Z</time>
      </trkpt>
      <trkpt lat="44.05147" lon="2.01795">
        <ele>329</ele>
        <time>2021-09-05T11:17:10Z</time>
      </trkpt>
      <trkpt lat="44.05147" lon="2.01795">
        <ele>329</ele>
        <time>2021-09-05T11:17:11Z</time>
      </trkpt>
      <trkpt lat="44.05154" lon="2.01791">
        <ele>329</ele>
        <time>2021-09-05T11:17:12Z</time>
      </trkpt>
      <trkpt lat="44.05158" lon="2.0179">
        <ele>329</ele>
        <time>2021-09-05T11:17:13Z</time>
      </trkpt>
      <trkpt lat="44.05162" lon="2.01789">
        <ele>329.2</ele>
        <time>2021-09-05T11:17:14Z</time>
      </trkpt>
      <trkpt lat="44.05185" lon="2.01787">
        <ele>329.6</ele>
        <time>2021-09-05T11:17:20Z</time>
      </trkpt>
      <trkpt lat="44.05197" lon="2.01786">
        <ele>329.8</ele>
        <time>2021-09-05T11:17:23Z</time>
      </trkpt>
      <trkpt lat="44.05231" lon="2.01783">
        <ele>329.8</ele>
        <time>2021-09-05T11:17:30Z</time>
      </trkpt>
      <trkpt lat="44.05251" lon="2.01781">
        <ele>329.2</ele>
        <time>2021-09-05T11:17:34Z</time>
      </trkpt>
      <trkpt lat="44.05255" lon="2.0178">
        <ele>329</ele>
        <time>2021-09-05T11:17:35Z</time>
      </trkpt>
      <trkpt lat="44.05259" lon="2.01779">
        <ele>328.8</ele>
        <time>2021-09-05T11:17:36Z</time>
      </trkpt>
      <trkpt lat="44.05263" lon="2.01778">
        <ele>328.6</ele>
        <time>2021-09-05T11:17:37Z</time>
      </trkpt>
      <trkpt lat="44.05266" lon="2.01777">
        <ele>328.6</ele>
        <time>2021-09-05T11:17:38Z</time>
      </trkpt>
      <trkpt lat="44.05269" lon="2.01778">
        <ele>328.4</ele>
        <time>2021-09-05T11:17:39Z</time>
      </trkpt>
      <trkpt lat="44.0527" lon="2.01781">
        <ele>328.2</ele>
        <time>2021-09-05T11:17:40Z</time>
      </trkpt>
      <trkpt lat="44.0527" lon="2.01785">
        <ele>328</ele>
        <time>2021-09-05T11:17:41Z</time>
      </trkpt>
      <trkpt lat="44.05268" lon="2.01791">
        <ele>327.8</ele>
        <time>2021-09-05T11:17:42Z</time>
      </trkpt>
      <trkpt lat="44.05266" lon="2.01796">
        <ele>327.6</ele>
        <time>2021-09-05T11:17:43Z</time>
      </trkpt>
      <trkpt lat="44.05261" lon="2.01808">
        <ele>327.2</ele>
        <time>2021-09-05T11:17:45Z</time>
      </trkpt>
      <trkpt lat="44.05258" lon="2.01814">
        <ele>326.8</ele>
        <time>2021-09-05T11:17:46Z</time>
      </trkpt>
      <trkpt lat="44.05256" lon="2.0182">
        <ele>326.4</ele>
        <time>2021-09-05T11:17:47Z</time>
      </trkpt>
      <trkpt lat="44.05251" lon="2.01834">
        <ele>325.6</ele>
        <time>2021-09-05T11:17:49Z</time>
      </trkpt>
      <trkpt lat="44.05248" lon="2.01841">
        <ele>325.2</ele>
        <time>2021-09-05T11:17:50Z</time>
      </trkpt>
      <trkpt lat="44.05238" lon="2.01872">
        <ele>324.2</ele>
        <time>2021-09-05T11:17:54Z</time>
      </trkpt>
      <trkpt lat="44.05233" lon="2.01889">
        <ele>323.8</ele>
        <time>2021-09-05T11:17:56Z</time>
      </trkpt>
      <trkpt lat="44.05226" lon="2.01905">
        <ele>323.2</ele>
        <time>2021-09-05T11:17:58Z</time>
      </trkpt>
      <trkpt lat="44.05214" lon="2.01941">
        <ele>322</ele>
        <time>2021-09-05T11:18:02Z</time>
      </trkpt>
      <trkpt lat="44.05211" lon="2.0195">
        <ele>321.8</ele>
        <time>2021-09-05T11:18:03Z</time>
      </trkpt>
      <trkpt lat="44.05201" lon="2.01977">
        <ele>320.6</ele>
        <time>2021-09-05T11:18:06Z</time>
      </trkpt>
      <trkpt lat="44.05194" lon="2.01996">
        <ele>319.2</ele>
        <time>2021-09-05T11:18:09Z</time>
      </trkpt>
      <trkpt lat="44.05183" lon="2.02022">
        <ele>319</ele>
        <time>2021-09-05T11:18:11Z</time>
      </trkpt>
      <trkpt lat="44.05179" lon="2.0203">
        <ele>318.8</ele>
        <time>2021-09-05T11:18:12Z</time>
      </trkpt>
      <trkpt lat="44.05176" lon="2.02038">
        <ele>318.6</ele>
        <time>2021-09-05T11:18:13Z</time>
      </trkpt>
      <trkpt lat="44.05172" lon="2.02046">
        <ele>318.6</ele>
        <time>2021-09-05T11:18:14Z</time>
      </trkpt>
      <trkpt lat="44.05169" lon="2.02053">
        <ele>318.4</ele>
        <time>2021-09-05T11:18:15Z</time>
      </trkpt>
      <trkpt lat="44.05169" lon="2.02053">
        <ele>318.4</ele>
        <time>2021-09-05T11:18:16Z</time>
      </trkpt>
      <trkpt lat="44.05162" lon="2.02068">
        <ele>318.2</ele>
        <time>2021-09-05T11:18:17Z</time>
      </trkpt>
      <trkpt lat="44.05158" lon="2.02075">
        <ele>317.6</ele>
        <time>2021-09-05T11:18:19Z</time>
      </trkpt>
      <trkpt lat="44.0515" lon="2.0209">
        <ele>317.6</ele>
        <time>2021-09-05T11:18:20Z</time>
      </trkpt>
      <trkpt lat="44.05131" lon="2.0213">
        <ele>317.4</ele>
        <time>2021-09-05T11:18:25Z</time>
      </trkpt>
      <trkpt lat="44.05124" lon="2.02147">
        <ele>317</ele>
        <time>2021-09-05T11:18:27Z</time>
      </trkpt>
      <trkpt lat="44.05117" lon="2.02173">
        <ele>316.8</ele>
        <time>2021-09-05T11:18:30Z</time>
      </trkpt>
      <trkpt lat="44.05116" lon="2.02182">
        <ele>317</ele>
        <time>2021-09-05T11:18:31Z</time>
      </trkpt>
      <trkpt lat="44.05106" lon="2.02228">
        <ele>316.6</ele>
        <time>2021-09-05T11:18:36Z</time>
      </trkpt>
      <trkpt lat="44.05101" lon="2.02245">
        <ele>316.6</ele>
        <time>2021-09-05T11:18:38Z</time>
      </trkpt>
      <trkpt lat="44.05095" lon="2.02272">
        <ele>316.4</ele>
        <time>2021-09-05T11:18:41Z</time>
      </trkpt>
      <trkpt lat="44.05092" lon="2.0228">
        <ele>316.4</ele>
        <time>2021-09-05T11:18:42Z</time>
      </trkpt>
      <trkpt lat="44.05082" lon="2.02314">
        <ele>316.4</ele>
        <time>2021-09-05T11:18:46Z</time>
      </trkpt>
      <trkpt lat="44.05079" lon="2.02323">
        <ele>316.4</ele>
        <time>2021-09-05T11:18:47Z</time>
      </trkpt>
      <trkpt lat="44.05079" lon="2.02323">
        <ele>316.6</ele>
        <time>2021-09-05T11:18:48Z</time>
      </trkpt>
      <trkpt lat="44.05074" lon="2.02339">
        <ele>316.6</ele>
        <time>2021-09-05T11:18:49Z</time>
      </trkpt>
      <trkpt lat="44.05071" lon="2.02347">
        <ele>316.6</ele>
        <time>2021-09-05T11:18:50Z</time>
      </trkpt>
      <trkpt lat="44.05068" lon="2.02354">
        <ele>316.6</ele>
        <time>2021-09-05T11:18:51Z</time>
      </trkpt>
      <trkpt lat="44.05066" lon="2.02362">
        <ele>317</ele>
        <time>2021-09-05T11:18:53Z</time>
      </trkpt>
      <trkpt lat="44.05061" lon="2.02377">
        <ele>317</ele>
        <time>2021-09-05T11:18:54Z</time>
      </trkpt>
      <trkpt lat="44.05059" lon="2.02384">
        <ele>317</ele>
        <time>2021-09-05T11:18:55Z</time>
      </trkpt>
      <trkpt lat="44.05057" lon="2.0239">
        <ele>317</ele>
        <time>2021-09-05T11:18:56Z</time>
      </trkpt>
      <trkpt lat="44.05054" lon="2.02397">
        <ele>317.2</ele>
        <time>2021-09-05T11:18:57Z</time>
      </trkpt>
      <trkpt lat="44.05052" lon="2.02403">
        <ele>317.2</ele>
        <time>2021-09-05T11:18:58Z</time>
      </trkpt>
      <trkpt lat="44.0505" lon="2.02409">
        <ele>318</ele>
        <time>2021-09-05T11:18:59Z</time>
      </trkpt>
      <trkpt lat="44.05048" lon="2.02415">
        <ele>318.4</ele>
        <time>2021-09-05T11:19:00Z</time>
      </trkpt>
      <trkpt lat="44.05046" lon="2.02422">
        <ele>318.8</ele>
        <time>2021-09-05T11:19:01Z</time>
      </trkpt>
      <trkpt lat="44.05044" lon="2.02428">
        <ele>318.8</ele>
        <time>2021-09-05T11:19:02Z</time>
      </trkpt>
      <trkpt lat="44.05043" lon="2.02434">
        <ele>319.2</ele>
        <time>2021-09-05T11:19:03Z</time>
      </trkpt>
      <trkpt lat="44.05042" lon="2.0244">
        <ele>319.2</ele>
        <time>2021-09-05T11:19:04Z</time>
      </trkpt>
      <trkpt lat="44.05042" lon="2.02446">
        <ele>319.4</ele>
        <time>2021-09-05T11:19:05Z</time>
      </trkpt>
      <trkpt lat="44.05042" lon="2.02452">
        <ele>319.6</ele>
        <time>2021-09-05T11:19:06Z</time>
      </trkpt>
      <trkpt lat="44.05041" lon="2.02457">
        <ele>319.6</ele>
        <time>2021-09-05T11:19:07Z</time>
      </trkpt>
      <trkpt lat="44.0504" lon="2.02462">
        <ele>319.8</ele>
        <time>2021-09-05T11:19:08Z</time>
      </trkpt>
      <trkpt lat="44.05039" lon="2.02467">
        <ele>319.8</ele>
        <time>2021-09-05T11:19:09Z</time>
      </trkpt>
      <trkpt lat="44.05037" lon="2.02472">
        <ele>319.8</ele>
        <time>2021-09-05T11:19:10Z</time>
      </trkpt>
      <trkpt lat="44.05036" lon="2.02478">
        <ele>319.8</ele>
        <time>2021-09-05T11:19:11Z</time>
      </trkpt>
      <trkpt lat="44.05035" lon="2.02483">
        <ele>320</ele>
        <time>2021-09-05T11:19:12Z</time>
      </trkpt>
      <trkpt lat="44.05034" lon="2.02488">
        <ele>320.2</ele>
        <time>2021-09-05T11:19:13Z</time>
      </trkpt>
      <trkpt lat="44.05033" lon="2.02493">
        <ele>320.2</ele>
        <time>2021-09-05T11:19:14Z</time>
      </trkpt>
      <trkpt lat="44.05031" lon="2.02498">
        <ele>320.6</ele>
        <time>2021-09-05T11:19:15Z</time>
      </trkpt>
      <trkpt lat="44.0503" lon="2.02504">
        <ele>320.6</ele>
        <time>2021-09-05T11:19:16Z</time>
      </trkpt>
      <trkpt lat="44.05029" lon="2.02509">
        <ele>320.8</ele>
        <time>2021-09-05T11:19:17Z</time>
      </trkpt>
      <trkpt lat="44.05028" lon="2.02514">
        <ele>320.8</ele>
        <time>2021-09-05T11:19:18Z</time>
      </trkpt>
      <trkpt lat="44.05026" lon="2.02519">
        <ele>320.8</ele>
        <time>2021-09-05T11:19:19Z</time>
      </trkpt>
      <trkpt lat="44.05025" lon="2.02524">
        <ele>321</ele>
        <time>2021-09-05T11:19:20Z</time>
      </trkpt>
      <trkpt lat="44.05023" lon="2.02529">
        <ele>321</ele>
        <time>2021-09-05T11:19:21Z</time>
      </trkpt>
      <trkpt lat="44.05021" lon="2.02535">
        <ele>321</ele>
        <time>2021-09-05T11:19:22Z</time>
      </trkpt>
      <trkpt lat="44.05019" lon="2.0254">
        <ele>321</ele>
        <time>2021-09-05T11:19:23Z</time>
      </trkpt>
      <trkpt lat="44.05018" lon="2.02545">
        <ele>321.2</ele>
        <time>2021-09-05T11:19:24Z</time>
      </trkpt>
      <trkpt lat="44.05016" lon="2.0255">
        <ele>321.4</ele>
        <time>2021-09-05T11:19:25Z</time>
      </trkpt>
      <trkpt lat="44.05013" lon="2.02556">
        <ele>321.6</ele>
        <time>2021-09-05T11:19:26Z</time>
      </trkpt>
      <trkpt lat="44.05011" lon="2.02561">
        <ele>321.6</ele>
        <time>2021-09-05T11:19:27Z</time>
      </trkpt>
      <trkpt lat="44.05009" lon="2.02567">
        <ele>321.8</ele>
        <time>2021-09-05T11:19:28Z</time>
      </trkpt>
      <trkpt lat="44.05007" lon="2.02572">
        <ele>321.8</ele>
        <time>2021-09-05T11:19:29Z</time>
      </trkpt>
      <trkpt lat="44.05005" lon="2.02578">
        <ele>321.8</ele>
        <time>2021-09-05T11:19:30Z</time>
      </trkpt>
      <trkpt lat="44.05003" lon="2.02583">
        <ele>321.8</ele>
        <time>2021-09-05T11:19:31Z</time>
      </trkpt>
      <trkpt lat="44.05" lon="2.02588">
        <ele>321.8</ele>
        <time>2021-09-05T11:19:32Z</time>
      </trkpt>
      <trkpt lat="44.04998" lon="2.02594">
        <ele>321.8</ele>
        <time>2021-09-05T11:19:33Z</time>
      </trkpt>
      <trkpt lat="44.04996" lon="2.02599">
        <ele>321.8</ele>
        <time>2021-09-05T11:19:34Z</time>
      </trkpt>
      <trkpt lat="44.04983" lon="2.02633">
        <ele>322</ele>
        <time>2021-09-05T11:19:41Z</time>
      </trkpt>
      <trkpt lat="44.04974" lon="2.02648">
        <ele>321.8</ele>
        <time>2021-09-05T11:19:43Z</time>
      </trkpt>
      <trkpt lat="44.04964" lon="2.02662">
        <ele>322</ele>
        <time>2021-09-05T11:19:46Z</time>
      </trkpt>
      <trkpt lat="44.04948" lon="2.02679">
        <ele>322</ele>
        <time>2021-09-05T11:19:50Z</time>
      </trkpt>
      <trkpt lat="44.04932" lon="2.02698">
        <ele>322</ele>
        <time>2021-09-05T11:19:54Z</time>
      </trkpt>
      <trkpt lat="44.04928" lon="2.02703">
        <ele>322</ele>
        <time>2021-09-05T11:19:55Z</time>
      </trkpt>
      <trkpt lat="44.04924" lon="2.02709">
        <ele>321.8</ele>
        <time>2021-09-05T11:19:56Z</time>
      </trkpt>
      <trkpt lat="44.04921" lon="2.02714">
        <ele>321.8</ele>
        <time>2021-09-05T11:19:57Z</time>
      </trkpt>
      <trkpt lat="44.04917" lon="2.02719">
        <ele>321.8</ele>
        <time>2021-09-05T11:19:58Z</time>
      </trkpt>
      <trkpt lat="44.04914" lon="2.02724">
        <ele>322</ele>
        <time>2021-09-05T11:19:59Z</time>
      </trkpt>
      <trkpt lat="44.04911" lon="2.0273">
        <ele>322</ele>
        <time>2021-09-05T11:20:00Z</time>
      </trkpt>
      <trkpt lat="44.04909" lon="2.02735">
        <ele>322.2</ele>
        <time>2021-09-05T11:20:01Z</time>
      </trkpt>
      <trkpt lat="44.04907" lon="2.02741">
        <ele>322.2</ele>
        <time>2021-09-05T11:20:02Z</time>
      </trkpt>
      <trkpt lat="44.04905" lon="2.02747">
        <ele>322.2</ele>
        <time>2021-09-05T11:20:03Z</time>
      </trkpt>
      <trkpt lat="44.04902" lon="2.02752">
        <ele>322.4</ele>
        <time>2021-09-05T11:20:04Z</time>
      </trkpt>
      <trkpt lat="44.04895" lon="2.02767">
        <ele>322.8</ele>
        <time>2021-09-05T11:20:07Z</time>
      </trkpt>
      <trkpt lat="44.04886" lon="2.02785">
        <ele>323.4</ele>
        <time>2021-09-05T11:20:10Z</time>
      </trkpt>
      <trkpt lat="44.04873" lon="2.02806">
        <ele>323.8</ele>
        <time>2021-09-05T11:20:14Z</time>
      </trkpt>
      <trkpt lat="44.0486" lon="2.0283">
        <ele>324</ele>
        <time>2021-09-05T11:20:18Z</time>
      </trkpt>
      <trkpt lat="44.0485" lon="2.02846">
        <ele>324</ele>
        <time>2021-09-05T11:20:21Z</time>
      </trkpt>
      <trkpt lat="44.04846" lon="2.02852">
        <ele>324</ele>
        <time>2021-09-05T11:20:22Z</time>
      </trkpt>
      <trkpt lat="44.04839" lon="2.02862">
        <ele>324</ele>
        <time>2021-09-05T11:20:24Z</time>
      </trkpt>
      <trkpt lat="44.04835" lon="2.02867">
        <ele>324</ele>
        <time>2021-09-05T11:20:25Z</time>
      </trkpt>
      <trkpt lat="44.04832" lon="2.02872">
        <ele>324.2</ele>
        <time>2021-09-05T11:20:26Z</time>
      </trkpt>
      <trkpt lat="44.04828" lon="2.02877">
        <ele>324.2</ele>
        <time>2021-09-05T11:20:27Z</time>
      </trkpt>
      <trkpt lat="44.04815" lon="2.02897">
        <ele>324.8</ele>
        <time>2021-09-05T11:20:31Z</time>
      </trkpt>
      <trkpt lat="44.04811" lon="2.02901">
        <ele>324.8</ele>
        <time>2021-09-05T11:20:32Z</time>
      </trkpt>
      <trkpt lat="44.04808" lon="2.02906">
        <ele>325</ele>
        <time>2021-09-05T11:20:33Z</time>
      </trkpt>
      <trkpt lat="44.04805" lon="2.02911">
        <ele>325</ele>
        <time>2021-09-05T11:20:34Z</time>
      </trkpt>
      <trkpt lat="44.04802" lon="2.02915">
        <ele>325</ele>
        <time>2021-09-05T11:20:35Z</time>
      </trkpt>
      <trkpt lat="44.04799" lon="2.02919">
        <ele>325.2</ele>
        <time>2021-09-05T11:20:36Z</time>
      </trkpt>
      <trkpt lat="44.04796" lon="2.02923">
        <ele>325.4</ele>
        <time>2021-09-05T11:20:37Z</time>
      </trkpt>
      <trkpt lat="44.04795" lon="2.02927">
        <ele>325.4</ele>
        <time>2021-09-05T11:20:38Z</time>
      </trkpt>
      <trkpt lat="44.04793" lon="2.0293">
        <ele>325.8</ele>
        <time>2021-09-05T11:20:39Z</time>
      </trkpt>
      <trkpt lat="44.04791" lon="2.02931">
        <ele>326</ele>
        <time>2021-09-05T11:20:40Z</time>
      </trkpt>
      <trkpt lat="44.04788" lon="2.0293">
        <ele>326.2</ele>
        <time>2021-09-05T11:20:41Z</time>
      </trkpt>
      <trkpt lat="44.04786" lon="2.02929">
        <ele>326.2</ele>
        <time>2021-09-05T11:20:42Z</time>
      </trkpt>
      <trkpt lat="44.0478" lon="2.02926">
        <ele>326.4</ele>
        <time>2021-09-05T11:20:44Z</time>
      </trkpt>
      <trkpt lat="44.04777" lon="2.02925">
        <ele>326.4</ele>
        <time>2021-09-05T11:20:45Z</time>
      </trkpt>
      <trkpt lat="44.04757" lon="2.02916">
        <ele>327.2</ele>
        <time>2021-09-05T11:20:51Z</time>
      </trkpt>
      <trkpt lat="44.04754" lon="2.02914">
        <ele>327.4</ele>
        <time>2021-09-05T11:20:52Z</time>
      </trkpt>
      <trkpt lat="44.04754" lon="2.02914">
        <ele>327.4</ele>
        <time>2021-09-05T11:20:53Z</time>
      </trkpt>
      <trkpt lat="44.04747" lon="2.02911">
        <ele>327.6</ele>
        <time>2021-09-05T11:20:54Z</time>
      </trkpt>
      <trkpt lat="44.04744" lon="2.02909">
        <ele>327.6</ele>
        <time>2021-09-05T11:20:55Z</time>
      </trkpt>
      <trkpt lat="44.0474" lon="2.02907">
        <ele>327.6</ele>
        <time>2021-09-05T11:20:56Z</time>
      </trkpt>
      <trkpt lat="44.04737" lon="2.02906">
        <ele>327.6</ele>
        <time>2021-09-05T11:20:57Z</time>
      </trkpt>
      <trkpt lat="44.04733" lon="2.02904">
        <ele>327.6</ele>
        <time>2021-09-05T11:20:58Z</time>
      </trkpt>
      <trkpt lat="44.0473" lon="2.02903">
        <ele>327.8</ele>
        <time>2021-09-05T11:20:59Z</time>
      </trkpt>
      <trkpt lat="44.04726" lon="2.02902">
        <ele>327.8</ele>
        <time>2021-09-05T11:21:00Z</time>
      </trkpt>
      <trkpt lat="44.04719" lon="2.02899">
        <ele>328.2</ele>
        <time>2021-09-05T11:21:02Z</time>
      </trkpt>
      <trkpt lat="44.04716" lon="2.02897">
        <ele>328.4</ele>
        <time>2021-09-05T11:21:03Z</time>
      </trkpt>
      <trkpt lat="44.04713" lon="2.02895">
        <ele>328.6</ele>
        <time>2021-09-05T11:21:04Z</time>
      </trkpt>
      <trkpt lat="44.0471" lon="2.02894">
        <ele>328.6</ele>
        <time>2021-09-05T11:21:05Z</time>
      </trkpt>
      <trkpt lat="44.04707" lon="2.02893">
        <ele>328.6</ele>
        <time>2021-09-05T11:21:06Z</time>
      </trkpt>
      <trkpt lat="44.04705" lon="2.02892">
        <ele>329</ele>
        <time>2021-09-05T11:21:07Z</time>
      </trkpt>
      <trkpt lat="44.04702" lon="2.02891">
        <ele>329.6</ele>
        <time>2021-09-05T11:21:08Z</time>
      </trkpt>
      <trkpt lat="44.047" lon="2.02891">
        <ele>329.8</ele>
        <time>2021-09-05T11:21:09Z</time>
      </trkpt>
      <trkpt lat="44.04697" lon="2.0289">
        <ele>330</ele>
        <time>2021-09-05T11:21:10Z</time>
      </trkpt>
      <trkpt lat="44.04694" lon="2.0289">
        <ele>330.4</ele>
        <time>2021-09-05T11:21:11Z</time>
      </trkpt>
      <trkpt lat="44.04691" lon="2.0289">
        <ele>330.4</ele>
        <time>2021-09-05T11:21:12Z</time>
      </trkpt>
      <trkpt lat="44.04687" lon="2.0289">
        <ele>330.6</ele>
        <time>2021-09-05T11:21:13Z</time>
      </trkpt>
      <trkpt lat="44.04683" lon="2.0289">
        <ele>330.8</ele>
        <time>2021-09-05T11:21:14Z</time>
      </trkpt>
      <trkpt lat="44.04678" lon="2.0289">
        <ele>330.8</ele>
        <time>2021-09-05T11:21:15Z</time>
      </trkpt>
      <trkpt lat="44.04673" lon="2.0289">
        <ele>330.8</ele>
        <time>2021-09-05T11:21:16Z</time>
      </trkpt>
      <trkpt lat="44.04673" lon="2.0289">
        <ele>330.8</ele>
        <time>2021-09-05T11:21:17Z</time>
      </trkpt>
      <trkpt lat="44.04663" lon="2.02891">
        <ele>330.6</ele>
        <time>2021-09-05T11:21:18Z</time>
      </trkpt>
      <trkpt lat="44.04657" lon="2.02892">
        <ele>330.6</ele>
        <time>2021-09-05T11:21:19Z</time>
      </trkpt>
      <trkpt lat="44.04651" lon="2.02892">
        <ele>330.6</ele>
        <time>2021-09-05T11:21:20Z</time>
      </trkpt>
      <trkpt lat="44.04646" lon="2.02893">
        <ele>330.6</ele>
        <time>2021-09-05T11:21:21Z</time>
      </trkpt>
      <trkpt lat="44.0464" lon="2.02893">
        <ele>330.6</ele>
        <time>2021-09-05T11:21:22Z</time>
      </trkpt>
      <trkpt lat="44.04634" lon="2.02894">
        <ele>330.4</ele>
        <time>2021-09-05T11:21:23Z</time>
      </trkpt>
      <trkpt lat="44.04627" lon="2.02894">
        <ele>330.2</ele>
        <time>2021-09-05T11:21:24Z</time>
      </trkpt>
      <trkpt lat="44.04621" lon="2.02894">
        <ele>330</ele>
        <time>2021-09-05T11:21:25Z</time>
      </trkpt>
      <trkpt lat="44.04615" lon="2.02894">
        <ele>329.8</ele>
        <time>2021-09-05T11:21:26Z</time>
      </trkpt>
      <trkpt lat="44.04608" lon="2.02894">
        <ele>329.8</ele>
        <time>2021-09-05T11:21:27Z</time>
      </trkpt>
      <trkpt lat="44.04602" lon="2.02895">
        <ele>329.6</ele>
        <time>2021-09-05T11:21:28Z</time>
      </trkpt>
      <trkpt lat="44.04581" lon="2.02895">
        <ele>328.4</ele>
        <time>2021-09-05T11:21:31Z</time>
      </trkpt>
      <trkpt lat="44.04574" lon="2.02896">
        <ele>328.2</ele>
        <time>2021-09-05T11:21:32Z</time>
      </trkpt>
      <trkpt lat="44.04567" lon="2.02896">
        <ele>327.8</ele>
        <time>2021-09-05T11:21:33Z</time>
      </trkpt>
      <trkpt lat="44.04553" lon="2.02897">
        <ele>327.4</ele>
        <time>2021-09-05T11:21:35Z</time>
      </trkpt>
      <trkpt lat="44.04518" lon="2.02898">
        <ele>326.8</ele>
        <time>2021-09-05T11:21:40Z</time>
      </trkpt>
      <trkpt lat="44.04496" lon="2.02896">
        <ele>326.4</ele>
        <time>2021-09-05T11:21:43Z</time>
      </trkpt>
      <trkpt lat="44.04489" lon="2.02894">
        <ele>326.4</ele>
        <time>2021-09-05T11:21:44Z</time>
      </trkpt>
      <trkpt lat="44.04483" lon="2.02892">
        <ele>326.2</ele>
        <time>2021-09-05T11:21:45Z</time>
      </trkpt>
      <trkpt lat="44.04476" lon="2.02889">
        <ele>326.2</ele>
        <time>2021-09-05T11:21:46Z</time>
      </trkpt>
      <trkpt lat="44.04463" lon="2.02883">
        <ele>326.2</ele>
        <time>2021-09-05T11:21:48Z</time>
      </trkpt>
      <trkpt lat="44.04409" lon="2.02857">
        <ele>326</ele>
        <time>2021-09-05T11:21:56Z</time>
      </trkpt>
      <trkpt lat="44.04395" lon="2.02853">
        <ele>326</ele>
        <time>2021-09-05T11:21:58Z</time>
      </trkpt>
      <trkpt lat="44.04388" lon="2.02853">
        <ele>326.2</ele>
        <time>2021-09-05T11:21:59Z</time>
      </trkpt>
      <trkpt lat="44.04381" lon="2.02853">
        <ele>326.2</ele>
        <time>2021-09-05T11:22:00Z</time>
      </trkpt>
      <trkpt lat="44.04374" lon="2.02856">
        <ele>326.2</ele>
        <time>2021-09-05T11:22:01Z</time>
      </trkpt>
      <trkpt lat="44.04368" lon="2.0286">
        <ele>326.2</ele>
        <time>2021-09-05T11:22:02Z</time>
      </trkpt>
      <trkpt lat="44.04361" lon="2.02863">
        <ele>326.2</ele>
        <time>2021-09-05T11:22:03Z</time>
      </trkpt>
      <trkpt lat="44.04355" lon="2.02867">
        <ele>326.2</ele>
        <time>2021-09-05T11:22:04Z</time>
      </trkpt>
      <trkpt lat="44.04315" lon="2.02891">
        <ele>326</ele>
        <time>2021-09-05T11:22:10Z</time>
      </trkpt>
      <trkpt lat="44.04301" lon="2.02898">
        <ele>326</ele>
        <time>2021-09-05T11:22:12Z</time>
      </trkpt>
      <trkpt lat="44.04294" lon="2.02902">
        <ele>326</ele>
        <time>2021-09-05T11:22:13Z</time>
      </trkpt>
      <trkpt lat="44.04246" lon="2.02923">
        <ele>326.2</ele>
        <time>2021-09-05T11:22:20Z</time>
      </trkpt>
      <trkpt lat="44.04185" lon="2.02935">
        <ele>325.8</ele>
        <time>2021-09-05T11:22:28Z</time>
      </trkpt>
      <trkpt lat="44.04178" lon="2.02936">
        <ele>325.6</ele>
        <time>2021-09-05T11:22:29Z</time>
      </trkpt>
      <trkpt lat="44.0417" lon="2.02938">
        <ele>325.4</ele>
        <time>2021-09-05T11:22:30Z</time>
      </trkpt>
      <trkpt lat="44.04163" lon="2.02939">
        <ele>325.4</ele>
        <time>2021-09-05T11:22:31Z</time>
      </trkpt>
      <trkpt lat="44.04157" lon="2.02941">
        <ele>325.4</ele>
        <time>2021-09-05T11:22:32Z</time>
      </trkpt>
      <trkpt lat="44.04152" lon="2.02942">
        <ele>325.2</ele>
        <time>2021-09-05T11:22:33Z</time>
      </trkpt>
      <trkpt lat="44.04148" lon="2.02943">
        <ele>325.2</ele>
        <time>2021-09-05T11:22:34Z</time>
      </trkpt>
      <trkpt lat="44.04146" lon="2.02945">
        <ele>325.2</ele>
        <time>2021-09-05T11:22:35Z</time>
      </trkpt>
      <trkpt lat="44.04145" lon="2.02948">
        <ele>325.2</ele>
        <time>2021-09-05T11:22:36Z</time>
      </trkpt>
      <trkpt lat="44.04146" lon="2.02951">
        <ele>325.2</ele>
        <time>2021-09-05T11:22:37Z</time>
      </trkpt>
      <trkpt lat="44.04146" lon="2.02954">
        <ele>325.2</ele>
        <time>2021-09-05T11:22:38Z</time>
      </trkpt>
      <trkpt lat="44.04147" lon="2.02961">
        <ele>325</ele>
        <time>2021-09-05T11:22:40Z</time>
      </trkpt>
      <trkpt lat="44.04147" lon="2.02965">
        <ele>325</ele>
        <time>2021-09-05T11:22:41Z</time>
      </trkpt>
      <trkpt lat="44.04148" lon="2.02968">
        <ele>324.8</ele>
        <time>2021-09-05T11:22:42Z</time>
      </trkpt>
      <trkpt lat="44.04149" lon="2.0297">
        <ele>324.6</ele>
        <time>2021-09-05T11:22:43Z</time>
      </trkpt>
      <trkpt lat="44.04149" lon="2.02973">
        <ele>324.2</ele>
        <time>2021-09-05T11:22:44Z</time>
      </trkpt>
      <trkpt lat="44.0415" lon="2.02975">
        <ele>324</ele>
        <time>2021-09-05T11:22:45Z</time>
      </trkpt>
      <trkpt lat="44.04151" lon="2.02977">
        <ele>323.8</ele>
        <time>2021-09-05T11:22:46Z</time>
      </trkpt>
      <trkpt lat="44.04151" lon="2.02978">
        <ele>323.6</ele>
        <time>2021-09-05T11:22:47Z</time>
      </trkpt>
      <trkpt lat="44.04148" lon="2.02985">
        <ele>322.4</ele>
        <time>2021-09-05T11:23:14Z</time>
      </trkpt>
      <trkpt lat="44.04147" lon="2.02987">
        <ele>322.4</ele>
        <time>2021-09-05T11:23:15Z</time>
      </trkpt>
      <trkpt lat="44.04145" lon="2.0299">
        <ele>322.4</ele>
        <time>2021-09-05T11:23:16Z</time>
      </trkpt>
      <trkpt lat="44.04136" lon="2.03002">
        <ele>322.2</ele>
        <time>2021-09-05T11:23:20Z</time>
      </trkpt>
      <trkpt lat="44.04121" lon="2.03018">
        <ele>321.6</ele>
        <time>2021-09-05T11:23:25Z</time>
      </trkpt>
      <trkpt lat="44.04114" lon="2.03024">
        <ele>321.2</ele>
        <time>2021-09-05T11:23:27Z</time>
      </trkpt>
      <trkpt lat="44.04111" lon="2.03027">
        <ele>321</ele>
        <time>2021-09-05T11:23:28Z</time>
      </trkpt>
      <trkpt lat="44.04087" lon="2.03051">
        <ele>320.6</ele>
        <time>2021-09-05T11:23:35Z</time>
      </trkpt>
      <trkpt lat="44.04067" lon="2.03069">
        <ele>320.2</ele>
        <time>2021-09-05T11:23:39Z</time>
      </trkpt>
      <trkpt lat="44.0404" lon="2.03105">
        <ele>319</ele>
        <time>2021-09-05T11:23:44Z</time>
      </trkpt>
      <trkpt lat="44.04028" lon="2.03122">
        <ele>317.8</ele>
        <time>2021-09-05T11:23:46Z</time>
      </trkpt>
      <trkpt lat="44.04017" lon="2.03138">
        <ele>316.8</ele>
        <time>2021-09-05T11:23:48Z</time>
      </trkpt>
      <trkpt lat="44.04004" lon="2.03156">
        <ele>316</ele>
        <time>2021-09-05T11:23:50Z</time>
      </trkpt>
      <trkpt lat="44.03999" lon="2.03162">
        <ele>315.8</ele>
        <time>2021-09-05T11:23:51Z</time>
      </trkpt>
      <trkpt lat="44.03986" lon="2.0318">
        <ele>314.4</ele>
        <time>2021-09-05T11:23:53Z</time>
      </trkpt>
      <trkpt lat="44.0398" lon="2.03188">
        <ele>314.2</ele>
        <time>2021-09-05T11:23:54Z</time>
      </trkpt>
      <trkpt lat="44.03974" lon="2.03197">
        <ele>313.8</ele>
        <time>2021-09-05T11:23:55Z</time>
      </trkpt>
      <trkpt lat="44.03964" lon="2.03211">
        <ele>313.2</ele>
        <time>2021-09-05T11:23:57Z</time>
      </trkpt>
      <trkpt lat="44.03957" lon="2.0322">
        <ele>312.8</ele>
        <time>2021-09-05T11:23:58Z</time>
      </trkpt>
      <trkpt lat="44.03951" lon="2.03228">
        <ele>312.4</ele>
        <time>2021-09-05T11:23:59Z</time>
      </trkpt>
      <trkpt lat="44.03947" lon="2.03234">
        <ele>312</ele>
        <time>2021-09-05T11:24:00Z</time>
      </trkpt>
      <trkpt lat="44.03941" lon="2.03242">
        <ele>311.6</ele>
        <time>2021-09-05T11:24:01Z</time>
      </trkpt>
      <trkpt lat="44.03935" lon="2.03251">
        <ele>311.2</ele>
        <time>2021-09-05T11:24:02Z</time>
      </trkpt>
      <trkpt lat="44.03925" lon="2.03266">
        <ele>311</ele>
        <time>2021-09-05T11:24:04Z</time>
      </trkpt>
      <trkpt lat="44.0392" lon="2.03272">
        <ele>310.8</ele>
        <time>2021-09-05T11:24:05Z</time>
      </trkpt>
      <trkpt lat="44.03915" lon="2.03279">
        <ele>310.6</ele>
        <time>2021-09-05T11:24:06Z</time>
      </trkpt>
      <trkpt lat="44.0391" lon="2.03286">
        <ele>310.4</ele>
        <time>2021-09-05T11:24:07Z</time>
      </trkpt>
      <trkpt lat="44.03904" lon="2.03294">
        <ele>310.4</ele>
        <time>2021-09-05T11:24:08Z</time>
      </trkpt>
      <trkpt lat="44.03898" lon="2.03301">
        <ele>310.4</ele>
        <time>2021-09-05T11:24:09Z</time>
      </trkpt>
      <trkpt lat="44.03894" lon="2.03306">
        <ele>310.4</ele>
        <time>2021-09-05T11:24:10Z</time>
      </trkpt>
      <trkpt lat="44.03887" lon="2.03313">
        <ele>310.2</ele>
        <time>2021-09-05T11:24:11Z</time>
      </trkpt>
      <trkpt lat="44.03882" lon="2.0332">
        <ele>310.2</ele>
        <time>2021-09-05T11:24:12Z</time>
      </trkpt>
      <trkpt lat="44.03861" lon="2.03345">
        <ele>309.4</ele>
        <time>2021-09-05T11:24:16Z</time>
      </trkpt>
      <trkpt lat="44.03847" lon="2.03359">
        <ele>309.4</ele>
        <time>2021-09-05T11:24:18Z</time>
      </trkpt>
      <trkpt lat="44.03835" lon="2.03373">
        <ele>309.2</ele>
        <time>2021-09-05T11:24:20Z</time>
      </trkpt>
      <trkpt lat="44.03829" lon="2.0338">
        <ele>309</ele>
        <time>2021-09-05T11:24:21Z</time>
      </trkpt>
      <trkpt lat="44.03824" lon="2.03387">
        <ele>309</ele>
        <time>2021-09-05T11:24:22Z</time>
      </trkpt>
      <trkpt lat="44.0382" lon="2.03393">
        <ele>309</ele>
        <time>2021-09-05T11:24:23Z</time>
      </trkpt>
      <trkpt lat="44.03814" lon="2.034">
        <ele>309</ele>
        <time>2021-09-05T11:24:24Z</time>
      </trkpt>
      <trkpt lat="44.03809" lon="2.03407">
        <ele>308.8</ele>
        <time>2021-09-05T11:24:25Z</time>
      </trkpt>
      <trkpt lat="44.03795" lon="2.03428">
        <ele>308.6</ele>
        <time>2021-09-05T11:24:28Z</time>
      </trkpt>
      <trkpt lat="44.0378" lon="2.0345">
        <ele>308.4</ele>
        <time>2021-09-05T11:24:31Z</time>
      </trkpt>
      <trkpt lat="44.03759" lon="2.03481">
        <ele>308</ele>
        <time>2021-09-05T11:24:35Z</time>
      </trkpt>
      <trkpt lat="44.03754" lon="2.03488">
        <ele>308</ele>
        <time>2021-09-05T11:24:36Z</time>
      </trkpt>
      <trkpt lat="44.03745" lon="2.03503">
        <ele>307.6</ele>
        <time>2021-09-05T11:24:38Z</time>
      </trkpt>
      <trkpt lat="44.0374" lon="2.03509">
        <ele>307.6</ele>
        <time>2021-09-05T11:24:39Z</time>
      </trkpt>
      <trkpt lat="44.03735" lon="2.03514">
        <ele>307.2</ele>
        <time>2021-09-05T11:24:40Z</time>
      </trkpt>
      <trkpt lat="44.0373" lon="2.0352">
        <ele>307.2</ele>
        <time>2021-09-05T11:24:41Z</time>
      </trkpt>
      <trkpt lat="44.03726" lon="2.03526">
        <ele>307</ele>
        <time>2021-09-05T11:24:42Z</time>
      </trkpt>
      <trkpt lat="44.03721" lon="2.03532">
        <ele>307</ele>
        <time>2021-09-05T11:24:43Z</time>
      </trkpt>
      <trkpt lat="44.03715" lon="2.03538">
        <ele>306.8</ele>
        <time>2021-09-05T11:24:44Z</time>
      </trkpt>
      <trkpt lat="44.03711" lon="2.03542">
        <ele>306.8</ele>
        <time>2021-09-05T11:24:45Z</time>
      </trkpt>
      <trkpt lat="44.03706" lon="2.03548">
        <ele>306.8</ele>
        <time>2021-09-05T11:24:46Z</time>
      </trkpt>
      <trkpt lat="44.03679" lon="2.03578">
        <ele>306.6</ele>
        <time>2021-09-05T11:24:51Z</time>
      </trkpt>
      <trkpt lat="44.03672" lon="2.03584">
        <ele>306.2</ele>
        <time>2021-09-05T11:24:52Z</time>
      </trkpt>
      <trkpt lat="44.03638" lon="2.03617">
        <ele>305</ele>
        <time>2021-09-05T11:24:57Z</time>
      </trkpt>
      <trkpt lat="44.03605" lon="2.03634">
        <ele>303.6</ele>
        <time>2021-09-05T11:25:01Z</time>
      </trkpt>
      <trkpt lat="44.03582" lon="2.03642">
        <ele>302.6</ele>
        <time>2021-09-05T11:25:04Z</time>
      </trkpt>
      <trkpt lat="44.03574" lon="2.03645">
        <ele>302.2</ele>
        <time>2021-09-05T11:25:05Z</time>
      </trkpt>
      <trkpt lat="44.03565" lon="2.0365">
        <ele>301.8</ele>
        <time>2021-09-05T11:25:06Z</time>
      </trkpt>
      <trkpt lat="44.0356" lon="2.03655">
        <ele>301.8</ele>
        <time>2021-09-05T11:25:07Z</time>
      </trkpt>
      <trkpt lat="44.03553" lon="2.03662">
        <ele>301.4</ele>
        <time>2021-09-05T11:25:08Z</time>
      </trkpt>
      <trkpt lat="44.03542" lon="2.03681">
        <ele>300.8</ele>
        <time>2021-09-05T11:25:10Z</time>
      </trkpt>
      <trkpt lat="44.03536" lon="2.03692">
        <ele>300.6</ele>
        <time>2021-09-05T11:25:11Z</time>
      </trkpt>
      <trkpt lat="44.03532" lon="2.03701">
        <ele>299.4</ele>
        <time>2021-09-05T11:25:12Z</time>
      </trkpt>
      <trkpt lat="44.03527" lon="2.03709">
        <ele>298</ele>
        <time>2021-09-05T11:25:13Z</time>
      </trkpt>
      <trkpt lat="44.03517" lon="2.03725">
        <ele>296.2</ele>
        <time>2021-09-05T11:25:15Z</time>
      </trkpt>
      <trkpt lat="44.03505" lon="2.03742">
        <ele>294</ele>
        <time>2021-09-05T11:25:17Z</time>
      </trkpt>
      <trkpt lat="44.035" lon="2.0375">
        <ele>293.4</ele>
        <time>2021-09-05T11:25:18Z</time>
      </trkpt>
      <trkpt lat="44.03493" lon="2.03758">
        <ele>292.4</ele>
        <time>2021-09-05T11:25:19Z</time>
      </trkpt>
      <trkpt lat="44.03487" lon="2.03766">
        <ele>291.2</ele>
        <time>2021-09-05T11:25:20Z</time>
      </trkpt>
      <trkpt lat="44.0348" lon="2.03774">
        <ele>290.2</ele>
        <time>2021-09-05T11:25:21Z</time>
      </trkpt>
      <trkpt lat="44.03465" lon="2.03779">
        <ele>289.4</ele>
        <time>2021-09-05T11:25:23Z</time>
      </trkpt>
      <trkpt lat="44.03454" lon="2.03778">
        <ele>288.4</ele>
        <time>2021-09-05T11:25:24Z</time>
      </trkpt>
      <trkpt lat="44.03445" lon="2.03777">
        <ele>287.8</ele>
        <time>2021-09-05T11:25:25Z</time>
      </trkpt>
      <trkpt lat="44.03435" lon="2.03775">
        <ele>286.8</ele>
        <time>2021-09-05T11:25:26Z</time>
      </trkpt>
      <trkpt lat="44.03428" lon="2.03774">
        <ele>286.4</ele>
        <time>2021-09-05T11:25:27Z</time>
      </trkpt>
      <trkpt lat="44.03419" lon="2.03773">
        <ele>285.4</ele>
        <time>2021-09-05T11:25:28Z</time>
      </trkpt>
      <trkpt lat="44.0339" lon="2.03773">
        <ele>283.8</ele>
        <time>2021-09-05T11:25:31Z</time>
      </trkpt>
      <trkpt lat="44.03372" lon="2.03776">
        <ele>283.2</ele>
        <time>2021-09-05T11:25:33Z</time>
      </trkpt>
      <trkpt lat="44.03363" lon="2.03778">
        <ele>283</ele>
        <time>2021-09-05T11:25:34Z</time>
      </trkpt>
      <trkpt lat="44.03354" lon="2.03781">
        <ele>282.4</ele>
        <time>2021-09-05T11:25:35Z</time>
      </trkpt>
      <trkpt lat="44.03349" lon="2.03784">
        <ele>282.2</ele>
        <time>2021-09-05T11:25:36Z</time>
      </trkpt>
      <trkpt lat="44.03343" lon="2.03788">
        <ele>281.8</ele>
        <time>2021-09-05T11:25:37Z</time>
      </trkpt>
      <trkpt lat="44.03337" lon="2.03791">
        <ele>281.4</ele>
        <time>2021-09-05T11:25:38Z</time>
      </trkpt>
      <trkpt lat="44.03333" lon="2.03793">
        <ele>281.2</ele>
        <time>2021-09-05T11:25:39Z</time>
      </trkpt>
      <trkpt lat="44.03329" lon="2.03792">
        <ele>280.8</ele>
        <time>2021-09-05T11:25:40Z</time>
      </trkpt>
      <trkpt lat="44.03326" lon="2.03791">
        <ele>280.6</ele>
        <time>2021-09-05T11:25:41Z</time>
      </trkpt>
      <trkpt lat="44.03323" lon="2.03786">
        <ele>280</ele>
        <time>2021-09-05T11:25:42Z</time>
      </trkpt>
      <trkpt lat="44.0332" lon="2.0378">
        <ele>279.4</ele>
        <time>2021-09-05T11:25:43Z</time>
      </trkpt>
      <trkpt lat="44.03315" lon="2.03775">
        <ele>278.6</ele>
        <time>2021-09-05T11:25:44Z</time>
      </trkpt>
      <trkpt lat="44.03312" lon="2.03771">
        <ele>278.4</ele>
        <time>2021-09-05T11:25:45Z</time>
      </trkpt>
      <trkpt lat="44.03307" lon="2.03765">
        <ele>278</ele>
        <time>2021-09-05T11:25:46Z</time>
      </trkpt>
      <trkpt lat="44.03301" lon="2.03757">
        <ele>277.6</ele>
        <time>2021-09-05T11:25:47Z</time>
      </trkpt>
      <trkpt lat="44.03296" lon="2.03752">
        <ele>277.4</ele>
        <time>2021-09-05T11:25:48Z</time>
      </trkpt>
      <trkpt lat="44.03277" lon="2.03735">
        <ele>276.4</ele>
        <time>2021-09-05T11:25:51Z</time>
      </trkpt>
      <trkpt lat="44.03269" lon="2.03717">
        <ele>276</ele>
        <time>2021-09-05T11:25:53Z</time>
      </trkpt>
      <trkpt lat="44.03267" lon="2.0371">
        <ele>275.8</ele>
        <time>2021-09-05T11:25:54Z</time>
      </trkpt>
      <trkpt lat="44.03265" lon="2.037">
        <ele>275.6</ele>
        <time>2021-09-05T11:25:55Z</time>
      </trkpt>
      <trkpt lat="44.03262" lon="2.03689">
        <ele>275.4</ele>
        <time>2021-09-05T11:25:56Z</time>
      </trkpt>
      <trkpt lat="44.0326" lon="2.0368">
        <ele>275.4</ele>
        <time>2021-09-05T11:25:57Z</time>
      </trkpt>
      <trkpt lat="44.03258" lon="2.03662">
        <ele>275.4</ele>
        <time>2021-09-05T11:25:59Z</time>
      </trkpt>
      <trkpt lat="44.03258" lon="2.03651">
        <ele>275.2</ele>
        <time>2021-09-05T11:26:00Z</time>
      </trkpt>
      <trkpt lat="44.03258" lon="2.03639">
        <ele>275.2</ele>
        <time>2021-09-05T11:26:01Z</time>
      </trkpt>
      <trkpt lat="44.03261" lon="2.03609">
        <ele>274.8</ele>
        <time>2021-09-05T11:26:04Z</time>
      </trkpt>
      <trkpt lat="44.03255" lon="2.03596">
        <ele>275</ele>
        <time>2021-09-05T11:26:05Z</time>
      </trkpt>
      <trkpt lat="44.03253" lon="2.03586">
        <ele>274.8</ele>
        <time>2021-09-05T11:26:06Z</time>
      </trkpt>
      <trkpt lat="44.03251" lon="2.03577">
        <ele>274.6</ele>
        <time>2021-09-05T11:26:07Z</time>
      </trkpt>
      <trkpt lat="44.03249" lon="2.03568">
        <ele>274.6</ele>
        <time>2021-09-05T11:26:08Z</time>
      </trkpt>
      <trkpt lat="44.03246" lon="2.03555">
        <ele>274.8</ele>
        <time>2021-09-05T11:26:09Z</time>
      </trkpt>
      <trkpt lat="44.03244" lon="2.03545">
        <ele>274.6</ele>
        <time>2021-09-05T11:26:10Z</time>
      </trkpt>
      <trkpt lat="44.03243" lon="2.03537">
        <ele>274.8</ele>
        <time>2021-09-05T11:26:11Z</time>
      </trkpt>
      <trkpt lat="44.03242" lon="2.03526">
        <ele>274.8</ele>
        <time>2021-09-05T11:26:12Z</time>
      </trkpt>
      <trkpt lat="44.03242" lon="2.03516">
        <ele>274.6</ele>
        <time>2021-09-05T11:26:13Z</time>
      </trkpt>
      <trkpt lat="44.03242" lon="2.03509">
        <ele>274.4</ele>
        <time>2021-09-05T11:26:14Z</time>
      </trkpt>
      <trkpt lat="44.03242" lon="2.03503">
        <ele>274.4</ele>
        <time>2021-09-05T11:26:15Z</time>
      </trkpt>
      <trkpt lat="44.03243" lon="2.03498">
        <ele>274.2</ele>
        <time>2021-09-05T11:26:16Z</time>
      </trkpt>
      <trkpt lat="44.03241" lon="2.03496">
        <ele>274.2</ele>
        <time>2021-09-05T11:26:17Z</time>
      </trkpt>
      <trkpt lat="44.03239" lon="2.03496">
        <ele>274.2</ele>
        <time>2021-09-05T11:26:18Z</time>
      </trkpt>
      <trkpt lat="44.03237" lon="2.03496">
        <ele>274.2</ele>
        <time>2021-09-05T11:26:19Z</time>
      </trkpt>
      <trkpt lat="44.03235" lon="2.03498">
        <ele>274.2</ele>
        <time>2021-09-05T11:26:20Z</time>
      </trkpt>
      <trkpt lat="44.0323" lon="2.03503">
        <ele>274.2</ele>
        <time>2021-09-05T11:26:22Z</time>
      </trkpt>
      <trkpt lat="44.03228" lon="2.03505">
        <ele>274.2</ele>
        <time>2021-09-05T11:26:23Z</time>
      </trkpt>
      <trkpt lat="44.03205" lon="2.03514">
        <ele>274.4</ele>
        <time>2021-09-05T11:26:29Z</time>
      </trkpt>
      <trkpt lat="44.0318" lon="2.03519">
        <ele>274.8</ele>
        <time>2021-09-05T11:26:35Z</time>
      </trkpt>
      <trkpt lat="44.03176" lon="2.0352">
        <ele>274.8</ele>
        <time>2021-09-05T11:26:36Z</time>
      </trkpt>
      <trkpt lat="44.03172" lon="2.03521">
        <ele>275</ele>
        <time>2021-09-05T11:26:37Z</time>
      </trkpt>
      <trkpt lat="44.03169" lon="2.03523">
        <ele>275</ele>
        <time>2021-09-05T11:26:38Z</time>
      </trkpt>
      <trkpt lat="44.03161" lon="2.03533">
        <ele>275.4</ele>
        <time>2021-09-05T11:26:41Z</time>
      </trkpt>
      <trkpt lat="44.03159" lon="2.03538">
        <ele>275.4</ele>
        <time>2021-09-05T11:26:42Z</time>
      </trkpt>
      <trkpt lat="44.03159" lon="2.03543">
        <ele>275.8</ele>
        <time>2021-09-05T11:26:43Z</time>
      </trkpt>
      <trkpt lat="44.03158" lon="2.03547">
        <ele>276</ele>
        <time>2021-09-05T11:26:44Z</time>
      </trkpt>
      <trkpt lat="44.03158" lon="2.03551">
        <ele>276</ele>
        <time>2021-09-05T11:26:45Z</time>
      </trkpt>
      <trkpt lat="44.03158" lon="2.03556">
        <ele>276.2</ele>
        <time>2021-09-05T11:26:46Z</time>
      </trkpt>
      <trkpt lat="44.03156" lon="2.03566">
        <ele>276.6</ele>
        <time>2021-09-05T11:26:48Z</time>
      </trkpt>
      <trkpt lat="44.03155" lon="2.03571">
        <ele>276.4</ele>
        <time>2021-09-05T11:26:49Z</time>
      </trkpt>
      <trkpt lat="44.03153" lon="2.03581">
        <ele>277</ele>
        <time>2021-09-05T11:26:51Z</time>
      </trkpt>
      <trkpt lat="44.03151" lon="2.03585">
        <ele>277.2</ele>
        <time>2021-09-05T11:26:52Z</time>
      </trkpt>
      <trkpt lat="44.03149" lon="2.03588">
        <ele>277.4</ele>
        <time>2021-09-05T11:26:53Z</time>
      </trkpt>
      <trkpt lat="44.03146" lon="2.03591">
        <ele>277.4</ele>
        <time>2021-09-05T11:26:54Z</time>
      </trkpt>
      <trkpt lat="44.03144" lon="2.03594">
        <ele>277.6</ele>
        <time>2021-09-05T11:26:55Z</time>
      </trkpt>
      <trkpt lat="44.03141" lon="2.03598">
        <ele>277.6</ele>
        <time>2021-09-05T11:26:56Z</time>
      </trkpt>
      <trkpt lat="44.03138" lon="2.03601">
        <ele>277.6</ele>
        <time>2021-09-05T11:26:57Z</time>
      </trkpt>
      <trkpt lat="44.03135" lon="2.03604">
        <ele>277.8</ele>
        <time>2021-09-05T11:26:58Z</time>
      </trkpt>
      <trkpt lat="44.03133" lon="2.03606">
        <ele>278.2</ele>
        <time>2021-09-05T11:26:59Z</time>
      </trkpt>
      <trkpt lat="44.03131" lon="2.0361">
        <ele>278.6</ele>
        <time>2021-09-05T11:27:00Z</time>
      </trkpt>
      <trkpt lat="44.03127" lon="2.03613">
        <ele>278.8</ele>
        <time>2021-09-05T11:27:01Z</time>
      </trkpt>
      <trkpt lat="44.03125" lon="2.03616">
        <ele>279</ele>
        <time>2021-09-05T11:27:02Z</time>
      </trkpt>
      <trkpt lat="44.03123" lon="2.03619">
        <ele>279.2</ele>
        <time>2021-09-05T11:27:03Z</time>
      </trkpt>
      <trkpt lat="44.03121" lon="2.03622">
        <ele>279.4</ele>
        <time>2021-09-05T11:27:04Z</time>
      </trkpt>
      <trkpt lat="44.03118" lon="2.03626">
        <ele>279.6</ele>
        <time>2021-09-05T11:27:05Z</time>
      </trkpt>
      <trkpt lat="44.03116" lon="2.0363">
        <ele>279.6</ele>
        <time>2021-09-05T11:27:06Z</time>
      </trkpt>
      <trkpt lat="44.03115" lon="2.03634">
        <ele>279.8</ele>
        <time>2021-09-05T11:27:07Z</time>
      </trkpt>
      <trkpt lat="44.03113" lon="2.03637">
        <ele>280</ele>
        <time>2021-09-05T11:27:08Z</time>
      </trkpt>
      <trkpt lat="44.03112" lon="2.03641">
        <ele>280.4</ele>
        <time>2021-09-05T11:27:09Z</time>
      </trkpt>
      <trkpt lat="44.0311" lon="2.03645">
        <ele>280.6</ele>
        <time>2021-09-05T11:27:10Z</time>
      </trkpt>
      <trkpt lat="44.03108" lon="2.03649">
        <ele>280.8</ele>
        <time>2021-09-05T11:27:11Z</time>
      </trkpt>
      <trkpt lat="44.03106" lon="2.03652">
        <ele>280.8</ele>
        <time>2021-09-05T11:27:12Z</time>
      </trkpt>
      <trkpt lat="44.03104" lon="2.03655">
        <ele>281</ele>
        <time>2021-09-05T11:27:13Z</time>
      </trkpt>
      <trkpt lat="44.03102" lon="2.03659">
        <ele>281.2</ele>
        <time>2021-09-05T11:27:14Z</time>
      </trkpt>
      <trkpt lat="44.03101" lon="2.03662">
        <ele>281.4</ele>
        <time>2021-09-05T11:27:15Z</time>
      </trkpt>
      <trkpt lat="44.03099" lon="2.03666">
        <ele>281.6</ele>
        <time>2021-09-05T11:27:16Z</time>
      </trkpt>
      <trkpt lat="44.03098" lon="2.03669">
        <ele>281.8</ele>
        <time>2021-09-05T11:27:17Z</time>
      </trkpt>
      <trkpt lat="44.03096" lon="2.03672">
        <ele>281.8</ele>
        <time>2021-09-05T11:27:18Z</time>
      </trkpt>
      <trkpt lat="44.03095" lon="2.03675">
        <ele>282</ele>
        <time>2021-09-05T11:27:19Z</time>
      </trkpt>
      <trkpt lat="44.03093" lon="2.03679">
        <ele>282.2</ele>
        <time>2021-09-05T11:27:20Z</time>
      </trkpt>
      <trkpt lat="44.03091" lon="2.03682">
        <ele>282.4</ele>
        <time>2021-09-05T11:27:21Z</time>
      </trkpt>
      <trkpt lat="44.0309" lon="2.03685">
        <ele>282.8</ele>
        <time>2021-09-05T11:27:22Z</time>
      </trkpt>
      <trkpt lat="44.03088" lon="2.0369">
        <ele>282.8</ele>
        <time>2021-09-05T11:27:23Z</time>
      </trkpt>
      <trkpt lat="44.03086" lon="2.03693">
        <ele>283</ele>
        <time>2021-09-05T11:27:24Z</time>
      </trkpt>
      <trkpt lat="44.03085" lon="2.03696">
        <ele>283.2</ele>
        <time>2021-09-05T11:27:25Z</time>
      </trkpt>
      <trkpt lat="44.03084" lon="2.037">
        <ele>283.2</ele>
        <time>2021-09-05T11:27:26Z</time>
      </trkpt>
      <trkpt lat="44.03083" lon="2.03704">
        <ele>283.4</ele>
        <time>2021-09-05T11:27:27Z</time>
      </trkpt>
      <trkpt lat="44.03081" lon="2.03707">
        <ele>283.6</ele>
        <time>2021-09-05T11:27:28Z</time>
      </trkpt>
      <trkpt lat="44.0308" lon="2.03711">
        <ele>283.6</ele>
        <time>2021-09-05T11:27:29Z</time>
      </trkpt>
      <trkpt lat="44.03078" lon="2.03714">
        <ele>283.8</ele>
        <time>2021-09-05T11:27:30Z</time>
      </trkpt>
      <trkpt lat="44.03076" lon="2.03717">
        <ele>284</ele>
        <time>2021-09-05T11:27:31Z</time>
      </trkpt>
      <trkpt lat="44.03074" lon="2.0372">
        <ele>284</ele>
        <time>2021-09-05T11:27:32Z</time>
      </trkpt>
      <trkpt lat="44.03071" lon="2.03724">
        <ele>284</ele>
        <time>2021-09-05T11:27:33Z</time>
      </trkpt>
      <trkpt lat="44.03069" lon="2.03727">
        <ele>284.4</ele>
        <time>2021-09-05T11:27:34Z</time>
      </trkpt>
      <trkpt lat="44.03068" lon="2.03731">
        <ele>284.6</ele>
        <time>2021-09-05T11:27:35Z</time>
      </trkpt>
      <trkpt lat="44.03066" lon="2.03734">
        <ele>284.8</ele>
        <time>2021-09-05T11:27:36Z</time>
      </trkpt>
      <trkpt lat="44.03064" lon="2.03737">
        <ele>285</ele>
        <time>2021-09-05T11:27:37Z</time>
      </trkpt>
      <trkpt lat="44.03062" lon="2.0374">
        <ele>285</ele>
        <time>2021-09-05T11:27:38Z</time>
      </trkpt>
      <trkpt lat="44.0306" lon="2.03743">
        <ele>285.2</ele>
        <time>2021-09-05T11:27:39Z</time>
      </trkpt>
      <trkpt lat="44.03058" lon="2.03747">
        <ele>285.2</ele>
        <time>2021-09-05T11:27:40Z</time>
      </trkpt>
      <trkpt lat="44.03056" lon="2.03751">
        <ele>285.4</ele>
        <time>2021-09-05T11:27:41Z</time>
      </trkpt>
      <trkpt lat="44.03053" lon="2.03755">
        <ele>285.6</ele>
        <time>2021-09-05T11:27:42Z</time>
      </trkpt>
      <trkpt lat="44.03052" lon="2.03758">
        <ele>285.6</ele>
        <time>2021-09-05T11:27:43Z</time>
      </trkpt>
      <trkpt lat="44.0305" lon="2.0376">
        <ele>285.8</ele>
        <time>2021-09-05T11:27:44Z</time>
      </trkpt>
      <trkpt lat="44.03048" lon="2.03763">
        <ele>285.8</ele>
        <time>2021-09-05T11:27:45Z</time>
      </trkpt>
      <trkpt lat="44.03046" lon="2.03767">
        <ele>285.8</ele>
        <time>2021-09-05T11:27:46Z</time>
      </trkpt>
      <trkpt lat="44.03044" lon="2.03771">
        <ele>286.2</ele>
        <time>2021-09-05T11:27:47Z</time>
      </trkpt>
      <trkpt lat="44.03042" lon="2.03774">
        <ele>286.2</ele>
        <time>2021-09-05T11:27:48Z</time>
      </trkpt>
      <trkpt lat="44.03041" lon="2.03777">
        <ele>286.4</ele>
        <time>2021-09-05T11:27:49Z</time>
      </trkpt>
      <trkpt lat="44.0304" lon="2.0378">
        <ele>286.8</ele>
        <time>2021-09-05T11:27:50Z</time>
      </trkpt>
      <trkpt lat="44.03038" lon="2.03783">
        <ele>287</ele>
        <time>2021-09-05T11:27:51Z</time>
      </trkpt>
      <trkpt lat="44.03036" lon="2.03786">
        <ele>287.2</ele>
        <time>2021-09-05T11:27:52Z</time>
      </trkpt>
      <trkpt lat="44.03035" lon="2.03789">
        <ele>287.4</ele>
        <time>2021-09-05T11:27:53Z</time>
      </trkpt>
      <trkpt lat="44.03033" lon="2.03792">
        <ele>287.4</ele>
        <time>2021-09-05T11:27:54Z</time>
      </trkpt>
      <trkpt lat="44.03031" lon="2.03795">
        <ele>287.6</ele>
        <time>2021-09-05T11:27:55Z</time>
      </trkpt>
      <trkpt lat="44.03029" lon="2.03801">
        <ele>287.8</ele>
        <time>2021-09-05T11:27:56Z</time>
      </trkpt>
      <trkpt lat="44.03027" lon="2.03804">
        <ele>288</ele>
        <time>2021-09-05T11:27:57Z</time>
      </trkpt>
      <trkpt lat="44.03025" lon="2.03807">
        <ele>288.2</ele>
        <time>2021-09-05T11:27:58Z</time>
      </trkpt>
      <trkpt lat="44.03023" lon="2.0381">
        <ele>288.2</ele>
        <time>2021-09-05T11:27:59Z</time>
      </trkpt>
      <trkpt lat="44.03021" lon="2.03813">
        <ele>288.4</ele>
        <time>2021-09-05T11:28:00Z</time>
      </trkpt>
      <trkpt lat="44.0302" lon="2.03815">
        <ele>288.6</ele>
        <time>2021-09-05T11:28:01Z</time>
      </trkpt>
      <trkpt lat="44.03018" lon="2.03818">
        <ele>288.8</ele>
        <time>2021-09-05T11:28:02Z</time>
      </trkpt>
      <trkpt lat="44.03016" lon="2.0382">
        <ele>289.2</ele>
        <time>2021-09-05T11:28:03Z</time>
      </trkpt>
      <trkpt lat="44.03014" lon="2.03823">
        <ele>289.2</ele>
        <time>2021-09-05T11:28:04Z</time>
      </trkpt>
      <trkpt lat="44.03013" lon="2.03826">
        <ele>289.8</ele>
        <time>2021-09-05T11:28:05Z</time>
      </trkpt>
      <trkpt lat="44.03011" lon="2.03828">
        <ele>290.2</ele>
        <time>2021-09-05T11:28:06Z</time>
      </trkpt>
      <trkpt lat="44.03009" lon="2.0383">
        <ele>290.2</ele>
        <time>2021-09-05T11:28:07Z</time>
      </trkpt>
      <trkpt lat="44.03007" lon="2.03833">
        <ele>290.4</ele>
        <time>2021-09-05T11:28:08Z</time>
      </trkpt>
      <trkpt lat="44.03005" lon="2.03838">
        <ele>290.4</ele>
        <time>2021-09-05T11:28:09Z</time>
      </trkpt>
      <trkpt lat="44.03004" lon="2.03841">
        <ele>290.8</ele>
        <time>2021-09-05T11:28:10Z</time>
      </trkpt>
      <trkpt lat="44.03003" lon="2.03844">
        <ele>291</ele>
        <time>2021-09-05T11:28:11Z</time>
      </trkpt>
      <trkpt lat="44.03001" lon="2.03847">
        <ele>291.4</ele>
        <time>2021-09-05T11:28:12Z</time>
      </trkpt>
      <trkpt lat="44.02999" lon="2.0385">
        <ele>291.4</ele>
        <time>2021-09-05T11:28:13Z</time>
      </trkpt>
      <trkpt lat="44.02997" lon="2.03854">
        <ele>291.6</ele>
        <time>2021-09-05T11:28:14Z</time>
      </trkpt>
      <trkpt lat="44.02995" lon="2.03858">
        <ele>292</ele>
        <time>2021-09-05T11:28:15Z</time>
      </trkpt>
      <trkpt lat="44.02992" lon="2.03861">
        <ele>292</ele>
        <time>2021-09-05T11:28:16Z</time>
      </trkpt>
      <trkpt lat="44.02991" lon="2.03864">
        <ele>292.4</ele>
        <time>2021-09-05T11:28:17Z</time>
      </trkpt>
      <trkpt lat="44.02988" lon="2.03867">
        <ele>292.6</ele>
        <time>2021-09-05T11:28:18Z</time>
      </trkpt>
      <trkpt lat="44.02986" lon="2.0387">
        <ele>292.8</ele>
        <time>2021-09-05T11:28:19Z</time>
      </trkpt>
      <trkpt lat="44.02984" lon="2.03873">
        <ele>292.8</ele>
        <time>2021-09-05T11:28:20Z</time>
      </trkpt>
      <trkpt lat="44.02982" lon="2.03876">
        <ele>293.2</ele>
        <time>2021-09-05T11:28:21Z</time>
      </trkpt>
      <trkpt lat="44.02979" lon="2.03878">
        <ele>293.6</ele>
        <time>2021-09-05T11:28:22Z</time>
      </trkpt>
      <trkpt lat="44.02978" lon="2.03882">
        <ele>293.8</ele>
        <time>2021-09-05T11:28:23Z</time>
      </trkpt>
      <trkpt lat="44.02975" lon="2.03886">
        <ele>294.4</ele>
        <time>2021-09-05T11:28:24Z</time>
      </trkpt>
      <trkpt lat="44.02973" lon="2.03889">
        <ele>294.6</ele>
        <time>2021-09-05T11:28:25Z</time>
      </trkpt>
      <trkpt lat="44.02971" lon="2.03892">
        <ele>294.8</ele>
        <time>2021-09-05T11:28:26Z</time>
      </trkpt>
      <trkpt lat="44.0297" lon="2.03895">
        <ele>294.8</ele>
        <time>2021-09-05T11:28:27Z</time>
      </trkpt>
      <trkpt lat="44.02968" lon="2.03897">
        <ele>295</ele>
        <time>2021-09-05T11:28:28Z</time>
      </trkpt>
      <trkpt lat="44.02966" lon="2.03898">
        <ele>295.4</ele>
        <time>2021-09-05T11:28:29Z</time>
      </trkpt>
      <trkpt lat="44.02964" lon="2.03901">
        <ele>295.6</ele>
        <time>2021-09-05T11:28:30Z</time>
      </trkpt>
      <trkpt lat="44.02962" lon="2.03903">
        <ele>295.8</ele>
        <time>2021-09-05T11:28:31Z</time>
      </trkpt>
      <trkpt lat="44.0296" lon="2.03905">
        <ele>296</ele>
        <time>2021-09-05T11:28:32Z</time>
      </trkpt>
      <trkpt lat="44.02957" lon="2.03907">
        <ele>296.2</ele>
        <time>2021-09-05T11:28:33Z</time>
      </trkpt>
      <trkpt lat="44.02955" lon="2.0391">
        <ele>296.4</ele>
        <time>2021-09-05T11:28:34Z</time>
      </trkpt>
      <trkpt lat="44.02954" lon="2.03914">
        <ele>296.6</ele>
        <time>2021-09-05T11:28:35Z</time>
      </trkpt>
      <trkpt lat="44.02953" lon="2.03919">
        <ele>296.8</ele>
        <time>2021-09-05T11:28:36Z</time>
      </trkpt>
      <trkpt lat="44.02952" lon="2.03921">
        <ele>297.2</ele>
        <time>2021-09-05T11:28:37Z</time>
      </trkpt>
      <trkpt lat="44.02951" lon="2.03924">
        <ele>297.4</ele>
        <time>2021-09-05T11:28:38Z</time>
      </trkpt>
      <trkpt lat="44.0295" lon="2.03927">
        <ele>297.6</ele>
        <time>2021-09-05T11:28:39Z</time>
      </trkpt>
      <trkpt lat="44.02948" lon="2.0393">
        <ele>297.8</ele>
        <time>2021-09-05T11:28:40Z</time>
      </trkpt>
      <trkpt lat="44.02946" lon="2.03932">
        <ele>298</ele>
        <time>2021-09-05T11:28:41Z</time>
      </trkpt>
      <trkpt lat="44.02944" lon="2.03934">
        <ele>298.2</ele>
        <time>2021-09-05T11:28:42Z</time>
      </trkpt>
      <trkpt lat="44.02943" lon="2.03937">
        <ele>298.4</ele>
        <time>2021-09-05T11:28:43Z</time>
      </trkpt>
      <trkpt lat="44.02941" lon="2.0394">
        <ele>298.6</ele>
        <time>2021-09-05T11:28:44Z</time>
      </trkpt>
      <trkpt lat="44.0294" lon="2.03945">
        <ele>298.8</ele>
        <time>2021-09-05T11:28:45Z</time>
      </trkpt>
      <trkpt lat="44.02939" lon="2.03947">
        <ele>299</ele>
        <time>2021-09-05T11:28:46Z</time>
      </trkpt>
      <trkpt lat="44.02937" lon="2.0395">
        <ele>299.4</ele>
        <time>2021-09-05T11:28:47Z</time>
      </trkpt>
      <trkpt lat="44.02936" lon="2.03953">
        <ele>299.4</ele>
        <time>2021-09-05T11:28:48Z</time>
      </trkpt>
      <trkpt lat="44.02935" lon="2.03956">
        <ele>299.8</ele>
        <time>2021-09-05T11:28:49Z</time>
      </trkpt>
      <trkpt lat="44.02934" lon="2.03959">
        <ele>300</ele>
        <time>2021-09-05T11:28:50Z</time>
      </trkpt>
      <trkpt lat="44.02933" lon="2.03963">
        <ele>300.4</ele>
        <time>2021-09-05T11:28:51Z</time>
      </trkpt>
      <trkpt lat="44.02931" lon="2.03966">
        <ele>300.6</ele>
        <time>2021-09-05T11:28:52Z</time>
      </trkpt>
      <trkpt lat="44.0293" lon="2.03969">
        <ele>301</ele>
        <time>2021-09-05T11:28:53Z</time>
      </trkpt>
      <trkpt lat="44.02928" lon="2.03972">
        <ele>301</ele>
        <time>2021-09-05T11:28:54Z</time>
      </trkpt>
      <trkpt lat="44.02926" lon="2.03974">
        <ele>301.4</ele>
        <time>2021-09-05T11:28:55Z</time>
      </trkpt>
      <trkpt lat="44.02924" lon="2.03978">
        <ele>301.4</ele>
        <time>2021-09-05T11:28:56Z</time>
      </trkpt>
      <trkpt lat="44.02922" lon="2.03982">
        <ele>301.6</ele>
        <time>2021-09-05T11:28:57Z</time>
      </trkpt>
      <trkpt lat="44.0292" lon="2.03986">
        <ele>301.8</ele>
        <time>2021-09-05T11:28:58Z</time>
      </trkpt>
      <trkpt lat="44.02919" lon="2.0399">
        <ele>301.8</ele>
        <time>2021-09-05T11:28:59Z</time>
      </trkpt>
      <trkpt lat="44.02918" lon="2.03994">
        <ele>302</ele>
        <time>2021-09-05T11:29:00Z</time>
      </trkpt>
      <trkpt lat="44.02917" lon="2.03998">
        <ele>302.2</ele>
        <time>2021-09-05T11:29:01Z</time>
      </trkpt>
      <trkpt lat="44.02916" lon="2.04">
        <ele>302.4</ele>
        <time>2021-09-05T11:29:02Z</time>
      </trkpt>
      <trkpt lat="44.02914" lon="2.04003">
        <ele>302.8</ele>
        <time>2021-09-05T11:29:03Z</time>
      </trkpt>
      <trkpt lat="44.02913" lon="2.04008">
        <ele>302.8</ele>
        <time>2021-09-05T11:29:04Z</time>
      </trkpt>
      <trkpt lat="44.02912" lon="2.04011">
        <ele>303.2</ele>
        <time>2021-09-05T11:29:05Z</time>
      </trkpt>
      <trkpt lat="44.0291" lon="2.04016">
        <ele>303.6</ele>
        <time>2021-09-05T11:29:06Z</time>
      </trkpt>
      <trkpt lat="44.02909" lon="2.04019">
        <ele>303.8</ele>
        <time>2021-09-05T11:29:07Z</time>
      </trkpt>
      <trkpt lat="44.02907" lon="2.04022">
        <ele>304</ele>
        <time>2021-09-05T11:29:08Z</time>
      </trkpt>
      <trkpt lat="44.02905" lon="2.04026">
        <ele>304.2</ele>
        <time>2021-09-05T11:29:09Z</time>
      </trkpt>
      <trkpt lat="44.02903" lon="2.04028">
        <ele>304.4</ele>
        <time>2021-09-05T11:29:10Z</time>
      </trkpt>
      <trkpt lat="44.02901" lon="2.04032">
        <ele>304.6</ele>
        <time>2021-09-05T11:29:11Z</time>
      </trkpt>
      <trkpt lat="44.02899" lon="2.04035">
        <ele>304.8</ele>
        <time>2021-09-05T11:29:12Z</time>
      </trkpt>
      <trkpt lat="44.02898" lon="2.04038">
        <ele>304.8</ele>
        <time>2021-09-05T11:29:13Z</time>
      </trkpt>
      <trkpt lat="44.02896" lon="2.04041">
        <ele>305</ele>
        <time>2021-09-05T11:29:14Z</time>
      </trkpt>
      <trkpt lat="44.02893" lon="2.04044">
        <ele>305.2</ele>
        <time>2021-09-05T11:29:15Z</time>
      </trkpt>
      <trkpt lat="44.02892" lon="2.04046">
        <ele>305.6</ele>
        <time>2021-09-05T11:29:16Z</time>
      </trkpt>
      <trkpt lat="44.0289" lon="2.04049">
        <ele>305.6</ele>
        <time>2021-09-05T11:29:17Z</time>
      </trkpt>
      <trkpt lat="44.02887" lon="2.04053">
        <ele>306</ele>
        <time>2021-09-05T11:29:18Z</time>
      </trkpt>
      <trkpt lat="44.02886" lon="2.04056">
        <ele>306</ele>
        <time>2021-09-05T11:29:19Z</time>
      </trkpt>
      <trkpt lat="44.02884" lon="2.04059">
        <ele>306.2</ele>
        <time>2021-09-05T11:29:20Z</time>
      </trkpt>
      <trkpt lat="44.02882" lon="2.04062">
        <ele>306.4</ele>
        <time>2021-09-05T11:29:21Z</time>
      </trkpt>
      <trkpt lat="44.0288" lon="2.04065">
        <ele>306.6</ele>
        <time>2021-09-05T11:29:22Z</time>
      </trkpt>
      <trkpt lat="44.02878" lon="2.04068">
        <ele>307</ele>
        <time>2021-09-05T11:29:23Z</time>
      </trkpt>
      <trkpt lat="44.02875" lon="2.04071">
        <ele>307</ele>
        <time>2021-09-05T11:29:24Z</time>
      </trkpt>
      <trkpt lat="44.02873" lon="2.04073">
        <ele>307.2</ele>
        <time>2021-09-05T11:29:25Z</time>
      </trkpt>
      <trkpt lat="44.02871" lon="2.04075">
        <ele>307.2</ele>
        <time>2021-09-05T11:29:26Z</time>
      </trkpt>
      <trkpt lat="44.02869" lon="2.04079">
        <ele>307.4</ele>
        <time>2021-09-05T11:29:27Z</time>
      </trkpt>
      <trkpt lat="44.02866" lon="2.04081">
        <ele>307.6</ele>
        <time>2021-09-05T11:29:28Z</time>
      </trkpt>
      <trkpt lat="44.02865" lon="2.04084">
        <ele>307.8</ele>
        <time>2021-09-05T11:29:29Z</time>
      </trkpt>
      <trkpt lat="44.02863" lon="2.04088">
        <ele>308</ele>
        <time>2021-09-05T11:29:30Z</time>
      </trkpt>
      <trkpt lat="44.02861" lon="2.0409">
        <ele>308</ele>
        <time>2021-09-05T11:29:31Z</time>
      </trkpt>
      <trkpt lat="44.02859" lon="2.04094">
        <ele>308.2</ele>
        <time>2021-09-05T11:29:32Z</time>
      </trkpt>
      <trkpt lat="44.02857" lon="2.04097">
        <ele>308.4</ele>
        <time>2021-09-05T11:29:33Z</time>
      </trkpt>
      <trkpt lat="44.02855" lon="2.04099">
        <ele>308.6</ele>
        <time>2021-09-05T11:29:34Z</time>
      </trkpt>
      <trkpt lat="44.02853" lon="2.04101">
        <ele>308.6</ele>
        <time>2021-09-05T11:29:35Z</time>
      </trkpt>
      <trkpt lat="44.0285" lon="2.04104">
        <ele>309</ele>
        <time>2021-09-05T11:29:36Z</time>
      </trkpt>
      <trkpt lat="44.02849" lon="2.04107">
        <ele>309.2</ele>
        <time>2021-09-05T11:29:37Z</time>
      </trkpt>
      <trkpt lat="44.02847" lon="2.04111">
        <ele>309.4</ele>
        <time>2021-09-05T11:29:38Z</time>
      </trkpt>
      <trkpt lat="44.02844" lon="2.04113">
        <ele>309.6</ele>
        <time>2021-09-05T11:29:39Z</time>
      </trkpt>
      <trkpt lat="44.02842" lon="2.04116">
        <ele>309.6</ele>
        <time>2021-09-05T11:29:40Z</time>
      </trkpt>
      <trkpt lat="44.02841" lon="2.04119">
        <ele>309.8</ele>
        <time>2021-09-05T11:29:41Z</time>
      </trkpt>
      <trkpt lat="44.02838" lon="2.04121">
        <ele>310</ele>
        <time>2021-09-05T11:29:42Z</time>
      </trkpt>
      <trkpt lat="44.02836" lon="2.04124">
        <ele>310.2</ele>
        <time>2021-09-05T11:29:43Z</time>
      </trkpt>
      <trkpt lat="44.02834" lon="2.04126">
        <ele>310.4</ele>
        <time>2021-09-05T11:29:44Z</time>
      </trkpt>
      <trkpt lat="44.02832" lon="2.04129">
        <ele>310.4</ele>
        <time>2021-09-05T11:29:45Z</time>
      </trkpt>
      <trkpt lat="44.0283" lon="2.04132">
        <ele>310.8</ele>
        <time>2021-09-05T11:29:46Z</time>
      </trkpt>
      <trkpt lat="44.02828" lon="2.04135">
        <ele>310.8</ele>
        <time>2021-09-05T11:29:47Z</time>
      </trkpt>
      <trkpt lat="44.02826" lon="2.04137">
        <ele>311</ele>
        <time>2021-09-05T11:29:48Z</time>
      </trkpt>
      <trkpt lat="44.02823" lon="2.04141">
        <ele>311.2</ele>
        <time>2021-09-05T11:29:49Z</time>
      </trkpt>
      <trkpt lat="44.02821" lon="2.04144">
        <ele>311.4</ele>
        <time>2021-09-05T11:29:50Z</time>
      </trkpt>
      <trkpt lat="44.02819" lon="2.04147">
        <ele>311.6</ele>
        <time>2021-09-05T11:29:51Z</time>
      </trkpt>
      <trkpt lat="44.02817" lon="2.0415">
        <ele>311.8</ele>
        <time>2021-09-05T11:29:52Z</time>
      </trkpt>
      <trkpt lat="44.02815" lon="2.04153">
        <ele>312.2</ele>
        <time>2021-09-05T11:29:53Z</time>
      </trkpt>
      <trkpt lat="44.02813" lon="2.04156">
        <ele>312.2</ele>
        <time>2021-09-05T11:29:54Z</time>
      </trkpt>
      <trkpt lat="44.02811" lon="2.04159">
        <ele>312.4</ele>
        <time>2021-09-05T11:29:55Z</time>
      </trkpt>
      <trkpt lat="44.02808" lon="2.04162">
        <ele>312.6</ele>
        <time>2021-09-05T11:29:56Z</time>
      </trkpt>
      <trkpt lat="44.02806" lon="2.04165">
        <ele>312.8</ele>
        <time>2021-09-05T11:29:57Z</time>
      </trkpt>
      <trkpt lat="44.02804" lon="2.04169">
        <ele>313</ele>
        <time>2021-09-05T11:29:58Z</time>
      </trkpt>
      <trkpt lat="44.02802" lon="2.04172">
        <ele>313.4</ele>
        <time>2021-09-05T11:29:59Z</time>
      </trkpt>
      <trkpt lat="44.02799" lon="2.04176">
        <ele>313.4</ele>
        <time>2021-09-05T11:30:00Z</time>
      </trkpt>
      <trkpt lat="44.02797" lon="2.0418">
        <ele>313.6</ele>
        <time>2021-09-05T11:30:01Z</time>
      </trkpt>
      <trkpt lat="44.02794" lon="2.04184">
        <ele>314</ele>
        <time>2021-09-05T11:30:02Z</time>
      </trkpt>
      <trkpt lat="44.02791" lon="2.04188">
        <ele>314</ele>
        <time>2021-09-05T11:30:03Z</time>
      </trkpt>
      <trkpt lat="44.02788" lon="2.04192">
        <ele>314.4</ele>
        <time>2021-09-05T11:30:04Z</time>
      </trkpt>
      <trkpt lat="44.02786" lon="2.04196">
        <ele>314.4</ele>
        <time>2021-09-05T11:30:05Z</time>
      </trkpt>
      <trkpt lat="44.02783" lon="2.04201">
        <ele>314.6</ele>
        <time>2021-09-05T11:30:06Z</time>
      </trkpt>
      <trkpt lat="44.0278" lon="2.04205">
        <ele>314.6</ele>
        <time>2021-09-05T11:30:07Z</time>
      </trkpt>
      <trkpt lat="44.02777" lon="2.04209">
        <ele>315</ele>
        <time>2021-09-05T11:30:08Z</time>
      </trkpt>
      <trkpt lat="44.02774" lon="2.04212">
        <ele>315.2</ele>
        <time>2021-09-05T11:30:09Z</time>
      </trkpt>
      <trkpt lat="44.0277" lon="2.04215">
        <ele>315.6</ele>
        <time>2021-09-05T11:30:10Z</time>
      </trkpt>
      <trkpt lat="44.02767" lon="2.04218">
        <ele>316</ele>
        <time>2021-09-05T11:30:11Z</time>
      </trkpt>
      <trkpt lat="44.02763" lon="2.0422">
        <ele>316</ele>
        <time>2021-09-05T11:30:12Z</time>
      </trkpt>
      <trkpt lat="44.02759" lon="2.04222">
        <ele>316.4</ele>
        <time>2021-09-05T11:30:13Z</time>
      </trkpt>
      <trkpt lat="44.02755" lon="2.04225">
        <ele>316.6</ele>
        <time>2021-09-05T11:30:14Z</time>
      </trkpt>
      <trkpt lat="44.02752" lon="2.04228">
        <ele>316.6</ele>
        <time>2021-09-05T11:30:15Z</time>
      </trkpt>
      <trkpt lat="44.02748" lon="2.04231">
        <ele>316.8</ele>
        <time>2021-09-05T11:30:16Z</time>
      </trkpt>
      <trkpt lat="44.02745" lon="2.04234">
        <ele>316.8</ele>
        <time>2021-09-05T11:30:17Z</time>
      </trkpt>
      <trkpt lat="44.02741" lon="2.04236">
        <ele>317.2</ele>
        <time>2021-09-05T11:30:18Z</time>
      </trkpt>
      <trkpt lat="44.02737" lon="2.04239">
        <ele>317.2</ele>
        <time>2021-09-05T11:30:19Z</time>
      </trkpt>
      <trkpt lat="44.02733" lon="2.04242">
        <ele>317.4</ele>
        <time>2021-09-05T11:30:20Z</time>
      </trkpt>
      <trkpt lat="44.02729" lon="2.04244">
        <ele>317.4</ele>
        <time>2021-09-05T11:30:21Z</time>
      </trkpt>
      <trkpt lat="44.02726" lon="2.04247">
        <ele>317.6</ele>
        <time>2021-09-05T11:30:22Z</time>
      </trkpt>
      <trkpt lat="44.02722" lon="2.04249">
        <ele>317.8</ele>
        <time>2021-09-05T11:30:23Z</time>
      </trkpt>
      <trkpt lat="44.02718" lon="2.04252">
        <ele>318</ele>
        <time>2021-09-05T11:30:24Z</time>
      </trkpt>
      <trkpt lat="44.02714" lon="2.04255">
        <ele>318.2</ele>
        <time>2021-09-05T11:30:25Z</time>
      </trkpt>
      <trkpt lat="44.02711" lon="2.04258">
        <ele>318.6</ele>
        <time>2021-09-05T11:30:26Z</time>
      </trkpt>
      <trkpt lat="44.02707" lon="2.04261">
        <ele>318.6</ele>
        <time>2021-09-05T11:30:27Z</time>
      </trkpt>
      <trkpt lat="44.02703" lon="2.04264">
        <ele>318.8</ele>
        <time>2021-09-05T11:30:28Z</time>
      </trkpt>
      <trkpt lat="44.02699" lon="2.04267">
        <ele>318.8</ele>
        <time>2021-09-05T11:30:29Z</time>
      </trkpt>
      <trkpt lat="44.02695" lon="2.04271">
        <ele>319</ele>
        <time>2021-09-05T11:30:30Z</time>
      </trkpt>
      <trkpt lat="44.02691" lon="2.04274">
        <ele>319.2</ele>
        <time>2021-09-05T11:30:31Z</time>
      </trkpt>
      <trkpt lat="44.02687" lon="2.04277">
        <ele>319.4</ele>
        <time>2021-09-05T11:30:32Z</time>
      </trkpt>
      <trkpt lat="44.02683" lon="2.04281">
        <ele>319.6</ele>
        <time>2021-09-05T11:30:33Z</time>
      </trkpt>
      <trkpt lat="44.02678" lon="2.04285">
        <ele>319.8</ele>
        <time>2021-09-05T11:30:34Z</time>
      </trkpt>
      <trkpt lat="44.02675" lon="2.04289">
        <ele>320</ele>
        <time>2021-09-05T11:30:35Z</time>
      </trkpt>
      <trkpt lat="44.02672" lon="2.04294">
        <ele>320.2</ele>
        <time>2021-09-05T11:30:36Z</time>
      </trkpt>
      <trkpt lat="44.02668" lon="2.04299">
        <ele>320.4</ele>
        <time>2021-09-05T11:30:37Z</time>
      </trkpt>
      <trkpt lat="44.02665" lon="2.04305">
        <ele>320.6</ele>
        <time>2021-09-05T11:30:38Z</time>
      </trkpt>
      <trkpt lat="44.02662" lon="2.04309">
        <ele>320.6</ele>
        <time>2021-09-05T11:30:39Z</time>
      </trkpt>
      <trkpt lat="44.02658" lon="2.04314">
        <ele>320.8</ele>
        <time>2021-09-05T11:30:40Z</time>
      </trkpt>
      <trkpt lat="44.02654" lon="2.0432">
        <ele>320.8</ele>
        <time>2021-09-05T11:30:41Z</time>
      </trkpt>
      <trkpt lat="44.02652" lon="2.04324">
        <ele>321</ele>
        <time>2021-09-05T11:30:42Z</time>
      </trkpt>
      <trkpt lat="44.02648" lon="2.04329">
        <ele>321.2</ele>
        <time>2021-09-05T11:30:43Z</time>
      </trkpt>
      <trkpt lat="44.02645" lon="2.04334">
        <ele>321.2</ele>
        <time>2021-09-05T11:30:44Z</time>
      </trkpt>
      <trkpt lat="44.02642" lon="2.04339">
        <ele>321.4</ele>
        <time>2021-09-05T11:30:45Z</time>
      </trkpt>
      <trkpt lat="44.02639" lon="2.04344">
        <ele>321.4</ele>
        <time>2021-09-05T11:30:46Z</time>
      </trkpt>
      <trkpt lat="44.02636" lon="2.04348">
        <ele>321.6</ele>
        <time>2021-09-05T11:30:47Z</time>
      </trkpt>
      <trkpt lat="44.02633" lon="2.04352">
        <ele>321.6</ele>
        <time>2021-09-05T11:30:48Z</time>
      </trkpt>
      <trkpt lat="44.02629" lon="2.04355">
        <ele>321.8</ele>
        <time>2021-09-05T11:30:49Z</time>
      </trkpt>
      <trkpt lat="44.02625" lon="2.04356">
        <ele>322</ele>
        <time>2021-09-05T11:30:50Z</time>
      </trkpt>
      <trkpt lat="44.02621" lon="2.04354">
        <ele>322</ele>
        <time>2021-09-05T11:30:51Z</time>
      </trkpt>
      <trkpt lat="44.02619" lon="2.0435">
        <ele>322.2</ele>
        <time>2021-09-05T11:30:52Z</time>
      </trkpt>
      <trkpt lat="44.02617" lon="2.04347">
        <ele>322.2</ele>
        <time>2021-09-05T11:30:53Z</time>
      </trkpt>
      <trkpt lat="44.02615" lon="2.04342">
        <ele>322.2</ele>
        <time>2021-09-05T11:30:54Z</time>
      </trkpt>
      <trkpt lat="44.02614" lon="2.04337">
        <ele>322.4</ele>
        <time>2021-09-05T11:30:55Z</time>
      </trkpt>
      <trkpt lat="44.02612" lon="2.04332">
        <ele>322.4</ele>
        <time>2021-09-05T11:30:56Z</time>
      </trkpt>
      <trkpt lat="44.0261" lon="2.04326">
        <ele>322.6</ele>
        <time>2021-09-05T11:30:57Z</time>
      </trkpt>
      <trkpt lat="44.02609" lon="2.04322">
        <ele>322.6</ele>
        <time>2021-09-05T11:30:58Z</time>
      </trkpt>
      <trkpt lat="44.02606" lon="2.04318">
        <ele>322.6</ele>
        <time>2021-09-05T11:30:59Z</time>
      </trkpt>
      <trkpt lat="44.02604" lon="2.04313">
        <ele>322.6</ele>
        <time>2021-09-05T11:31:00Z</time>
      </trkpt>
      <trkpt lat="44.02601" lon="2.04309">
        <ele>322.8</ele>
        <time>2021-09-05T11:31:01Z</time>
      </trkpt>
      <trkpt lat="44.02597" lon="2.04304">
        <ele>322.8</ele>
        <time>2021-09-05T11:31:02Z</time>
      </trkpt>
      <trkpt lat="44.02594" lon="2.043">
        <ele>323</ele>
        <time>2021-09-05T11:31:03Z</time>
      </trkpt>
      <trkpt lat="44.0259" lon="2.04296">
        <ele>323</ele>
        <time>2021-09-05T11:31:04Z</time>
      </trkpt>
      <trkpt lat="44.02587" lon="2.04294">
        <ele>323.2</ele>
        <time>2021-09-05T11:31:05Z</time>
      </trkpt>
      <trkpt lat="44.02583" lon="2.04291">
        <ele>323.4</ele>
        <time>2021-09-05T11:31:06Z</time>
      </trkpt>
      <trkpt lat="44.0258" lon="2.04288">
        <ele>323.6</ele>
        <time>2021-09-05T11:31:07Z</time>
      </trkpt>
      <trkpt lat="44.02576" lon="2.04285">
        <ele>323.6</ele>
        <time>2021-09-05T11:31:08Z</time>
      </trkpt>
      <trkpt lat="44.02573" lon="2.04282">
        <ele>323.8</ele>
        <time>2021-09-05T11:31:09Z</time>
      </trkpt>
      <trkpt lat="44.0257" lon="2.0428">
        <ele>324</ele>
        <time>2021-09-05T11:31:10Z</time>
      </trkpt>
      <trkpt lat="44.02566" lon="2.04278">
        <ele>324</ele>
        <time>2021-09-05T11:31:11Z</time>
      </trkpt>
      <trkpt lat="44.02562" lon="2.04276">
        <ele>324.2</ele>
        <time>2021-09-05T11:31:12Z</time>
      </trkpt>
      <trkpt lat="44.02558" lon="2.04275">
        <ele>324.4</ele>
        <time>2021-09-05T11:31:13Z</time>
      </trkpt>
      <trkpt lat="44.02554" lon="2.04275">
        <ele>324.6</ele>
        <time>2021-09-05T11:31:14Z</time>
      </trkpt>
      <trkpt lat="44.0255" lon="2.04276">
        <ele>324.6</ele>
        <time>2021-09-05T11:31:15Z</time>
      </trkpt>
      <trkpt lat="44.02546" lon="2.04278">
        <ele>324.8</ele>
        <time>2021-09-05T11:31:16Z</time>
      </trkpt>
      <trkpt lat="44.02544" lon="2.0428">
        <ele>324.8</ele>
        <time>2021-09-05T11:31:17Z</time>
      </trkpt>
      <trkpt lat="44.0254" lon="2.04283">
        <ele>325</ele>
        <time>2021-09-05T11:31:18Z</time>
      </trkpt>
      <trkpt lat="44.02536" lon="2.04285">
        <ele>325</ele>
        <time>2021-09-05T11:31:19Z</time>
      </trkpt>
      <trkpt lat="44.02532" lon="2.04288">
        <ele>325</ele>
        <time>2021-09-05T11:31:20Z</time>
      </trkpt>
      <trkpt lat="44.02528" lon="2.04291">
        <ele>325.2</ele>
        <time>2021-09-05T11:31:21Z</time>
      </trkpt>
      <trkpt lat="44.02524" lon="2.04294">
        <ele>325.4</ele>
        <time>2021-09-05T11:31:22Z</time>
      </trkpt>
      <trkpt lat="44.02519" lon="2.04298">
        <ele>325.6</ele>
        <time>2021-09-05T11:31:23Z</time>
      </trkpt>
      <trkpt lat="44.02514" lon="2.04302">
        <ele>325.6</ele>
        <time>2021-09-05T11:31:24Z</time>
      </trkpt>
      <trkpt lat="44.02509" lon="2.04305">
        <ele>325.6</ele>
        <time>2021-09-05T11:31:25Z</time>
      </trkpt>
      <trkpt lat="44.02506" lon="2.04308">
        <ele>325.6</ele>
        <time>2021-09-05T11:31:26Z</time>
      </trkpt>
      <trkpt lat="44.02501" lon="2.04311">
        <ele>325.6</ele>
        <time>2021-09-05T11:31:27Z</time>
      </trkpt>
      <trkpt lat="44.02496" lon="2.04316">
        <ele>325.6</ele>
        <time>2021-09-05T11:31:28Z</time>
      </trkpt>
      <trkpt lat="44.02491" lon="2.04319">
        <ele>325.6</ele>
        <time>2021-09-05T11:31:29Z</time>
      </trkpt>
      <trkpt lat="44.02487" lon="2.04322">
        <ele>325.6</ele>
        <time>2021-09-05T11:31:30Z</time>
      </trkpt>
      <trkpt lat="44.02482" lon="2.04326">
        <ele>325.6</ele>
        <time>2021-09-05T11:31:31Z</time>
      </trkpt>
      <trkpt lat="44.02478" lon="2.0433">
        <ele>325.6</ele>
        <time>2021-09-05T11:31:32Z</time>
      </trkpt>
      <trkpt lat="44.02463" lon="2.04341">
        <ele>324.4</ele>
        <time>2021-09-05T11:31:35Z</time>
      </trkpt>
      <trkpt lat="44.02457" lon="2.04345">
        <ele>324.2</ele>
        <time>2021-09-05T11:31:36Z</time>
      </trkpt>
      <trkpt lat="44.02446" lon="2.04352">
        <ele>324</ele>
        <time>2021-09-05T11:31:38Z</time>
      </trkpt>
      <trkpt lat="44.02431" lon="2.04362">
        <ele>323.8</ele>
        <time>2021-09-05T11:31:41Z</time>
      </trkpt>
      <trkpt lat="44.02414" lon="2.04374">
        <ele>323.4</ele>
        <time>2021-09-05T11:31:44Z</time>
      </trkpt>
      <trkpt lat="44.02411" lon="2.04378">
        <ele>323.4</ele>
        <time>2021-09-05T11:31:45Z</time>
      </trkpt>
      <trkpt lat="44.024" lon="2.04386">
        <ele>323.2</ele>
        <time>2021-09-05T11:31:47Z</time>
      </trkpt>
      <trkpt lat="44.02365" lon="2.04416">
        <ele>322.6</ele>
        <time>2021-09-05T11:31:54Z</time>
      </trkpt>
      <trkpt lat="44.02329" lon="2.04446">
        <ele>322.4</ele>
        <time>2021-09-05T11:32:00Z</time>
      </trkpt>
      <trkpt lat="44.02322" lon="2.04451">
        <ele>322.2</ele>
        <time>2021-09-05T11:32:01Z</time>
      </trkpt>
      <trkpt lat="44.02314" lon="2.04457">
        <ele>321.6</ele>
        <time>2021-09-05T11:32:02Z</time>
      </trkpt>
      <trkpt lat="44.02301" lon="2.04462">
        <ele>320.8</ele>
        <time>2021-09-05T11:32:04Z</time>
      </trkpt>
      <trkpt lat="44.02292" lon="2.04461">
        <ele>320.2</ele>
        <time>2021-09-05T11:32:05Z</time>
      </trkpt>
      <trkpt lat="44.02286" lon="2.0446">
        <ele>319.8</ele>
        <time>2021-09-05T11:32:06Z</time>
      </trkpt>
      <trkpt lat="44.02276" lon="2.04458">
        <ele>319.4</ele>
        <time>2021-09-05T11:32:07Z</time>
      </trkpt>
      <trkpt lat="44.0227" lon="2.04457">
        <ele>319.4</ele>
        <time>2021-09-05T11:32:08Z</time>
      </trkpt>
      <trkpt lat="44.02261" lon="2.04455">
        <ele>319</ele>
        <time>2021-09-05T11:32:09Z</time>
      </trkpt>
      <trkpt lat="44.02242" lon="2.04452">
        <ele>318.6</ele>
        <time>2021-09-05T11:32:11Z</time>
      </trkpt>
      <trkpt lat="44.02213" lon="2.04447">
        <ele>317.2</ele>
        <time>2021-09-05T11:32:14Z</time>
      </trkpt>
      <trkpt lat="44.02192" lon="2.04444">
        <ele>316</ele>
        <time>2021-09-05T11:32:16Z</time>
      </trkpt>
      <trkpt lat="44.02185" lon="2.04442">
        <ele>315.6</ele>
        <time>2021-09-05T11:32:17Z</time>
      </trkpt>
      <trkpt lat="44.02175" lon="2.04441">
        <ele>315</ele>
        <time>2021-09-05T11:32:18Z</time>
      </trkpt>
      <trkpt lat="44.02164" lon="2.0444">
        <ele>314.4</ele>
        <time>2021-09-05T11:32:19Z</time>
      </trkpt>
      <trkpt lat="44.02155" lon="2.04438">
        <ele>313</ele>
        <time>2021-09-05T11:32:20Z</time>
      </trkpt>
      <trkpt lat="44.02138" lon="2.04434">
        <ele>312</ele>
        <time>2021-09-05T11:32:22Z</time>
      </trkpt>
      <trkpt lat="44.0213" lon="2.04433">
        <ele>311.6</ele>
        <time>2021-09-05T11:32:23Z</time>
      </trkpt>
      <trkpt lat="44.02123" lon="2.04431">
        <ele>311.4</ele>
        <time>2021-09-05T11:32:24Z</time>
      </trkpt>
      <trkpt lat="44.02115" lon="2.0443">
        <ele>311</ele>
        <time>2021-09-05T11:32:25Z</time>
      </trkpt>
      <trkpt lat="44.0211" lon="2.0443">
        <ele>310.8</ele>
        <time>2021-09-05T11:32:26Z</time>
      </trkpt>
      <trkpt lat="44.02107" lon="2.04433">
        <ele>310</ele>
        <time>2021-09-05T11:32:27Z</time>
      </trkpt>
      <trkpt lat="44.02105" lon="2.0444">
        <ele>309.6</ele>
        <time>2021-09-05T11:32:28Z</time>
      </trkpt>
      <trkpt lat="44.02104" lon="2.04449">
        <ele>309.2</ele>
        <time>2021-09-05T11:32:29Z</time>
      </trkpt>
      <trkpt lat="44.02103" lon="2.04455">
        <ele>309</ele>
        <time>2021-09-05T11:32:30Z</time>
      </trkpt>
      <trkpt lat="44.02102" lon="2.04464">
        <ele>308.8</ele>
        <time>2021-09-05T11:32:31Z</time>
      </trkpt>
      <trkpt lat="44.02097" lon="2.0448">
        <ele>308.4</ele>
        <time>2021-09-05T11:32:33Z</time>
      </trkpt>
      <trkpt lat="44.02093" lon="2.04486">
        <ele>308.2</ele>
        <time>2021-09-05T11:32:34Z</time>
      </trkpt>
      <trkpt lat="44.02086" lon="2.04491">
        <ele>308.2</ele>
        <time>2021-09-05T11:32:35Z</time>
      </trkpt>
      <trkpt lat="44.02079" lon="2.04492">
        <ele>308</ele>
        <time>2021-09-05T11:32:36Z</time>
      </trkpt>
      <trkpt lat="44.02073" lon="2.04492">
        <ele>307.6</ele>
        <time>2021-09-05T11:32:37Z</time>
      </trkpt>
      <trkpt lat="44.02067" lon="2.0449">
        <ele>307.4</ele>
        <time>2021-09-05T11:32:38Z</time>
      </trkpt>
      <trkpt lat="44.02062" lon="2.04485">
        <ele>306.8</ele>
        <time>2021-09-05T11:32:39Z</time>
      </trkpt>
      <trkpt lat="44.02056" lon="2.04473">
        <ele>306.4</ele>
        <time>2021-09-05T11:32:41Z</time>
      </trkpt>
      <trkpt lat="44.02052" lon="2.04467">
        <ele>306.2</ele>
        <time>2021-09-05T11:32:42Z</time>
      </trkpt>
      <trkpt lat="44.02048" lon="2.04461">
        <ele>305.8</ele>
        <time>2021-09-05T11:32:43Z</time>
      </trkpt>
      <trkpt lat="44.02042" lon="2.04455">
        <ele>305.6</ele>
        <time>2021-09-05T11:32:44Z</time>
      </trkpt>
      <trkpt lat="44.02036" lon="2.04451">
        <ele>305.2</ele>
        <time>2021-09-05T11:32:45Z</time>
      </trkpt>
      <trkpt lat="44.02029" lon="2.04448">
        <ele>304.6</ele>
        <time>2021-09-05T11:32:46Z</time>
      </trkpt>
      <trkpt lat="44.02022" lon="2.04446">
        <ele>304.4</ele>
        <time>2021-09-05T11:32:47Z</time>
      </trkpt>
      <trkpt lat="44.02013" lon="2.04444">
        <ele>304</ele>
        <time>2021-09-05T11:32:48Z</time>
      </trkpt>
      <trkpt lat="44.02006" lon="2.04444">
        <ele>303.8</ele>
        <time>2021-09-05T11:32:49Z</time>
      </trkpt>
      <trkpt lat="44.02001" lon="2.04445">
        <ele>303.6</ele>
        <time>2021-09-05T11:32:50Z</time>
      </trkpt>
      <trkpt lat="44.01996" lon="2.04445">
        <ele>303.4</ele>
        <time>2021-09-05T11:32:51Z</time>
      </trkpt>
      <trkpt lat="44.01991" lon="2.04445">
        <ele>303.2</ele>
        <time>2021-09-05T11:32:52Z</time>
      </trkpt>
      <trkpt lat="44.01986" lon="2.04441">
        <ele>303</ele>
        <time>2021-09-05T11:32:53Z</time>
      </trkpt>
      <trkpt lat="44.01983" lon="2.04437">
        <ele>303</ele>
        <time>2021-09-05T11:32:54Z</time>
      </trkpt>
      <trkpt lat="44.0198" lon="2.04432">
        <ele>302.8</ele>
        <time>2021-09-05T11:32:55Z</time>
      </trkpt>
      <trkpt lat="44.01978" lon="2.04428">
        <ele>302.6</ele>
        <time>2021-09-05T11:32:56Z</time>
      </trkpt>
      <trkpt lat="44.01976" lon="2.04424">
        <ele>302.6</ele>
        <time>2021-09-05T11:32:57Z</time>
      </trkpt>
      <trkpt lat="44.01973" lon="2.04421">
        <ele>302.4</ele>
        <time>2021-09-05T11:32:58Z</time>
      </trkpt>
      <trkpt lat="44.01971" lon="2.04417">
        <ele>301.4</ele>
        <time>2021-09-05T11:32:59Z</time>
      </trkpt>
      <trkpt lat="44.01966" lon="2.044">
        <ele>300.2</ele>
        <time>2021-09-05T11:33:02Z</time>
      </trkpt>
      <trkpt lat="44.01964" lon="2.04395">
        <ele>300</ele>
        <time>2021-09-05T11:33:03Z</time>
      </trkpt>
      <trkpt lat="44.01963" lon="2.04392">
        <ele>299.4</ele>
        <time>2021-09-05T11:33:04Z</time>
      </trkpt>
      <trkpt lat="44.01961" lon="2.04389">
        <ele>299.2</ele>
        <time>2021-09-05T11:33:05Z</time>
      </trkpt>
      <trkpt lat="44.01958" lon="2.04388">
        <ele>299</ele>
        <time>2021-09-05T11:33:06Z</time>
      </trkpt>
      <trkpt lat="44.01956" lon="2.04388">
        <ele>298.8</ele>
        <time>2021-09-05T11:33:07Z</time>
      </trkpt>
      <trkpt lat="44.01954" lon="2.0439">
        <ele>298</ele>
        <time>2021-09-05T11:33:08Z</time>
      </trkpt>
      <trkpt lat="44.01952" lon="2.04392">
        <ele>297.4</ele>
        <time>2021-09-05T11:33:09Z</time>
      </trkpt>
      <trkpt lat="44.0195" lon="2.04395">
        <ele>297.2</ele>
        <time>2021-09-05T11:33:10Z</time>
      </trkpt>
      <trkpt lat="44.01947" lon="2.04401">
        <ele>296.6</ele>
        <time>2021-09-05T11:33:12Z</time>
      </trkpt>
      <trkpt lat="44.01945" lon="2.04404">
        <ele>296.2</ele>
        <time>2021-09-05T11:33:13Z</time>
      </trkpt>
      <trkpt lat="44.01942" lon="2.04408">
        <ele>295.8</ele>
        <time>2021-09-05T11:33:14Z</time>
      </trkpt>
      <trkpt lat="44.0194" lon="2.04412">
        <ele>295.4</ele>
        <time>2021-09-05T11:33:15Z</time>
      </trkpt>
      <trkpt lat="44.01939" lon="2.04418">
        <ele>295</ele>
        <time>2021-09-05T11:33:16Z</time>
      </trkpt>
      <trkpt lat="44.01938" lon="2.04423">
        <ele>294.4</ele>
        <time>2021-09-05T11:33:17Z</time>
      </trkpt>
      <trkpt lat="44.01937" lon="2.04428">
        <ele>293.6</ele>
        <time>2021-09-05T11:33:18Z</time>
      </trkpt>
      <trkpt lat="44.01936" lon="2.04431">
        <ele>293</ele>
        <time>2021-09-05T11:33:19Z</time>
      </trkpt>
      <trkpt lat="44.01935" lon="2.04433">
        <ele>291.8</ele>
        <time>2021-09-05T11:33:20Z</time>
      </trkpt>
      <trkpt lat="44.01935" lon="2.04434">
        <ele>291.4</ele>
        <time>2021-09-05T11:33:21Z</time>
      </trkpt>
      <trkpt lat="44.01934" lon="2.04435">
        <ele>290.6</ele>
        <time>2021-09-05T11:33:22Z</time>
      </trkpt>
      <trkpt lat="44.01933" lon="2.04436">
        <ele>290.2</ele>
        <time>2021-09-05T11:33:23Z</time>
      </trkpt>
      <trkpt lat="44.01933" lon="2.04437">
        <ele>289.8</ele>
        <time>2021-09-05T11:33:24Z</time>
      </trkpt>
      <trkpt lat="44.01931" lon="2.0444">
        <ele>289.6</ele>
        <time>2021-09-05T11:33:25Z</time>
      </trkpt>
      <trkpt lat="44.01929" lon="2.04444">
        <ele>289.2</ele>
        <time>2021-09-05T11:33:26Z</time>
      </trkpt>
      <trkpt lat="44.01927" lon="2.04447">
        <ele>289</ele>
        <time>2021-09-05T11:33:27Z</time>
      </trkpt>
      <trkpt lat="44.01926" lon="2.04449">
        <ele>288.6</ele>
        <time>2021-09-05T11:33:28Z</time>
      </trkpt>
      <trkpt lat="44.01924" lon="2.0445">
        <ele>288</ele>
        <time>2021-09-05T11:33:29Z</time>
      </trkpt>
      <trkpt lat="44.01923" lon="2.04452">
        <ele>287.6</ele>
        <time>2021-09-05T11:33:30Z</time>
      </trkpt>
      <trkpt lat="44.01922" lon="2.04454">
        <ele>286.6</ele>
        <time>2021-09-05T11:33:31Z</time>
      </trkpt>
      <trkpt lat="44.01921" lon="2.04456">
        <ele>285.8</ele>
        <time>2021-09-05T11:33:32Z</time>
      </trkpt>
      <trkpt lat="44.01921" lon="2.04458">
        <ele>284.6</ele>
        <time>2021-09-05T11:33:33Z</time>
      </trkpt>
      <trkpt lat="44.0192" lon="2.04461">
        <ele>283.6</ele>
        <time>2021-09-05T11:33:34Z</time>
      </trkpt>
      <trkpt lat="44.0192" lon="2.04463">
        <ele>283.4</ele>
        <time>2021-09-05T11:33:35Z</time>
      </trkpt>
      <trkpt lat="44.0192" lon="2.04464">
        <ele>282.6</ele>
        <time>2021-09-05T11:33:36Z</time>
      </trkpt>
      <trkpt lat="44.01918" lon="2.04467">
        <ele>282</ele>
        <time>2021-09-05T11:33:37Z</time>
      </trkpt>
      <trkpt lat="44.01916" lon="2.04471">
        <ele>280.4</ele>
        <time>2021-09-05T11:33:38Z</time>
      </trkpt>
      <trkpt lat="44.01914" lon="2.04473">
        <ele>279.8</ele>
        <time>2021-09-05T11:33:39Z</time>
      </trkpt>
      <trkpt lat="44.01913" lon="2.04474">
        <ele>279</ele>
        <time>2021-09-05T11:33:40Z</time>
      </trkpt>
      <trkpt lat="44.01912" lon="2.04473">
        <ele>278.4</ele>
        <time>2021-09-05T11:33:41Z</time>
      </trkpt>
      <trkpt lat="44.01911" lon="2.04473">
        <ele>276.6</ele>
        <time>2021-09-05T11:33:42Z</time>
      </trkpt>
      <trkpt lat="44.0191" lon="2.04472">
        <ele>275.4</ele>
        <time>2021-09-05T11:33:43Z</time>
      </trkpt>
      <trkpt lat="44.01908" lon="2.04469">
        <ele>274</ele>
        <time>2021-09-05T11:33:45Z</time>
      </trkpt>
      <trkpt lat="44.01907" lon="2.04467">
        <ele>273.8</ele>
        <time>2021-09-05T11:33:46Z</time>
      </trkpt>
      <trkpt lat="44.01905" lon="2.04461">
        <ele>273</ele>
        <time>2021-09-05T11:33:48Z</time>
      </trkpt>
      <trkpt lat="44.01905" lon="2.04459">
        <ele>272.6</ele>
        <time>2021-09-05T11:33:49Z</time>
      </trkpt>
      <trkpt lat="44.01904" lon="2.04456">
        <ele>272.4</ele>
        <time>2021-09-05T11:33:50Z</time>
      </trkpt>
      <trkpt lat="44.01903" lon="2.04453">
        <ele>272.4</ele>
        <time>2021-09-05T11:33:51Z</time>
      </trkpt>
      <trkpt lat="44.019" lon="2.04445">
        <ele>272.4</ele>
        <time>2021-09-05T11:33:54Z</time>
      </trkpt>
      <trkpt lat="44.01898" lon="2.04442">
        <ele>272.6</ele>
        <time>2021-09-05T11:33:55Z</time>
      </trkpt>
      <trkpt lat="44.01897" lon="2.04438">
        <ele>272.6</ele>
        <time>2021-09-05T11:33:56Z</time>
      </trkpt>
      <trkpt lat="44.01896" lon="2.04435">
        <ele>272.6</ele>
        <time>2021-09-05T11:33:57Z</time>
      </trkpt>
      <trkpt lat="44.01894" lon="2.04429">
        <ele>272.8</ele>
        <time>2021-09-05T11:33:59Z</time>
      </trkpt>
      <trkpt lat="44.01886" lon="2.04417">
        <ele>273</ele>
        <time>2021-09-05T11:34:02Z</time>
      </trkpt>
      <trkpt lat="44.01873" lon="2.04395">
        <ele>273.2</ele>
        <time>2021-09-05T11:34:07Z</time>
      </trkpt>
      <trkpt lat="44.01861" lon="2.04375">
        <ele>273.4</ele>
        <time>2021-09-05T11:34:11Z</time>
      </trkpt>
      <trkpt lat="44.01853" lon="2.0436">
        <ele>273</ele>
        <time>2021-09-05T11:34:14Z</time>
      </trkpt>
      <trkpt lat="44.01851" lon="2.04354">
        <ele>272.8</ele>
        <time>2021-09-05T11:34:15Z</time>
      </trkpt>
      <trkpt lat="44.0185" lon="2.04347">
        <ele>272.6</ele>
        <time>2021-09-05T11:34:16Z</time>
      </trkpt>
      <trkpt lat="44.01849" lon="2.04342">
        <ele>272.2</ele>
        <time>2021-09-05T11:34:17Z</time>
      </trkpt>
      <trkpt lat="44.01848" lon="2.04336">
        <ele>272.2</ele>
        <time>2021-09-05T11:34:18Z</time>
      </trkpt>
      <trkpt lat="44.01847" lon="2.04332">
        <ele>272</ele>
        <time>2021-09-05T11:34:19Z</time>
      </trkpt>
      <trkpt lat="44.01845" lon="2.04326">
        <ele>271.8</ele>
        <time>2021-09-05T11:34:20Z</time>
      </trkpt>
      <trkpt lat="44.01838" lon="2.04321">
        <ele>271.4</ele>
        <time>2021-09-05T11:34:22Z</time>
      </trkpt>
      <trkpt lat="44.01833" lon="2.0432">
        <ele>271.2</ele>
        <time>2021-09-05T11:34:23Z</time>
      </trkpt>
      <trkpt lat="44.01828" lon="2.04322">
        <ele>271.2</ele>
        <time>2021-09-05T11:34:24Z</time>
      </trkpt>
      <trkpt lat="44.01817" lon="2.04326">
        <ele>270.8</ele>
        <time>2021-09-05T11:34:26Z</time>
      </trkpt>
      <trkpt lat="44.01812" lon="2.04328">
        <ele>270.8</ele>
        <time>2021-09-05T11:34:27Z</time>
      </trkpt>
      <trkpt lat="44.01807" lon="2.0433">
        <ele>270.6</ele>
        <time>2021-09-05T11:34:28Z</time>
      </trkpt>
      <trkpt lat="44.01791" lon="2.04336">
        <ele>270</ele>
        <time>2021-09-05T11:34:31Z</time>
      </trkpt>
      <trkpt lat="44.01786" lon="2.04337">
        <ele>270</ele>
        <time>2021-09-05T11:34:32Z</time>
      </trkpt>
      <trkpt lat="44.01783" lon="2.04339">
        <ele>269.8</ele>
        <time>2021-09-05T11:34:33Z</time>
      </trkpt>
      <trkpt lat="44.0178" lon="2.04339">
        <ele>269.6</ele>
        <time>2021-09-05T11:34:34Z</time>
      </trkpt>
      <trkpt lat="44.01778" lon="2.04339">
        <ele>269.4</ele>
        <time>2021-09-05T11:34:35Z</time>
      </trkpt>
      <trkpt lat="44.01776" lon="2.04339">
        <ele>269.2</ele>
        <time>2021-09-05T11:34:36Z</time>
      </trkpt>
      <trkpt lat="44.01776" lon="2.0434">
        <ele>269</ele>
        <time>2021-09-05T11:34:37Z</time>
      </trkpt>
      <trkpt lat="44.01776" lon="2.0434">
        <ele>268.2</ele>
        <time>2021-09-05T11:40:47Z</time>
      </trkpt>
      <trkpt lat="44.01774" lon="2.04342">
        <ele>268.2</ele>
        <time>2021-09-05T11:40:49Z</time>
      </trkpt>
      <trkpt lat="44.01773" lon="2.04343">
        <ele>268.2</ele>
        <time>2021-09-05T11:40:50Z</time>
      </trkpt>
      <trkpt lat="44.01772" lon="2.04344">
        <ele>268.2</ele>
        <time>2021-09-05T11:40:51Z</time>
      </trkpt>
      <trkpt lat="44.01771" lon="2.04345">
        <ele>268.2</ele>
        <time>2021-09-05T11:40:52Z</time>
      </trkpt>
      <trkpt lat="44.01758" lon="2.04353">
        <ele>268.4</ele>
        <time>2021-09-05T11:41:00Z</time>
      </trkpt>
      <trkpt lat="44.01753" lon="2.04354">
        <ele>268.6</ele>
        <time>2021-09-05T11:41:03Z</time>
      </trkpt>
      <trkpt lat="44.01751" lon="2.04353">
        <ele>268.8</ele>
        <time>2021-09-05T11:41:04Z</time>
      </trkpt>
      <trkpt lat="44.01749" lon="2.04353">
        <ele>268.8</ele>
        <time>2021-09-05T11:41:05Z</time>
      </trkpt>
      <trkpt lat="44.01747" lon="2.04351">
        <ele>269</ele>
        <time>2021-09-05T11:41:06Z</time>
      </trkpt>
      <trkpt lat="44.01746" lon="2.04351">
        <ele>269.2</ele>
        <time>2021-09-05T11:41:07Z</time>
      </trkpt>
      <trkpt lat="44.01745" lon="2.0435">
        <ele>269.2</ele>
        <time>2021-09-05T11:41:08Z</time>
      </trkpt>
      <trkpt lat="44.01743" lon="2.04349">
        <ele>269.4</ele>
        <time>2021-09-05T11:41:10Z</time>
      </trkpt>
      <trkpt lat="44.01742" lon="2.04348">
        <ele>269.4</ele>
        <time>2021-09-05T11:41:11Z</time>
      </trkpt>
      <trkpt lat="44.01738" lon="2.04347">
        <ele>270.2</ele>
        <time>2021-09-05T11:41:13Z</time>
      </trkpt>
      <trkpt lat="44.01734" lon="2.04345">
        <ele>270.6</ele>
        <time>2021-09-05T11:41:16Z</time>
      </trkpt>
      <trkpt lat="44.0173" lon="2.04345">
        <ele>271</ele>
        <time>2021-09-05T11:41:19Z</time>
      </trkpt>
      <trkpt lat="44.01729" lon="2.04345">
        <ele>271.4</ele>
        <time>2021-09-05T11:41:20Z</time>
      </trkpt>
      <trkpt lat="44.01728" lon="2.04346">
        <ele>271.6</ele>
        <time>2021-09-05T11:41:21Z</time>
      </trkpt>
      <trkpt lat="44.01727" lon="2.04346">
        <ele>271.8</ele>
        <time>2021-09-05T11:41:22Z</time>
      </trkpt>
      <trkpt lat="44.01726" lon="2.04347">
        <ele>271.8</ele>
        <time>2021-09-05T11:41:23Z</time>
      </trkpt>
      <trkpt lat="44.01725" lon="2.04347">
        <ele>272.2</ele>
        <time>2021-09-05T11:41:24Z</time>
      </trkpt>
      <trkpt lat="44.01724" lon="2.04348">
        <ele>272.2</ele>
        <time>2021-09-05T11:41:25Z</time>
      </trkpt>
      <trkpt lat="44.01723" lon="2.0435">
        <ele>272.6</ele>
        <time>2021-09-05T11:41:26Z</time>
      </trkpt>
      <trkpt lat="44.01723" lon="2.04351">
        <ele>272.6</ele>
        <time>2021-09-05T11:41:27Z</time>
      </trkpt>
      <trkpt lat="44.01722" lon="2.04353">
        <ele>272.8</ele>
        <time>2021-09-05T11:41:28Z</time>
      </trkpt>
      <trkpt lat="44.01721" lon="2.04354">
        <ele>273</ele>
        <time>2021-09-05T11:41:29Z</time>
      </trkpt>
      <trkpt lat="44.0172" lon="2.04355">
        <ele>273.2</ele>
        <time>2021-09-05T11:41:30Z</time>
      </trkpt>
      <trkpt lat="44.01719" lon="2.04357">
        <ele>273.4</ele>
        <time>2021-09-05T11:41:31Z</time>
      </trkpt>
      <trkpt lat="44.01719" lon="2.04358">
        <ele>273.4</ele>
        <time>2021-09-05T11:41:32Z</time>
      </trkpt>
      <trkpt lat="44.01718" lon="2.0436">
        <ele>273.8</ele>
        <time>2021-09-05T11:41:33Z</time>
      </trkpt>
      <trkpt lat="44.01717" lon="2.04361">
        <ele>274</ele>
        <time>2021-09-05T11:41:34Z</time>
      </trkpt>
      <trkpt lat="44.01717" lon="2.04363">
        <ele>274.2</ele>
        <time>2021-09-05T11:41:35Z</time>
      </trkpt>
      <trkpt lat="44.01716" lon="2.04365">
        <ele>274.6</ele>
        <time>2021-09-05T11:41:36Z</time>
      </trkpt>
      <trkpt lat="44.01715" lon="2.04365">
        <ele>274.8</ele>
        <time>2021-09-05T11:41:37Z</time>
      </trkpt>
      <trkpt lat="44.01715" lon="2.04367">
        <ele>275.2</ele>
        <time>2021-09-05T11:41:38Z</time>
      </trkpt>
      <trkpt lat="44.01714" lon="2.04368">
        <ele>275.4</ele>
        <time>2021-09-05T11:41:39Z</time>
      </trkpt>
      <trkpt lat="44.01713" lon="2.0437">
        <ele>275.6</ele>
        <time>2021-09-05T11:41:40Z</time>
      </trkpt>
      <trkpt lat="44.01713" lon="2.04371">
        <ele>275.8</ele>
        <time>2021-09-05T11:41:41Z</time>
      </trkpt>
      <trkpt lat="44.01713" lon="2.04373">
        <ele>276</ele>
        <time>2021-09-05T11:41:42Z</time>
      </trkpt>
      <trkpt lat="44.01713" lon="2.04374">
        <ele>276.2</ele>
        <time>2021-09-05T11:41:43Z</time>
      </trkpt>
      <trkpt lat="44.01713" lon="2.04376">
        <ele>276.6</ele>
        <time>2021-09-05T11:41:44Z</time>
      </trkpt>
      <trkpt lat="44.01713" lon="2.04377">
        <ele>276.8</ele>
        <time>2021-09-05T11:41:45Z</time>
      </trkpt>
      <trkpt lat="44.01714" lon="2.04379">
        <ele>277</ele>
        <time>2021-09-05T11:41:46Z</time>
      </trkpt>
      <trkpt lat="44.01715" lon="2.04381">
        <ele>277.2</ele>
        <time>2021-09-05T11:41:47Z</time>
      </trkpt>
      <trkpt lat="44.01716" lon="2.04383">
        <ele>277.2</ele>
        <time>2021-09-05T11:41:48Z</time>
      </trkpt>
      <trkpt lat="44.01716" lon="2.04384">
        <ele>277.4</ele>
        <time>2021-09-05T11:41:49Z</time>
      </trkpt>
      <trkpt lat="44.01717" lon="2.04386">
        <ele>277.6</ele>
        <time>2021-09-05T11:41:50Z</time>
      </trkpt>
      <trkpt lat="44.01718" lon="2.04387">
        <ele>277.8</ele>
        <time>2021-09-05T11:41:51Z</time>
      </trkpt>
      <trkpt lat="44.01718" lon="2.04388">
        <ele>277.8</ele>
        <time>2021-09-05T11:41:52Z</time>
      </trkpt>
      <trkpt lat="44.01719" lon="2.04389">
        <ele>278.2</ele>
        <time>2021-09-05T11:41:53Z</time>
      </trkpt>
      <trkpt lat="44.01719" lon="2.04391">
        <ele>278.2</ele>
        <time>2021-09-05T11:41:54Z</time>
      </trkpt>
      <trkpt lat="44.0172" lon="2.04392">
        <ele>278.4</ele>
        <time>2021-09-05T11:41:55Z</time>
      </trkpt>
      <trkpt lat="44.01721" lon="2.04394">
        <ele>278.4</ele>
        <time>2021-09-05T11:41:56Z</time>
      </trkpt>
      <trkpt lat="44.01722" lon="2.04396">
        <ele>278.4</ele>
        <time>2021-09-05T11:41:57Z</time>
      </trkpt>
      <trkpt lat="44.01723" lon="2.04398">
        <ele>278.6</ele>
        <time>2021-09-05T11:41:58Z</time>
      </trkpt>
      <trkpt lat="44.01724" lon="2.04399">
        <ele>278.6</ele>
        <time>2021-09-05T11:41:59Z</time>
      </trkpt>
      <trkpt lat="44.01725" lon="2.044">
        <ele>278.8</ele>
        <time>2021-09-05T11:42:00Z</time>
      </trkpt>
      <trkpt lat="44.01726" lon="2.04402">
        <ele>278.8</ele>
        <time>2021-09-05T11:42:01Z</time>
      </trkpt>
      <trkpt lat="44.01727" lon="2.04404">
        <ele>279</ele>
        <time>2021-09-05T11:42:02Z</time>
      </trkpt>
      <trkpt lat="44.01728" lon="2.04405">
        <ele>279.4</ele>
        <time>2021-09-05T11:42:03Z</time>
      </trkpt>
      <trkpt lat="44.01729" lon="2.04407">
        <ele>279.6</ele>
        <time>2021-09-05T11:42:04Z</time>
      </trkpt>
      <trkpt lat="44.01729" lon="2.04409">
        <ele>280</ele>
        <time>2021-09-05T11:42:05Z</time>
      </trkpt>
      <trkpt lat="44.0173" lon="2.04411">
        <ele>280</ele>
        <time>2021-09-05T11:42:06Z</time>
      </trkpt>
      <trkpt lat="44.01731" lon="2.04413">
        <ele>280.4</ele>
        <time>2021-09-05T11:42:07Z</time>
      </trkpt>
      <trkpt lat="44.01731" lon="2.04414">
        <ele>280.6</ele>
        <time>2021-09-05T11:42:08Z</time>
      </trkpt>
      <trkpt lat="44.01732" lon="2.04416">
        <ele>280.8</ele>
        <time>2021-09-05T11:42:09Z</time>
      </trkpt>
      <trkpt lat="44.01732" lon="2.04417">
        <ele>281</ele>
        <time>2021-09-05T11:42:10Z</time>
      </trkpt>
      <trkpt lat="44.01732" lon="2.04418">
        <ele>281.6</ele>
        <time>2021-09-05T11:42:11Z</time>
      </trkpt>
      <trkpt lat="44.01732" lon="2.0442">
        <ele>282</ele>
        <time>2021-09-05T11:42:12Z</time>
      </trkpt>
      <trkpt lat="44.01732" lon="2.0442">
        <ele>282</ele>
        <time>2021-09-05T11:42:13Z</time>
      </trkpt>
      <trkpt lat="44.01733" lon="2.04422">
        <ele>282.2</ele>
        <time>2021-09-05T11:42:14Z</time>
      </trkpt>
      <trkpt lat="44.01733" lon="2.04423">
        <ele>282.4</ele>
        <time>2021-09-05T11:42:15Z</time>
      </trkpt>
      <trkpt lat="44.01733" lon="2.04425">
        <ele>282.4</ele>
        <time>2021-09-05T11:42:16Z</time>
      </trkpt>
      <trkpt lat="44.01733" lon="2.04427">
        <ele>282.6</ele>
        <time>2021-09-05T11:42:17Z</time>
      </trkpt>
      <trkpt lat="44.01733" lon="2.04429">
        <ele>283</ele>
        <time>2021-09-05T11:42:18Z</time>
      </trkpt>
      <trkpt lat="44.01733" lon="2.0443">
        <ele>283</ele>
        <time>2021-09-05T11:42:19Z</time>
      </trkpt>
      <trkpt lat="44.01733" lon="2.04431">
        <ele>283.4</ele>
        <time>2021-09-05T11:42:20Z</time>
      </trkpt>
      <trkpt lat="44.01733" lon="2.04432">
        <ele>283.8</ele>
        <time>2021-09-05T11:42:21Z</time>
      </trkpt>
      <trkpt lat="44.01733" lon="2.04434">
        <ele>283.8</ele>
        <time>2021-09-05T11:42:22Z</time>
      </trkpt>
      <trkpt lat="44.01733" lon="2.04436">
        <ele>284.2</ele>
        <time>2021-09-05T11:42:23Z</time>
      </trkpt>
      <trkpt lat="44.01733" lon="2.04437">
        <ele>284.4</ele>
        <time>2021-09-05T11:42:24Z</time>
      </trkpt>
      <trkpt lat="44.01732" lon="2.04439">
        <ele>284.6</ele>
        <time>2021-09-05T11:42:25Z</time>
      </trkpt>
      <trkpt lat="44.01732" lon="2.0444">
        <ele>284.8</ele>
        <time>2021-09-05T11:42:26Z</time>
      </trkpt>
      <trkpt lat="44.01732" lon="2.04442">
        <ele>285</ele>
        <time>2021-09-05T11:42:27Z</time>
      </trkpt>
      <trkpt lat="44.01731" lon="2.04443">
        <ele>285.2</ele>
        <time>2021-09-05T11:42:28Z</time>
      </trkpt>
      <trkpt lat="44.01731" lon="2.04444">
        <ele>285.2</ele>
        <time>2021-09-05T11:42:29Z</time>
      </trkpt>
      <trkpt lat="44.0173" lon="2.04446">
        <ele>285.4</ele>
        <time>2021-09-05T11:42:30Z</time>
      </trkpt>
      <trkpt lat="44.0173" lon="2.04447">
        <ele>285.6</ele>
        <time>2021-09-05T11:42:31Z</time>
      </trkpt>
      <trkpt lat="44.0173" lon="2.04449">
        <ele>285.6</ele>
        <time>2021-09-05T11:42:32Z</time>
      </trkpt>
      <trkpt lat="44.0173" lon="2.0445">
        <ele>285.8</ele>
        <time>2021-09-05T11:42:33Z</time>
      </trkpt>
      <trkpt lat="44.0173" lon="2.04452">
        <ele>286.2</ele>
        <time>2021-09-05T11:42:34Z</time>
      </trkpt>
      <trkpt lat="44.01729" lon="2.04453">
        <ele>286.4</ele>
        <time>2021-09-05T11:42:35Z</time>
      </trkpt>
      <trkpt lat="44.01729" lon="2.04454">
        <ele>286.8</ele>
        <time>2021-09-05T11:42:36Z</time>
      </trkpt>
      <trkpt lat="44.01728" lon="2.04454">
        <ele>287</ele>
        <time>2021-09-05T11:42:37Z</time>
      </trkpt>
      <trkpt lat="44.01727" lon="2.04454">
        <ele>287</ele>
        <time>2021-09-05T11:42:38Z</time>
      </trkpt>
      <trkpt lat="44.01727" lon="2.04455">
        <ele>287.2</ele>
        <time>2021-09-05T11:42:39Z</time>
      </trkpt>
      <trkpt lat="44.01726" lon="2.04456">
        <ele>287.2</ele>
        <time>2021-09-05T11:42:40Z</time>
      </trkpt>
      <trkpt lat="44.01726" lon="2.04457">
        <ele>287.2</ele>
        <time>2021-09-05T11:42:41Z</time>
      </trkpt>
      <trkpt lat="44.01726" lon="2.04458">
        <ele>287.2</ele>
        <time>2021-09-05T11:42:42Z</time>
      </trkpt>
      <trkpt lat="44.01725" lon="2.0446">
        <ele>287.6</ele>
        <time>2021-09-05T11:42:43Z</time>
      </trkpt>
      <trkpt lat="44.01725" lon="2.04461">
        <ele>287.8</ele>
        <time>2021-09-05T11:42:44Z</time>
      </trkpt>
      <trkpt lat="44.01725" lon="2.04463">
        <ele>288</ele>
        <time>2021-09-05T11:42:45Z</time>
      </trkpt>
      <trkpt lat="44.01725" lon="2.04464">
        <ele>288.2</ele>
        <time>2021-09-05T11:42:46Z</time>
      </trkpt>
      <trkpt lat="44.01725" lon="2.04466">
        <ele>288.2</ele>
        <time>2021-09-05T11:42:47Z</time>
      </trkpt>
      <trkpt lat="44.01725" lon="2.04467">
        <ele>288.6</ele>
        <time>2021-09-05T11:42:48Z</time>
      </trkpt>
      <trkpt lat="44.01725" lon="2.04469">
        <ele>288.8</ele>
        <time>2021-09-05T11:42:49Z</time>
      </trkpt>
      <trkpt lat="44.01724" lon="2.0447">
        <ele>288.8</ele>
        <time>2021-09-05T11:42:50Z</time>
      </trkpt>
      <trkpt lat="44.01724" lon="2.04472">
        <ele>289</ele>
        <time>2021-09-05T11:42:51Z</time>
      </trkpt>
      <trkpt lat="44.01724" lon="2.04474">
        <ele>289.2</ele>
        <time>2021-09-05T11:42:52Z</time>
      </trkpt>
      <trkpt lat="44.01723" lon="2.04476">
        <ele>289.6</ele>
        <time>2021-09-05T11:42:53Z</time>
      </trkpt>
      <trkpt lat="44.01723" lon="2.04477">
        <ele>289.8</ele>
        <time>2021-09-05T11:42:54Z</time>
      </trkpt>
      <trkpt lat="44.01724" lon="2.04479">
        <ele>290</ele>
        <time>2021-09-05T11:42:55Z</time>
      </trkpt>
      <trkpt lat="44.01723" lon="2.0448">
        <ele>290</ele>
        <time>2021-09-05T11:42:56Z</time>
      </trkpt>
      <trkpt lat="44.01723" lon="2.04481">
        <ele>290.2</ele>
        <time>2021-09-05T11:42:57Z</time>
      </trkpt>
      <trkpt lat="44.01723" lon="2.04482">
        <ele>290.4</ele>
        <time>2021-09-05T11:42:58Z</time>
      </trkpt>
      <trkpt lat="44.01722" lon="2.04484">
        <ele>290.4</ele>
        <time>2021-09-05T11:42:59Z</time>
      </trkpt>
      <trkpt lat="44.01722" lon="2.04485">
        <ele>290.6</ele>
        <time>2021-09-05T11:43:00Z</time>
      </trkpt>
      <trkpt lat="44.01722" lon="2.04487">
        <ele>290.8</ele>
        <time>2021-09-05T11:43:01Z</time>
      </trkpt>
      <trkpt lat="44.01721" lon="2.04488">
        <ele>290.8</ele>
        <time>2021-09-05T11:43:02Z</time>
      </trkpt>
      <trkpt lat="44.01719" lon="2.0449">
        <ele>291</ele>
        <time>2021-09-05T11:43:03Z</time>
      </trkpt>
      <trkpt lat="44.01719" lon="2.04491">
        <ele>291.2</ele>
        <time>2021-09-05T11:43:04Z</time>
      </trkpt>
      <trkpt lat="44.01718" lon="2.04492">
        <ele>291.4</ele>
        <time>2021-09-05T11:43:05Z</time>
      </trkpt>
      <trkpt lat="44.01718" lon="2.04494">
        <ele>291.8</ele>
        <time>2021-09-05T11:43:06Z</time>
      </trkpt>
      <trkpt lat="44.01717" lon="2.04496">
        <ele>291.8</ele>
        <time>2021-09-05T11:43:07Z</time>
      </trkpt>
      <trkpt lat="44.01717" lon="2.04497">
        <ele>292</ele>
        <time>2021-09-05T11:43:08Z</time>
      </trkpt>
      <trkpt lat="44.01716" lon="2.04498">
        <ele>292.2</ele>
        <time>2021-09-05T11:43:09Z</time>
      </trkpt>
      <trkpt lat="44.01716" lon="2.04499">
        <ele>292.4</ele>
        <time>2021-09-05T11:43:10Z</time>
      </trkpt>
      <trkpt lat="44.01715" lon="2.04501">
        <ele>292.8</ele>
        <time>2021-09-05T11:43:11Z</time>
      </trkpt>
      <trkpt lat="44.01714" lon="2.04503">
        <ele>293</ele>
        <time>2021-09-05T11:43:12Z</time>
      </trkpt>
      <trkpt lat="44.01714" lon="2.04504">
        <ele>293.6</ele>
        <time>2021-09-05T11:43:13Z</time>
      </trkpt>
      <trkpt lat="44.01714" lon="2.04506">
        <ele>294</ele>
        <time>2021-09-05T11:43:14Z</time>
      </trkpt>
      <trkpt lat="44.01713" lon="2.04508">
        <ele>294.2</ele>
        <time>2021-09-05T11:43:15Z</time>
      </trkpt>
      <trkpt lat="44.01713" lon="2.04509">
        <ele>294.4</ele>
        <time>2021-09-05T11:43:16Z</time>
      </trkpt>
      <trkpt lat="44.01712" lon="2.0451">
        <ele>294.6</ele>
        <time>2021-09-05T11:43:17Z</time>
      </trkpt>
      <trkpt lat="44.01711" lon="2.04512">
        <ele>294.6</ele>
        <time>2021-09-05T11:43:18Z</time>
      </trkpt>
      <trkpt lat="44.0171" lon="2.04513">
        <ele>294.6</ele>
        <time>2021-09-05T11:43:19Z</time>
      </trkpt>
      <trkpt lat="44.01709" lon="2.04515">
        <ele>294.8</ele>
        <time>2021-09-05T11:43:20Z</time>
      </trkpt>
      <trkpt lat="44.01708" lon="2.04517">
        <ele>294.8</ele>
        <time>2021-09-05T11:43:21Z</time>
      </trkpt>
      <trkpt lat="44.01707" lon="2.04518">
        <ele>295.2</ele>
        <time>2021-09-05T11:43:22Z</time>
      </trkpt>
      <trkpt lat="44.01706" lon="2.04519">
        <ele>295.6</ele>
        <time>2021-09-05T11:43:23Z</time>
      </trkpt>
      <trkpt lat="44.01705" lon="2.0452">
        <ele>296.2</ele>
        <time>2021-09-05T11:43:24Z</time>
      </trkpt>
      <trkpt lat="44.01704" lon="2.04521">
        <ele>296.2</ele>
        <time>2021-09-05T11:43:25Z</time>
      </trkpt>
      <trkpt lat="44.01703" lon="2.04522">
        <ele>296.4</ele>
        <time>2021-09-05T11:43:26Z</time>
      </trkpt>
      <trkpt lat="44.01701" lon="2.04523">
        <ele>296.4</ele>
        <time>2021-09-05T11:43:27Z</time>
      </trkpt>
      <trkpt lat="44.017" lon="2.04524">
        <ele>296.4</ele>
        <time>2021-09-05T11:43:28Z</time>
      </trkpt>
      <trkpt lat="44.01699" lon="2.04526">
        <ele>296.6</ele>
        <time>2021-09-05T11:43:29Z</time>
      </trkpt>
      <trkpt lat="44.01698" lon="2.04527">
        <ele>296.8</ele>
        <time>2021-09-05T11:43:30Z</time>
      </trkpt>
      <trkpt lat="44.01698" lon="2.04528">
        <ele>297</ele>
        <time>2021-09-05T11:43:31Z</time>
      </trkpt>
      <trkpt lat="44.01697" lon="2.0453">
        <ele>297</ele>
        <time>2021-09-05T11:43:32Z</time>
      </trkpt>
      <trkpt lat="44.01695" lon="2.04532">
        <ele>297.2</ele>
        <time>2021-09-05T11:43:33Z</time>
      </trkpt>
      <trkpt lat="44.01694" lon="2.04533">
        <ele>297.4</ele>
        <time>2021-09-05T11:43:34Z</time>
      </trkpt>
      <trkpt lat="44.01693" lon="2.04535">
        <ele>297.4</ele>
        <time>2021-09-05T11:43:35Z</time>
      </trkpt>
      <trkpt lat="44.01692" lon="2.04537">
        <ele>297.6</ele>
        <time>2021-09-05T11:43:36Z</time>
      </trkpt>
      <trkpt lat="44.01691" lon="2.04539">
        <ele>297.6</ele>
        <time>2021-09-05T11:43:37Z</time>
      </trkpt>
      <trkpt lat="44.01691" lon="2.04541">
        <ele>297.8</ele>
        <time>2021-09-05T11:43:38Z</time>
      </trkpt>
      <trkpt lat="44.0169" lon="2.04544">
        <ele>297.8</ele>
        <time>2021-09-05T11:43:39Z</time>
      </trkpt>
      <trkpt lat="44.01689" lon="2.04546">
        <ele>298</ele>
        <time>2021-09-05T11:43:40Z</time>
      </trkpt>
      <trkpt lat="44.01687" lon="2.04548">
        <ele>298.2</ele>
        <time>2021-09-05T11:43:41Z</time>
      </trkpt>
      <trkpt lat="44.01686" lon="2.0455">
        <ele>298.2</ele>
        <time>2021-09-05T11:43:42Z</time>
      </trkpt>
      <trkpt lat="44.01685" lon="2.04551">
        <ele>298.6</ele>
        <time>2021-09-05T11:43:43Z</time>
      </trkpt>
      <trkpt lat="44.01684" lon="2.04553">
        <ele>298.6</ele>
        <time>2021-09-05T11:43:44Z</time>
      </trkpt>
      <trkpt lat="44.01682" lon="2.04555">
        <ele>298.8</ele>
        <time>2021-09-05T11:43:45Z</time>
      </trkpt>
      <trkpt lat="44.01681" lon="2.04558">
        <ele>298.8</ele>
        <time>2021-09-05T11:43:46Z</time>
      </trkpt>
      <trkpt lat="44.0168" lon="2.04561">
        <ele>299</ele>
        <time>2021-09-05T11:43:47Z</time>
      </trkpt>
      <trkpt lat="44.0168" lon="2.04563">
        <ele>299</ele>
        <time>2021-09-05T11:43:48Z</time>
      </trkpt>
      <trkpt lat="44.01679" lon="2.04566">
        <ele>299</ele>
        <time>2021-09-05T11:43:49Z</time>
      </trkpt>
      <trkpt lat="44.01677" lon="2.04569">
        <ele>299.2</ele>
        <time>2021-09-05T11:43:50Z</time>
      </trkpt>
      <trkpt lat="44.01676" lon="2.04572">
        <ele>299.2</ele>
        <time>2021-09-05T11:43:51Z</time>
      </trkpt>
      <trkpt lat="44.01675" lon="2.04575">
        <ele>299.4</ele>
        <time>2021-09-05T11:43:52Z</time>
      </trkpt>
      <trkpt lat="44.01673" lon="2.04579">
        <ele>299.4</ele>
        <time>2021-09-05T11:43:53Z</time>
      </trkpt>
      <trkpt lat="44.01672" lon="2.04583">
        <ele>299.6</ele>
        <time>2021-09-05T11:43:54Z</time>
      </trkpt>
      <trkpt lat="44.0167" lon="2.04586">
        <ele>299.6</ele>
        <time>2021-09-05T11:43:55Z</time>
      </trkpt>
      <trkpt lat="44.01668" lon="2.0459">
        <ele>299.8</ele>
        <time>2021-09-05T11:43:56Z</time>
      </trkpt>
      <trkpt lat="44.01666" lon="2.04594">
        <ele>299.8</ele>
        <time>2021-09-05T11:43:57Z</time>
      </trkpt>
      <trkpt lat="44.01664" lon="2.04598">
        <ele>300</ele>
        <time>2021-09-05T11:43:58Z</time>
      </trkpt>
      <trkpt lat="44.01663" lon="2.04602">
        <ele>300.2</ele>
        <time>2021-09-05T11:43:59Z</time>
      </trkpt>
      <trkpt lat="44.01661" lon="2.04606">
        <ele>300.2</ele>
        <time>2021-09-05T11:44:00Z</time>
      </trkpt>
      <trkpt lat="44.01659" lon="2.0461">
        <ele>300.2</ele>
        <time>2021-09-05T11:44:01Z</time>
      </trkpt>
      <trkpt lat="44.01657" lon="2.04615">
        <ele>300.2</ele>
        <time>2021-09-05T11:44:02Z</time>
      </trkpt>
      <trkpt lat="44.01654" lon="2.04619">
        <ele>300.4</ele>
        <time>2021-09-05T11:44:03Z</time>
      </trkpt>
      <trkpt lat="44.01652" lon="2.04623">
        <ele>300.4</ele>
        <time>2021-09-05T11:44:04Z</time>
      </trkpt>
      <trkpt lat="44.0165" lon="2.04628">
        <ele>300.4</ele>
        <time>2021-09-05T11:44:05Z</time>
      </trkpt>
      <trkpt lat="44.01648" lon="2.04632">
        <ele>300.4</ele>
        <time>2021-09-05T11:44:06Z</time>
      </trkpt>
      <trkpt lat="44.01639" lon="2.0465">
        <ele>301</ele>
        <time>2021-09-05T11:44:10Z</time>
      </trkpt>
      <trkpt lat="44.01636" lon="2.04654">
        <ele>301</ele>
        <time>2021-09-05T11:44:11Z</time>
      </trkpt>
      <trkpt lat="44.0163" lon="2.04668">
        <ele>301.4</ele>
        <time>2021-09-05T11:44:14Z</time>
      </trkpt>
      <trkpt lat="44.01628" lon="2.04673">
        <ele>301.4</ele>
        <time>2021-09-05T11:44:15Z</time>
      </trkpt>
      <trkpt lat="44.01626" lon="2.04677">
        <ele>301.6</ele>
        <time>2021-09-05T11:44:16Z</time>
      </trkpt>
      <trkpt lat="44.01621" lon="2.04685">
        <ele>302</ele>
        <time>2021-09-05T11:44:18Z</time>
      </trkpt>
      <trkpt lat="44.01614" lon="2.04698">
        <ele>302.4</ele>
        <time>2021-09-05T11:44:21Z</time>
      </trkpt>
      <trkpt lat="44.01608" lon="2.04711">
        <ele>302.4</ele>
        <time>2021-09-05T11:44:24Z</time>
      </trkpt>
      <trkpt lat="44.01605" lon="2.04715">
        <ele>302.6</ele>
        <time>2021-09-05T11:44:25Z</time>
      </trkpt>
      <trkpt lat="44.01603" lon="2.04719">
        <ele>302.6</ele>
        <time>2021-09-05T11:44:26Z</time>
      </trkpt>
      <trkpt lat="44.016" lon="2.04724">
        <ele>302.8</ele>
        <time>2021-09-05T11:44:27Z</time>
      </trkpt>
      <trkpt lat="44.01598" lon="2.04728">
        <ele>303</ele>
        <time>2021-09-05T11:44:28Z</time>
      </trkpt>
      <trkpt lat="44.01596" lon="2.04733">
        <ele>303</ele>
        <time>2021-09-05T11:44:29Z</time>
      </trkpt>
      <trkpt lat="44.01594" lon="2.04737">
        <ele>303.4</ele>
        <time>2021-09-05T11:44:30Z</time>
      </trkpt>
      <trkpt lat="44.01592" lon="2.04741">
        <ele>303.4</ele>
        <time>2021-09-05T11:44:31Z</time>
      </trkpt>
      <trkpt lat="44.01589" lon="2.04746">
        <ele>304</ele>
        <time>2021-09-05T11:44:32Z</time>
      </trkpt>
      <trkpt lat="44.01587" lon="2.0475">
        <ele>304</ele>
        <time>2021-09-05T11:44:33Z</time>
      </trkpt>
      <trkpt lat="44.01584" lon="2.04754">
        <ele>304</ele>
        <time>2021-09-05T11:44:34Z</time>
      </trkpt>
      <trkpt lat="44.01582" lon="2.04758">
        <ele>304.2</ele>
        <time>2021-09-05T11:44:35Z</time>
      </trkpt>
      <trkpt lat="44.01579" lon="2.04761">
        <ele>304.2</ele>
        <time>2021-09-05T11:44:36Z</time>
      </trkpt>
      <trkpt lat="44.01577" lon="2.04764">
        <ele>304.2</ele>
        <time>2021-09-05T11:44:37Z</time>
      </trkpt>
      <trkpt lat="44.01574" lon="2.04767">
        <ele>304.4</ele>
        <time>2021-09-05T11:44:38Z</time>
      </trkpt>
      <trkpt lat="44.01572" lon="2.0477">
        <ele>304.4</ele>
        <time>2021-09-05T11:44:39Z</time>
      </trkpt>
      <trkpt lat="44.0157" lon="2.04772">
        <ele>304.4</ele>
        <time>2021-09-05T11:44:40Z</time>
      </trkpt>
      <trkpt lat="44.01567" lon="2.04775">
        <ele>304.6</ele>
        <time>2021-09-05T11:44:41Z</time>
      </trkpt>
      <trkpt lat="44.01564" lon="2.04778">
        <ele>304.8</ele>
        <time>2021-09-05T11:44:42Z</time>
      </trkpt>
      <trkpt lat="44.01562" lon="2.04781">
        <ele>304.8</ele>
        <time>2021-09-05T11:44:43Z</time>
      </trkpt>
      <trkpt lat="44.01559" lon="2.04784">
        <ele>305</ele>
        <time>2021-09-05T11:44:44Z</time>
      </trkpt>
      <trkpt lat="44.01556" lon="2.04786">
        <ele>305</ele>
        <time>2021-09-05T11:44:45Z</time>
      </trkpt>
      <trkpt lat="44.01554" lon="2.04789">
        <ele>305.2</ele>
        <time>2021-09-05T11:44:46Z</time>
      </trkpt>
      <trkpt lat="44.01551" lon="2.04792">
        <ele>305.2</ele>
        <time>2021-09-05T11:44:47Z</time>
      </trkpt>
      <trkpt lat="44.01548" lon="2.04795">
        <ele>305.4</ele>
        <time>2021-09-05T11:44:48Z</time>
      </trkpt>
      <trkpt lat="44.01545" lon="2.04798">
        <ele>305.4</ele>
        <time>2021-09-05T11:44:49Z</time>
      </trkpt>
      <trkpt lat="44.01542" lon="2.04801">
        <ele>305.6</ele>
        <time>2021-09-05T11:44:50Z</time>
      </trkpt>
      <trkpt lat="44.0154" lon="2.04804">
        <ele>305.6</ele>
        <time>2021-09-05T11:44:51Z</time>
      </trkpt>
      <trkpt lat="44.01537" lon="2.04807">
        <ele>305.8</ele>
        <time>2021-09-05T11:44:52Z</time>
      </trkpt>
      <trkpt lat="44.01535" lon="2.04809">
        <ele>305.8</ele>
        <time>2021-09-05T11:44:53Z</time>
      </trkpt>
      <trkpt lat="44.01532" lon="2.04812">
        <ele>305.8</ele>
        <time>2021-09-05T11:44:54Z</time>
      </trkpt>
      <trkpt lat="44.0153" lon="2.04815">
        <ele>306</ele>
        <time>2021-09-05T11:44:55Z</time>
      </trkpt>
      <trkpt lat="44.01527" lon="2.04817">
        <ele>306.2</ele>
        <time>2021-09-05T11:44:56Z</time>
      </trkpt>
      <trkpt lat="44.01525" lon="2.0482">
        <ele>306.4</ele>
        <time>2021-09-05T11:44:57Z</time>
      </trkpt>
      <trkpt lat="44.01523" lon="2.04823">
        <ele>306.4</ele>
        <time>2021-09-05T11:44:58Z</time>
      </trkpt>
      <trkpt lat="44.01521" lon="2.04825">
        <ele>306.6</ele>
        <time>2021-09-05T11:44:59Z</time>
      </trkpt>
      <trkpt lat="44.01518" lon="2.04828">
        <ele>306.6</ele>
        <time>2021-09-05T11:45:00Z</time>
      </trkpt>
      <trkpt lat="44.01516" lon="2.0483">
        <ele>306.8</ele>
        <time>2021-09-05T11:45:01Z</time>
      </trkpt>
      <trkpt lat="44.01514" lon="2.04833">
        <ele>306.8</ele>
        <time>2021-09-05T11:45:02Z</time>
      </trkpt>
      <trkpt lat="44.01512" lon="2.04835">
        <ele>306.8</ele>
        <time>2021-09-05T11:45:03Z</time>
      </trkpt>
      <trkpt lat="44.01509" lon="2.04838">
        <ele>306.8</ele>
        <time>2021-09-05T11:45:04Z</time>
      </trkpt>
      <trkpt lat="44.01507" lon="2.0484">
        <ele>306.8</ele>
        <time>2021-09-05T11:45:05Z</time>
      </trkpt>
      <trkpt lat="44.01505" lon="2.04843">
        <ele>306.8</ele>
        <time>2021-09-05T11:45:06Z</time>
      </trkpt>
      <trkpt lat="44.01502" lon="2.04845">
        <ele>306.8</ele>
        <time>2021-09-05T11:45:07Z</time>
      </trkpt>
      <trkpt lat="44.015" lon="2.04847">
        <ele>307</ele>
        <time>2021-09-05T11:45:08Z</time>
      </trkpt>
      <trkpt lat="44.01497" lon="2.0485">
        <ele>307</ele>
        <time>2021-09-05T11:45:09Z</time>
      </trkpt>
      <trkpt lat="44.01484" lon="2.04864">
        <ele>307.8</ele>
        <time>2021-09-05T11:45:14Z</time>
      </trkpt>
      <trkpt lat="44.0148" lon="2.04867">
        <ele>307.8</ele>
        <time>2021-09-05T11:45:15Z</time>
      </trkpt>
      <trkpt lat="44.01456" lon="2.04893">
        <ele>308.8</ele>
        <time>2021-09-05T11:45:23Z</time>
      </trkpt>
      <trkpt lat="44.01453" lon="2.04897">
        <ele>309</ele>
        <time>2021-09-05T11:45:24Z</time>
      </trkpt>
      <trkpt lat="44.0145" lon="2.04901">
        <ele>309.2</ele>
        <time>2021-09-05T11:45:25Z</time>
      </trkpt>
      <trkpt lat="44.01447" lon="2.04904">
        <ele>309.2</ele>
        <time>2021-09-05T11:45:26Z</time>
      </trkpt>
      <trkpt lat="44.01444" lon="2.04907">
        <ele>309.4</ele>
        <time>2021-09-05T11:45:27Z</time>
      </trkpt>
      <trkpt lat="44.01441" lon="2.0491">
        <ele>309.4</ele>
        <time>2021-09-05T11:45:28Z</time>
      </trkpt>
      <trkpt lat="44.01438" lon="2.04913">
        <ele>309.4</ele>
        <time>2021-09-05T11:45:29Z</time>
      </trkpt>
      <trkpt lat="44.01434" lon="2.04916">
        <ele>309.4</ele>
        <time>2021-09-05T11:45:30Z</time>
      </trkpt>
      <trkpt lat="44.01431" lon="2.0492">
        <ele>309.8</ele>
        <time>2021-09-05T11:45:31Z</time>
      </trkpt>
      <trkpt lat="44.01428" lon="2.04923">
        <ele>310</ele>
        <time>2021-09-05T11:45:32Z</time>
      </trkpt>
      <trkpt lat="44.01425" lon="2.04926">
        <ele>310.2</ele>
        <time>2021-09-05T11:45:33Z</time>
      </trkpt>
      <trkpt lat="44.01421" lon="2.04929">
        <ele>310.4</ele>
        <time>2021-09-05T11:45:34Z</time>
      </trkpt>
      <trkpt lat="44.01418" lon="2.04932">
        <ele>310.4</ele>
        <time>2021-09-05T11:45:35Z</time>
      </trkpt>
      <trkpt lat="44.01415" lon="2.04936">
        <ele>310.6</ele>
        <time>2021-09-05T11:45:36Z</time>
      </trkpt>
      <trkpt lat="44.01411" lon="2.04939">
        <ele>310.6</ele>
        <time>2021-09-05T11:45:37Z</time>
      </trkpt>
      <trkpt lat="44.01407" lon="2.04943">
        <ele>310.8</ele>
        <time>2021-09-05T11:45:38Z</time>
      </trkpt>
      <trkpt lat="44.01404" lon="2.04946">
        <ele>310.8</ele>
        <time>2021-09-05T11:45:39Z</time>
      </trkpt>
      <trkpt lat="44.014" lon="2.04951">
        <ele>311</ele>
        <time>2021-09-05T11:45:40Z</time>
      </trkpt>
      <trkpt lat="44.01397" lon="2.04954">
        <ele>311</ele>
        <time>2021-09-05T11:45:41Z</time>
      </trkpt>
      <trkpt lat="44.01392" lon="2.04959">
        <ele>311.2</ele>
        <time>2021-09-05T11:45:42Z</time>
      </trkpt>
      <trkpt lat="44.01389" lon="2.04962">
        <ele>311.2</ele>
        <time>2021-09-05T11:45:43Z</time>
      </trkpt>
      <trkpt lat="44.01386" lon="2.04966">
        <ele>311.2</ele>
        <time>2021-09-05T11:45:44Z</time>
      </trkpt>
      <trkpt lat="44.01381" lon="2.04971">
        <ele>311.4</ele>
        <time>2021-09-05T11:45:45Z</time>
      </trkpt>
      <trkpt lat="44.01377" lon="2.04976">
        <ele>311.4</ele>
        <time>2021-09-05T11:45:46Z</time>
      </trkpt>
      <trkpt lat="44.01372" lon="2.0498">
        <ele>311.6</ele>
        <time>2021-09-05T11:45:47Z</time>
      </trkpt>
      <trkpt lat="44.01369" lon="2.04985">
        <ele>311.6</ele>
        <time>2021-09-05T11:45:48Z</time>
      </trkpt>
      <trkpt lat="44.01365" lon="2.0499">
        <ele>311.6</ele>
        <time>2021-09-05T11:45:49Z</time>
      </trkpt>
      <trkpt lat="44.0136" lon="2.04996">
        <ele>311.6</ele>
        <time>2021-09-05T11:45:50Z</time>
      </trkpt>
      <trkpt lat="44.01356" lon="2.05001">
        <ele>311.6</ele>
        <time>2021-09-05T11:45:51Z</time>
      </trkpt>
      <trkpt lat="44.01352" lon="2.05006">
        <ele>311.6</ele>
        <time>2021-09-05T11:45:52Z</time>
      </trkpt>
      <trkpt lat="44.01349" lon="2.0501">
        <ele>311.6</ele>
        <time>2021-09-05T11:45:53Z</time>
      </trkpt>
      <trkpt lat="44.01339" lon="2.05021">
        <ele>311.4</ele>
        <time>2021-09-05T11:45:55Z</time>
      </trkpt>
      <trkpt lat="44.01328" lon="2.05038">
        <ele>311.4</ele>
        <time>2021-09-05T11:45:58Z</time>
      </trkpt>
      <trkpt lat="44.01303" lon="2.05077">
        <ele>311</ele>
        <time>2021-09-05T11:46:04Z</time>
      </trkpt>
      <trkpt lat="44.01299" lon="2.05084">
        <ele>311.2</ele>
        <time>2021-09-05T11:46:05Z</time>
      </trkpt>
      <trkpt lat="44.01296" lon="2.05091">
        <ele>311.2</ele>
        <time>2021-09-05T11:46:06Z</time>
      </trkpt>
      <trkpt lat="44.01292" lon="2.05097">
        <ele>310.8</ele>
        <time>2021-09-05T11:46:07Z</time>
      </trkpt>
      <trkpt lat="44.01288" lon="2.05104">
        <ele>310.8</ele>
        <time>2021-09-05T11:46:08Z</time>
      </trkpt>
      <trkpt lat="44.01284" lon="2.0511">
        <ele>310.8</ele>
        <time>2021-09-05T11:46:09Z</time>
      </trkpt>
      <trkpt lat="44.01265" lon="2.05134">
        <ele>311</ele>
        <time>2021-09-05T11:46:13Z</time>
      </trkpt>
      <trkpt lat="44.01256" lon="2.05146">
        <ele>311.2</ele>
        <time>2021-09-05T11:46:15Z</time>
      </trkpt>
      <trkpt lat="44.01252" lon="2.05152">
        <ele>311.4</ele>
        <time>2021-09-05T11:46:16Z</time>
      </trkpt>
      <trkpt lat="44.01247" lon="2.05158">
        <ele>311.6</ele>
        <time>2021-09-05T11:46:17Z</time>
      </trkpt>
      <trkpt lat="44.01243" lon="2.05163">
        <ele>311.6</ele>
        <time>2021-09-05T11:46:18Z</time>
      </trkpt>
      <trkpt lat="44.01238" lon="2.05168">
        <ele>311.6</ele>
        <time>2021-09-05T11:46:19Z</time>
      </trkpt>
      <trkpt lat="44.01233" lon="2.05174">
        <ele>311.8</ele>
        <time>2021-09-05T11:46:20Z</time>
      </trkpt>
      <trkpt lat="44.01229" lon="2.05178">
        <ele>312</ele>
        <time>2021-09-05T11:46:21Z</time>
      </trkpt>
      <trkpt lat="44.01224" lon="2.05183">
        <ele>312.2</ele>
        <time>2021-09-05T11:46:22Z</time>
      </trkpt>
      <trkpt lat="44.0122" lon="2.05187">
        <ele>312.2</ele>
        <time>2021-09-05T11:46:23Z</time>
      </trkpt>
      <trkpt lat="44.01216" lon="2.05192">
        <ele>312.4</ele>
        <time>2021-09-05T11:46:24Z</time>
      </trkpt>
      <trkpt lat="44.01212" lon="2.05197">
        <ele>312.4</ele>
        <time>2021-09-05T11:46:25Z</time>
      </trkpt>
      <trkpt lat="44.01207" lon="2.05202">
        <ele>312.6</ele>
        <time>2021-09-05T11:46:26Z</time>
      </trkpt>
      <trkpt lat="44.01203" lon="2.05206">
        <ele>312.6</ele>
        <time>2021-09-05T11:46:27Z</time>
      </trkpt>
      <trkpt lat="44.01198" lon="2.05211">
        <ele>312.8</ele>
        <time>2021-09-05T11:46:28Z</time>
      </trkpt>
      <trkpt lat="44.01194" lon="2.05218">
        <ele>313</ele>
        <time>2021-09-05T11:46:29Z</time>
      </trkpt>
      <trkpt lat="44.01191" lon="2.05222">
        <ele>313.4</ele>
        <time>2021-09-05T11:46:30Z</time>
      </trkpt>
      <trkpt lat="44.01188" lon="2.05228">
        <ele>313.6</ele>
        <time>2021-09-05T11:46:31Z</time>
      </trkpt>
      <trkpt lat="44.01185" lon="2.05233">
        <ele>313.6</ele>
        <time>2021-09-05T11:46:32Z</time>
      </trkpt>
      <trkpt lat="44.01182" lon="2.05238">
        <ele>313.8</ele>
        <time>2021-09-05T11:46:33Z</time>
      </trkpt>
      <trkpt lat="44.01179" lon="2.05243">
        <ele>313.8</ele>
        <time>2021-09-05T11:46:34Z</time>
      </trkpt>
      <trkpt lat="44.01176" lon="2.05247">
        <ele>313.8</ele>
        <time>2021-09-05T11:46:35Z</time>
      </trkpt>
      <trkpt lat="44.01165" lon="2.05269">
        <ele>314</ele>
        <time>2021-09-05T11:46:39Z</time>
      </trkpt>
      <trkpt lat="44.01162" lon="2.05275">
        <ele>314</ele>
        <time>2021-09-05T11:46:40Z</time>
      </trkpt>
      <trkpt lat="44.01159" lon="2.0528">
        <ele>314.2</ele>
        <time>2021-09-05T11:46:41Z</time>
      </trkpt>
      <trkpt lat="44.01156" lon="2.05286">
        <ele>314.2</ele>
        <time>2021-09-05T11:46:42Z</time>
      </trkpt>
      <trkpt lat="44.01153" lon="2.05291">
        <ele>314.2</ele>
        <time>2021-09-05T11:46:43Z</time>
      </trkpt>
      <trkpt lat="44.01131" lon="2.05339">
        <ele>314</ele>
        <time>2021-09-05T11:46:51Z</time>
      </trkpt>
      <trkpt lat="44.01123" lon="2.05359">
        <ele>314</ele>
        <time>2021-09-05T11:46:54Z</time>
      </trkpt>
      <trkpt lat="44.0112" lon="2.05365">
        <ele>314.2</ele>
        <time>2021-09-05T11:46:55Z</time>
      </trkpt>
      <trkpt lat="44.01117" lon="2.05371">
        <ele>314.2</ele>
        <time>2021-09-05T11:46:56Z</time>
      </trkpt>
      <trkpt lat="44.01115" lon="2.05377">
        <ele>314.2</ele>
        <time>2021-09-05T11:46:57Z</time>
      </trkpt>
      <trkpt lat="44.01113" lon="2.05383">
        <ele>314.2</ele>
        <time>2021-09-05T11:46:58Z</time>
      </trkpt>
      <trkpt lat="44.01111" lon="2.05389">
        <ele>314.2</ele>
        <time>2021-09-05T11:46:59Z</time>
      </trkpt>
      <trkpt lat="44.01109" lon="2.05395">
        <ele>314.2</ele>
        <time>2021-09-05T11:47:00Z</time>
      </trkpt>
      <trkpt lat="44.01093" lon="2.05439">
        <ele>314.4</ele>
        <time>2021-09-05T11:47:07Z</time>
      </trkpt>
      <trkpt lat="44.01082" lon="2.05475">
        <ele>314.4</ele>
        <time>2021-09-05T11:47:12Z</time>
      </trkpt>
      <trkpt lat="44.0108" lon="2.05483">
        <ele>314.4</ele>
        <time>2021-09-05T11:47:13Z</time>
      </trkpt>
      <trkpt lat="44.01078" lon="2.0549">
        <ele>314.4</ele>
        <time>2021-09-05T11:47:14Z</time>
      </trkpt>
      <trkpt lat="44.01075" lon="2.05498">
        <ele>314.4</ele>
        <time>2021-09-05T11:47:15Z</time>
      </trkpt>
      <trkpt lat="44.01072" lon="2.05503">
        <ele>314.4</ele>
        <time>2021-09-05T11:47:16Z</time>
      </trkpt>
      <trkpt lat="44.01069" lon="2.05508">
        <ele>314.2</ele>
        <time>2021-09-05T11:47:17Z</time>
      </trkpt>
      <trkpt lat="44.01067" lon="2.05514">
        <ele>314.2</ele>
        <time>2021-09-05T11:47:18Z</time>
      </trkpt>
      <trkpt lat="44.01064" lon="2.05519">
        <ele>314</ele>
        <time>2021-09-05T11:47:19Z</time>
      </trkpt>
      <trkpt lat="44.01062" lon="2.05526">
        <ele>314</ele>
        <time>2021-09-05T11:47:20Z</time>
      </trkpt>
      <trkpt lat="44.01057" lon="2.05538">
        <ele>314</ele>
        <time>2021-09-05T11:47:22Z</time>
      </trkpt>
      <trkpt lat="44.01053" lon="2.05554">
        <ele>313.8</ele>
        <time>2021-09-05T11:47:24Z</time>
      </trkpt>
      <trkpt lat="44.01042" lon="2.05601">
        <ele>313.8</ele>
        <time>2021-09-05T11:47:30Z</time>
      </trkpt>
      <trkpt lat="44.01027" lon="2.05656">
        <ele>313.4</ele>
        <time>2021-09-05T11:47:36Z</time>
      </trkpt>
      <trkpt lat="44.01025" lon="2.05666">
        <ele>313.4</ele>
        <time>2021-09-05T11:47:37Z</time>
      </trkpt>
      <trkpt lat="44.01023" lon="2.05676">
        <ele>313</ele>
        <time>2021-09-05T11:47:38Z</time>
      </trkpt>
      <trkpt lat="44.01011" lon="2.05726">
        <ele>312.6</ele>
        <time>2021-09-05T11:47:43Z</time>
      </trkpt>
      <trkpt lat="44.01008" lon="2.05736">
        <ele>312.6</ele>
        <time>2021-09-05T11:47:44Z</time>
      </trkpt>
      <trkpt lat="44.01006" lon="2.05746">
        <ele>312.4</ele>
        <time>2021-09-05T11:47:45Z</time>
      </trkpt>
      <trkpt lat="44.01004" lon="2.05755">
        <ele>312.4</ele>
        <time>2021-09-05T11:47:46Z</time>
      </trkpt>
      <trkpt lat="44.01002" lon="2.05765">
        <ele>312.4</ele>
        <time>2021-09-05T11:47:47Z</time>
      </trkpt>
      <trkpt lat="44.00999" lon="2.05774">
        <ele>312.4</ele>
        <time>2021-09-05T11:47:48Z</time>
      </trkpt>
      <trkpt lat="44.00997" lon="2.05783">
        <ele>312.4</ele>
        <time>2021-09-05T11:47:49Z</time>
      </trkpt>
      <trkpt lat="44.00995" lon="2.05792">
        <ele>312.2</ele>
        <time>2021-09-05T11:47:50Z</time>
      </trkpt>
      <trkpt lat="44.00993" lon="2.05801">
        <ele>312.2</ele>
        <time>2021-09-05T11:47:51Z</time>
      </trkpt>
      <trkpt lat="44.00991" lon="2.0581">
        <ele>312.2</ele>
        <time>2021-09-05T11:47:52Z</time>
      </trkpt>
      <trkpt lat="44.00989" lon="2.05818">
        <ele>312.2</ele>
        <time>2021-09-05T11:47:53Z</time>
      </trkpt>
      <trkpt lat="44.00987" lon="2.05827">
        <ele>312.2</ele>
        <time>2021-09-05T11:47:54Z</time>
      </trkpt>
      <trkpt lat="44.00985" lon="2.05834">
        <ele>312.2</ele>
        <time>2021-09-05T11:47:55Z</time>
      </trkpt>
      <trkpt lat="44.00983" lon="2.05842">
        <ele>312.2</ele>
        <time>2021-09-05T11:47:56Z</time>
      </trkpt>
      <trkpt lat="44.00983" lon="2.05849">
        <ele>312.4</ele>
        <time>2021-09-05T11:47:57Z</time>
      </trkpt>
      <trkpt lat="44.00983" lon="2.05857">
        <ele>312.4</ele>
        <time>2021-09-05T11:47:58Z</time>
      </trkpt>
      <trkpt lat="44.00983" lon="2.05865">
        <ele>312.6</ele>
        <time>2021-09-05T11:47:59Z</time>
      </trkpt>
      <trkpt lat="44.00983" lon="2.05873">
        <ele>312.6</ele>
        <time>2021-09-05T11:48:00Z</time>
      </trkpt>
      <trkpt lat="44.00984" lon="2.05895">
        <ele>313.4</ele>
        <time>2021-09-05T11:48:03Z</time>
      </trkpt>
      <trkpt lat="44.00984" lon="2.05902">
        <ele>313.4</ele>
        <time>2021-09-05T11:48:04Z</time>
      </trkpt>
      <trkpt lat="44.00985" lon="2.05909">
        <ele>313.4</ele>
        <time>2021-09-05T11:48:05Z</time>
      </trkpt>
      <trkpt lat="44.00985" lon="2.05916">
        <ele>313.4</ele>
        <time>2021-09-05T11:48:06Z</time>
      </trkpt>
      <trkpt lat="44.00986" lon="2.05925">
        <ele>313.4</ele>
        <time>2021-09-05T11:48:07Z</time>
      </trkpt>
      <trkpt lat="44.00988" lon="2.05938">
        <ele>313.4</ele>
        <time>2021-09-05T11:48:09Z</time>
      </trkpt>
      <trkpt lat="44.00989" lon="2.05944">
        <ele>313.2</ele>
        <time>2021-09-05T11:48:10Z</time>
      </trkpt>
      <trkpt lat="44.00991" lon="2.05951">
        <ele>313.2</ele>
        <time>2021-09-05T11:48:11Z</time>
      </trkpt>
      <trkpt lat="44.00992" lon="2.05958">
        <ele>313.2</ele>
        <time>2021-09-05T11:48:12Z</time>
      </trkpt>
      <trkpt lat="44.00994" lon="2.05964">
        <ele>313.2</ele>
        <time>2021-09-05T11:48:13Z</time>
      </trkpt>
      <trkpt lat="44.00996" lon="2.05971">
        <ele>313.2</ele>
        <time>2021-09-05T11:48:14Z</time>
      </trkpt>
      <trkpt lat="44.00998" lon="2.05977">
        <ele>313.2</ele>
        <time>2021-09-05T11:48:15Z</time>
      </trkpt>
      <trkpt lat="44.00999" lon="2.05984">
        <ele>313.4</ele>
        <time>2021-09-05T11:48:16Z</time>
      </trkpt>
      <trkpt lat="44.01001" lon="2.0599">
        <ele>313.4</ele>
        <time>2021-09-05T11:48:17Z</time>
      </trkpt>
      <trkpt lat="44.01002" lon="2.05996">
        <ele>313.6</ele>
        <time>2021-09-05T11:48:18Z</time>
      </trkpt>
      <trkpt lat="44.01004" lon="2.06002">
        <ele>313.8</ele>
        <time>2021-09-05T11:48:19Z</time>
      </trkpt>
      <trkpt lat="44.01008" lon="2.06015">
        <ele>314.2</ele>
        <time>2021-09-05T11:48:21Z</time>
      </trkpt>
      <trkpt lat="44.0101" lon="2.06028">
        <ele>314.4</ele>
        <time>2021-09-05T11:48:23Z</time>
      </trkpt>
      <trkpt lat="44.01011" lon="2.06032">
        <ele>314.6</ele>
        <time>2021-09-05T11:48:24Z</time>
      </trkpt>
      <trkpt lat="44.01014" lon="2.06044">
        <ele>314.8</ele>
        <time>2021-09-05T11:48:26Z</time>
      </trkpt>
      <trkpt lat="44.01018" lon="2.0606">
        <ele>315.2</ele>
        <time>2021-09-05T11:48:29Z</time>
      </trkpt>
      <trkpt lat="44.01019" lon="2.06066">
        <ele>315.4</ele>
        <time>2021-09-05T11:48:30Z</time>
      </trkpt>
      <trkpt lat="44.01032" lon="2.06106">
        <ele>316</ele>
        <time>2021-09-05T11:48:37Z</time>
      </trkpt>
      <trkpt lat="44.01034" lon="2.06112">
        <ele>316</ele>
        <time>2021-09-05T11:48:38Z</time>
      </trkpt>
      <trkpt lat="44.01047" lon="2.0615">
        <ele>316.8</ele>
        <time>2021-09-05T11:48:44Z</time>
      </trkpt>
      <trkpt lat="44.0105" lon="2.06156">
        <ele>316.8</ele>
        <time>2021-09-05T11:48:45Z</time>
      </trkpt>
      <trkpt lat="44.01052" lon="2.06162">
        <ele>316.8</ele>
        <time>2021-09-05T11:48:46Z</time>
      </trkpt>
      <trkpt lat="44.01055" lon="2.06169">
        <ele>316.8</ele>
        <time>2021-09-05T11:48:47Z</time>
      </trkpt>
      <trkpt lat="44.01057" lon="2.06174">
        <ele>316.6</ele>
        <time>2021-09-05T11:48:48Z</time>
      </trkpt>
      <trkpt lat="44.01059" lon="2.0618">
        <ele>316.8</ele>
        <time>2021-09-05T11:48:49Z</time>
      </trkpt>
      <trkpt lat="44.01061" lon="2.06185">
        <ele>316.8</ele>
        <time>2021-09-05T11:48:50Z</time>
      </trkpt>
      <trkpt lat="44.01062" lon="2.0619">
        <ele>316.8</ele>
        <time>2021-09-05T11:48:51Z</time>
      </trkpt>
      <trkpt lat="44.01069" lon="2.06207">
        <ele>317</ele>
        <time>2021-09-05T11:48:54Z</time>
      </trkpt>
      <trkpt lat="44.01089" lon="2.06259">
        <ele>317.8</ele>
        <time>2021-09-05T11:49:03Z</time>
      </trkpt>
      <trkpt lat="44.01091" lon="2.06264">
        <ele>317.8</ele>
        <time>2021-09-05T11:49:04Z</time>
      </trkpt>
      <trkpt lat="44.01099" lon="2.06281">
        <ele>318.2</ele>
        <time>2021-09-05T11:49:07Z</time>
      </trkpt>
      <trkpt lat="44.01106" lon="2.06289">
        <ele>318.4</ele>
        <time>2021-09-05T11:49:09Z</time>
      </trkpt>
      <trkpt lat="44.0111" lon="2.06294">
        <ele>318.4</ele>
        <time>2021-09-05T11:49:10Z</time>
      </trkpt>
      <trkpt lat="44.01114" lon="2.06297">
        <ele>318.4</ele>
        <time>2021-09-05T11:49:11Z</time>
      </trkpt>
      <trkpt lat="44.01136" lon="2.06308">
        <ele>318.4</ele>
        <time>2021-09-05T11:49:16Z</time>
      </trkpt>
      <trkpt lat="44.01165" lon="2.06317">
        <ele>318.6</ele>
        <time>2021-09-05T11:49:22Z</time>
      </trkpt>
      <trkpt lat="44.01169" lon="2.0632">
        <ele>318.6</ele>
        <time>2021-09-05T11:49:23Z</time>
      </trkpt>
      <trkpt lat="44.01172" lon="2.06326">
        <ele>318.6</ele>
        <time>2021-09-05T11:49:24Z</time>
      </trkpt>
      <trkpt lat="44.01173" lon="2.06332">
        <ele>318.6</ele>
        <time>2021-09-05T11:49:25Z</time>
      </trkpt>
      <trkpt lat="44.01175" lon="2.06336">
        <ele>318.6</ele>
        <time>2021-09-05T11:49:26Z</time>
      </trkpt>
      <trkpt lat="44.01178" lon="2.0634">
        <ele>318.6</ele>
        <time>2021-09-05T11:49:27Z</time>
      </trkpt>
      <trkpt lat="44.01191" lon="2.06349">
        <ele>318.6</ele>
        <time>2021-09-05T11:49:30Z</time>
      </trkpt>
      <trkpt lat="44.01195" lon="2.06353">
        <ele>318.6</ele>
        <time>2021-09-05T11:49:31Z</time>
      </trkpt>
      <trkpt lat="44.01199" lon="2.06356">
        <ele>318.6</ele>
        <time>2021-09-05T11:49:32Z</time>
      </trkpt>
      <trkpt lat="44.01201" lon="2.06361">
        <ele>318.6</ele>
        <time>2021-09-05T11:49:33Z</time>
      </trkpt>
      <trkpt lat="44.012" lon="2.06366">
        <ele>318.6</ele>
        <time>2021-09-05T11:49:34Z</time>
      </trkpt>
      <trkpt lat="44.01199" lon="2.06379">
        <ele>318.6</ele>
        <time>2021-09-05T11:49:36Z</time>
      </trkpt>
      <trkpt lat="44.01197" lon="2.06385">
        <ele>318.8</ele>
        <time>2021-09-05T11:49:37Z</time>
      </trkpt>
      <trkpt lat="44.01195" lon="2.06391">
        <ele>318.8</ele>
        <time>2021-09-05T11:49:38Z</time>
      </trkpt>
      <trkpt lat="44.01191" lon="2.06397">
        <ele>318.8</ele>
        <time>2021-09-05T11:49:39Z</time>
      </trkpt>
      <trkpt lat="44.01183" lon="2.06415">
        <ele>318.6</ele>
        <time>2021-09-05T11:49:42Z</time>
      </trkpt>
      <trkpt lat="44.01178" lon="2.06437">
        <ele>318</ele>
        <time>2021-09-05T11:49:45Z</time>
      </trkpt>
      <trkpt lat="44.01177" lon="2.06445">
        <ele>318</ele>
        <time>2021-09-05T11:49:46Z</time>
      </trkpt>
      <trkpt lat="44.01179" lon="2.06453">
        <ele>317.8</ele>
        <time>2021-09-05T11:49:47Z</time>
      </trkpt>
      <trkpt lat="44.01179" lon="2.06459">
        <ele>317.6</ele>
        <time>2021-09-05T11:49:48Z</time>
      </trkpt>
      <trkpt lat="44.0118" lon="2.06465">
        <ele>317.6</ele>
        <time>2021-09-05T11:49:49Z</time>
      </trkpt>
      <trkpt lat="44.01181" lon="2.06469">
        <ele>317.6</ele>
        <time>2021-09-05T11:49:50Z</time>
      </trkpt>
      <trkpt lat="44.01182" lon="2.06473">
        <ele>317.4</ele>
        <time>2021-09-05T11:49:51Z</time>
      </trkpt>
      <trkpt lat="44.01182" lon="2.06478">
        <ele>317.2</ele>
        <time>2021-09-05T11:49:52Z</time>
      </trkpt>
      <trkpt lat="44.01183" lon="2.06482">
        <ele>317</ele>
        <time>2021-09-05T11:49:53Z</time>
      </trkpt>
      <trkpt lat="44.01182" lon="2.06487">
        <ele>316.8</ele>
        <time>2021-09-05T11:49:54Z</time>
      </trkpt>
      <trkpt lat="44.01182" lon="2.06491">
        <ele>316.8</ele>
        <time>2021-09-05T11:49:55Z</time>
      </trkpt>
      <trkpt lat="44.01182" lon="2.06495">
        <ele>316.6</ele>
        <time>2021-09-05T11:49:56Z</time>
      </trkpt>
      <trkpt lat="44.01182" lon="2.06498">
        <ele>316.6</ele>
        <time>2021-09-05T11:49:57Z</time>
      </trkpt>
      <trkpt lat="44.0118" lon="2.06504">
        <ele>316.4</ele>
        <time>2021-09-05T11:49:59Z</time>
      </trkpt>
      <trkpt lat="44.01179" lon="2.06507">
        <ele>316.4</ele>
        <time>2021-09-05T11:50:00Z</time>
      </trkpt>
      <trkpt lat="44.01178" lon="2.06508">
        <ele>316.4</ele>
        <time>2021-09-05T11:50:01Z</time>
      </trkpt>
      <trkpt lat="44.01176" lon="2.06509">
        <ele>316.4</ele>
        <time>2021-09-05T11:50:02Z</time>
      </trkpt>
      <trkpt lat="44.01175" lon="2.0651">
        <ele>316.4</ele>
        <time>2021-09-05T11:50:03Z</time>
      </trkpt>
      <trkpt lat="44.01174" lon="2.06511">
        <ele>316.4</ele>
        <time>2021-09-05T11:50:04Z</time>
      </trkpt>
      <trkpt lat="44.01172" lon="2.06513">
        <ele>316.4</ele>
        <time>2021-09-05T11:50:05Z</time>
      </trkpt>
      <trkpt lat="44.01171" lon="2.06516">
        <ele>316.4</ele>
        <time>2021-09-05T11:50:06Z</time>
      </trkpt>
      <trkpt lat="44.01169" lon="2.06519">
        <ele>316.4</ele>
        <time>2021-09-05T11:50:07Z</time>
      </trkpt>
      <trkpt lat="44.01166" lon="2.0652">
        <ele>316.4</ele>
        <time>2021-09-05T11:50:08Z</time>
      </trkpt>
      <trkpt lat="44.01163" lon="2.06524">
        <ele>316.4</ele>
        <time>2021-09-05T11:50:09Z</time>
      </trkpt>
      <trkpt lat="44.01161" lon="2.06529">
        <ele>316.4</ele>
        <time>2021-09-05T11:50:10Z</time>
      </trkpt>
      <trkpt lat="44.01157" lon="2.06534">
        <ele>316.4</ele>
        <time>2021-09-05T11:50:11Z</time>
      </trkpt>
      <trkpt lat="44.01149" lon="2.06543">
        <ele>316.4</ele>
        <time>2021-09-05T11:50:13Z</time>
      </trkpt>
      <trkpt lat="44.01147" lon="2.06548">
        <ele>316.4</ele>
        <time>2021-09-05T11:50:14Z</time>
      </trkpt>
      <trkpt lat="44.01146" lon="2.06552">
        <ele>316.4</ele>
        <time>2021-09-05T11:50:15Z</time>
      </trkpt>
      <trkpt lat="44.01144" lon="2.06555">
        <ele>316.2</ele>
        <time>2021-09-05T11:50:16Z</time>
      </trkpt>
      <trkpt lat="44.01141" lon="2.06558">
        <ele>316.2</ele>
        <time>2021-09-05T11:50:17Z</time>
      </trkpt>
      <trkpt lat="44.01137" lon="2.06562">
        <ele>316.2</ele>
        <time>2021-09-05T11:50:18Z</time>
      </trkpt>
      <trkpt lat="44.01132" lon="2.06569">
        <ele>316</ele>
        <time>2021-09-05T11:50:19Z</time>
      </trkpt>
      <trkpt lat="44.01129" lon="2.06574">
        <ele>316</ele>
        <time>2021-09-05T11:50:20Z</time>
      </trkpt>
      <trkpt lat="44.01125" lon="2.06581">
        <ele>316</ele>
        <time>2021-09-05T11:50:21Z</time>
      </trkpt>
      <trkpt lat="44.01119" lon="2.06588">
        <ele>316</ele>
        <time>2021-09-05T11:50:22Z</time>
      </trkpt>
      <trkpt lat="44.01112" lon="2.066">
        <ele>316</ele>
        <time>2021-09-05T11:50:24Z</time>
      </trkpt>
      <trkpt lat="44.01107" lon="2.06604">
        <ele>315.8</ele>
        <time>2021-09-05T11:50:25Z</time>
      </trkpt>
      <trkpt lat="44.01106" lon="2.06607">
        <ele>316</ele>
        <time>2021-09-05T11:50:26Z</time>
      </trkpt>
      <trkpt lat="44.01107" lon="2.06611">
        <ele>316</ele>
        <time>2021-09-05T11:50:27Z</time>
      </trkpt>
      <trkpt lat="44.01107" lon="2.06619">
        <ele>316</ele>
        <time>2021-09-05T11:50:28Z</time>
      </trkpt>
      <trkpt lat="44.01105" lon="2.06627">
        <ele>316</ele>
        <time>2021-09-05T11:50:29Z</time>
      </trkpt>
      <trkpt lat="44.011" lon="2.06633">
        <ele>316</ele>
        <time>2021-09-05T11:50:30Z</time>
      </trkpt>
      <trkpt lat="44.01094" lon="2.06642">
        <ele>316.2</ele>
        <time>2021-09-05T11:50:32Z</time>
      </trkpt>
      <trkpt lat="44.01091" lon="2.06649">
        <ele>316.4</ele>
        <time>2021-09-05T11:50:33Z</time>
      </trkpt>
      <trkpt lat="44.01089" lon="2.06654">
        <ele>316.4</ele>
        <time>2021-09-05T11:50:34Z</time>
      </trkpt>
      <trkpt lat="44.01089" lon="2.0666">
        <ele>316.6</ele>
        <time>2021-09-05T11:50:35Z</time>
      </trkpt>
      <trkpt lat="44.0109" lon="2.06666">
        <ele>316.6</ele>
        <time>2021-09-05T11:50:36Z</time>
      </trkpt>
      <trkpt lat="44.01092" lon="2.06672">
        <ele>316.4</ele>
        <time>2021-09-05T11:50:37Z</time>
      </trkpt>
      <trkpt lat="44.01093" lon="2.06678">
        <ele>316.2</ele>
        <time>2021-09-05T11:50:38Z</time>
      </trkpt>
      <trkpt lat="44.01094" lon="2.06685">
        <ele>316</ele>
        <time>2021-09-05T11:50:39Z</time>
      </trkpt>
      <trkpt lat="44.01093" lon="2.06692">
        <ele>316</ele>
        <time>2021-09-05T11:50:40Z</time>
      </trkpt>
      <trkpt lat="44.01091" lon="2.06697">
        <ele>316</ele>
        <time>2021-09-05T11:50:41Z</time>
      </trkpt>
      <trkpt lat="44.01088" lon="2.06702">
        <ele>316</ele>
        <time>2021-09-05T11:50:42Z</time>
      </trkpt>
      <trkpt lat="44.01085" lon="2.06706">
        <ele>316</ele>
        <time>2021-09-05T11:50:43Z</time>
      </trkpt>
      <trkpt lat="44.01082" lon="2.06712">
        <ele>315.8</ele>
        <time>2021-09-05T11:50:44Z</time>
      </trkpt>
      <trkpt lat="44.01078" lon="2.06717">
        <ele>315.8</ele>
        <time>2021-09-05T11:50:45Z</time>
      </trkpt>
      <trkpt lat="44.01072" lon="2.06723">
        <ele>315.8</ele>
        <time>2021-09-05T11:50:46Z</time>
      </trkpt>
      <trkpt lat="44.01065" lon="2.06727">
        <ele>315.8</ele>
        <time>2021-09-05T11:50:47Z</time>
      </trkpt>
      <trkpt lat="44.01056" lon="2.06735">
        <ele>315.6</ele>
        <time>2021-09-05T11:50:49Z</time>
      </trkpt>
      <trkpt lat="44.01034" lon="2.06741">
        <ele>315</ele>
        <time>2021-09-05T11:50:52Z</time>
      </trkpt>
      <trkpt lat="44.01026" lon="2.06744">
        <ele>314.4</ele>
        <time>2021-09-05T11:50:53Z</time>
      </trkpt>
      <trkpt lat="44.01022" lon="2.06746">
        <ele>314</ele>
        <time>2021-09-05T11:50:54Z</time>
      </trkpt>
      <trkpt lat="44.01018" lon="2.06747">
        <ele>313.2</ele>
        <time>2021-09-05T11:50:55Z</time>
      </trkpt>
      <trkpt lat="44.01015" lon="2.06748">
        <ele>312.8</ele>
        <time>2021-09-05T11:50:56Z</time>
      </trkpt>
      <trkpt lat="44.01013" lon="2.06748">
        <ele>312.6</ele>
        <time>2021-09-05T11:50:57Z</time>
      </trkpt>
      <trkpt lat="44.01011" lon="2.06748">
        <ele>312.2</ele>
        <time>2021-09-05T11:50:58Z</time>
      </trkpt>
      <trkpt lat="44.0101" lon="2.06749">
        <ele>311.8</ele>
        <time>2021-09-05T11:50:59Z</time>
      </trkpt>
      <trkpt lat="44.01009" lon="2.0675">
        <ele>311</ele>
        <time>2021-09-05T11:51:00Z</time>
      </trkpt>
      <trkpt lat="44.01008" lon="2.06752">
        <ele>311</ele>
        <time>2021-09-05T11:51:01Z</time>
      </trkpt>
      <trkpt lat="44.01007" lon="2.0676">
        <ele>310.2</ele>
        <time>2021-09-05T11:51:03Z</time>
      </trkpt>
      <trkpt lat="44.01007" lon="2.06764">
        <ele>310</ele>
        <time>2021-09-05T11:51:04Z</time>
      </trkpt>
      <trkpt lat="44.01007" lon="2.06769">
        <ele>309.6</ele>
        <time>2021-09-05T11:51:05Z</time>
      </trkpt>
      <trkpt lat="44.01007" lon="2.06773">
        <ele>309</ele>
        <time>2021-09-05T11:51:06Z</time>
      </trkpt>
      <trkpt lat="44.01009" lon="2.06775">
        <ele>307.6</ele>
        <time>2021-09-05T11:51:07Z</time>
      </trkpt>
      <trkpt lat="44.01011" lon="2.06777">
        <ele>307</ele>
        <time>2021-09-05T11:51:08Z</time>
      </trkpt>
      <trkpt lat="44.01015" lon="2.06777">
        <ele>305.6</ele>
        <time>2021-09-05T11:51:09Z</time>
      </trkpt>
      <trkpt lat="44.01023" lon="2.06776">
        <ele>304.4</ele>
        <time>2021-09-05T11:51:11Z</time>
      </trkpt>
      <trkpt lat="44.01027" lon="2.06776">
        <ele>303.8</ele>
        <time>2021-09-05T11:51:12Z</time>
      </trkpt>
      <trkpt lat="44.01035" lon="2.06776">
        <ele>303.2</ele>
        <time>2021-09-05T11:51:14Z</time>
      </trkpt>
      <trkpt lat="44.01044" lon="2.06776">
        <ele>302.8</ele>
        <time>2021-09-05T11:51:16Z</time>
      </trkpt>
      <trkpt lat="44.01049" lon="2.06776">
        <ele>302.6</ele>
        <time>2021-09-05T11:51:17Z</time>
      </trkpt>
      <trkpt lat="44.01053" lon="2.06776">
        <ele>302.6</ele>
        <time>2021-09-05T11:51:18Z</time>
      </trkpt>
      <trkpt lat="44.01067" lon="2.06776">
        <ele>302.2</ele>
        <time>2021-09-05T11:51:21Z</time>
      </trkpt>
      <trkpt lat="44.01089" lon="2.06782">
        <ele>301.2</ele>
        <time>2021-09-05T11:51:25Z</time>
      </trkpt>
      <trkpt lat="44.01097" lon="2.06784">
        <ele>301</ele>
        <time>2021-09-05T11:51:26Z</time>
      </trkpt>
      <trkpt lat="44.01103" lon="2.06786">
        <ele>300.8</ele>
        <time>2021-09-05T11:51:27Z</time>
      </trkpt>
      <trkpt lat="44.01109" lon="2.06787">
        <ele>300.4</ele>
        <time>2021-09-05T11:51:28Z</time>
      </trkpt>
      <trkpt lat="44.01111" lon="2.06787">
        <ele>300.2</ele>
        <time>2021-09-05T11:51:29Z</time>
      </trkpt>
      <trkpt lat="44.01117" lon="2.06788">
        <ele>300</ele>
        <time>2021-09-05T11:51:30Z</time>
      </trkpt>
      <trkpt lat="44.01121" lon="2.0679">
        <ele>300</ele>
        <time>2021-09-05T11:51:31Z</time>
      </trkpt>
      <trkpt lat="44.01126" lon="2.06792">
        <ele>300</ele>
        <time>2021-09-05T11:51:32Z</time>
      </trkpt>
      <trkpt lat="44.01132" lon="2.06795">
        <ele>300</ele>
        <time>2021-09-05T11:51:33Z</time>
      </trkpt>
      <trkpt lat="44.01138" lon="2.06799">
        <ele>300</ele>
        <time>2021-09-05T11:51:34Z</time>
      </trkpt>
      <trkpt lat="44.01144" lon="2.06802">
        <ele>300.2</ele>
        <time>2021-09-05T11:51:35Z</time>
      </trkpt>
      <trkpt lat="44.01154" lon="2.0681">
        <ele>300.4</ele>
        <time>2021-09-05T11:51:38Z</time>
      </trkpt>
      <trkpt lat="44.01158" lon="2.06812">
        <ele>300.4</ele>
        <time>2021-09-05T11:51:39Z</time>
      </trkpt>
      <trkpt lat="44.01163" lon="2.06815">
        <ele>300.6</ele>
        <time>2021-09-05T11:51:40Z</time>
      </trkpt>
      <trkpt lat="44.01167" lon="2.06818">
        <ele>300.8</ele>
        <time>2021-09-05T11:51:41Z</time>
      </trkpt>
      <trkpt lat="44.01176" lon="2.06824">
        <ele>301.2</ele>
        <time>2021-09-05T11:51:43Z</time>
      </trkpt>
      <trkpt lat="44.01178" lon="2.06826">
        <ele>301.2</ele>
        <time>2021-09-05T11:51:44Z</time>
      </trkpt>
      <trkpt lat="44.01187" lon="2.06836">
        <ele>301.8</ele>
        <time>2021-09-05T11:51:47Z</time>
      </trkpt>
      <trkpt lat="44.01191" lon="2.0684">
        <ele>301.8</ele>
        <time>2021-09-05T11:51:48Z</time>
      </trkpt>
      <trkpt lat="44.01194" lon="2.06842">
        <ele>302</ele>
        <time>2021-09-05T11:51:49Z</time>
      </trkpt>
      <trkpt lat="44.01196" lon="2.06844">
        <ele>302</ele>
        <time>2021-09-05T11:51:50Z</time>
      </trkpt>
      <trkpt lat="44.01197" lon="2.06847">
        <ele>302</ele>
        <time>2021-09-05T11:51:51Z</time>
      </trkpt>
      <trkpt lat="44.01199" lon="2.0685">
        <ele>302</ele>
        <time>2021-09-05T11:51:52Z</time>
      </trkpt>
      <trkpt lat="44.01201" lon="2.06852">
        <ele>302</ele>
        <time>2021-09-05T11:51:53Z</time>
      </trkpt>
      <trkpt lat="44.01201" lon="2.06854">
        <ele>301.8</ele>
        <time>2021-09-05T11:51:54Z</time>
      </trkpt>
      <trkpt lat="44.01203" lon="2.06858">
        <ele>301.6</ele>
        <time>2021-09-05T11:51:55Z</time>
      </trkpt>
      <trkpt lat="44.01203" lon="2.06861">
        <ele>301.6</ele>
        <time>2021-09-05T11:51:56Z</time>
      </trkpt>
      <trkpt lat="44.01199" lon="2.06865">
        <ele>301.4</ele>
        <time>2021-09-05T11:51:58Z</time>
      </trkpt>
      <trkpt lat="44.01196" lon="2.06868">
        <ele>301</ele>
        <time>2021-09-05T11:51:59Z</time>
      </trkpt>
      <trkpt lat="44.01193" lon="2.06872">
        <ele>300.8</ele>
        <time>2021-09-05T11:52:00Z</time>
      </trkpt>
      <trkpt lat="44.01186" lon="2.06879">
        <ele>299.6</ele>
        <time>2021-09-05T11:52:02Z</time>
      </trkpt>
      <trkpt lat="44.01184" lon="2.06884">
        <ele>299.4</ele>
        <time>2021-09-05T11:52:03Z</time>
      </trkpt>
      <trkpt lat="44.01182" lon="2.0689">
        <ele>299</ele>
        <time>2021-09-05T11:52:04Z</time>
      </trkpt>
      <trkpt lat="44.01181" lon="2.06895">
        <ele>298.8</ele>
        <time>2021-09-05T11:52:05Z</time>
      </trkpt>
      <trkpt lat="44.01181" lon="2.069">
        <ele>298.6</ele>
        <time>2021-09-05T11:52:06Z</time>
      </trkpt>
      <trkpt lat="44.01182" lon="2.06905">
        <ele>298.4</ele>
        <time>2021-09-05T11:52:07Z</time>
      </trkpt>
      <trkpt lat="44.01183" lon="2.06909">
        <ele>298.4</ele>
        <time>2021-09-05T11:52:08Z</time>
      </trkpt>
      <trkpt lat="44.01183" lon="2.06912">
        <ele>298.2</ele>
        <time>2021-09-05T11:52:09Z</time>
      </trkpt>
      <trkpt lat="44.01184" lon="2.06915">
        <ele>298.2</ele>
        <time>2021-09-05T11:52:10Z</time>
      </trkpt>
      <trkpt lat="44.01184" lon="2.06918">
        <ele>298.2</ele>
        <time>2021-09-05T11:52:11Z</time>
      </trkpt>
      <trkpt lat="44.01184" lon="2.06921">
        <ele>298.2</ele>
        <time>2021-09-05T11:52:12Z</time>
      </trkpt>
      <trkpt lat="44.01186" lon="2.06927">
        <ele>298.4</ele>
        <time>2021-09-05T11:52:14Z</time>
      </trkpt>
      <trkpt lat="44.01187" lon="2.0693">
        <ele>298.4</ele>
        <time>2021-09-05T11:52:15Z</time>
      </trkpt>
      <trkpt lat="44.01188" lon="2.06932">
        <ele>298.4</ele>
        <time>2021-09-05T11:52:16Z</time>
      </trkpt>
      <trkpt lat="44.01189" lon="2.06934">
        <ele>298.6</ele>
        <time>2021-09-05T11:52:17Z</time>
      </trkpt>
      <trkpt lat="44.01191" lon="2.06937">
        <ele>298.6</ele>
        <time>2021-09-05T11:52:18Z</time>
      </trkpt>
      <trkpt lat="44.01192" lon="2.06939">
        <ele>298.8</ele>
        <time>2021-09-05T11:52:19Z</time>
      </trkpt>
      <trkpt lat="44.01192" lon="2.06941">
        <ele>299</ele>
        <time>2021-09-05T11:52:20Z</time>
      </trkpt>
      <trkpt lat="44.01192" lon="2.06942">
        <ele>299.2</ele>
        <time>2021-09-05T11:52:21Z</time>
      </trkpt>
      <trkpt lat="44.01193" lon="2.06945">
        <ele>299.8</ele>
        <time>2021-09-05T11:52:22Z</time>
      </trkpt>
      <trkpt lat="44.01195" lon="2.0695">
        <ele>300</ele>
        <time>2021-09-05T11:52:24Z</time>
      </trkpt>
      <trkpt lat="44.01196" lon="2.06951">
        <ele>300.2</ele>
        <time>2021-09-05T11:52:25Z</time>
      </trkpt>
      <trkpt lat="44.01196" lon="2.06953">
        <ele>300.4</ele>
        <time>2021-09-05T11:52:26Z</time>
      </trkpt>
      <trkpt lat="44.01197" lon="2.06955">
        <ele>300.8</ele>
        <time>2021-09-05T11:52:27Z</time>
      </trkpt>
      <trkpt lat="44.01197" lon="2.06957">
        <ele>300.8</ele>
        <time>2021-09-05T11:52:28Z</time>
      </trkpt>
      <trkpt lat="44.01196" lon="2.06959">
        <ele>301</ele>
        <time>2021-09-05T11:52:29Z</time>
      </trkpt>
      <trkpt lat="44.01196" lon="2.06961">
        <ele>301</ele>
        <time>2021-09-05T11:52:30Z</time>
      </trkpt>
      <trkpt lat="44.01196" lon="2.06964">
        <ele>301.2</ele>
        <time>2021-09-05T11:52:31Z</time>
      </trkpt>
      <trkpt lat="44.01196" lon="2.06966">
        <ele>301.4</ele>
        <time>2021-09-05T11:52:32Z</time>
      </trkpt>
      <trkpt lat="44.01196" lon="2.06967">
        <ele>301.6</ele>
        <time>2021-09-05T11:52:33Z</time>
      </trkpt>
      <trkpt lat="44.01196" lon="2.06969">
        <ele>302</ele>
        <time>2021-09-05T11:52:35Z</time>
      </trkpt>
      <trkpt lat="44.01197" lon="2.06971">
        <ele>302.4</ele>
        <time>2021-09-05T11:52:36Z</time>
      </trkpt>
      <trkpt lat="44.01198" lon="2.06972">
        <ele>302.4</ele>
        <time>2021-09-05T11:52:37Z</time>
      </trkpt>
      <trkpt lat="44.01199" lon="2.06973">
        <ele>302.6</ele>
        <time>2021-09-05T11:52:38Z</time>
      </trkpt>
      <trkpt lat="44.01199" lon="2.06974">
        <ele>302.8</ele>
        <time>2021-09-05T11:52:39Z</time>
      </trkpt>
      <trkpt lat="44.01199" lon="2.06976">
        <ele>302.8</ele>
        <time>2021-09-05T11:52:40Z</time>
      </trkpt>
      <trkpt lat="44.012" lon="2.06977">
        <ele>303</ele>
        <time>2021-09-05T11:52:41Z</time>
      </trkpt>
      <trkpt lat="44.012" lon="2.06978">
        <ele>303</ele>
        <time>2021-09-05T11:52:42Z</time>
      </trkpt>
      <trkpt lat="44.01201" lon="2.0698">
        <ele>303.2</ele>
        <time>2021-09-05T11:52:43Z</time>
      </trkpt>
      <trkpt lat="44.01201" lon="2.06981">
        <ele>303.4</ele>
        <time>2021-09-05T11:52:44Z</time>
      </trkpt>
      <trkpt lat="44.01201" lon="2.06983">
        <ele>303.6</ele>
        <time>2021-09-05T11:52:45Z</time>
      </trkpt>
      <trkpt lat="44.01201" lon="2.06984">
        <ele>303.8</ele>
        <time>2021-09-05T11:52:46Z</time>
      </trkpt>
      <trkpt lat="44.01201" lon="2.06985">
        <ele>304</ele>
        <time>2021-09-05T11:52:47Z</time>
      </trkpt>
      <trkpt lat="44.012" lon="2.06985">
        <ele>304.4</ele>
        <time>2021-09-05T11:52:48Z</time>
      </trkpt>
      <trkpt lat="44.012" lon="2.06986">
        <ele>304.8</ele>
        <time>2021-09-05T11:52:49Z</time>
      </trkpt>
      <trkpt lat="44.01199" lon="2.06987">
        <ele>305</ele>
        <time>2021-09-05T11:52:50Z</time>
      </trkpt>
      <trkpt lat="44.01199" lon="2.06989">
        <ele>305.4</ele>
        <time>2021-09-05T11:52:51Z</time>
      </trkpt>
      <trkpt lat="44.01198" lon="2.06991">
        <ele>305.6</ele>
        <time>2021-09-05T11:52:52Z</time>
      </trkpt>
      <trkpt lat="44.01198" lon="2.06992">
        <ele>306</ele>
        <time>2021-09-05T11:52:53Z</time>
      </trkpt>
      <trkpt lat="44.01198" lon="2.06994">
        <ele>306.2</ele>
        <time>2021-09-05T11:52:54Z</time>
      </trkpt>
      <trkpt lat="44.01198" lon="2.06995">
        <ele>306.4</ele>
        <time>2021-09-05T11:52:55Z</time>
      </trkpt>
      <trkpt lat="44.01198" lon="2.06997">
        <ele>306.8</ele>
        <time>2021-09-05T11:52:56Z</time>
      </trkpt>
      <trkpt lat="44.01198" lon="2.06999">
        <ele>306.8</ele>
        <time>2021-09-05T11:52:57Z</time>
      </trkpt>
      <trkpt lat="44.01198" lon="2.07001">
        <ele>307</ele>
        <time>2021-09-05T11:52:58Z</time>
      </trkpt>
      <trkpt lat="44.01197" lon="2.07002">
        <ele>307</ele>
        <time>2021-09-05T11:52:59Z</time>
      </trkpt>
      <trkpt lat="44.01197" lon="2.07003">
        <ele>307.4</ele>
        <time>2021-09-05T11:53:00Z</time>
      </trkpt>
      <trkpt lat="44.01197" lon="2.07005">
        <ele>307.6</ele>
        <time>2021-09-05T11:53:01Z</time>
      </trkpt>
      <trkpt lat="44.01196" lon="2.07006">
        <ele>307.6</ele>
        <time>2021-09-05T11:53:02Z</time>
      </trkpt>
      <trkpt lat="44.01196" lon="2.07007">
        <ele>307.8</ele>
        <time>2021-09-05T11:53:03Z</time>
      </trkpt>
      <trkpt lat="44.01195" lon="2.07008">
        <ele>308</ele>
        <time>2021-09-05T11:53:04Z</time>
      </trkpt>
      <trkpt lat="44.01195" lon="2.07009">
        <ele>308.6</ele>
        <time>2021-09-05T11:53:05Z</time>
      </trkpt>
      <trkpt lat="44.01194" lon="2.07011">
        <ele>308.8</ele>
        <time>2021-09-05T11:53:06Z</time>
      </trkpt>
      <trkpt lat="44.01194" lon="2.07012">
        <ele>309</ele>
        <time>2021-09-05T11:53:07Z</time>
      </trkpt>
      <trkpt lat="44.01192" lon="2.07013">
        <ele>309.2</ele>
        <time>2021-09-05T11:53:08Z</time>
      </trkpt>
      <trkpt lat="44.01191" lon="2.07014">
        <ele>309.4</ele>
        <time>2021-09-05T11:53:09Z</time>
      </trkpt>
      <trkpt lat="44.0119" lon="2.07015">
        <ele>309.8</ele>
        <time>2021-09-05T11:53:10Z</time>
      </trkpt>
      <trkpt lat="44.01189" lon="2.07016">
        <ele>309.8</ele>
        <time>2021-09-05T11:53:11Z</time>
      </trkpt>
      <trkpt lat="44.01188" lon="2.07018">
        <ele>310</ele>
        <time>2021-09-05T11:53:12Z</time>
      </trkpt>
      <trkpt lat="44.01187" lon="2.07018">
        <ele>310.2</ele>
        <time>2021-09-05T11:53:13Z</time>
      </trkpt>
      <trkpt lat="44.01186" lon="2.07019">
        <ele>310.4</ele>
        <time>2021-09-05T11:53:14Z</time>
      </trkpt>
      <trkpt lat="44.01185" lon="2.0702">
        <ele>310.4</ele>
        <time>2021-09-05T11:53:15Z</time>
      </trkpt>
      <trkpt lat="44.01184" lon="2.07021">
        <ele>310.6</ele>
        <time>2021-09-05T11:53:16Z</time>
      </trkpt>
      <trkpt lat="44.01182" lon="2.07021">
        <ele>310.8</ele>
        <time>2021-09-05T11:53:17Z</time>
      </trkpt>
      <trkpt lat="44.01182" lon="2.07023">
        <ele>311</ele>
        <time>2021-09-05T11:53:18Z</time>
      </trkpt>
      <trkpt lat="44.01181" lon="2.07025">
        <ele>311.2</ele>
        <time>2021-09-05T11:53:19Z</time>
      </trkpt>
      <trkpt lat="44.0118" lon="2.07026">
        <ele>311.4</ele>
        <time>2021-09-05T11:53:20Z</time>
      </trkpt>
      <trkpt lat="44.01178" lon="2.07027">
        <ele>311.8</ele>
        <time>2021-09-05T11:53:21Z</time>
      </trkpt>
      <trkpt lat="44.01177" lon="2.07029">
        <ele>311.8</ele>
        <time>2021-09-05T11:53:22Z</time>
      </trkpt>
      <trkpt lat="44.01176" lon="2.07031">
        <ele>312</ele>
        <time>2021-09-05T11:53:23Z</time>
      </trkpt>
      <trkpt lat="44.01176" lon="2.07031">
        <ele>312</ele>
        <time>2021-09-05T11:53:24Z</time>
      </trkpt>
      <trkpt lat="44.01175" lon="2.07031">
        <ele>312.2</ele>
        <time>2021-09-05T11:53:25Z</time>
      </trkpt>
      <trkpt lat="44.01174" lon="2.07031">
        <ele>312.4</ele>
        <time>2021-09-05T11:53:26Z</time>
      </trkpt>
      <trkpt lat="44.01172" lon="2.07031">
        <ele>312.4</ele>
        <time>2021-09-05T11:53:27Z</time>
      </trkpt>
      <trkpt lat="44.01171" lon="2.07031">
        <ele>312.6</ele>
        <time>2021-09-05T11:53:28Z</time>
      </trkpt>
      <trkpt lat="44.0117" lon="2.07031">
        <ele>312.6</ele>
        <time>2021-09-05T11:53:29Z</time>
      </trkpt>
      <trkpt lat="44.01168" lon="2.07031">
        <ele>312.8</ele>
        <time>2021-09-05T11:53:30Z</time>
      </trkpt>
      <trkpt lat="44.01167" lon="2.07031">
        <ele>313</ele>
        <time>2021-09-05T11:53:31Z</time>
      </trkpt>
      <trkpt lat="44.01165" lon="2.07031">
        <ele>313.4</ele>
        <time>2021-09-05T11:53:32Z</time>
      </trkpt>
      <trkpt lat="44.01164" lon="2.0703">
        <ele>313.6</ele>
        <time>2021-09-05T11:53:33Z</time>
      </trkpt>
      <trkpt lat="44.01162" lon="2.0703">
        <ele>313.8</ele>
        <time>2021-09-05T11:53:34Z</time>
      </trkpt>
      <trkpt lat="44.0116" lon="2.0703">
        <ele>314</ele>
        <time>2021-09-05T11:53:35Z</time>
      </trkpt>
      <trkpt lat="44.01159" lon="2.0703">
        <ele>314.2</ele>
        <time>2021-09-05T11:53:36Z</time>
      </trkpt>
      <trkpt lat="44.01158" lon="2.07031">
        <ele>314.4</ele>
        <time>2021-09-05T11:53:37Z</time>
      </trkpt>
      <trkpt lat="44.01157" lon="2.07032">
        <ele>314.2</ele>
        <time>2021-09-05T11:53:38Z</time>
      </trkpt>
      <trkpt lat="44.01156" lon="2.07033">
        <ele>314.6</ele>
        <time>2021-09-05T11:53:39Z</time>
      </trkpt>
      <trkpt lat="44.01155" lon="2.07034">
        <ele>314.6</ele>
        <time>2021-09-05T11:53:40Z</time>
      </trkpt>
      <trkpt lat="44.01154" lon="2.07035">
        <ele>315</ele>
        <time>2021-09-05T11:53:41Z</time>
      </trkpt>
      <trkpt lat="44.01153" lon="2.07036">
        <ele>315</ele>
        <time>2021-09-05T11:53:42Z</time>
      </trkpt>
      <trkpt lat="44.01152" lon="2.07037">
        <ele>315.2</ele>
        <time>2021-09-05T11:53:43Z</time>
      </trkpt>
      <trkpt lat="44.01151" lon="2.07038">
        <ele>315.4</ele>
        <time>2021-09-05T11:53:44Z</time>
      </trkpt>
      <trkpt lat="44.0115" lon="2.0704">
        <ele>315.6</ele>
        <time>2021-09-05T11:53:45Z</time>
      </trkpt>
      <trkpt lat="44.01149" lon="2.07041">
        <ele>315.8</ele>
        <time>2021-09-05T11:53:46Z</time>
      </trkpt>
      <trkpt lat="44.01148" lon="2.07042">
        <ele>315.8</ele>
        <time>2021-09-05T11:53:47Z</time>
      </trkpt>
      <trkpt lat="44.01147" lon="2.07043">
        <ele>316</ele>
        <time>2021-09-05T11:53:48Z</time>
      </trkpt>
      <trkpt lat="44.01145" lon="2.07044">
        <ele>316.2</ele>
        <time>2021-09-05T11:53:49Z</time>
      </trkpt>
      <trkpt lat="44.01144" lon="2.07046">
        <ele>316.2</ele>
        <time>2021-09-05T11:53:50Z</time>
      </trkpt>
      <trkpt lat="44.01143" lon="2.07047">
        <ele>316.4</ele>
        <time>2021-09-05T11:53:51Z</time>
      </trkpt>
      <trkpt lat="44.01142" lon="2.07049">
        <ele>316.4</ele>
        <time>2021-09-05T11:53:52Z</time>
      </trkpt>
      <trkpt lat="44.01142" lon="2.07051">
        <ele>316.8</ele>
        <time>2021-09-05T11:53:53Z</time>
      </trkpt>
      <trkpt lat="44.01141" lon="2.07052">
        <ele>317</ele>
        <time>2021-09-05T11:53:54Z</time>
      </trkpt>
      <trkpt lat="44.0114" lon="2.07054">
        <ele>317.2</ele>
        <time>2021-09-05T11:53:55Z</time>
      </trkpt>
      <trkpt lat="44.01138" lon="2.07056">
        <ele>317.2</ele>
        <time>2021-09-05T11:53:56Z</time>
      </trkpt>
      <trkpt lat="44.01137" lon="2.07058">
        <ele>317.2</ele>
        <time>2021-09-05T11:53:57Z</time>
      </trkpt>
      <trkpt lat="44.01136" lon="2.0706">
        <ele>317.4</ele>
        <time>2021-09-05T11:53:58Z</time>
      </trkpt>
      <trkpt lat="44.01135" lon="2.07062">
        <ele>317.4</ele>
        <time>2021-09-05T11:53:59Z</time>
      </trkpt>
      <trkpt lat="44.01134" lon="2.07064">
        <ele>317.6</ele>
        <time>2021-09-05T11:54:00Z</time>
      </trkpt>
      <trkpt lat="44.01132" lon="2.07067">
        <ele>317.6</ele>
        <time>2021-09-05T11:54:01Z</time>
      </trkpt>
      <trkpt lat="44.01132" lon="2.07069">
        <ele>317.8</ele>
        <time>2021-09-05T11:54:02Z</time>
      </trkpt>
      <trkpt lat="44.01131" lon="2.07071">
        <ele>317.8</ele>
        <time>2021-09-05T11:54:03Z</time>
      </trkpt>
      <trkpt lat="44.0113" lon="2.07074">
        <ele>317.8</ele>
        <time>2021-09-05T11:54:04Z</time>
      </trkpt>
      <trkpt lat="44.0113" lon="2.07076">
        <ele>317.8</ele>
        <time>2021-09-05T11:54:05Z</time>
      </trkpt>
      <trkpt lat="44.01129" lon="2.0708">
        <ele>317.8</ele>
        <time>2021-09-05T11:54:06Z</time>
      </trkpt>
      <trkpt lat="44.01128" lon="2.07082">
        <ele>317.8</ele>
        <time>2021-09-05T11:54:07Z</time>
      </trkpt>
      <trkpt lat="44.01128" lon="2.07086">
        <ele>317.8</ele>
        <time>2021-09-05T11:54:08Z</time>
      </trkpt>
      <trkpt lat="44.01127" lon="2.07088">
        <ele>317.8</ele>
        <time>2021-09-05T11:54:09Z</time>
      </trkpt>
      <trkpt lat="44.01127" lon="2.07091">
        <ele>317.8</ele>
        <time>2021-09-05T11:54:10Z</time>
      </trkpt>
      <trkpt lat="44.01126" lon="2.07094">
        <ele>318</ele>
        <time>2021-09-05T11:54:11Z</time>
      </trkpt>
      <trkpt lat="44.01126" lon="2.07097">
        <ele>318</ele>
        <time>2021-09-05T11:54:12Z</time>
      </trkpt>
      <trkpt lat="44.01126" lon="2.071">
        <ele>318</ele>
        <time>2021-09-05T11:54:13Z</time>
      </trkpt>
      <trkpt lat="44.01124" lon="2.07109">
        <ele>318.2</ele>
        <time>2021-09-05T11:54:16Z</time>
      </trkpt>
      <trkpt lat="44.01123" lon="2.07111">
        <ele>318.2</ele>
        <time>2021-09-05T11:54:17Z</time>
      </trkpt>
      <trkpt lat="44.01122" lon="2.07113">
        <ele>318.4</ele>
        <time>2021-09-05T11:54:18Z</time>
      </trkpt>
      <trkpt lat="44.01121" lon="2.07114">
        <ele>318.4</ele>
        <time>2021-09-05T11:54:19Z</time>
      </trkpt>
      <trkpt lat="44.0112" lon="2.07115">
        <ele>318.4</ele>
        <time>2021-09-05T11:54:20Z</time>
      </trkpt>
      <trkpt lat="44.01118" lon="2.07116">
        <ele>318.4</ele>
        <time>2021-09-05T11:54:21Z</time>
      </trkpt>
      <trkpt lat="44.01117" lon="2.07117">
        <ele>318.6</ele>
        <time>2021-09-05T11:54:22Z</time>
      </trkpt>
      <trkpt lat="44.01114" lon="2.07119">
        <ele>318.6</ele>
        <time>2021-09-05T11:54:24Z</time>
      </trkpt>
      <trkpt lat="44.01108" lon="2.07123">
        <ele>318.8</ele>
        <time>2021-09-05T11:54:28Z</time>
      </trkpt>
      <trkpt lat="44.01107" lon="2.07124">
        <ele>318.8</ele>
        <time>2021-09-05T11:54:29Z</time>
      </trkpt>
      <trkpt lat="44.01104" lon="2.07125">
        <ele>318.8</ele>
        <time>2021-09-05T11:54:31Z</time>
      </trkpt>
      <trkpt lat="44.01103" lon="2.07126">
        <ele>318.8</ele>
        <time>2021-09-05T11:54:32Z</time>
      </trkpt>
      <trkpt lat="44.01092" lon="2.07131">
        <ele>318.8</ele>
        <time>2021-09-05T11:54:38Z</time>
      </trkpt>
      <trkpt lat="44.01087" lon="2.07135">
        <ele>318.6</ele>
        <time>2021-09-05T11:54:41Z</time>
      </trkpt>
      <trkpt lat="44.01086" lon="2.07136">
        <ele>318.4</ele>
        <time>2021-09-05T11:54:42Z</time>
      </trkpt>
      <trkpt lat="44.01084" lon="2.07137">
        <ele>318.4</ele>
        <time>2021-09-05T11:54:43Z</time>
      </trkpt>
      <trkpt lat="44.01082" lon="2.07138">
        <ele>318.4</ele>
        <time>2021-09-05T11:54:44Z</time>
      </trkpt>
      <trkpt lat="44.0108" lon="2.07139">
        <ele>318.2</ele>
        <time>2021-09-05T11:54:45Z</time>
      </trkpt>
      <trkpt lat="44.0108" lon="2.0714">
        <ele>318.2</ele>
        <time>2021-09-05T11:54:46Z</time>
      </trkpt>
      <trkpt lat="44.01078" lon="2.07142">
        <ele>318.2</ele>
        <time>2021-09-05T11:54:47Z</time>
      </trkpt>
      <trkpt lat="44.01077" lon="2.07144">
        <ele>318.2</ele>
        <time>2021-09-05T11:54:48Z</time>
      </trkpt>
      <trkpt lat="44.01075" lon="2.07144">
        <ele>318.2</ele>
        <time>2021-09-05T11:54:49Z</time>
      </trkpt>
      <trkpt lat="44.01074" lon="2.07145">
        <ele>318.2</ele>
        <time>2021-09-05T11:54:50Z</time>
      </trkpt>
      <trkpt lat="44.01071" lon="2.07152">
        <ele>318.2</ele>
        <time>2021-09-05T11:54:53Z</time>
      </trkpt>
      <trkpt lat="44.0107" lon="2.07154">
        <ele>318.2</ele>
        <time>2021-09-05T11:54:54Z</time>
      </trkpt>
      <trkpt lat="44.01069" lon="2.07157">
        <ele>318.2</ele>
        <time>2021-09-05T11:54:55Z</time>
      </trkpt>
      <trkpt lat="44.01062" lon="2.07181">
        <ele>318</ele>
        <time>2021-09-05T11:55:02Z</time>
      </trkpt>
      <trkpt lat="44.01057" lon="2.07189">
        <ele>317.8</ele>
        <time>2021-09-05T11:55:04Z</time>
      </trkpt>
      <trkpt lat="44.01048" lon="2.07198">
        <ele>317.8</ele>
        <time>2021-09-05T11:55:07Z</time>
      </trkpt>
      <trkpt lat="44.01045" lon="2.072">
        <ele>317.8</ele>
        <time>2021-09-05T11:55:08Z</time>
      </trkpt>
      <trkpt lat="44.01034" lon="2.07208">
        <ele>317.6</ele>
        <time>2021-09-05T11:55:11Z</time>
      </trkpt>
      <trkpt lat="44.01026" lon="2.07211">
        <ele>317.4</ele>
        <time>2021-09-05T11:55:13Z</time>
      </trkpt>
      <trkpt lat="44.01022" lon="2.07211">
        <ele>317.2</ele>
        <time>2021-09-05T11:55:14Z</time>
      </trkpt>
      <trkpt lat="44.01019" lon="2.07211">
        <ele>317</ele>
        <time>2021-09-05T11:55:15Z</time>
      </trkpt>
      <trkpt lat="44.01016" lon="2.0721">
        <ele>317</ele>
        <time>2021-09-05T11:55:16Z</time>
      </trkpt>
      <trkpt lat="44.01012" lon="2.07208">
        <ele>316.8</ele>
        <time>2021-09-05T11:55:17Z</time>
      </trkpt>
      <trkpt lat="44.01009" lon="2.07206">
        <ele>316.8</ele>
        <time>2021-09-05T11:55:18Z</time>
      </trkpt>
      <trkpt lat="44.01006" lon="2.07205">
        <ele>316.6</ele>
        <time>2021-09-05T11:55:19Z</time>
      </trkpt>
      <trkpt lat="44.01003" lon="2.07204">
        <ele>316.6</ele>
        <time>2021-09-05T11:55:20Z</time>
      </trkpt>
      <trkpt lat="44.01" lon="2.07203">
        <ele>316.6</ele>
        <time>2021-09-05T11:55:21Z</time>
      </trkpt>
      <trkpt lat="44.00998" lon="2.07203">
        <ele>316.6</ele>
        <time>2021-09-05T11:55:22Z</time>
      </trkpt>
      <trkpt lat="44.00997" lon="2.07204">
        <ele>316.6</ele>
        <time>2021-09-05T11:55:23Z</time>
      </trkpt>
      <trkpt lat="44.00996" lon="2.07205">
        <ele>316.6</ele>
        <time>2021-09-05T11:55:24Z</time>
      </trkpt>
      <trkpt lat="44.00995" lon="2.07206">
        <ele>316.6</ele>
        <time>2021-09-05T11:55:25Z</time>
      </trkpt>
      <trkpt lat="44.00993" lon="2.07207">
        <ele>316.6</ele>
        <time>2021-09-05T11:55:26Z</time>
      </trkpt>
      <trkpt lat="44.00992" lon="2.07208">
        <ele>316.6</ele>
        <time>2021-09-05T11:55:27Z</time>
      </trkpt>
      <trkpt lat="44.0099" lon="2.07209">
        <ele>316.8</ele>
        <time>2021-09-05T11:55:28Z</time>
      </trkpt>
      <trkpt lat="44.00989" lon="2.07209">
        <ele>316.8</ele>
        <time>2021-09-05T11:55:29Z</time>
      </trkpt>
      <trkpt lat="44.00983" lon="2.07211">
        <ele>317</ele>
        <time>2021-09-05T11:55:32Z</time>
      </trkpt>
      <trkpt lat="44.00972" lon="2.07216">
        <ele>317.8</ele>
        <time>2021-09-05T11:55:37Z</time>
      </trkpt>
      <trkpt lat="44.00966" lon="2.07217">
        <ele>318</ele>
        <time>2021-09-05T11:55:40Z</time>
      </trkpt>
      <trkpt lat="44.00956" lon="2.07221">
        <ele>318</ele>
        <time>2021-09-05T11:55:43Z</time>
      </trkpt>
      <trkpt lat="44.0095" lon="2.07224">
        <ele>318</ele>
        <time>2021-09-05T11:55:45Z</time>
      </trkpt>
      <trkpt lat="44.00943" lon="2.07227">
        <ele>318</ele>
        <time>2021-09-05T11:55:47Z</time>
      </trkpt>
      <trkpt lat="44.0094" lon="2.07229">
        <ele>318</ele>
        <time>2021-09-05T11:55:48Z</time>
      </trkpt>
      <trkpt lat="44.00937" lon="2.07231">
        <ele>317.8</ele>
        <time>2021-09-05T11:55:49Z</time>
      </trkpt>
      <trkpt lat="44.00935" lon="2.07232">
        <ele>317.6</ele>
        <time>2021-09-05T11:55:50Z</time>
      </trkpt>
      <trkpt lat="44.00933" lon="2.07235">
        <ele>317.4</ele>
        <time>2021-09-05T11:55:51Z</time>
      </trkpt>
      <trkpt lat="44.00931" lon="2.07237">
        <ele>317.4</ele>
        <time>2021-09-05T11:55:52Z</time>
      </trkpt>
      <trkpt lat="44.0093" lon="2.0724">
        <ele>317.2</ele>
        <time>2021-09-05T11:55:53Z</time>
      </trkpt>
      <trkpt lat="44.0093" lon="2.07243">
        <ele>317.2</ele>
        <time>2021-09-05T11:55:54Z</time>
      </trkpt>
      <trkpt lat="44.00931" lon="2.07245">
        <ele>317.4</ele>
        <time>2021-09-05T11:55:55Z</time>
      </trkpt>
      <trkpt lat="44.00931" lon="2.07247">
        <ele>317.2</ele>
        <time>2021-09-05T11:55:56Z</time>
      </trkpt>
      <trkpt lat="44.00931" lon="2.07247">
        <ele>317</ele>
        <time>2021-09-05T11:57:28Z</time>
      </trkpt>
      <trkpt lat="44.00933" lon="2.0725">
        <ele>317</ele>
        <time>2021-09-05T11:57:30Z</time>
      </trkpt>
      <trkpt lat="44.00934" lon="2.07252">
        <ele>317</ele>
        <time>2021-09-05T11:57:31Z</time>
      </trkpt>
      <trkpt lat="44.00935" lon="2.07254">
        <ele>317</ele>
        <time>2021-09-05T11:57:32Z</time>
      </trkpt>
      <trkpt lat="44.00936" lon="2.07256">
        <ele>317</ele>
        <time>2021-09-05T11:57:33Z</time>
      </trkpt>
      <trkpt lat="44.00939" lon="2.07271">
        <ele>317.2</ele>
        <time>2021-09-05T11:57:38Z</time>
      </trkpt>
      <trkpt lat="44.0094" lon="2.07277">
        <ele>317.2</ele>
        <time>2021-09-05T11:57:40Z</time>
      </trkpt>
      <trkpt lat="44.00942" lon="2.07291">
        <ele>317.4</ele>
        <time>2021-09-05T11:57:44Z</time>
      </trkpt>
      <trkpt lat="44.00941" lon="2.07309">
        <ele>317.4</ele>
        <time>2021-09-05T11:57:49Z</time>
      </trkpt>
      <trkpt lat="44.00936" lon="2.0733">
        <ele>317.8</ele>
        <time>2021-09-05T11:57:55Z</time>
      </trkpt>
      <trkpt lat="44.00934" lon="2.0734">
        <ele>317.8</ele>
        <time>2021-09-05T11:57:57Z</time>
      </trkpt>
      <trkpt lat="44.00928" lon="2.07349">
        <ele>317.8</ele>
        <time>2021-09-05T11:57:59Z</time>
      </trkpt>
      <trkpt lat="44.00923" lon="2.07353">
        <ele>317.8</ele>
        <time>2021-09-05T11:58:00Z</time>
      </trkpt>
      <trkpt lat="44.00917" lon="2.07356">
        <ele>317.6</ele>
        <time>2021-09-05T11:58:01Z</time>
      </trkpt>
      <trkpt lat="44.00911" lon="2.07358">
        <ele>317.4</ele>
        <time>2021-09-05T11:58:02Z</time>
      </trkpt>
      <trkpt lat="44.00904" lon="2.07358">
        <ele>316.4</ele>
        <time>2021-09-05T11:58:03Z</time>
      </trkpt>
      <trkpt lat="44.009" lon="2.0736">
        <ele>315.4</ele>
        <time>2021-09-05T11:58:04Z</time>
      </trkpt>
      <trkpt lat="44.00895" lon="2.07359">
        <ele>315</ele>
        <time>2021-09-05T11:58:05Z</time>
      </trkpt>
      <trkpt lat="44.00893" lon="2.07358">
        <ele>314.6</ele>
        <time>2021-09-05T11:58:06Z</time>
      </trkpt>
      <trkpt lat="44.0089" lon="2.07355">
        <ele>314.4</ele>
        <time>2021-09-05T11:58:07Z</time>
      </trkpt>
      <trkpt lat="44.00887" lon="2.07353">
        <ele>314</ele>
        <time>2021-09-05T11:58:08Z</time>
      </trkpt>
      <trkpt lat="44.00884" lon="2.07349">
        <ele>314</ele>
        <time>2021-09-05T11:58:09Z</time>
      </trkpt>
      <trkpt lat="44.00875" lon="2.07336">
        <ele>313.2</ele>
        <time>2021-09-05T11:58:12Z</time>
      </trkpt>
      <trkpt lat="44.00872" lon="2.07333">
        <ele>312.4</ele>
        <time>2021-09-05T11:58:13Z</time>
      </trkpt>
      <trkpt lat="44.00867" lon="2.07331">
        <ele>312</ele>
        <time>2021-09-05T11:58:14Z</time>
      </trkpt>
      <trkpt lat="44.00863" lon="2.0733">
        <ele>311.4</ele>
        <time>2021-09-05T11:58:15Z</time>
      </trkpt>
      <trkpt lat="44.00859" lon="2.07331">
        <ele>311.2</ele>
        <time>2021-09-05T11:58:16Z</time>
      </trkpt>
      <trkpt lat="44.00856" lon="2.07332">
        <ele>310.6</ele>
        <time>2021-09-05T11:58:17Z</time>
      </trkpt>
      <trkpt lat="44.00852" lon="2.07333">
        <ele>310.4</ele>
        <time>2021-09-05T11:58:18Z</time>
      </trkpt>
      <trkpt lat="44.00849" lon="2.07333">
        <ele>309.2</ele>
        <time>2021-09-05T11:58:19Z</time>
      </trkpt>
      <trkpt lat="44.0084" lon="2.07332">
        <ele>308.2</ele>
        <time>2021-09-05T11:58:21Z</time>
      </trkpt>
      <trkpt lat="44.00836" lon="2.0733">
        <ele>307.6</ele>
        <time>2021-09-05T11:58:22Z</time>
      </trkpt>
      <trkpt lat="44.00831" lon="2.07329">
        <ele>307.2</ele>
        <time>2021-09-05T11:58:23Z</time>
      </trkpt>
      <trkpt lat="44.00825" lon="2.07326">
        <ele>306.6</ele>
        <time>2021-09-05T11:58:24Z</time>
      </trkpt>
      <trkpt lat="44.0082" lon="2.07323">
        <ele>306.4</ele>
        <time>2021-09-05T11:58:25Z</time>
      </trkpt>
      <trkpt lat="44.00814" lon="2.07321">
        <ele>305.8</ele>
        <time>2021-09-05T11:58:26Z</time>
      </trkpt>
      <trkpt lat="44.00807" lon="2.0732">
        <ele>305.2</ele>
        <time>2021-09-05T11:58:27Z</time>
      </trkpt>
      <trkpt lat="44.00799" lon="2.0732">
        <ele>304.2</ele>
        <time>2021-09-05T11:58:28Z</time>
      </trkpt>
      <trkpt lat="44.00792" lon="2.0732">
        <ele>303</ele>
        <time>2021-09-05T11:58:29Z</time>
      </trkpt>
      <trkpt lat="44.00786" lon="2.07322">
        <ele>302.6</ele>
        <time>2021-09-05T11:58:30Z</time>
      </trkpt>
      <trkpt lat="44.0078" lon="2.07322">
        <ele>302.2</ele>
        <time>2021-09-05T11:58:31Z</time>
      </trkpt>
      <trkpt lat="44.00775" lon="2.07321">
        <ele>302</ele>
        <time>2021-09-05T11:58:32Z</time>
      </trkpt>
      <trkpt lat="44.00769" lon="2.07317">
        <ele>301.4</ele>
        <time>2021-09-05T11:58:33Z</time>
      </trkpt>
      <trkpt lat="44.00766" lon="2.07314">
        <ele>300.8</ele>
        <time>2021-09-05T11:58:34Z</time>
      </trkpt>
      <trkpt lat="44.00763" lon="2.0731">
        <ele>300.4</ele>
        <time>2021-09-05T11:58:35Z</time>
      </trkpt>
      <trkpt lat="44.0076" lon="2.07306">
        <ele>300.2</ele>
        <time>2021-09-05T11:58:36Z</time>
      </trkpt>
      <trkpt lat="44.00759" lon="2.07303">
        <ele>300</ele>
        <time>2021-09-05T11:58:37Z</time>
      </trkpt>
      <trkpt lat="44.00756" lon="2.073">
        <ele>300</ele>
        <time>2021-09-05T11:58:38Z</time>
      </trkpt>
      <trkpt lat="44.00755" lon="2.07299">
        <ele>300</ele>
        <time>2021-09-05T11:58:39Z</time>
      </trkpt>
      <trkpt lat="44.00754" lon="2.07297">
        <ele>300.2</ele>
        <time>2021-09-05T11:58:40Z</time>
      </trkpt>
      <trkpt lat="44.00752" lon="2.07295">
        <ele>300.4</ele>
        <time>2021-09-05T11:58:41Z</time>
      </trkpt>
      <trkpt lat="44.00751" lon="2.07293">
        <ele>300.8</ele>
        <time>2021-09-05T11:58:42Z</time>
      </trkpt>
      <trkpt lat="44.0075" lon="2.07291">
        <ele>300.8</ele>
        <time>2021-09-05T11:58:43Z</time>
      </trkpt>
      <trkpt lat="44.00746" lon="2.07288">
        <ele>301.4</ele>
        <time>2021-09-05T11:58:45Z</time>
      </trkpt>
      <trkpt lat="44.00745" lon="2.07286">
        <ele>301.6</ele>
        <time>2021-09-05T11:58:46Z</time>
      </trkpt>
      <trkpt lat="44.00744" lon="2.07285">
        <ele>301.8</ele>
        <time>2021-09-05T11:58:47Z</time>
      </trkpt>
      <trkpt lat="44.00743" lon="2.07283">
        <ele>302</ele>
        <time>2021-09-05T11:58:48Z</time>
      </trkpt>
      <trkpt lat="44.00739" lon="2.0728">
        <ele>302.6</ele>
        <time>2021-09-05T11:58:50Z</time>
      </trkpt>
      <trkpt lat="44.00733" lon="2.07276">
        <ele>304</ele>
        <time>2021-09-05T11:58:54Z</time>
      </trkpt>
      <trkpt lat="44.00732" lon="2.07274">
        <ele>304.2</ele>
        <time>2021-09-05T11:58:55Z</time>
      </trkpt>
      <trkpt lat="44.0073" lon="2.07272">
        <ele>304.6</ele>
        <time>2021-09-05T11:58:56Z</time>
      </trkpt>
      <trkpt lat="44.00729" lon="2.07271">
        <ele>304.8</ele>
        <time>2021-09-05T11:58:57Z</time>
      </trkpt>
      <trkpt lat="44.00728" lon="2.0727">
        <ele>305.2</ele>
        <time>2021-09-05T11:58:58Z</time>
      </trkpt>
      <trkpt lat="44.00727" lon="2.07269">
        <ele>305.4</ele>
        <time>2021-09-05T11:58:59Z</time>
      </trkpt>
      <trkpt lat="44.00726" lon="2.07269">
        <ele>305.8</ele>
        <time>2021-09-05T11:59:00Z</time>
      </trkpt>
      <trkpt lat="44.00725" lon="2.07269">
        <ele>306.2</ele>
        <time>2021-09-05T11:59:01Z</time>
      </trkpt>
      <trkpt lat="44.00724" lon="2.07268">
        <ele>306.6</ele>
        <time>2021-09-05T11:59:02Z</time>
      </trkpt>
      <trkpt lat="44.00722" lon="2.07268">
        <ele>306.8</ele>
        <time>2021-09-05T11:59:03Z</time>
      </trkpt>
      <trkpt lat="44.00721" lon="2.07267">
        <ele>306.8</ele>
        <time>2021-09-05T11:59:04Z</time>
      </trkpt>
      <trkpt lat="44.0072" lon="2.07267">
        <ele>307.2</ele>
        <time>2021-09-05T11:59:05Z</time>
      </trkpt>
      <trkpt lat="44.00719" lon="2.07266">
        <ele>307.2</ele>
        <time>2021-09-05T11:59:06Z</time>
      </trkpt>
      <trkpt lat="44.00718" lon="2.07265">
        <ele>307.8</ele>
        <time>2021-09-05T11:59:07Z</time>
      </trkpt>
      <trkpt lat="44.00717" lon="2.07264">
        <ele>308.2</ele>
        <time>2021-09-05T11:59:08Z</time>
      </trkpt>
      <trkpt lat="44.00716" lon="2.07264">
        <ele>308.2</ele>
        <time>2021-09-05T11:59:09Z</time>
      </trkpt>
      <trkpt lat="44.00715" lon="2.07263">
        <ele>308.8</ele>
        <time>2021-09-05T11:59:10Z</time>
      </trkpt>
      <trkpt lat="44.00714" lon="2.07262">
        <ele>308.8</ele>
        <time>2021-09-05T11:59:11Z</time>
      </trkpt>
      <trkpt lat="44.00712" lon="2.07261">
        <ele>309.4</ele>
        <time>2021-09-05T11:59:12Z</time>
      </trkpt>
      <trkpt lat="44.00711" lon="2.07261">
        <ele>309.6</ele>
        <time>2021-09-05T11:59:13Z</time>
      </trkpt>
      <trkpt lat="44.0071" lon="2.0726">
        <ele>310</ele>
        <time>2021-09-05T11:59:14Z</time>
      </trkpt>
      <trkpt lat="44.00709" lon="2.07259">
        <ele>310.2</ele>
        <time>2021-09-05T11:59:15Z</time>
      </trkpt>
      <trkpt lat="44.00708" lon="2.07258">
        <ele>310.6</ele>
        <time>2021-09-05T11:59:16Z</time>
      </trkpt>
      <trkpt lat="44.00707" lon="2.07257">
        <ele>311</ele>
        <time>2021-09-05T11:59:17Z</time>
      </trkpt>
      <trkpt lat="44.00705" lon="2.07256">
        <ele>311.2</ele>
        <time>2021-09-05T11:59:18Z</time>
      </trkpt>
      <trkpt lat="44.00704" lon="2.07255">
        <ele>311.4</ele>
        <time>2021-09-05T11:59:19Z</time>
      </trkpt>
      <trkpt lat="44.00703" lon="2.07255">
        <ele>311.6</ele>
        <time>2021-09-05T11:59:20Z</time>
      </trkpt>
      <trkpt lat="44.00702" lon="2.07254">
        <ele>311.8</ele>
        <time>2021-09-05T11:59:21Z</time>
      </trkpt>
      <trkpt lat="44.007" lon="2.07254">
        <ele>312</ele>
        <time>2021-09-05T11:59:22Z</time>
      </trkpt>
      <trkpt lat="44.00699" lon="2.07253">
        <ele>312.2</ele>
        <time>2021-09-05T11:59:23Z</time>
      </trkpt>
      <trkpt lat="44.00697" lon="2.07253">
        <ele>312.8</ele>
        <time>2021-09-05T11:59:24Z</time>
      </trkpt>
      <trkpt lat="44.00696" lon="2.07252">
        <ele>312.8</ele>
        <time>2021-09-05T11:59:25Z</time>
      </trkpt>
      <trkpt lat="44.00695" lon="2.0725">
        <ele>313.2</ele>
        <time>2021-09-05T11:59:26Z</time>
      </trkpt>
      <trkpt lat="44.00694" lon="2.0725">
        <ele>313.2</ele>
        <time>2021-09-05T11:59:27Z</time>
      </trkpt>
      <trkpt lat="44.00693" lon="2.07249">
        <ele>313.4</ele>
        <time>2021-09-05T11:59:28Z</time>
      </trkpt>
      <trkpt lat="44.00691" lon="2.07247">
        <ele>313.6</ele>
        <time>2021-09-05T11:59:29Z</time>
      </trkpt>
      <trkpt lat="44.0069" lon="2.07246">
        <ele>313.6</ele>
        <time>2021-09-05T11:59:30Z</time>
      </trkpt>
      <trkpt lat="44.00688" lon="2.07244">
        <ele>313.6</ele>
        <time>2021-09-05T11:59:31Z</time>
      </trkpt>
      <trkpt lat="44.00687" lon="2.07243">
        <ele>313.8</ele>
        <time>2021-09-05T11:59:32Z</time>
      </trkpt>
      <trkpt lat="44.00685" lon="2.07243">
        <ele>314</ele>
        <time>2021-09-05T11:59:33Z</time>
      </trkpt>
      <trkpt lat="44.00684" lon="2.07242">
        <ele>314.2</ele>
        <time>2021-09-05T11:59:34Z</time>
      </trkpt>
      <trkpt lat="44.00683" lon="2.07242">
        <ele>314.2</ele>
        <time>2021-09-05T11:59:35Z</time>
      </trkpt>
      <trkpt lat="44.00681" lon="2.07241">
        <ele>314.4</ele>
        <time>2021-09-05T11:59:36Z</time>
      </trkpt>
      <trkpt lat="44.0068" lon="2.0724">
        <ele>314.4</ele>
        <time>2021-09-05T11:59:37Z</time>
      </trkpt>
      <trkpt lat="44.00678" lon="2.07239">
        <ele>314.4</ele>
        <time>2021-09-05T11:59:38Z</time>
      </trkpt>
      <trkpt lat="44.00677" lon="2.07238">
        <ele>314.6</ele>
        <time>2021-09-05T11:59:39Z</time>
      </trkpt>
      <trkpt lat="44.00675" lon="2.07238">
        <ele>314.6</ele>
        <time>2021-09-05T11:59:40Z</time>
      </trkpt>
      <trkpt lat="44.00673" lon="2.07238">
        <ele>314.8</ele>
        <time>2021-09-05T11:59:41Z</time>
      </trkpt>
      <trkpt lat="44.00671" lon="2.07238">
        <ele>314.8</ele>
        <time>2021-09-05T11:59:42Z</time>
      </trkpt>
      <trkpt lat="44.00669" lon="2.07239">
        <ele>315</ele>
        <time>2021-09-05T11:59:43Z</time>
      </trkpt>
      <trkpt lat="44.00667" lon="2.07239">
        <ele>315</ele>
        <time>2021-09-05T11:59:44Z</time>
      </trkpt>
      <trkpt lat="44.00664" lon="2.0724">
        <ele>315</ele>
        <time>2021-09-05T11:59:45Z</time>
      </trkpt>
      <trkpt lat="44.00662" lon="2.07241">
        <ele>315</ele>
        <time>2021-09-05T11:59:46Z</time>
      </trkpt>
      <trkpt lat="44.00659" lon="2.07242">
        <ele>315</ele>
        <time>2021-09-05T11:59:47Z</time>
      </trkpt>
      <trkpt lat="44.00657" lon="2.07243">
        <ele>315</ele>
        <time>2021-09-05T11:59:48Z</time>
      </trkpt>
      <trkpt lat="44.00655" lon="2.07244">
        <ele>315</ele>
        <time>2021-09-05T11:59:49Z</time>
      </trkpt>
      <trkpt lat="44.00653" lon="2.07245">
        <ele>315.2</ele>
        <time>2021-09-05T11:59:50Z</time>
      </trkpt>
      <trkpt lat="44.00649" lon="2.07246">
        <ele>315.2</ele>
        <time>2021-09-05T11:59:51Z</time>
      </trkpt>
      <trkpt lat="44.00646" lon="2.07246">
        <ele>315.2</ele>
        <time>2021-09-05T11:59:52Z</time>
      </trkpt>
      <trkpt lat="44.00643" lon="2.07245">
        <ele>315.2</ele>
        <time>2021-09-05T11:59:53Z</time>
      </trkpt>
      <trkpt lat="44.00641" lon="2.07245">
        <ele>315.2</ele>
        <time>2021-09-05T11:59:54Z</time>
      </trkpt>
      <trkpt lat="44.00638" lon="2.07244">
        <ele>315.2</ele>
        <time>2021-09-05T11:59:55Z</time>
      </trkpt>
      <trkpt lat="44.00634" lon="2.07242">
        <ele>315.2</ele>
        <time>2021-09-05T11:59:56Z</time>
      </trkpt>
      <trkpt lat="44.00631" lon="2.0724">
        <ele>315.2</ele>
        <time>2021-09-05T11:59:57Z</time>
      </trkpt>
      <trkpt lat="44.00616" lon="2.07226">
        <ele>315.2</ele>
        <time>2021-09-05T12:00:01Z</time>
      </trkpt>
      <trkpt lat="44.00613" lon="2.07221">
        <ele>315.2</ele>
        <time>2021-09-05T12:00:02Z</time>
      </trkpt>
      <trkpt lat="44.00608" lon="2.07215">
        <ele>315.2</ele>
        <time>2021-09-05T12:00:03Z</time>
      </trkpt>
      <trkpt lat="44.00605" lon="2.07212">
        <ele>315</ele>
        <time>2021-09-05T12:00:04Z</time>
      </trkpt>
      <trkpt lat="44.00602" lon="2.07209">
        <ele>315</ele>
        <time>2021-09-05T12:00:05Z</time>
      </trkpt>
      <trkpt lat="44.00597" lon="2.07207">
        <ele>314.8</ele>
        <time>2021-09-05T12:00:06Z</time>
      </trkpt>
      <trkpt lat="44.00594" lon="2.07208">
        <ele>314.4</ele>
        <time>2021-09-05T12:00:07Z</time>
      </trkpt>
      <trkpt lat="44.00591" lon="2.07209">
        <ele>314.2</ele>
        <time>2021-09-05T12:00:08Z</time>
      </trkpt>
      <trkpt lat="44.00589" lon="2.07212">
        <ele>313.6</ele>
        <time>2021-09-05T12:00:09Z</time>
      </trkpt>
      <trkpt lat="44.00587" lon="2.07216">
        <ele>313.2</ele>
        <time>2021-09-05T12:00:10Z</time>
      </trkpt>
      <trkpt lat="44.00584" lon="2.0722">
        <ele>312.4</ele>
        <time>2021-09-05T12:00:11Z</time>
      </trkpt>
      <trkpt lat="44.00582" lon="2.07223">
        <ele>312</ele>
        <time>2021-09-05T12:00:12Z</time>
      </trkpt>
      <trkpt lat="44.00581" lon="2.07227">
        <ele>311.6</ele>
        <time>2021-09-05T12:00:13Z</time>
      </trkpt>
      <trkpt lat="44.0058" lon="2.0723">
        <ele>311</ele>
        <time>2021-09-05T12:00:14Z</time>
      </trkpt>
      <trkpt lat="44.00578" lon="2.07233">
        <ele>310.8</ele>
        <time>2021-09-05T12:00:15Z</time>
      </trkpt>
      <trkpt lat="44.00577" lon="2.07234">
        <ele>310.2</ele>
        <time>2021-09-05T12:00:16Z</time>
      </trkpt>
      <trkpt lat="44.00577" lon="2.07233">
        <ele>310</ele>
        <time>2021-09-05T12:00:17Z</time>
      </trkpt>
      <trkpt lat="44.00576" lon="2.07232">
        <ele>309.8</ele>
        <time>2021-09-05T12:00:18Z</time>
      </trkpt>
      <trkpt lat="44.00577" lon="2.07231">
        <ele>309.6</ele>
        <time>2021-09-05T12:00:19Z</time>
      </trkpt>
      <trkpt lat="44.00578" lon="2.07229">
        <ele>309.2</ele>
        <time>2021-09-05T12:00:22Z</time>
      </trkpt>
      <trkpt lat="44.00578" lon="2.07227">
        <ele>309</ele>
        <time>2021-09-05T12:00:23Z</time>
      </trkpt>
      <trkpt lat="44.00579" lon="2.07225">
        <ele>309</ele>
        <time>2021-09-05T12:00:24Z</time>
      </trkpt>
      <trkpt lat="44.00579" lon="2.07222">
        <ele>308.8</ele>
        <time>2021-09-05T12:00:25Z</time>
      </trkpt>
      <trkpt lat="44.0058" lon="2.07218">
        <ele>308.6</ele>
        <time>2021-09-05T12:00:26Z</time>
      </trkpt>
      <trkpt lat="44.0058" lon="2.07216">
        <ele>308.6</ele>
        <time>2021-09-05T12:00:27Z</time>
      </trkpt>
      <trkpt lat="44.00581" lon="2.07211">
        <ele>308.4</ele>
        <time>2021-09-05T12:00:28Z</time>
      </trkpt>
      <trkpt lat="44.00581" lon="2.07207">
        <ele>308</ele>
        <time>2021-09-05T12:00:29Z</time>
      </trkpt>
      <trkpt lat="44.00581" lon="2.07194">
        <ele>307.6</ele>
        <time>2021-09-05T12:00:31Z</time>
      </trkpt>
      <trkpt lat="44.00579" lon="2.07187">
        <ele>307</ele>
        <time>2021-09-05T12:00:32Z</time>
      </trkpt>
      <trkpt lat="44.00577" lon="2.07181">
        <ele>306.8</ele>
        <time>2021-09-05T12:00:33Z</time>
      </trkpt>
      <trkpt lat="44.00575" lon="2.07176">
        <ele>306</ele>
        <time>2021-09-05T12:00:34Z</time>
      </trkpt>
      <trkpt lat="44.00571" lon="2.07169">
        <ele>305.8</ele>
        <time>2021-09-05T12:00:35Z</time>
      </trkpt>
      <trkpt lat="44.00567" lon="2.07163">
        <ele>305</ele>
        <time>2021-09-05T12:00:36Z</time>
      </trkpt>
      <trkpt lat="44.00563" lon="2.07157">
        <ele>304.8</ele>
        <time>2021-09-05T12:00:37Z</time>
      </trkpt>
      <trkpt lat="44.00556" lon="2.07146">
        <ele>303.6</ele>
        <time>2021-09-05T12:00:39Z</time>
      </trkpt>
      <trkpt lat="44.00551" lon="2.07138">
        <ele>303.6</ele>
        <time>2021-09-05T12:00:40Z</time>
      </trkpt>
      <trkpt lat="44.00548" lon="2.07131">
        <ele>302.6</ele>
        <time>2021-09-05T12:00:41Z</time>
      </trkpt>
      <trkpt lat="44.00546" lon="2.07124">
        <ele>302.4</ele>
        <time>2021-09-05T12:00:42Z</time>
      </trkpt>
      <trkpt lat="44.00546" lon="2.07115">
        <ele>301.8</ele>
        <time>2021-09-05T12:00:43Z</time>
      </trkpt>
      <trkpt lat="44.00547" lon="2.07109">
        <ele>301.6</ele>
        <time>2021-09-05T12:00:44Z</time>
      </trkpt>
      <trkpt lat="44.00548" lon="2.07099">
        <ele>301.2</ele>
        <time>2021-09-05T12:00:45Z</time>
      </trkpt>
      <trkpt lat="44.00549" lon="2.07089">
        <ele>300.8</ele>
        <time>2021-09-05T12:00:46Z</time>
      </trkpt>
      <trkpt lat="44.00551" lon="2.07082">
        <ele>300</ele>
        <time>2021-09-05T12:00:47Z</time>
      </trkpt>
      <trkpt lat="44.00552" lon="2.07076">
        <ele>299.6</ele>
        <time>2021-09-05T12:00:48Z</time>
      </trkpt>
      <trkpt lat="44.00552" lon="2.07072">
        <ele>299.6</ele>
        <time>2021-09-05T12:00:49Z</time>
      </trkpt>
      <trkpt lat="44.00552" lon="2.07069">
        <ele>299.4</ele>
        <time>2021-09-05T12:00:50Z</time>
      </trkpt>
      <trkpt lat="44.00552" lon="2.07066">
        <ele>299.4</ele>
        <time>2021-09-05T12:00:51Z</time>
      </trkpt>
      <trkpt lat="44.00551" lon="2.07065">
        <ele>299.4</ele>
        <time>2021-09-05T12:00:52Z</time>
      </trkpt>
      <trkpt lat="44.0055" lon="2.07066">
        <ele>299.4</ele>
        <time>2021-09-05T12:00:53Z</time>
      </trkpt>
      <trkpt lat="44.00548" lon="2.07067">
        <ele>299.4</ele>
        <time>2021-09-05T12:00:54Z</time>
      </trkpt>
      <trkpt lat="44.00547" lon="2.07069">
        <ele>299.4</ele>
        <time>2021-09-05T12:00:55Z</time>
      </trkpt>
      <trkpt lat="44.00546" lon="2.0707">
        <ele>299.4</ele>
        <time>2021-09-05T12:00:56Z</time>
      </trkpt>
      <trkpt lat="44.00546" lon="2.07071">
        <ele>299.8</ele>
        <time>2021-09-05T12:00:57Z</time>
      </trkpt>
      <trkpt lat="44.00546" lon="2.07071">
        <ele>300</ele>
        <time>2021-09-05T12:00:58Z</time>
      </trkpt>
      <trkpt lat="44.00546" lon="2.07072">
        <ele>300.2</ele>
        <time>2021-09-05T12:00:59Z</time>
      </trkpt>
      <trkpt lat="44.00546" lon="2.07073">
        <ele>300.2</ele>
        <time>2021-09-05T12:01:00Z</time>
      </trkpt>
      <trkpt lat="44.00546" lon="2.07074">
        <ele>300.4</ele>
        <time>2021-09-05T12:01:01Z</time>
      </trkpt>
    </trkseg>
  </trk>
</gpx>